<?xml version="1.0" encoding="UTF-8" standalone="no" ?>
<gpx xmlns="http://www.topografix.com/GPX/1/1" xmlns:xsi="http://www.w3.org/2001/XMLSchema-instance" xsi:schemaLocation="http://www.topografix.com/GPX/1/1 http://www.topografix.com/GPX/1/1/gpx.xsd" version="1.1" creator="VisuGPX - https://www.visugpx.com">
  <metadata>
    <name>WAcGhyd42r</name>
    <desc><![CDATA[

]]></desc>
  </metadata>
  <trk>
    <name><![CDATA[WAcGhyd42r_1]]></name>
    <extensions>
      <line xmlns="http://www.topografix.com/GPX/gpx_style/0/2">
        <color>0000FF</color>
        <width>4</width>
      </line>
    </extensions>
    <trkseg>
      <trkpt lat="45.76109" lon="-1.21516">
        <ele>72</ele>
        <time>2020-01-26T11:05:47Z</time>
      </trkpt>
      <trkpt lat="45.76109" lon="-1.21513">
        <ele>72.6</ele>
        <time>2020-01-26T11:05:48Z</time>
      </trkpt>
      <trkpt lat="45.76109" lon="-1.21509">
        <ele>73.6</ele>
        <time>2020-01-26T11:05:49Z</time>
      </trkpt>
      <trkpt lat="45.76109" lon="-1.21506">
        <ele>74.4</ele>
        <time>2020-01-26T11:05:50Z</time>
      </trkpt>
      <trkpt lat="45.76109" lon="-1.21503">
        <ele>75</ele>
        <time>2020-01-26T11:05:51Z</time>
      </trkpt>
      <trkpt lat="45.76109" lon="-1.21498">
        <ele>74.8</ele>
        <time>2020-01-26T11:05:52Z</time>
      </trkpt>
      <trkpt lat="45.76109" lon="-1.21495">
        <ele>75.2</ele>
        <time>2020-01-26T11:05:53Z</time>
      </trkpt>
      <trkpt lat="45.76109" lon="-1.21492">
        <ele>75.4</ele>
        <time>2020-01-26T11:05:54Z</time>
      </trkpt>
      <trkpt lat="45.76109" lon="-1.21489">
        <ele>75.4</ele>
        <time>2020-01-26T11:05:55Z</time>
      </trkpt>
      <trkpt lat="45.76109" lon="-1.21486">
        <ele>75.4</ele>
        <time>2020-01-26T11:05:56Z</time>
      </trkpt>
      <trkpt lat="45.7611" lon="-1.21483">
        <ele>75.6</ele>
        <time>2020-01-26T11:05:57Z</time>
      </trkpt>
      <trkpt lat="45.7611" lon="-1.21481">
        <ele>76.4</ele>
        <time>2020-01-26T11:05:58Z</time>
      </trkpt>
      <trkpt lat="45.7611" lon="-1.21478">
        <ele>76.8</ele>
        <time>2020-01-26T11:05:59Z</time>
      </trkpt>
      <trkpt lat="45.76111" lon="-1.21476">
        <ele>77.4</ele>
        <time>2020-01-26T11:06:00Z</time>
      </trkpt>
      <trkpt lat="45.76112" lon="-1.21473">
        <ele>77.8</ele>
        <time>2020-01-26T11:06:01Z</time>
      </trkpt>
      <trkpt lat="45.76111" lon="-1.21469">
        <ele>78.8</ele>
        <time>2020-01-26T11:06:02Z</time>
      </trkpt>
      <trkpt lat="45.7611" lon="-1.21466">
        <ele>79.6</ele>
        <time>2020-01-26T11:06:03Z</time>
      </trkpt>
      <trkpt lat="45.7611" lon="-1.21462">
        <ele>79.6</ele>
        <time>2020-01-26T11:06:04Z</time>
      </trkpt>
      <trkpt lat="45.7611" lon="-1.2146">
        <ele>79.6</ele>
        <time>2020-01-26T11:06:05Z</time>
      </trkpt>
      <trkpt lat="45.7611" lon="-1.21458">
        <ele>80.2</ele>
        <time>2020-01-26T11:06:06Z</time>
      </trkpt>
      <trkpt lat="45.76109" lon="-1.21455">
        <ele>80</ele>
        <time>2020-01-26T11:06:07Z</time>
      </trkpt>
      <trkpt lat="45.76108" lon="-1.21452">
        <ele>79.8</ele>
        <time>2020-01-26T11:06:08Z</time>
      </trkpt>
      <trkpt lat="45.76107" lon="-1.2145">
        <ele>79.6</ele>
        <time>2020-01-26T11:06:09Z</time>
      </trkpt>
      <trkpt lat="45.76107" lon="-1.21447">
        <ele>79.2</ele>
        <time>2020-01-26T11:06:10Z</time>
      </trkpt>
      <trkpt lat="45.76107" lon="-1.21441">
        <ele>78.8</ele>
        <time>2020-01-26T11:06:11Z</time>
      </trkpt>
      <trkpt lat="45.76107" lon="-1.21438">
        <ele>78.6</ele>
        <time>2020-01-26T11:06:12Z</time>
      </trkpt>
      <trkpt lat="45.76105" lon="-1.21433">
        <ele>78.8</ele>
        <time>2020-01-26T11:06:13Z</time>
      </trkpt>
      <trkpt lat="45.76105" lon="-1.2143">
        <ele>79.2</ele>
        <time>2020-01-26T11:06:14Z</time>
      </trkpt>
      <trkpt lat="45.76105" lon="-1.21427">
        <ele>79.8</ele>
        <time>2020-01-26T11:06:15Z</time>
      </trkpt>
      <trkpt lat="45.76103" lon="-1.21424">
        <ele>80.6</ele>
        <time>2020-01-26T11:06:16Z</time>
      </trkpt>
      <trkpt lat="45.76103" lon="-1.21421">
        <ele>81.2</ele>
        <time>2020-01-26T11:06:17Z</time>
      </trkpt>
      <trkpt lat="45.76102" lon="-1.21417">
        <ele>82.2</ele>
        <time>2020-01-26T11:06:18Z</time>
      </trkpt>
      <trkpt lat="45.76102" lon="-1.21413">
        <ele>83</ele>
        <time>2020-01-26T11:06:19Z</time>
      </trkpt>
      <trkpt lat="45.76101" lon="-1.21407">
        <ele>83.4</ele>
        <time>2020-01-26T11:06:20Z</time>
      </trkpt>
      <trkpt lat="45.76103" lon="-1.21402">
        <ele>83.4</ele>
        <time>2020-01-26T11:06:21Z</time>
      </trkpt>
      <trkpt lat="45.76102" lon="-1.21397">
        <ele>83.8</ele>
        <time>2020-01-26T11:06:22Z</time>
      </trkpt>
      <trkpt lat="45.76103" lon="-1.21392">
        <ele>84.2</ele>
        <time>2020-01-26T11:06:23Z</time>
      </trkpt>
      <trkpt lat="45.76103" lon="-1.21388">
        <ele>84.8</ele>
        <time>2020-01-26T11:06:24Z</time>
      </trkpt>
      <trkpt lat="45.76103" lon="-1.21381">
        <ele>84.8</ele>
        <time>2020-01-26T11:06:25Z</time>
      </trkpt>
      <trkpt lat="45.76103" lon="-1.21376">
        <ele>85.2</ele>
        <time>2020-01-26T11:06:26Z</time>
      </trkpt>
      <trkpt lat="45.76104" lon="-1.21372">
        <ele>84.8</ele>
        <time>2020-01-26T11:06:27Z</time>
      </trkpt>
      <trkpt lat="45.76104" lon="-1.21367">
        <ele>84.6</ele>
        <time>2020-01-26T11:06:28Z</time>
      </trkpt>
      <trkpt lat="45.76105" lon="-1.21362">
        <ele>84.2</ele>
        <time>2020-01-26T11:06:29Z</time>
      </trkpt>
      <trkpt lat="45.76105" lon="-1.21356">
        <ele>84.2</ele>
        <time>2020-01-26T11:06:30Z</time>
      </trkpt>
      <trkpt lat="45.76105" lon="-1.2135">
        <ele>84.2</ele>
        <time>2020-01-26T11:06:31Z</time>
      </trkpt>
      <trkpt lat="45.76105" lon="-1.21344">
        <ele>84</ele>
        <time>2020-01-26T11:06:32Z</time>
      </trkpt>
      <trkpt lat="45.76105" lon="-1.21337">
        <ele>83.6</ele>
        <time>2020-01-26T11:06:33Z</time>
      </trkpt>
      <trkpt lat="45.76103" lon="-1.2133">
        <ele>83.2</ele>
        <time>2020-01-26T11:06:34Z</time>
      </trkpt>
      <trkpt lat="45.761" lon="-1.21324">
        <ele>82.8</ele>
        <time>2020-01-26T11:06:35Z</time>
      </trkpt>
      <trkpt lat="45.76099" lon="-1.21317">
        <ele>82.6</ele>
        <time>2020-01-26T11:06:36Z</time>
      </trkpt>
      <trkpt lat="45.76099" lon="-1.21308">
        <ele>82.6</ele>
        <time>2020-01-26T11:06:37Z</time>
      </trkpt>
      <trkpt lat="45.76099" lon="-1.21301">
        <ele>82.6</ele>
        <time>2020-01-26T11:06:38Z</time>
      </trkpt>
      <trkpt lat="45.76101" lon="-1.21294">
        <ele>82.2</ele>
        <time>2020-01-26T11:06:39Z</time>
      </trkpt>
      <trkpt lat="45.76101" lon="-1.21286">
        <ele>81.8</ele>
        <time>2020-01-26T11:06:40Z</time>
      </trkpt>
      <trkpt lat="45.76102" lon="-1.21279">
        <ele>81.6</ele>
        <time>2020-01-26T11:06:41Z</time>
      </trkpt>
      <trkpt lat="45.76102" lon="-1.21272">
        <ele>81.2</ele>
        <time>2020-01-26T11:06:42Z</time>
      </trkpt>
      <trkpt lat="45.761" lon="-1.21263">
        <ele>81</ele>
        <time>2020-01-26T11:06:43Z</time>
      </trkpt>
      <trkpt lat="45.76101" lon="-1.21253">
        <ele>80.8</ele>
        <time>2020-01-26T11:06:44Z</time>
      </trkpt>
      <trkpt lat="45.76102" lon="-1.21244">
        <ele>80.2</ele>
        <time>2020-01-26T11:06:45Z</time>
      </trkpt>
      <trkpt lat="45.76103" lon="-1.21235">
        <ele>79.6</ele>
        <time>2020-01-26T11:06:46Z</time>
      </trkpt>
      <trkpt lat="45.76104" lon="-1.21225">
        <ele>79.2</ele>
        <time>2020-01-26T11:06:47Z</time>
      </trkpt>
      <trkpt lat="45.76103" lon="-1.21214">
        <ele>78.6</ele>
        <time>2020-01-26T11:06:48Z</time>
      </trkpt>
      <trkpt lat="45.76101" lon="-1.21201">
        <ele>78.6</ele>
        <time>2020-01-26T11:06:49Z</time>
      </trkpt>
      <trkpt lat="45.76101" lon="-1.21188">
        <ele>78.4</ele>
        <time>2020-01-26T11:06:50Z</time>
      </trkpt>
      <trkpt lat="45.761" lon="-1.21177">
        <ele>78.2</ele>
        <time>2020-01-26T11:06:51Z</time>
      </trkpt>
      <trkpt lat="45.76097" lon="-1.21164">
        <ele>78.4</ele>
        <time>2020-01-26T11:06:52Z</time>
      </trkpt>
      <trkpt lat="45.76097" lon="-1.21155">
        <ele>78.8</ele>
        <time>2020-01-26T11:06:53Z</time>
      </trkpt>
      <trkpt lat="45.76099" lon="-1.21147">
        <ele>78.6</ele>
        <time>2020-01-26T11:06:54Z</time>
      </trkpt>
      <trkpt lat="45.76101" lon="-1.2114">
        <ele>78.4</ele>
        <time>2020-01-26T11:06:55Z</time>
      </trkpt>
      <trkpt lat="45.76105" lon="-1.21135">
        <ele>77.8</ele>
        <time>2020-01-26T11:06:56Z</time>
      </trkpt>
      <trkpt lat="45.76107" lon="-1.21134">
        <ele>77.8</ele>
        <time>2020-01-26T11:06:57Z</time>
      </trkpt>
      <trkpt lat="45.76109" lon="-1.21137">
        <ele>77.2</ele>
        <time>2020-01-26T11:06:58Z</time>
      </trkpt>
      <trkpt lat="45.76111" lon="-1.2114">
        <ele>76.6</ele>
        <time>2020-01-26T11:06:59Z</time>
      </trkpt>
      <trkpt lat="45.76114" lon="-1.21142">
        <ele>75.6</ele>
        <time>2020-01-26T11:07:00Z</time>
      </trkpt>
      <trkpt lat="45.76115" lon="-1.21146">
        <ele>75</ele>
        <time>2020-01-26T11:07:01Z</time>
      </trkpt>
      <trkpt lat="45.76117" lon="-1.21149">
        <ele>74</ele>
        <time>2020-01-26T11:07:02Z</time>
      </trkpt>
      <trkpt lat="45.7612" lon="-1.21154">
        <ele>73.2</ele>
        <time>2020-01-26T11:07:03Z</time>
      </trkpt>
      <trkpt lat="45.76123" lon="-1.21161">
        <ele>72.6</ele>
        <time>2020-01-26T11:07:04Z</time>
      </trkpt>
      <trkpt lat="45.76125" lon="-1.21166">
        <ele>72</ele>
        <time>2020-01-26T11:07:05Z</time>
      </trkpt>
      <trkpt lat="45.76127" lon="-1.21172">
        <ele>71.4</ele>
        <time>2020-01-26T11:07:06Z</time>
      </trkpt>
      <trkpt lat="45.7613" lon="-1.21177">
        <ele>70.8</ele>
        <time>2020-01-26T11:07:07Z</time>
      </trkpt>
      <trkpt lat="45.76131" lon="-1.21182">
        <ele>70.4</ele>
        <time>2020-01-26T11:07:08Z</time>
      </trkpt>
      <trkpt lat="45.76133" lon="-1.21186">
        <ele>69.8</ele>
        <time>2020-01-26T11:07:09Z</time>
      </trkpt>
      <trkpt lat="45.76134" lon="-1.21191">
        <ele>69</ele>
        <time>2020-01-26T11:07:10Z</time>
      </trkpt>
      <trkpt lat="45.76135" lon="-1.21196">
        <ele>68.6</ele>
        <time>2020-01-26T11:07:11Z</time>
      </trkpt>
      <trkpt lat="45.76136" lon="-1.21201">
        <ele>68.2</ele>
        <time>2020-01-26T11:07:12Z</time>
      </trkpt>
      <trkpt lat="45.76137" lon="-1.21206">
        <ele>68.2</ele>
        <time>2020-01-26T11:07:13Z</time>
      </trkpt>
      <trkpt lat="45.7614" lon="-1.21211">
        <ele>68.2</ele>
        <time>2020-01-26T11:07:14Z</time>
      </trkpt>
      <trkpt lat="45.76141" lon="-1.21215">
        <ele>68.4</ele>
        <time>2020-01-26T11:07:15Z</time>
      </trkpt>
      <trkpt lat="45.76142" lon="-1.2122">
        <ele>68.6</ele>
        <time>2020-01-26T11:07:16Z</time>
      </trkpt>
      <trkpt lat="45.76144" lon="-1.21225">
        <ele>69.2</ele>
        <time>2020-01-26T11:07:17Z</time>
      </trkpt>
      <trkpt lat="45.76143" lon="-1.21229">
        <ele>69.4</ele>
        <time>2020-01-26T11:07:18Z</time>
      </trkpt>
      <trkpt lat="45.76144" lon="-1.21234">
        <ele>70.4</ele>
        <time>2020-01-26T11:07:19Z</time>
      </trkpt>
      <trkpt lat="45.76146" lon="-1.21236">
        <ele>71</ele>
        <time>2020-01-26T11:07:20Z</time>
      </trkpt>
      <trkpt lat="45.76147" lon="-1.2124">
        <ele>72</ele>
        <time>2020-01-26T11:07:21Z</time>
      </trkpt>
      <trkpt lat="45.76149" lon="-1.21243">
        <ele>72.4</ele>
        <time>2020-01-26T11:07:22Z</time>
      </trkpt>
      <trkpt lat="45.76148" lon="-1.21246">
        <ele>72.8</ele>
        <time>2020-01-26T11:07:23Z</time>
      </trkpt>
      <trkpt lat="45.7615" lon="-1.21248">
        <ele>73</ele>
        <time>2020-01-26T11:07:24Z</time>
      </trkpt>
      <trkpt lat="45.76153" lon="-1.21249">
        <ele>73.8</ele>
        <time>2020-01-26T11:07:25Z</time>
      </trkpt>
      <trkpt lat="45.76155" lon="-1.2125">
        <ele>74.2</ele>
        <time>2020-01-26T11:07:26Z</time>
      </trkpt>
      <trkpt lat="45.7616" lon="-1.21252">
        <ele>75</ele>
        <time>2020-01-26T11:07:27Z</time>
      </trkpt>
      <trkpt lat="45.76162" lon="-1.21253">
        <ele>75.4</ele>
        <time>2020-01-26T11:07:28Z</time>
      </trkpt>
      <trkpt lat="45.76164" lon="-1.21256">
        <ele>75.6</ele>
        <time>2020-01-26T11:07:29Z</time>
      </trkpt>
      <trkpt lat="45.76167" lon="-1.21256">
        <ele>76</ele>
        <time>2020-01-26T11:07:30Z</time>
      </trkpt>
      <trkpt lat="45.76169" lon="-1.21256">
        <ele>77.4</ele>
        <time>2020-01-26T11:07:31Z</time>
      </trkpt>
      <trkpt lat="45.7617" lon="-1.21257">
        <ele>78.8</ele>
        <time>2020-01-26T11:07:32Z</time>
      </trkpt>
      <trkpt lat="45.76173" lon="-1.21258">
        <ele>80.2</ele>
        <time>2020-01-26T11:07:33Z</time>
      </trkpt>
      <trkpt lat="45.76175" lon="-1.2126">
        <ele>81.4</ele>
        <time>2020-01-26T11:07:34Z</time>
      </trkpt>
      <trkpt lat="45.76179" lon="-1.21259">
        <ele>82.2</ele>
        <time>2020-01-26T11:07:35Z</time>
      </trkpt>
      <trkpt lat="45.7618" lon="-1.21259">
        <ele>83</ele>
        <time>2020-01-26T11:07:36Z</time>
      </trkpt>
      <trkpt lat="45.76181" lon="-1.2126">
        <ele>84</ele>
        <time>2020-01-26T11:07:37Z</time>
      </trkpt>
      <trkpt lat="45.76184" lon="-1.21258">
        <ele>84.4</ele>
        <time>2020-01-26T11:07:38Z</time>
      </trkpt>
      <trkpt lat="45.76186" lon="-1.21259">
        <ele>84.8</ele>
        <time>2020-01-26T11:07:39Z</time>
      </trkpt>
      <trkpt lat="45.76188" lon="-1.2126">
        <ele>85.2</ele>
        <time>2020-01-26T11:07:40Z</time>
      </trkpt>
      <trkpt lat="45.76189" lon="-1.21261">
        <ele>85.6</ele>
        <time>2020-01-26T11:07:41Z</time>
      </trkpt>
      <trkpt lat="45.76192" lon="-1.21262">
        <ele>86</ele>
        <time>2020-01-26T11:07:42Z</time>
      </trkpt>
      <trkpt lat="45.76199" lon="-1.21262">
        <ele>86</ele>
        <time>2020-01-26T11:07:43Z</time>
      </trkpt>
      <trkpt lat="45.762" lon="-1.21263">
        <ele>85.6</ele>
        <time>2020-01-26T11:07:44Z</time>
      </trkpt>
      <trkpt lat="45.76201" lon="-1.21264">
        <ele>85.2</ele>
        <time>2020-01-26T11:07:45Z</time>
      </trkpt>
      <trkpt lat="45.76204" lon="-1.21264">
        <ele>85</ele>
        <time>2020-01-26T11:07:46Z</time>
      </trkpt>
      <trkpt lat="45.76204" lon="-1.21265">
        <ele>85</ele>
        <time>2020-01-26T11:07:47Z</time>
      </trkpt>
      <trkpt lat="45.76205" lon="-1.21266">
        <ele>85</ele>
        <time>2020-01-26T11:07:48Z</time>
      </trkpt>
      <trkpt lat="45.76206" lon="-1.21267">
        <ele>85</ele>
        <time>2020-01-26T11:07:49Z</time>
      </trkpt>
      <trkpt lat="45.76209" lon="-1.21269">
        <ele>85.6</ele>
        <time>2020-01-26T11:07:50Z</time>
      </trkpt>
      <trkpt lat="45.76211" lon="-1.2127">
        <ele>86</ele>
        <time>2020-01-26T11:07:51Z</time>
      </trkpt>
      <trkpt lat="45.76214" lon="-1.21271">
        <ele>86.6</ele>
        <time>2020-01-26T11:07:52Z</time>
      </trkpt>
      <trkpt lat="45.76216" lon="-1.21272">
        <ele>86.6</ele>
        <time>2020-01-26T11:07:53Z</time>
      </trkpt>
      <trkpt lat="45.76218" lon="-1.21273">
        <ele>86.6</ele>
        <time>2020-01-26T11:07:54Z</time>
      </trkpt>
      <trkpt lat="45.7622" lon="-1.21274">
        <ele>86.4</ele>
        <time>2020-01-26T11:07:55Z</time>
      </trkpt>
      <trkpt lat="45.76222" lon="-1.21275">
        <ele>86.4</ele>
        <time>2020-01-26T11:07:56Z</time>
      </trkpt>
      <trkpt lat="45.76224" lon="-1.21276">
        <ele>86.2</ele>
        <time>2020-01-26T11:07:57Z</time>
      </trkpt>
      <trkpt lat="45.76226" lon="-1.21277">
        <ele>86.2</ele>
        <time>2020-01-26T11:07:58Z</time>
      </trkpt>
      <trkpt lat="45.76226" lon="-1.21281">
        <ele>86.2</ele>
        <time>2020-01-26T11:07:59Z</time>
      </trkpt>
      <trkpt lat="45.76229" lon="-1.21282">
        <ele>85.6</ele>
        <time>2020-01-26T11:08:00Z</time>
      </trkpt>
      <trkpt lat="45.76232" lon="-1.21282">
        <ele>84.6</ele>
        <time>2020-01-26T11:08:01Z</time>
      </trkpt>
      <trkpt lat="45.76235" lon="-1.21285">
        <ele>84.2</ele>
        <time>2020-01-26T11:08:02Z</time>
      </trkpt>
      <trkpt lat="45.76237" lon="-1.21289">
        <ele>84</ele>
        <time>2020-01-26T11:08:03Z</time>
      </trkpt>
      <trkpt lat="45.76238" lon="-1.21294">
        <ele>83.2</ele>
        <time>2020-01-26T11:08:04Z</time>
      </trkpt>
      <trkpt lat="45.76241" lon="-1.21299">
        <ele>82</ele>
        <time>2020-01-26T11:08:05Z</time>
      </trkpt>
      <trkpt lat="45.76242" lon="-1.21304">
        <ele>81</ele>
        <time>2020-01-26T11:08:06Z</time>
      </trkpt>
      <trkpt lat="45.76246" lon="-1.21309">
        <ele>80.2</ele>
        <time>2020-01-26T11:08:07Z</time>
      </trkpt>
      <trkpt lat="45.76246" lon="-1.21314">
        <ele>79.4</ele>
        <time>2020-01-26T11:08:08Z</time>
      </trkpt>
      <trkpt lat="45.7625" lon="-1.2132">
        <ele>78.6</ele>
        <time>2020-01-26T11:08:09Z</time>
      </trkpt>
      <trkpt lat="45.76252" lon="-1.21324">
        <ele>78</ele>
        <time>2020-01-26T11:08:10Z</time>
      </trkpt>
      <trkpt lat="45.76256" lon="-1.21329">
        <ele>77.2</ele>
        <time>2020-01-26T11:08:11Z</time>
      </trkpt>
      <trkpt lat="45.76262" lon="-1.21331">
        <ele>76.4</ele>
        <time>2020-01-26T11:08:12Z</time>
      </trkpt>
      <trkpt lat="45.76265" lon="-1.21335">
        <ele>76.4</ele>
        <time>2020-01-26T11:08:13Z</time>
      </trkpt>
      <trkpt lat="45.76268" lon="-1.21338">
        <ele>76.2</ele>
        <time>2020-01-26T11:08:14Z</time>
      </trkpt>
      <trkpt lat="45.76274" lon="-1.21339">
        <ele>77</ele>
        <time>2020-01-26T11:08:15Z</time>
      </trkpt>
      <trkpt lat="45.76275" lon="-1.2134">
        <ele>77.4</ele>
        <time>2020-01-26T11:08:16Z</time>
      </trkpt>
      <trkpt lat="45.76278" lon="-1.21337">
        <ele>77.8</ele>
        <time>2020-01-26T11:08:17Z</time>
      </trkpt>
      <trkpt lat="45.76278" lon="-1.21336">
        <ele>78.2</ele>
        <time>2020-01-26T11:08:18Z</time>
      </trkpt>
      <trkpt lat="45.7628" lon="-1.21333">
        <ele>78.4</ele>
        <time>2020-01-26T11:08:19Z</time>
      </trkpt>
      <trkpt lat="45.7628" lon="-1.21331">
        <ele>78.6</ele>
        <time>2020-01-26T11:08:20Z</time>
      </trkpt>
      <trkpt lat="45.76281" lon="-1.21327">
        <ele>78.8</ele>
        <time>2020-01-26T11:08:21Z</time>
      </trkpt>
      <trkpt lat="45.76281" lon="-1.21326">
        <ele>79</ele>
        <time>2020-01-26T11:08:22Z</time>
      </trkpt>
      <trkpt lat="45.76281" lon="-1.21323">
        <ele>79.2</ele>
        <time>2020-01-26T11:08:23Z</time>
      </trkpt>
      <trkpt lat="45.76282" lon="-1.21319">
        <ele>79.2</ele>
        <time>2020-01-26T11:08:24Z</time>
      </trkpt>
      <trkpt lat="45.76283" lon="-1.21319">
        <ele>79.4</ele>
        <time>2020-01-26T11:08:25Z</time>
      </trkpt>
      <trkpt lat="45.76284" lon="-1.21317">
        <ele>79.2</ele>
        <time>2020-01-26T11:08:26Z</time>
      </trkpt>
      <trkpt lat="45.76284" lon="-1.21314">
        <ele>79.8</ele>
        <time>2020-01-26T11:08:27Z</time>
      </trkpt>
      <trkpt lat="45.76284" lon="-1.21314">
        <ele>80</ele>
        <time>2020-01-26T11:08:28Z</time>
      </trkpt>
      <trkpt lat="45.76284" lon="-1.21313">
        <ele>80.2</ele>
        <time>2020-01-26T11:08:29Z</time>
      </trkpt>
      <trkpt lat="45.76285" lon="-1.2131">
        <ele>80.2</ele>
        <time>2020-01-26T11:08:30Z</time>
      </trkpt>
      <trkpt lat="45.76285" lon="-1.21308">
        <ele>80.4</ele>
        <time>2020-01-26T11:08:31Z</time>
      </trkpt>
      <trkpt lat="45.76285" lon="-1.21306">
        <ele>80.6</ele>
        <time>2020-01-26T11:08:32Z</time>
      </trkpt>
      <trkpt lat="45.76285" lon="-1.21305">
        <ele>81</ele>
        <time>2020-01-26T11:08:33Z</time>
      </trkpt>
      <trkpt lat="45.76285" lon="-1.21304">
        <ele>80.8</ele>
        <time>2020-01-26T11:08:34Z</time>
      </trkpt>
      <trkpt lat="45.76286" lon="-1.21303">
        <ele>80.2</ele>
        <time>2020-01-26T11:08:35Z</time>
      </trkpt>
      <trkpt lat="45.76286" lon="-1.21303">
        <ele>79.4</ele>
        <time>2020-01-26T11:08:36Z</time>
      </trkpt>
      <trkpt lat="45.76285" lon="-1.21301">
        <ele>78.6</ele>
        <time>2020-01-26T11:08:37Z</time>
      </trkpt>
      <trkpt lat="45.76286" lon="-1.21299">
        <ele>78.4</ele>
        <time>2020-01-26T11:08:38Z</time>
      </trkpt>
      <trkpt lat="45.76286" lon="-1.21297">
        <ele>78.6</ele>
        <time>2020-01-26T11:08:39Z</time>
      </trkpt>
      <trkpt lat="45.76285" lon="-1.21295">
        <ele>78.2</ele>
        <time>2020-01-26T11:08:40Z</time>
      </trkpt>
      <trkpt lat="45.76285" lon="-1.21293">
        <ele>77.8</ele>
        <time>2020-01-26T11:08:41Z</time>
      </trkpt>
      <trkpt lat="45.76286" lon="-1.2129">
        <ele>77.6</ele>
        <time>2020-01-26T11:08:42Z</time>
      </trkpt>
      <trkpt lat="45.76286" lon="-1.21288">
        <ele>77.8</ele>
        <time>2020-01-26T11:08:43Z</time>
      </trkpt>
      <trkpt lat="45.76286" lon="-1.21286">
        <ele>78</ele>
        <time>2020-01-26T11:08:44Z</time>
      </trkpt>
      <trkpt lat="45.76285" lon="-1.21284">
        <ele>78.4</ele>
        <time>2020-01-26T11:08:45Z</time>
      </trkpt>
      <trkpt lat="45.76285" lon="-1.21281">
        <ele>78.8</ele>
        <time>2020-01-26T11:08:46Z</time>
      </trkpt>
      <trkpt lat="45.76285" lon="-1.21279">
        <ele>79</ele>
        <time>2020-01-26T11:08:47Z</time>
      </trkpt>
      <trkpt lat="45.76286" lon="-1.21278">
        <ele>79.2</ele>
        <time>2020-01-26T11:08:48Z</time>
      </trkpt>
      <trkpt lat="45.76286" lon="-1.21277">
        <ele>79.4</ele>
        <time>2020-01-26T11:08:49Z</time>
      </trkpt>
      <trkpt lat="45.76287" lon="-1.21276">
        <ele>79.6</ele>
        <time>2020-01-26T11:08:50Z</time>
      </trkpt>
      <trkpt lat="45.76286" lon="-1.21273">
        <ele>79</ele>
        <time>2020-01-26T11:08:51Z</time>
      </trkpt>
      <trkpt lat="45.76287" lon="-1.21271">
        <ele>78.4</ele>
        <time>2020-01-26T11:08:52Z</time>
      </trkpt>
      <trkpt lat="45.76287" lon="-1.21269">
        <ele>77.8</ele>
        <time>2020-01-26T11:08:53Z</time>
      </trkpt>
      <trkpt lat="45.76286" lon="-1.21266">
        <ele>77.6</ele>
        <time>2020-01-26T11:08:54Z</time>
      </trkpt>
      <trkpt lat="45.76286" lon="-1.21264">
        <ele>77.4</ele>
        <time>2020-01-26T11:08:55Z</time>
      </trkpt>
      <trkpt lat="45.76286" lon="-1.21262">
        <ele>77.6</ele>
        <time>2020-01-26T11:08:56Z</time>
      </trkpt>
      <trkpt lat="45.76286" lon="-1.21259">
        <ele>77.6</ele>
        <time>2020-01-26T11:08:57Z</time>
      </trkpt>
      <trkpt lat="45.76284" lon="-1.21257">
        <ele>77.8</ele>
        <time>2020-01-26T11:08:58Z</time>
      </trkpt>
      <trkpt lat="45.76284" lon="-1.21255">
        <ele>77.8</ele>
        <time>2020-01-26T11:08:59Z</time>
      </trkpt>
      <trkpt lat="45.76284" lon="-1.21253">
        <ele>77.8</ele>
        <time>2020-01-26T11:09:00Z</time>
      </trkpt>
      <trkpt lat="45.76284" lon="-1.21252">
        <ele>78.6</ele>
        <time>2020-01-26T11:09:01Z</time>
      </trkpt>
      <trkpt lat="45.76284" lon="-1.21249">
        <ele>79.6</ele>
        <time>2020-01-26T11:09:02Z</time>
      </trkpt>
      <trkpt lat="45.76283" lon="-1.21246">
        <ele>80.4</ele>
        <time>2020-01-26T11:09:03Z</time>
      </trkpt>
      <trkpt lat="45.76284" lon="-1.21242">
        <ele>80</ele>
        <time>2020-01-26T11:09:04Z</time>
      </trkpt>
      <trkpt lat="45.76283" lon="-1.21239">
        <ele>79.8</ele>
        <time>2020-01-26T11:09:05Z</time>
      </trkpt>
      <trkpt lat="45.76283" lon="-1.21235">
        <ele>79.6</ele>
        <time>2020-01-26T11:09:06Z</time>
      </trkpt>
      <trkpt lat="45.76283" lon="-1.21232">
        <ele>79.4</ele>
        <time>2020-01-26T11:09:07Z</time>
      </trkpt>
      <trkpt lat="45.76284" lon="-1.21229">
        <ele>79.4</ele>
        <time>2020-01-26T11:09:08Z</time>
      </trkpt>
      <trkpt lat="45.76284" lon="-1.21226">
        <ele>79</ele>
        <time>2020-01-26T11:09:09Z</time>
      </trkpt>
      <trkpt lat="45.76284" lon="-1.21222">
        <ele>79.2</ele>
        <time>2020-01-26T11:09:10Z</time>
      </trkpt>
      <trkpt lat="45.76283" lon="-1.21218">
        <ele>79.6</ele>
        <time>2020-01-26T11:09:11Z</time>
      </trkpt>
      <trkpt lat="45.76283" lon="-1.21215">
        <ele>80.2</ele>
        <time>2020-01-26T11:09:12Z</time>
      </trkpt>
      <trkpt lat="45.76283" lon="-1.21212">
        <ele>81.6</ele>
        <time>2020-01-26T11:09:13Z</time>
      </trkpt>
      <trkpt lat="45.76283" lon="-1.21209">
        <ele>82.4</ele>
        <time>2020-01-26T11:09:14Z</time>
      </trkpt>
      <trkpt lat="45.76283" lon="-1.21206">
        <ele>83</ele>
        <time>2020-01-26T11:09:15Z</time>
      </trkpt>
      <trkpt lat="45.76283" lon="-1.21203">
        <ele>83.4</ele>
        <time>2020-01-26T11:09:16Z</time>
      </trkpt>
      <trkpt lat="45.76283" lon="-1.212">
        <ele>83.6</ele>
        <time>2020-01-26T11:09:17Z</time>
      </trkpt>
      <trkpt lat="45.76282" lon="-1.21197">
        <ele>84</ele>
        <time>2020-01-26T11:09:18Z</time>
      </trkpt>
      <trkpt lat="45.76281" lon="-1.21193">
        <ele>85</ele>
        <time>2020-01-26T11:09:19Z</time>
      </trkpt>
      <trkpt lat="45.76281" lon="-1.21191">
        <ele>85.4</ele>
        <time>2020-01-26T11:09:20Z</time>
      </trkpt>
      <trkpt lat="45.7628" lon="-1.21188">
        <ele>86.2</ele>
        <time>2020-01-26T11:09:21Z</time>
      </trkpt>
      <trkpt lat="45.76281" lon="-1.21185">
        <ele>86.6</ele>
        <time>2020-01-26T11:09:22Z</time>
      </trkpt>
      <trkpt lat="45.76281" lon="-1.21182">
        <ele>86.4</ele>
        <time>2020-01-26T11:09:23Z</time>
      </trkpt>
      <trkpt lat="45.76281" lon="-1.21179">
        <ele>86.4</ele>
        <time>2020-01-26T11:09:24Z</time>
      </trkpt>
      <trkpt lat="45.76279" lon="-1.21176">
        <ele>86</ele>
        <time>2020-01-26T11:09:25Z</time>
      </trkpt>
      <trkpt lat="45.76278" lon="-1.21173">
        <ele>85.6</ele>
        <time>2020-01-26T11:09:26Z</time>
      </trkpt>
      <trkpt lat="45.76278" lon="-1.21171">
        <ele>85</ele>
        <time>2020-01-26T11:09:27Z</time>
      </trkpt>
      <trkpt lat="45.76278" lon="-1.21168">
        <ele>84.8</ele>
        <time>2020-01-26T11:09:28Z</time>
      </trkpt>
      <trkpt lat="45.76278" lon="-1.21164">
        <ele>84.6</ele>
        <time>2020-01-26T11:09:29Z</time>
      </trkpt>
      <trkpt lat="45.76278" lon="-1.21161">
        <ele>85</ele>
        <time>2020-01-26T11:09:30Z</time>
      </trkpt>
      <trkpt lat="45.76279" lon="-1.21157">
        <ele>85.2</ele>
        <time>2020-01-26T11:09:31Z</time>
      </trkpt>
      <trkpt lat="45.76279" lon="-1.21154">
        <ele>85.8</ele>
        <time>2020-01-26T11:09:32Z</time>
      </trkpt>
      <trkpt lat="45.76279" lon="-1.21149">
        <ele>86.6</ele>
        <time>2020-01-26T11:09:33Z</time>
      </trkpt>
      <trkpt lat="45.76279" lon="-1.21146">
        <ele>87.2</ele>
        <time>2020-01-26T11:09:34Z</time>
      </trkpt>
      <trkpt lat="45.76279" lon="-1.21143">
        <ele>87.6</ele>
        <time>2020-01-26T11:09:35Z</time>
      </trkpt>
      <trkpt lat="45.7628" lon="-1.21139">
        <ele>88</ele>
        <time>2020-01-26T11:09:36Z</time>
      </trkpt>
      <trkpt lat="45.7628" lon="-1.21135">
        <ele>88.2</ele>
        <time>2020-01-26T11:09:37Z</time>
      </trkpt>
      <trkpt lat="45.7628" lon="-1.21131">
        <ele>88.4</ele>
        <time>2020-01-26T11:09:38Z</time>
      </trkpt>
      <trkpt lat="45.76281" lon="-1.21128">
        <ele>88.8</ele>
        <time>2020-01-26T11:09:39Z</time>
      </trkpt>
      <trkpt lat="45.76281" lon="-1.21125">
        <ele>89.2</ele>
        <time>2020-01-26T11:09:40Z</time>
      </trkpt>
      <trkpt lat="45.76281" lon="-1.21122">
        <ele>89.6</ele>
        <time>2020-01-26T11:09:41Z</time>
      </trkpt>
      <trkpt lat="45.76282" lon="-1.21119">
        <ele>90</ele>
        <time>2020-01-26T11:09:42Z</time>
      </trkpt>
      <trkpt lat="45.76281" lon="-1.21116">
        <ele>90.4</ele>
        <time>2020-01-26T11:09:43Z</time>
      </trkpt>
      <trkpt lat="45.76281" lon="-1.21113">
        <ele>90.8</ele>
        <time>2020-01-26T11:09:44Z</time>
      </trkpt>
      <trkpt lat="45.76281" lon="-1.2111">
        <ele>91.2</ele>
        <time>2020-01-26T11:09:45Z</time>
      </trkpt>
      <trkpt lat="45.76283" lon="-1.21105">
        <ele>91</ele>
        <time>2020-01-26T11:09:46Z</time>
      </trkpt>
      <trkpt lat="45.76283" lon="-1.21102">
        <ele>91</ele>
        <time>2020-01-26T11:09:47Z</time>
      </trkpt>
      <trkpt lat="45.76283" lon="-1.21098">
        <ele>90.8</ele>
        <time>2020-01-26T11:09:48Z</time>
      </trkpt>
      <trkpt lat="45.76282" lon="-1.21093">
        <ele>91.2</ele>
        <time>2020-01-26T11:09:49Z</time>
      </trkpt>
      <trkpt lat="45.76282" lon="-1.21088">
        <ele>91</ele>
        <time>2020-01-26T11:09:50Z</time>
      </trkpt>
      <trkpt lat="45.76282" lon="-1.21083">
        <ele>91.4</ele>
        <time>2020-01-26T11:09:51Z</time>
      </trkpt>
      <trkpt lat="45.76282" lon="-1.21076">
        <ele>91.4</ele>
        <time>2020-01-26T11:09:52Z</time>
      </trkpt>
      <trkpt lat="45.76281" lon="-1.21069">
        <ele>91</ele>
        <time>2020-01-26T11:09:53Z</time>
      </trkpt>
      <trkpt lat="45.7628" lon="-1.21061">
        <ele>90.6</ele>
        <time>2020-01-26T11:09:54Z</time>
      </trkpt>
      <trkpt lat="45.7628" lon="-1.21051">
        <ele>89.6</ele>
        <time>2020-01-26T11:09:55Z</time>
      </trkpt>
      <trkpt lat="45.76281" lon="-1.21043">
        <ele>88.4</ele>
        <time>2020-01-26T11:09:56Z</time>
      </trkpt>
      <trkpt lat="45.76281" lon="-1.21035">
        <ele>87.2</ele>
        <time>2020-01-26T11:09:57Z</time>
      </trkpt>
      <trkpt lat="45.76282" lon="-1.21028">
        <ele>86.2</ele>
        <time>2020-01-26T11:09:58Z</time>
      </trkpt>
      <trkpt lat="45.76287" lon="-1.21027">
        <ele>85.2</ele>
        <time>2020-01-26T11:09:59Z</time>
      </trkpt>
      <trkpt lat="45.7629" lon="-1.21023">
        <ele>84.2</ele>
        <time>2020-01-26T11:10:00Z</time>
      </trkpt>
      <trkpt lat="45.76292" lon="-1.2102">
        <ele>83.4</ele>
        <time>2020-01-26T11:10:01Z</time>
      </trkpt>
      <trkpt lat="45.76296" lon="-1.21019">
        <ele>83</ele>
        <time>2020-01-26T11:10:02Z</time>
      </trkpt>
      <trkpt lat="45.76298" lon="-1.21019">
        <ele>83</ele>
        <time>2020-01-26T11:10:03Z</time>
      </trkpt>
      <trkpt lat="45.76301" lon="-1.21019">
        <ele>83.6</ele>
        <time>2020-01-26T11:10:04Z</time>
      </trkpt>
      <trkpt lat="45.76305" lon="-1.2102">
        <ele>83.6</ele>
        <time>2020-01-26T11:10:05Z</time>
      </trkpt>
      <trkpt lat="45.76308" lon="-1.21021">
        <ele>83.8</ele>
        <time>2020-01-26T11:10:06Z</time>
      </trkpt>
      <trkpt lat="45.76311" lon="-1.21021">
        <ele>84</ele>
        <time>2020-01-26T11:10:07Z</time>
      </trkpt>
      <trkpt lat="45.76314" lon="-1.21019">
        <ele>84.4</ele>
        <time>2020-01-26T11:10:08Z</time>
      </trkpt>
      <trkpt lat="45.76316" lon="-1.21017">
        <ele>85</ele>
        <time>2020-01-26T11:10:09Z</time>
      </trkpt>
      <trkpt lat="45.7632" lon="-1.21017">
        <ele>85.4</ele>
        <time>2020-01-26T11:10:10Z</time>
      </trkpt>
      <trkpt lat="45.76323" lon="-1.21015">
        <ele>85.8</ele>
        <time>2020-01-26T11:10:11Z</time>
      </trkpt>
      <trkpt lat="45.76327" lon="-1.21014">
        <ele>86.2</ele>
        <time>2020-01-26T11:10:12Z</time>
      </trkpt>
      <trkpt lat="45.76332" lon="-1.21014">
        <ele>85.8</ele>
        <time>2020-01-26T11:10:13Z</time>
      </trkpt>
      <trkpt lat="45.76338" lon="-1.21013">
        <ele>85.8</ele>
        <time>2020-01-26T11:10:14Z</time>
      </trkpt>
      <trkpt lat="45.76349" lon="-1.21013">
        <ele>85.4</ele>
        <time>2020-01-26T11:10:15Z</time>
      </trkpt>
      <trkpt lat="45.76358" lon="-1.21012">
        <ele>85</ele>
        <time>2020-01-26T11:10:16Z</time>
      </trkpt>
      <trkpt lat="45.76368" lon="-1.21015">
        <ele>84</ele>
        <time>2020-01-26T11:10:17Z</time>
      </trkpt>
      <trkpt lat="45.7638" lon="-1.21017">
        <ele>83.2</ele>
        <time>2020-01-26T11:10:18Z</time>
      </trkpt>
      <trkpt lat="45.76393" lon="-1.2102">
        <ele>82.2</ele>
        <time>2020-01-26T11:10:19Z</time>
      </trkpt>
      <trkpt lat="45.76405" lon="-1.21023">
        <ele>81</ele>
        <time>2020-01-26T11:10:20Z</time>
      </trkpt>
      <trkpt lat="45.76416" lon="-1.21025">
        <ele>80.4</ele>
        <time>2020-01-26T11:10:21Z</time>
      </trkpt>
      <trkpt lat="45.76431" lon="-1.21025">
        <ele>79.4</ele>
        <time>2020-01-26T11:10:22Z</time>
      </trkpt>
      <trkpt lat="45.76441" lon="-1.21021">
        <ele>78.6</ele>
        <time>2020-01-26T11:10:23Z</time>
      </trkpt>
      <trkpt lat="45.76451" lon="-1.2102">
        <ele>78</ele>
        <time>2020-01-26T11:10:24Z</time>
      </trkpt>
      <trkpt lat="45.76461" lon="-1.21019">
        <ele>77.4</ele>
        <time>2020-01-26T11:10:25Z</time>
      </trkpt>
      <trkpt lat="45.76459" lon="-1.21012">
        <ele>77.4</ele>
        <time>2020-01-26T11:10:26Z</time>
      </trkpt>
      <trkpt lat="45.7646" lon="-1.21011">
        <ele>76.8</ele>
        <time>2020-01-26T11:10:27Z</time>
      </trkpt>
      <trkpt lat="45.76461" lon="-1.21008">
        <ele>76.6</ele>
        <time>2020-01-26T11:10:28Z</time>
      </trkpt>
      <trkpt lat="45.76462" lon="-1.21006">
        <ele>76.4</ele>
        <time>2020-01-26T11:10:29Z</time>
      </trkpt>
      <trkpt lat="45.76458" lon="-1.21005">
        <ele>76.6</ele>
        <time>2020-01-26T11:10:30Z</time>
      </trkpt>
      <trkpt lat="45.76456" lon="-1.21004">
        <ele>76.6</ele>
        <time>2020-01-26T11:10:31Z</time>
      </trkpt>
      <trkpt lat="45.76455" lon="-1.21003">
        <ele>76.8</ele>
        <time>2020-01-26T11:10:32Z</time>
      </trkpt>
      <trkpt lat="45.76454" lon="-1.21">
        <ele>76.8</ele>
        <time>2020-01-26T11:10:33Z</time>
      </trkpt>
      <trkpt lat="45.76454" lon="-1.20998">
        <ele>76</ele>
        <time>2020-01-26T11:10:34Z</time>
      </trkpt>
      <trkpt lat="45.76453" lon="-1.20995">
        <ele>75.4</ele>
        <time>2020-01-26T11:10:35Z</time>
      </trkpt>
      <trkpt lat="45.76453" lon="-1.20991">
        <ele>75.2</ele>
        <time>2020-01-26T11:10:36Z</time>
      </trkpt>
      <trkpt lat="45.76452" lon="-1.20986">
        <ele>75.2</ele>
        <time>2020-01-26T11:10:37Z</time>
      </trkpt>
      <trkpt lat="45.7645" lon="-1.20981">
        <ele>74.8</ele>
        <time>2020-01-26T11:10:38Z</time>
      </trkpt>
      <trkpt lat="45.76449" lon="-1.20976">
        <ele>74.4</ele>
        <time>2020-01-26T11:10:39Z</time>
      </trkpt>
      <trkpt lat="45.76449" lon="-1.20973">
        <ele>74</ele>
        <time>2020-01-26T11:10:40Z</time>
      </trkpt>
      <trkpt lat="45.76448" lon="-1.20969">
        <ele>73.4</ele>
        <time>2020-01-26T11:10:41Z</time>
      </trkpt>
      <trkpt lat="45.7645" lon="-1.20967">
        <ele>72.6</ele>
        <time>2020-01-26T11:10:42Z</time>
      </trkpt>
      <trkpt lat="45.7645" lon="-1.20964">
        <ele>72</ele>
        <time>2020-01-26T11:10:43Z</time>
      </trkpt>
      <trkpt lat="45.76449" lon="-1.20959">
        <ele>71</ele>
        <time>2020-01-26T11:10:44Z</time>
      </trkpt>
      <trkpt lat="45.76449" lon="-1.20953">
        <ele>70.2</ele>
        <time>2020-01-26T11:10:45Z</time>
      </trkpt>
      <trkpt lat="45.76449" lon="-1.20947">
        <ele>70.4</ele>
        <time>2020-01-26T11:10:46Z</time>
      </trkpt>
      <trkpt lat="45.76448" lon="-1.20942">
        <ele>70.8</ele>
        <time>2020-01-26T11:10:47Z</time>
      </trkpt>
      <trkpt lat="45.76447" lon="-1.2094">
        <ele>71.2</ele>
        <time>2020-01-26T11:10:48Z</time>
      </trkpt>
      <trkpt lat="45.76444" lon="-1.20939">
        <ele>71.6</ele>
        <time>2020-01-26T11:10:49Z</time>
      </trkpt>
      <trkpt lat="45.76441" lon="-1.2094">
        <ele>71.4</ele>
        <time>2020-01-26T11:10:50Z</time>
      </trkpt>
      <trkpt lat="45.76439" lon="-1.20941">
        <ele>71</ele>
        <time>2020-01-26T11:10:51Z</time>
      </trkpt>
      <trkpt lat="45.76437" lon="-1.20941">
        <ele>70.6</ele>
        <time>2020-01-26T11:10:52Z</time>
      </trkpt>
      <trkpt lat="45.76434" lon="-1.20942">
        <ele>70.2</ele>
        <time>2020-01-26T11:10:53Z</time>
      </trkpt>
      <trkpt lat="45.76432" lon="-1.20942">
        <ele>69.8</ele>
        <time>2020-01-26T11:10:54Z</time>
      </trkpt>
      <trkpt lat="45.76431" lon="-1.20942">
        <ele>70</ele>
        <time>2020-01-26T11:10:55Z</time>
      </trkpt>
      <trkpt lat="45.76429" lon="-1.20942">
        <ele>70</ele>
        <time>2020-01-26T11:10:56Z</time>
      </trkpt>
      <trkpt lat="45.76427" lon="-1.20942">
        <ele>70</ele>
        <time>2020-01-26T11:10:57Z</time>
      </trkpt>
      <trkpt lat="45.76425" lon="-1.20942">
        <ele>69.8</ele>
        <time>2020-01-26T11:10:58Z</time>
      </trkpt>
      <trkpt lat="45.76424" lon="-1.20943">
        <ele>69.4</ele>
        <time>2020-01-26T11:10:59Z</time>
      </trkpt>
      <trkpt lat="45.76423" lon="-1.20943">
        <ele>69.2</ele>
        <time>2020-01-26T11:11:00Z</time>
      </trkpt>
      <trkpt lat="45.76421" lon="-1.20944">
        <ele>69.2</ele>
        <time>2020-01-26T11:11:01Z</time>
      </trkpt>
      <trkpt lat="45.7642" lon="-1.20944">
        <ele>69.4</ele>
        <time>2020-01-26T11:11:02Z</time>
      </trkpt>
      <trkpt lat="45.76418" lon="-1.20944">
        <ele>69.6</ele>
        <time>2020-01-26T11:11:03Z</time>
      </trkpt>
      <trkpt lat="45.76416" lon="-1.20945">
        <ele>69.6</ele>
        <time>2020-01-26T11:11:04Z</time>
      </trkpt>
      <trkpt lat="45.76414" lon="-1.20945">
        <ele>69.8</ele>
        <time>2020-01-26T11:11:05Z</time>
      </trkpt>
      <trkpt lat="45.76413" lon="-1.20945">
        <ele>69.8</ele>
        <time>2020-01-26T11:11:06Z</time>
      </trkpt>
      <trkpt lat="45.76412" lon="-1.20946">
        <ele>70.2</ele>
        <time>2020-01-26T11:11:07Z</time>
      </trkpt>
      <trkpt lat="45.7641" lon="-1.20946">
        <ele>70.6</ele>
        <time>2020-01-26T11:11:08Z</time>
      </trkpt>
      <trkpt lat="45.76409" lon="-1.20947">
        <ele>71.2</ele>
        <time>2020-01-26T11:11:09Z</time>
      </trkpt>
      <trkpt lat="45.76408" lon="-1.20948">
        <ele>72</ele>
        <time>2020-01-26T11:11:10Z</time>
      </trkpt>
      <trkpt lat="45.76407" lon="-1.20948">
        <ele>72.2</ele>
        <time>2020-01-26T11:11:11Z</time>
      </trkpt>
      <trkpt lat="45.76405" lon="-1.20949">
        <ele>72.6</ele>
        <time>2020-01-26T11:11:12Z</time>
      </trkpt>
      <trkpt lat="45.76404" lon="-1.20949">
        <ele>73</ele>
        <time>2020-01-26T11:11:13Z</time>
      </trkpt>
      <trkpt lat="45.76402" lon="-1.2095">
        <ele>73</ele>
        <time>2020-01-26T11:11:14Z</time>
      </trkpt>
      <trkpt lat="45.764" lon="-1.2095">
        <ele>73</ele>
        <time>2020-01-26T11:11:15Z</time>
      </trkpt>
      <trkpt lat="45.76396" lon="-1.20951">
        <ele>72.4</ele>
        <time>2020-01-26T11:11:16Z</time>
      </trkpt>
      <trkpt lat="45.76394" lon="-1.20952">
        <ele>72</ele>
        <time>2020-01-26T11:11:17Z</time>
      </trkpt>
      <trkpt lat="45.76392" lon="-1.20951">
        <ele>71.6</ele>
        <time>2020-01-26T11:11:18Z</time>
      </trkpt>
      <trkpt lat="45.7639" lon="-1.20951">
        <ele>71.4</ele>
        <time>2020-01-26T11:11:19Z</time>
      </trkpt>
      <trkpt lat="45.76389" lon="-1.20952">
        <ele>71.6</ele>
        <time>2020-01-26T11:11:20Z</time>
      </trkpt>
      <trkpt lat="45.76386" lon="-1.20953">
        <ele>71.6</ele>
        <time>2020-01-26T11:11:21Z</time>
      </trkpt>
      <trkpt lat="45.76384" lon="-1.20953">
        <ele>71.2</ele>
        <time>2020-01-26T11:11:22Z</time>
      </trkpt>
      <trkpt lat="45.76383" lon="-1.20952">
        <ele>71.8</ele>
        <time>2020-01-26T11:11:23Z</time>
      </trkpt>
      <trkpt lat="45.76381" lon="-1.20952">
        <ele>71.8</ele>
        <time>2020-01-26T11:11:24Z</time>
      </trkpt>
      <trkpt lat="45.76379" lon="-1.20951">
        <ele>71.8</ele>
        <time>2020-01-26T11:11:25Z</time>
      </trkpt>
      <trkpt lat="45.76378" lon="-1.20952">
        <ele>71.8</ele>
        <time>2020-01-26T11:11:26Z</time>
      </trkpt>
      <trkpt lat="45.76376" lon="-1.20952">
        <ele>72</ele>
        <time>2020-01-26T11:11:27Z</time>
      </trkpt>
      <trkpt lat="45.76373" lon="-1.20952">
        <ele>71.8</ele>
        <time>2020-01-26T11:11:28Z</time>
      </trkpt>
      <trkpt lat="45.76371" lon="-1.20952">
        <ele>71.4</ele>
        <time>2020-01-26T11:11:29Z</time>
      </trkpt>
      <trkpt lat="45.76369" lon="-1.20952">
        <ele>71</ele>
        <time>2020-01-26T11:11:30Z</time>
      </trkpt>
      <trkpt lat="45.76368" lon="-1.20953">
        <ele>70.8</ele>
        <time>2020-01-26T11:11:31Z</time>
      </trkpt>
      <trkpt lat="45.76365" lon="-1.20952">
        <ele>70.4</ele>
        <time>2020-01-26T11:11:32Z</time>
      </trkpt>
      <trkpt lat="45.76363" lon="-1.20951">
        <ele>70</ele>
        <time>2020-01-26T11:11:33Z</time>
      </trkpt>
      <trkpt lat="45.76361" lon="-1.2095">
        <ele>69.4</ele>
        <time>2020-01-26T11:11:34Z</time>
      </trkpt>
      <trkpt lat="45.76359" lon="-1.20949">
        <ele>68.6</ele>
        <time>2020-01-26T11:11:35Z</time>
      </trkpt>
      <trkpt lat="45.76358" lon="-1.20948">
        <ele>67.6</ele>
        <time>2020-01-26T11:11:36Z</time>
      </trkpt>
      <trkpt lat="45.76356" lon="-1.20947">
        <ele>66.8</ele>
        <time>2020-01-26T11:11:37Z</time>
      </trkpt>
      <trkpt lat="45.76353" lon="-1.20945">
        <ele>66</ele>
        <time>2020-01-26T11:11:38Z</time>
      </trkpt>
      <trkpt lat="45.76352" lon="-1.20944">
        <ele>66.2</ele>
        <time>2020-01-26T11:11:39Z</time>
      </trkpt>
      <trkpt lat="45.7635" lon="-1.20943">
        <ele>66.6</ele>
        <time>2020-01-26T11:11:40Z</time>
      </trkpt>
      <trkpt lat="45.76349" lon="-1.20944">
        <ele>66</ele>
        <time>2020-01-26T11:11:41Z</time>
      </trkpt>
      <trkpt lat="45.76348" lon="-1.20946">
        <ele>66</ele>
        <time>2020-01-26T11:11:42Z</time>
      </trkpt>
      <trkpt lat="45.76347" lon="-1.20946">
        <ele>67.4</ele>
        <time>2020-01-26T11:11:43Z</time>
      </trkpt>
      <trkpt lat="45.76348" lon="-1.20946">
        <ele>69</ele>
        <time>2020-01-26T11:11:44Z</time>
      </trkpt>
      <trkpt lat="45.76348" lon="-1.20948">
        <ele>71</ele>
        <time>2020-01-26T11:11:45Z</time>
      </trkpt>
      <trkpt lat="45.76347" lon="-1.2095">
        <ele>72.6</ele>
        <time>2020-01-26T11:11:46Z</time>
      </trkpt>
      <trkpt lat="45.76347" lon="-1.20949">
        <ele>73.6</ele>
        <time>2020-01-26T11:11:47Z</time>
      </trkpt>
      <trkpt lat="45.76346" lon="-1.2095">
        <ele>74.6</ele>
        <time>2020-01-26T11:11:48Z</time>
      </trkpt>
      <trkpt lat="45.76344" lon="-1.20951">
        <ele>75.4</ele>
        <time>2020-01-26T11:11:49Z</time>
      </trkpt>
      <trkpt lat="45.76344" lon="-1.20952">
        <ele>76.2</ele>
        <time>2020-01-26T11:11:50Z</time>
      </trkpt>
      <trkpt lat="45.76343" lon="-1.20953">
        <ele>77.4</ele>
        <time>2020-01-26T11:11:51Z</time>
      </trkpt>
      <trkpt lat="45.76342" lon="-1.20954">
        <ele>78.2</ele>
        <time>2020-01-26T11:11:52Z</time>
      </trkpt>
      <trkpt lat="45.76341" lon="-1.20955">
        <ele>79</ele>
        <time>2020-01-26T11:11:53Z</time>
      </trkpt>
      <trkpt lat="45.7634" lon="-1.20956">
        <ele>79.4</ele>
        <time>2020-01-26T11:11:54Z</time>
      </trkpt>
      <trkpt lat="45.76339" lon="-1.20957">
        <ele>79.8</ele>
        <time>2020-01-26T11:11:55Z</time>
      </trkpt>
      <trkpt lat="45.76338" lon="-1.20957">
        <ele>80.4</ele>
        <time>2020-01-26T11:11:56Z</time>
      </trkpt>
      <trkpt lat="45.76337" lon="-1.20958">
        <ele>80.8</ele>
        <time>2020-01-26T11:11:57Z</time>
      </trkpt>
      <trkpt lat="45.76336" lon="-1.20959">
        <ele>81.4</ele>
        <time>2020-01-26T11:11:58Z</time>
      </trkpt>
      <trkpt lat="45.76334" lon="-1.2096">
        <ele>81.8</ele>
        <time>2020-01-26T11:11:59Z</time>
      </trkpt>
      <trkpt lat="45.76332" lon="-1.20961">
        <ele>82</ele>
        <time>2020-01-26T11:12:00Z</time>
      </trkpt>
      <trkpt lat="45.76331" lon="-1.20962">
        <ele>82</ele>
        <time>2020-01-26T11:12:01Z</time>
      </trkpt>
      <trkpt lat="45.7633" lon="-1.20962">
        <ele>82</ele>
        <time>2020-01-26T11:12:02Z</time>
      </trkpt>
      <trkpt lat="45.76328" lon="-1.20963">
        <ele>82</ele>
        <time>2020-01-26T11:12:03Z</time>
      </trkpt>
      <trkpt lat="45.76326" lon="-1.20963">
        <ele>82.2</ele>
        <time>2020-01-26T11:12:04Z</time>
      </trkpt>
      <trkpt lat="45.76324" lon="-1.20964">
        <ele>82.4</ele>
        <time>2020-01-26T11:12:05Z</time>
      </trkpt>
      <trkpt lat="45.76323" lon="-1.20964">
        <ele>82.8</ele>
        <time>2020-01-26T11:12:06Z</time>
      </trkpt>
      <trkpt lat="45.76321" lon="-1.20964">
        <ele>83.2</ele>
        <time>2020-01-26T11:12:07Z</time>
      </trkpt>
      <trkpt lat="45.76319" lon="-1.20964">
        <ele>83.4</ele>
        <time>2020-01-26T11:12:08Z</time>
      </trkpt>
      <trkpt lat="45.76317" lon="-1.20963">
        <ele>83.2</ele>
        <time>2020-01-26T11:12:09Z</time>
      </trkpt>
      <trkpt lat="45.76316" lon="-1.20962">
        <ele>83.4</ele>
        <time>2020-01-26T11:12:10Z</time>
      </trkpt>
      <trkpt lat="45.76315" lon="-1.20962">
        <ele>83.6</ele>
        <time>2020-01-26T11:12:11Z</time>
      </trkpt>
      <trkpt lat="45.76312" lon="-1.20961">
        <ele>83.4</ele>
        <time>2020-01-26T11:12:12Z</time>
      </trkpt>
      <trkpt lat="45.76311" lon="-1.2096">
        <ele>83.4</ele>
        <time>2020-01-26T11:12:13Z</time>
      </trkpt>
      <trkpt lat="45.76309" lon="-1.2096">
        <ele>83.2</ele>
        <time>2020-01-26T11:12:14Z</time>
      </trkpt>
      <trkpt lat="45.76307" lon="-1.20959">
        <ele>82.6</ele>
        <time>2020-01-26T11:12:15Z</time>
      </trkpt>
      <trkpt lat="45.76305" lon="-1.20958">
        <ele>82.4</ele>
        <time>2020-01-26T11:12:16Z</time>
      </trkpt>
      <trkpt lat="45.76303" lon="-1.20958">
        <ele>82</ele>
        <time>2020-01-26T11:12:17Z</time>
      </trkpt>
      <trkpt lat="45.76301" lon="-1.20957">
        <ele>81.2</ele>
        <time>2020-01-26T11:12:18Z</time>
      </trkpt>
      <trkpt lat="45.76299" lon="-1.20956">
        <ele>80.4</ele>
        <time>2020-01-26T11:12:19Z</time>
      </trkpt>
      <trkpt lat="45.76295" lon="-1.20955">
        <ele>79.6</ele>
        <time>2020-01-26T11:12:20Z</time>
      </trkpt>
      <trkpt lat="45.76294" lon="-1.20955">
        <ele>79</ele>
        <time>2020-01-26T11:12:21Z</time>
      </trkpt>
      <trkpt lat="45.76291" lon="-1.20955">
        <ele>78.4</ele>
        <time>2020-01-26T11:12:22Z</time>
      </trkpt>
      <trkpt lat="45.76288" lon="-1.20956">
        <ele>78</ele>
        <time>2020-01-26T11:12:23Z</time>
      </trkpt>
      <trkpt lat="45.76285" lon="-1.20955">
        <ele>77.6</ele>
        <time>2020-01-26T11:12:24Z</time>
      </trkpt>
      <trkpt lat="45.76282" lon="-1.20953">
        <ele>77.4</ele>
        <time>2020-01-26T11:12:25Z</time>
      </trkpt>
      <trkpt lat="45.76279" lon="-1.20951">
        <ele>77.4</ele>
        <time>2020-01-26T11:12:26Z</time>
      </trkpt>
      <trkpt lat="45.76278" lon="-1.20945">
        <ele>77.2</ele>
        <time>2020-01-26T11:12:27Z</time>
      </trkpt>
      <trkpt lat="45.76276" lon="-1.20937">
        <ele>77.4</ele>
        <time>2020-01-26T11:12:28Z</time>
      </trkpt>
      <trkpt lat="45.76275" lon="-1.2093">
        <ele>77.8</ele>
        <time>2020-01-26T11:12:29Z</time>
      </trkpt>
      <trkpt lat="45.76273" lon="-1.20924">
        <ele>78.2</ele>
        <time>2020-01-26T11:12:30Z</time>
      </trkpt>
      <trkpt lat="45.76271" lon="-1.20919">
        <ele>78.6</ele>
        <time>2020-01-26T11:12:31Z</time>
      </trkpt>
      <trkpt lat="45.7627" lon="-1.20911">
        <ele>79.4</ele>
        <time>2020-01-26T11:12:32Z</time>
      </trkpt>
      <trkpt lat="45.7627" lon="-1.20902">
        <ele>79.8</ele>
        <time>2020-01-26T11:12:33Z</time>
      </trkpt>
      <trkpt lat="45.76269" lon="-1.20894">
        <ele>79.8</ele>
        <time>2020-01-26T11:12:34Z</time>
      </trkpt>
      <trkpt lat="45.76269" lon="-1.20887">
        <ele>80</ele>
        <time>2020-01-26T11:12:35Z</time>
      </trkpt>
      <trkpt lat="45.76269" lon="-1.20878">
        <ele>80.2</ele>
        <time>2020-01-26T11:12:36Z</time>
      </trkpt>
      <trkpt lat="45.76268" lon="-1.2087">
        <ele>79.8</ele>
        <time>2020-01-26T11:12:37Z</time>
      </trkpt>
      <trkpt lat="45.76268" lon="-1.20862">
        <ele>79.8</ele>
        <time>2020-01-26T11:12:38Z</time>
      </trkpt>
      <trkpt lat="45.76269" lon="-1.20856">
        <ele>79.4</ele>
        <time>2020-01-26T11:12:39Z</time>
      </trkpt>
      <trkpt lat="45.76269" lon="-1.20847">
        <ele>79.4</ele>
        <time>2020-01-26T11:12:40Z</time>
      </trkpt>
      <trkpt lat="45.7627" lon="-1.20839">
        <ele>79.2</ele>
        <time>2020-01-26T11:12:41Z</time>
      </trkpt>
      <trkpt lat="45.76271" lon="-1.20831">
        <ele>79</ele>
        <time>2020-01-26T11:12:42Z</time>
      </trkpt>
      <trkpt lat="45.7627" lon="-1.20825">
        <ele>79</ele>
        <time>2020-01-26T11:12:43Z</time>
      </trkpt>
      <trkpt lat="45.7627" lon="-1.20821">
        <ele>79</ele>
        <time>2020-01-26T11:12:44Z</time>
      </trkpt>
      <trkpt lat="45.7627" lon="-1.20821">
        <ele>78.8</ele>
        <time>2020-01-26T11:12:45Z</time>
      </trkpt>
      <trkpt lat="45.76271" lon="-1.20819">
        <ele>79</ele>
        <time>2020-01-26T11:12:46Z</time>
      </trkpt>
      <trkpt lat="45.76271" lon="-1.20816">
        <ele>79</ele>
        <time>2020-01-26T11:12:47Z</time>
      </trkpt>
      <trkpt lat="45.76271" lon="-1.20815">
        <ele>78.8</ele>
        <time>2020-01-26T11:12:48Z</time>
      </trkpt>
      <trkpt lat="45.76271" lon="-1.20814">
        <ele>78.6</ele>
        <time>2020-01-26T11:12:49Z</time>
      </trkpt>
      <trkpt lat="45.76272" lon="-1.2081">
        <ele>78.4</ele>
        <time>2020-01-26T11:12:50Z</time>
      </trkpt>
      <trkpt lat="45.76271" lon="-1.20811">
        <ele>78</ele>
        <time>2020-01-26T11:12:51Z</time>
      </trkpt>
      <trkpt lat="45.76271" lon="-1.2081">
        <ele>77.8</ele>
        <time>2020-01-26T11:12:52Z</time>
      </trkpt>
      <trkpt lat="45.76271" lon="-1.20811">
        <ele>77.6</ele>
        <time>2020-01-26T11:12:53Z</time>
      </trkpt>
      <trkpt lat="45.76271" lon="-1.20811">
        <ele>77.4</ele>
        <time>2020-01-26T11:12:54Z</time>
      </trkpt>
      <trkpt lat="45.76271" lon="-1.2081">
        <ele>77.4</ele>
        <time>2020-01-26T11:12:55Z</time>
      </trkpt>
      <trkpt lat="45.76271" lon="-1.2081">
        <ele>77.2</ele>
        <time>2020-01-26T11:12:56Z</time>
      </trkpt>
      <trkpt lat="45.76271" lon="-1.20811">
        <ele>77</ele>
        <time>2020-01-26T11:12:57Z</time>
      </trkpt>
      <trkpt lat="45.76272" lon="-1.20811">
        <ele>76.6</ele>
        <time>2020-01-26T11:12:58Z</time>
      </trkpt>
      <trkpt lat="45.76272" lon="-1.20812">
        <ele>76.2</ele>
        <time>2020-01-26T11:12:59Z</time>
      </trkpt>
      <trkpt lat="45.76272" lon="-1.20812">
        <ele>76</ele>
        <time>2020-01-26T11:13:00Z</time>
      </trkpt>
      <trkpt lat="45.76272" lon="-1.20812">
        <ele>75.8</ele>
        <time>2020-01-26T11:13:01Z</time>
      </trkpt>
      <trkpt lat="45.76272" lon="-1.20812">
        <ele>75.6</ele>
        <time>2020-01-26T11:13:02Z</time>
      </trkpt>
      <trkpt lat="45.76272" lon="-1.20812">
        <ele>75.4</ele>
        <time>2020-01-26T11:13:03Z</time>
      </trkpt>
      <trkpt lat="45.76272" lon="-1.20812">
        <ele>75.2</ele>
        <time>2020-01-26T11:13:04Z</time>
      </trkpt>
      <trkpt lat="45.76272" lon="-1.20812">
        <ele>75.2</ele>
        <time>2020-01-26T11:13:05Z</time>
      </trkpt>
      <trkpt lat="45.76272" lon="-1.20812">
        <ele>75.2</ele>
        <time>2020-01-26T11:13:06Z</time>
      </trkpt>
      <trkpt lat="45.76272" lon="-1.20812">
        <ele>75.2</ele>
        <time>2020-01-26T11:13:07Z</time>
      </trkpt>
      <trkpt lat="45.76272" lon="-1.20812">
        <ele>75</ele>
        <time>2020-01-26T11:13:08Z</time>
      </trkpt>
      <trkpt lat="45.76272" lon="-1.20812">
        <ele>74.8</ele>
        <time>2020-01-26T11:13:09Z</time>
      </trkpt>
      <trkpt lat="45.76273" lon="-1.20811">
        <ele>74.4</ele>
        <time>2020-01-26T11:13:10Z</time>
      </trkpt>
      <trkpt lat="45.76273" lon="-1.20812">
        <ele>74</ele>
        <time>2020-01-26T11:13:11Z</time>
      </trkpt>
      <trkpt lat="45.76273" lon="-1.20811">
        <ele>73.8</ele>
        <time>2020-01-26T11:13:12Z</time>
      </trkpt>
      <trkpt lat="45.76273" lon="-1.20811">
        <ele>73.6</ele>
        <time>2020-01-26T11:13:13Z</time>
      </trkpt>
      <trkpt lat="45.76273" lon="-1.20811">
        <ele>73.4</ele>
        <time>2020-01-26T11:13:14Z</time>
      </trkpt>
      <trkpt lat="45.76273" lon="-1.20809">
        <ele>73.2</ele>
        <time>2020-01-26T11:13:15Z</time>
      </trkpt>
      <trkpt lat="45.76273" lon="-1.2081">
        <ele>73</ele>
        <time>2020-01-26T11:13:16Z</time>
      </trkpt>
      <trkpt lat="45.76273" lon="-1.20812">
        <ele>72.8</ele>
        <time>2020-01-26T11:13:17Z</time>
      </trkpt>
      <trkpt lat="45.76273" lon="-1.20813">
        <ele>72.6</ele>
        <time>2020-01-26T11:13:18Z</time>
      </trkpt>
      <trkpt lat="45.76273" lon="-1.20813">
        <ele>72.4</ele>
        <time>2020-01-26T11:13:19Z</time>
      </trkpt>
      <trkpt lat="45.76273" lon="-1.20813">
        <ele>72.4</ele>
        <time>2020-01-26T11:13:20Z</time>
      </trkpt>
      <trkpt lat="45.76273" lon="-1.20813">
        <ele>72.2</ele>
        <time>2020-01-26T11:13:21Z</time>
      </trkpt>
      <trkpt lat="45.76274" lon="-1.20813">
        <ele>72.2</ele>
        <time>2020-01-26T11:13:22Z</time>
      </trkpt>
      <trkpt lat="45.76273" lon="-1.20813">
        <ele>72.2</ele>
        <time>2020-01-26T11:13:23Z</time>
      </trkpt>
      <trkpt lat="45.76273" lon="-1.20813">
        <ele>72</ele>
        <time>2020-01-26T11:13:24Z</time>
      </trkpt>
      <trkpt lat="45.76273" lon="-1.20813">
        <ele>72</ele>
        <time>2020-01-26T11:13:25Z</time>
      </trkpt>
      <trkpt lat="45.76273" lon="-1.20813">
        <ele>72</ele>
        <time>2020-01-26T11:13:26Z</time>
      </trkpt>
      <trkpt lat="45.76273" lon="-1.20813">
        <ele>72</ele>
        <time>2020-01-26T11:13:27Z</time>
      </trkpt>
      <trkpt lat="45.76273" lon="-1.20812">
        <ele>72</ele>
        <time>2020-01-26T11:13:28Z</time>
      </trkpt>
      <trkpt lat="45.76273" lon="-1.20811">
        <ele>71.8</ele>
        <time>2020-01-26T11:13:29Z</time>
      </trkpt>
      <trkpt lat="45.76273" lon="-1.20809">
        <ele>71.4</ele>
        <time>2020-01-26T11:13:30Z</time>
      </trkpt>
      <trkpt lat="45.76273" lon="-1.20807">
        <ele>71</ele>
        <time>2020-01-26T11:13:31Z</time>
      </trkpt>
      <trkpt lat="45.76273" lon="-1.20803">
        <ele>70.2</ele>
        <time>2020-01-26T11:13:32Z</time>
      </trkpt>
      <trkpt lat="45.76273" lon="-1.20798">
        <ele>69.4</ele>
        <time>2020-01-26T11:13:33Z</time>
      </trkpt>
      <trkpt lat="45.76272" lon="-1.20793">
        <ele>68.8</ele>
        <time>2020-01-26T11:13:34Z</time>
      </trkpt>
      <trkpt lat="45.76271" lon="-1.20784">
        <ele>68.4</ele>
        <time>2020-01-26T11:13:35Z</time>
      </trkpt>
      <trkpt lat="45.76271" lon="-1.20777">
        <ele>68</ele>
        <time>2020-01-26T11:13:36Z</time>
      </trkpt>
      <trkpt lat="45.76269" lon="-1.20764">
        <ele>67.8</ele>
        <time>2020-01-26T11:13:37Z</time>
      </trkpt>
      <trkpt lat="45.76269" lon="-1.20753">
        <ele>67.6</ele>
        <time>2020-01-26T11:13:38Z</time>
      </trkpt>
      <trkpt lat="45.76269" lon="-1.20743">
        <ele>67.2</ele>
        <time>2020-01-26T11:13:39Z</time>
      </trkpt>
      <trkpt lat="45.76269" lon="-1.20734">
        <ele>66.8</ele>
        <time>2020-01-26T11:13:40Z</time>
      </trkpt>
      <trkpt lat="45.7627" lon="-1.20729">
        <ele>66.6</ele>
        <time>2020-01-26T11:13:41Z</time>
      </trkpt>
      <trkpt lat="45.7627" lon="-1.20726">
        <ele>66.4</ele>
        <time>2020-01-26T11:13:42Z</time>
      </trkpt>
      <trkpt lat="45.7627" lon="-1.20723">
        <ele>66.4</ele>
        <time>2020-01-26T11:13:43Z</time>
      </trkpt>
      <trkpt lat="45.76268" lon="-1.20724">
        <ele>66.2</ele>
        <time>2020-01-26T11:13:44Z</time>
      </trkpt>
      <trkpt lat="45.76268" lon="-1.20722">
        <ele>66</ele>
        <time>2020-01-26T11:13:45Z</time>
      </trkpt>
      <trkpt lat="45.76268" lon="-1.20723">
        <ele>65.8</ele>
        <time>2020-01-26T11:13:46Z</time>
      </trkpt>
      <trkpt lat="45.76269" lon="-1.20725">
        <ele>65.6</ele>
        <time>2020-01-26T11:13:47Z</time>
      </trkpt>
      <trkpt lat="45.76269" lon="-1.20727">
        <ele>65.4</ele>
        <time>2020-01-26T11:13:48Z</time>
      </trkpt>
      <trkpt lat="45.76269" lon="-1.20726">
        <ele>65.2</ele>
        <time>2020-01-26T11:13:49Z</time>
      </trkpt>
      <trkpt lat="45.76268" lon="-1.20727">
        <ele>65.2</ele>
        <time>2020-01-26T11:13:50Z</time>
      </trkpt>
      <trkpt lat="45.76269" lon="-1.20728">
        <ele>65.2</ele>
        <time>2020-01-26T11:13:51Z</time>
      </trkpt>
      <trkpt lat="45.76269" lon="-1.20727">
        <ele>64.8</ele>
        <time>2020-01-26T11:13:52Z</time>
      </trkpt>
      <trkpt lat="45.76269" lon="-1.20727">
        <ele>64.6</ele>
        <time>2020-01-26T11:13:53Z</time>
      </trkpt>
      <trkpt lat="45.7627" lon="-1.20728">
        <ele>63.8</ele>
        <time>2020-01-26T11:13:54Z</time>
      </trkpt>
      <trkpt lat="45.7627" lon="-1.20728">
        <ele>63</ele>
        <time>2020-01-26T11:13:55Z</time>
      </trkpt>
      <trkpt lat="45.7627" lon="-1.20728">
        <ele>62.4</ele>
        <time>2020-01-26T11:13:56Z</time>
      </trkpt>
      <trkpt lat="45.76271" lon="-1.20727">
        <ele>61.6</ele>
        <time>2020-01-26T11:13:57Z</time>
      </trkpt>
      <trkpt lat="45.76271" lon="-1.20727">
        <ele>61</ele>
        <time>2020-01-26T11:13:58Z</time>
      </trkpt>
      <trkpt lat="45.76271" lon="-1.20727">
        <ele>60.8</ele>
        <time>2020-01-26T11:13:59Z</time>
      </trkpt>
      <trkpt lat="45.76271" lon="-1.20727">
        <ele>60.6</ele>
        <time>2020-01-26T11:14:00Z</time>
      </trkpt>
      <trkpt lat="45.76271" lon="-1.20727">
        <ele>60.4</ele>
        <time>2020-01-26T11:14:01Z</time>
      </trkpt>
      <trkpt lat="45.76271" lon="-1.20727">
        <ele>60.4</ele>
        <time>2020-01-26T11:14:02Z</time>
      </trkpt>
      <trkpt lat="45.76271" lon="-1.20727">
        <ele>60.4</ele>
        <time>2020-01-26T11:14:03Z</time>
      </trkpt>
      <trkpt lat="45.76271" lon="-1.20727">
        <ele>60.6</ele>
        <time>2020-01-26T11:14:04Z</time>
      </trkpt>
      <trkpt lat="45.76271" lon="-1.20727">
        <ele>60.8</ele>
        <time>2020-01-26T11:14:05Z</time>
      </trkpt>
      <trkpt lat="45.76271" lon="-1.20727">
        <ele>60.8</ele>
        <time>2020-01-26T11:14:06Z</time>
      </trkpt>
      <trkpt lat="45.76271" lon="-1.20727">
        <ele>60.8</ele>
        <time>2020-01-26T11:14:07Z</time>
      </trkpt>
      <trkpt lat="45.76271" lon="-1.20727">
        <ele>60.8</ele>
        <time>2020-01-26T11:14:08Z</time>
      </trkpt>
      <trkpt lat="45.76271" lon="-1.20727">
        <ele>61</ele>
        <time>2020-01-26T11:14:09Z</time>
      </trkpt>
      <trkpt lat="45.76271" lon="-1.20727">
        <ele>61</ele>
        <time>2020-01-26T11:14:10Z</time>
      </trkpt>
      <trkpt lat="45.76271" lon="-1.20727">
        <ele>61</ele>
        <time>2020-01-26T11:14:11Z</time>
      </trkpt>
      <trkpt lat="45.76271" lon="-1.20727">
        <ele>61</ele>
        <time>2020-01-26T11:14:12Z</time>
      </trkpt>
      <trkpt lat="45.76271" lon="-1.20727">
        <ele>61</ele>
        <time>2020-01-26T11:14:13Z</time>
      </trkpt>
      <trkpt lat="45.76271" lon="-1.20727">
        <ele>61</ele>
        <time>2020-01-26T11:14:14Z</time>
      </trkpt>
      <trkpt lat="45.76271" lon="-1.20727">
        <ele>61</ele>
        <time>2020-01-26T11:14:15Z</time>
      </trkpt>
      <trkpt lat="45.76271" lon="-1.20727">
        <ele>61</ele>
        <time>2020-01-26T11:14:16Z</time>
      </trkpt>
      <trkpt lat="45.76271" lon="-1.20727">
        <ele>61</ele>
        <time>2020-01-26T11:14:17Z</time>
      </trkpt>
      <trkpt lat="45.76271" lon="-1.20727">
        <ele>61</ele>
        <time>2020-01-26T11:14:18Z</time>
      </trkpt>
      <trkpt lat="45.76271" lon="-1.20727">
        <ele>61</ele>
        <time>2020-01-26T11:14:19Z</time>
      </trkpt>
      <trkpt lat="45.76271" lon="-1.20727">
        <ele>61</ele>
        <time>2020-01-26T11:14:20Z</time>
      </trkpt>
      <trkpt lat="45.76271" lon="-1.20727">
        <ele>61</ele>
        <time>2020-01-26T11:14:21Z</time>
      </trkpt>
      <trkpt lat="45.76271" lon="-1.20727">
        <ele>61</ele>
        <time>2020-01-26T11:14:22Z</time>
      </trkpt>
      <trkpt lat="45.76271" lon="-1.20727">
        <ele>61</ele>
        <time>2020-01-26T11:14:23Z</time>
      </trkpt>
      <trkpt lat="45.76271" lon="-1.20727">
        <ele>61.2</ele>
        <time>2020-01-26T11:14:24Z</time>
      </trkpt>
      <trkpt lat="45.76271" lon="-1.20727">
        <ele>61.4</ele>
        <time>2020-01-26T11:14:25Z</time>
      </trkpt>
      <trkpt lat="45.76271" lon="-1.20727">
        <ele>61.6</ele>
        <time>2020-01-26T11:14:26Z</time>
      </trkpt>
      <trkpt lat="45.76271" lon="-1.20727">
        <ele>61.6</ele>
        <time>2020-01-26T11:14:27Z</time>
      </trkpt>
      <trkpt lat="45.76271" lon="-1.20726">
        <ele>61.8</ele>
        <time>2020-01-26T11:14:28Z</time>
      </trkpt>
      <trkpt lat="45.76271" lon="-1.20726">
        <ele>61.8</ele>
        <time>2020-01-26T11:14:29Z</time>
      </trkpt>
      <trkpt lat="45.76271" lon="-1.20726">
        <ele>61.8</ele>
        <time>2020-01-26T11:14:30Z</time>
      </trkpt>
      <trkpt lat="45.76271" lon="-1.20726">
        <ele>62</ele>
        <time>2020-01-26T11:14:31Z</time>
      </trkpt>
      <trkpt lat="45.76271" lon="-1.20726">
        <ele>62</ele>
        <time>2020-01-26T11:14:32Z</time>
      </trkpt>
      <trkpt lat="45.76271" lon="-1.20726">
        <ele>62</ele>
        <time>2020-01-26T11:14:33Z</time>
      </trkpt>
      <trkpt lat="45.76271" lon="-1.20726">
        <ele>62</ele>
        <time>2020-01-26T11:14:34Z</time>
      </trkpt>
      <trkpt lat="45.76271" lon="-1.20726">
        <ele>62.2</ele>
        <time>2020-01-26T11:14:35Z</time>
      </trkpt>
      <trkpt lat="45.76271" lon="-1.20727">
        <ele>62.2</ele>
        <time>2020-01-26T11:14:36Z</time>
      </trkpt>
      <trkpt lat="45.76271" lon="-1.20727">
        <ele>62.2</ele>
        <time>2020-01-26T11:14:37Z</time>
      </trkpt>
      <trkpt lat="45.76271" lon="-1.20727">
        <ele>62</ele>
        <time>2020-01-26T11:14:38Z</time>
      </trkpt>
      <trkpt lat="45.76271" lon="-1.20727">
        <ele>62</ele>
        <time>2020-01-26T11:14:39Z</time>
      </trkpt>
      <trkpt lat="45.76271" lon="-1.20727">
        <ele>62</ele>
        <time>2020-01-26T11:14:40Z</time>
      </trkpt>
      <trkpt lat="45.76271" lon="-1.20727">
        <ele>62</ele>
        <time>2020-01-26T11:14:41Z</time>
      </trkpt>
      <trkpt lat="45.76271" lon="-1.20727">
        <ele>62</ele>
        <time>2020-01-26T11:14:42Z</time>
      </trkpt>
      <trkpt lat="45.76271" lon="-1.20727">
        <ele>62</ele>
        <time>2020-01-26T11:14:43Z</time>
      </trkpt>
      <trkpt lat="45.76271" lon="-1.20727">
        <ele>62</ele>
        <time>2020-01-26T11:14:44Z</time>
      </trkpt>
      <trkpt lat="45.76271" lon="-1.20727">
        <ele>62</ele>
        <time>2020-01-26T11:14:45Z</time>
      </trkpt>
      <trkpt lat="45.76271" lon="-1.20727">
        <ele>62</ele>
        <time>2020-01-26T11:14:46Z</time>
      </trkpt>
      <trkpt lat="45.76271" lon="-1.20727">
        <ele>62.2</ele>
        <time>2020-01-26T11:14:47Z</time>
      </trkpt>
      <trkpt lat="45.76271" lon="-1.20727">
        <ele>62.4</ele>
        <time>2020-01-26T11:14:48Z</time>
      </trkpt>
      <trkpt lat="45.76271" lon="-1.20727">
        <ele>62.6</ele>
        <time>2020-01-26T11:14:49Z</time>
      </trkpt>
      <trkpt lat="45.76271" lon="-1.20727">
        <ele>62.6</ele>
        <time>2020-01-26T11:14:50Z</time>
      </trkpt>
      <trkpt lat="45.76271" lon="-1.20726">
        <ele>62.4</ele>
        <time>2020-01-26T11:14:51Z</time>
      </trkpt>
      <trkpt lat="45.76269" lon="-1.20724">
        <ele>62.2</ele>
        <time>2020-01-26T11:14:52Z</time>
      </trkpt>
      <trkpt lat="45.76269" lon="-1.20722">
        <ele>61.8</ele>
        <time>2020-01-26T11:14:53Z</time>
      </trkpt>
      <trkpt lat="45.76268" lon="-1.2072">
        <ele>61.4</ele>
        <time>2020-01-26T11:14:54Z</time>
      </trkpt>
      <trkpt lat="45.76267" lon="-1.20717">
        <ele>60.8</ele>
        <time>2020-01-26T11:14:55Z</time>
      </trkpt>
      <trkpt lat="45.76267" lon="-1.20715">
        <ele>60</ele>
        <time>2020-01-26T11:14:56Z</time>
      </trkpt>
      <trkpt lat="45.76266" lon="-1.20713">
        <ele>60</ele>
        <time>2020-01-26T11:14:57Z</time>
      </trkpt>
      <trkpt lat="45.76265" lon="-1.20709">
        <ele>60.4</ele>
        <time>2020-01-26T11:14:58Z</time>
      </trkpt>
      <trkpt lat="45.76265" lon="-1.20707">
        <ele>60.8</ele>
        <time>2020-01-26T11:14:59Z</time>
      </trkpt>
      <trkpt lat="45.76265" lon="-1.20703">
        <ele>61.6</ele>
        <time>2020-01-26T11:15:00Z</time>
      </trkpt>
      <trkpt lat="45.76265" lon="-1.207">
        <ele>62</ele>
        <time>2020-01-26T11:15:01Z</time>
      </trkpt>
      <trkpt lat="45.76265" lon="-1.20697">
        <ele>62.6</ele>
        <time>2020-01-26T11:15:02Z</time>
      </trkpt>
      <trkpt lat="45.76265" lon="-1.20694">
        <ele>63.6</ele>
        <time>2020-01-26T11:15:03Z</time>
      </trkpt>
      <trkpt lat="45.76266" lon="-1.20691">
        <ele>64.8</ele>
        <time>2020-01-26T11:15:04Z</time>
      </trkpt>
      <trkpt lat="45.76266" lon="-1.20689">
        <ele>66</ele>
        <time>2020-01-26T11:15:05Z</time>
      </trkpt>
      <trkpt lat="45.76265" lon="-1.20689">
        <ele>67</ele>
        <time>2020-01-26T11:15:06Z</time>
      </trkpt>
      <trkpt lat="45.76263" lon="-1.20689">
        <ele>67.8</ele>
        <time>2020-01-26T11:15:07Z</time>
      </trkpt>
      <trkpt lat="45.76261" lon="-1.2069">
        <ele>67.8</ele>
        <time>2020-01-26T11:15:08Z</time>
      </trkpt>
      <trkpt lat="45.76258" lon="-1.2069">
        <ele>67.8</ele>
        <time>2020-01-26T11:15:09Z</time>
      </trkpt>
      <trkpt lat="45.76255" lon="-1.20691">
        <ele>67.8</ele>
        <time>2020-01-26T11:15:10Z</time>
      </trkpt>
      <trkpt lat="45.76252" lon="-1.20692">
        <ele>67.6</ele>
        <time>2020-01-26T11:15:11Z</time>
      </trkpt>
      <trkpt lat="45.76249" lon="-1.20692">
        <ele>67.2</ele>
        <time>2020-01-26T11:15:12Z</time>
      </trkpt>
      <trkpt lat="45.76246" lon="-1.20692">
        <ele>67</ele>
        <time>2020-01-26T11:15:13Z</time>
      </trkpt>
      <trkpt lat="45.76242" lon="-1.20693">
        <ele>67</ele>
        <time>2020-01-26T11:15:14Z</time>
      </trkpt>
      <trkpt lat="45.76238" lon="-1.20694">
        <ele>66.6</ele>
        <time>2020-01-26T11:15:15Z</time>
      </trkpt>
      <trkpt lat="45.76234" lon="-1.20695">
        <ele>66.2</ele>
        <time>2020-01-26T11:15:16Z</time>
      </trkpt>
      <trkpt lat="45.7623" lon="-1.20697">
        <ele>66</ele>
        <time>2020-01-26T11:15:17Z</time>
      </trkpt>
      <trkpt lat="45.76226" lon="-1.20697">
        <ele>65.4</ele>
        <time>2020-01-26T11:15:18Z</time>
      </trkpt>
      <trkpt lat="45.76221" lon="-1.20699">
        <ele>65.4</ele>
        <time>2020-01-26T11:15:19Z</time>
      </trkpt>
      <trkpt lat="45.76216" lon="-1.20701">
        <ele>65</ele>
        <time>2020-01-26T11:15:20Z</time>
      </trkpt>
      <trkpt lat="45.7621" lon="-1.20704">
        <ele>64.8</ele>
        <time>2020-01-26T11:15:21Z</time>
      </trkpt>
      <trkpt lat="45.76204" lon="-1.20705">
        <ele>64.8</ele>
        <time>2020-01-26T11:15:22Z</time>
      </trkpt>
      <trkpt lat="45.762" lon="-1.20707">
        <ele>64.8</ele>
        <time>2020-01-26T11:15:23Z</time>
      </trkpt>
      <trkpt lat="45.76194" lon="-1.20708">
        <ele>65.2</ele>
        <time>2020-01-26T11:15:24Z</time>
      </trkpt>
      <trkpt lat="45.76189" lon="-1.20711">
        <ele>65.6</ele>
        <time>2020-01-26T11:15:25Z</time>
      </trkpt>
      <trkpt lat="45.76185" lon="-1.2071">
        <ele>66</ele>
        <time>2020-01-26T11:15:26Z</time>
      </trkpt>
      <trkpt lat="45.76181" lon="-1.20711">
        <ele>66.2</ele>
        <time>2020-01-26T11:15:27Z</time>
      </trkpt>
      <trkpt lat="45.76178" lon="-1.20711">
        <ele>66.6</ele>
        <time>2020-01-26T11:15:28Z</time>
      </trkpt>
      <trkpt lat="45.76174" lon="-1.20713">
        <ele>67</ele>
        <time>2020-01-26T11:15:29Z</time>
      </trkpt>
      <trkpt lat="45.76171" lon="-1.20714">
        <ele>67</ele>
        <time>2020-01-26T11:15:30Z</time>
      </trkpt>
      <trkpt lat="45.76168" lon="-1.20715">
        <ele>67</ele>
        <time>2020-01-26T11:15:31Z</time>
      </trkpt>
      <trkpt lat="45.76164" lon="-1.20715">
        <ele>66.8</ele>
        <time>2020-01-26T11:15:32Z</time>
      </trkpt>
      <trkpt lat="45.76162" lon="-1.20717">
        <ele>66.2</ele>
        <time>2020-01-26T11:15:33Z</time>
      </trkpt>
      <trkpt lat="45.76159" lon="-1.20717">
        <ele>66</ele>
        <time>2020-01-26T11:15:34Z</time>
      </trkpt>
      <trkpt lat="45.76155" lon="-1.20718">
        <ele>65.8</ele>
        <time>2020-01-26T11:15:35Z</time>
      </trkpt>
      <trkpt lat="45.76151" lon="-1.2072">
        <ele>65.8</ele>
        <time>2020-01-26T11:15:36Z</time>
      </trkpt>
      <trkpt lat="45.76146" lon="-1.2072">
        <ele>65.8</ele>
        <time>2020-01-26T11:15:37Z</time>
      </trkpt>
      <trkpt lat="45.76142" lon="-1.2072">
        <ele>65.6</ele>
        <time>2020-01-26T11:15:38Z</time>
      </trkpt>
      <trkpt lat="45.76137" lon="-1.20721">
        <ele>65.6</ele>
        <time>2020-01-26T11:15:39Z</time>
      </trkpt>
      <trkpt lat="45.76131" lon="-1.20721">
        <ele>65.8</ele>
        <time>2020-01-26T11:15:40Z</time>
      </trkpt>
      <trkpt lat="45.76125" lon="-1.20722">
        <ele>65.6</ele>
        <time>2020-01-26T11:15:41Z</time>
      </trkpt>
      <trkpt lat="45.76118" lon="-1.20721">
        <ele>65.4</ele>
        <time>2020-01-26T11:15:42Z</time>
      </trkpt>
      <trkpt lat="45.76112" lon="-1.20721">
        <ele>65.4</ele>
        <time>2020-01-26T11:15:43Z</time>
      </trkpt>
      <trkpt lat="45.76106" lon="-1.2072">
        <ele>65.8</ele>
        <time>2020-01-26T11:15:44Z</time>
      </trkpt>
      <trkpt lat="45.76101" lon="-1.2072">
        <ele>66.2</ele>
        <time>2020-01-26T11:15:45Z</time>
      </trkpt>
      <trkpt lat="45.76096" lon="-1.20719">
        <ele>66.6</ele>
        <time>2020-01-26T11:15:46Z</time>
      </trkpt>
      <trkpt lat="45.76091" lon="-1.20719">
        <ele>67</ele>
        <time>2020-01-26T11:15:47Z</time>
      </trkpt>
      <trkpt lat="45.76087" lon="-1.2072">
        <ele>67</ele>
        <time>2020-01-26T11:15:48Z</time>
      </trkpt>
      <trkpt lat="45.76086" lon="-1.20721">
        <ele>66.8</ele>
        <time>2020-01-26T11:15:49Z</time>
      </trkpt>
      <trkpt lat="45.76084" lon="-1.20721">
        <ele>67</ele>
        <time>2020-01-26T11:15:50Z</time>
      </trkpt>
      <trkpt lat="45.76085" lon="-1.20721">
        <ele>68</ele>
        <time>2020-01-26T11:15:51Z</time>
      </trkpt>
      <trkpt lat="45.76085" lon="-1.20721">
        <ele>69</ele>
        <time>2020-01-26T11:15:52Z</time>
      </trkpt>
      <trkpt lat="45.76085" lon="-1.20722">
        <ele>69.8</ele>
        <time>2020-01-26T11:15:53Z</time>
      </trkpt>
      <trkpt lat="45.76084" lon="-1.20723">
        <ele>71.2</ele>
        <time>2020-01-26T11:15:54Z</time>
      </trkpt>
      <trkpt lat="45.76084" lon="-1.20723">
        <ele>72</ele>
        <time>2020-01-26T11:15:55Z</time>
      </trkpt>
      <trkpt lat="45.76083" lon="-1.20722">
        <ele>72.8</ele>
        <time>2020-01-26T11:15:56Z</time>
      </trkpt>
      <trkpt lat="45.76083" lon="-1.20722">
        <ele>73.6</ele>
        <time>2020-01-26T11:15:57Z</time>
      </trkpt>
      <trkpt lat="45.76082" lon="-1.20722">
        <ele>74.2</ele>
        <time>2020-01-26T11:15:58Z</time>
      </trkpt>
      <trkpt lat="45.76083" lon="-1.20722">
        <ele>75</ele>
        <time>2020-01-26T11:15:59Z</time>
      </trkpt>
      <trkpt lat="45.76082" lon="-1.20722">
        <ele>75.4</ele>
        <time>2020-01-26T11:16:00Z</time>
      </trkpt>
      <trkpt lat="45.76083" lon="-1.20722">
        <ele>75.8</ele>
        <time>2020-01-26T11:16:01Z</time>
      </trkpt>
      <trkpt lat="45.76082" lon="-1.20722">
        <ele>76.2</ele>
        <time>2020-01-26T11:16:02Z</time>
      </trkpt>
      <trkpt lat="45.76082" lon="-1.20722">
        <ele>76.4</ele>
        <time>2020-01-26T11:16:03Z</time>
      </trkpt>
      <trkpt lat="45.76081" lon="-1.20723">
        <ele>76.6</ele>
        <time>2020-01-26T11:16:04Z</time>
      </trkpt>
      <trkpt lat="45.76079" lon="-1.20723">
        <ele>76.8</ele>
        <time>2020-01-26T11:16:05Z</time>
      </trkpt>
      <trkpt lat="45.76076" lon="-1.20723">
        <ele>76.8</ele>
        <time>2020-01-26T11:16:06Z</time>
      </trkpt>
      <trkpt lat="45.76072" lon="-1.20722">
        <ele>76.4</ele>
        <time>2020-01-26T11:16:07Z</time>
      </trkpt>
      <trkpt lat="45.76069" lon="-1.20722">
        <ele>75.8</ele>
        <time>2020-01-26T11:16:08Z</time>
      </trkpt>
      <trkpt lat="45.76065" lon="-1.20722">
        <ele>75</ele>
        <time>2020-01-26T11:16:09Z</time>
      </trkpt>
      <trkpt lat="45.76061" lon="-1.20722">
        <ele>74.8</ele>
        <time>2020-01-26T11:16:10Z</time>
      </trkpt>
      <trkpt lat="45.76057" lon="-1.20722">
        <ele>74.6</ele>
        <time>2020-01-26T11:16:11Z</time>
      </trkpt>
      <trkpt lat="45.76054" lon="-1.20723">
        <ele>74</ele>
        <time>2020-01-26T11:16:12Z</time>
      </trkpt>
      <trkpt lat="45.7605" lon="-1.20722">
        <ele>73.4</ele>
        <time>2020-01-26T11:16:13Z</time>
      </trkpt>
      <trkpt lat="45.76046" lon="-1.20723">
        <ele>73</ele>
        <time>2020-01-26T11:16:14Z</time>
      </trkpt>
      <trkpt lat="45.76041" lon="-1.20722">
        <ele>72.2</ele>
        <time>2020-01-26T11:16:15Z</time>
      </trkpt>
      <trkpt lat="45.76038" lon="-1.20722">
        <ele>71.8</ele>
        <time>2020-01-26T11:16:16Z</time>
      </trkpt>
      <trkpt lat="45.76033" lon="-1.2072">
        <ele>71</ele>
        <time>2020-01-26T11:16:17Z</time>
      </trkpt>
      <trkpt lat="45.76028" lon="-1.20718">
        <ele>70.2</ele>
        <time>2020-01-26T11:16:18Z</time>
      </trkpt>
      <trkpt lat="45.76023" lon="-1.20716">
        <ele>69.8</ele>
        <time>2020-01-26T11:16:19Z</time>
      </trkpt>
      <trkpt lat="45.76018" lon="-1.20714">
        <ele>69.2</ele>
        <time>2020-01-26T11:16:20Z</time>
      </trkpt>
      <trkpt lat="45.76014" lon="-1.20712">
        <ele>68.4</ele>
        <time>2020-01-26T11:16:21Z</time>
      </trkpt>
      <trkpt lat="45.76009" lon="-1.20712">
        <ele>67.6</ele>
        <time>2020-01-26T11:16:22Z</time>
      </trkpt>
      <trkpt lat="45.76006" lon="-1.2071">
        <ele>67</ele>
        <time>2020-01-26T11:16:23Z</time>
      </trkpt>
      <trkpt lat="45.76002" lon="-1.20708">
        <ele>66.4</ele>
        <time>2020-01-26T11:16:24Z</time>
      </trkpt>
      <trkpt lat="45.75998" lon="-1.20706">
        <ele>65.8</ele>
        <time>2020-01-26T11:16:25Z</time>
      </trkpt>
      <trkpt lat="45.75995" lon="-1.20704">
        <ele>65.2</ele>
        <time>2020-01-26T11:16:26Z</time>
      </trkpt>
      <trkpt lat="45.75993" lon="-1.20702">
        <ele>63.2</ele>
        <time>2020-01-26T11:16:27Z</time>
      </trkpt>
      <trkpt lat="45.7599" lon="-1.20701">
        <ele>61.4</ele>
        <time>2020-01-26T11:16:28Z</time>
      </trkpt>
      <trkpt lat="45.75986" lon="-1.20702">
        <ele>60</ele>
        <time>2020-01-26T11:16:29Z</time>
      </trkpt>
      <trkpt lat="45.75983" lon="-1.20703">
        <ele>58.8</ele>
        <time>2020-01-26T11:16:30Z</time>
      </trkpt>
      <trkpt lat="45.7598" lon="-1.20704">
        <ele>57.8</ele>
        <time>2020-01-26T11:16:31Z</time>
      </trkpt>
      <trkpt lat="45.75977" lon="-1.20708">
        <ele>56.8</ele>
        <time>2020-01-26T11:16:32Z</time>
      </trkpt>
      <trkpt lat="45.75973" lon="-1.20714">
        <ele>56.6</ele>
        <time>2020-01-26T11:16:33Z</time>
      </trkpt>
      <trkpt lat="45.75969" lon="-1.20721">
        <ele>56.2</ele>
        <time>2020-01-26T11:16:34Z</time>
      </trkpt>
      <trkpt lat="45.75965" lon="-1.20727">
        <ele>55.4</ele>
        <time>2020-01-26T11:16:35Z</time>
      </trkpt>
      <trkpt lat="45.75961" lon="-1.20733">
        <ele>54.8</ele>
        <time>2020-01-26T11:16:36Z</time>
      </trkpt>
      <trkpt lat="45.75958" lon="-1.20738">
        <ele>54.8</ele>
        <time>2020-01-26T11:16:37Z</time>
      </trkpt>
      <trkpt lat="45.75954" lon="-1.20744">
        <ele>54.8</ele>
        <time>2020-01-26T11:16:38Z</time>
      </trkpt>
      <trkpt lat="45.7595" lon="-1.2075">
        <ele>55</ele>
        <time>2020-01-26T11:16:39Z</time>
      </trkpt>
      <trkpt lat="45.75946" lon="-1.20756">
        <ele>55.2</ele>
        <time>2020-01-26T11:16:40Z</time>
      </trkpt>
      <trkpt lat="45.75942" lon="-1.20763">
        <ele>55.6</ele>
        <time>2020-01-26T11:16:41Z</time>
      </trkpt>
      <trkpt lat="45.75938" lon="-1.20769">
        <ele>55.8</ele>
        <time>2020-01-26T11:16:42Z</time>
      </trkpt>
      <trkpt lat="45.75932" lon="-1.20774">
        <ele>56.4</ele>
        <time>2020-01-26T11:16:43Z</time>
      </trkpt>
      <trkpt lat="45.75927" lon="-1.20779">
        <ele>57</ele>
        <time>2020-01-26T11:16:44Z</time>
      </trkpt>
      <trkpt lat="45.75922" lon="-1.20782">
        <ele>57.4</ele>
        <time>2020-01-26T11:16:45Z</time>
      </trkpt>
      <trkpt lat="45.75917" lon="-1.20783">
        <ele>57.4</ele>
        <time>2020-01-26T11:16:46Z</time>
      </trkpt>
      <trkpt lat="45.75911" lon="-1.20785">
        <ele>57.4</ele>
        <time>2020-01-26T11:16:47Z</time>
      </trkpt>
      <trkpt lat="45.75906" lon="-1.20788">
        <ele>57.2</ele>
        <time>2020-01-26T11:16:48Z</time>
      </trkpt>
      <trkpt lat="45.75901" lon="-1.20791">
        <ele>57.8</ele>
        <time>2020-01-26T11:16:49Z</time>
      </trkpt>
      <trkpt lat="45.75896" lon="-1.20795">
        <ele>58</ele>
        <time>2020-01-26T11:16:50Z</time>
      </trkpt>
      <trkpt lat="45.75891" lon="-1.208">
        <ele>58.4</ele>
        <time>2020-01-26T11:16:51Z</time>
      </trkpt>
      <trkpt lat="45.75887" lon="-1.20802">
        <ele>59</ele>
        <time>2020-01-26T11:16:52Z</time>
      </trkpt>
      <trkpt lat="45.75882" lon="-1.20805">
        <ele>59</ele>
        <time>2020-01-26T11:16:53Z</time>
      </trkpt>
      <trkpt lat="45.75878" lon="-1.20809">
        <ele>59.2</ele>
        <time>2020-01-26T11:16:54Z</time>
      </trkpt>
      <trkpt lat="45.75875" lon="-1.20813">
        <ele>59.8</ele>
        <time>2020-01-26T11:16:55Z</time>
      </trkpt>
      <trkpt lat="45.75871" lon="-1.20816">
        <ele>60.2</ele>
        <time>2020-01-26T11:16:56Z</time>
      </trkpt>
      <trkpt lat="45.75867" lon="-1.20818">
        <ele>61</ele>
        <time>2020-01-26T11:16:57Z</time>
      </trkpt>
      <trkpt lat="45.75863" lon="-1.20821">
        <ele>61.8</ele>
        <time>2020-01-26T11:16:58Z</time>
      </trkpt>
      <trkpt lat="45.75858" lon="-1.20822">
        <ele>62.2</ele>
        <time>2020-01-26T11:16:59Z</time>
      </trkpt>
      <trkpt lat="45.75853" lon="-1.20824">
        <ele>62.4</ele>
        <time>2020-01-26T11:17:00Z</time>
      </trkpt>
      <trkpt lat="45.75848" lon="-1.20825">
        <ele>62.4</ele>
        <time>2020-01-26T11:17:01Z</time>
      </trkpt>
      <trkpt lat="45.75843" lon="-1.20826">
        <ele>62.2</ele>
        <time>2020-01-26T11:17:02Z</time>
      </trkpt>
      <trkpt lat="45.75837" lon="-1.20827">
        <ele>62.2</ele>
        <time>2020-01-26T11:17:03Z</time>
      </trkpt>
      <trkpt lat="45.75832" lon="-1.20827">
        <ele>61.8</ele>
        <time>2020-01-26T11:17:04Z</time>
      </trkpt>
      <trkpt lat="45.75826" lon="-1.20828">
        <ele>61.4</ele>
        <time>2020-01-26T11:17:05Z</time>
      </trkpt>
      <trkpt lat="45.75821" lon="-1.20828">
        <ele>60.6</ele>
        <time>2020-01-26T11:17:06Z</time>
      </trkpt>
      <trkpt lat="45.75816" lon="-1.20829">
        <ele>60</ele>
        <time>2020-01-26T11:17:07Z</time>
      </trkpt>
      <trkpt lat="45.75811" lon="-1.2083">
        <ele>59.4</ele>
        <time>2020-01-26T11:17:08Z</time>
      </trkpt>
      <trkpt lat="45.75805" lon="-1.20831">
        <ele>58.8</ele>
        <time>2020-01-26T11:17:09Z</time>
      </trkpt>
      <trkpt lat="45.758" lon="-1.20831">
        <ele>58.4</ele>
        <time>2020-01-26T11:17:10Z</time>
      </trkpt>
      <trkpt lat="45.75794" lon="-1.20832">
        <ele>58</ele>
        <time>2020-01-26T11:17:11Z</time>
      </trkpt>
      <trkpt lat="45.75789" lon="-1.20833">
        <ele>57.8</ele>
        <time>2020-01-26T11:17:12Z</time>
      </trkpt>
      <trkpt lat="45.75784" lon="-1.20834">
        <ele>57.6</ele>
        <time>2020-01-26T11:17:13Z</time>
      </trkpt>
      <trkpt lat="45.7578" lon="-1.20835">
        <ele>57.4</ele>
        <time>2020-01-26T11:17:14Z</time>
      </trkpt>
      <trkpt lat="45.75776" lon="-1.20835">
        <ele>57.6</ele>
        <time>2020-01-26T11:17:15Z</time>
      </trkpt>
      <trkpt lat="45.75771" lon="-1.20836">
        <ele>57.6</ele>
        <time>2020-01-26T11:17:16Z</time>
      </trkpt>
      <trkpt lat="45.75768" lon="-1.20837">
        <ele>57.8</ele>
        <time>2020-01-26T11:17:17Z</time>
      </trkpt>
      <trkpt lat="45.75765" lon="-1.20838">
        <ele>57.8</ele>
        <time>2020-01-26T11:17:18Z</time>
      </trkpt>
      <trkpt lat="45.75761" lon="-1.20838">
        <ele>57.8</ele>
        <time>2020-01-26T11:17:19Z</time>
      </trkpt>
      <trkpt lat="45.75758" lon="-1.20839">
        <ele>57.6</ele>
        <time>2020-01-26T11:17:20Z</time>
      </trkpt>
      <trkpt lat="45.75755" lon="-1.20839">
        <ele>58</ele>
        <time>2020-01-26T11:17:21Z</time>
      </trkpt>
      <trkpt lat="45.75752" lon="-1.20839">
        <ele>58.2</ele>
        <time>2020-01-26T11:17:22Z</time>
      </trkpt>
      <trkpt lat="45.7575" lon="-1.20839">
        <ele>58.4</ele>
        <time>2020-01-26T11:17:23Z</time>
      </trkpt>
      <trkpt lat="45.75747" lon="-1.20839">
        <ele>58.8</ele>
        <time>2020-01-26T11:17:24Z</time>
      </trkpt>
      <trkpt lat="45.75744" lon="-1.20839">
        <ele>59.2</ele>
        <time>2020-01-26T11:17:25Z</time>
      </trkpt>
      <trkpt lat="45.75741" lon="-1.20838">
        <ele>59.6</ele>
        <time>2020-01-26T11:17:26Z</time>
      </trkpt>
      <trkpt lat="45.75738" lon="-1.20838">
        <ele>60</ele>
        <time>2020-01-26T11:17:27Z</time>
      </trkpt>
      <trkpt lat="45.75735" lon="-1.2084">
        <ele>60.6</ele>
        <time>2020-01-26T11:17:28Z</time>
      </trkpt>
      <trkpt lat="45.75734" lon="-1.20843">
        <ele>61.2</ele>
        <time>2020-01-26T11:17:29Z</time>
      </trkpt>
      <trkpt lat="45.75734" lon="-1.20847">
        <ele>61.8</ele>
        <time>2020-01-26T11:17:30Z</time>
      </trkpt>
      <trkpt lat="45.75735" lon="-1.20851">
        <ele>62.2</ele>
        <time>2020-01-26T11:17:31Z</time>
      </trkpt>
      <trkpt lat="45.75735" lon="-1.20855">
        <ele>62.4</ele>
        <time>2020-01-26T11:17:32Z</time>
      </trkpt>
      <trkpt lat="45.75735" lon="-1.2086">
        <ele>62</ele>
        <time>2020-01-26T11:17:33Z</time>
      </trkpt>
      <trkpt lat="45.75734" lon="-1.20864">
        <ele>61.8</ele>
        <time>2020-01-26T11:17:34Z</time>
      </trkpt>
      <trkpt lat="45.75734" lon="-1.20868">
        <ele>61.2</ele>
        <time>2020-01-26T11:17:35Z</time>
      </trkpt>
      <trkpt lat="45.75734" lon="-1.20873">
        <ele>61</ele>
        <time>2020-01-26T11:17:36Z</time>
      </trkpt>
      <trkpt lat="45.75735" lon="-1.20877">
        <ele>60.8</ele>
        <time>2020-01-26T11:17:37Z</time>
      </trkpt>
      <trkpt lat="45.75735" lon="-1.20882">
        <ele>60.2</ele>
        <time>2020-01-26T11:17:38Z</time>
      </trkpt>
      <trkpt lat="45.75735" lon="-1.20886">
        <ele>60</ele>
        <time>2020-01-26T11:17:39Z</time>
      </trkpt>
      <trkpt lat="45.75736" lon="-1.2089">
        <ele>59.8</ele>
        <time>2020-01-26T11:17:40Z</time>
      </trkpt>
      <trkpt lat="45.75736" lon="-1.20894">
        <ele>59.6</ele>
        <time>2020-01-26T11:17:41Z</time>
      </trkpt>
      <trkpt lat="45.75737" lon="-1.20897">
        <ele>59.6</ele>
        <time>2020-01-26T11:17:42Z</time>
      </trkpt>
      <trkpt lat="45.75738" lon="-1.20899">
        <ele>60.2</ele>
        <time>2020-01-26T11:17:43Z</time>
      </trkpt>
      <trkpt lat="45.75738" lon="-1.20902">
        <ele>60.6</ele>
        <time>2020-01-26T11:17:44Z</time>
      </trkpt>
      <trkpt lat="45.7574" lon="-1.20904">
        <ele>61</ele>
        <time>2020-01-26T11:17:45Z</time>
      </trkpt>
      <trkpt lat="45.75742" lon="-1.20906">
        <ele>61.2</ele>
        <time>2020-01-26T11:17:46Z</time>
      </trkpt>
      <trkpt lat="45.75744" lon="-1.20907">
        <ele>61.4</ele>
        <time>2020-01-26T11:17:47Z</time>
      </trkpt>
      <trkpt lat="45.75746" lon="-1.20909">
        <ele>61.4</ele>
        <time>2020-01-26T11:17:48Z</time>
      </trkpt>
      <trkpt lat="45.75748" lon="-1.20912">
        <ele>61.8</ele>
        <time>2020-01-26T11:17:49Z</time>
      </trkpt>
      <trkpt lat="45.75748" lon="-1.20915">
        <ele>61.8</ele>
        <time>2020-01-26T11:17:50Z</time>
      </trkpt>
      <trkpt lat="45.75753" lon="-1.20918">
        <ele>62.4</ele>
        <time>2020-01-26T11:17:51Z</time>
      </trkpt>
      <trkpt lat="45.75754" lon="-1.20921">
        <ele>62.8</ele>
        <time>2020-01-26T11:17:52Z</time>
      </trkpt>
      <trkpt lat="45.75755" lon="-1.20924">
        <ele>63.2</ele>
        <time>2020-01-26T11:17:53Z</time>
      </trkpt>
      <trkpt lat="45.75759" lon="-1.20928">
        <ele>63.8</ele>
        <time>2020-01-26T11:17:54Z</time>
      </trkpt>
      <trkpt lat="45.75761" lon="-1.20932">
        <ele>64.4</ele>
        <time>2020-01-26T11:17:55Z</time>
      </trkpt>
      <trkpt lat="45.75762" lon="-1.20935">
        <ele>64.8</ele>
        <time>2020-01-26T11:17:56Z</time>
      </trkpt>
      <trkpt lat="45.75763" lon="-1.20939">
        <ele>65</ele>
        <time>2020-01-26T11:17:57Z</time>
      </trkpt>
      <trkpt lat="45.75764" lon="-1.20943">
        <ele>65.4</ele>
        <time>2020-01-26T11:17:58Z</time>
      </trkpt>
      <trkpt lat="45.75764" lon="-1.20947">
        <ele>65.4</ele>
        <time>2020-01-26T11:17:59Z</time>
      </trkpt>
      <trkpt lat="45.75765" lon="-1.20949">
        <ele>65.6</ele>
        <time>2020-01-26T11:18:00Z</time>
      </trkpt>
      <trkpt lat="45.75767" lon="-1.20953">
        <ele>65.8</ele>
        <time>2020-01-26T11:18:01Z</time>
      </trkpt>
      <trkpt lat="45.75768" lon="-1.20959">
        <ele>66</ele>
        <time>2020-01-26T11:18:02Z</time>
      </trkpt>
      <trkpt lat="45.75768" lon="-1.20964">
        <ele>66.2</ele>
        <time>2020-01-26T11:18:03Z</time>
      </trkpt>
      <trkpt lat="45.75772" lon="-1.20968">
        <ele>66.4</ele>
        <time>2020-01-26T11:18:04Z</time>
      </trkpt>
      <trkpt lat="45.75774" lon="-1.20972">
        <ele>66.4</ele>
        <time>2020-01-26T11:18:05Z</time>
      </trkpt>
      <trkpt lat="45.75775" lon="-1.20975">
        <ele>66.8</ele>
        <time>2020-01-26T11:18:06Z</time>
      </trkpt>
      <trkpt lat="45.75776" lon="-1.20979">
        <ele>67.2</ele>
        <time>2020-01-26T11:18:07Z</time>
      </trkpt>
      <trkpt lat="45.75777" lon="-1.20983">
        <ele>67.6</ele>
        <time>2020-01-26T11:18:08Z</time>
      </trkpt>
      <trkpt lat="45.75779" lon="-1.20986">
        <ele>68.2</ele>
        <time>2020-01-26T11:18:09Z</time>
      </trkpt>
      <trkpt lat="45.75779" lon="-1.2099">
        <ele>68.4</ele>
        <time>2020-01-26T11:18:10Z</time>
      </trkpt>
      <trkpt lat="45.7578" lon="-1.20994">
        <ele>68</ele>
        <time>2020-01-26T11:18:11Z</time>
      </trkpt>
      <trkpt lat="45.75782" lon="-1.20998">
        <ele>67.8</ele>
        <time>2020-01-26T11:18:12Z</time>
      </trkpt>
      <trkpt lat="45.75783" lon="-1.21002">
        <ele>67.6</ele>
        <time>2020-01-26T11:18:13Z</time>
      </trkpt>
      <trkpt lat="45.75783" lon="-1.21007">
        <ele>67.2</ele>
        <time>2020-01-26T11:18:14Z</time>
      </trkpt>
      <trkpt lat="45.75783" lon="-1.21011">
        <ele>66.8</ele>
        <time>2020-01-26T11:18:15Z</time>
      </trkpt>
      <trkpt lat="45.75785" lon="-1.21014">
        <ele>66.6</ele>
        <time>2020-01-26T11:18:16Z</time>
      </trkpt>
      <trkpt lat="45.75788" lon="-1.21016">
        <ele>67</ele>
        <time>2020-01-26T11:18:17Z</time>
      </trkpt>
      <trkpt lat="45.75789" lon="-1.21021">
        <ele>67.2</ele>
        <time>2020-01-26T11:18:18Z</time>
      </trkpt>
      <trkpt lat="45.7579" lon="-1.21027">
        <ele>67.4</ele>
        <time>2020-01-26T11:18:19Z</time>
      </trkpt>
      <trkpt lat="45.7579" lon="-1.2103">
        <ele>67.6</ele>
        <time>2020-01-26T11:18:20Z</time>
      </trkpt>
      <trkpt lat="45.75793" lon="-1.21034">
        <ele>68</ele>
        <time>2020-01-26T11:18:21Z</time>
      </trkpt>
      <trkpt lat="45.75794" lon="-1.21039">
        <ele>68.8</ele>
        <time>2020-01-26T11:18:22Z</time>
      </trkpt>
      <trkpt lat="45.75795" lon="-1.21044">
        <ele>69.4</ele>
        <time>2020-01-26T11:18:23Z</time>
      </trkpt>
      <trkpt lat="45.75797" lon="-1.21049">
        <ele>69.8</ele>
        <time>2020-01-26T11:18:24Z</time>
      </trkpt>
      <trkpt lat="45.75798" lon="-1.21051">
        <ele>70.6</ele>
        <time>2020-01-26T11:18:25Z</time>
      </trkpt>
      <trkpt lat="45.75798" lon="-1.21056">
        <ele>71.2</ele>
        <time>2020-01-26T11:18:26Z</time>
      </trkpt>
      <trkpt lat="45.75798" lon="-1.21057">
        <ele>71.8</ele>
        <time>2020-01-26T11:18:27Z</time>
      </trkpt>
      <trkpt lat="45.75801" lon="-1.21061">
        <ele>72.4</ele>
        <time>2020-01-26T11:18:28Z</time>
      </trkpt>
      <trkpt lat="45.75803" lon="-1.21066">
        <ele>72.8</ele>
        <time>2020-01-26T11:18:29Z</time>
      </trkpt>
      <trkpt lat="45.75805" lon="-1.21071">
        <ele>73.2</ele>
        <time>2020-01-26T11:18:30Z</time>
      </trkpt>
      <trkpt lat="45.75806" lon="-1.21075">
        <ele>73.4</ele>
        <time>2020-01-26T11:18:31Z</time>
      </trkpt>
      <trkpt lat="45.75805" lon="-1.21079">
        <ele>73.8</ele>
        <time>2020-01-26T11:18:32Z</time>
      </trkpt>
      <trkpt lat="45.75808" lon="-1.21083">
        <ele>73.8</ele>
        <time>2020-01-26T11:18:33Z</time>
      </trkpt>
      <trkpt lat="45.75809" lon="-1.21088">
        <ele>73.6</ele>
        <time>2020-01-26T11:18:34Z</time>
      </trkpt>
      <trkpt lat="45.75809" lon="-1.21092">
        <ele>73.6</ele>
        <time>2020-01-26T11:18:35Z</time>
      </trkpt>
      <trkpt lat="45.75809" lon="-1.21096">
        <ele>73.2</ele>
        <time>2020-01-26T11:18:36Z</time>
      </trkpt>
      <trkpt lat="45.75811" lon="-1.21099">
        <ele>72.6</ele>
        <time>2020-01-26T11:18:37Z</time>
      </trkpt>
      <trkpt lat="45.75812" lon="-1.21102">
        <ele>72</ele>
        <time>2020-01-26T11:18:38Z</time>
      </trkpt>
      <trkpt lat="45.75812" lon="-1.21106">
        <ele>71.8</ele>
        <time>2020-01-26T11:18:39Z</time>
      </trkpt>
      <trkpt lat="45.75813" lon="-1.21111">
        <ele>71.8</ele>
        <time>2020-01-26T11:18:40Z</time>
      </trkpt>
      <trkpt lat="45.75815" lon="-1.21117">
        <ele>72.2</ele>
        <time>2020-01-26T11:18:41Z</time>
      </trkpt>
      <trkpt lat="45.75816" lon="-1.21122">
        <ele>72.2</ele>
        <time>2020-01-26T11:18:42Z</time>
      </trkpt>
      <trkpt lat="45.75818" lon="-1.21128">
        <ele>72.6</ele>
        <time>2020-01-26T11:18:43Z</time>
      </trkpt>
      <trkpt lat="45.75819" lon="-1.21133">
        <ele>72.6</ele>
        <time>2020-01-26T11:18:44Z</time>
      </trkpt>
      <trkpt lat="45.75819" lon="-1.21137">
        <ele>72.6</ele>
        <time>2020-01-26T11:18:45Z</time>
      </trkpt>
      <trkpt lat="45.75819" lon="-1.21142">
        <ele>72.6</ele>
        <time>2020-01-26T11:18:46Z</time>
      </trkpt>
      <trkpt lat="45.75822" lon="-1.21148">
        <ele>72.4</ele>
        <time>2020-01-26T11:18:47Z</time>
      </trkpt>
      <trkpt lat="45.75824" lon="-1.21152">
        <ele>72.4</ele>
        <time>2020-01-26T11:18:48Z</time>
      </trkpt>
      <trkpt lat="45.75827" lon="-1.21156">
        <ele>72.2</ele>
        <time>2020-01-26T11:18:49Z</time>
      </trkpt>
      <trkpt lat="45.75828" lon="-1.21161">
        <ele>72.2</ele>
        <time>2020-01-26T11:18:50Z</time>
      </trkpt>
      <trkpt lat="45.75829" lon="-1.21166">
        <ele>72.2</ele>
        <time>2020-01-26T11:18:51Z</time>
      </trkpt>
      <trkpt lat="45.75833" lon="-1.21169">
        <ele>72.6</ele>
        <time>2020-01-26T11:18:52Z</time>
      </trkpt>
      <trkpt lat="45.75834" lon="-1.21175">
        <ele>73</ele>
        <time>2020-01-26T11:18:53Z</time>
      </trkpt>
      <trkpt lat="45.75837" lon="-1.21179">
        <ele>73</ele>
        <time>2020-01-26T11:18:54Z</time>
      </trkpt>
      <trkpt lat="45.75838" lon="-1.21182">
        <ele>72.8</ele>
        <time>2020-01-26T11:18:55Z</time>
      </trkpt>
      <trkpt lat="45.7584" lon="-1.21186">
        <ele>72.6</ele>
        <time>2020-01-26T11:18:56Z</time>
      </trkpt>
      <trkpt lat="45.75842" lon="-1.21191">
        <ele>71.8</ele>
        <time>2020-01-26T11:18:57Z</time>
      </trkpt>
      <trkpt lat="45.75843" lon="-1.21196">
        <ele>70.6</ele>
        <time>2020-01-26T11:18:58Z</time>
      </trkpt>
      <trkpt lat="45.75845" lon="-1.21201">
        <ele>70.6</ele>
        <time>2020-01-26T11:18:59Z</time>
      </trkpt>
      <trkpt lat="45.75848" lon="-1.21205">
        <ele>71</ele>
        <time>2020-01-26T11:19:00Z</time>
      </trkpt>
      <trkpt lat="45.7585" lon="-1.21208">
        <ele>71.2</ele>
        <time>2020-01-26T11:19:01Z</time>
      </trkpt>
      <trkpt lat="45.7585" lon="-1.21213">
        <ele>71.4</ele>
        <time>2020-01-26T11:19:02Z</time>
      </trkpt>
      <trkpt lat="45.75853" lon="-1.21218">
        <ele>71.6</ele>
        <time>2020-01-26T11:19:03Z</time>
      </trkpt>
      <trkpt lat="45.75855" lon="-1.21222">
        <ele>71.6</ele>
        <time>2020-01-26T11:19:04Z</time>
      </trkpt>
      <trkpt lat="45.75858" lon="-1.21227">
        <ele>72</ele>
        <time>2020-01-26T11:19:05Z</time>
      </trkpt>
      <trkpt lat="45.75861" lon="-1.21234">
        <ele>72</ele>
        <time>2020-01-26T11:19:06Z</time>
      </trkpt>
      <trkpt lat="45.75863" lon="-1.21241">
        <ele>72</ele>
        <time>2020-01-26T11:19:07Z</time>
      </trkpt>
      <trkpt lat="45.75864" lon="-1.21252">
        <ele>72.2</ele>
        <time>2020-01-26T11:19:08Z</time>
      </trkpt>
      <trkpt lat="45.75866" lon="-1.2126">
        <ele>72.4</ele>
        <time>2020-01-26T11:19:09Z</time>
      </trkpt>
      <trkpt lat="45.75866" lon="-1.21267">
        <ele>72.8</ele>
        <time>2020-01-26T11:19:10Z</time>
      </trkpt>
      <trkpt lat="45.75867" lon="-1.21276">
        <ele>73.2</ele>
        <time>2020-01-26T11:19:11Z</time>
      </trkpt>
      <trkpt lat="45.75869" lon="-1.21285">
        <ele>73</ele>
        <time>2020-01-26T11:19:12Z</time>
      </trkpt>
      <trkpt lat="45.75869" lon="-1.21293">
        <ele>73</ele>
        <time>2020-01-26T11:19:13Z</time>
      </trkpt>
      <trkpt lat="45.75869" lon="-1.213">
        <ele>73</ele>
        <time>2020-01-26T11:19:14Z</time>
      </trkpt>
      <trkpt lat="45.75869" lon="-1.21306">
        <ele>73</ele>
        <time>2020-01-26T11:19:15Z</time>
      </trkpt>
      <trkpt lat="45.75872" lon="-1.21314">
        <ele>73</ele>
        <time>2020-01-26T11:19:16Z</time>
      </trkpt>
      <trkpt lat="45.75872" lon="-1.21319">
        <ele>73</ele>
        <time>2020-01-26T11:19:17Z</time>
      </trkpt>
      <trkpt lat="45.75875" lon="-1.21326">
        <ele>73.2</ele>
        <time>2020-01-26T11:19:18Z</time>
      </trkpt>
      <trkpt lat="45.75874" lon="-1.21332">
        <ele>73.2</ele>
        <time>2020-01-26T11:19:19Z</time>
      </trkpt>
      <trkpt lat="45.75873" lon="-1.21338">
        <ele>73.2</ele>
        <time>2020-01-26T11:19:20Z</time>
      </trkpt>
      <trkpt lat="45.75872" lon="-1.21344">
        <ele>73</ele>
        <time>2020-01-26T11:19:21Z</time>
      </trkpt>
      <trkpt lat="45.75872" lon="-1.21349">
        <ele>72.8</ele>
        <time>2020-01-26T11:19:22Z</time>
      </trkpt>
      <trkpt lat="45.75873" lon="-1.21353">
        <ele>72.6</ele>
        <time>2020-01-26T11:19:23Z</time>
      </trkpt>
      <trkpt lat="45.75875" lon="-1.21357">
        <ele>71.6</ele>
        <time>2020-01-26T11:19:24Z</time>
      </trkpt>
      <trkpt lat="45.75876" lon="-1.21363">
        <ele>71</ele>
        <time>2020-01-26T11:19:25Z</time>
      </trkpt>
      <trkpt lat="45.75878" lon="-1.2137">
        <ele>70.2</ele>
        <time>2020-01-26T11:19:26Z</time>
      </trkpt>
      <trkpt lat="45.7588" lon="-1.21374">
        <ele>69.4</ele>
        <time>2020-01-26T11:19:27Z</time>
      </trkpt>
      <trkpt lat="45.75881" lon="-1.21378">
        <ele>68.8</ele>
        <time>2020-01-26T11:19:28Z</time>
      </trkpt>
      <trkpt lat="45.75882" lon="-1.21382">
        <ele>68.4</ele>
        <time>2020-01-26T11:19:29Z</time>
      </trkpt>
      <trkpt lat="45.75882" lon="-1.21387">
        <ele>67.6</ele>
        <time>2020-01-26T11:19:30Z</time>
      </trkpt>
      <trkpt lat="45.75881" lon="-1.21394">
        <ele>66.8</ele>
        <time>2020-01-26T11:19:31Z</time>
      </trkpt>
      <trkpt lat="45.75881" lon="-1.21398">
        <ele>66.2</ele>
        <time>2020-01-26T11:19:32Z</time>
      </trkpt>
      <trkpt lat="45.75883" lon="-1.21406">
        <ele>66.2</ele>
        <time>2020-01-26T11:19:33Z</time>
      </trkpt>
      <trkpt lat="45.75885" lon="-1.21412">
        <ele>66.2</ele>
        <time>2020-01-26T11:19:34Z</time>
      </trkpt>
      <trkpt lat="45.75884" lon="-1.21419">
        <ele>66.4</ele>
        <time>2020-01-26T11:19:35Z</time>
      </trkpt>
      <trkpt lat="45.75883" lon="-1.21425">
        <ele>66.4</ele>
        <time>2020-01-26T11:19:36Z</time>
      </trkpt>
      <trkpt lat="45.75882" lon="-1.21432">
        <ele>66.4</ele>
        <time>2020-01-26T11:19:37Z</time>
      </trkpt>
      <trkpt lat="45.75882" lon="-1.21438">
        <ele>66.2</ele>
        <time>2020-01-26T11:19:38Z</time>
      </trkpt>
      <trkpt lat="45.75882" lon="-1.21442">
        <ele>66</ele>
        <time>2020-01-26T11:19:39Z</time>
      </trkpt>
      <trkpt lat="45.75882" lon="-1.21445">
        <ele>65.6</ele>
        <time>2020-01-26T11:19:40Z</time>
      </trkpt>
      <trkpt lat="45.75881" lon="-1.21449">
        <ele>65.2</ele>
        <time>2020-01-26T11:19:41Z</time>
      </trkpt>
      <trkpt lat="45.75879" lon="-1.21453">
        <ele>64.8</ele>
        <time>2020-01-26T11:19:42Z</time>
      </trkpt>
      <trkpt lat="45.75875" lon="-1.21456">
        <ele>64.6</ele>
        <time>2020-01-26T11:19:43Z</time>
      </trkpt>
      <trkpt lat="45.75873" lon="-1.21458">
        <ele>64.6</ele>
        <time>2020-01-26T11:19:44Z</time>
      </trkpt>
      <trkpt lat="45.75869" lon="-1.21462">
        <ele>65</ele>
        <time>2020-01-26T11:19:45Z</time>
      </trkpt>
      <trkpt lat="45.75866" lon="-1.21459">
        <ele>64.8</ele>
        <time>2020-01-26T11:19:46Z</time>
      </trkpt>
      <trkpt lat="45.75863" lon="-1.21459">
        <ele>64.2</ele>
        <time>2020-01-26T11:19:47Z</time>
      </trkpt>
      <trkpt lat="45.75859" lon="-1.21459">
        <ele>64</ele>
        <time>2020-01-26T11:19:48Z</time>
      </trkpt>
      <trkpt lat="45.75856" lon="-1.21461">
        <ele>64.2</ele>
        <time>2020-01-26T11:19:49Z</time>
      </trkpt>
      <trkpt lat="45.75854" lon="-1.21458">
        <ele>64.6</ele>
        <time>2020-01-26T11:19:50Z</time>
      </trkpt>
      <trkpt lat="45.75853" lon="-1.21453">
        <ele>65</ele>
        <time>2020-01-26T11:19:51Z</time>
      </trkpt>
      <trkpt lat="45.75854" lon="-1.21448">
        <ele>65.6</ele>
        <time>2020-01-26T11:19:52Z</time>
      </trkpt>
      <trkpt lat="45.75852" lon="-1.21444">
        <ele>66.6</ele>
        <time>2020-01-26T11:19:53Z</time>
      </trkpt>
      <trkpt lat="45.75848" lon="-1.21443">
        <ele>67.8</ele>
        <time>2020-01-26T11:19:54Z</time>
      </trkpt>
      <trkpt lat="45.75846" lon="-1.21438">
        <ele>69.4</ele>
        <time>2020-01-26T11:19:55Z</time>
      </trkpt>
      <trkpt lat="45.75846" lon="-1.21434">
        <ele>70.6</ele>
        <time>2020-01-26T11:19:56Z</time>
      </trkpt>
      <trkpt lat="45.75844" lon="-1.2143">
        <ele>71.4</ele>
        <time>2020-01-26T11:19:57Z</time>
      </trkpt>
      <trkpt lat="45.75841" lon="-1.21426">
        <ele>72.2</ele>
        <time>2020-01-26T11:19:58Z</time>
      </trkpt>
      <trkpt lat="45.75837" lon="-1.21424">
        <ele>72.6</ele>
        <time>2020-01-26T11:19:59Z</time>
      </trkpt>
      <trkpt lat="45.75834" lon="-1.21424">
        <ele>73</ele>
        <time>2020-01-26T11:20:00Z</time>
      </trkpt>
      <trkpt lat="45.75831" lon="-1.21424">
        <ele>73.4</ele>
        <time>2020-01-26T11:20:01Z</time>
      </trkpt>
      <trkpt lat="45.75827" lon="-1.21425">
        <ele>73.6</ele>
        <time>2020-01-26T11:20:02Z</time>
      </trkpt>
      <trkpt lat="45.75826" lon="-1.21427">
        <ele>73.8</ele>
        <time>2020-01-26T11:20:03Z</time>
      </trkpt>
      <trkpt lat="45.75822" lon="-1.21426">
        <ele>75</ele>
        <time>2020-01-26T11:20:04Z</time>
      </trkpt>
      <trkpt lat="45.75821" lon="-1.21424">
        <ele>75.8</ele>
        <time>2020-01-26T11:20:05Z</time>
      </trkpt>
      <trkpt lat="45.75819" lon="-1.21422">
        <ele>76.2</ele>
        <time>2020-01-26T11:20:06Z</time>
      </trkpt>
      <trkpt lat="45.75817" lon="-1.21421">
        <ele>76.8</ele>
        <time>2020-01-26T11:20:07Z</time>
      </trkpt>
      <trkpt lat="45.75816" lon="-1.2142">
        <ele>77.2</ele>
        <time>2020-01-26T11:20:08Z</time>
      </trkpt>
      <trkpt lat="45.75814" lon="-1.21421">
        <ele>77.8</ele>
        <time>2020-01-26T11:20:09Z</time>
      </trkpt>
      <trkpt lat="45.75813" lon="-1.21419">
        <ele>77.8</ele>
        <time>2020-01-26T11:20:10Z</time>
      </trkpt>
      <trkpt lat="45.7581" lon="-1.21417">
        <ele>77.6</ele>
        <time>2020-01-26T11:20:11Z</time>
      </trkpt>
      <trkpt lat="45.75809" lon="-1.21416">
        <ele>77.4</ele>
        <time>2020-01-26T11:20:12Z</time>
      </trkpt>
      <trkpt lat="45.75811" lon="-1.2141">
        <ele>76.2</ele>
        <time>2020-01-26T11:20:13Z</time>
      </trkpt>
      <trkpt lat="45.75812" lon="-1.21407">
        <ele>75</ele>
        <time>2020-01-26T11:20:14Z</time>
      </trkpt>
      <trkpt lat="45.75812" lon="-1.21405">
        <ele>73.6</ele>
        <time>2020-01-26T11:20:15Z</time>
      </trkpt>
      <trkpt lat="45.75814" lon="-1.21402">
        <ele>72.8</ele>
        <time>2020-01-26T11:20:16Z</time>
      </trkpt>
      <trkpt lat="45.75815" lon="-1.214">
        <ele>72.6</ele>
        <time>2020-01-26T11:20:17Z</time>
      </trkpt>
      <trkpt lat="45.75816" lon="-1.21397">
        <ele>72.4</ele>
        <time>2020-01-26T11:20:18Z</time>
      </trkpt>
      <trkpt lat="45.75816" lon="-1.21395">
        <ele>72.4</ele>
        <time>2020-01-26T11:20:19Z</time>
      </trkpt>
      <trkpt lat="45.75816" lon="-1.21393">
        <ele>72.6</ele>
        <time>2020-01-26T11:20:20Z</time>
      </trkpt>
      <trkpt lat="45.75815" lon="-1.21391">
        <ele>72.8</ele>
        <time>2020-01-26T11:20:21Z</time>
      </trkpt>
      <trkpt lat="45.75814" lon="-1.21391">
        <ele>73.2</ele>
        <time>2020-01-26T11:20:22Z</time>
      </trkpt>
      <trkpt lat="45.75813" lon="-1.21389">
        <ele>73.4</ele>
        <time>2020-01-26T11:20:23Z</time>
      </trkpt>
      <trkpt lat="45.75813" lon="-1.21386">
        <ele>73.6</ele>
        <time>2020-01-26T11:20:24Z</time>
      </trkpt>
      <trkpt lat="45.75812" lon="-1.21383">
        <ele>73.8</ele>
        <time>2020-01-26T11:20:25Z</time>
      </trkpt>
      <trkpt lat="45.7581" lon="-1.21381">
        <ele>74</ele>
        <time>2020-01-26T11:20:26Z</time>
      </trkpt>
      <trkpt lat="45.75809" lon="-1.21377">
        <ele>74.4</ele>
        <time>2020-01-26T11:20:27Z</time>
      </trkpt>
      <trkpt lat="45.7581" lon="-1.21375">
        <ele>75.2</ele>
        <time>2020-01-26T11:20:28Z</time>
      </trkpt>
      <trkpt lat="45.7581" lon="-1.21372">
        <ele>75.6</ele>
        <time>2020-01-26T11:20:29Z</time>
      </trkpt>
      <trkpt lat="45.75809" lon="-1.21368">
        <ele>76.2</ele>
        <time>2020-01-26T11:20:30Z</time>
      </trkpt>
      <trkpt lat="45.75809" lon="-1.21366">
        <ele>76.6</ele>
        <time>2020-01-26T11:20:31Z</time>
      </trkpt>
      <trkpt lat="45.75809" lon="-1.21364">
        <ele>77</ele>
        <time>2020-01-26T11:20:32Z</time>
      </trkpt>
      <trkpt lat="45.75811" lon="-1.21359">
        <ele>77.2</ele>
        <time>2020-01-26T11:20:33Z</time>
      </trkpt>
      <trkpt lat="45.75811" lon="-1.21356">
        <ele>77.4</ele>
        <time>2020-01-26T11:20:34Z</time>
      </trkpt>
      <trkpt lat="45.75811" lon="-1.21352">
        <ele>77.8</ele>
        <time>2020-01-26T11:20:35Z</time>
      </trkpt>
      <trkpt lat="45.75812" lon="-1.21348">
        <ele>78.4</ele>
        <time>2020-01-26T11:20:36Z</time>
      </trkpt>
      <trkpt lat="45.75811" lon="-1.21345">
        <ele>78.8</ele>
        <time>2020-01-26T11:20:37Z</time>
      </trkpt>
      <trkpt lat="45.75812" lon="-1.21342">
        <ele>79.6</ele>
        <time>2020-01-26T11:20:38Z</time>
      </trkpt>
      <trkpt lat="45.75812" lon="-1.2134">
        <ele>80.2</ele>
        <time>2020-01-26T11:20:39Z</time>
      </trkpt>
      <trkpt lat="45.75812" lon="-1.21337">
        <ele>80.6</ele>
        <time>2020-01-26T11:20:40Z</time>
      </trkpt>
      <trkpt lat="45.75813" lon="-1.21335">
        <ele>81</ele>
        <time>2020-01-26T11:20:41Z</time>
      </trkpt>
      <trkpt lat="45.75813" lon="-1.21333">
        <ele>81.2</ele>
        <time>2020-01-26T11:20:42Z</time>
      </trkpt>
      <trkpt lat="45.75814" lon="-1.21327">
        <ele>81.2</ele>
        <time>2020-01-26T11:20:43Z</time>
      </trkpt>
      <trkpt lat="45.75814" lon="-1.21324">
        <ele>81.2</ele>
        <time>2020-01-26T11:20:44Z</time>
      </trkpt>
      <trkpt lat="45.75814" lon="-1.21322">
        <ele>81</ele>
        <time>2020-01-26T11:20:45Z</time>
      </trkpt>
      <trkpt lat="45.75812" lon="-1.2132">
        <ele>80.8</ele>
        <time>2020-01-26T11:20:46Z</time>
      </trkpt>
      <trkpt lat="45.75811" lon="-1.21318">
        <ele>80.4</ele>
        <time>2020-01-26T11:20:47Z</time>
      </trkpt>
      <trkpt lat="45.75809" lon="-1.21315">
        <ele>80.2</ele>
        <time>2020-01-26T11:20:48Z</time>
      </trkpt>
      <trkpt lat="45.75808" lon="-1.21313">
        <ele>79.8</ele>
        <time>2020-01-26T11:20:49Z</time>
      </trkpt>
      <trkpt lat="45.75807" lon="-1.21312">
        <ele>79.2</ele>
        <time>2020-01-26T11:20:50Z</time>
      </trkpt>
      <trkpt lat="45.75806" lon="-1.21311">
        <ele>78.6</ele>
        <time>2020-01-26T11:20:51Z</time>
      </trkpt>
      <trkpt lat="45.75805" lon="-1.21309">
        <ele>78.2</ele>
        <time>2020-01-26T11:20:52Z</time>
      </trkpt>
      <trkpt lat="45.75805" lon="-1.21307">
        <ele>77.6</ele>
        <time>2020-01-26T11:20:53Z</time>
      </trkpt>
      <trkpt lat="45.75805" lon="-1.21305">
        <ele>77.8</ele>
        <time>2020-01-26T11:20:54Z</time>
      </trkpt>
      <trkpt lat="45.75805" lon="-1.21302">
        <ele>77.8</ele>
        <time>2020-01-26T11:20:55Z</time>
      </trkpt>
      <trkpt lat="45.75805" lon="-1.21299">
        <ele>78.6</ele>
        <time>2020-01-26T11:20:56Z</time>
      </trkpt>
      <trkpt lat="45.75805" lon="-1.21297">
        <ele>79.2</ele>
        <time>2020-01-26T11:20:57Z</time>
      </trkpt>
      <trkpt lat="45.75805" lon="-1.21294">
        <ele>80</ele>
        <time>2020-01-26T11:20:58Z</time>
      </trkpt>
      <trkpt lat="45.75803" lon="-1.21293">
        <ele>80.4</ele>
        <time>2020-01-26T11:20:59Z</time>
      </trkpt>
      <trkpt lat="45.75803" lon="-1.21291">
        <ele>80.6</ele>
        <time>2020-01-26T11:21:00Z</time>
      </trkpt>
      <trkpt lat="45.75802" lon="-1.21289">
        <ele>80.4</ele>
        <time>2020-01-26T11:21:01Z</time>
      </trkpt>
      <trkpt lat="45.75802" lon="-1.21287">
        <ele>80.4</ele>
        <time>2020-01-26T11:21:02Z</time>
      </trkpt>
      <trkpt lat="45.75802" lon="-1.21284">
        <ele>80.2</ele>
        <time>2020-01-26T11:21:03Z</time>
      </trkpt>
      <trkpt lat="45.75802" lon="-1.21281">
        <ele>79.6</ele>
        <time>2020-01-26T11:21:04Z</time>
      </trkpt>
      <trkpt lat="45.75801" lon="-1.21279">
        <ele>79.6</ele>
        <time>2020-01-26T11:21:05Z</time>
      </trkpt>
      <trkpt lat="45.758" lon="-1.21278">
        <ele>79.6</ele>
        <time>2020-01-26T11:21:06Z</time>
      </trkpt>
      <trkpt lat="45.75799" lon="-1.21276">
        <ele>79.8</ele>
        <time>2020-01-26T11:21:07Z</time>
      </trkpt>
      <trkpt lat="45.75798" lon="-1.21276">
        <ele>80</ele>
        <time>2020-01-26T11:21:08Z</time>
      </trkpt>
      <trkpt lat="45.75798" lon="-1.21277">
        <ele>80.2</ele>
        <time>2020-01-26T11:21:09Z</time>
      </trkpt>
      <trkpt lat="45.75797" lon="-1.21279">
        <ele>80.2</ele>
        <time>2020-01-26T11:21:10Z</time>
      </trkpt>
      <trkpt lat="45.75796" lon="-1.2128">
        <ele>80.2</ele>
        <time>2020-01-26T11:21:11Z</time>
      </trkpt>
      <trkpt lat="45.75794" lon="-1.21282">
        <ele>80.4</ele>
        <time>2020-01-26T11:21:12Z</time>
      </trkpt>
      <trkpt lat="45.75792" lon="-1.21282">
        <ele>80.6</ele>
        <time>2020-01-26T11:21:13Z</time>
      </trkpt>
      <trkpt lat="45.7579" lon="-1.21282">
        <ele>81.4</ele>
        <time>2020-01-26T11:21:14Z</time>
      </trkpt>
      <trkpt lat="45.75787" lon="-1.21282">
        <ele>81.8</ele>
        <time>2020-01-26T11:21:15Z</time>
      </trkpt>
      <trkpt lat="45.75787" lon="-1.2128">
        <ele>82.2</ele>
        <time>2020-01-26T11:21:16Z</time>
      </trkpt>
      <trkpt lat="45.75785" lon="-1.21279">
        <ele>82.4</ele>
        <time>2020-01-26T11:21:17Z</time>
      </trkpt>
      <trkpt lat="45.75784" lon="-1.21279">
        <ele>82.6</ele>
        <time>2020-01-26T11:21:18Z</time>
      </trkpt>
      <trkpt lat="45.75784" lon="-1.21278">
        <ele>82.6</ele>
        <time>2020-01-26T11:21:19Z</time>
      </trkpt>
      <trkpt lat="45.75782" lon="-1.21281">
        <ele>82.8</ele>
        <time>2020-01-26T11:21:20Z</time>
      </trkpt>
      <trkpt lat="45.7578" lon="-1.21282">
        <ele>82.8</ele>
        <time>2020-01-26T11:21:21Z</time>
      </trkpt>
      <trkpt lat="45.75779" lon="-1.21283">
        <ele>82.8</ele>
        <time>2020-01-26T11:21:22Z</time>
      </trkpt>
      <trkpt lat="45.75777" lon="-1.21283">
        <ele>82.8</ele>
        <time>2020-01-26T11:21:23Z</time>
      </trkpt>
      <trkpt lat="45.75775" lon="-1.21283">
        <ele>82.6</ele>
        <time>2020-01-26T11:21:24Z</time>
      </trkpt>
      <trkpt lat="45.75774" lon="-1.21284">
        <ele>82.6</ele>
        <time>2020-01-26T11:21:25Z</time>
      </trkpt>
      <trkpt lat="45.75772" lon="-1.21285">
        <ele>83</ele>
        <time>2020-01-26T11:21:26Z</time>
      </trkpt>
      <trkpt lat="45.75771" lon="-1.21286">
        <ele>83.4</ele>
        <time>2020-01-26T11:21:27Z</time>
      </trkpt>
      <trkpt lat="45.75769" lon="-1.21287">
        <ele>83.8</ele>
        <time>2020-01-26T11:21:28Z</time>
      </trkpt>
      <trkpt lat="45.75767" lon="-1.21289">
        <ele>84.4</ele>
        <time>2020-01-26T11:21:29Z</time>
      </trkpt>
      <trkpt lat="45.75764" lon="-1.21291">
        <ele>84.8</ele>
        <time>2020-01-26T11:21:30Z</time>
      </trkpt>
      <trkpt lat="45.75763" lon="-1.21291">
        <ele>85.2</ele>
        <time>2020-01-26T11:21:31Z</time>
      </trkpt>
      <trkpt lat="45.7576" lon="-1.21291">
        <ele>86</ele>
        <time>2020-01-26T11:21:32Z</time>
      </trkpt>
      <trkpt lat="45.75758" lon="-1.21291">
        <ele>87</ele>
        <time>2020-01-26T11:21:33Z</time>
      </trkpt>
      <trkpt lat="45.75756" lon="-1.21291">
        <ele>87.6</ele>
        <time>2020-01-26T11:21:34Z</time>
      </trkpt>
      <trkpt lat="45.75754" lon="-1.21292">
        <ele>88.2</ele>
        <time>2020-01-26T11:21:35Z</time>
      </trkpt>
      <trkpt lat="45.75752" lon="-1.21292">
        <ele>89</ele>
        <time>2020-01-26T11:21:36Z</time>
      </trkpt>
      <trkpt lat="45.75751" lon="-1.21292">
        <ele>89.8</ele>
        <time>2020-01-26T11:21:37Z</time>
      </trkpt>
      <trkpt lat="45.75748" lon="-1.21292">
        <ele>90.6</ele>
        <time>2020-01-26T11:21:38Z</time>
      </trkpt>
      <trkpt lat="45.75747" lon="-1.21292">
        <ele>91.2</ele>
        <time>2020-01-26T11:21:39Z</time>
      </trkpt>
      <trkpt lat="45.75745" lon="-1.21293">
        <ele>91.6</ele>
        <time>2020-01-26T11:21:40Z</time>
      </trkpt>
      <trkpt lat="45.75743" lon="-1.21292">
        <ele>92</ele>
        <time>2020-01-26T11:21:41Z</time>
      </trkpt>
      <trkpt lat="45.75742" lon="-1.21291">
        <ele>92.2</ele>
        <time>2020-01-26T11:21:42Z</time>
      </trkpt>
      <trkpt lat="45.7574" lon="-1.21291">
        <ele>92.4</ele>
        <time>2020-01-26T11:21:43Z</time>
      </trkpt>
      <trkpt lat="45.75739" lon="-1.21292">
        <ele>92.6</ele>
        <time>2020-01-26T11:21:44Z</time>
      </trkpt>
      <trkpt lat="45.75737" lon="-1.21292">
        <ele>92.6</ele>
        <time>2020-01-26T11:21:45Z</time>
      </trkpt>
      <trkpt lat="45.75736" lon="-1.21292">
        <ele>92.2</ele>
        <time>2020-01-26T11:21:46Z</time>
      </trkpt>
      <trkpt lat="45.75735" lon="-1.21293">
        <ele>92</ele>
        <time>2020-01-26T11:21:47Z</time>
      </trkpt>
      <trkpt lat="45.75734" lon="-1.21293">
        <ele>92</ele>
        <time>2020-01-26T11:21:48Z</time>
      </trkpt>
      <trkpt lat="45.75733" lon="-1.21295">
        <ele>91.8</ele>
        <time>2020-01-26T11:21:49Z</time>
      </trkpt>
      <trkpt lat="45.75731" lon="-1.21295">
        <ele>91.6</ele>
        <time>2020-01-26T11:21:50Z</time>
      </trkpt>
      <trkpt lat="45.7573" lon="-1.21296">
        <ele>91.6</ele>
        <time>2020-01-26T11:21:51Z</time>
      </trkpt>
      <trkpt lat="45.75728" lon="-1.21297">
        <ele>91.8</ele>
        <time>2020-01-26T11:21:52Z</time>
      </trkpt>
      <trkpt lat="45.75726" lon="-1.21298">
        <ele>92</ele>
        <time>2020-01-26T11:21:53Z</time>
      </trkpt>
      <trkpt lat="45.75725" lon="-1.21299">
        <ele>92.6</ele>
        <time>2020-01-26T11:21:54Z</time>
      </trkpt>
      <trkpt lat="45.75722" lon="-1.213">
        <ele>92.6</ele>
        <time>2020-01-26T11:21:55Z</time>
      </trkpt>
      <trkpt lat="45.7572" lon="-1.21302">
        <ele>92.8</ele>
        <time>2020-01-26T11:21:56Z</time>
      </trkpt>
      <trkpt lat="45.75719" lon="-1.21304">
        <ele>92.8</ele>
        <time>2020-01-26T11:21:57Z</time>
      </trkpt>
      <trkpt lat="45.75718" lon="-1.21305">
        <ele>92.6</ele>
        <time>2020-01-26T11:21:58Z</time>
      </trkpt>
      <trkpt lat="45.75717" lon="-1.21306">
        <ele>92.4</ele>
        <time>2020-01-26T11:21:59Z</time>
      </trkpt>
      <trkpt lat="45.75715" lon="-1.21308">
        <ele>92.4</ele>
        <time>2020-01-26T11:22:00Z</time>
      </trkpt>
      <trkpt lat="45.75714" lon="-1.21309">
        <ele>92.2</ele>
        <time>2020-01-26T11:22:01Z</time>
      </trkpt>
      <trkpt lat="45.75713" lon="-1.21311">
        <ele>92</ele>
        <time>2020-01-26T11:22:02Z</time>
      </trkpt>
      <trkpt lat="45.75712" lon="-1.21312">
        <ele>91.4</ele>
        <time>2020-01-26T11:22:03Z</time>
      </trkpt>
      <trkpt lat="45.7571" lon="-1.21313">
        <ele>91.4</ele>
        <time>2020-01-26T11:22:04Z</time>
      </trkpt>
      <trkpt lat="45.75709" lon="-1.21314">
        <ele>91.2</ele>
        <time>2020-01-26T11:22:05Z</time>
      </trkpt>
      <trkpt lat="45.75708" lon="-1.21316">
        <ele>92</ele>
        <time>2020-01-26T11:22:06Z</time>
      </trkpt>
      <trkpt lat="45.75706" lon="-1.21317">
        <ele>92.4</ele>
        <time>2020-01-26T11:22:07Z</time>
      </trkpt>
      <trkpt lat="45.75705" lon="-1.21318">
        <ele>92.6</ele>
        <time>2020-01-26T11:22:08Z</time>
      </trkpt>
      <trkpt lat="45.75704" lon="-1.2132">
        <ele>93</ele>
        <time>2020-01-26T11:22:09Z</time>
      </trkpt>
      <trkpt lat="45.75705" lon="-1.21321">
        <ele>93.2</ele>
        <time>2020-01-26T11:22:10Z</time>
      </trkpt>
      <trkpt lat="45.75704" lon="-1.21322">
        <ele>93.4</ele>
        <time>2020-01-26T11:22:11Z</time>
      </trkpt>
      <trkpt lat="45.75704" lon="-1.21325">
        <ele>94</ele>
        <time>2020-01-26T11:22:12Z</time>
      </trkpt>
      <trkpt lat="45.75704" lon="-1.21327">
        <ele>94.4</ele>
        <time>2020-01-26T11:22:13Z</time>
      </trkpt>
      <trkpt lat="45.75703" lon="-1.21329">
        <ele>94.4</ele>
        <time>2020-01-26T11:22:14Z</time>
      </trkpt>
      <trkpt lat="45.75704" lon="-1.21332">
        <ele>94.6</ele>
        <time>2020-01-26T11:22:15Z</time>
      </trkpt>
      <trkpt lat="45.75704" lon="-1.21335">
        <ele>95</ele>
        <time>2020-01-26T11:22:16Z</time>
      </trkpt>
      <trkpt lat="45.75704" lon="-1.21338">
        <ele>95.2</ele>
        <time>2020-01-26T11:22:17Z</time>
      </trkpt>
      <trkpt lat="45.75703" lon="-1.2134">
        <ele>95.4</ele>
        <time>2020-01-26T11:22:18Z</time>
      </trkpt>
      <trkpt lat="45.75703" lon="-1.21342">
        <ele>95.6</ele>
        <time>2020-01-26T11:22:19Z</time>
      </trkpt>
      <trkpt lat="45.75701" lon="-1.21343">
        <ele>95.6</ele>
        <time>2020-01-26T11:22:20Z</time>
      </trkpt>
      <trkpt lat="45.75698" lon="-1.21344">
        <ele>95.4</ele>
        <time>2020-01-26T11:22:21Z</time>
      </trkpt>
      <trkpt lat="45.75695" lon="-1.21345">
        <ele>95.4</ele>
        <time>2020-01-26T11:22:22Z</time>
      </trkpt>
      <trkpt lat="45.75694" lon="-1.21347">
        <ele>95.6</ele>
        <time>2020-01-26T11:22:23Z</time>
      </trkpt>
      <trkpt lat="45.75692" lon="-1.21348">
        <ele>95.6</ele>
        <time>2020-01-26T11:22:24Z</time>
      </trkpt>
      <trkpt lat="45.7569" lon="-1.2135">
        <ele>96</ele>
        <time>2020-01-26T11:22:25Z</time>
      </trkpt>
      <trkpt lat="45.75688" lon="-1.21352">
        <ele>96.6</ele>
        <time>2020-01-26T11:22:26Z</time>
      </trkpt>
      <trkpt lat="45.75687" lon="-1.21352">
        <ele>97.2</ele>
        <time>2020-01-26T11:22:27Z</time>
      </trkpt>
      <trkpt lat="45.75685" lon="-1.21353">
        <ele>97.6</ele>
        <time>2020-01-26T11:22:28Z</time>
      </trkpt>
      <trkpt lat="45.75683" lon="-1.21354">
        <ele>98</ele>
        <time>2020-01-26T11:22:29Z</time>
      </trkpt>
      <trkpt lat="45.75681" lon="-1.21354">
        <ele>98.4</ele>
        <time>2020-01-26T11:22:30Z</time>
      </trkpt>
      <trkpt lat="45.7568" lon="-1.21353">
        <ele>98.8</ele>
        <time>2020-01-26T11:22:31Z</time>
      </trkpt>
      <trkpt lat="45.7568" lon="-1.21351">
        <ele>99.2</ele>
        <time>2020-01-26T11:22:32Z</time>
      </trkpt>
      <trkpt lat="45.7568" lon="-1.21349">
        <ele>99.6</ele>
        <time>2020-01-26T11:22:33Z</time>
      </trkpt>
      <trkpt lat="45.75681" lon="-1.21347">
        <ele>100</ele>
        <time>2020-01-26T11:22:34Z</time>
      </trkpt>
      <trkpt lat="45.75682" lon="-1.21345">
        <ele>100.4</ele>
        <time>2020-01-26T11:22:35Z</time>
      </trkpt>
      <trkpt lat="45.75682" lon="-1.21342">
        <ele>100.4</ele>
        <time>2020-01-26T11:22:36Z</time>
      </trkpt>
      <trkpt lat="45.75682" lon="-1.21339">
        <ele>100.6</ele>
        <time>2020-01-26T11:22:37Z</time>
      </trkpt>
      <trkpt lat="45.75682" lon="-1.21337">
        <ele>101</ele>
        <time>2020-01-26T11:22:38Z</time>
      </trkpt>
      <trkpt lat="45.75681" lon="-1.21335">
        <ele>101.2</ele>
        <time>2020-01-26T11:22:39Z</time>
      </trkpt>
      <trkpt lat="45.75681" lon="-1.21333">
        <ele>100.8</ele>
        <time>2020-01-26T11:22:40Z</time>
      </trkpt>
      <trkpt lat="45.75681" lon="-1.21329">
        <ele>100.6</ele>
        <time>2020-01-26T11:22:41Z</time>
      </trkpt>
      <trkpt lat="45.75682" lon="-1.21326">
        <ele>101</ele>
        <time>2020-01-26T11:22:42Z</time>
      </trkpt>
      <trkpt lat="45.75682" lon="-1.21324">
        <ele>101.6</ele>
        <time>2020-01-26T11:22:43Z</time>
      </trkpt>
      <trkpt lat="45.75683" lon="-1.2132">
        <ele>101.8</ele>
        <time>2020-01-26T11:22:44Z</time>
      </trkpt>
      <trkpt lat="45.75683" lon="-1.21317">
        <ele>102.2</ele>
        <time>2020-01-26T11:22:45Z</time>
      </trkpt>
      <trkpt lat="45.75686" lon="-1.21313">
        <ele>101.8</ele>
        <time>2020-01-26T11:22:46Z</time>
      </trkpt>
      <trkpt lat="45.75688" lon="-1.2131">
        <ele>101.6</ele>
        <time>2020-01-26T11:22:47Z</time>
      </trkpt>
      <trkpt lat="45.7569" lon="-1.21307">
        <ele>101.4</ele>
        <time>2020-01-26T11:22:48Z</time>
      </trkpt>
      <trkpt lat="45.7569" lon="-1.21304">
        <ele>101.4</ele>
        <time>2020-01-26T11:22:49Z</time>
      </trkpt>
      <trkpt lat="45.75692" lon="-1.213">
        <ele>101.6</ele>
        <time>2020-01-26T11:22:50Z</time>
      </trkpt>
      <trkpt lat="45.75693" lon="-1.21296">
        <ele>101.6</ele>
        <time>2020-01-26T11:22:51Z</time>
      </trkpt>
      <trkpt lat="45.75692" lon="-1.21293">
        <ele>101.8</ele>
        <time>2020-01-26T11:22:52Z</time>
      </trkpt>
      <trkpt lat="45.75692" lon="-1.21289">
        <ele>101.8</ele>
        <time>2020-01-26T11:22:53Z</time>
      </trkpt>
      <trkpt lat="45.75692" lon="-1.21286">
        <ele>101.4</ele>
        <time>2020-01-26T11:22:54Z</time>
      </trkpt>
      <trkpt lat="45.75691" lon="-1.21283">
        <ele>101.2</ele>
        <time>2020-01-26T11:22:55Z</time>
      </trkpt>
      <trkpt lat="45.7569" lon="-1.21279">
        <ele>101</ele>
        <time>2020-01-26T11:22:56Z</time>
      </trkpt>
      <trkpt lat="45.75689" lon="-1.21278">
        <ele>101</ele>
        <time>2020-01-26T11:22:57Z</time>
      </trkpt>
      <trkpt lat="45.75687" lon="-1.21277">
        <ele>100.8</ele>
        <time>2020-01-26T11:22:58Z</time>
      </trkpt>
      <trkpt lat="45.75686" lon="-1.21276">
        <ele>101.4</ele>
        <time>2020-01-26T11:22:59Z</time>
      </trkpt>
      <trkpt lat="45.75684" lon="-1.21277">
        <ele>102.2</ele>
        <time>2020-01-26T11:23:00Z</time>
      </trkpt>
      <trkpt lat="45.75684" lon="-1.21279">
        <ele>103</ele>
        <time>2020-01-26T11:23:01Z</time>
      </trkpt>
      <trkpt lat="45.75682" lon="-1.21281">
        <ele>103.4</ele>
        <time>2020-01-26T11:23:02Z</time>
      </trkpt>
      <trkpt lat="45.75681" lon="-1.21283">
        <ele>103.8</ele>
        <time>2020-01-26T11:23:03Z</time>
      </trkpt>
      <trkpt lat="45.75681" lon="-1.21284">
        <ele>103.6</ele>
        <time>2020-01-26T11:23:04Z</time>
      </trkpt>
      <trkpt lat="45.75679" lon="-1.21286">
        <ele>103</ele>
        <time>2020-01-26T11:23:05Z</time>
      </trkpt>
      <trkpt lat="45.75677" lon="-1.21288">
        <ele>102.2</ele>
        <time>2020-01-26T11:23:06Z</time>
      </trkpt>
      <trkpt lat="45.75674" lon="-1.21288">
        <ele>101.6</ele>
        <time>2020-01-26T11:23:07Z</time>
      </trkpt>
      <trkpt lat="45.75671" lon="-1.21288">
        <ele>100.6</ele>
        <time>2020-01-26T11:23:08Z</time>
      </trkpt>
      <trkpt lat="45.75669" lon="-1.21288">
        <ele>100</ele>
        <time>2020-01-26T11:23:09Z</time>
      </trkpt>
      <trkpt lat="45.75669" lon="-1.21284">
        <ele>100</ele>
        <time>2020-01-26T11:23:10Z</time>
      </trkpt>
      <trkpt lat="45.75669" lon="-1.2128">
        <ele>100</ele>
        <time>2020-01-26T11:23:11Z</time>
      </trkpt>
      <trkpt lat="45.7567" lon="-1.21277">
        <ele>100.4</ele>
        <time>2020-01-26T11:23:12Z</time>
      </trkpt>
      <trkpt lat="45.75671" lon="-1.21274">
        <ele>101</ele>
        <time>2020-01-26T11:23:13Z</time>
      </trkpt>
      <trkpt lat="45.75672" lon="-1.21272">
        <ele>101.4</ele>
        <time>2020-01-26T11:23:14Z</time>
      </trkpt>
      <trkpt lat="45.75671" lon="-1.21268">
        <ele>101.8</ele>
        <time>2020-01-26T11:23:15Z</time>
      </trkpt>
      <trkpt lat="45.7567" lon="-1.21267">
        <ele>102.2</ele>
        <time>2020-01-26T11:23:16Z</time>
      </trkpt>
      <trkpt lat="45.7567" lon="-1.21265">
        <ele>102.4</ele>
        <time>2020-01-26T11:23:17Z</time>
      </trkpt>
      <trkpt lat="45.75669" lon="-1.2126">
        <ele>102.2</ele>
        <time>2020-01-26T11:23:18Z</time>
      </trkpt>
      <trkpt lat="45.75668" lon="-1.21257">
        <ele>101.6</ele>
        <time>2020-01-26T11:23:19Z</time>
      </trkpt>
      <trkpt lat="45.75666" lon="-1.21253">
        <ele>101.6</ele>
        <time>2020-01-26T11:23:20Z</time>
      </trkpt>
      <trkpt lat="45.75665" lon="-1.21251">
        <ele>101.4</ele>
        <time>2020-01-26T11:23:21Z</time>
      </trkpt>
      <trkpt lat="45.75662" lon="-1.21247">
        <ele>101.6</ele>
        <time>2020-01-26T11:23:22Z</time>
      </trkpt>
      <trkpt lat="45.7566" lon="-1.21243">
        <ele>102.2</ele>
        <time>2020-01-26T11:23:23Z</time>
      </trkpt>
      <trkpt lat="45.75659" lon="-1.2124">
        <ele>102.8</ele>
        <time>2020-01-26T11:23:24Z</time>
      </trkpt>
      <trkpt lat="45.75661" lon="-1.21236">
        <ele>102.6</ele>
        <time>2020-01-26T11:23:25Z</time>
      </trkpt>
      <trkpt lat="45.7566" lon="-1.21234">
        <ele>102.4</ele>
        <time>2020-01-26T11:23:26Z</time>
      </trkpt>
      <trkpt lat="45.75659" lon="-1.21228">
        <ele>103.2</ele>
        <time>2020-01-26T11:23:27Z</time>
      </trkpt>
      <trkpt lat="45.75659" lon="-1.21224">
        <ele>104.4</ele>
        <time>2020-01-26T11:23:28Z</time>
      </trkpt>
      <trkpt lat="45.75659" lon="-1.21218">
        <ele>104.6</ele>
        <time>2020-01-26T11:23:29Z</time>
      </trkpt>
      <trkpt lat="45.7566" lon="-1.21212">
        <ele>105.2</ele>
        <time>2020-01-26T11:23:30Z</time>
      </trkpt>
      <trkpt lat="45.7566" lon="-1.21207">
        <ele>105.8</ele>
        <time>2020-01-26T11:23:31Z</time>
      </trkpt>
      <trkpt lat="45.75659" lon="-1.21203">
        <ele>106.2</ele>
        <time>2020-01-26T11:23:32Z</time>
      </trkpt>
      <trkpt lat="45.75658" lon="-1.21199">
        <ele>106.8</ele>
        <time>2020-01-26T11:23:33Z</time>
      </trkpt>
      <trkpt lat="45.75655" lon="-1.21196">
        <ele>107.4</ele>
        <time>2020-01-26T11:23:34Z</time>
      </trkpt>
      <trkpt lat="45.75652" lon="-1.21192">
        <ele>107.6</ele>
        <time>2020-01-26T11:23:35Z</time>
      </trkpt>
      <trkpt lat="45.7565" lon="-1.21188">
        <ele>107.6</ele>
        <time>2020-01-26T11:23:36Z</time>
      </trkpt>
      <trkpt lat="45.7565" lon="-1.21184">
        <ele>108</ele>
        <time>2020-01-26T11:23:37Z</time>
      </trkpt>
      <trkpt lat="45.7565" lon="-1.2118">
        <ele>107.6</ele>
        <time>2020-01-26T11:23:38Z</time>
      </trkpt>
      <trkpt lat="45.75651" lon="-1.21177">
        <ele>107.2</ele>
        <time>2020-01-26T11:23:39Z</time>
      </trkpt>
      <trkpt lat="45.75652" lon="-1.21175">
        <ele>106.6</ele>
        <time>2020-01-26T11:23:40Z</time>
      </trkpt>
      <trkpt lat="45.75653" lon="-1.21171">
        <ele>105.4</ele>
        <time>2020-01-26T11:23:41Z</time>
      </trkpt>
      <trkpt lat="45.75654" lon="-1.21166">
        <ele>104.4</ele>
        <time>2020-01-26T11:23:42Z</time>
      </trkpt>
      <trkpt lat="45.75656" lon="-1.21161">
        <ele>103.8</ele>
        <time>2020-01-26T11:23:43Z</time>
      </trkpt>
      <trkpt lat="45.75657" lon="-1.21157">
        <ele>103.4</ele>
        <time>2020-01-26T11:23:44Z</time>
      </trkpt>
      <trkpt lat="45.75658" lon="-1.21153">
        <ele>103.2</ele>
        <time>2020-01-26T11:23:45Z</time>
      </trkpt>
      <trkpt lat="45.75661" lon="-1.2115">
        <ele>103</ele>
        <time>2020-01-26T11:23:46Z</time>
      </trkpt>
      <trkpt lat="45.75662" lon="-1.21146">
        <ele>102.8</ele>
        <time>2020-01-26T11:23:47Z</time>
      </trkpt>
      <trkpt lat="45.75663" lon="-1.21143">
        <ele>102.6</ele>
        <time>2020-01-26T11:23:48Z</time>
      </trkpt>
      <trkpt lat="45.75667" lon="-1.21144">
        <ele>103.2</ele>
        <time>2020-01-26T11:23:49Z</time>
      </trkpt>
      <trkpt lat="45.75671" lon="-1.2114">
        <ele>104.2</ele>
        <time>2020-01-26T11:23:50Z</time>
      </trkpt>
      <trkpt lat="45.75674" lon="-1.21137">
        <ele>104.8</ele>
        <time>2020-01-26T11:23:51Z</time>
      </trkpt>
      <trkpt lat="45.75678" lon="-1.21133">
        <ele>105.2</ele>
        <time>2020-01-26T11:23:52Z</time>
      </trkpt>
      <trkpt lat="45.75682" lon="-1.21129">
        <ele>105.4</ele>
        <time>2020-01-26T11:23:53Z</time>
      </trkpt>
      <trkpt lat="45.75686" lon="-1.21128">
        <ele>106</ele>
        <time>2020-01-26T11:23:54Z</time>
      </trkpt>
      <trkpt lat="45.75691" lon="-1.21127">
        <ele>106.2</ele>
        <time>2020-01-26T11:23:55Z</time>
      </trkpt>
      <trkpt lat="45.75694" lon="-1.21125">
        <ele>106.4</ele>
        <time>2020-01-26T11:23:56Z</time>
      </trkpt>
      <trkpt lat="45.75697" lon="-1.2112">
        <ele>106.6</ele>
        <time>2020-01-26T11:23:57Z</time>
      </trkpt>
      <trkpt lat="45.75696" lon="-1.21115">
        <ele>106</ele>
        <time>2020-01-26T11:23:58Z</time>
      </trkpt>
      <trkpt lat="45.75696" lon="-1.21108">
        <ele>105.8</ele>
        <time>2020-01-26T11:23:59Z</time>
      </trkpt>
      <trkpt lat="45.75696" lon="-1.21101">
        <ele>105.8</ele>
        <time>2020-01-26T11:24:00Z</time>
      </trkpt>
      <trkpt lat="45.75695" lon="-1.21095">
        <ele>106.2</ele>
        <time>2020-01-26T11:24:01Z</time>
      </trkpt>
      <trkpt lat="45.75694" lon="-1.21089">
        <ele>106.6</ele>
        <time>2020-01-26T11:24:02Z</time>
      </trkpt>
      <trkpt lat="45.75694" lon="-1.21083">
        <ele>107.2</ele>
        <time>2020-01-26T11:24:03Z</time>
      </trkpt>
      <trkpt lat="45.75694" lon="-1.21078">
        <ele>108.4</ele>
        <time>2020-01-26T11:24:04Z</time>
      </trkpt>
      <trkpt lat="45.75694" lon="-1.2107">
        <ele>109</ele>
        <time>2020-01-26T11:24:05Z</time>
      </trkpt>
      <trkpt lat="45.7569" lon="-1.21064">
        <ele>108.4</ele>
        <time>2020-01-26T11:24:06Z</time>
      </trkpt>
      <trkpt lat="45.75686" lon="-1.21062">
        <ele>108</ele>
        <time>2020-01-26T11:24:07Z</time>
      </trkpt>
      <trkpt lat="45.75682" lon="-1.21063">
        <ele>107.2</ele>
        <time>2020-01-26T11:24:08Z</time>
      </trkpt>
      <trkpt lat="45.75677" lon="-1.21064">
        <ele>106.6</ele>
        <time>2020-01-26T11:24:09Z</time>
      </trkpt>
      <trkpt lat="45.75671" lon="-1.21064">
        <ele>106</ele>
        <time>2020-01-26T11:24:10Z</time>
      </trkpt>
      <trkpt lat="45.75666" lon="-1.21064">
        <ele>105</ele>
        <time>2020-01-26T11:24:11Z</time>
      </trkpt>
      <trkpt lat="45.7566" lon="-1.21065">
        <ele>104.2</ele>
        <time>2020-01-26T11:24:12Z</time>
      </trkpt>
      <trkpt lat="45.75653" lon="-1.21066">
        <ele>103.4</ele>
        <time>2020-01-26T11:24:13Z</time>
      </trkpt>
      <trkpt lat="45.75647" lon="-1.21067">
        <ele>102.8</ele>
        <time>2020-01-26T11:24:14Z</time>
      </trkpt>
      <trkpt lat="45.75641" lon="-1.21066">
        <ele>102.4</ele>
        <time>2020-01-26T11:24:15Z</time>
      </trkpt>
      <trkpt lat="45.75632" lon="-1.21066">
        <ele>102</ele>
        <time>2020-01-26T11:24:16Z</time>
      </trkpt>
      <trkpt lat="45.75624" lon="-1.21067">
        <ele>101.6</ele>
        <time>2020-01-26T11:24:17Z</time>
      </trkpt>
      <trkpt lat="45.75616" lon="-1.21067">
        <ele>101</ele>
        <time>2020-01-26T11:24:18Z</time>
      </trkpt>
      <trkpt lat="45.75609" lon="-1.21068">
        <ele>100</ele>
        <time>2020-01-26T11:24:19Z</time>
      </trkpt>
      <trkpt lat="45.75602" lon="-1.21069">
        <ele>99.2</ele>
        <time>2020-01-26T11:24:20Z</time>
      </trkpt>
      <trkpt lat="45.75597" lon="-1.2107">
        <ele>98.4</ele>
        <time>2020-01-26T11:24:21Z</time>
      </trkpt>
      <trkpt lat="45.75592" lon="-1.21069">
        <ele>97.6</ele>
        <time>2020-01-26T11:24:22Z</time>
      </trkpt>
      <trkpt lat="45.75586" lon="-1.21071">
        <ele>96.6</ele>
        <time>2020-01-26T11:24:23Z</time>
      </trkpt>
      <trkpt lat="45.75579" lon="-1.21072">
        <ele>95.6</ele>
        <time>2020-01-26T11:24:24Z</time>
      </trkpt>
      <trkpt lat="45.75571" lon="-1.21072">
        <ele>94.4</ele>
        <time>2020-01-26T11:24:25Z</time>
      </trkpt>
      <trkpt lat="45.75563" lon="-1.21072">
        <ele>93</ele>
        <time>2020-01-26T11:24:26Z</time>
      </trkpt>
      <trkpt lat="45.75556" lon="-1.21072">
        <ele>91.6</ele>
        <time>2020-01-26T11:24:27Z</time>
      </trkpt>
      <trkpt lat="45.75548" lon="-1.21074">
        <ele>90.2</ele>
        <time>2020-01-26T11:24:28Z</time>
      </trkpt>
      <trkpt lat="45.7554" lon="-1.21074">
        <ele>88.8</ele>
        <time>2020-01-26T11:24:29Z</time>
      </trkpt>
      <trkpt lat="45.75533" lon="-1.21074">
        <ele>87.4</ele>
        <time>2020-01-26T11:24:30Z</time>
      </trkpt>
      <trkpt lat="45.75525" lon="-1.21074">
        <ele>85.8</ele>
        <time>2020-01-26T11:24:31Z</time>
      </trkpt>
      <trkpt lat="45.75518" lon="-1.21075">
        <ele>84.2</ele>
        <time>2020-01-26T11:24:32Z</time>
      </trkpt>
      <trkpt lat="45.7551" lon="-1.21075">
        <ele>82.8</ele>
        <time>2020-01-26T11:24:33Z</time>
      </trkpt>
      <trkpt lat="45.75503" lon="-1.21076">
        <ele>81.4</ele>
        <time>2020-01-26T11:24:34Z</time>
      </trkpt>
      <trkpt lat="45.75496" lon="-1.21077">
        <ele>80.2</ele>
        <time>2020-01-26T11:24:35Z</time>
      </trkpt>
      <trkpt lat="45.75486" lon="-1.21078">
        <ele>79</ele>
        <time>2020-01-26T11:24:36Z</time>
      </trkpt>
      <trkpt lat="45.75476" lon="-1.21079">
        <ele>77.8</ele>
        <time>2020-01-26T11:24:37Z</time>
      </trkpt>
      <trkpt lat="45.75466" lon="-1.21079">
        <ele>76.8</ele>
        <time>2020-01-26T11:24:38Z</time>
      </trkpt>
      <trkpt lat="45.75459" lon="-1.21081">
        <ele>75.6</ele>
        <time>2020-01-26T11:24:39Z</time>
      </trkpt>
      <trkpt lat="45.75452" lon="-1.21082">
        <ele>74.4</ele>
        <time>2020-01-26T11:24:40Z</time>
      </trkpt>
      <trkpt lat="45.75448" lon="-1.21082">
        <ele>73</ele>
        <time>2020-01-26T11:24:41Z</time>
      </trkpt>
      <trkpt lat="45.75446" lon="-1.2108">
        <ele>72.4</ele>
        <time>2020-01-26T11:24:42Z</time>
      </trkpt>
      <trkpt lat="45.75447" lon="-1.21079">
        <ele>72</ele>
        <time>2020-01-26T11:24:43Z</time>
      </trkpt>
      <trkpt lat="45.75449" lon="-1.21079">
        <ele>71.8</ele>
        <time>2020-01-26T11:24:44Z</time>
      </trkpt>
      <trkpt lat="45.7545" lon="-1.2108">
        <ele>71.4</ele>
        <time>2020-01-26T11:24:45Z</time>
      </trkpt>
      <trkpt lat="45.7545" lon="-1.21081">
        <ele>71.2</ele>
        <time>2020-01-26T11:24:46Z</time>
      </trkpt>
      <trkpt lat="45.75449" lon="-1.21081">
        <ele>71.2</ele>
        <time>2020-01-26T11:24:47Z</time>
      </trkpt>
      <trkpt lat="45.7545" lon="-1.2108">
        <ele>71.2</ele>
        <time>2020-01-26T11:24:48Z</time>
      </trkpt>
      <trkpt lat="45.7545" lon="-1.21081">
        <ele>71.2</ele>
        <time>2020-01-26T11:24:49Z</time>
      </trkpt>
      <trkpt lat="45.7545" lon="-1.21081">
        <ele>71.4</ele>
        <time>2020-01-26T11:24:50Z</time>
      </trkpt>
      <trkpt lat="45.7545" lon="-1.21081">
        <ele>71.8</ele>
        <time>2020-01-26T11:24:51Z</time>
      </trkpt>
      <trkpt lat="45.7545" lon="-1.21081">
        <ele>72</ele>
        <time>2020-01-26T11:24:52Z</time>
      </trkpt>
      <trkpt lat="45.75449" lon="-1.21081">
        <ele>72.4</ele>
        <time>2020-01-26T11:24:53Z</time>
      </trkpt>
      <trkpt lat="45.75449" lon="-1.21081">
        <ele>72.6</ele>
        <time>2020-01-26T11:24:54Z</time>
      </trkpt>
      <trkpt lat="45.75449" lon="-1.21081">
        <ele>72.8</ele>
        <time>2020-01-26T11:24:55Z</time>
      </trkpt>
      <trkpt lat="45.75449" lon="-1.21081">
        <ele>73.2</ele>
        <time>2020-01-26T11:24:56Z</time>
      </trkpt>
      <trkpt lat="45.75449" lon="-1.2108">
        <ele>73.2</ele>
        <time>2020-01-26T11:24:57Z</time>
      </trkpt>
      <trkpt lat="45.75449" lon="-1.2108">
        <ele>73</ele>
        <time>2020-01-26T11:24:58Z</time>
      </trkpt>
      <trkpt lat="45.75449" lon="-1.2108">
        <ele>73</ele>
        <time>2020-01-26T11:24:59Z</time>
      </trkpt>
      <trkpt lat="45.75449" lon="-1.2108">
        <ele>73.4</ele>
        <time>2020-01-26T11:25:00Z</time>
      </trkpt>
      <trkpt lat="45.75448" lon="-1.2108">
        <ele>73.4</ele>
        <time>2020-01-26T11:25:01Z</time>
      </trkpt>
      <trkpt lat="45.75448" lon="-1.2108">
        <ele>73.4</ele>
        <time>2020-01-26T11:25:02Z</time>
      </trkpt>
      <trkpt lat="45.75448" lon="-1.2108">
        <ele>73.2</ele>
        <time>2020-01-26T11:25:03Z</time>
      </trkpt>
      <trkpt lat="45.75448" lon="-1.2108">
        <ele>73.2</ele>
        <time>2020-01-26T11:25:04Z</time>
      </trkpt>
      <trkpt lat="45.75448" lon="-1.2108">
        <ele>73.2</ele>
        <time>2020-01-26T11:25:05Z</time>
      </trkpt>
      <trkpt lat="45.75448" lon="-1.2108">
        <ele>73.2</ele>
        <time>2020-01-26T11:25:06Z</time>
      </trkpt>
      <trkpt lat="45.75448" lon="-1.2108">
        <ele>73</ele>
        <time>2020-01-26T11:25:07Z</time>
      </trkpt>
      <trkpt lat="45.75448" lon="-1.2108">
        <ele>73</ele>
        <time>2020-01-26T11:25:08Z</time>
      </trkpt>
      <trkpt lat="45.75448" lon="-1.2108">
        <ele>73</ele>
        <time>2020-01-26T11:25:09Z</time>
      </trkpt>
      <trkpt lat="45.75448" lon="-1.2108">
        <ele>73</ele>
        <time>2020-01-26T11:25:10Z</time>
      </trkpt>
      <trkpt lat="45.75448" lon="-1.2108">
        <ele>73.2</ele>
        <time>2020-01-26T11:25:11Z</time>
      </trkpt>
      <trkpt lat="45.75448" lon="-1.2108">
        <ele>73.4</ele>
        <time>2020-01-26T11:25:12Z</time>
      </trkpt>
      <trkpt lat="45.75448" lon="-1.2108">
        <ele>73.6</ele>
        <time>2020-01-26T11:25:13Z</time>
      </trkpt>
      <trkpt lat="45.75448" lon="-1.2108">
        <ele>73.8</ele>
        <time>2020-01-26T11:25:14Z</time>
      </trkpt>
      <trkpt lat="45.75448" lon="-1.2108">
        <ele>73.8</ele>
        <time>2020-01-26T11:25:15Z</time>
      </trkpt>
      <trkpt lat="45.75448" lon="-1.2108">
        <ele>73.8</ele>
        <time>2020-01-26T11:25:16Z</time>
      </trkpt>
      <trkpt lat="45.75448" lon="-1.2108">
        <ele>73.8</ele>
        <time>2020-01-26T11:25:17Z</time>
      </trkpt>
      <trkpt lat="45.75448" lon="-1.2108">
        <ele>74</ele>
        <time>2020-01-26T11:25:18Z</time>
      </trkpt>
      <trkpt lat="45.75448" lon="-1.2108">
        <ele>74</ele>
        <time>2020-01-26T11:25:19Z</time>
      </trkpt>
      <trkpt lat="45.75448" lon="-1.2108">
        <ele>74</ele>
        <time>2020-01-26T11:25:20Z</time>
      </trkpt>
      <trkpt lat="45.75448" lon="-1.2108">
        <ele>74</ele>
        <time>2020-01-26T11:25:21Z</time>
      </trkpt>
      <trkpt lat="45.75448" lon="-1.2108">
        <ele>74</ele>
        <time>2020-01-26T11:25:22Z</time>
      </trkpt>
      <trkpt lat="45.75449" lon="-1.2108">
        <ele>74</ele>
        <time>2020-01-26T11:25:23Z</time>
      </trkpt>
      <trkpt lat="45.75449" lon="-1.2108">
        <ele>74</ele>
        <time>2020-01-26T11:25:24Z</time>
      </trkpt>
      <trkpt lat="45.75449" lon="-1.2108">
        <ele>74</ele>
        <time>2020-01-26T11:25:25Z</time>
      </trkpt>
      <trkpt lat="45.75449" lon="-1.2108">
        <ele>74</ele>
        <time>2020-01-26T11:25:26Z</time>
      </trkpt>
      <trkpt lat="45.75449" lon="-1.2108">
        <ele>74</ele>
        <time>2020-01-26T11:25:27Z</time>
      </trkpt>
      <trkpt lat="45.75449" lon="-1.2108">
        <ele>74</ele>
        <time>2020-01-26T11:25:28Z</time>
      </trkpt>
      <trkpt lat="45.75449" lon="-1.21081">
        <ele>74</ele>
        <time>2020-01-26T11:25:29Z</time>
      </trkpt>
      <trkpt lat="45.75449" lon="-1.21083">
        <ele>73.8</ele>
        <time>2020-01-26T11:25:30Z</time>
      </trkpt>
      <trkpt lat="45.7545" lon="-1.21084">
        <ele>73.6</ele>
        <time>2020-01-26T11:25:31Z</time>
      </trkpt>
      <trkpt lat="45.7545" lon="-1.21086">
        <ele>73.4</ele>
        <time>2020-01-26T11:25:32Z</time>
      </trkpt>
      <trkpt lat="45.7545" lon="-1.21087">
        <ele>73.2</ele>
        <time>2020-01-26T11:25:33Z</time>
      </trkpt>
      <trkpt lat="45.7545" lon="-1.21089">
        <ele>73</ele>
        <time>2020-01-26T11:25:34Z</time>
      </trkpt>
      <trkpt lat="45.75449" lon="-1.21092">
        <ele>72.4</ele>
        <time>2020-01-26T11:25:35Z</time>
      </trkpt>
      <trkpt lat="45.75447" lon="-1.21095">
        <ele>72.2</ele>
        <time>2020-01-26T11:25:36Z</time>
      </trkpt>
      <trkpt lat="45.75446" lon="-1.21097">
        <ele>71.6</ele>
        <time>2020-01-26T11:25:37Z</time>
      </trkpt>
      <trkpt lat="45.75444" lon="-1.21101">
        <ele>71</ele>
        <time>2020-01-26T11:25:38Z</time>
      </trkpt>
      <trkpt lat="45.75442" lon="-1.21105">
        <ele>70.4</ele>
        <time>2020-01-26T11:25:39Z</time>
      </trkpt>
      <trkpt lat="45.7544" lon="-1.21109">
        <ele>69.8</ele>
        <time>2020-01-26T11:25:40Z</time>
      </trkpt>
      <trkpt lat="45.75438" lon="-1.21113">
        <ele>69.2</ele>
        <time>2020-01-26T11:25:41Z</time>
      </trkpt>
      <trkpt lat="45.75438" lon="-1.21117">
        <ele>68</ele>
        <time>2020-01-26T11:25:42Z</time>
      </trkpt>
      <trkpt lat="45.75436" lon="-1.21121">
        <ele>66.8</ele>
        <time>2020-01-26T11:25:43Z</time>
      </trkpt>
      <trkpt lat="45.75434" lon="-1.21125">
        <ele>65.6</ele>
        <time>2020-01-26T11:25:44Z</time>
      </trkpt>
      <trkpt lat="45.75433" lon="-1.2113">
        <ele>64.4</ele>
        <time>2020-01-26T11:25:45Z</time>
      </trkpt>
      <trkpt lat="45.75431" lon="-1.21135">
        <ele>63.8</ele>
        <time>2020-01-26T11:25:46Z</time>
      </trkpt>
      <trkpt lat="45.7543" lon="-1.21139">
        <ele>63.4</ele>
        <time>2020-01-26T11:25:47Z</time>
      </trkpt>
      <trkpt lat="45.75429" lon="-1.21144">
        <ele>63</ele>
        <time>2020-01-26T11:25:48Z</time>
      </trkpt>
      <trkpt lat="45.75427" lon="-1.21149">
        <ele>62.8</ele>
        <time>2020-01-26T11:25:49Z</time>
      </trkpt>
      <trkpt lat="45.75426" lon="-1.21154">
        <ele>62.6</ele>
        <time>2020-01-26T11:25:50Z</time>
      </trkpt>
      <trkpt lat="45.75425" lon="-1.21159">
        <ele>62.4</ele>
        <time>2020-01-26T11:25:51Z</time>
      </trkpt>
      <trkpt lat="45.75423" lon="-1.21163">
        <ele>62</ele>
        <time>2020-01-26T11:25:52Z</time>
      </trkpt>
      <trkpt lat="45.75422" lon="-1.21168">
        <ele>61.6</ele>
        <time>2020-01-26T11:25:53Z</time>
      </trkpt>
      <trkpt lat="45.75421" lon="-1.21173">
        <ele>61.4</ele>
        <time>2020-01-26T11:25:54Z</time>
      </trkpt>
      <trkpt lat="45.7542" lon="-1.21178">
        <ele>61.4</ele>
        <time>2020-01-26T11:25:55Z</time>
      </trkpt>
      <trkpt lat="45.75418" lon="-1.21182">
        <ele>61.2</ele>
        <time>2020-01-26T11:25:56Z</time>
      </trkpt>
      <trkpt lat="45.75417" lon="-1.21187">
        <ele>61.4</ele>
        <time>2020-01-26T11:25:57Z</time>
      </trkpt>
      <trkpt lat="45.75416" lon="-1.21192">
        <ele>61.4</ele>
        <time>2020-01-26T11:25:58Z</time>
      </trkpt>
      <trkpt lat="45.75414" lon="-1.21196">
        <ele>61.2</ele>
        <time>2020-01-26T11:25:59Z</time>
      </trkpt>
      <trkpt lat="45.75413" lon="-1.21201">
        <ele>61.2</ele>
        <time>2020-01-26T11:26:00Z</time>
      </trkpt>
      <trkpt lat="45.75412" lon="-1.21205">
        <ele>60.8</ele>
        <time>2020-01-26T11:26:01Z</time>
      </trkpt>
      <trkpt lat="45.75412" lon="-1.21209">
        <ele>60.6</ele>
        <time>2020-01-26T11:26:02Z</time>
      </trkpt>
      <trkpt lat="45.75411" lon="-1.21213">
        <ele>60.2</ele>
        <time>2020-01-26T11:26:03Z</time>
      </trkpt>
      <trkpt lat="45.7541" lon="-1.21218">
        <ele>59.6</ele>
        <time>2020-01-26T11:26:04Z</time>
      </trkpt>
      <trkpt lat="45.75409" lon="-1.21222">
        <ele>59.6</ele>
        <time>2020-01-26T11:26:05Z</time>
      </trkpt>
      <trkpt lat="45.75407" lon="-1.21228">
        <ele>59.8</ele>
        <time>2020-01-26T11:26:06Z</time>
      </trkpt>
      <trkpt lat="45.75406" lon="-1.21234">
        <ele>60</ele>
        <time>2020-01-26T11:26:07Z</time>
      </trkpt>
      <trkpt lat="45.75405" lon="-1.21239">
        <ele>60</ele>
        <time>2020-01-26T11:26:08Z</time>
      </trkpt>
      <trkpt lat="45.75404" lon="-1.21246">
        <ele>60</ele>
        <time>2020-01-26T11:26:09Z</time>
      </trkpt>
      <trkpt lat="45.75403" lon="-1.21252">
        <ele>60.2</ele>
        <time>2020-01-26T11:26:10Z</time>
      </trkpt>
      <trkpt lat="45.75402" lon="-1.21257">
        <ele>60.4</ele>
        <time>2020-01-26T11:26:11Z</time>
      </trkpt>
      <trkpt lat="45.754" lon="-1.21263">
        <ele>60.8</ele>
        <time>2020-01-26T11:26:12Z</time>
      </trkpt>
      <trkpt lat="45.75399" lon="-1.21268">
        <ele>61.2</ele>
        <time>2020-01-26T11:26:13Z</time>
      </trkpt>
      <trkpt lat="45.75397" lon="-1.21273">
        <ele>61.4</ele>
        <time>2020-01-26T11:26:14Z</time>
      </trkpt>
      <trkpt lat="45.75396" lon="-1.21278">
        <ele>61.2</ele>
        <time>2020-01-26T11:26:15Z</time>
      </trkpt>
      <trkpt lat="45.75395" lon="-1.21283">
        <ele>61.2</ele>
        <time>2020-01-26T11:26:16Z</time>
      </trkpt>
      <trkpt lat="45.75394" lon="-1.21288">
        <ele>60.8</ele>
        <time>2020-01-26T11:26:17Z</time>
      </trkpt>
      <trkpt lat="45.75393" lon="-1.21294">
        <ele>60.6</ele>
        <time>2020-01-26T11:26:18Z</time>
      </trkpt>
      <trkpt lat="45.75393" lon="-1.213">
        <ele>60.2</ele>
        <time>2020-01-26T11:26:19Z</time>
      </trkpt>
      <trkpt lat="45.75392" lon="-1.21306">
        <ele>60.2</ele>
        <time>2020-01-26T11:26:20Z</time>
      </trkpt>
      <trkpt lat="45.75391" lon="-1.21313">
        <ele>60.2</ele>
        <time>2020-01-26T11:26:21Z</time>
      </trkpt>
      <trkpt lat="45.7539" lon="-1.21319">
        <ele>59.8</ele>
        <time>2020-01-26T11:26:22Z</time>
      </trkpt>
      <trkpt lat="45.75389" lon="-1.21324">
        <ele>59.6</ele>
        <time>2020-01-26T11:26:23Z</time>
      </trkpt>
      <trkpt lat="45.75388" lon="-1.2133">
        <ele>59.8</ele>
        <time>2020-01-26T11:26:24Z</time>
      </trkpt>
      <trkpt lat="45.75386" lon="-1.21337">
        <ele>59.8</ele>
        <time>2020-01-26T11:26:25Z</time>
      </trkpt>
      <trkpt lat="45.75384" lon="-1.21342">
        <ele>59.8</ele>
        <time>2020-01-26T11:26:26Z</time>
      </trkpt>
      <trkpt lat="45.75382" lon="-1.21348">
        <ele>59.8</ele>
        <time>2020-01-26T11:26:27Z</time>
      </trkpt>
      <trkpt lat="45.75381" lon="-1.21353">
        <ele>59.6</ele>
        <time>2020-01-26T11:26:28Z</time>
      </trkpt>
      <trkpt lat="45.75378" lon="-1.21359">
        <ele>59.8</ele>
        <time>2020-01-26T11:26:29Z</time>
      </trkpt>
      <trkpt lat="45.75376" lon="-1.21363">
        <ele>59.8</ele>
        <time>2020-01-26T11:26:30Z</time>
      </trkpt>
      <trkpt lat="45.75373" lon="-1.21368">
        <ele>60.2</ele>
        <time>2020-01-26T11:26:31Z</time>
      </trkpt>
      <trkpt lat="45.7537" lon="-1.21373">
        <ele>60</ele>
        <time>2020-01-26T11:26:32Z</time>
      </trkpt>
      <trkpt lat="45.75368" lon="-1.21378">
        <ele>60.4</ele>
        <time>2020-01-26T11:26:33Z</time>
      </trkpt>
      <trkpt lat="45.75365" lon="-1.21383">
        <ele>60.8</ele>
        <time>2020-01-26T11:26:34Z</time>
      </trkpt>
      <trkpt lat="45.75362" lon="-1.21388">
        <ele>61</ele>
        <time>2020-01-26T11:26:35Z</time>
      </trkpt>
      <trkpt lat="45.75358" lon="-1.21392">
        <ele>61.8</ele>
        <time>2020-01-26T11:26:36Z</time>
      </trkpt>
      <trkpt lat="45.75355" lon="-1.21396">
        <ele>62</ele>
        <time>2020-01-26T11:26:37Z</time>
      </trkpt>
      <trkpt lat="45.75352" lon="-1.21399">
        <ele>61.8</ele>
        <time>2020-01-26T11:26:38Z</time>
      </trkpt>
      <trkpt lat="45.75349" lon="-1.21402">
        <ele>61.4</ele>
        <time>2020-01-26T11:26:39Z</time>
      </trkpt>
      <trkpt lat="45.75345" lon="-1.21406">
        <ele>61.2</ele>
        <time>2020-01-26T11:26:40Z</time>
      </trkpt>
      <trkpt lat="45.75342" lon="-1.21409">
        <ele>61</ele>
        <time>2020-01-26T11:26:41Z</time>
      </trkpt>
      <trkpt lat="45.75339" lon="-1.21413">
        <ele>60.2</ele>
        <time>2020-01-26T11:26:42Z</time>
      </trkpt>
      <trkpt lat="45.75335" lon="-1.21416">
        <ele>59.4</ele>
        <time>2020-01-26T11:26:43Z</time>
      </trkpt>
      <trkpt lat="45.7533" lon="-1.2142">
        <ele>58.8</ele>
        <time>2020-01-26T11:26:44Z</time>
      </trkpt>
      <trkpt lat="45.75325" lon="-1.21424">
        <ele>58.4</ele>
        <time>2020-01-26T11:26:45Z</time>
      </trkpt>
      <trkpt lat="45.7532" lon="-1.21427">
        <ele>58</ele>
        <time>2020-01-26T11:26:46Z</time>
      </trkpt>
      <trkpt lat="45.75316" lon="-1.21431">
        <ele>58</ele>
        <time>2020-01-26T11:26:47Z</time>
      </trkpt>
      <trkpt lat="45.75311" lon="-1.21435">
        <ele>58</ele>
        <time>2020-01-26T11:26:48Z</time>
      </trkpt>
      <trkpt lat="45.75305" lon="-1.21438">
        <ele>58.6</ele>
        <time>2020-01-26T11:26:49Z</time>
      </trkpt>
      <trkpt lat="45.753" lon="-1.21441">
        <ele>59.2</ele>
        <time>2020-01-26T11:26:50Z</time>
      </trkpt>
      <trkpt lat="45.75294" lon="-1.21444">
        <ele>59.6</ele>
        <time>2020-01-26T11:26:51Z</time>
      </trkpt>
      <trkpt lat="45.75288" lon="-1.21446">
        <ele>60</ele>
        <time>2020-01-26T11:26:52Z</time>
      </trkpt>
      <trkpt lat="45.75283" lon="-1.21449">
        <ele>60.2</ele>
        <time>2020-01-26T11:26:53Z</time>
      </trkpt>
      <trkpt lat="45.75277" lon="-1.2145">
        <ele>60.4</ele>
        <time>2020-01-26T11:26:54Z</time>
      </trkpt>
      <trkpt lat="45.75272" lon="-1.21454">
        <ele>60.6</ele>
        <time>2020-01-26T11:26:55Z</time>
      </trkpt>
      <trkpt lat="45.75267" lon="-1.21457">
        <ele>60.6</ele>
        <time>2020-01-26T11:26:56Z</time>
      </trkpt>
      <trkpt lat="45.75261" lon="-1.2146">
        <ele>60.8</ele>
        <time>2020-01-26T11:26:57Z</time>
      </trkpt>
      <trkpt lat="45.75256" lon="-1.21463">
        <ele>61</ele>
        <time>2020-01-26T11:26:58Z</time>
      </trkpt>
      <trkpt lat="45.75252" lon="-1.21465">
        <ele>61.4</ele>
        <time>2020-01-26T11:26:59Z</time>
      </trkpt>
      <trkpt lat="45.75247" lon="-1.21467">
        <ele>61.4</ele>
        <time>2020-01-26T11:27:00Z</time>
      </trkpt>
      <trkpt lat="45.75243" lon="-1.21469">
        <ele>61.6</ele>
        <time>2020-01-26T11:27:01Z</time>
      </trkpt>
      <trkpt lat="45.75239" lon="-1.21472">
        <ele>61.8</ele>
        <time>2020-01-26T11:27:02Z</time>
      </trkpt>
      <trkpt lat="45.75233" lon="-1.21474">
        <ele>61.8</ele>
        <time>2020-01-26T11:27:03Z</time>
      </trkpt>
      <trkpt lat="45.75229" lon="-1.21477">
        <ele>61.6</ele>
        <time>2020-01-26T11:27:04Z</time>
      </trkpt>
      <trkpt lat="45.75223" lon="-1.21479">
        <ele>61.4</ele>
        <time>2020-01-26T11:27:05Z</time>
      </trkpt>
      <trkpt lat="45.75217" lon="-1.2148">
        <ele>61.4</ele>
        <time>2020-01-26T11:27:06Z</time>
      </trkpt>
      <trkpt lat="45.75212" lon="-1.21482">
        <ele>61.2</ele>
        <time>2020-01-26T11:27:07Z</time>
      </trkpt>
      <trkpt lat="45.75207" lon="-1.21483">
        <ele>61.2</ele>
        <time>2020-01-26T11:27:08Z</time>
      </trkpt>
      <trkpt lat="45.75202" lon="-1.21484">
        <ele>61.2</ele>
        <time>2020-01-26T11:27:09Z</time>
      </trkpt>
      <trkpt lat="45.75198" lon="-1.21487">
        <ele>61.4</ele>
        <time>2020-01-26T11:27:10Z</time>
      </trkpt>
      <trkpt lat="45.75194" lon="-1.21489">
        <ele>61.6</ele>
        <time>2020-01-26T11:27:11Z</time>
      </trkpt>
      <trkpt lat="45.75188" lon="-1.21491">
        <ele>61.4</ele>
        <time>2020-01-26T11:27:12Z</time>
      </trkpt>
      <trkpt lat="45.75183" lon="-1.21491">
        <ele>60.8</ele>
        <time>2020-01-26T11:27:13Z</time>
      </trkpt>
      <trkpt lat="45.75179" lon="-1.21489">
        <ele>60.4</ele>
        <time>2020-01-26T11:27:14Z</time>
      </trkpt>
      <trkpt lat="45.75175" lon="-1.21484">
        <ele>60</ele>
        <time>2020-01-26T11:27:15Z</time>
      </trkpt>
      <trkpt lat="45.75172" lon="-1.21478">
        <ele>59.8</ele>
        <time>2020-01-26T11:27:16Z</time>
      </trkpt>
      <trkpt lat="45.75169" lon="-1.21473">
        <ele>59.6</ele>
        <time>2020-01-26T11:27:17Z</time>
      </trkpt>
      <trkpt lat="45.75166" lon="-1.21469">
        <ele>59.4</ele>
        <time>2020-01-26T11:27:18Z</time>
      </trkpt>
      <trkpt lat="45.75164" lon="-1.21468">
        <ele>59.8</ele>
        <time>2020-01-26T11:27:19Z</time>
      </trkpt>
      <trkpt lat="45.75162" lon="-1.21466">
        <ele>59.8</ele>
        <time>2020-01-26T11:27:20Z</time>
      </trkpt>
      <trkpt lat="45.75159" lon="-1.21463">
        <ele>60.2</ele>
        <time>2020-01-26T11:27:21Z</time>
      </trkpt>
      <trkpt lat="45.75156" lon="-1.21461">
        <ele>60.4</ele>
        <time>2020-01-26T11:27:22Z</time>
      </trkpt>
      <trkpt lat="45.75153" lon="-1.21459">
        <ele>60.4</ele>
        <time>2020-01-26T11:27:23Z</time>
      </trkpt>
      <trkpt lat="45.75151" lon="-1.21457">
        <ele>59.8</ele>
        <time>2020-01-26T11:27:24Z</time>
      </trkpt>
      <trkpt lat="45.75148" lon="-1.21454">
        <ele>59.2</ele>
        <time>2020-01-26T11:27:25Z</time>
      </trkpt>
      <trkpt lat="45.75145" lon="-1.2145">
        <ele>58.6</ele>
        <time>2020-01-26T11:27:26Z</time>
      </trkpt>
      <trkpt lat="45.75143" lon="-1.21447">
        <ele>58.4</ele>
        <time>2020-01-26T11:27:27Z</time>
      </trkpt>
      <trkpt lat="45.75138" lon="-1.21446">
        <ele>58.4</ele>
        <time>2020-01-26T11:27:28Z</time>
      </trkpt>
      <trkpt lat="45.75135" lon="-1.21444">
        <ele>58.6</ele>
        <time>2020-01-26T11:27:29Z</time>
      </trkpt>
      <trkpt lat="45.75132" lon="-1.21442">
        <ele>58.6</ele>
        <time>2020-01-26T11:27:30Z</time>
      </trkpt>
      <trkpt lat="45.75129" lon="-1.21438">
        <ele>59.2</ele>
        <time>2020-01-26T11:27:31Z</time>
      </trkpt>
      <trkpt lat="45.75126" lon="-1.21435">
        <ele>60</ele>
        <time>2020-01-26T11:27:32Z</time>
      </trkpt>
      <trkpt lat="45.75124" lon="-1.2143">
        <ele>60.8</ele>
        <time>2020-01-26T11:27:33Z</time>
      </trkpt>
      <trkpt lat="45.75122" lon="-1.21425">
        <ele>61.8</ele>
        <time>2020-01-26T11:27:34Z</time>
      </trkpt>
      <trkpt lat="45.75121" lon="-1.21419">
        <ele>62.8</ele>
        <time>2020-01-26T11:27:35Z</time>
      </trkpt>
      <trkpt lat="45.75119" lon="-1.21413">
        <ele>63.6</ele>
        <time>2020-01-26T11:27:36Z</time>
      </trkpt>
      <trkpt lat="45.75117" lon="-1.21406">
        <ele>64.2</ele>
        <time>2020-01-26T11:27:37Z</time>
      </trkpt>
      <trkpt lat="45.75116" lon="-1.21398">
        <ele>64.6</ele>
        <time>2020-01-26T11:27:38Z</time>
      </trkpt>
      <trkpt lat="45.75114" lon="-1.21392">
        <ele>65.2</ele>
        <time>2020-01-26T11:27:39Z</time>
      </trkpt>
      <trkpt lat="45.75111" lon="-1.21385">
        <ele>65.4</ele>
        <time>2020-01-26T11:27:40Z</time>
      </trkpt>
      <trkpt lat="45.75109" lon="-1.21379">
        <ele>66.2</ele>
        <time>2020-01-26T11:27:41Z</time>
      </trkpt>
      <trkpt lat="45.75108" lon="-1.21374">
        <ele>66.6</ele>
        <time>2020-01-26T11:27:42Z</time>
      </trkpt>
      <trkpt lat="45.75105" lon="-1.21367">
        <ele>67</ele>
        <time>2020-01-26T11:27:43Z</time>
      </trkpt>
      <trkpt lat="45.75102" lon="-1.21359">
        <ele>67.4</ele>
        <time>2020-01-26T11:27:44Z</time>
      </trkpt>
      <trkpt lat="45.751" lon="-1.2135">
        <ele>67.6</ele>
        <time>2020-01-26T11:27:45Z</time>
      </trkpt>
      <trkpt lat="45.751" lon="-1.21342">
        <ele>67.4</ele>
        <time>2020-01-26T11:27:46Z</time>
      </trkpt>
      <trkpt lat="45.75097" lon="-1.21334">
        <ele>67.4</ele>
        <time>2020-01-26T11:27:47Z</time>
      </trkpt>
      <trkpt lat="45.75095" lon="-1.21327">
        <ele>67.2</ele>
        <time>2020-01-26T11:27:48Z</time>
      </trkpt>
      <trkpt lat="45.75093" lon="-1.21319">
        <ele>67</ele>
        <time>2020-01-26T11:27:49Z</time>
      </trkpt>
      <trkpt lat="45.75093" lon="-1.21313">
        <ele>66.8</ele>
        <time>2020-01-26T11:27:50Z</time>
      </trkpt>
      <trkpt lat="45.75093" lon="-1.21308">
        <ele>66.8</ele>
        <time>2020-01-26T11:27:51Z</time>
      </trkpt>
      <trkpt lat="45.75093" lon="-1.21302">
        <ele>66.8</ele>
        <time>2020-01-26T11:27:52Z</time>
      </trkpt>
      <trkpt lat="45.75095" lon="-1.21298">
        <ele>66.8</ele>
        <time>2020-01-26T11:27:53Z</time>
      </trkpt>
      <trkpt lat="45.75096" lon="-1.21296">
        <ele>66.6</ele>
        <time>2020-01-26T11:27:54Z</time>
      </trkpt>
      <trkpt lat="45.75097" lon="-1.21292">
        <ele>66.4</ele>
        <time>2020-01-26T11:27:55Z</time>
      </trkpt>
      <trkpt lat="45.75098" lon="-1.2129">
        <ele>66</ele>
        <time>2020-01-26T11:27:56Z</time>
      </trkpt>
      <trkpt lat="45.751" lon="-1.21288">
        <ele>65.4</ele>
        <time>2020-01-26T11:27:57Z</time>
      </trkpt>
      <trkpt lat="45.75101" lon="-1.21285">
        <ele>65</ele>
        <time>2020-01-26T11:27:58Z</time>
      </trkpt>
      <trkpt lat="45.75102" lon="-1.21282">
        <ele>64.8</ele>
        <time>2020-01-26T11:27:59Z</time>
      </trkpt>
      <trkpt lat="45.75103" lon="-1.21279">
        <ele>64.8</ele>
        <time>2020-01-26T11:28:00Z</time>
      </trkpt>
      <trkpt lat="45.75103" lon="-1.21276">
        <ele>64.8</ele>
        <time>2020-01-26T11:28:01Z</time>
      </trkpt>
      <trkpt lat="45.75104" lon="-1.21273">
        <ele>64.8</ele>
        <time>2020-01-26T11:28:02Z</time>
      </trkpt>
      <trkpt lat="45.75105" lon="-1.21271">
        <ele>65</ele>
        <time>2020-01-26T11:28:03Z</time>
      </trkpt>
      <trkpt lat="45.75106" lon="-1.21269">
        <ele>65</ele>
        <time>2020-01-26T11:28:04Z</time>
      </trkpt>
      <trkpt lat="45.75106" lon="-1.21265">
        <ele>65.2</ele>
        <time>2020-01-26T11:28:05Z</time>
      </trkpt>
      <trkpt lat="45.75106" lon="-1.21262">
        <ele>65.4</ele>
        <time>2020-01-26T11:28:06Z</time>
      </trkpt>
      <trkpt lat="45.75107" lon="-1.21259">
        <ele>65.6</ele>
        <time>2020-01-26T11:28:07Z</time>
      </trkpt>
      <trkpt lat="45.75107" lon="-1.21257">
        <ele>66</ele>
        <time>2020-01-26T11:28:08Z</time>
      </trkpt>
      <trkpt lat="45.75107" lon="-1.21253">
        <ele>66.8</ele>
        <time>2020-01-26T11:28:09Z</time>
      </trkpt>
      <trkpt lat="45.75108" lon="-1.21251">
        <ele>67.4</ele>
        <time>2020-01-26T11:28:10Z</time>
      </trkpt>
      <trkpt lat="45.75108" lon="-1.21249">
        <ele>68</ele>
        <time>2020-01-26T11:28:11Z</time>
      </trkpt>
      <trkpt lat="45.75109" lon="-1.21245">
        <ele>68</ele>
        <time>2020-01-26T11:28:12Z</time>
      </trkpt>
      <trkpt lat="45.75109" lon="-1.21243">
        <ele>67.6</ele>
        <time>2020-01-26T11:28:13Z</time>
      </trkpt>
      <trkpt lat="45.7511" lon="-1.2124">
        <ele>67.2</ele>
        <time>2020-01-26T11:28:14Z</time>
      </trkpt>
      <trkpt lat="45.75111" lon="-1.21238">
        <ele>67</ele>
        <time>2020-01-26T11:28:15Z</time>
      </trkpt>
      <trkpt lat="45.75111" lon="-1.21236">
        <ele>66.8</ele>
        <time>2020-01-26T11:28:16Z</time>
      </trkpt>
      <trkpt lat="45.75112" lon="-1.21233">
        <ele>66.8</ele>
        <time>2020-01-26T11:28:17Z</time>
      </trkpt>
      <trkpt lat="45.75113" lon="-1.21231">
        <ele>67.4</ele>
        <time>2020-01-26T11:28:18Z</time>
      </trkpt>
      <trkpt lat="45.75112" lon="-1.21228">
        <ele>67.8</ele>
        <time>2020-01-26T11:28:19Z</time>
      </trkpt>
      <trkpt lat="45.75113" lon="-1.21225">
        <ele>68.6</ele>
        <time>2020-01-26T11:28:20Z</time>
      </trkpt>
      <trkpt lat="45.75114" lon="-1.21221">
        <ele>69.2</ele>
        <time>2020-01-26T11:28:21Z</time>
      </trkpt>
      <trkpt lat="45.75113" lon="-1.21218">
        <ele>69.6</ele>
        <time>2020-01-26T11:28:22Z</time>
      </trkpt>
      <trkpt lat="45.75113" lon="-1.21217">
        <ele>70</ele>
        <time>2020-01-26T11:28:23Z</time>
      </trkpt>
      <trkpt lat="45.75114" lon="-1.21215">
        <ele>70.2</ele>
        <time>2020-01-26T11:28:24Z</time>
      </trkpt>
      <trkpt lat="45.75114" lon="-1.21213">
        <ele>70.4</ele>
        <time>2020-01-26T11:28:25Z</time>
      </trkpt>
      <trkpt lat="45.75114" lon="-1.2121">
        <ele>70.6</ele>
        <time>2020-01-26T11:28:26Z</time>
      </trkpt>
      <trkpt lat="45.75115" lon="-1.21207">
        <ele>71</ele>
        <time>2020-01-26T11:28:27Z</time>
      </trkpt>
      <trkpt lat="45.75115" lon="-1.21204">
        <ele>70.6</ele>
        <time>2020-01-26T11:28:28Z</time>
      </trkpt>
      <trkpt lat="45.75116" lon="-1.21202">
        <ele>70.6</ele>
        <time>2020-01-26T11:28:29Z</time>
      </trkpt>
      <trkpt lat="45.75116" lon="-1.21199">
        <ele>70.4</ele>
        <time>2020-01-26T11:28:30Z</time>
      </trkpt>
      <trkpt lat="45.75116" lon="-1.21195">
        <ele>70.8</ele>
        <time>2020-01-26T11:28:31Z</time>
      </trkpt>
      <trkpt lat="45.75117" lon="-1.21193">
        <ele>70.8</ele>
        <time>2020-01-26T11:28:32Z</time>
      </trkpt>
      <trkpt lat="45.75117" lon="-1.2119">
        <ele>71.6</ele>
        <time>2020-01-26T11:28:33Z</time>
      </trkpt>
      <trkpt lat="45.75118" lon="-1.21187">
        <ele>72.2</ele>
        <time>2020-01-26T11:28:34Z</time>
      </trkpt>
      <trkpt lat="45.75119" lon="-1.21185">
        <ele>72.8</ele>
        <time>2020-01-26T11:28:35Z</time>
      </trkpt>
      <trkpt lat="45.7512" lon="-1.21182">
        <ele>73.2</ele>
        <time>2020-01-26T11:28:36Z</time>
      </trkpt>
      <trkpt lat="45.75121" lon="-1.2118">
        <ele>73.8</ele>
        <time>2020-01-26T11:28:37Z</time>
      </trkpt>
      <trkpt lat="45.75122" lon="-1.21178">
        <ele>74</ele>
        <time>2020-01-26T11:28:38Z</time>
      </trkpt>
      <trkpt lat="45.75123" lon="-1.21175">
        <ele>74.4</ele>
        <time>2020-01-26T11:28:39Z</time>
      </trkpt>
      <trkpt lat="45.75124" lon="-1.21173">
        <ele>74.8</ele>
        <time>2020-01-26T11:28:40Z</time>
      </trkpt>
      <trkpt lat="45.75124" lon="-1.21172">
        <ele>75.4</ele>
        <time>2020-01-26T11:28:41Z</time>
      </trkpt>
      <trkpt lat="45.75126" lon="-1.2117">
        <ele>75.8</ele>
        <time>2020-01-26T11:28:42Z</time>
      </trkpt>
      <trkpt lat="45.75127" lon="-1.21168">
        <ele>76.2</ele>
        <time>2020-01-26T11:28:43Z</time>
      </trkpt>
      <trkpt lat="45.75127" lon="-1.21166">
        <ele>76.4</ele>
        <time>2020-01-26T11:28:44Z</time>
      </trkpt>
      <trkpt lat="45.75129" lon="-1.21164">
        <ele>76.6</ele>
        <time>2020-01-26T11:28:45Z</time>
      </trkpt>
      <trkpt lat="45.75129" lon="-1.21162">
        <ele>77</ele>
        <time>2020-01-26T11:28:46Z</time>
      </trkpt>
      <trkpt lat="45.75129" lon="-1.2116">
        <ele>77.2</ele>
        <time>2020-01-26T11:28:47Z</time>
      </trkpt>
      <trkpt lat="45.7513" lon="-1.21156">
        <ele>78.2</ele>
        <time>2020-01-26T11:28:48Z</time>
      </trkpt>
      <trkpt lat="45.75131" lon="-1.21154">
        <ele>79.2</ele>
        <time>2020-01-26T11:28:49Z</time>
      </trkpt>
      <trkpt lat="45.75132" lon="-1.21151">
        <ele>79.8</ele>
        <time>2020-01-26T11:28:50Z</time>
      </trkpt>
      <trkpt lat="45.75133" lon="-1.21148">
        <ele>80.6</ele>
        <time>2020-01-26T11:28:51Z</time>
      </trkpt>
      <trkpt lat="45.75134" lon="-1.21145">
        <ele>81</ele>
        <time>2020-01-26T11:28:52Z</time>
      </trkpt>
      <trkpt lat="45.75135" lon="-1.21142">
        <ele>81.2</ele>
        <time>2020-01-26T11:28:53Z</time>
      </trkpt>
      <trkpt lat="45.75136" lon="-1.2114">
        <ele>81.6</ele>
        <time>2020-01-26T11:28:54Z</time>
      </trkpt>
      <trkpt lat="45.75136" lon="-1.21137">
        <ele>81.4</ele>
        <time>2020-01-26T11:28:55Z</time>
      </trkpt>
      <trkpt lat="45.75137" lon="-1.21134">
        <ele>81.4</ele>
        <time>2020-01-26T11:28:56Z</time>
      </trkpt>
      <trkpt lat="45.75137" lon="-1.21131">
        <ele>81.2</ele>
        <time>2020-01-26T11:28:57Z</time>
      </trkpt>
      <trkpt lat="45.75138" lon="-1.21128">
        <ele>80.8</ele>
        <time>2020-01-26T11:28:58Z</time>
      </trkpt>
      <trkpt lat="45.75139" lon="-1.21125">
        <ele>80.6</ele>
        <time>2020-01-26T11:28:59Z</time>
      </trkpt>
      <trkpt lat="45.7514" lon="-1.21122">
        <ele>80.6</ele>
        <time>2020-01-26T11:29:00Z</time>
      </trkpt>
      <trkpt lat="45.7514" lon="-1.21119">
        <ele>80.4</ele>
        <time>2020-01-26T11:29:01Z</time>
      </trkpt>
      <trkpt lat="45.7514" lon="-1.21117">
        <ele>80.4</ele>
        <time>2020-01-26T11:29:02Z</time>
      </trkpt>
      <trkpt lat="45.7514" lon="-1.21114">
        <ele>80</ele>
        <time>2020-01-26T11:29:03Z</time>
      </trkpt>
      <trkpt lat="45.7514" lon="-1.21111">
        <ele>80.2</ele>
        <time>2020-01-26T11:29:04Z</time>
      </trkpt>
      <trkpt lat="45.75139" lon="-1.21108">
        <ele>80.8</ele>
        <time>2020-01-26T11:29:05Z</time>
      </trkpt>
      <trkpt lat="45.75139" lon="-1.21105">
        <ele>81</ele>
        <time>2020-01-26T11:29:06Z</time>
      </trkpt>
      <trkpt lat="45.75139" lon="-1.21103">
        <ele>81.2</ele>
        <time>2020-01-26T11:29:07Z</time>
      </trkpt>
      <trkpt lat="45.75139" lon="-1.211">
        <ele>81</ele>
        <time>2020-01-26T11:29:08Z</time>
      </trkpt>
      <trkpt lat="45.75138" lon="-1.211">
        <ele>80.2</ele>
        <time>2020-01-26T11:29:09Z</time>
      </trkpt>
      <trkpt lat="45.75137" lon="-1.21098">
        <ele>79.4</ele>
        <time>2020-01-26T11:29:10Z</time>
      </trkpt>
      <trkpt lat="45.75135" lon="-1.21097">
        <ele>79</ele>
        <time>2020-01-26T11:29:11Z</time>
      </trkpt>
      <trkpt lat="45.75133" lon="-1.21096">
        <ele>79.4</ele>
        <time>2020-01-26T11:29:12Z</time>
      </trkpt>
      <trkpt lat="45.75131" lon="-1.21096">
        <ele>79.8</ele>
        <time>2020-01-26T11:29:13Z</time>
      </trkpt>
      <trkpt lat="45.75129" lon="-1.21096">
        <ele>80.4</ele>
        <time>2020-01-26T11:29:14Z</time>
      </trkpt>
      <trkpt lat="45.75127" lon="-1.21095">
        <ele>81</ele>
        <time>2020-01-26T11:29:15Z</time>
      </trkpt>
      <trkpt lat="45.75125" lon="-1.21095">
        <ele>81.4</ele>
        <time>2020-01-26T11:29:16Z</time>
      </trkpt>
      <trkpt lat="45.75123" lon="-1.21095">
        <ele>81.8</ele>
        <time>2020-01-26T11:29:17Z</time>
      </trkpt>
      <trkpt lat="45.75121" lon="-1.21096">
        <ele>82.2</ele>
        <time>2020-01-26T11:29:18Z</time>
      </trkpt>
      <trkpt lat="45.75119" lon="-1.21096">
        <ele>82.4</ele>
        <time>2020-01-26T11:29:19Z</time>
      </trkpt>
      <trkpt lat="45.75117" lon="-1.21096">
        <ele>82.8</ele>
        <time>2020-01-26T11:29:20Z</time>
      </trkpt>
      <trkpt lat="45.75114" lon="-1.21096">
        <ele>82.8</ele>
        <time>2020-01-26T11:29:21Z</time>
      </trkpt>
      <trkpt lat="45.75113" lon="-1.21096">
        <ele>82.6</ele>
        <time>2020-01-26T11:29:22Z</time>
      </trkpt>
      <trkpt lat="45.7511" lon="-1.21096">
        <ele>82.4</ele>
        <time>2020-01-26T11:29:23Z</time>
      </trkpt>
      <trkpt lat="45.75108" lon="-1.21096">
        <ele>82.6</ele>
        <time>2020-01-26T11:29:24Z</time>
      </trkpt>
      <trkpt lat="45.75105" lon="-1.21096">
        <ele>83</ele>
        <time>2020-01-26T11:29:25Z</time>
      </trkpt>
      <trkpt lat="45.75103" lon="-1.21096">
        <ele>83.2</ele>
        <time>2020-01-26T11:29:26Z</time>
      </trkpt>
      <trkpt lat="45.75101" lon="-1.21097">
        <ele>83.4</ele>
        <time>2020-01-26T11:29:27Z</time>
      </trkpt>
      <trkpt lat="45.75098" lon="-1.21096">
        <ele>83.6</ele>
        <time>2020-01-26T11:29:28Z</time>
      </trkpt>
      <trkpt lat="45.75095" lon="-1.21097">
        <ele>83.6</ele>
        <time>2020-01-26T11:29:29Z</time>
      </trkpt>
      <trkpt lat="45.75092" lon="-1.21097">
        <ele>83.8</ele>
        <time>2020-01-26T11:29:30Z</time>
      </trkpt>
      <trkpt lat="45.7509" lon="-1.21097">
        <ele>83.6</ele>
        <time>2020-01-26T11:29:31Z</time>
      </trkpt>
      <trkpt lat="45.75087" lon="-1.21097">
        <ele>83.6</ele>
        <time>2020-01-26T11:29:32Z</time>
      </trkpt>
      <trkpt lat="45.75084" lon="-1.21097">
        <ele>83.6</ele>
        <time>2020-01-26T11:29:33Z</time>
      </trkpt>
      <trkpt lat="45.75082" lon="-1.21098">
        <ele>83.6</ele>
        <time>2020-01-26T11:29:34Z</time>
      </trkpt>
      <trkpt lat="45.75079" lon="-1.21099">
        <ele>83.8</ele>
        <time>2020-01-26T11:29:35Z</time>
      </trkpt>
      <trkpt lat="45.75076" lon="-1.21099">
        <ele>83.8</ele>
        <time>2020-01-26T11:29:36Z</time>
      </trkpt>
      <trkpt lat="45.75073" lon="-1.211">
        <ele>83.8</ele>
        <time>2020-01-26T11:29:37Z</time>
      </trkpt>
      <trkpt lat="45.7507" lon="-1.211">
        <ele>83.8</ele>
        <time>2020-01-26T11:29:38Z</time>
      </trkpt>
      <trkpt lat="45.75067" lon="-1.211">
        <ele>83.8</ele>
        <time>2020-01-26T11:29:39Z</time>
      </trkpt>
      <trkpt lat="45.75063" lon="-1.211">
        <ele>83.6</ele>
        <time>2020-01-26T11:29:40Z</time>
      </trkpt>
      <trkpt lat="45.7506" lon="-1.211">
        <ele>83.6</ele>
        <time>2020-01-26T11:29:41Z</time>
      </trkpt>
      <trkpt lat="45.75058" lon="-1.211">
        <ele>83.4</ele>
        <time>2020-01-26T11:29:42Z</time>
      </trkpt>
      <trkpt lat="45.75055" lon="-1.211">
        <ele>83.2</ele>
        <time>2020-01-26T11:29:43Z</time>
      </trkpt>
      <trkpt lat="45.75053" lon="-1.211">
        <ele>83</ele>
        <time>2020-01-26T11:29:44Z</time>
      </trkpt>
      <trkpt lat="45.75051" lon="-1.211">
        <ele>82.8</ele>
        <time>2020-01-26T11:29:45Z</time>
      </trkpt>
      <trkpt lat="45.75049" lon="-1.211">
        <ele>82.6</ele>
        <time>2020-01-26T11:29:46Z</time>
      </trkpt>
      <trkpt lat="45.75048" lon="-1.21101">
        <ele>82.4</ele>
        <time>2020-01-26T11:29:47Z</time>
      </trkpt>
      <trkpt lat="45.75046" lon="-1.21101">
        <ele>82.6</ele>
        <time>2020-01-26T11:29:48Z</time>
      </trkpt>
      <trkpt lat="45.75044" lon="-1.21102">
        <ele>82.6</ele>
        <time>2020-01-26T11:29:49Z</time>
      </trkpt>
      <trkpt lat="45.75042" lon="-1.21102">
        <ele>82.8</ele>
        <time>2020-01-26T11:29:50Z</time>
      </trkpt>
      <trkpt lat="45.7504" lon="-1.21102">
        <ele>82.6</ele>
        <time>2020-01-26T11:29:51Z</time>
      </trkpt>
      <trkpt lat="45.75039" lon="-1.21103">
        <ele>82.4</ele>
        <time>2020-01-26T11:29:52Z</time>
      </trkpt>
      <trkpt lat="45.75037" lon="-1.21103">
        <ele>82.6</ele>
        <time>2020-01-26T11:29:53Z</time>
      </trkpt>
      <trkpt lat="45.75035" lon="-1.21103">
        <ele>82.4</ele>
        <time>2020-01-26T11:29:54Z</time>
      </trkpt>
      <trkpt lat="45.75034" lon="-1.21104">
        <ele>82.4</ele>
        <time>2020-01-26T11:29:55Z</time>
      </trkpt>
      <trkpt lat="45.75032" lon="-1.21103">
        <ele>82.2</ele>
        <time>2020-01-26T11:29:56Z</time>
      </trkpt>
      <trkpt lat="45.7503" lon="-1.21103">
        <ele>82</ele>
        <time>2020-01-26T11:29:57Z</time>
      </trkpt>
      <trkpt lat="45.75028" lon="-1.21102">
        <ele>81.4</ele>
        <time>2020-01-26T11:29:58Z</time>
      </trkpt>
      <trkpt lat="45.75026" lon="-1.211">
        <ele>81</ele>
        <time>2020-01-26T11:29:59Z</time>
      </trkpt>
      <trkpt lat="45.75023" lon="-1.21098">
        <ele>81</ele>
        <time>2020-01-26T11:30:00Z</time>
      </trkpt>
      <trkpt lat="45.75021" lon="-1.21093">
        <ele>81</ele>
        <time>2020-01-26T11:30:01Z</time>
      </trkpt>
      <trkpt lat="45.75021" lon="-1.21087">
        <ele>81</ele>
        <time>2020-01-26T11:30:02Z</time>
      </trkpt>
      <trkpt lat="45.75022" lon="-1.21081">
        <ele>81</ele>
        <time>2020-01-26T11:30:03Z</time>
      </trkpt>
      <trkpt lat="45.75022" lon="-1.21076">
        <ele>81</ele>
        <time>2020-01-26T11:30:04Z</time>
      </trkpt>
      <trkpt lat="45.75022" lon="-1.2107">
        <ele>81</ele>
        <time>2020-01-26T11:30:05Z</time>
      </trkpt>
      <trkpt lat="45.75023" lon="-1.21065">
        <ele>81</ele>
        <time>2020-01-26T11:30:06Z</time>
      </trkpt>
      <trkpt lat="45.75022" lon="-1.21059">
        <ele>81</ele>
        <time>2020-01-26T11:30:07Z</time>
      </trkpt>
      <trkpt lat="45.75021" lon="-1.21054">
        <ele>81</ele>
        <time>2020-01-26T11:30:08Z</time>
      </trkpt>
      <trkpt lat="45.75021" lon="-1.21048">
        <ele>80.8</ele>
        <time>2020-01-26T11:30:09Z</time>
      </trkpt>
      <trkpt lat="45.75021" lon="-1.21042">
        <ele>80.6</ele>
        <time>2020-01-26T11:30:10Z</time>
      </trkpt>
      <trkpt lat="45.75021" lon="-1.21035">
        <ele>80.4</ele>
        <time>2020-01-26T11:30:11Z</time>
      </trkpt>
      <trkpt lat="45.7502" lon="-1.21028">
        <ele>80.6</ele>
        <time>2020-01-26T11:30:12Z</time>
      </trkpt>
      <trkpt lat="45.7502" lon="-1.21022">
        <ele>81</ele>
        <time>2020-01-26T11:30:13Z</time>
      </trkpt>
      <trkpt lat="45.7502" lon="-1.21016">
        <ele>81</ele>
        <time>2020-01-26T11:30:14Z</time>
      </trkpt>
      <trkpt lat="45.7502" lon="-1.21009">
        <ele>80.8</ele>
        <time>2020-01-26T11:30:15Z</time>
      </trkpt>
      <trkpt lat="45.7502" lon="-1.21003">
        <ele>80.4</ele>
        <time>2020-01-26T11:30:16Z</time>
      </trkpt>
      <trkpt lat="45.75019" lon="-1.20996">
        <ele>80.2</ele>
        <time>2020-01-26T11:30:17Z</time>
      </trkpt>
      <trkpt lat="45.75019" lon="-1.2099">
        <ele>79.8</ele>
        <time>2020-01-26T11:30:18Z</time>
      </trkpt>
      <trkpt lat="45.75019" lon="-1.20982">
        <ele>79.8</ele>
        <time>2020-01-26T11:30:19Z</time>
      </trkpt>
      <trkpt lat="45.75019" lon="-1.20975">
        <ele>80</ele>
        <time>2020-01-26T11:30:20Z</time>
      </trkpt>
      <trkpt lat="45.75019" lon="-1.20966">
        <ele>80</ele>
        <time>2020-01-26T11:30:21Z</time>
      </trkpt>
      <trkpt lat="45.75018" lon="-1.20959">
        <ele>80</ele>
        <time>2020-01-26T11:30:22Z</time>
      </trkpt>
      <trkpt lat="45.75018" lon="-1.2095">
        <ele>79.8</ele>
        <time>2020-01-26T11:30:23Z</time>
      </trkpt>
      <trkpt lat="45.75017" lon="-1.20942">
        <ele>79.6</ele>
        <time>2020-01-26T11:30:24Z</time>
      </trkpt>
      <trkpt lat="45.75017" lon="-1.20933">
        <ele>79.4</ele>
        <time>2020-01-26T11:30:25Z</time>
      </trkpt>
      <trkpt lat="45.75017" lon="-1.20925">
        <ele>79.4</ele>
        <time>2020-01-26T11:30:26Z</time>
      </trkpt>
      <trkpt lat="45.75016" lon="-1.20915">
        <ele>79.4</ele>
        <time>2020-01-26T11:30:27Z</time>
      </trkpt>
      <trkpt lat="45.75016" lon="-1.20905">
        <ele>79.6</ele>
        <time>2020-01-26T11:30:28Z</time>
      </trkpt>
      <trkpt lat="45.75017" lon="-1.20897">
        <ele>79.8</ele>
        <time>2020-01-26T11:30:29Z</time>
      </trkpt>
      <trkpt lat="45.75017" lon="-1.2089">
        <ele>80</ele>
        <time>2020-01-26T11:30:30Z</time>
      </trkpt>
      <trkpt lat="45.75017" lon="-1.20883">
        <ele>80.2</ele>
        <time>2020-01-26T11:30:31Z</time>
      </trkpt>
      <trkpt lat="45.75017" lon="-1.20876">
        <ele>80.2</ele>
        <time>2020-01-26T11:30:32Z</time>
      </trkpt>
      <trkpt lat="45.75017" lon="-1.2087">
        <ele>80.4</ele>
        <time>2020-01-26T11:30:33Z</time>
      </trkpt>
      <trkpt lat="45.75017" lon="-1.20864">
        <ele>80.6</ele>
        <time>2020-01-26T11:30:34Z</time>
      </trkpt>
      <trkpt lat="45.75016" lon="-1.20857">
        <ele>80.6</ele>
        <time>2020-01-26T11:30:35Z</time>
      </trkpt>
      <trkpt lat="45.75015" lon="-1.20851">
        <ele>81</ele>
        <time>2020-01-26T11:30:36Z</time>
      </trkpt>
      <trkpt lat="45.75015" lon="-1.20845">
        <ele>81.2</ele>
        <time>2020-01-26T11:30:37Z</time>
      </trkpt>
      <trkpt lat="45.75016" lon="-1.20839">
        <ele>81.2</ele>
        <time>2020-01-26T11:30:38Z</time>
      </trkpt>
      <trkpt lat="45.75015" lon="-1.20832">
        <ele>81.2</ele>
        <time>2020-01-26T11:30:39Z</time>
      </trkpt>
      <trkpt lat="45.75015" lon="-1.20827">
        <ele>80.8</ele>
        <time>2020-01-26T11:30:40Z</time>
      </trkpt>
      <trkpt lat="45.75014" lon="-1.2082">
        <ele>80.6</ele>
        <time>2020-01-26T11:30:41Z</time>
      </trkpt>
      <trkpt lat="45.75015" lon="-1.20815">
        <ele>80.2</ele>
        <time>2020-01-26T11:30:42Z</time>
      </trkpt>
      <trkpt lat="45.75015" lon="-1.20808">
        <ele>79.6</ele>
        <time>2020-01-26T11:30:43Z</time>
      </trkpt>
      <trkpt lat="45.75014" lon="-1.20801">
        <ele>79.6</ele>
        <time>2020-01-26T11:30:44Z</time>
      </trkpt>
      <trkpt lat="45.75014" lon="-1.20795">
        <ele>79.6</ele>
        <time>2020-01-26T11:30:45Z</time>
      </trkpt>
      <trkpt lat="45.75014" lon="-1.20789">
        <ele>79.8</ele>
        <time>2020-01-26T11:30:46Z</time>
      </trkpt>
      <trkpt lat="45.75014" lon="-1.20783">
        <ele>79.8</ele>
        <time>2020-01-26T11:30:47Z</time>
      </trkpt>
      <trkpt lat="45.75014" lon="-1.20777">
        <ele>79.6</ele>
        <time>2020-01-26T11:30:48Z</time>
      </trkpt>
      <trkpt lat="45.75014" lon="-1.20772">
        <ele>79.6</ele>
        <time>2020-01-26T11:30:49Z</time>
      </trkpt>
      <trkpt lat="45.75014" lon="-1.20768">
        <ele>79.2</ele>
        <time>2020-01-26T11:30:50Z</time>
      </trkpt>
      <trkpt lat="45.75014" lon="-1.20764">
        <ele>79.2</ele>
        <time>2020-01-26T11:30:51Z</time>
      </trkpt>
      <trkpt lat="45.75014" lon="-1.20762">
        <ele>79.4</ele>
        <time>2020-01-26T11:30:52Z</time>
      </trkpt>
      <trkpt lat="45.75014" lon="-1.20759">
        <ele>79.8</ele>
        <time>2020-01-26T11:30:53Z</time>
      </trkpt>
      <trkpt lat="45.75014" lon="-1.20755">
        <ele>80</ele>
        <time>2020-01-26T11:30:54Z</time>
      </trkpt>
      <trkpt lat="45.75014" lon="-1.20752">
        <ele>80.4</ele>
        <time>2020-01-26T11:30:55Z</time>
      </trkpt>
      <trkpt lat="45.75014" lon="-1.20748">
        <ele>80.6</ele>
        <time>2020-01-26T11:30:56Z</time>
      </trkpt>
      <trkpt lat="45.75015" lon="-1.20746">
        <ele>80.6</ele>
        <time>2020-01-26T11:30:57Z</time>
      </trkpt>
      <trkpt lat="45.75015" lon="-1.20745">
        <ele>80.8</ele>
        <time>2020-01-26T11:30:58Z</time>
      </trkpt>
      <trkpt lat="45.75016" lon="-1.20745">
        <ele>81.2</ele>
        <time>2020-01-26T11:30:59Z</time>
      </trkpt>
      <trkpt lat="45.75016" lon="-1.20746">
        <ele>81.4</ele>
        <time>2020-01-26T11:31:00Z</time>
      </trkpt>
      <trkpt lat="45.75016" lon="-1.20745">
        <ele>81.2</ele>
        <time>2020-01-26T11:31:01Z</time>
      </trkpt>
      <trkpt lat="45.75016" lon="-1.20745">
        <ele>81.2</ele>
        <time>2020-01-26T11:31:02Z</time>
      </trkpt>
      <trkpt lat="45.75016" lon="-1.20745">
        <ele>80.8</ele>
        <time>2020-01-26T11:31:03Z</time>
      </trkpt>
      <trkpt lat="45.75015" lon="-1.20744">
        <ele>80.8</ele>
        <time>2020-01-26T11:31:04Z</time>
      </trkpt>
      <trkpt lat="45.75014" lon="-1.20744">
        <ele>80.6</ele>
        <time>2020-01-26T11:31:05Z</time>
      </trkpt>
      <trkpt lat="45.75014" lon="-1.20743">
        <ele>80.4</ele>
        <time>2020-01-26T11:31:06Z</time>
      </trkpt>
      <trkpt lat="45.75014" lon="-1.20743">
        <ele>80.4</ele>
        <time>2020-01-26T11:31:07Z</time>
      </trkpt>
      <trkpt lat="45.75014" lon="-1.20743">
        <ele>80.2</ele>
        <time>2020-01-26T11:31:08Z</time>
      </trkpt>
      <trkpt lat="45.75014" lon="-1.20742">
        <ele>80.2</ele>
        <time>2020-01-26T11:31:09Z</time>
      </trkpt>
      <trkpt lat="45.75014" lon="-1.20742">
        <ele>80</ele>
        <time>2020-01-26T11:31:10Z</time>
      </trkpt>
      <trkpt lat="45.75014" lon="-1.20743">
        <ele>79.8</ele>
        <time>2020-01-26T11:31:11Z</time>
      </trkpt>
      <trkpt lat="45.75014" lon="-1.20742">
        <ele>79.6</ele>
        <time>2020-01-26T11:31:12Z</time>
      </trkpt>
      <trkpt lat="45.75014" lon="-1.20742">
        <ele>79.6</ele>
        <time>2020-01-26T11:31:13Z</time>
      </trkpt>
      <trkpt lat="45.75014" lon="-1.20742">
        <ele>79.4</ele>
        <time>2020-01-26T11:31:14Z</time>
      </trkpt>
      <trkpt lat="45.75014" lon="-1.2074">
        <ele>79.2</ele>
        <time>2020-01-26T11:31:15Z</time>
      </trkpt>
      <trkpt lat="45.75015" lon="-1.20737">
        <ele>79</ele>
        <time>2020-01-26T11:31:16Z</time>
      </trkpt>
      <trkpt lat="45.75015" lon="-1.20734">
        <ele>78.6</ele>
        <time>2020-01-26T11:31:17Z</time>
      </trkpt>
      <trkpt lat="45.75014" lon="-1.20731">
        <ele>78.2</ele>
        <time>2020-01-26T11:31:18Z</time>
      </trkpt>
      <trkpt lat="45.75013" lon="-1.20727">
        <ele>77.6</ele>
        <time>2020-01-26T11:31:19Z</time>
      </trkpt>
      <trkpt lat="45.75013" lon="-1.2072">
        <ele>76.6</ele>
        <time>2020-01-26T11:31:20Z</time>
      </trkpt>
      <trkpt lat="45.75013" lon="-1.20714">
        <ele>75.6</ele>
        <time>2020-01-26T11:31:21Z</time>
      </trkpt>
      <trkpt lat="45.75012" lon="-1.20703">
        <ele>74</ele>
        <time>2020-01-26T11:31:22Z</time>
      </trkpt>
      <trkpt lat="45.75011" lon="-1.20691">
        <ele>72.6</ele>
        <time>2020-01-26T11:31:23Z</time>
      </trkpt>
      <trkpt lat="45.75011" lon="-1.20681">
        <ele>72</ele>
        <time>2020-01-26T11:31:24Z</time>
      </trkpt>
      <trkpt lat="45.7501" lon="-1.20673">
        <ele>71.4</ele>
        <time>2020-01-26T11:31:25Z</time>
      </trkpt>
      <trkpt lat="45.7501" lon="-1.20669">
        <ele>71.4</ele>
        <time>2020-01-26T11:31:26Z</time>
      </trkpt>
      <trkpt lat="45.75009" lon="-1.20665">
        <ele>71.2</ele>
        <time>2020-01-26T11:31:27Z</time>
      </trkpt>
      <trkpt lat="45.7501" lon="-1.20664">
        <ele>71.2</ele>
        <time>2020-01-26T11:31:28Z</time>
      </trkpt>
      <trkpt lat="45.7501" lon="-1.20664">
        <ele>71.2</ele>
        <time>2020-01-26T11:31:29Z</time>
      </trkpt>
      <trkpt lat="45.75009" lon="-1.20664">
        <ele>71.2</ele>
        <time>2020-01-26T11:31:30Z</time>
      </trkpt>
      <trkpt lat="45.75009" lon="-1.20664">
        <ele>71</ele>
        <time>2020-01-26T11:31:31Z</time>
      </trkpt>
      <trkpt lat="45.75009" lon="-1.20664">
        <ele>71</ele>
        <time>2020-01-26T11:31:32Z</time>
      </trkpt>
      <trkpt lat="45.75009" lon="-1.20664">
        <ele>71</ele>
        <time>2020-01-26T11:31:33Z</time>
      </trkpt>
      <trkpt lat="45.75009" lon="-1.20665">
        <ele>70.8</ele>
        <time>2020-01-26T11:31:34Z</time>
      </trkpt>
      <trkpt lat="45.75008" lon="-1.20665">
        <ele>70.8</ele>
        <time>2020-01-26T11:31:35Z</time>
      </trkpt>
      <trkpt lat="45.75009" lon="-1.20665">
        <ele>70.8</ele>
        <time>2020-01-26T11:31:36Z</time>
      </trkpt>
      <trkpt lat="45.75009" lon="-1.20665">
        <ele>70.6</ele>
        <time>2020-01-26T11:31:37Z</time>
      </trkpt>
      <trkpt lat="45.75009" lon="-1.20665">
        <ele>70.8</ele>
        <time>2020-01-26T11:31:38Z</time>
      </trkpt>
      <trkpt lat="45.75009" lon="-1.20665">
        <ele>70.8</ele>
        <time>2020-01-26T11:31:39Z</time>
      </trkpt>
      <trkpt lat="45.75009" lon="-1.20665">
        <ele>70.8</ele>
        <time>2020-01-26T11:31:40Z</time>
      </trkpt>
      <trkpt lat="45.7501" lon="-1.20665">
        <ele>70.8</ele>
        <time>2020-01-26T11:31:41Z</time>
      </trkpt>
      <trkpt lat="45.7501" lon="-1.20664">
        <ele>71</ele>
        <time>2020-01-26T11:31:42Z</time>
      </trkpt>
      <trkpt lat="45.7501" lon="-1.20664">
        <ele>71.2</ele>
        <time>2020-01-26T11:31:43Z</time>
      </trkpt>
      <trkpt lat="45.7501" lon="-1.20664">
        <ele>71.4</ele>
        <time>2020-01-26T11:31:44Z</time>
      </trkpt>
      <trkpt lat="45.7501" lon="-1.20664">
        <ele>71.2</ele>
        <time>2020-01-26T11:31:45Z</time>
      </trkpt>
      <trkpt lat="45.7501" lon="-1.20663">
        <ele>71.2</ele>
        <time>2020-01-26T11:31:46Z</time>
      </trkpt>
      <trkpt lat="45.7501" lon="-1.20661">
        <ele>71.2</ele>
        <time>2020-01-26T11:31:47Z</time>
      </trkpt>
      <trkpt lat="45.7501" lon="-1.20657">
        <ele>70.8</ele>
        <time>2020-01-26T11:31:48Z</time>
      </trkpt>
      <trkpt lat="45.7501" lon="-1.20654">
        <ele>71</ele>
        <time>2020-01-26T11:31:49Z</time>
      </trkpt>
      <trkpt lat="45.75008" lon="-1.2065">
        <ele>71</ele>
        <time>2020-01-26T11:31:50Z</time>
      </trkpt>
      <trkpt lat="45.75009" lon="-1.20647">
        <ele>71</ele>
        <time>2020-01-26T11:31:51Z</time>
      </trkpt>
      <trkpt lat="45.75009" lon="-1.20644">
        <ele>71</ele>
        <time>2020-01-26T11:31:52Z</time>
      </trkpt>
      <trkpt lat="45.75009" lon="-1.20642">
        <ele>71</ele>
        <time>2020-01-26T11:31:53Z</time>
      </trkpt>
      <trkpt lat="45.75009" lon="-1.20639">
        <ele>71</ele>
        <time>2020-01-26T11:31:54Z</time>
      </trkpt>
      <trkpt lat="45.75009" lon="-1.20635">
        <ele>70.6</ele>
        <time>2020-01-26T11:31:55Z</time>
      </trkpt>
      <trkpt lat="45.7501" lon="-1.20631">
        <ele>70.2</ele>
        <time>2020-01-26T11:31:56Z</time>
      </trkpt>
      <trkpt lat="45.7501" lon="-1.20624">
        <ele>69.8</ele>
        <time>2020-01-26T11:31:57Z</time>
      </trkpt>
      <trkpt lat="45.7501" lon="-1.20617">
        <ele>69.2</ele>
        <time>2020-01-26T11:31:58Z</time>
      </trkpt>
      <trkpt lat="45.75011" lon="-1.20611">
        <ele>69</ele>
        <time>2020-01-26T11:31:59Z</time>
      </trkpt>
      <trkpt lat="45.75009" lon="-1.20607">
        <ele>68.4</ele>
        <time>2020-01-26T11:32:00Z</time>
      </trkpt>
      <trkpt lat="45.75006" lon="-1.20606">
        <ele>68.4</ele>
        <time>2020-01-26T11:32:01Z</time>
      </trkpt>
      <trkpt lat="45.75002" lon="-1.20605">
        <ele>68.2</ele>
        <time>2020-01-26T11:32:02Z</time>
      </trkpt>
      <trkpt lat="45.74998" lon="-1.20605">
        <ele>68</ele>
        <time>2020-01-26T11:32:03Z</time>
      </trkpt>
      <trkpt lat="45.74994" lon="-1.20604">
        <ele>67.4</ele>
        <time>2020-01-26T11:32:04Z</time>
      </trkpt>
      <trkpt lat="45.7499" lon="-1.20603">
        <ele>67.2</ele>
        <time>2020-01-26T11:32:05Z</time>
      </trkpt>
      <trkpt lat="45.74985" lon="-1.20605">
        <ele>67.4</ele>
        <time>2020-01-26T11:32:06Z</time>
      </trkpt>
      <trkpt lat="45.7498" lon="-1.20605">
        <ele>67.2</ele>
        <time>2020-01-26T11:32:07Z</time>
      </trkpt>
      <trkpt lat="45.74976" lon="-1.20604">
        <ele>67.2</ele>
        <time>2020-01-26T11:32:08Z</time>
      </trkpt>
      <trkpt lat="45.74971" lon="-1.20604">
        <ele>67.2</ele>
        <time>2020-01-26T11:32:09Z</time>
      </trkpt>
      <trkpt lat="45.74968" lon="-1.20603">
        <ele>66.8</ele>
        <time>2020-01-26T11:32:10Z</time>
      </trkpt>
      <trkpt lat="45.74963" lon="-1.20604">
        <ele>66.8</ele>
        <time>2020-01-26T11:32:11Z</time>
      </trkpt>
      <trkpt lat="45.74958" lon="-1.20604">
        <ele>67</ele>
        <time>2020-01-26T11:32:12Z</time>
      </trkpt>
      <trkpt lat="45.74954" lon="-1.20604">
        <ele>67</ele>
        <time>2020-01-26T11:32:13Z</time>
      </trkpt>
      <trkpt lat="45.7495" lon="-1.20603">
        <ele>66.6</ele>
        <time>2020-01-26T11:32:14Z</time>
      </trkpt>
      <trkpt lat="45.74946" lon="-1.20603">
        <ele>66.6</ele>
        <time>2020-01-26T11:32:15Z</time>
      </trkpt>
      <trkpt lat="45.74942" lon="-1.20604">
        <ele>66.2</ele>
        <time>2020-01-26T11:32:16Z</time>
      </trkpt>
      <trkpt lat="45.74938" lon="-1.20603">
        <ele>65.8</ele>
        <time>2020-01-26T11:32:17Z</time>
      </trkpt>
      <trkpt lat="45.74934" lon="-1.20603">
        <ele>65.6</ele>
        <time>2020-01-26T11:32:18Z</time>
      </trkpt>
      <trkpt lat="45.7493" lon="-1.20602">
        <ele>65.2</ele>
        <time>2020-01-26T11:32:19Z</time>
      </trkpt>
      <trkpt lat="45.74926" lon="-1.20602">
        <ele>64.8</ele>
        <time>2020-01-26T11:32:20Z</time>
      </trkpt>
      <trkpt lat="45.74921" lon="-1.20601">
        <ele>64.4</ele>
        <time>2020-01-26T11:32:21Z</time>
      </trkpt>
      <trkpt lat="45.74916" lon="-1.206">
        <ele>64</ele>
        <time>2020-01-26T11:32:22Z</time>
      </trkpt>
      <trkpt lat="45.74912" lon="-1.20599">
        <ele>63.8</ele>
        <time>2020-01-26T11:32:23Z</time>
      </trkpt>
      <trkpt lat="45.74908" lon="-1.20599">
        <ele>63.8</ele>
        <time>2020-01-26T11:32:24Z</time>
      </trkpt>
      <trkpt lat="45.74903" lon="-1.20599">
        <ele>63.8</ele>
        <time>2020-01-26T11:32:25Z</time>
      </trkpt>
      <trkpt lat="45.749" lon="-1.20598">
        <ele>64</ele>
        <time>2020-01-26T11:32:26Z</time>
      </trkpt>
      <trkpt lat="45.74895" lon="-1.20597">
        <ele>64.2</ele>
        <time>2020-01-26T11:32:27Z</time>
      </trkpt>
      <trkpt lat="45.74892" lon="-1.20597">
        <ele>64.2</ele>
        <time>2020-01-26T11:32:28Z</time>
      </trkpt>
      <trkpt lat="45.74887" lon="-1.20597">
        <ele>64.4</ele>
        <time>2020-01-26T11:32:29Z</time>
      </trkpt>
      <trkpt lat="45.74883" lon="-1.20598">
        <ele>64.6</ele>
        <time>2020-01-26T11:32:30Z</time>
      </trkpt>
      <trkpt lat="45.74879" lon="-1.20599">
        <ele>64.6</ele>
        <time>2020-01-26T11:32:31Z</time>
      </trkpt>
      <trkpt lat="45.74875" lon="-1.20599">
        <ele>64.4</ele>
        <time>2020-01-26T11:32:32Z</time>
      </trkpt>
      <trkpt lat="45.74871" lon="-1.206">
        <ele>64.4</ele>
        <time>2020-01-26T11:32:33Z</time>
      </trkpt>
      <trkpt lat="45.74868" lon="-1.20601">
        <ele>64.2</ele>
        <time>2020-01-26T11:32:34Z</time>
      </trkpt>
      <trkpt lat="45.74864" lon="-1.20602">
        <ele>64.4</ele>
        <time>2020-01-26T11:32:35Z</time>
      </trkpt>
      <trkpt lat="45.74861" lon="-1.20604">
        <ele>64.8</ele>
        <time>2020-01-26T11:32:36Z</time>
      </trkpt>
      <trkpt lat="45.74858" lon="-1.20606">
        <ele>65.2</ele>
        <time>2020-01-26T11:32:37Z</time>
      </trkpt>
      <trkpt lat="45.74855" lon="-1.20608">
        <ele>65.4</ele>
        <time>2020-01-26T11:32:38Z</time>
      </trkpt>
      <trkpt lat="45.74852" lon="-1.2061">
        <ele>65.6</ele>
        <time>2020-01-26T11:32:39Z</time>
      </trkpt>
      <trkpt lat="45.74848" lon="-1.20612">
        <ele>65.6</ele>
        <time>2020-01-26T11:32:40Z</time>
      </trkpt>
      <trkpt lat="45.74844" lon="-1.20613">
        <ele>65.4</ele>
        <time>2020-01-26T11:32:41Z</time>
      </trkpt>
      <trkpt lat="45.74841" lon="-1.20615">
        <ele>65.6</ele>
        <time>2020-01-26T11:32:42Z</time>
      </trkpt>
      <trkpt lat="45.74836" lon="-1.20615">
        <ele>65.4</ele>
        <time>2020-01-26T11:32:43Z</time>
      </trkpt>
      <trkpt lat="45.74832" lon="-1.20614">
        <ele>65.4</ele>
        <time>2020-01-26T11:32:44Z</time>
      </trkpt>
      <trkpt lat="45.74828" lon="-1.20614">
        <ele>65.2</ele>
        <time>2020-01-26T11:32:45Z</time>
      </trkpt>
      <trkpt lat="45.74824" lon="-1.20613">
        <ele>65.2</ele>
        <time>2020-01-26T11:32:46Z</time>
      </trkpt>
      <trkpt lat="45.7482" lon="-1.20611">
        <ele>65.2</ele>
        <time>2020-01-26T11:32:47Z</time>
      </trkpt>
      <trkpt lat="45.74815" lon="-1.2061">
        <ele>65.4</ele>
        <time>2020-01-26T11:32:48Z</time>
      </trkpt>
      <trkpt lat="45.74812" lon="-1.20609">
        <ele>65.6</ele>
        <time>2020-01-26T11:32:49Z</time>
      </trkpt>
      <trkpt lat="45.74808" lon="-1.20607">
        <ele>65.4</ele>
        <time>2020-01-26T11:32:50Z</time>
      </trkpt>
      <trkpt lat="45.74804" lon="-1.20605">
        <ele>65.2</ele>
        <time>2020-01-26T11:32:51Z</time>
      </trkpt>
      <trkpt lat="45.748" lon="-1.20603">
        <ele>65.2</ele>
        <time>2020-01-26T11:32:52Z</time>
      </trkpt>
      <trkpt lat="45.74796" lon="-1.206">
        <ele>65.2</ele>
        <time>2020-01-26T11:32:53Z</time>
      </trkpt>
      <trkpt lat="45.74793" lon="-1.20598">
        <ele>65.2</ele>
        <time>2020-01-26T11:32:54Z</time>
      </trkpt>
      <trkpt lat="45.74789" lon="-1.20596">
        <ele>65</ele>
        <time>2020-01-26T11:32:55Z</time>
      </trkpt>
      <trkpt lat="45.74785" lon="-1.20595">
        <ele>65</ele>
        <time>2020-01-26T11:32:56Z</time>
      </trkpt>
      <trkpt lat="45.74782" lon="-1.20594">
        <ele>65</ele>
        <time>2020-01-26T11:32:57Z</time>
      </trkpt>
      <trkpt lat="45.74778" lon="-1.20593">
        <ele>65</ele>
        <time>2020-01-26T11:32:58Z</time>
      </trkpt>
      <trkpt lat="45.74773" lon="-1.20592">
        <ele>64.8</ele>
        <time>2020-01-26T11:32:59Z</time>
      </trkpt>
      <trkpt lat="45.74769" lon="-1.20591">
        <ele>64.8</ele>
        <time>2020-01-26T11:33:00Z</time>
      </trkpt>
      <trkpt lat="45.74763" lon="-1.2059">
        <ele>64.6</ele>
        <time>2020-01-26T11:33:01Z</time>
      </trkpt>
      <trkpt lat="45.74759" lon="-1.20589">
        <ele>64.2</ele>
        <time>2020-01-26T11:33:02Z</time>
      </trkpt>
      <trkpt lat="45.74753" lon="-1.20587">
        <ele>63.6</ele>
        <time>2020-01-26T11:33:03Z</time>
      </trkpt>
      <trkpt lat="45.74748" lon="-1.20583">
        <ele>63</ele>
        <time>2020-01-26T11:33:04Z</time>
      </trkpt>
      <trkpt lat="45.74743" lon="-1.2058">
        <ele>62.4</ele>
        <time>2020-01-26T11:33:05Z</time>
      </trkpt>
      <trkpt lat="45.74737" lon="-1.20574">
        <ele>62.2</ele>
        <time>2020-01-26T11:33:06Z</time>
      </trkpt>
      <trkpt lat="45.74733" lon="-1.20569">
        <ele>61.8</ele>
        <time>2020-01-26T11:33:07Z</time>
      </trkpt>
      <trkpt lat="45.74729" lon="-1.20566">
        <ele>61.6</ele>
        <time>2020-01-26T11:33:08Z</time>
      </trkpt>
      <trkpt lat="45.74724" lon="-1.20563">
        <ele>61.4</ele>
        <time>2020-01-26T11:33:09Z</time>
      </trkpt>
      <trkpt lat="45.74719" lon="-1.20561">
        <ele>61.4</ele>
        <time>2020-01-26T11:33:10Z</time>
      </trkpt>
      <trkpt lat="45.74714" lon="-1.20558">
        <ele>61.2</ele>
        <time>2020-01-26T11:33:11Z</time>
      </trkpt>
      <trkpt lat="45.7471" lon="-1.20556">
        <ele>61.2</ele>
        <time>2020-01-26T11:33:12Z</time>
      </trkpt>
      <trkpt lat="45.74705" lon="-1.20554">
        <ele>61.2</ele>
        <time>2020-01-26T11:33:13Z</time>
      </trkpt>
      <trkpt lat="45.74701" lon="-1.20553">
        <ele>61.6</ele>
        <time>2020-01-26T11:33:14Z</time>
      </trkpt>
      <trkpt lat="45.74697" lon="-1.20551">
        <ele>62</ele>
        <time>2020-01-26T11:33:15Z</time>
      </trkpt>
      <trkpt lat="45.74693" lon="-1.2055">
        <ele>62.4</ele>
        <time>2020-01-26T11:33:16Z</time>
      </trkpt>
      <trkpt lat="45.74689" lon="-1.20548">
        <ele>62.8</ele>
        <time>2020-01-26T11:33:17Z</time>
      </trkpt>
      <trkpt lat="45.74685" lon="-1.20547">
        <ele>63.2</ele>
        <time>2020-01-26T11:33:18Z</time>
      </trkpt>
      <trkpt lat="45.74681" lon="-1.20546">
        <ele>63.4</ele>
        <time>2020-01-26T11:33:19Z</time>
      </trkpt>
      <trkpt lat="45.74677" lon="-1.20544">
        <ele>63.8</ele>
        <time>2020-01-26T11:33:20Z</time>
      </trkpt>
      <trkpt lat="45.74673" lon="-1.20544">
        <ele>64.2</ele>
        <time>2020-01-26T11:33:21Z</time>
      </trkpt>
      <trkpt lat="45.74669" lon="-1.20544">
        <ele>64.6</ele>
        <time>2020-01-26T11:33:22Z</time>
      </trkpt>
      <trkpt lat="45.74666" lon="-1.20543">
        <ele>65</ele>
        <time>2020-01-26T11:33:23Z</time>
      </trkpt>
      <trkpt lat="45.74662" lon="-1.20543">
        <ele>65.4</ele>
        <time>2020-01-26T11:33:24Z</time>
      </trkpt>
      <trkpt lat="45.74659" lon="-1.20542">
        <ele>65.8</ele>
        <time>2020-01-26T11:33:25Z</time>
      </trkpt>
      <trkpt lat="45.74657" lon="-1.20541">
        <ele>66.2</ele>
        <time>2020-01-26T11:33:26Z</time>
      </trkpt>
      <trkpt lat="45.74654" lon="-1.2054">
        <ele>66.6</ele>
        <time>2020-01-26T11:33:27Z</time>
      </trkpt>
      <trkpt lat="45.74651" lon="-1.20539">
        <ele>67</ele>
        <time>2020-01-26T11:33:28Z</time>
      </trkpt>
      <trkpt lat="45.74649" lon="-1.20541">
        <ele>67.2</ele>
        <time>2020-01-26T11:33:29Z</time>
      </trkpt>
      <trkpt lat="45.74648" lon="-1.20545">
        <ele>67.4</ele>
        <time>2020-01-26T11:33:30Z</time>
      </trkpt>
      <trkpt lat="45.74648" lon="-1.20549">
        <ele>67.6</ele>
        <time>2020-01-26T11:33:31Z</time>
      </trkpt>
      <trkpt lat="45.74648" lon="-1.20552">
        <ele>67.6</ele>
        <time>2020-01-26T11:33:32Z</time>
      </trkpt>
      <trkpt lat="45.74649" lon="-1.20556">
        <ele>67.8</ele>
        <time>2020-01-26T11:33:33Z</time>
      </trkpt>
      <trkpt lat="45.74648" lon="-1.20559">
        <ele>68</ele>
        <time>2020-01-26T11:33:34Z</time>
      </trkpt>
      <trkpt lat="45.74649" lon="-1.20561">
        <ele>68.2</ele>
        <time>2020-01-26T11:33:35Z</time>
      </trkpt>
      <trkpt lat="45.74649" lon="-1.20564">
        <ele>68.2</ele>
        <time>2020-01-26T11:33:36Z</time>
      </trkpt>
      <trkpt lat="45.74649" lon="-1.20567">
        <ele>68.2</ele>
        <time>2020-01-26T11:33:37Z</time>
      </trkpt>
      <trkpt lat="45.74649" lon="-1.20569">
        <ele>68.2</ele>
        <time>2020-01-26T11:33:38Z</time>
      </trkpt>
      <trkpt lat="45.74649" lon="-1.20572">
        <ele>68.2</ele>
        <time>2020-01-26T11:33:39Z</time>
      </trkpt>
      <trkpt lat="45.74649" lon="-1.20575">
        <ele>68.4</ele>
        <time>2020-01-26T11:33:40Z</time>
      </trkpt>
      <trkpt lat="45.74649" lon="-1.20577">
        <ele>68.4</ele>
        <time>2020-01-26T11:33:41Z</time>
      </trkpt>
      <trkpt lat="45.7465" lon="-1.20579">
        <ele>68.4</ele>
        <time>2020-01-26T11:33:42Z</time>
      </trkpt>
      <trkpt lat="45.74651" lon="-1.20581">
        <ele>68.6</ele>
        <time>2020-01-26T11:33:43Z</time>
      </trkpt>
      <trkpt lat="45.74651" lon="-1.20584">
        <ele>68.6</ele>
        <time>2020-01-26T11:33:44Z</time>
      </trkpt>
      <trkpt lat="45.74651" lon="-1.20586">
        <ele>68.8</ele>
        <time>2020-01-26T11:33:45Z</time>
      </trkpt>
      <trkpt lat="45.74651" lon="-1.20589">
        <ele>68.8</ele>
        <time>2020-01-26T11:33:46Z</time>
      </trkpt>
      <trkpt lat="45.74651" lon="-1.20592">
        <ele>68.6</ele>
        <time>2020-01-26T11:33:47Z</time>
      </trkpt>
      <trkpt lat="45.74651" lon="-1.20596">
        <ele>68.4</ele>
        <time>2020-01-26T11:33:48Z</time>
      </trkpt>
      <trkpt lat="45.74651" lon="-1.206">
        <ele>68.4</ele>
        <time>2020-01-26T11:33:49Z</time>
      </trkpt>
      <trkpt lat="45.74651" lon="-1.20604">
        <ele>68.2</ele>
        <time>2020-01-26T11:33:50Z</time>
      </trkpt>
      <trkpt lat="45.74651" lon="-1.20608">
        <ele>68.2</ele>
        <time>2020-01-26T11:33:51Z</time>
      </trkpt>
      <trkpt lat="45.74652" lon="-1.20611">
        <ele>68.2</ele>
        <time>2020-01-26T11:33:52Z</time>
      </trkpt>
      <trkpt lat="45.74652" lon="-1.20614">
        <ele>68.2</ele>
        <time>2020-01-26T11:33:53Z</time>
      </trkpt>
      <trkpt lat="45.74652" lon="-1.20617">
        <ele>68</ele>
        <time>2020-01-26T11:33:54Z</time>
      </trkpt>
      <trkpt lat="45.74652" lon="-1.2062">
        <ele>68</ele>
        <time>2020-01-26T11:33:55Z</time>
      </trkpt>
      <trkpt lat="45.74652" lon="-1.20623">
        <ele>68.4</ele>
        <time>2020-01-26T11:33:56Z</time>
      </trkpt>
      <trkpt lat="45.74652" lon="-1.20626">
        <ele>68.4</ele>
        <time>2020-01-26T11:33:57Z</time>
      </trkpt>
      <trkpt lat="45.74652" lon="-1.20629">
        <ele>68.6</ele>
        <time>2020-01-26T11:33:58Z</time>
      </trkpt>
      <trkpt lat="45.74652" lon="-1.20631">
        <ele>68.8</ele>
        <time>2020-01-26T11:33:59Z</time>
      </trkpt>
      <trkpt lat="45.74652" lon="-1.20634">
        <ele>69</ele>
        <time>2020-01-26T11:34:00Z</time>
      </trkpt>
      <trkpt lat="45.74651" lon="-1.20636">
        <ele>69.2</ele>
        <time>2020-01-26T11:34:01Z</time>
      </trkpt>
      <trkpt lat="45.74651" lon="-1.20639">
        <ele>69.4</ele>
        <time>2020-01-26T11:34:02Z</time>
      </trkpt>
      <trkpt lat="45.74651" lon="-1.20641">
        <ele>69.8</ele>
        <time>2020-01-26T11:34:03Z</time>
      </trkpt>
      <trkpt lat="45.74651" lon="-1.20643">
        <ele>70.2</ele>
        <time>2020-01-26T11:34:04Z</time>
      </trkpt>
      <trkpt lat="45.74651" lon="-1.20646">
        <ele>70.4</ele>
        <time>2020-01-26T11:34:05Z</time>
      </trkpt>
      <trkpt lat="45.74651" lon="-1.20648">
        <ele>70.8</ele>
        <time>2020-01-26T11:34:06Z</time>
      </trkpt>
      <trkpt lat="45.74651" lon="-1.20651">
        <ele>71</ele>
        <time>2020-01-26T11:34:07Z</time>
      </trkpt>
      <trkpt lat="45.74651" lon="-1.20653">
        <ele>71.4</ele>
        <time>2020-01-26T11:34:08Z</time>
      </trkpt>
      <trkpt lat="45.74651" lon="-1.20656">
        <ele>71.4</ele>
        <time>2020-01-26T11:34:09Z</time>
      </trkpt>
      <trkpt lat="45.74652" lon="-1.20658">
        <ele>71.6</ele>
        <time>2020-01-26T11:34:10Z</time>
      </trkpt>
      <trkpt lat="45.74652" lon="-1.20661">
        <ele>71.8</ele>
        <time>2020-01-26T11:34:11Z</time>
      </trkpt>
      <trkpt lat="45.74652" lon="-1.20663">
        <ele>71.8</ele>
        <time>2020-01-26T11:34:12Z</time>
      </trkpt>
      <trkpt lat="45.74652" lon="-1.20666">
        <ele>71.8</ele>
        <time>2020-01-26T11:34:13Z</time>
      </trkpt>
      <trkpt lat="45.74652" lon="-1.2067">
        <ele>72.2</ele>
        <time>2020-01-26T11:34:14Z</time>
      </trkpt>
      <trkpt lat="45.74652" lon="-1.20673">
        <ele>72</ele>
        <time>2020-01-26T11:34:15Z</time>
      </trkpt>
      <trkpt lat="45.74652" lon="-1.20676">
        <ele>72</ele>
        <time>2020-01-26T11:34:16Z</time>
      </trkpt>
      <trkpt lat="45.74652" lon="-1.20679">
        <ele>72</ele>
        <time>2020-01-26T11:34:17Z</time>
      </trkpt>
      <trkpt lat="45.74652" lon="-1.20681">
        <ele>72.4</ele>
        <time>2020-01-26T11:34:18Z</time>
      </trkpt>
      <trkpt lat="45.74652" lon="-1.20684">
        <ele>72.4</ele>
        <time>2020-01-26T11:34:19Z</time>
      </trkpt>
      <trkpt lat="45.74653" lon="-1.20687">
        <ele>72.6</ele>
        <time>2020-01-26T11:34:20Z</time>
      </trkpt>
      <trkpt lat="45.74653" lon="-1.2069">
        <ele>72.8</ele>
        <time>2020-01-26T11:34:21Z</time>
      </trkpt>
      <trkpt lat="45.74652" lon="-1.20693">
        <ele>73</ele>
        <time>2020-01-26T11:34:22Z</time>
      </trkpt>
      <trkpt lat="45.74652" lon="-1.20696">
        <ele>73.2</ele>
        <time>2020-01-26T11:34:23Z</time>
      </trkpt>
      <trkpt lat="45.74653" lon="-1.20698">
        <ele>73.4</ele>
        <time>2020-01-26T11:34:24Z</time>
      </trkpt>
      <trkpt lat="45.74653" lon="-1.20701">
        <ele>73.6</ele>
        <time>2020-01-26T11:34:25Z</time>
      </trkpt>
      <trkpt lat="45.74653" lon="-1.20703">
        <ele>73.6</ele>
        <time>2020-01-26T11:34:26Z</time>
      </trkpt>
      <trkpt lat="45.74653" lon="-1.20706">
        <ele>73.8</ele>
        <time>2020-01-26T11:34:27Z</time>
      </trkpt>
      <trkpt lat="45.74653" lon="-1.20708">
        <ele>74</ele>
        <time>2020-01-26T11:34:28Z</time>
      </trkpt>
      <trkpt lat="45.74653" lon="-1.2071">
        <ele>74.4</ele>
        <time>2020-01-26T11:34:29Z</time>
      </trkpt>
      <trkpt lat="45.74652" lon="-1.20712">
        <ele>74.4</ele>
        <time>2020-01-26T11:34:30Z</time>
      </trkpt>
      <trkpt lat="45.74652" lon="-1.20714">
        <ele>74.8</ele>
        <time>2020-01-26T11:34:31Z</time>
      </trkpt>
      <trkpt lat="45.74653" lon="-1.20716">
        <ele>75.2</ele>
        <time>2020-01-26T11:34:32Z</time>
      </trkpt>
      <trkpt lat="45.74653" lon="-1.20718">
        <ele>75.4</ele>
        <time>2020-01-26T11:34:33Z</time>
      </trkpt>
      <trkpt lat="45.74653" lon="-1.20719">
        <ele>75.6</ele>
        <time>2020-01-26T11:34:34Z</time>
      </trkpt>
      <trkpt lat="45.74654" lon="-1.20721">
        <ele>76</ele>
        <time>2020-01-26T11:34:35Z</time>
      </trkpt>
      <trkpt lat="45.74654" lon="-1.20723">
        <ele>76.2</ele>
        <time>2020-01-26T11:34:36Z</time>
      </trkpt>
      <trkpt lat="45.74654" lon="-1.20725">
        <ele>76.4</ele>
        <time>2020-01-26T11:34:37Z</time>
      </trkpt>
      <trkpt lat="45.74654" lon="-1.20727">
        <ele>76.6</ele>
        <time>2020-01-26T11:34:38Z</time>
      </trkpt>
      <trkpt lat="45.74654" lon="-1.20729">
        <ele>76.6</ele>
        <time>2020-01-26T11:34:39Z</time>
      </trkpt>
      <trkpt lat="45.74654" lon="-1.20732">
        <ele>77</ele>
        <time>2020-01-26T11:34:40Z</time>
      </trkpt>
      <trkpt lat="45.74654" lon="-1.20734">
        <ele>77.2</ele>
        <time>2020-01-26T11:34:41Z</time>
      </trkpt>
      <trkpt lat="45.74654" lon="-1.20736">
        <ele>77.4</ele>
        <time>2020-01-26T11:34:42Z</time>
      </trkpt>
      <trkpt lat="45.74654" lon="-1.20738">
        <ele>77.8</ele>
        <time>2020-01-26T11:34:43Z</time>
      </trkpt>
      <trkpt lat="45.74654" lon="-1.2074">
        <ele>78.2</ele>
        <time>2020-01-26T11:34:44Z</time>
      </trkpt>
      <trkpt lat="45.74654" lon="-1.20742">
        <ele>78.4</ele>
        <time>2020-01-26T11:34:45Z</time>
      </trkpt>
      <trkpt lat="45.74654" lon="-1.20744">
        <ele>78.6</ele>
        <time>2020-01-26T11:34:46Z</time>
      </trkpt>
      <trkpt lat="45.74653" lon="-1.20746">
        <ele>79</ele>
        <time>2020-01-26T11:34:47Z</time>
      </trkpt>
      <trkpt lat="45.74654" lon="-1.20747">
        <ele>79.2</ele>
        <time>2020-01-26T11:34:48Z</time>
      </trkpt>
      <trkpt lat="45.74654" lon="-1.20749">
        <ele>79.6</ele>
        <time>2020-01-26T11:34:49Z</time>
      </trkpt>
      <trkpt lat="45.74654" lon="-1.20751">
        <ele>80</ele>
        <time>2020-01-26T11:34:50Z</time>
      </trkpt>
      <trkpt lat="45.74654" lon="-1.20753">
        <ele>80.2</ele>
        <time>2020-01-26T11:34:51Z</time>
      </trkpt>
      <trkpt lat="45.74654" lon="-1.20755">
        <ele>80.4</ele>
        <time>2020-01-26T11:34:52Z</time>
      </trkpt>
      <trkpt lat="45.74654" lon="-1.20757">
        <ele>80.8</ele>
        <time>2020-01-26T11:34:53Z</time>
      </trkpt>
      <trkpt lat="45.74654" lon="-1.20759">
        <ele>81.2</ele>
        <time>2020-01-26T11:34:54Z</time>
      </trkpt>
      <trkpt lat="45.74654" lon="-1.20761">
        <ele>81.4</ele>
        <time>2020-01-26T11:34:55Z</time>
      </trkpt>
      <trkpt lat="45.74654" lon="-1.20762">
        <ele>81.6</ele>
        <time>2020-01-26T11:34:56Z</time>
      </trkpt>
      <trkpt lat="45.74654" lon="-1.20764">
        <ele>81.6</ele>
        <time>2020-01-26T11:34:57Z</time>
      </trkpt>
      <trkpt lat="45.74654" lon="-1.20766">
        <ele>82</ele>
        <time>2020-01-26T11:34:58Z</time>
      </trkpt>
      <trkpt lat="45.74654" lon="-1.20768">
        <ele>82.2</ele>
        <time>2020-01-26T11:34:59Z</time>
      </trkpt>
      <trkpt lat="45.74654" lon="-1.20771">
        <ele>82.4</ele>
        <time>2020-01-26T11:35:00Z</time>
      </trkpt>
      <trkpt lat="45.74654" lon="-1.20773">
        <ele>82.4</ele>
        <time>2020-01-26T11:35:01Z</time>
      </trkpt>
      <trkpt lat="45.74654" lon="-1.20775">
        <ele>82.2</ele>
        <time>2020-01-26T11:35:02Z</time>
      </trkpt>
      <trkpt lat="45.74654" lon="-1.20779">
        <ele>82.2</ele>
        <time>2020-01-26T11:35:03Z</time>
      </trkpt>
      <trkpt lat="45.74655" lon="-1.20781">
        <ele>82.2</ele>
        <time>2020-01-26T11:35:04Z</time>
      </trkpt>
      <trkpt lat="45.74655" lon="-1.20783">
        <ele>82</ele>
        <time>2020-01-26T11:35:05Z</time>
      </trkpt>
      <trkpt lat="45.74655" lon="-1.20785">
        <ele>82</ele>
        <time>2020-01-26T11:35:06Z</time>
      </trkpt>
      <trkpt lat="45.74655" lon="-1.20788">
        <ele>82.4</ele>
        <time>2020-01-26T11:35:07Z</time>
      </trkpt>
      <trkpt lat="45.74655" lon="-1.20791">
        <ele>82.4</ele>
        <time>2020-01-26T11:35:08Z</time>
      </trkpt>
      <trkpt lat="45.74655" lon="-1.20794">
        <ele>82.6</ele>
        <time>2020-01-26T11:35:09Z</time>
      </trkpt>
      <trkpt lat="45.74655" lon="-1.20796">
        <ele>82.8</ele>
        <time>2020-01-26T11:35:10Z</time>
      </trkpt>
      <trkpt lat="45.74655" lon="-1.20799">
        <ele>82.8</ele>
        <time>2020-01-26T11:35:11Z</time>
      </trkpt>
      <trkpt lat="45.74656" lon="-1.20801">
        <ele>82.8</ele>
        <time>2020-01-26T11:35:12Z</time>
      </trkpt>
      <trkpt lat="45.74656" lon="-1.20803">
        <ele>82.8</ele>
        <time>2020-01-26T11:35:13Z</time>
      </trkpt>
      <trkpt lat="45.74656" lon="-1.20806">
        <ele>83</ele>
        <time>2020-01-26T11:35:14Z</time>
      </trkpt>
      <trkpt lat="45.74656" lon="-1.20807">
        <ele>83</ele>
        <time>2020-01-26T11:35:15Z</time>
      </trkpt>
      <trkpt lat="45.74656" lon="-1.2081">
        <ele>83</ele>
        <time>2020-01-26T11:35:16Z</time>
      </trkpt>
      <trkpt lat="45.74657" lon="-1.20812">
        <ele>83.2</ele>
        <time>2020-01-26T11:35:17Z</time>
      </trkpt>
      <trkpt lat="45.74657" lon="-1.20815">
        <ele>83.4</ele>
        <time>2020-01-26T11:35:18Z</time>
      </trkpt>
      <trkpt lat="45.74656" lon="-1.20818">
        <ele>83.2</ele>
        <time>2020-01-26T11:35:19Z</time>
      </trkpt>
      <trkpt lat="45.74656" lon="-1.2082">
        <ele>83.2</ele>
        <time>2020-01-26T11:35:20Z</time>
      </trkpt>
      <trkpt lat="45.74656" lon="-1.20823">
        <ele>83.4</ele>
        <time>2020-01-26T11:35:21Z</time>
      </trkpt>
      <trkpt lat="45.74656" lon="-1.20825">
        <ele>83.6</ele>
        <time>2020-01-26T11:35:22Z</time>
      </trkpt>
      <trkpt lat="45.74656" lon="-1.20827">
        <ele>83.6</ele>
        <time>2020-01-26T11:35:23Z</time>
      </trkpt>
      <trkpt lat="45.74657" lon="-1.20829">
        <ele>83.8</ele>
        <time>2020-01-26T11:35:24Z</time>
      </trkpt>
      <trkpt lat="45.74657" lon="-1.20832">
        <ele>83.8</ele>
        <time>2020-01-26T11:35:25Z</time>
      </trkpt>
      <trkpt lat="45.74657" lon="-1.20835">
        <ele>83.6</ele>
        <time>2020-01-26T11:35:26Z</time>
      </trkpt>
      <trkpt lat="45.74657" lon="-1.20838">
        <ele>83.8</ele>
        <time>2020-01-26T11:35:27Z</time>
      </trkpt>
      <trkpt lat="45.74657" lon="-1.2084">
        <ele>83.8</ele>
        <time>2020-01-26T11:35:28Z</time>
      </trkpt>
      <trkpt lat="45.74657" lon="-1.20843">
        <ele>83.8</ele>
        <time>2020-01-26T11:35:29Z</time>
      </trkpt>
      <trkpt lat="45.74657" lon="-1.20846">
        <ele>83.8</ele>
        <time>2020-01-26T11:35:30Z</time>
      </trkpt>
      <trkpt lat="45.74657" lon="-1.20848">
        <ele>84</ele>
        <time>2020-01-26T11:35:31Z</time>
      </trkpt>
      <trkpt lat="45.74657" lon="-1.20852">
        <ele>84</ele>
        <time>2020-01-26T11:35:32Z</time>
      </trkpt>
      <trkpt lat="45.74657" lon="-1.20856">
        <ele>83.8</ele>
        <time>2020-01-26T11:35:33Z</time>
      </trkpt>
      <trkpt lat="45.74657" lon="-1.2086">
        <ele>83.8</ele>
        <time>2020-01-26T11:35:34Z</time>
      </trkpt>
      <trkpt lat="45.74658" lon="-1.20864">
        <ele>83.8</ele>
        <time>2020-01-26T11:35:35Z</time>
      </trkpt>
      <trkpt lat="45.74658" lon="-1.20868">
        <ele>84.2</ele>
        <time>2020-01-26T11:35:36Z</time>
      </trkpt>
      <trkpt lat="45.74658" lon="-1.20872">
        <ele>84.4</ele>
        <time>2020-01-26T11:35:37Z</time>
      </trkpt>
      <trkpt lat="45.74659" lon="-1.20876">
        <ele>84.6</ele>
        <time>2020-01-26T11:35:38Z</time>
      </trkpt>
      <trkpt lat="45.74658" lon="-1.2088">
        <ele>84.6</ele>
        <time>2020-01-26T11:35:39Z</time>
      </trkpt>
      <trkpt lat="45.74658" lon="-1.20883">
        <ele>84.8</ele>
        <time>2020-01-26T11:35:40Z</time>
      </trkpt>
      <trkpt lat="45.74658" lon="-1.20887">
        <ele>84.8</ele>
        <time>2020-01-26T11:35:41Z</time>
      </trkpt>
      <trkpt lat="45.74659" lon="-1.2089">
        <ele>84.8</ele>
        <time>2020-01-26T11:35:42Z</time>
      </trkpt>
      <trkpt lat="45.74659" lon="-1.20894">
        <ele>84.8</ele>
        <time>2020-01-26T11:35:43Z</time>
      </trkpt>
      <trkpt lat="45.74659" lon="-1.20898">
        <ele>85</ele>
        <time>2020-01-26T11:35:44Z</time>
      </trkpt>
      <trkpt lat="45.74659" lon="-1.20902">
        <ele>85.2</ele>
        <time>2020-01-26T11:35:45Z</time>
      </trkpt>
      <trkpt lat="45.74659" lon="-1.20905">
        <ele>85.4</ele>
        <time>2020-01-26T11:35:46Z</time>
      </trkpt>
      <trkpt lat="45.74659" lon="-1.20909">
        <ele>85.6</ele>
        <time>2020-01-26T11:35:47Z</time>
      </trkpt>
      <trkpt lat="45.74659" lon="-1.20913">
        <ele>85.6</ele>
        <time>2020-01-26T11:35:48Z</time>
      </trkpt>
      <trkpt lat="45.74659" lon="-1.20918">
        <ele>85.8</ele>
        <time>2020-01-26T11:35:49Z</time>
      </trkpt>
      <trkpt lat="45.7466" lon="-1.20922">
        <ele>85.8</ele>
        <time>2020-01-26T11:35:50Z</time>
      </trkpt>
      <trkpt lat="45.7466" lon="-1.20926">
        <ele>85.6</ele>
        <time>2020-01-26T11:35:51Z</time>
      </trkpt>
      <trkpt lat="45.7466" lon="-1.20931">
        <ele>85.4</ele>
        <time>2020-01-26T11:35:52Z</time>
      </trkpt>
      <trkpt lat="45.7466" lon="-1.20935">
        <ele>85.4</ele>
        <time>2020-01-26T11:35:53Z</time>
      </trkpt>
      <trkpt lat="45.7466" lon="-1.20939">
        <ele>85.6</ele>
        <time>2020-01-26T11:35:54Z</time>
      </trkpt>
      <trkpt lat="45.74661" lon="-1.20943">
        <ele>85.8</ele>
        <time>2020-01-26T11:35:55Z</time>
      </trkpt>
      <trkpt lat="45.74661" lon="-1.20947">
        <ele>86.4</ele>
        <time>2020-01-26T11:35:56Z</time>
      </trkpt>
      <trkpt lat="45.74661" lon="-1.2095">
        <ele>86.8</ele>
        <time>2020-01-26T11:35:57Z</time>
      </trkpt>
      <trkpt lat="45.74661" lon="-1.20952">
        <ele>87.2</ele>
        <time>2020-01-26T11:35:58Z</time>
      </trkpt>
      <trkpt lat="45.74661" lon="-1.20955">
        <ele>87</ele>
        <time>2020-01-26T11:35:59Z</time>
      </trkpt>
      <trkpt lat="45.7466" lon="-1.20957">
        <ele>87</ele>
        <time>2020-01-26T11:36:00Z</time>
      </trkpt>
      <trkpt lat="45.7466" lon="-1.20958">
        <ele>87</ele>
        <time>2020-01-26T11:36:01Z</time>
      </trkpt>
      <trkpt lat="45.7466" lon="-1.20958">
        <ele>86.8</ele>
        <time>2020-01-26T11:36:02Z</time>
      </trkpt>
      <trkpt lat="45.74659" lon="-1.20958">
        <ele>86.8</ele>
        <time>2020-01-26T11:36:03Z</time>
      </trkpt>
      <trkpt lat="45.74659" lon="-1.20959">
        <ele>86.8</ele>
        <time>2020-01-26T11:36:04Z</time>
      </trkpt>
      <trkpt lat="45.74659" lon="-1.20959">
        <ele>87</ele>
        <time>2020-01-26T11:36:05Z</time>
      </trkpt>
      <trkpt lat="45.74659" lon="-1.20959">
        <ele>87</ele>
        <time>2020-01-26T11:36:06Z</time>
      </trkpt>
      <trkpt lat="45.74659" lon="-1.2096">
        <ele>87</ele>
        <time>2020-01-26T11:36:07Z</time>
      </trkpt>
      <trkpt lat="45.74659" lon="-1.2096">
        <ele>87.2</ele>
        <time>2020-01-26T11:36:08Z</time>
      </trkpt>
      <trkpt lat="45.74659" lon="-1.2096">
        <ele>87.4</ele>
        <time>2020-01-26T11:36:09Z</time>
      </trkpt>
      <trkpt lat="45.74659" lon="-1.2096">
        <ele>87.6</ele>
        <time>2020-01-26T11:36:10Z</time>
      </trkpt>
      <trkpt lat="45.74659" lon="-1.20961">
        <ele>87.6</ele>
        <time>2020-01-26T11:36:11Z</time>
      </trkpt>
      <trkpt lat="45.74659" lon="-1.20961">
        <ele>87.8</ele>
        <time>2020-01-26T11:36:12Z</time>
      </trkpt>
      <trkpt lat="45.74659" lon="-1.20961">
        <ele>87.8</ele>
        <time>2020-01-26T11:36:13Z</time>
      </trkpt>
      <trkpt lat="45.74659" lon="-1.20961">
        <ele>87.8</ele>
        <time>2020-01-26T11:36:14Z</time>
      </trkpt>
      <trkpt lat="45.74659" lon="-1.20961">
        <ele>87.8</ele>
        <time>2020-01-26T11:36:15Z</time>
      </trkpt>
      <trkpt lat="45.74659" lon="-1.20961">
        <ele>88</ele>
        <time>2020-01-26T11:36:16Z</time>
      </trkpt>
      <trkpt lat="45.74659" lon="-1.20961">
        <ele>88</ele>
        <time>2020-01-26T11:36:17Z</time>
      </trkpt>
      <trkpt lat="45.74659" lon="-1.20961">
        <ele>88</ele>
        <time>2020-01-26T11:36:18Z</time>
      </trkpt>
      <trkpt lat="45.7466" lon="-1.20961">
        <ele>88</ele>
        <time>2020-01-26T11:36:19Z</time>
      </trkpt>
      <trkpt lat="45.7466" lon="-1.20961">
        <ele>88</ele>
        <time>2020-01-26T11:36:20Z</time>
      </trkpt>
      <trkpt lat="45.7466" lon="-1.2096">
        <ele>88</ele>
        <time>2020-01-26T11:36:21Z</time>
      </trkpt>
      <trkpt lat="45.7466" lon="-1.2096">
        <ele>88</ele>
        <time>2020-01-26T11:36:22Z</time>
      </trkpt>
      <trkpt lat="45.7466" lon="-1.2096">
        <ele>88</ele>
        <time>2020-01-26T11:36:23Z</time>
      </trkpt>
      <trkpt lat="45.7466" lon="-1.2096">
        <ele>88</ele>
        <time>2020-01-26T11:36:24Z</time>
      </trkpt>
      <trkpt lat="45.7466" lon="-1.2096">
        <ele>88</ele>
        <time>2020-01-26T11:36:25Z</time>
      </trkpt>
      <trkpt lat="45.7466" lon="-1.2096">
        <ele>88</ele>
        <time>2020-01-26T11:36:26Z</time>
      </trkpt>
      <trkpt lat="45.7466" lon="-1.2096">
        <ele>88</ele>
        <time>2020-01-26T11:36:27Z</time>
      </trkpt>
      <trkpt lat="45.7466" lon="-1.2096">
        <ele>88</ele>
        <time>2020-01-26T11:36:28Z</time>
      </trkpt>
      <trkpt lat="45.7466" lon="-1.2096">
        <ele>88</ele>
        <time>2020-01-26T11:36:29Z</time>
      </trkpt>
      <trkpt lat="45.7466" lon="-1.2096">
        <ele>88</ele>
        <time>2020-01-26T11:36:30Z</time>
      </trkpt>
      <trkpt lat="45.7466" lon="-1.2096">
        <ele>88</ele>
        <time>2020-01-26T11:36:31Z</time>
      </trkpt>
      <trkpt lat="45.7466" lon="-1.2096">
        <ele>88</ele>
        <time>2020-01-26T11:36:32Z</time>
      </trkpt>
      <trkpt lat="45.7466" lon="-1.2096">
        <ele>88</ele>
        <time>2020-01-26T11:36:33Z</time>
      </trkpt>
      <trkpt lat="45.7466" lon="-1.2096">
        <ele>88</ele>
        <time>2020-01-26T11:36:34Z</time>
      </trkpt>
      <trkpt lat="45.7466" lon="-1.2096">
        <ele>88</ele>
        <time>2020-01-26T11:36:35Z</time>
      </trkpt>
      <trkpt lat="45.7466" lon="-1.2096">
        <ele>88</ele>
        <time>2020-01-26T11:36:36Z</time>
      </trkpt>
      <trkpt lat="45.7466" lon="-1.20961">
        <ele>88</ele>
        <time>2020-01-26T11:36:37Z</time>
      </trkpt>
      <trkpt lat="45.7466" lon="-1.20964">
        <ele>88</ele>
        <time>2020-01-26T11:36:38Z</time>
      </trkpt>
      <trkpt lat="45.7466" lon="-1.20967">
        <ele>87.8</ele>
        <time>2020-01-26T11:36:39Z</time>
      </trkpt>
      <trkpt lat="45.74661" lon="-1.20972">
        <ele>87.2</ele>
        <time>2020-01-26T11:36:40Z</time>
      </trkpt>
      <trkpt lat="45.74661" lon="-1.20979">
        <ele>86.6</ele>
        <time>2020-01-26T11:36:41Z</time>
      </trkpt>
      <trkpt lat="45.74662" lon="-1.20988">
        <ele>85.8</ele>
        <time>2020-01-26T11:36:42Z</time>
      </trkpt>
      <trkpt lat="45.74662" lon="-1.20998">
        <ele>84.8</ele>
        <time>2020-01-26T11:36:43Z</time>
      </trkpt>
      <trkpt lat="45.74662" lon="-1.21009">
        <ele>83.8</ele>
        <time>2020-01-26T11:36:44Z</time>
      </trkpt>
      <trkpt lat="45.74662" lon="-1.2102">
        <ele>82.8</ele>
        <time>2020-01-26T11:36:45Z</time>
      </trkpt>
      <trkpt lat="45.74662" lon="-1.21032">
        <ele>81.6</ele>
        <time>2020-01-26T11:36:46Z</time>
      </trkpt>
      <trkpt lat="45.74664" lon="-1.21046">
        <ele>80</ele>
        <time>2020-01-26T11:36:47Z</time>
      </trkpt>
      <trkpt lat="45.74664" lon="-1.2106">
        <ele>78.4</ele>
        <time>2020-01-26T11:36:48Z</time>
      </trkpt>
      <trkpt lat="45.74664" lon="-1.21073">
        <ele>76.8</ele>
        <time>2020-01-26T11:36:49Z</time>
      </trkpt>
      <trkpt lat="45.74664" lon="-1.21089">
        <ele>75</ele>
        <time>2020-01-26T11:36:50Z</time>
      </trkpt>
      <trkpt lat="45.74665" lon="-1.21103">
        <ele>73.2</ele>
        <time>2020-01-26T11:36:51Z</time>
      </trkpt>
      <trkpt lat="45.74665" lon="-1.21117">
        <ele>71.8</ele>
        <time>2020-01-26T11:36:52Z</time>
      </trkpt>
      <trkpt lat="45.74665" lon="-1.21134">
        <ele>70.4</ele>
        <time>2020-01-26T11:36:53Z</time>
      </trkpt>
      <trkpt lat="45.74666" lon="-1.21151">
        <ele>69</ele>
        <time>2020-01-26T11:36:54Z</time>
      </trkpt>
      <trkpt lat="45.74667" lon="-1.21168">
        <ele>67.6</ele>
        <time>2020-01-26T11:36:55Z</time>
      </trkpt>
      <trkpt lat="45.74668" lon="-1.21184">
        <ele>66.4</ele>
        <time>2020-01-26T11:36:56Z</time>
      </trkpt>
      <trkpt lat="45.74668" lon="-1.212">
        <ele>65.6</ele>
        <time>2020-01-26T11:36:57Z</time>
      </trkpt>
      <trkpt lat="45.74667" lon="-1.21214">
        <ele>64.6</ele>
        <time>2020-01-26T11:36:58Z</time>
      </trkpt>
      <trkpt lat="45.74667" lon="-1.21225">
        <ele>63.8</ele>
        <time>2020-01-26T11:36:59Z</time>
      </trkpt>
      <trkpt lat="45.74667" lon="-1.21232">
        <ele>62.8</ele>
        <time>2020-01-26T11:37:00Z</time>
      </trkpt>
      <trkpt lat="45.74667" lon="-1.21234">
        <ele>61.8</ele>
        <time>2020-01-26T11:37:01Z</time>
      </trkpt>
      <trkpt lat="45.74666" lon="-1.21233">
        <ele>61.2</ele>
        <time>2020-01-26T11:37:02Z</time>
      </trkpt>
      <trkpt lat="45.74666" lon="-1.21233">
        <ele>60.6</ele>
        <time>2020-01-26T11:37:03Z</time>
      </trkpt>
      <trkpt lat="45.74665" lon="-1.21233">
        <ele>60.2</ele>
        <time>2020-01-26T11:37:04Z</time>
      </trkpt>
      <trkpt lat="45.74665" lon="-1.21233">
        <ele>60</ele>
        <time>2020-01-26T11:37:05Z</time>
      </trkpt>
      <trkpt lat="45.74664" lon="-1.21233">
        <ele>59.6</ele>
        <time>2020-01-26T11:37:06Z</time>
      </trkpt>
      <trkpt lat="45.74664" lon="-1.21233">
        <ele>59.4</ele>
        <time>2020-01-26T11:37:07Z</time>
      </trkpt>
      <trkpt lat="45.74665" lon="-1.21231">
        <ele>58.8</ele>
        <time>2020-01-26T11:37:08Z</time>
      </trkpt>
      <trkpt lat="45.74665" lon="-1.21231">
        <ele>58.4</ele>
        <time>2020-01-26T11:37:09Z</time>
      </trkpt>
      <trkpt lat="45.74665" lon="-1.21232">
        <ele>58</ele>
        <time>2020-01-26T11:37:10Z</time>
      </trkpt>
      <trkpt lat="45.74665" lon="-1.21232">
        <ele>58</ele>
        <time>2020-01-26T11:37:11Z</time>
      </trkpt>
      <trkpt lat="45.74665" lon="-1.21233">
        <ele>58</ele>
        <time>2020-01-26T11:37:12Z</time>
      </trkpt>
      <trkpt lat="45.74665" lon="-1.21233">
        <ele>58.2</ele>
        <time>2020-01-26T11:37:13Z</time>
      </trkpt>
      <trkpt lat="45.74665" lon="-1.21233">
        <ele>58.4</ele>
        <time>2020-01-26T11:37:14Z</time>
      </trkpt>
      <trkpt lat="45.74665" lon="-1.21234">
        <ele>58.6</ele>
        <time>2020-01-26T11:37:15Z</time>
      </trkpt>
      <trkpt lat="45.74666" lon="-1.21234">
        <ele>58.8</ele>
        <time>2020-01-26T11:37:16Z</time>
      </trkpt>
      <trkpt lat="45.74666" lon="-1.21234">
        <ele>58.8</ele>
        <time>2020-01-26T11:37:17Z</time>
      </trkpt>
      <trkpt lat="45.74666" lon="-1.21234">
        <ele>58.8</ele>
        <time>2020-01-26T11:37:18Z</time>
      </trkpt>
      <trkpt lat="45.74666" lon="-1.21234">
        <ele>58.8</ele>
        <time>2020-01-26T11:37:19Z</time>
      </trkpt>
      <trkpt lat="45.74666" lon="-1.21234">
        <ele>59</ele>
        <time>2020-01-26T11:37:20Z</time>
      </trkpt>
      <trkpt lat="45.74665" lon="-1.21234">
        <ele>59</ele>
        <time>2020-01-26T11:37:21Z</time>
      </trkpt>
      <trkpt lat="45.74663" lon="-1.21235">
        <ele>59</ele>
        <time>2020-01-26T11:37:22Z</time>
      </trkpt>
      <trkpt lat="45.74661" lon="-1.21234">
        <ele>58.4</ele>
        <time>2020-01-26T11:37:23Z</time>
      </trkpt>
      <trkpt lat="45.74658" lon="-1.21235">
        <ele>58</ele>
        <time>2020-01-26T11:37:24Z</time>
      </trkpt>
      <trkpt lat="45.74655" lon="-1.21235">
        <ele>57.8</ele>
        <time>2020-01-26T11:37:25Z</time>
      </trkpt>
      <trkpt lat="45.74652" lon="-1.21236">
        <ele>57.6</ele>
        <time>2020-01-26T11:37:26Z</time>
      </trkpt>
      <trkpt lat="45.74649" lon="-1.21236">
        <ele>57.4</ele>
        <time>2020-01-26T11:37:27Z</time>
      </trkpt>
      <trkpt lat="45.74646" lon="-1.21236">
        <ele>57.4</ele>
        <time>2020-01-26T11:37:28Z</time>
      </trkpt>
      <trkpt lat="45.74643" lon="-1.21236">
        <ele>57.2</ele>
        <time>2020-01-26T11:37:29Z</time>
      </trkpt>
      <trkpt lat="45.7464" lon="-1.21236">
        <ele>57.4</ele>
        <time>2020-01-26T11:37:30Z</time>
      </trkpt>
      <trkpt lat="45.74637" lon="-1.21234">
        <ele>57.6</ele>
        <time>2020-01-26T11:37:31Z</time>
      </trkpt>
      <trkpt lat="45.74634" lon="-1.21233">
        <ele>57.6</ele>
        <time>2020-01-26T11:37:32Z</time>
      </trkpt>
      <trkpt lat="45.7463" lon="-1.21232">
        <ele>57.8</ele>
        <time>2020-01-26T11:37:33Z</time>
      </trkpt>
      <trkpt lat="45.74628" lon="-1.21231">
        <ele>57.8</ele>
        <time>2020-01-26T11:37:34Z</time>
      </trkpt>
      <trkpt lat="45.74625" lon="-1.2123">
        <ele>57.8</ele>
        <time>2020-01-26T11:37:35Z</time>
      </trkpt>
      <trkpt lat="45.74623" lon="-1.21229">
        <ele>58.2</ele>
        <time>2020-01-26T11:37:36Z</time>
      </trkpt>
      <trkpt lat="45.7462" lon="-1.21227">
        <ele>58.6</ele>
        <time>2020-01-26T11:37:37Z</time>
      </trkpt>
      <trkpt lat="45.74617" lon="-1.21225">
        <ele>59</ele>
        <time>2020-01-26T11:37:38Z</time>
      </trkpt>
      <trkpt lat="45.74614" lon="-1.21222">
        <ele>59.6</ele>
        <time>2020-01-26T11:37:39Z</time>
      </trkpt>
      <trkpt lat="45.74611" lon="-1.2122">
        <ele>59.8</ele>
        <time>2020-01-26T11:37:40Z</time>
      </trkpt>
      <trkpt lat="45.74607" lon="-1.2122">
        <ele>60.2</ele>
        <time>2020-01-26T11:37:41Z</time>
      </trkpt>
      <trkpt lat="45.74604" lon="-1.21218">
        <ele>60</ele>
        <time>2020-01-26T11:37:42Z</time>
      </trkpt>
      <trkpt lat="45.746" lon="-1.21215">
        <ele>59.8</ele>
        <time>2020-01-26T11:37:43Z</time>
      </trkpt>
      <trkpt lat="45.74596" lon="-1.21213">
        <ele>59.6</ele>
        <time>2020-01-26T11:37:44Z</time>
      </trkpt>
      <trkpt lat="45.74593" lon="-1.21211">
        <ele>59.4</ele>
        <time>2020-01-26T11:37:45Z</time>
      </trkpt>
      <trkpt lat="45.74589" lon="-1.21209">
        <ele>59.2</ele>
        <time>2020-01-26T11:37:46Z</time>
      </trkpt>
      <trkpt lat="45.74583" lon="-1.21208">
        <ele>58.8</ele>
        <time>2020-01-26T11:37:47Z</time>
      </trkpt>
      <trkpt lat="45.74578" lon="-1.21206">
        <ele>58.6</ele>
        <time>2020-01-26T11:37:48Z</time>
      </trkpt>
      <trkpt lat="45.74574" lon="-1.21205">
        <ele>58.6</ele>
        <time>2020-01-26T11:37:49Z</time>
      </trkpt>
      <trkpt lat="45.7457" lon="-1.21205">
        <ele>58.8</ele>
        <time>2020-01-26T11:37:50Z</time>
      </trkpt>
      <trkpt lat="45.74566" lon="-1.21207">
        <ele>59.4</ele>
        <time>2020-01-26T11:37:51Z</time>
      </trkpt>
      <trkpt lat="45.74562" lon="-1.21209">
        <ele>59.8</ele>
        <time>2020-01-26T11:37:52Z</time>
      </trkpt>
      <trkpt lat="45.74557" lon="-1.21212">
        <ele>59.8</ele>
        <time>2020-01-26T11:37:53Z</time>
      </trkpt>
      <trkpt lat="45.74553" lon="-1.21215">
        <ele>60.2</ele>
        <time>2020-01-26T11:37:54Z</time>
      </trkpt>
      <trkpt lat="45.74549" lon="-1.21216">
        <ele>60.6</ele>
        <time>2020-01-26T11:37:55Z</time>
      </trkpt>
      <trkpt lat="45.74545" lon="-1.21218">
        <ele>60.8</ele>
        <time>2020-01-26T11:37:56Z</time>
      </trkpt>
      <trkpt lat="45.74541" lon="-1.21219">
        <ele>61</ele>
        <time>2020-01-26T11:37:57Z</time>
      </trkpt>
      <trkpt lat="45.74536" lon="-1.2122">
        <ele>61.2</ele>
        <time>2020-01-26T11:37:58Z</time>
      </trkpt>
      <trkpt lat="45.74532" lon="-1.21223">
        <ele>61.4</ele>
        <time>2020-01-26T11:37:59Z</time>
      </trkpt>
      <trkpt lat="45.74527" lon="-1.21224">
        <ele>61.6</ele>
        <time>2020-01-26T11:38:00Z</time>
      </trkpt>
      <trkpt lat="45.74524" lon="-1.21225">
        <ele>61.6</ele>
        <time>2020-01-26T11:38:01Z</time>
      </trkpt>
      <trkpt lat="45.74519" lon="-1.21226">
        <ele>61.6</ele>
        <time>2020-01-26T11:38:02Z</time>
      </trkpt>
      <trkpt lat="45.74515" lon="-1.21229">
        <ele>61.4</ele>
        <time>2020-01-26T11:38:03Z</time>
      </trkpt>
      <trkpt lat="45.74511" lon="-1.2123">
        <ele>61.2</ele>
        <time>2020-01-26T11:38:04Z</time>
      </trkpt>
      <trkpt lat="45.74506" lon="-1.21232">
        <ele>61</ele>
        <time>2020-01-26T11:38:05Z</time>
      </trkpt>
      <trkpt lat="45.74503" lon="-1.21233">
        <ele>61.4</ele>
        <time>2020-01-26T11:38:06Z</time>
      </trkpt>
      <trkpt lat="45.74499" lon="-1.21234">
        <ele>61.6</ele>
        <time>2020-01-26T11:38:07Z</time>
      </trkpt>
      <trkpt lat="45.74495" lon="-1.21235">
        <ele>61.8</ele>
        <time>2020-01-26T11:38:08Z</time>
      </trkpt>
      <trkpt lat="45.74493" lon="-1.21236">
        <ele>61.8</ele>
        <time>2020-01-26T11:38:09Z</time>
      </trkpt>
      <trkpt lat="45.7449" lon="-1.21237">
        <ele>61.6</ele>
        <time>2020-01-26T11:38:10Z</time>
      </trkpt>
      <trkpt lat="45.74487" lon="-1.21239">
        <ele>61.4</ele>
        <time>2020-01-26T11:38:11Z</time>
      </trkpt>
      <trkpt lat="45.74483" lon="-1.2124">
        <ele>61.4</ele>
        <time>2020-01-26T11:38:12Z</time>
      </trkpt>
      <trkpt lat="45.7448" lon="-1.2124">
        <ele>61</ele>
        <time>2020-01-26T11:38:13Z</time>
      </trkpt>
      <trkpt lat="45.74476" lon="-1.21242">
        <ele>60.8</ele>
        <time>2020-01-26T11:38:14Z</time>
      </trkpt>
      <trkpt lat="45.74472" lon="-1.21245">
        <ele>60.4</ele>
        <time>2020-01-26T11:38:15Z</time>
      </trkpt>
      <trkpt lat="45.74469" lon="-1.21247">
        <ele>60</ele>
        <time>2020-01-26T11:38:16Z</time>
      </trkpt>
      <trkpt lat="45.74466" lon="-1.21248">
        <ele>59.4</ele>
        <time>2020-01-26T11:38:17Z</time>
      </trkpt>
      <trkpt lat="45.74463" lon="-1.21251">
        <ele>58.8</ele>
        <time>2020-01-26T11:38:18Z</time>
      </trkpt>
      <trkpt lat="45.7446" lon="-1.21254">
        <ele>58.2</ele>
        <time>2020-01-26T11:38:19Z</time>
      </trkpt>
      <trkpt lat="45.74457" lon="-1.21256">
        <ele>57.6</ele>
        <time>2020-01-26T11:38:20Z</time>
      </trkpt>
      <trkpt lat="45.74454" lon="-1.21259">
        <ele>56.8</ele>
        <time>2020-01-26T11:38:21Z</time>
      </trkpt>
      <trkpt lat="45.74451" lon="-1.21262">
        <ele>56</ele>
        <time>2020-01-26T11:38:22Z</time>
      </trkpt>
      <trkpt lat="45.74448" lon="-1.21265">
        <ele>55.2</ele>
        <time>2020-01-26T11:38:23Z</time>
      </trkpt>
      <trkpt lat="45.74446" lon="-1.21268">
        <ele>54.4</ele>
        <time>2020-01-26T11:38:24Z</time>
      </trkpt>
      <trkpt lat="45.74442" lon="-1.21273">
        <ele>54</ele>
        <time>2020-01-26T11:38:25Z</time>
      </trkpt>
      <trkpt lat="45.74438" lon="-1.21275">
        <ele>53.6</ele>
        <time>2020-01-26T11:38:26Z</time>
      </trkpt>
      <trkpt lat="45.74435" lon="-1.21279">
        <ele>53.4</ele>
        <time>2020-01-26T11:38:27Z</time>
      </trkpt>
      <trkpt lat="45.74432" lon="-1.21282">
        <ele>53.8</ele>
        <time>2020-01-26T11:38:28Z</time>
      </trkpt>
      <trkpt lat="45.74429" lon="-1.21284">
        <ele>54</ele>
        <time>2020-01-26T11:38:29Z</time>
      </trkpt>
      <trkpt lat="45.74426" lon="-1.21286">
        <ele>54.6</ele>
        <time>2020-01-26T11:38:30Z</time>
      </trkpt>
      <trkpt lat="45.74423" lon="-1.21286">
        <ele>54.6</ele>
        <time>2020-01-26T11:38:31Z</time>
      </trkpt>
      <trkpt lat="45.74421" lon="-1.21286">
        <ele>54.6</ele>
        <time>2020-01-26T11:38:32Z</time>
      </trkpt>
      <trkpt lat="45.74419" lon="-1.21284">
        <ele>54.4</ele>
        <time>2020-01-26T11:38:33Z</time>
      </trkpt>
      <trkpt lat="45.74416" lon="-1.21281">
        <ele>53.6</ele>
        <time>2020-01-26T11:38:34Z</time>
      </trkpt>
      <trkpt lat="45.74415" lon="-1.21277">
        <ele>52.8</ele>
        <time>2020-01-26T11:38:35Z</time>
      </trkpt>
      <trkpt lat="45.74417" lon="-1.2127">
        <ele>52</ele>
        <time>2020-01-26T11:38:36Z</time>
      </trkpt>
      <trkpt lat="45.74415" lon="-1.21265">
        <ele>51.2</ele>
        <time>2020-01-26T11:38:37Z</time>
      </trkpt>
      <trkpt lat="45.74414" lon="-1.21262">
        <ele>51</ele>
        <time>2020-01-26T11:38:38Z</time>
      </trkpt>
      <trkpt lat="45.74413" lon="-1.21255">
        <ele>50.8</ele>
        <time>2020-01-26T11:38:39Z</time>
      </trkpt>
      <trkpt lat="45.74411" lon="-1.21249">
        <ele>50.6</ele>
        <time>2020-01-26T11:38:40Z</time>
      </trkpt>
      <trkpt lat="45.74409" lon="-1.21245">
        <ele>50.6</ele>
        <time>2020-01-26T11:38:41Z</time>
      </trkpt>
      <trkpt lat="45.74408" lon="-1.2124">
        <ele>50.6</ele>
        <time>2020-01-26T11:38:42Z</time>
      </trkpt>
      <trkpt lat="45.74406" lon="-1.21237">
        <ele>51.2</ele>
        <time>2020-01-26T11:38:43Z</time>
      </trkpt>
      <trkpt lat="45.74404" lon="-1.21232">
        <ele>51.6</ele>
        <time>2020-01-26T11:38:44Z</time>
      </trkpt>
      <trkpt lat="45.74402" lon="-1.21227">
        <ele>52</ele>
        <time>2020-01-26T11:38:45Z</time>
      </trkpt>
      <trkpt lat="45.744" lon="-1.21223">
        <ele>52</ele>
        <time>2020-01-26T11:38:46Z</time>
      </trkpt>
      <trkpt lat="45.74398" lon="-1.2122">
        <ele>52.2</ele>
        <time>2020-01-26T11:38:47Z</time>
      </trkpt>
      <trkpt lat="45.74395" lon="-1.21216">
        <ele>52.8</ele>
        <time>2020-01-26T11:38:48Z</time>
      </trkpt>
      <trkpt lat="45.74393" lon="-1.21214">
        <ele>53.2</ele>
        <time>2020-01-26T11:38:49Z</time>
      </trkpt>
      <trkpt lat="45.74391" lon="-1.21213">
        <ele>53.6</ele>
        <time>2020-01-26T11:38:50Z</time>
      </trkpt>
      <trkpt lat="45.74389" lon="-1.21211">
        <ele>54</ele>
        <time>2020-01-26T11:38:51Z</time>
      </trkpt>
      <trkpt lat="45.74385" lon="-1.21206">
        <ele>54.2</ele>
        <time>2020-01-26T11:38:52Z</time>
      </trkpt>
      <trkpt lat="45.74382" lon="-1.21202">
        <ele>54.4</ele>
        <time>2020-01-26T11:38:53Z</time>
      </trkpt>
      <trkpt lat="45.74379" lon="-1.212">
        <ele>54.6</ele>
        <time>2020-01-26T11:38:54Z</time>
      </trkpt>
      <trkpt lat="45.74376" lon="-1.21198">
        <ele>55</ele>
        <time>2020-01-26T11:38:55Z</time>
      </trkpt>
      <trkpt lat="45.74372" lon="-1.21194">
        <ele>55.2</ele>
        <time>2020-01-26T11:38:56Z</time>
      </trkpt>
      <trkpt lat="45.74369" lon="-1.21191">
        <ele>55.4</ele>
        <time>2020-01-26T11:38:57Z</time>
      </trkpt>
      <trkpt lat="45.74366" lon="-1.21188">
        <ele>55.2</ele>
        <time>2020-01-26T11:38:58Z</time>
      </trkpt>
      <trkpt lat="45.74363" lon="-1.21185">
        <ele>55.2</ele>
        <time>2020-01-26T11:38:59Z</time>
      </trkpt>
      <trkpt lat="45.74358" lon="-1.21178">
        <ele>56</ele>
        <time>2020-01-26T11:39:00Z</time>
      </trkpt>
      <trkpt lat="45.74356" lon="-1.21175">
        <ele>56.4</ele>
        <time>2020-01-26T11:39:01Z</time>
      </trkpt>
      <trkpt lat="45.74353" lon="-1.21171">
        <ele>57.4</ele>
        <time>2020-01-26T11:39:02Z</time>
      </trkpt>
      <trkpt lat="45.74351" lon="-1.21167">
        <ele>57.8</ele>
        <time>2020-01-26T11:39:03Z</time>
      </trkpt>
      <trkpt lat="45.74349" lon="-1.21163">
        <ele>58</ele>
        <time>2020-01-26T11:39:04Z</time>
      </trkpt>
      <trkpt lat="45.74346" lon="-1.21157">
        <ele>58.6</ele>
        <time>2020-01-26T11:39:05Z</time>
      </trkpt>
      <trkpt lat="45.74343" lon="-1.21154">
        <ele>58.6</ele>
        <time>2020-01-26T11:39:06Z</time>
      </trkpt>
      <trkpt lat="45.7434" lon="-1.2115">
        <ele>58.8</ele>
        <time>2020-01-26T11:39:07Z</time>
      </trkpt>
      <trkpt lat="45.74336" lon="-1.21149">
        <ele>59.2</ele>
        <time>2020-01-26T11:39:08Z</time>
      </trkpt>
      <trkpt lat="45.74334" lon="-1.21148">
        <ele>59.8</ele>
        <time>2020-01-26T11:39:09Z</time>
      </trkpt>
      <trkpt lat="45.74331" lon="-1.21147">
        <ele>60</ele>
        <time>2020-01-26T11:39:10Z</time>
      </trkpt>
      <trkpt lat="45.7433" lon="-1.21148">
        <ele>60</ele>
        <time>2020-01-26T11:39:11Z</time>
      </trkpt>
      <trkpt lat="45.74328" lon="-1.21147">
        <ele>60.4</ele>
        <time>2020-01-26T11:39:12Z</time>
      </trkpt>
      <trkpt lat="45.74325" lon="-1.21147">
        <ele>60.8</ele>
        <time>2020-01-26T11:39:13Z</time>
      </trkpt>
      <trkpt lat="45.74323" lon="-1.21146">
        <ele>61</ele>
        <time>2020-01-26T11:39:14Z</time>
      </trkpt>
      <trkpt lat="45.7432" lon="-1.21145">
        <ele>61.2</ele>
        <time>2020-01-26T11:39:15Z</time>
      </trkpt>
      <trkpt lat="45.74318" lon="-1.21145">
        <ele>60.6</ele>
        <time>2020-01-26T11:39:16Z</time>
      </trkpt>
      <trkpt lat="45.74316" lon="-1.21146">
        <ele>59.2</ele>
        <time>2020-01-26T11:39:17Z</time>
      </trkpt>
      <trkpt lat="45.74314" lon="-1.21146">
        <ele>58.2</ele>
        <time>2020-01-26T11:39:18Z</time>
      </trkpt>
      <trkpt lat="45.7431" lon="-1.21148">
        <ele>57.2</ele>
        <time>2020-01-26T11:39:19Z</time>
      </trkpt>
      <trkpt lat="45.74306" lon="-1.21146">
        <ele>56.4</ele>
        <time>2020-01-26T11:39:20Z</time>
      </trkpt>
      <trkpt lat="45.74302" lon="-1.21145">
        <ele>56.2</ele>
        <time>2020-01-26T11:39:21Z</time>
      </trkpt>
      <trkpt lat="45.74298" lon="-1.21146">
        <ele>55.8</ele>
        <time>2020-01-26T11:39:22Z</time>
      </trkpt>
      <trkpt lat="45.74296" lon="-1.21147">
        <ele>55.8</ele>
        <time>2020-01-26T11:39:23Z</time>
      </trkpt>
      <trkpt lat="45.74293" lon="-1.21149">
        <ele>55.8</ele>
        <time>2020-01-26T11:39:24Z</time>
      </trkpt>
      <trkpt lat="45.74289" lon="-1.21153">
        <ele>55.6</ele>
        <time>2020-01-26T11:39:25Z</time>
      </trkpt>
      <trkpt lat="45.74286" lon="-1.21158">
        <ele>55.4</ele>
        <time>2020-01-26T11:39:26Z</time>
      </trkpt>
      <trkpt lat="45.74284" lon="-1.21163">
        <ele>55.4</ele>
        <time>2020-01-26T11:39:27Z</time>
      </trkpt>
      <trkpt lat="45.7428" lon="-1.21166">
        <ele>55.2</ele>
        <time>2020-01-26T11:39:28Z</time>
      </trkpt>
      <trkpt lat="45.74275" lon="-1.21169">
        <ele>55.2</ele>
        <time>2020-01-26T11:39:29Z</time>
      </trkpt>
      <trkpt lat="45.7427" lon="-1.21172">
        <ele>55</ele>
        <time>2020-01-26T11:39:30Z</time>
      </trkpt>
      <trkpt lat="45.74266" lon="-1.21177">
        <ele>55</ele>
        <time>2020-01-26T11:39:31Z</time>
      </trkpt>
      <trkpt lat="45.74262" lon="-1.21183">
        <ele>55</ele>
        <time>2020-01-26T11:39:32Z</time>
      </trkpt>
      <trkpt lat="45.74258" lon="-1.21188">
        <ele>55.2</ele>
        <time>2020-01-26T11:39:33Z</time>
      </trkpt>
      <trkpt lat="45.7425" lon="-1.21186">
        <ele>54.8</ele>
        <time>2020-01-26T11:39:34Z</time>
      </trkpt>
      <trkpt lat="45.74245" lon="-1.21189">
        <ele>54.6</ele>
        <time>2020-01-26T11:39:35Z</time>
      </trkpt>
      <trkpt lat="45.7424" lon="-1.21192">
        <ele>54.6</ele>
        <time>2020-01-26T11:39:36Z</time>
      </trkpt>
      <trkpt lat="45.74234" lon="-1.21191">
        <ele>54.6</ele>
        <time>2020-01-26T11:39:37Z</time>
      </trkpt>
      <trkpt lat="45.74229" lon="-1.21192">
        <ele>54.2</ele>
        <time>2020-01-26T11:39:38Z</time>
      </trkpt>
      <trkpt lat="45.74224" lon="-1.21193">
        <ele>53.6</ele>
        <time>2020-01-26T11:39:39Z</time>
      </trkpt>
      <trkpt lat="45.7422" lon="-1.21195">
        <ele>53.4</ele>
        <time>2020-01-26T11:39:40Z</time>
      </trkpt>
      <trkpt lat="45.74215" lon="-1.21196">
        <ele>53.4</ele>
        <time>2020-01-26T11:39:41Z</time>
      </trkpt>
      <trkpt lat="45.7421" lon="-1.21194">
        <ele>52.6</ele>
        <time>2020-01-26T11:39:42Z</time>
      </trkpt>
      <trkpt lat="45.74205" lon="-1.21193">
        <ele>51.4</ele>
        <time>2020-01-26T11:39:43Z</time>
      </trkpt>
      <trkpt lat="45.742" lon="-1.21191">
        <ele>49.6</ele>
        <time>2020-01-26T11:39:44Z</time>
      </trkpt>
      <trkpt lat="45.74196" lon="-1.21193">
        <ele>48.2</ele>
        <time>2020-01-26T11:39:45Z</time>
      </trkpt>
      <trkpt lat="45.74192" lon="-1.21196">
        <ele>46.2</ele>
        <time>2020-01-26T11:39:46Z</time>
      </trkpt>
      <trkpt lat="45.74188" lon="-1.21197">
        <ele>44.4</ele>
        <time>2020-01-26T11:39:47Z</time>
      </trkpt>
      <trkpt lat="45.74183" lon="-1.21197">
        <ele>43.2</ele>
        <time>2020-01-26T11:39:48Z</time>
      </trkpt>
      <trkpt lat="45.74179" lon="-1.21197">
        <ele>42.6</ele>
        <time>2020-01-26T11:39:49Z</time>
      </trkpt>
      <trkpt lat="45.74174" lon="-1.21196">
        <ele>42.2</ele>
        <time>2020-01-26T11:39:50Z</time>
      </trkpt>
      <trkpt lat="45.7417" lon="-1.21196">
        <ele>42.2</ele>
        <time>2020-01-26T11:39:51Z</time>
      </trkpt>
      <trkpt lat="45.74167" lon="-1.21195">
        <ele>42.4</ele>
        <time>2020-01-26T11:39:52Z</time>
      </trkpt>
      <trkpt lat="45.74164" lon="-1.21194">
        <ele>42.6</ele>
        <time>2020-01-26T11:39:53Z</time>
      </trkpt>
      <trkpt lat="45.74159" lon="-1.21194">
        <ele>42.4</ele>
        <time>2020-01-26T11:39:54Z</time>
      </trkpt>
      <trkpt lat="45.74156" lon="-1.21193">
        <ele>42.2</ele>
        <time>2020-01-26T11:39:55Z</time>
      </trkpt>
      <trkpt lat="45.74152" lon="-1.21193">
        <ele>42.2</ele>
        <time>2020-01-26T11:39:56Z</time>
      </trkpt>
      <trkpt lat="45.74147" lon="-1.21192">
        <ele>42.2</ele>
        <time>2020-01-26T11:39:57Z</time>
      </trkpt>
      <trkpt lat="45.74144" lon="-1.21191">
        <ele>41.8</ele>
        <time>2020-01-26T11:39:58Z</time>
      </trkpt>
      <trkpt lat="45.74138" lon="-1.21192">
        <ele>41.6</ele>
        <time>2020-01-26T11:39:59Z</time>
      </trkpt>
      <trkpt lat="45.74133" lon="-1.2119">
        <ele>41.4</ele>
        <time>2020-01-26T11:40:00Z</time>
      </trkpt>
      <trkpt lat="45.74129" lon="-1.21189">
        <ele>41.4</ele>
        <time>2020-01-26T11:40:01Z</time>
      </trkpt>
      <trkpt lat="45.74125" lon="-1.21187">
        <ele>41</ele>
        <time>2020-01-26T11:40:02Z</time>
      </trkpt>
      <trkpt lat="45.7412" lon="-1.21189">
        <ele>40.8</ele>
        <time>2020-01-26T11:40:03Z</time>
      </trkpt>
      <trkpt lat="45.74116" lon="-1.21189">
        <ele>40.8</ele>
        <time>2020-01-26T11:40:04Z</time>
      </trkpt>
      <trkpt lat="45.74112" lon="-1.2119">
        <ele>40.8</ele>
        <time>2020-01-26T11:40:05Z</time>
      </trkpt>
      <trkpt lat="45.74107" lon="-1.2119">
        <ele>41.2</ele>
        <time>2020-01-26T11:40:06Z</time>
      </trkpt>
      <trkpt lat="45.74103" lon="-1.21191">
        <ele>41.6</ele>
        <time>2020-01-26T11:40:07Z</time>
      </trkpt>
      <trkpt lat="45.74099" lon="-1.21191">
        <ele>42</ele>
        <time>2020-01-26T11:40:08Z</time>
      </trkpt>
      <trkpt lat="45.74095" lon="-1.2119">
        <ele>42.2</ele>
        <time>2020-01-26T11:40:09Z</time>
      </trkpt>
      <trkpt lat="45.74091" lon="-1.21189">
        <ele>42.4</ele>
        <time>2020-01-26T11:40:10Z</time>
      </trkpt>
      <trkpt lat="45.74087" lon="-1.21189">
        <ele>42.6</ele>
        <time>2020-01-26T11:40:11Z</time>
      </trkpt>
      <trkpt lat="45.74083" lon="-1.21188">
        <ele>42.8</ele>
        <time>2020-01-26T11:40:12Z</time>
      </trkpt>
      <trkpt lat="45.74078" lon="-1.21188">
        <ele>43</ele>
        <time>2020-01-26T11:40:13Z</time>
      </trkpt>
      <trkpt lat="45.74076" lon="-1.21189">
        <ele>43.2</ele>
        <time>2020-01-26T11:40:14Z</time>
      </trkpt>
      <trkpt lat="45.74073" lon="-1.21187">
        <ele>43.2</ele>
        <time>2020-01-26T11:40:15Z</time>
      </trkpt>
      <trkpt lat="45.74069" lon="-1.21185">
        <ele>42.8</ele>
        <time>2020-01-26T11:40:16Z</time>
      </trkpt>
      <trkpt lat="45.74065" lon="-1.21183">
        <ele>42.4</ele>
        <time>2020-01-26T11:40:17Z</time>
      </trkpt>
      <trkpt lat="45.74061" lon="-1.21181">
        <ele>42.6</ele>
        <time>2020-01-26T11:40:18Z</time>
      </trkpt>
      <trkpt lat="45.74058" lon="-1.2118">
        <ele>42.4</ele>
        <time>2020-01-26T11:40:19Z</time>
      </trkpt>
      <trkpt lat="45.74052" lon="-1.21184">
        <ele>43</ele>
        <time>2020-01-26T11:40:20Z</time>
      </trkpt>
      <trkpt lat="45.74049" lon="-1.21185">
        <ele>43.2</ele>
        <time>2020-01-26T11:40:21Z</time>
      </trkpt>
      <trkpt lat="45.74042" lon="-1.21187">
        <ele>43.2</ele>
        <time>2020-01-26T11:40:22Z</time>
      </trkpt>
      <trkpt lat="45.74037" lon="-1.21188">
        <ele>43</ele>
        <time>2020-01-26T11:40:23Z</time>
      </trkpt>
      <trkpt lat="45.74031" lon="-1.21189">
        <ele>43</ele>
        <time>2020-01-26T11:40:24Z</time>
      </trkpt>
      <trkpt lat="45.74026" lon="-1.21191">
        <ele>43.8</ele>
        <time>2020-01-26T11:40:25Z</time>
      </trkpt>
      <trkpt lat="45.74021" lon="-1.21192">
        <ele>45.2</ele>
        <time>2020-01-26T11:40:26Z</time>
      </trkpt>
      <trkpt lat="45.74017" lon="-1.21193">
        <ele>46.8</ele>
        <time>2020-01-26T11:40:27Z</time>
      </trkpt>
      <trkpt lat="45.74015" lon="-1.21194">
        <ele>47.6</ele>
        <time>2020-01-26T11:40:28Z</time>
      </trkpt>
      <trkpt lat="45.74011" lon="-1.21193">
        <ele>48.6</ele>
        <time>2020-01-26T11:40:29Z</time>
      </trkpt>
      <trkpt lat="45.74008" lon="-1.21193">
        <ele>49.4</ele>
        <time>2020-01-26T11:40:30Z</time>
      </trkpt>
      <trkpt lat="45.74005" lon="-1.21193">
        <ele>50</ele>
        <time>2020-01-26T11:40:31Z</time>
      </trkpt>
      <trkpt lat="45.74002" lon="-1.21192">
        <ele>50.8</ele>
        <time>2020-01-26T11:40:32Z</time>
      </trkpt>
      <trkpt lat="45.73999" lon="-1.21191">
        <ele>51.4</ele>
        <time>2020-01-26T11:40:33Z</time>
      </trkpt>
      <trkpt lat="45.73995" lon="-1.2119">
        <ele>52.2</ele>
        <time>2020-01-26T11:40:34Z</time>
      </trkpt>
      <trkpt lat="45.7399" lon="-1.21188">
        <ele>52.4</ele>
        <time>2020-01-26T11:40:35Z</time>
      </trkpt>
      <trkpt lat="45.73986" lon="-1.21188">
        <ele>52.6</ele>
        <time>2020-01-26T11:40:36Z</time>
      </trkpt>
      <trkpt lat="45.73982" lon="-1.21186">
        <ele>52.4</ele>
        <time>2020-01-26T11:40:37Z</time>
      </trkpt>
      <trkpt lat="45.73978" lon="-1.2119">
        <ele>50</ele>
        <time>2020-01-26T11:40:38Z</time>
      </trkpt>
      <trkpt lat="45.73975" lon="-1.21188">
        <ele>47.8</ele>
        <time>2020-01-26T11:40:39Z</time>
      </trkpt>
      <trkpt lat="45.7397" lon="-1.21188">
        <ele>46.2</ele>
        <time>2020-01-26T11:40:40Z</time>
      </trkpt>
      <trkpt lat="45.73966" lon="-1.21187">
        <ele>45</ele>
        <time>2020-01-26T11:40:41Z</time>
      </trkpt>
      <trkpt lat="45.73962" lon="-1.21188">
        <ele>45</ele>
        <time>2020-01-26T11:40:42Z</time>
      </trkpt>
      <trkpt lat="45.73958" lon="-1.21188">
        <ele>45.2</ele>
        <time>2020-01-26T11:40:43Z</time>
      </trkpt>
      <trkpt lat="45.73955" lon="-1.21189">
        <ele>45.4</ele>
        <time>2020-01-26T11:40:44Z</time>
      </trkpt>
      <trkpt lat="45.73952" lon="-1.21191">
        <ele>45.6</ele>
        <time>2020-01-26T11:40:45Z</time>
      </trkpt>
      <trkpt lat="45.73949" lon="-1.21194">
        <ele>45.6</ele>
        <time>2020-01-26T11:40:46Z</time>
      </trkpt>
      <trkpt lat="45.73945" lon="-1.21199">
        <ele>45.8</ele>
        <time>2020-01-26T11:40:47Z</time>
      </trkpt>
      <trkpt lat="45.73941" lon="-1.21203">
        <ele>46</ele>
        <time>2020-01-26T11:40:48Z</time>
      </trkpt>
      <trkpt lat="45.73938" lon="-1.21207">
        <ele>46</ele>
        <time>2020-01-26T11:40:49Z</time>
      </trkpt>
      <trkpt lat="45.73934" lon="-1.21212">
        <ele>45.8</ele>
        <time>2020-01-26T11:40:50Z</time>
      </trkpt>
      <trkpt lat="45.7393" lon="-1.21217">
        <ele>45.2</ele>
        <time>2020-01-26T11:40:51Z</time>
      </trkpt>
      <trkpt lat="45.73927" lon="-1.21222">
        <ele>44.4</ele>
        <time>2020-01-26T11:40:52Z</time>
      </trkpt>
      <trkpt lat="45.73923" lon="-1.21226">
        <ele>43.8</ele>
        <time>2020-01-26T11:40:53Z</time>
      </trkpt>
      <trkpt lat="45.7392" lon="-1.21229">
        <ele>43.6</ele>
        <time>2020-01-26T11:40:54Z</time>
      </trkpt>
      <trkpt lat="45.73917" lon="-1.21233">
        <ele>43.2</ele>
        <time>2020-01-26T11:40:55Z</time>
      </trkpt>
      <trkpt lat="45.73915" lon="-1.21236">
        <ele>43</ele>
        <time>2020-01-26T11:40:56Z</time>
      </trkpt>
      <trkpt lat="45.73912" lon="-1.21236">
        <ele>43.8</ele>
        <time>2020-01-26T11:40:57Z</time>
      </trkpt>
      <trkpt lat="45.73909" lon="-1.21237">
        <ele>44.6</ele>
        <time>2020-01-26T11:40:58Z</time>
      </trkpt>
      <trkpt lat="45.73907" lon="-1.21237">
        <ele>45.6</ele>
        <time>2020-01-26T11:40:59Z</time>
      </trkpt>
      <trkpt lat="45.73905" lon="-1.21238">
        <ele>46.8</ele>
        <time>2020-01-26T11:41:00Z</time>
      </trkpt>
      <trkpt lat="45.73902" lon="-1.21237">
        <ele>47.6</ele>
        <time>2020-01-26T11:41:01Z</time>
      </trkpt>
      <trkpt lat="45.739" lon="-1.21237">
        <ele>48.2</ele>
        <time>2020-01-26T11:41:02Z</time>
      </trkpt>
      <trkpt lat="45.73898" lon="-1.21238">
        <ele>48.8</ele>
        <time>2020-01-26T11:41:03Z</time>
      </trkpt>
      <trkpt lat="45.73895" lon="-1.21237">
        <ele>49.4</ele>
        <time>2020-01-26T11:41:04Z</time>
      </trkpt>
      <trkpt lat="45.73893" lon="-1.21237">
        <ele>50</ele>
        <time>2020-01-26T11:41:05Z</time>
      </trkpt>
      <trkpt lat="45.73891" lon="-1.21237">
        <ele>50.6</ele>
        <time>2020-01-26T11:41:06Z</time>
      </trkpt>
      <trkpt lat="45.73889" lon="-1.21237">
        <ele>51.2</ele>
        <time>2020-01-26T11:41:07Z</time>
      </trkpt>
      <trkpt lat="45.73887" lon="-1.21237">
        <ele>52.2</ele>
        <time>2020-01-26T11:41:08Z</time>
      </trkpt>
      <trkpt lat="45.73885" lon="-1.21237">
        <ele>53.2</ele>
        <time>2020-01-26T11:41:09Z</time>
      </trkpt>
      <trkpt lat="45.73883" lon="-1.21237">
        <ele>53.8</ele>
        <time>2020-01-26T11:41:10Z</time>
      </trkpt>
      <trkpt lat="45.73882" lon="-1.21236">
        <ele>54.6</ele>
        <time>2020-01-26T11:41:11Z</time>
      </trkpt>
      <trkpt lat="45.7388" lon="-1.21236">
        <ele>55.6</ele>
        <time>2020-01-26T11:41:12Z</time>
      </trkpt>
      <trkpt lat="45.73878" lon="-1.21236">
        <ele>56.6</ele>
        <time>2020-01-26T11:41:13Z</time>
      </trkpt>
      <trkpt lat="45.73876" lon="-1.21235">
        <ele>57.8</ele>
        <time>2020-01-26T11:41:14Z</time>
      </trkpt>
      <trkpt lat="45.73874" lon="-1.21235">
        <ele>58.8</ele>
        <time>2020-01-26T11:41:15Z</time>
      </trkpt>
      <trkpt lat="45.73872" lon="-1.21235">
        <ele>59.4</ele>
        <time>2020-01-26T11:41:16Z</time>
      </trkpt>
      <trkpt lat="45.7387" lon="-1.21235">
        <ele>59.8</ele>
        <time>2020-01-26T11:41:17Z</time>
      </trkpt>
      <trkpt lat="45.73868" lon="-1.21235">
        <ele>60</ele>
        <time>2020-01-26T11:41:18Z</time>
      </trkpt>
      <trkpt lat="45.73866" lon="-1.21234">
        <ele>60.4</ele>
        <time>2020-01-26T11:41:19Z</time>
      </trkpt>
      <trkpt lat="45.73864" lon="-1.21234">
        <ele>61</ele>
        <time>2020-01-26T11:41:20Z</time>
      </trkpt>
      <trkpt lat="45.73862" lon="-1.21233">
        <ele>61.8</ele>
        <time>2020-01-26T11:41:21Z</time>
      </trkpt>
      <trkpt lat="45.73861" lon="-1.21233">
        <ele>62.4</ele>
        <time>2020-01-26T11:41:22Z</time>
      </trkpt>
      <trkpt lat="45.73859" lon="-1.21232">
        <ele>63.4</ele>
        <time>2020-01-26T11:41:23Z</time>
      </trkpt>
      <trkpt lat="45.73857" lon="-1.21231">
        <ele>64.4</ele>
        <time>2020-01-26T11:41:24Z</time>
      </trkpt>
      <trkpt lat="45.73855" lon="-1.2123">
        <ele>65.4</ele>
        <time>2020-01-26T11:41:25Z</time>
      </trkpt>
      <trkpt lat="45.73854" lon="-1.21229">
        <ele>66</ele>
        <time>2020-01-26T11:41:26Z</time>
      </trkpt>
      <trkpt lat="45.73852" lon="-1.21228">
        <ele>66.6</ele>
        <time>2020-01-26T11:41:27Z</time>
      </trkpt>
      <trkpt lat="45.73851" lon="-1.21227">
        <ele>66.8</ele>
        <time>2020-01-26T11:41:28Z</time>
      </trkpt>
      <trkpt lat="45.73851" lon="-1.21227">
        <ele>67.2</ele>
        <time>2020-01-26T11:41:29Z</time>
      </trkpt>
      <trkpt lat="45.73849" lon="-1.21226">
        <ele>67.4</ele>
        <time>2020-01-26T11:41:30Z</time>
      </trkpt>
      <trkpt lat="45.73848" lon="-1.21226">
        <ele>67.6</ele>
        <time>2020-01-26T11:41:31Z</time>
      </trkpt>
      <trkpt lat="45.73846" lon="-1.21225">
        <ele>67.6</ele>
        <time>2020-01-26T11:41:32Z</time>
      </trkpt>
      <trkpt lat="45.73845" lon="-1.21223">
        <ele>68</ele>
        <time>2020-01-26T11:41:33Z</time>
      </trkpt>
      <trkpt lat="45.73843" lon="-1.21222">
        <ele>68.2</ele>
        <time>2020-01-26T11:41:34Z</time>
      </trkpt>
      <trkpt lat="45.73841" lon="-1.21222">
        <ele>68</ele>
        <time>2020-01-26T11:41:35Z</time>
      </trkpt>
      <trkpt lat="45.7384" lon="-1.21222">
        <ele>67.6</ele>
        <time>2020-01-26T11:41:36Z</time>
      </trkpt>
      <trkpt lat="45.73837" lon="-1.21222">
        <ele>67.8</ele>
        <time>2020-01-26T11:41:37Z</time>
      </trkpt>
      <trkpt lat="45.73836" lon="-1.21222">
        <ele>67.8</ele>
        <time>2020-01-26T11:41:38Z</time>
      </trkpt>
      <trkpt lat="45.73834" lon="-1.21221">
        <ele>67.8</ele>
        <time>2020-01-26T11:41:39Z</time>
      </trkpt>
      <trkpt lat="45.73832" lon="-1.2122">
        <ele>68.2</ele>
        <time>2020-01-26T11:41:40Z</time>
      </trkpt>
      <trkpt lat="45.7383" lon="-1.2122">
        <ele>68.2</ele>
        <time>2020-01-26T11:41:41Z</time>
      </trkpt>
      <trkpt lat="45.73828" lon="-1.21219">
        <ele>68.4</ele>
        <time>2020-01-26T11:41:42Z</time>
      </trkpt>
      <trkpt lat="45.73826" lon="-1.21218">
        <ele>68.6</ele>
        <time>2020-01-26T11:41:43Z</time>
      </trkpt>
      <trkpt lat="45.73823" lon="-1.21218">
        <ele>68.6</ele>
        <time>2020-01-26T11:41:44Z</time>
      </trkpt>
      <trkpt lat="45.73821" lon="-1.21218">
        <ele>68.8</ele>
        <time>2020-01-26T11:41:45Z</time>
      </trkpt>
      <trkpt lat="45.73817" lon="-1.21219">
        <ele>68.6</ele>
        <time>2020-01-26T11:41:46Z</time>
      </trkpt>
      <trkpt lat="45.73814" lon="-1.21218">
        <ele>68.4</ele>
        <time>2020-01-26T11:41:47Z</time>
      </trkpt>
      <trkpt lat="45.73811" lon="-1.21217">
        <ele>68</ele>
        <time>2020-01-26T11:41:48Z</time>
      </trkpt>
      <trkpt lat="45.73807" lon="-1.21217">
        <ele>67.8</ele>
        <time>2020-01-26T11:41:49Z</time>
      </trkpt>
      <trkpt lat="45.73804" lon="-1.21218">
        <ele>67.6</ele>
        <time>2020-01-26T11:41:50Z</time>
      </trkpt>
      <trkpt lat="45.738" lon="-1.21218">
        <ele>67.2</ele>
        <time>2020-01-26T11:41:51Z</time>
      </trkpt>
      <trkpt lat="45.73796" lon="-1.21219">
        <ele>66.8</ele>
        <time>2020-01-26T11:41:52Z</time>
      </trkpt>
      <trkpt lat="45.73793" lon="-1.2122">
        <ele>66.6</ele>
        <time>2020-01-26T11:41:53Z</time>
      </trkpt>
      <trkpt lat="45.73789" lon="-1.21221">
        <ele>66.2</ele>
        <time>2020-01-26T11:41:54Z</time>
      </trkpt>
      <trkpt lat="45.73783" lon="-1.21223">
        <ele>65.4</ele>
        <time>2020-01-26T11:41:55Z</time>
      </trkpt>
      <trkpt lat="45.73778" lon="-1.21224">
        <ele>64.6</ele>
        <time>2020-01-26T11:41:56Z</time>
      </trkpt>
      <trkpt lat="45.73772" lon="-1.21226">
        <ele>64.2</ele>
        <time>2020-01-26T11:41:57Z</time>
      </trkpt>
      <trkpt lat="45.73766" lon="-1.21226">
        <ele>64.2</ele>
        <time>2020-01-26T11:41:58Z</time>
      </trkpt>
      <trkpt lat="45.7376" lon="-1.21227">
        <ele>64.4</ele>
        <time>2020-01-26T11:41:59Z</time>
      </trkpt>
      <trkpt lat="45.73754" lon="-1.2123">
        <ele>64</ele>
        <time>2020-01-26T11:42:00Z</time>
      </trkpt>
      <trkpt lat="45.73748" lon="-1.21231">
        <ele>63.8</ele>
        <time>2020-01-26T11:42:01Z</time>
      </trkpt>
      <trkpt lat="45.73743" lon="-1.21231">
        <ele>63.6</ele>
        <time>2020-01-26T11:42:02Z</time>
      </trkpt>
      <trkpt lat="45.73738" lon="-1.21232">
        <ele>63.4</ele>
        <time>2020-01-26T11:42:03Z</time>
      </trkpt>
      <trkpt lat="45.73733" lon="-1.21232">
        <ele>63.6</ele>
        <time>2020-01-26T11:42:04Z</time>
      </trkpt>
      <trkpt lat="45.73728" lon="-1.21235">
        <ele>63.6</ele>
        <time>2020-01-26T11:42:05Z</time>
      </trkpt>
      <trkpt lat="45.73724" lon="-1.21237">
        <ele>64</ele>
        <time>2020-01-26T11:42:06Z</time>
      </trkpt>
      <trkpt lat="45.73718" lon="-1.2124">
        <ele>64</ele>
        <time>2020-01-26T11:42:07Z</time>
      </trkpt>
      <trkpt lat="45.73714" lon="-1.21242">
        <ele>64</ele>
        <time>2020-01-26T11:42:08Z</time>
      </trkpt>
      <trkpt lat="45.73709" lon="-1.21244">
        <ele>64</ele>
        <time>2020-01-26T11:42:09Z</time>
      </trkpt>
      <trkpt lat="45.73702" lon="-1.21244">
        <ele>63.4</ele>
        <time>2020-01-26T11:42:10Z</time>
      </trkpt>
      <trkpt lat="45.73696" lon="-1.21246">
        <ele>63.2</ele>
        <time>2020-01-26T11:42:11Z</time>
      </trkpt>
      <trkpt lat="45.73688" lon="-1.21247">
        <ele>62.8</ele>
        <time>2020-01-26T11:42:12Z</time>
      </trkpt>
      <trkpt lat="45.73681" lon="-1.21248">
        <ele>62.6</ele>
        <time>2020-01-26T11:42:13Z</time>
      </trkpt>
      <trkpt lat="45.73675" lon="-1.2125">
        <ele>62.8</ele>
        <time>2020-01-26T11:42:14Z</time>
      </trkpt>
      <trkpt lat="45.73668" lon="-1.21251">
        <ele>62.8</ele>
        <time>2020-01-26T11:42:15Z</time>
      </trkpt>
      <trkpt lat="45.73661" lon="-1.21252">
        <ele>62.8</ele>
        <time>2020-01-26T11:42:16Z</time>
      </trkpt>
      <trkpt lat="45.73657" lon="-1.21254">
        <ele>63.4</ele>
        <time>2020-01-26T11:42:17Z</time>
      </trkpt>
      <trkpt lat="45.73653" lon="-1.21255">
        <ele>63.6</ele>
        <time>2020-01-26T11:42:18Z</time>
      </trkpt>
      <trkpt lat="45.73648" lon="-1.21256">
        <ele>63.4</ele>
        <time>2020-01-26T11:42:19Z</time>
      </trkpt>
      <trkpt lat="45.73643" lon="-1.21257">
        <ele>63.2</ele>
        <time>2020-01-26T11:42:20Z</time>
      </trkpt>
      <trkpt lat="45.73639" lon="-1.2126">
        <ele>62.4</ele>
        <time>2020-01-26T11:42:21Z</time>
      </trkpt>
      <trkpt lat="45.73635" lon="-1.2126">
        <ele>61.6</ele>
        <time>2020-01-26T11:42:22Z</time>
      </trkpt>
      <trkpt lat="45.7363" lon="-1.21261">
        <ele>61.2</ele>
        <time>2020-01-26T11:42:23Z</time>
      </trkpt>
      <trkpt lat="45.73626" lon="-1.21263">
        <ele>61</ele>
        <time>2020-01-26T11:42:24Z</time>
      </trkpt>
      <trkpt lat="45.73621" lon="-1.21263">
        <ele>60.4</ele>
        <time>2020-01-26T11:42:25Z</time>
      </trkpt>
      <trkpt lat="45.73616" lon="-1.21264">
        <ele>60</ele>
        <time>2020-01-26T11:42:26Z</time>
      </trkpt>
      <trkpt lat="45.73613" lon="-1.21264">
        <ele>59.8</ele>
        <time>2020-01-26T11:42:27Z</time>
      </trkpt>
      <trkpt lat="45.73609" lon="-1.21266">
        <ele>59.4</ele>
        <time>2020-01-26T11:42:28Z</time>
      </trkpt>
      <trkpt lat="45.73605" lon="-1.21266">
        <ele>59</ele>
        <time>2020-01-26T11:42:29Z</time>
      </trkpt>
      <trkpt lat="45.73602" lon="-1.21266">
        <ele>59</ele>
        <time>2020-01-26T11:42:30Z</time>
      </trkpt>
      <trkpt lat="45.73598" lon="-1.21267">
        <ele>59</ele>
        <time>2020-01-26T11:42:31Z</time>
      </trkpt>
      <trkpt lat="45.73594" lon="-1.21268">
        <ele>59.2</ele>
        <time>2020-01-26T11:42:32Z</time>
      </trkpt>
      <trkpt lat="45.7359" lon="-1.21268">
        <ele>59.4</ele>
        <time>2020-01-26T11:42:33Z</time>
      </trkpt>
      <trkpt lat="45.73587" lon="-1.21269">
        <ele>59.4</ele>
        <time>2020-01-26T11:42:34Z</time>
      </trkpt>
      <trkpt lat="45.73583" lon="-1.2127">
        <ele>59.2</ele>
        <time>2020-01-26T11:42:35Z</time>
      </trkpt>
      <trkpt lat="45.73579" lon="-1.21272">
        <ele>59.4</ele>
        <time>2020-01-26T11:42:36Z</time>
      </trkpt>
      <trkpt lat="45.73576" lon="-1.21274">
        <ele>59.6</ele>
        <time>2020-01-26T11:42:37Z</time>
      </trkpt>
      <trkpt lat="45.73573" lon="-1.21276">
        <ele>59.6</ele>
        <time>2020-01-26T11:42:38Z</time>
      </trkpt>
      <trkpt lat="45.7357" lon="-1.21278">
        <ele>60</ele>
        <time>2020-01-26T11:42:39Z</time>
      </trkpt>
      <trkpt lat="45.73566" lon="-1.2128">
        <ele>60</ele>
        <time>2020-01-26T11:42:40Z</time>
      </trkpt>
      <trkpt lat="45.73562" lon="-1.21281">
        <ele>60</ele>
        <time>2020-01-26T11:42:41Z</time>
      </trkpt>
      <trkpt lat="45.73557" lon="-1.21285">
        <ele>60.2</ele>
        <time>2020-01-26T11:42:42Z</time>
      </trkpt>
      <trkpt lat="45.73553" lon="-1.21287">
        <ele>60.4</ele>
        <time>2020-01-26T11:42:43Z</time>
      </trkpt>
      <trkpt lat="45.73548" lon="-1.2129">
        <ele>60</ele>
        <time>2020-01-26T11:42:44Z</time>
      </trkpt>
      <trkpt lat="45.73544" lon="-1.21294">
        <ele>59.8</ele>
        <time>2020-01-26T11:42:45Z</time>
      </trkpt>
      <trkpt lat="45.73538" lon="-1.21295">
        <ele>59.4</ele>
        <time>2020-01-26T11:42:46Z</time>
      </trkpt>
      <trkpt lat="45.73533" lon="-1.21298">
        <ele>59</ele>
        <time>2020-01-26T11:42:47Z</time>
      </trkpt>
      <trkpt lat="45.73528" lon="-1.21299">
        <ele>58.2</ele>
        <time>2020-01-26T11:42:48Z</time>
      </trkpt>
      <trkpt lat="45.73521" lon="-1.21301">
        <ele>57.6</ele>
        <time>2020-01-26T11:42:49Z</time>
      </trkpt>
      <trkpt lat="45.73515" lon="-1.21302">
        <ele>57</ele>
        <time>2020-01-26T11:42:50Z</time>
      </trkpt>
      <trkpt lat="45.7351" lon="-1.21303">
        <ele>56.6</ele>
        <time>2020-01-26T11:42:51Z</time>
      </trkpt>
      <trkpt lat="45.73505" lon="-1.21304">
        <ele>56</ele>
        <time>2020-01-26T11:42:52Z</time>
      </trkpt>
      <trkpt lat="45.73502" lon="-1.21307">
        <ele>54.8</ele>
        <time>2020-01-26T11:42:53Z</time>
      </trkpt>
      <trkpt lat="45.73496" lon="-1.21308">
        <ele>53.8</ele>
        <time>2020-01-26T11:42:54Z</time>
      </trkpt>
      <trkpt lat="45.7349" lon="-1.21311">
        <ele>53.4</ele>
        <time>2020-01-26T11:42:55Z</time>
      </trkpt>
      <trkpt lat="45.73484" lon="-1.21312">
        <ele>53.8</ele>
        <time>2020-01-26T11:42:56Z</time>
      </trkpt>
      <trkpt lat="45.73479" lon="-1.21312">
        <ele>54.4</ele>
        <time>2020-01-26T11:42:57Z</time>
      </trkpt>
      <trkpt lat="45.73475" lon="-1.21312">
        <ele>54.8</ele>
        <time>2020-01-26T11:42:58Z</time>
      </trkpt>
      <trkpt lat="45.73471" lon="-1.21312">
        <ele>55.4</ele>
        <time>2020-01-26T11:42:59Z</time>
      </trkpt>
      <trkpt lat="45.73466" lon="-1.2131">
        <ele>55.8</ele>
        <time>2020-01-26T11:43:00Z</time>
      </trkpt>
      <trkpt lat="45.73462" lon="-1.21307">
        <ele>56</ele>
        <time>2020-01-26T11:43:01Z</time>
      </trkpt>
      <trkpt lat="45.73457" lon="-1.21303">
        <ele>56</ele>
        <time>2020-01-26T11:43:02Z</time>
      </trkpt>
      <trkpt lat="45.73453" lon="-1.213">
        <ele>55.8</ele>
        <time>2020-01-26T11:43:03Z</time>
      </trkpt>
      <trkpt lat="45.73449" lon="-1.21298">
        <ele>55.6</ele>
        <time>2020-01-26T11:43:04Z</time>
      </trkpt>
      <trkpt lat="45.73444" lon="-1.21295">
        <ele>55.4</ele>
        <time>2020-01-26T11:43:05Z</time>
      </trkpt>
      <trkpt lat="45.73441" lon="-1.21292">
        <ele>55.4</ele>
        <time>2020-01-26T11:43:06Z</time>
      </trkpt>
      <trkpt lat="45.73437" lon="-1.2129">
        <ele>55</ele>
        <time>2020-01-26T11:43:07Z</time>
      </trkpt>
      <trkpt lat="45.73432" lon="-1.21288">
        <ele>55.2</ele>
        <time>2020-01-26T11:43:08Z</time>
      </trkpt>
      <trkpt lat="45.73428" lon="-1.21288">
        <ele>55.4</ele>
        <time>2020-01-26T11:43:09Z</time>
      </trkpt>
      <trkpt lat="45.73424" lon="-1.21288">
        <ele>55.4</ele>
        <time>2020-01-26T11:43:10Z</time>
      </trkpt>
      <trkpt lat="45.7342" lon="-1.21288">
        <ele>55</ele>
        <time>2020-01-26T11:43:11Z</time>
      </trkpt>
      <trkpt lat="45.73415" lon="-1.21289">
        <ele>54.8</ele>
        <time>2020-01-26T11:43:12Z</time>
      </trkpt>
      <trkpt lat="45.73411" lon="-1.2129">
        <ele>54</ele>
        <time>2020-01-26T11:43:13Z</time>
      </trkpt>
      <trkpt lat="45.73406" lon="-1.2129">
        <ele>53.6</ele>
        <time>2020-01-26T11:43:14Z</time>
      </trkpt>
      <trkpt lat="45.73401" lon="-1.2129">
        <ele>53.6</ele>
        <time>2020-01-26T11:43:15Z</time>
      </trkpt>
      <trkpt lat="45.73396" lon="-1.21291">
        <ele>54</ele>
        <time>2020-01-26T11:43:16Z</time>
      </trkpt>
      <trkpt lat="45.73391" lon="-1.21292">
        <ele>54.6</ele>
        <time>2020-01-26T11:43:17Z</time>
      </trkpt>
      <trkpt lat="45.73386" lon="-1.21291">
        <ele>54.8</ele>
        <time>2020-01-26T11:43:18Z</time>
      </trkpt>
      <trkpt lat="45.73381" lon="-1.21292">
        <ele>55</ele>
        <time>2020-01-26T11:43:19Z</time>
      </trkpt>
      <trkpt lat="45.73376" lon="-1.21292">
        <ele>55.2</ele>
        <time>2020-01-26T11:43:20Z</time>
      </trkpt>
      <trkpt lat="45.73372" lon="-1.21291">
        <ele>55.6</ele>
        <time>2020-01-26T11:43:21Z</time>
      </trkpt>
      <trkpt lat="45.73367" lon="-1.21292">
        <ele>56.2</ele>
        <time>2020-01-26T11:43:22Z</time>
      </trkpt>
      <trkpt lat="45.73362" lon="-1.21292">
        <ele>57</ele>
        <time>2020-01-26T11:43:23Z</time>
      </trkpt>
      <trkpt lat="45.73358" lon="-1.21293">
        <ele>58</ele>
        <time>2020-01-26T11:43:24Z</time>
      </trkpt>
      <trkpt lat="45.73354" lon="-1.21294">
        <ele>58.4</ele>
        <time>2020-01-26T11:43:25Z</time>
      </trkpt>
      <trkpt lat="45.73351" lon="-1.21294">
        <ele>58.4</ele>
        <time>2020-01-26T11:43:26Z</time>
      </trkpt>
      <trkpt lat="45.73348" lon="-1.21294">
        <ele>58</ele>
        <time>2020-01-26T11:43:27Z</time>
      </trkpt>
      <trkpt lat="45.73344" lon="-1.21294">
        <ele>57</ele>
        <time>2020-01-26T11:43:28Z</time>
      </trkpt>
      <trkpt lat="45.73341" lon="-1.21293">
        <ele>56</ele>
        <time>2020-01-26T11:43:29Z</time>
      </trkpt>
      <trkpt lat="45.73336" lon="-1.21294">
        <ele>55.8</ele>
        <time>2020-01-26T11:43:30Z</time>
      </trkpt>
      <trkpt lat="45.73333" lon="-1.21294">
        <ele>55.6</ele>
        <time>2020-01-26T11:43:31Z</time>
      </trkpt>
      <trkpt lat="45.7333" lon="-1.21295">
        <ele>55.4</ele>
        <time>2020-01-26T11:43:32Z</time>
      </trkpt>
      <trkpt lat="45.73326" lon="-1.21295">
        <ele>55.6</ele>
        <time>2020-01-26T11:43:33Z</time>
      </trkpt>
      <trkpt lat="45.73323" lon="-1.21295">
        <ele>55.6</ele>
        <time>2020-01-26T11:43:34Z</time>
      </trkpt>
      <trkpt lat="45.73319" lon="-1.21295">
        <ele>55.8</ele>
        <time>2020-01-26T11:43:35Z</time>
      </trkpt>
      <trkpt lat="45.73316" lon="-1.21295">
        <ele>55.8</ele>
        <time>2020-01-26T11:43:36Z</time>
      </trkpt>
      <trkpt lat="45.73314" lon="-1.21297">
        <ele>55.8</ele>
        <time>2020-01-26T11:43:37Z</time>
      </trkpt>
      <trkpt lat="45.73312" lon="-1.21298">
        <ele>55.6</ele>
        <time>2020-01-26T11:43:38Z</time>
      </trkpt>
      <trkpt lat="45.7331" lon="-1.21298">
        <ele>55</ele>
        <time>2020-01-26T11:43:39Z</time>
      </trkpt>
      <trkpt lat="45.73307" lon="-1.21297">
        <ele>54.8</ele>
        <time>2020-01-26T11:43:40Z</time>
      </trkpt>
      <trkpt lat="45.73304" lon="-1.21297">
        <ele>54.2</ele>
        <time>2020-01-26T11:43:41Z</time>
      </trkpt>
      <trkpt lat="45.73302" lon="-1.21297">
        <ele>54</ele>
        <time>2020-01-26T11:43:42Z</time>
      </trkpt>
      <trkpt lat="45.733" lon="-1.21295">
        <ele>53.8</ele>
        <time>2020-01-26T11:43:43Z</time>
      </trkpt>
      <trkpt lat="45.73298" lon="-1.21295">
        <ele>53.8</ele>
        <time>2020-01-26T11:43:44Z</time>
      </trkpt>
      <trkpt lat="45.73294" lon="-1.21296">
        <ele>53.8</ele>
        <time>2020-01-26T11:43:45Z</time>
      </trkpt>
      <trkpt lat="45.73291" lon="-1.21297">
        <ele>53.6</ele>
        <time>2020-01-26T11:43:46Z</time>
      </trkpt>
      <trkpt lat="45.73288" lon="-1.21298">
        <ele>53.4</ele>
        <time>2020-01-26T11:43:47Z</time>
      </trkpt>
      <trkpt lat="45.73285" lon="-1.21297">
        <ele>53.6</ele>
        <time>2020-01-26T11:43:48Z</time>
      </trkpt>
      <trkpt lat="45.73281" lon="-1.21297">
        <ele>54</ele>
        <time>2020-01-26T11:43:49Z</time>
      </trkpt>
      <trkpt lat="45.73277" lon="-1.21293">
        <ele>54.2</ele>
        <time>2020-01-26T11:43:50Z</time>
      </trkpt>
      <trkpt lat="45.73273" lon="-1.21291">
        <ele>54.6</ele>
        <time>2020-01-26T11:43:51Z</time>
      </trkpt>
      <trkpt lat="45.7327" lon="-1.2129">
        <ele>55</ele>
        <time>2020-01-26T11:43:52Z</time>
      </trkpt>
      <trkpt lat="45.73267" lon="-1.21288">
        <ele>56</ele>
        <time>2020-01-26T11:43:53Z</time>
      </trkpt>
      <trkpt lat="45.73264" lon="-1.21287">
        <ele>56.8</ele>
        <time>2020-01-26T11:43:54Z</time>
      </trkpt>
      <trkpt lat="45.7326" lon="-1.21286">
        <ele>57.4</ele>
        <time>2020-01-26T11:43:55Z</time>
      </trkpt>
      <trkpt lat="45.73256" lon="-1.21285">
        <ele>58</ele>
        <time>2020-01-26T11:43:56Z</time>
      </trkpt>
      <trkpt lat="45.73253" lon="-1.21283">
        <ele>57.8</ele>
        <time>2020-01-26T11:43:57Z</time>
      </trkpt>
      <trkpt lat="45.73248" lon="-1.21281">
        <ele>57.6</ele>
        <time>2020-01-26T11:43:58Z</time>
      </trkpt>
      <trkpt lat="45.73243" lon="-1.21279">
        <ele>57.4</ele>
        <time>2020-01-26T11:43:59Z</time>
      </trkpt>
      <trkpt lat="45.73237" lon="-1.21276">
        <ele>57.6</ele>
        <time>2020-01-26T11:44:00Z</time>
      </trkpt>
      <trkpt lat="45.73231" lon="-1.21275">
        <ele>57.6</ele>
        <time>2020-01-26T11:44:01Z</time>
      </trkpt>
      <trkpt lat="45.73224" lon="-1.21273">
        <ele>57.8</ele>
        <time>2020-01-26T11:44:02Z</time>
      </trkpt>
      <trkpt lat="45.73219" lon="-1.21271">
        <ele>57.8</ele>
        <time>2020-01-26T11:44:03Z</time>
      </trkpt>
      <trkpt lat="45.73215" lon="-1.21269">
        <ele>58.4</ele>
        <time>2020-01-26T11:44:04Z</time>
      </trkpt>
      <trkpt lat="45.73212" lon="-1.21267">
        <ele>59</ele>
        <time>2020-01-26T11:44:05Z</time>
      </trkpt>
      <trkpt lat="45.73208" lon="-1.21266">
        <ele>59.8</ele>
        <time>2020-01-26T11:44:06Z</time>
      </trkpt>
      <trkpt lat="45.73204" lon="-1.21264">
        <ele>60.4</ele>
        <time>2020-01-26T11:44:07Z</time>
      </trkpt>
      <trkpt lat="45.732" lon="-1.21262">
        <ele>60.8</ele>
        <time>2020-01-26T11:44:08Z</time>
      </trkpt>
      <trkpt lat="45.73196" lon="-1.21261">
        <ele>61.4</ele>
        <time>2020-01-26T11:44:09Z</time>
      </trkpt>
      <trkpt lat="45.73193" lon="-1.21259">
        <ele>62.2</ele>
        <time>2020-01-26T11:44:10Z</time>
      </trkpt>
      <trkpt lat="45.73188" lon="-1.21257">
        <ele>63.2</ele>
        <time>2020-01-26T11:44:11Z</time>
      </trkpt>
      <trkpt lat="45.73183" lon="-1.21255">
        <ele>64</ele>
        <time>2020-01-26T11:44:12Z</time>
      </trkpt>
      <trkpt lat="45.7318" lon="-1.21254">
        <ele>64.4</ele>
        <time>2020-01-26T11:44:13Z</time>
      </trkpt>
      <trkpt lat="45.73174" lon="-1.21251">
        <ele>65</ele>
        <time>2020-01-26T11:44:14Z</time>
      </trkpt>
      <trkpt lat="45.73168" lon="-1.21249">
        <ele>65</ele>
        <time>2020-01-26T11:44:15Z</time>
      </trkpt>
      <trkpt lat="45.73162" lon="-1.21246">
        <ele>64.8</ele>
        <time>2020-01-26T11:44:16Z</time>
      </trkpt>
      <trkpt lat="45.73158" lon="-1.21246">
        <ele>64.8</ele>
        <time>2020-01-26T11:44:17Z</time>
      </trkpt>
      <trkpt lat="45.73154" lon="-1.21245">
        <ele>64.8</ele>
        <time>2020-01-26T11:44:18Z</time>
      </trkpt>
      <trkpt lat="45.73151" lon="-1.21245">
        <ele>64.8</ele>
        <time>2020-01-26T11:44:19Z</time>
      </trkpt>
      <trkpt lat="45.73147" lon="-1.21245">
        <ele>64.6</ele>
        <time>2020-01-26T11:44:20Z</time>
      </trkpt>
      <trkpt lat="45.73144" lon="-1.21245">
        <ele>64.4</ele>
        <time>2020-01-26T11:44:21Z</time>
      </trkpt>
      <trkpt lat="45.73141" lon="-1.21245">
        <ele>63.8</ele>
        <time>2020-01-26T11:44:22Z</time>
      </trkpt>
      <trkpt lat="45.73137" lon="-1.21246">
        <ele>63.4</ele>
        <time>2020-01-26T11:44:23Z</time>
      </trkpt>
      <trkpt lat="45.73133" lon="-1.21247">
        <ele>62.4</ele>
        <time>2020-01-26T11:44:24Z</time>
      </trkpt>
      <trkpt lat="45.73129" lon="-1.21249">
        <ele>61.6</ele>
        <time>2020-01-26T11:44:25Z</time>
      </trkpt>
      <trkpt lat="45.73124" lon="-1.21252">
        <ele>60.4</ele>
        <time>2020-01-26T11:44:26Z</time>
      </trkpt>
      <trkpt lat="45.73119" lon="-1.21254">
        <ele>59.6</ele>
        <time>2020-01-26T11:44:27Z</time>
      </trkpt>
      <trkpt lat="45.73112" lon="-1.21258">
        <ele>58.6</ele>
        <time>2020-01-26T11:44:28Z</time>
      </trkpt>
      <trkpt lat="45.73106" lon="-1.21261">
        <ele>58</ele>
        <time>2020-01-26T11:44:29Z</time>
      </trkpt>
      <trkpt lat="45.73099" lon="-1.21265">
        <ele>57.8</ele>
        <time>2020-01-26T11:44:30Z</time>
      </trkpt>
      <trkpt lat="45.73093" lon="-1.21268">
        <ele>57.8</ele>
        <time>2020-01-26T11:44:31Z</time>
      </trkpt>
      <trkpt lat="45.73087" lon="-1.21272">
        <ele>58.2</ele>
        <time>2020-01-26T11:44:32Z</time>
      </trkpt>
      <trkpt lat="45.73081" lon="-1.21275">
        <ele>58.4</ele>
        <time>2020-01-26T11:44:33Z</time>
      </trkpt>
      <trkpt lat="45.73074" lon="-1.21277">
        <ele>58.4</ele>
        <time>2020-01-26T11:44:34Z</time>
      </trkpt>
      <trkpt lat="45.73068" lon="-1.21278">
        <ele>58.4</ele>
        <time>2020-01-26T11:44:35Z</time>
      </trkpt>
      <trkpt lat="45.73064" lon="-1.21281">
        <ele>58</ele>
        <time>2020-01-26T11:44:36Z</time>
      </trkpt>
      <trkpt lat="45.73057" lon="-1.21285">
        <ele>57.6</ele>
        <time>2020-01-26T11:44:37Z</time>
      </trkpt>
      <trkpt lat="45.73052" lon="-1.21288">
        <ele>57.4</ele>
        <time>2020-01-26T11:44:38Z</time>
      </trkpt>
      <trkpt lat="45.73048" lon="-1.21291">
        <ele>57.4</ele>
        <time>2020-01-26T11:44:39Z</time>
      </trkpt>
      <trkpt lat="45.73043" lon="-1.21293">
        <ele>57.8</ele>
        <time>2020-01-26T11:44:40Z</time>
      </trkpt>
      <trkpt lat="45.73038" lon="-1.21295">
        <ele>58.4</ele>
        <time>2020-01-26T11:44:41Z</time>
      </trkpt>
      <trkpt lat="45.73034" lon="-1.21297">
        <ele>58.8</ele>
        <time>2020-01-26T11:44:42Z</time>
      </trkpt>
      <trkpt lat="45.7303" lon="-1.21299">
        <ele>59</ele>
        <time>2020-01-26T11:44:43Z</time>
      </trkpt>
      <trkpt lat="45.73026" lon="-1.213">
        <ele>59.6</ele>
        <time>2020-01-26T11:44:44Z</time>
      </trkpt>
      <trkpt lat="45.73023" lon="-1.21303">
        <ele>60</ele>
        <time>2020-01-26T11:44:45Z</time>
      </trkpt>
      <trkpt lat="45.73021" lon="-1.21304">
        <ele>60.4</ele>
        <time>2020-01-26T11:44:46Z</time>
      </trkpt>
      <trkpt lat="45.73018" lon="-1.21306">
        <ele>60.6</ele>
        <time>2020-01-26T11:44:47Z</time>
      </trkpt>
      <trkpt lat="45.73015" lon="-1.21307">
        <ele>60.6</ele>
        <time>2020-01-26T11:44:48Z</time>
      </trkpt>
      <trkpt lat="45.73012" lon="-1.21309">
        <ele>60.8</ele>
        <time>2020-01-26T11:44:49Z</time>
      </trkpt>
      <trkpt lat="45.73008" lon="-1.2131">
        <ele>61</ele>
        <time>2020-01-26T11:44:50Z</time>
      </trkpt>
      <trkpt lat="45.73005" lon="-1.2131">
        <ele>61</ele>
        <time>2020-01-26T11:44:51Z</time>
      </trkpt>
      <trkpt lat="45.73003" lon="-1.21311">
        <ele>61.2</ele>
        <time>2020-01-26T11:44:52Z</time>
      </trkpt>
      <trkpt lat="45.73" lon="-1.21312">
        <ele>61.2</ele>
        <time>2020-01-26T11:44:53Z</time>
      </trkpt>
      <trkpt lat="45.72997" lon="-1.21313">
        <ele>61.4</ele>
        <time>2020-01-26T11:44:54Z</time>
      </trkpt>
      <trkpt lat="45.72994" lon="-1.21313">
        <ele>61.8</ele>
        <time>2020-01-26T11:44:55Z</time>
      </trkpt>
      <trkpt lat="45.72991" lon="-1.21314">
        <ele>62.2</ele>
        <time>2020-01-26T11:44:56Z</time>
      </trkpt>
      <trkpt lat="45.72989" lon="-1.21315">
        <ele>62.6</ele>
        <time>2020-01-26T11:44:57Z</time>
      </trkpt>
      <trkpt lat="45.72985" lon="-1.21315">
        <ele>62.6</ele>
        <time>2020-01-26T11:44:58Z</time>
      </trkpt>
      <trkpt lat="45.72982" lon="-1.21315">
        <ele>62.8</ele>
        <time>2020-01-26T11:44:59Z</time>
      </trkpt>
      <trkpt lat="45.7298" lon="-1.21315">
        <ele>62.6</ele>
        <time>2020-01-26T11:45:00Z</time>
      </trkpt>
      <trkpt lat="45.72976" lon="-1.21314">
        <ele>62.4</ele>
        <time>2020-01-26T11:45:01Z</time>
      </trkpt>
      <trkpt lat="45.72974" lon="-1.21315">
        <ele>62.4</ele>
        <time>2020-01-26T11:45:02Z</time>
      </trkpt>
      <trkpt lat="45.72971" lon="-1.21314">
        <ele>62.2</ele>
        <time>2020-01-26T11:45:03Z</time>
      </trkpt>
      <trkpt lat="45.72968" lon="-1.21313">
        <ele>62.4</ele>
        <time>2020-01-26T11:45:04Z</time>
      </trkpt>
      <trkpt lat="45.72965" lon="-1.21312">
        <ele>62.6</ele>
        <time>2020-01-26T11:45:05Z</time>
      </trkpt>
      <trkpt lat="45.72962" lon="-1.2131">
        <ele>62.2</ele>
        <time>2020-01-26T11:45:06Z</time>
      </trkpt>
      <trkpt lat="45.72958" lon="-1.21308">
        <ele>62.2</ele>
        <time>2020-01-26T11:45:07Z</time>
      </trkpt>
      <trkpt lat="45.72955" lon="-1.21307">
        <ele>62.2</ele>
        <time>2020-01-26T11:45:08Z</time>
      </trkpt>
      <trkpt lat="45.72951" lon="-1.21303">
        <ele>62.4</ele>
        <time>2020-01-26T11:45:09Z</time>
      </trkpt>
      <trkpt lat="45.72948" lon="-1.21302">
        <ele>62.2</ele>
        <time>2020-01-26T11:45:10Z</time>
      </trkpt>
      <trkpt lat="45.72945" lon="-1.213">
        <ele>62</ele>
        <time>2020-01-26T11:45:11Z</time>
      </trkpt>
      <trkpt lat="45.72942" lon="-1.21297">
        <ele>61.8</ele>
        <time>2020-01-26T11:45:12Z</time>
      </trkpt>
      <trkpt lat="45.72938" lon="-1.21294">
        <ele>61.8</ele>
        <time>2020-01-26T11:45:13Z</time>
      </trkpt>
      <trkpt lat="45.72934" lon="-1.21291">
        <ele>62.2</ele>
        <time>2020-01-26T11:45:14Z</time>
      </trkpt>
      <trkpt lat="45.72931" lon="-1.21288">
        <ele>62.6</ele>
        <time>2020-01-26T11:45:15Z</time>
      </trkpt>
      <trkpt lat="45.72927" lon="-1.21284">
        <ele>63</ele>
        <time>2020-01-26T11:45:16Z</time>
      </trkpt>
      <trkpt lat="45.72923" lon="-1.21282">
        <ele>63.2</ele>
        <time>2020-01-26T11:45:17Z</time>
      </trkpt>
      <trkpt lat="45.72918" lon="-1.21279">
        <ele>63.2</ele>
        <time>2020-01-26T11:45:18Z</time>
      </trkpt>
      <trkpt lat="45.72914" lon="-1.21277">
        <ele>63.4</ele>
        <time>2020-01-26T11:45:19Z</time>
      </trkpt>
      <trkpt lat="45.7291" lon="-1.21276">
        <ele>63.6</ele>
        <time>2020-01-26T11:45:20Z</time>
      </trkpt>
      <trkpt lat="45.72905" lon="-1.21275">
        <ele>63.6</ele>
        <time>2020-01-26T11:45:21Z</time>
      </trkpt>
      <trkpt lat="45.729" lon="-1.21274">
        <ele>63.4</ele>
        <time>2020-01-26T11:45:22Z</time>
      </trkpt>
      <trkpt lat="45.72896" lon="-1.21272">
        <ele>63.6</ele>
        <time>2020-01-26T11:45:23Z</time>
      </trkpt>
      <trkpt lat="45.72892" lon="-1.21271">
        <ele>63.4</ele>
        <time>2020-01-26T11:45:24Z</time>
      </trkpt>
      <trkpt lat="45.72887" lon="-1.21269">
        <ele>63.6</ele>
        <time>2020-01-26T11:45:25Z</time>
      </trkpt>
      <trkpt lat="45.72883" lon="-1.21267">
        <ele>64</ele>
        <time>2020-01-26T11:45:26Z</time>
      </trkpt>
      <trkpt lat="45.72879" lon="-1.21266">
        <ele>64.2</ele>
        <time>2020-01-26T11:45:27Z</time>
      </trkpt>
      <trkpt lat="45.72876" lon="-1.21264">
        <ele>64.2</ele>
        <time>2020-01-26T11:45:28Z</time>
      </trkpt>
      <trkpt lat="45.72872" lon="-1.21263">
        <ele>64.2</ele>
        <time>2020-01-26T11:45:29Z</time>
      </trkpt>
      <trkpt lat="45.72868" lon="-1.21262">
        <ele>63.8</ele>
        <time>2020-01-26T11:45:30Z</time>
      </trkpt>
      <trkpt lat="45.72865" lon="-1.21259">
        <ele>63.6</ele>
        <time>2020-01-26T11:45:31Z</time>
      </trkpt>
      <trkpt lat="45.72861" lon="-1.21258">
        <ele>63.6</ele>
        <time>2020-01-26T11:45:32Z</time>
      </trkpt>
      <trkpt lat="45.72858" lon="-1.21256">
        <ele>63.8</ele>
        <time>2020-01-26T11:45:33Z</time>
      </trkpt>
      <trkpt lat="45.72854" lon="-1.21256">
        <ele>63.8</ele>
        <time>2020-01-26T11:45:34Z</time>
      </trkpt>
      <trkpt lat="45.72851" lon="-1.21256">
        <ele>63.2</ele>
        <time>2020-01-26T11:45:35Z</time>
      </trkpt>
      <trkpt lat="45.72847" lon="-1.21255">
        <ele>62.8</ele>
        <time>2020-01-26T11:45:36Z</time>
      </trkpt>
      <trkpt lat="45.72843" lon="-1.21254">
        <ele>62.2</ele>
        <time>2020-01-26T11:45:37Z</time>
      </trkpt>
      <trkpt lat="45.72839" lon="-1.21252">
        <ele>62</ele>
        <time>2020-01-26T11:45:38Z</time>
      </trkpt>
      <trkpt lat="45.72835" lon="-1.21251">
        <ele>61.8</ele>
        <time>2020-01-26T11:45:39Z</time>
      </trkpt>
      <trkpt lat="45.72831" lon="-1.2125">
        <ele>61.6</ele>
        <time>2020-01-26T11:45:40Z</time>
      </trkpt>
      <trkpt lat="45.72826" lon="-1.2125">
        <ele>61.6</ele>
        <time>2020-01-26T11:45:41Z</time>
      </trkpt>
      <trkpt lat="45.72821" lon="-1.21249">
        <ele>61.8</ele>
        <time>2020-01-26T11:45:42Z</time>
      </trkpt>
      <trkpt lat="45.72816" lon="-1.21247">
        <ele>62</ele>
        <time>2020-01-26T11:45:43Z</time>
      </trkpt>
      <trkpt lat="45.7281" lon="-1.21246">
        <ele>62</ele>
        <time>2020-01-26T11:45:44Z</time>
      </trkpt>
      <trkpt lat="45.72805" lon="-1.21245">
        <ele>62</ele>
        <time>2020-01-26T11:45:45Z</time>
      </trkpt>
      <trkpt lat="45.728" lon="-1.21244">
        <ele>62</ele>
        <time>2020-01-26T11:45:46Z</time>
      </trkpt>
      <trkpt lat="45.72795" lon="-1.21244">
        <ele>62.2</ele>
        <time>2020-01-26T11:45:47Z</time>
      </trkpt>
      <trkpt lat="45.7279" lon="-1.21244">
        <ele>62.6</ele>
        <time>2020-01-26T11:45:48Z</time>
      </trkpt>
      <trkpt lat="45.72787" lon="-1.21243">
        <ele>63.2</ele>
        <time>2020-01-26T11:45:49Z</time>
      </trkpt>
      <trkpt lat="45.72785" lon="-1.21242">
        <ele>63.2</ele>
        <time>2020-01-26T11:45:50Z</time>
      </trkpt>
      <trkpt lat="45.72783" lon="-1.21242">
        <ele>63.4</ele>
        <time>2020-01-26T11:45:51Z</time>
      </trkpt>
      <trkpt lat="45.72781" lon="-1.2124">
        <ele>63.4</ele>
        <time>2020-01-26T11:45:52Z</time>
      </trkpt>
      <trkpt lat="45.72781" lon="-1.21237">
        <ele>63.6</ele>
        <time>2020-01-26T11:45:53Z</time>
      </trkpt>
      <trkpt lat="45.72781" lon="-1.21234">
        <ele>63.8</ele>
        <time>2020-01-26T11:45:54Z</time>
      </trkpt>
      <trkpt lat="45.72783" lon="-1.21233">
        <ele>63.6</ele>
        <time>2020-01-26T11:45:55Z</time>
      </trkpt>
      <trkpt lat="45.72785" lon="-1.21233">
        <ele>64</ele>
        <time>2020-01-26T11:45:56Z</time>
      </trkpt>
      <trkpt lat="45.72787" lon="-1.21234">
        <ele>64.2</ele>
        <time>2020-01-26T11:45:57Z</time>
      </trkpt>
      <trkpt lat="45.7279" lon="-1.21234">
        <ele>64.6</ele>
        <time>2020-01-26T11:45:58Z</time>
      </trkpt>
      <trkpt lat="45.72792" lon="-1.21234">
        <ele>65</ele>
        <time>2020-01-26T11:45:59Z</time>
      </trkpt>
      <trkpt lat="45.72796" lon="-1.21234">
        <ele>65.2</ele>
        <time>2020-01-26T11:46:00Z</time>
      </trkpt>
      <trkpt lat="45.72798" lon="-1.21234">
        <ele>64.6</ele>
        <time>2020-01-26T11:46:01Z</time>
      </trkpt>
      <trkpt lat="45.72801" lon="-1.21234">
        <ele>64.2</ele>
        <time>2020-01-26T11:46:02Z</time>
      </trkpt>
      <trkpt lat="45.72805" lon="-1.21234">
        <ele>64.2</ele>
        <time>2020-01-26T11:46:03Z</time>
      </trkpt>
      <trkpt lat="45.72808" lon="-1.21233">
        <ele>64.2</ele>
        <time>2020-01-26T11:46:04Z</time>
      </trkpt>
      <trkpt lat="45.72811" lon="-1.21233">
        <ele>64.4</ele>
        <time>2020-01-26T11:46:05Z</time>
      </trkpt>
      <trkpt lat="45.72813" lon="-1.21232">
        <ele>64.6</ele>
        <time>2020-01-26T11:46:06Z</time>
      </trkpt>
      <trkpt lat="45.72816" lon="-1.21233">
        <ele>65</ele>
        <time>2020-01-26T11:46:07Z</time>
      </trkpt>
      <trkpt lat="45.72818" lon="-1.21234">
        <ele>65.4</ele>
        <time>2020-01-26T11:46:08Z</time>
      </trkpt>
      <trkpt lat="45.7282" lon="-1.21234">
        <ele>66.4</ele>
        <time>2020-01-26T11:46:09Z</time>
      </trkpt>
      <trkpt lat="45.72822" lon="-1.21234">
        <ele>67</ele>
        <time>2020-01-26T11:46:10Z</time>
      </trkpt>
      <trkpt lat="45.72824" lon="-1.21234">
        <ele>67.2</ele>
        <time>2020-01-26T11:46:11Z</time>
      </trkpt>
      <trkpt lat="45.72826" lon="-1.21234">
        <ele>67.6</ele>
        <time>2020-01-26T11:46:12Z</time>
      </trkpt>
      <trkpt lat="45.72828" lon="-1.21233">
        <ele>68.2</ele>
        <time>2020-01-26T11:46:13Z</time>
      </trkpt>
      <trkpt lat="45.7283" lon="-1.21233">
        <ele>68.6</ele>
        <time>2020-01-26T11:46:14Z</time>
      </trkpt>
      <trkpt lat="45.72832" lon="-1.21233">
        <ele>69</ele>
        <time>2020-01-26T11:46:15Z</time>
      </trkpt>
      <trkpt lat="45.72834" lon="-1.21233">
        <ele>69.8</ele>
        <time>2020-01-26T11:46:16Z</time>
      </trkpt>
      <trkpt lat="45.72836" lon="-1.21232">
        <ele>70.4</ele>
        <time>2020-01-26T11:46:17Z</time>
      </trkpt>
      <trkpt lat="45.72838" lon="-1.21232">
        <ele>71</ele>
        <time>2020-01-26T11:46:18Z</time>
      </trkpt>
      <trkpt lat="45.7284" lon="-1.21232">
        <ele>71.4</ele>
        <time>2020-01-26T11:46:19Z</time>
      </trkpt>
      <trkpt lat="45.72842" lon="-1.21232">
        <ele>71.8</ele>
        <time>2020-01-26T11:46:20Z</time>
      </trkpt>
      <trkpt lat="45.72845" lon="-1.21231">
        <ele>72.2</ele>
        <time>2020-01-26T11:46:21Z</time>
      </trkpt>
      <trkpt lat="45.72846" lon="-1.21231">
        <ele>72.6</ele>
        <time>2020-01-26T11:46:22Z</time>
      </trkpt>
      <trkpt lat="45.72848" lon="-1.21231">
        <ele>73.2</ele>
        <time>2020-01-26T11:46:23Z</time>
      </trkpt>
      <trkpt lat="45.7285" lon="-1.2123">
        <ele>73.6</ele>
        <time>2020-01-26T11:46:24Z</time>
      </trkpt>
      <trkpt lat="45.72852" lon="-1.2123">
        <ele>73.8</ele>
        <time>2020-01-26T11:46:25Z</time>
      </trkpt>
      <trkpt lat="45.72854" lon="-1.2123">
        <ele>73.8</ele>
        <time>2020-01-26T11:46:26Z</time>
      </trkpt>
      <trkpt lat="45.72855" lon="-1.21229">
        <ele>73.6</ele>
        <time>2020-01-26T11:46:27Z</time>
      </trkpt>
      <trkpt lat="45.72857" lon="-1.2123">
        <ele>73.8</ele>
        <time>2020-01-26T11:46:28Z</time>
      </trkpt>
      <trkpt lat="45.72858" lon="-1.2123">
        <ele>73.8</ele>
        <time>2020-01-26T11:46:29Z</time>
      </trkpt>
      <trkpt lat="45.7286" lon="-1.2123">
        <ele>74</ele>
        <time>2020-01-26T11:46:30Z</time>
      </trkpt>
      <trkpt lat="45.72861" lon="-1.2123">
        <ele>74.4</ele>
        <time>2020-01-26T11:46:31Z</time>
      </trkpt>
      <trkpt lat="45.72862" lon="-1.21231">
        <ele>74.4</ele>
        <time>2020-01-26T11:46:32Z</time>
      </trkpt>
      <trkpt lat="45.72863" lon="-1.2123">
        <ele>74.6</ele>
        <time>2020-01-26T11:46:33Z</time>
      </trkpt>
      <trkpt lat="45.72865" lon="-1.21229">
        <ele>74.8</ele>
        <time>2020-01-26T11:46:34Z</time>
      </trkpt>
      <trkpt lat="45.72865" lon="-1.21228">
        <ele>74.6</ele>
        <time>2020-01-26T11:46:35Z</time>
      </trkpt>
      <trkpt lat="45.72866" lon="-1.21225">
        <ele>74.4</ele>
        <time>2020-01-26T11:46:36Z</time>
      </trkpt>
      <trkpt lat="45.72866" lon="-1.21224">
        <ele>74</ele>
        <time>2020-01-26T11:46:37Z</time>
      </trkpt>
      <trkpt lat="45.72867" lon="-1.2122">
        <ele>73.8</ele>
        <time>2020-01-26T11:46:38Z</time>
      </trkpt>
      <trkpt lat="45.72867" lon="-1.21217">
        <ele>73.6</ele>
        <time>2020-01-26T11:46:39Z</time>
      </trkpt>
      <trkpt lat="45.72867" lon="-1.21212">
        <ele>73.6</ele>
        <time>2020-01-26T11:46:40Z</time>
      </trkpt>
      <trkpt lat="45.72868" lon="-1.21198">
        <ele>73.6</ele>
        <time>2020-01-26T11:46:41Z</time>
      </trkpt>
      <trkpt lat="45.72868" lon="-1.21188">
        <ele>73.4</ele>
        <time>2020-01-26T11:46:42Z</time>
      </trkpt>
      <trkpt lat="45.72867" lon="-1.21182">
        <ele>73.6</ele>
        <time>2020-01-26T11:46:43Z</time>
      </trkpt>
      <trkpt lat="45.72868" lon="-1.21174">
        <ele>73.2</ele>
        <time>2020-01-26T11:46:44Z</time>
      </trkpt>
      <trkpt lat="45.72867" lon="-1.21169">
        <ele>72.8</ele>
        <time>2020-01-26T11:46:45Z</time>
      </trkpt>
      <trkpt lat="45.72867" lon="-1.21165">
        <ele>72.6</ele>
        <time>2020-01-26T11:46:46Z</time>
      </trkpt>
      <trkpt lat="45.72866" lon="-1.21161">
        <ele>73</ele>
        <time>2020-01-26T11:46:47Z</time>
      </trkpt>
      <trkpt lat="45.72866" lon="-1.21157">
        <ele>73.2</ele>
        <time>2020-01-26T11:46:48Z</time>
      </trkpt>
      <trkpt lat="45.72867" lon="-1.21154">
        <ele>73.4</ele>
        <time>2020-01-26T11:46:49Z</time>
      </trkpt>
      <trkpt lat="45.72867" lon="-1.21151">
        <ele>73.4</ele>
        <time>2020-01-26T11:46:50Z</time>
      </trkpt>
      <trkpt lat="45.72868" lon="-1.21148">
        <ele>73.6</ele>
        <time>2020-01-26T11:46:51Z</time>
      </trkpt>
      <trkpt lat="45.72867" lon="-1.21144">
        <ele>73.8</ele>
        <time>2020-01-26T11:46:52Z</time>
      </trkpt>
      <trkpt lat="45.72867" lon="-1.21142">
        <ele>74.2</ele>
        <time>2020-01-26T11:46:53Z</time>
      </trkpt>
      <trkpt lat="45.72867" lon="-1.21136">
        <ele>74.4</ele>
        <time>2020-01-26T11:46:54Z</time>
      </trkpt>
      <trkpt lat="45.72866" lon="-1.21132">
        <ele>74.6</ele>
        <time>2020-01-26T11:46:55Z</time>
      </trkpt>
      <trkpt lat="45.72865" lon="-1.21129">
        <ele>74.4</ele>
        <time>2020-01-26T11:46:56Z</time>
      </trkpt>
      <trkpt lat="45.72865" lon="-1.21124">
        <ele>74.6</ele>
        <time>2020-01-26T11:46:57Z</time>
      </trkpt>
      <trkpt lat="45.72865" lon="-1.21122">
        <ele>74.4</ele>
        <time>2020-01-26T11:46:58Z</time>
      </trkpt>
      <trkpt lat="45.72864" lon="-1.21118">
        <ele>74.6</ele>
        <time>2020-01-26T11:46:59Z</time>
      </trkpt>
      <trkpt lat="45.72865" lon="-1.21115">
        <ele>74.6</ele>
        <time>2020-01-26T11:47:00Z</time>
      </trkpt>
      <trkpt lat="45.72865" lon="-1.21111">
        <ele>74.2</ele>
        <time>2020-01-26T11:47:01Z</time>
      </trkpt>
      <trkpt lat="45.72865" lon="-1.21108">
        <ele>74</ele>
        <time>2020-01-26T11:47:02Z</time>
      </trkpt>
      <trkpt lat="45.72865" lon="-1.21105">
        <ele>73.4</ele>
        <time>2020-01-26T11:47:03Z</time>
      </trkpt>
      <trkpt lat="45.72864" lon="-1.21102">
        <ele>73.4</ele>
        <time>2020-01-26T11:47:04Z</time>
      </trkpt>
      <trkpt lat="45.72865" lon="-1.21099">
        <ele>73.2</ele>
        <time>2020-01-26T11:47:05Z</time>
      </trkpt>
      <trkpt lat="45.72865" lon="-1.21096">
        <ele>73.2</ele>
        <time>2020-01-26T11:47:06Z</time>
      </trkpt>
      <trkpt lat="45.72865" lon="-1.21094">
        <ele>72</ele>
        <time>2020-01-26T11:47:07Z</time>
      </trkpt>
      <trkpt lat="45.72865" lon="-1.2109">
        <ele>71.4</ele>
        <time>2020-01-26T11:47:08Z</time>
      </trkpt>
      <trkpt lat="45.72865" lon="-1.21087">
        <ele>70.8</ele>
        <time>2020-01-26T11:47:09Z</time>
      </trkpt>
      <trkpt lat="45.72865" lon="-1.21085">
        <ele>70</ele>
        <time>2020-01-26T11:47:10Z</time>
      </trkpt>
      <trkpt lat="45.72865" lon="-1.21084">
        <ele>69.6</ele>
        <time>2020-01-26T11:47:11Z</time>
      </trkpt>
      <trkpt lat="45.72864" lon="-1.21081">
        <ele>70</ele>
        <time>2020-01-26T11:47:12Z</time>
      </trkpt>
      <trkpt lat="45.72863" lon="-1.21078">
        <ele>70</ele>
        <time>2020-01-26T11:47:13Z</time>
      </trkpt>
      <trkpt lat="45.72863" lon="-1.21072">
        <ele>69.8</ele>
        <time>2020-01-26T11:47:14Z</time>
      </trkpt>
      <trkpt lat="45.72864" lon="-1.2107">
        <ele>69.8</ele>
        <time>2020-01-26T11:47:15Z</time>
      </trkpt>
      <trkpt lat="45.72865" lon="-1.21067">
        <ele>69.8</ele>
        <time>2020-01-26T11:47:16Z</time>
      </trkpt>
      <trkpt lat="45.72865" lon="-1.21063">
        <ele>69.6</ele>
        <time>2020-01-26T11:47:17Z</time>
      </trkpt>
      <trkpt lat="45.72865" lon="-1.21059">
        <ele>69.2</ele>
        <time>2020-01-26T11:47:18Z</time>
      </trkpt>
      <trkpt lat="45.72864" lon="-1.21056">
        <ele>69.2</ele>
        <time>2020-01-26T11:47:19Z</time>
      </trkpt>
      <trkpt lat="45.72864" lon="-1.21054">
        <ele>69.2</ele>
        <time>2020-01-26T11:47:20Z</time>
      </trkpt>
      <trkpt lat="45.72865" lon="-1.21049">
        <ele>69</ele>
        <time>2020-01-26T11:47:21Z</time>
      </trkpt>
      <trkpt lat="45.72865" lon="-1.21048">
        <ele>69</ele>
        <time>2020-01-26T11:47:22Z</time>
      </trkpt>
      <trkpt lat="45.72864" lon="-1.21044">
        <ele>69.4</ele>
        <time>2020-01-26T11:47:23Z</time>
      </trkpt>
      <trkpt lat="45.72864" lon="-1.2104">
        <ele>69.8</ele>
        <time>2020-01-26T11:47:24Z</time>
      </trkpt>
      <trkpt lat="45.72863" lon="-1.21037">
        <ele>70.6</ele>
        <time>2020-01-26T11:47:25Z</time>
      </trkpt>
      <trkpt lat="45.72863" lon="-1.21033">
        <ele>71</ele>
        <time>2020-01-26T11:47:26Z</time>
      </trkpt>
      <trkpt lat="45.72863" lon="-1.21027">
        <ele>71</ele>
        <time>2020-01-26T11:47:27Z</time>
      </trkpt>
      <trkpt lat="45.72865" lon="-1.21021">
        <ele>71.2</ele>
        <time>2020-01-26T11:47:28Z</time>
      </trkpt>
      <trkpt lat="45.72865" lon="-1.21017">
        <ele>71.2</ele>
        <time>2020-01-26T11:47:29Z</time>
      </trkpt>
      <trkpt lat="45.72865" lon="-1.21014">
        <ele>71.6</ele>
        <time>2020-01-26T11:47:30Z</time>
      </trkpt>
      <trkpt lat="45.72865" lon="-1.2101">
        <ele>72.2</ele>
        <time>2020-01-26T11:47:31Z</time>
      </trkpt>
      <trkpt lat="45.72865" lon="-1.21007">
        <ele>72.6</ele>
        <time>2020-01-26T11:47:32Z</time>
      </trkpt>
      <trkpt lat="45.72865" lon="-1.21001">
        <ele>72.8</ele>
        <time>2020-01-26T11:47:33Z</time>
      </trkpt>
      <trkpt lat="45.72865" lon="-1.20999">
        <ele>72.6</ele>
        <time>2020-01-26T11:47:34Z</time>
      </trkpt>
      <trkpt lat="45.72865" lon="-1.20995">
        <ele>72.2</ele>
        <time>2020-01-26T11:47:35Z</time>
      </trkpt>
      <trkpt lat="45.72865" lon="-1.20989">
        <ele>72.2</ele>
        <time>2020-01-26T11:47:36Z</time>
      </trkpt>
      <trkpt lat="45.72865" lon="-1.20984">
        <ele>71.8</ele>
        <time>2020-01-26T11:47:37Z</time>
      </trkpt>
      <trkpt lat="45.72866" lon="-1.20981">
        <ele>71.6</ele>
        <time>2020-01-26T11:47:38Z</time>
      </trkpt>
      <trkpt lat="45.72866" lon="-1.20975">
        <ele>71.2</ele>
        <time>2020-01-26T11:47:39Z</time>
      </trkpt>
      <trkpt lat="45.72866" lon="-1.20971">
        <ele>70.6</ele>
        <time>2020-01-26T11:47:40Z</time>
      </trkpt>
      <trkpt lat="45.72865" lon="-1.20964">
        <ele>69.4</ele>
        <time>2020-01-26T11:47:41Z</time>
      </trkpt>
      <trkpt lat="45.72864" lon="-1.20959">
        <ele>68.6</ele>
        <time>2020-01-26T11:47:42Z</time>
      </trkpt>
      <trkpt lat="45.72864" lon="-1.20954">
        <ele>67.8</ele>
        <time>2020-01-26T11:47:43Z</time>
      </trkpt>
      <trkpt lat="45.72865" lon="-1.20948">
        <ele>67.6</ele>
        <time>2020-01-26T11:47:44Z</time>
      </trkpt>
      <trkpt lat="45.72865" lon="-1.20943">
        <ele>67.4</ele>
        <time>2020-01-26T11:47:45Z</time>
      </trkpt>
      <trkpt lat="45.72866" lon="-1.20938">
        <ele>67</ele>
        <time>2020-01-26T11:47:46Z</time>
      </trkpt>
      <trkpt lat="45.72866" lon="-1.20933">
        <ele>66.8</ele>
        <time>2020-01-26T11:47:47Z</time>
      </trkpt>
      <trkpt lat="45.72866" lon="-1.20929">
        <ele>66.6</ele>
        <time>2020-01-26T11:47:48Z</time>
      </trkpt>
      <trkpt lat="45.72865" lon="-1.20922">
        <ele>66.4</ele>
        <time>2020-01-26T11:47:49Z</time>
      </trkpt>
      <trkpt lat="45.72865" lon="-1.20916">
        <ele>66.4</ele>
        <time>2020-01-26T11:47:50Z</time>
      </trkpt>
      <trkpt lat="45.72865" lon="-1.20909">
        <ele>66.8</ele>
        <time>2020-01-26T11:47:51Z</time>
      </trkpt>
      <trkpt lat="45.72866" lon="-1.20905">
        <ele>66.8</ele>
        <time>2020-01-26T11:47:52Z</time>
      </trkpt>
      <trkpt lat="45.72866" lon="-1.20899">
        <ele>67.6</ele>
        <time>2020-01-26T11:47:53Z</time>
      </trkpt>
      <trkpt lat="45.72866" lon="-1.20891">
        <ele>67.8</ele>
        <time>2020-01-26T11:47:54Z</time>
      </trkpt>
      <trkpt lat="45.72867" lon="-1.20885">
        <ele>68</ele>
        <time>2020-01-26T11:47:55Z</time>
      </trkpt>
      <trkpt lat="45.72865" lon="-1.20876">
        <ele>67.2</ele>
        <time>2020-01-26T11:47:56Z</time>
      </trkpt>
      <trkpt lat="45.72865" lon="-1.20863">
        <ele>66.6</ele>
        <time>2020-01-26T11:47:57Z</time>
      </trkpt>
      <trkpt lat="45.72864" lon="-1.20852">
        <ele>66</ele>
        <time>2020-01-26T11:47:58Z</time>
      </trkpt>
      <trkpt lat="45.72861" lon="-1.2084">
        <ele>65.2</ele>
        <time>2020-01-26T11:47:59Z</time>
      </trkpt>
      <trkpt lat="45.7286" lon="-1.20829">
        <ele>64.6</ele>
        <time>2020-01-26T11:48:00Z</time>
      </trkpt>
      <trkpt lat="45.7286" lon="-1.20816">
        <ele>64.2</ele>
        <time>2020-01-26T11:48:01Z</time>
      </trkpt>
      <trkpt lat="45.72861" lon="-1.20801">
        <ele>64</ele>
        <time>2020-01-26T11:48:02Z</time>
      </trkpt>
      <trkpt lat="45.72861" lon="-1.20791">
        <ele>63.8</ele>
        <time>2020-01-26T11:48:03Z</time>
      </trkpt>
      <trkpt lat="45.7286" lon="-1.20778">
        <ele>63.8</ele>
        <time>2020-01-26T11:48:04Z</time>
      </trkpt>
      <trkpt lat="45.72859" lon="-1.20765">
        <ele>63.6</ele>
        <time>2020-01-26T11:48:05Z</time>
      </trkpt>
      <trkpt lat="45.72859" lon="-1.20752">
        <ele>63.2</ele>
        <time>2020-01-26T11:48:06Z</time>
      </trkpt>
      <trkpt lat="45.72859" lon="-1.20744">
        <ele>62.8</ele>
        <time>2020-01-26T11:48:07Z</time>
      </trkpt>
      <trkpt lat="45.72859" lon="-1.20738">
        <ele>62.6</ele>
        <time>2020-01-26T11:48:08Z</time>
      </trkpt>
      <trkpt lat="45.72858" lon="-1.20732">
        <ele>62.8</ele>
        <time>2020-01-26T11:48:09Z</time>
      </trkpt>
      <trkpt lat="45.72857" lon="-1.20725">
        <ele>62.8</ele>
        <time>2020-01-26T11:48:10Z</time>
      </trkpt>
      <trkpt lat="45.72857" lon="-1.2072">
        <ele>62.6</ele>
        <time>2020-01-26T11:48:11Z</time>
      </trkpt>
      <trkpt lat="45.72857" lon="-1.20715">
        <ele>62.4</ele>
        <time>2020-01-26T11:48:12Z</time>
      </trkpt>
      <trkpt lat="45.72857" lon="-1.20711">
        <ele>62</ele>
        <time>2020-01-26T11:48:13Z</time>
      </trkpt>
      <trkpt lat="45.72856" lon="-1.20706">
        <ele>62</ele>
        <time>2020-01-26T11:48:14Z</time>
      </trkpt>
      <trkpt lat="45.72855" lon="-1.207">
        <ele>62.4</ele>
        <time>2020-01-26T11:48:15Z</time>
      </trkpt>
      <trkpt lat="45.72856" lon="-1.20696">
        <ele>62.4</ele>
        <time>2020-01-26T11:48:16Z</time>
      </trkpt>
      <trkpt lat="45.72856" lon="-1.20691">
        <ele>62.6</ele>
        <time>2020-01-26T11:48:17Z</time>
      </trkpt>
      <trkpt lat="45.72856" lon="-1.20685">
        <ele>63.2</ele>
        <time>2020-01-26T11:48:18Z</time>
      </trkpt>
      <trkpt lat="45.72856" lon="-1.20682">
        <ele>63.8</ele>
        <time>2020-01-26T11:48:19Z</time>
      </trkpt>
      <trkpt lat="45.72857" lon="-1.20678">
        <ele>64.2</ele>
        <time>2020-01-26T11:48:20Z</time>
      </trkpt>
      <trkpt lat="45.72857" lon="-1.20675">
        <ele>65</ele>
        <time>2020-01-26T11:48:21Z</time>
      </trkpt>
      <trkpt lat="45.72855" lon="-1.20671">
        <ele>65.8</ele>
        <time>2020-01-26T11:48:22Z</time>
      </trkpt>
      <trkpt lat="45.72855" lon="-1.20667">
        <ele>66.2</ele>
        <time>2020-01-26T11:48:23Z</time>
      </trkpt>
      <trkpt lat="45.72854" lon="-1.20661">
        <ele>66.8</ele>
        <time>2020-01-26T11:48:24Z</time>
      </trkpt>
      <trkpt lat="45.72855" lon="-1.20655">
        <ele>67.4</ele>
        <time>2020-01-26T11:48:25Z</time>
      </trkpt>
      <trkpt lat="45.72853" lon="-1.20651">
        <ele>68.6</ele>
        <time>2020-01-26T11:48:26Z</time>
      </trkpt>
      <trkpt lat="45.72852" lon="-1.20647">
        <ele>69.8</ele>
        <time>2020-01-26T11:48:27Z</time>
      </trkpt>
      <trkpt lat="45.72852" lon="-1.20643">
        <ele>71</ele>
        <time>2020-01-26T11:48:28Z</time>
      </trkpt>
      <trkpt lat="45.72852" lon="-1.20639">
        <ele>72.4</ele>
        <time>2020-01-26T11:48:29Z</time>
      </trkpt>
      <trkpt lat="45.72853" lon="-1.20636">
        <ele>72.4</ele>
        <time>2020-01-26T11:48:30Z</time>
      </trkpt>
      <trkpt lat="45.72853" lon="-1.20634">
        <ele>72.2</ele>
        <time>2020-01-26T11:48:31Z</time>
      </trkpt>
      <trkpt lat="45.72851" lon="-1.20629">
        <ele>72.8</ele>
        <time>2020-01-26T11:48:32Z</time>
      </trkpt>
      <trkpt lat="45.72852" lon="-1.20625">
        <ele>73</ele>
        <time>2020-01-26T11:48:33Z</time>
      </trkpt>
      <trkpt lat="45.72852" lon="-1.20623">
        <ele>72.8</ele>
        <time>2020-01-26T11:48:34Z</time>
      </trkpt>
      <trkpt lat="45.72852" lon="-1.2062">
        <ele>72.6</ele>
        <time>2020-01-26T11:48:35Z</time>
      </trkpt>
      <trkpt lat="45.72852" lon="-1.20618">
        <ele>72.6</ele>
        <time>2020-01-26T11:48:36Z</time>
      </trkpt>
      <trkpt lat="45.72852" lon="-1.20615">
        <ele>72.8</ele>
        <time>2020-01-26T11:48:37Z</time>
      </trkpt>
      <trkpt lat="45.72852" lon="-1.20613">
        <ele>72.8</ele>
        <time>2020-01-26T11:48:38Z</time>
      </trkpt>
      <trkpt lat="45.72853" lon="-1.20609">
        <ele>72.8</ele>
        <time>2020-01-26T11:48:39Z</time>
      </trkpt>
      <trkpt lat="45.72853" lon="-1.20606">
        <ele>73</ele>
        <time>2020-01-26T11:48:40Z</time>
      </trkpt>
      <trkpt lat="45.72852" lon="-1.20604">
        <ele>73</ele>
        <time>2020-01-26T11:48:41Z</time>
      </trkpt>
      <trkpt lat="45.72852" lon="-1.20602">
        <ele>73</ele>
        <time>2020-01-26T11:48:42Z</time>
      </trkpt>
      <trkpt lat="45.72851" lon="-1.20597">
        <ele>73</ele>
        <time>2020-01-26T11:48:43Z</time>
      </trkpt>
      <trkpt lat="45.7285" lon="-1.20595">
        <ele>73</ele>
        <time>2020-01-26T11:48:44Z</time>
      </trkpt>
      <trkpt lat="45.7285" lon="-1.20593">
        <ele>73.2</ele>
        <time>2020-01-26T11:48:45Z</time>
      </trkpt>
      <trkpt lat="45.7285" lon="-1.20589">
        <ele>73.4</ele>
        <time>2020-01-26T11:48:46Z</time>
      </trkpt>
      <trkpt lat="45.7285" lon="-1.20587">
        <ele>74</ele>
        <time>2020-01-26T11:48:47Z</time>
      </trkpt>
      <trkpt lat="45.72851" lon="-1.20585">
        <ele>73.8</ele>
        <time>2020-01-26T11:48:48Z</time>
      </trkpt>
      <trkpt lat="45.7285" lon="-1.20583">
        <ele>73.6</ele>
        <time>2020-01-26T11:48:49Z</time>
      </trkpt>
      <trkpt lat="45.7285" lon="-1.20582">
        <ele>73.8</ele>
        <time>2020-01-26T11:48:50Z</time>
      </trkpt>
      <trkpt lat="45.7285" lon="-1.20582">
        <ele>73.8</ele>
        <time>2020-01-26T11:48:51Z</time>
      </trkpt>
      <trkpt lat="45.72849" lon="-1.2058">
        <ele>73.6</ele>
        <time>2020-01-26T11:48:52Z</time>
      </trkpt>
      <trkpt lat="45.72849" lon="-1.2058">
        <ele>73.4</ele>
        <time>2020-01-26T11:48:53Z</time>
      </trkpt>
      <trkpt lat="45.72849" lon="-1.2058">
        <ele>73.4</ele>
        <time>2020-01-26T11:48:54Z</time>
      </trkpt>
      <trkpt lat="45.72849" lon="-1.2058">
        <ele>73.2</ele>
        <time>2020-01-26T11:48:55Z</time>
      </trkpt>
      <trkpt lat="45.72851" lon="-1.20581">
        <ele>73.4</ele>
        <time>2020-01-26T11:48:56Z</time>
      </trkpt>
      <trkpt lat="45.72853" lon="-1.20582">
        <ele>73.8</ele>
        <time>2020-01-26T11:48:57Z</time>
      </trkpt>
      <trkpt lat="45.72853" lon="-1.20582">
        <ele>74.2</ele>
        <time>2020-01-26T11:48:58Z</time>
      </trkpt>
      <trkpt lat="45.72853" lon="-1.20582">
        <ele>74.4</ele>
        <time>2020-01-26T11:48:59Z</time>
      </trkpt>
      <trkpt lat="45.72854" lon="-1.20582">
        <ele>74.6</ele>
        <time>2020-01-26T11:49:00Z</time>
      </trkpt>
      <trkpt lat="45.72854" lon="-1.20581">
        <ele>74.6</ele>
        <time>2020-01-26T11:49:01Z</time>
      </trkpt>
      <trkpt lat="45.72854" lon="-1.20581">
        <ele>74.4</ele>
        <time>2020-01-26T11:49:02Z</time>
      </trkpt>
      <trkpt lat="45.72854" lon="-1.20581">
        <ele>74.4</ele>
        <time>2020-01-26T11:49:03Z</time>
      </trkpt>
      <trkpt lat="45.72854" lon="-1.2058">
        <ele>74.2</ele>
        <time>2020-01-26T11:49:04Z</time>
      </trkpt>
      <trkpt lat="45.72854" lon="-1.2058">
        <ele>74.4</ele>
        <time>2020-01-26T11:49:05Z</time>
      </trkpt>
      <trkpt lat="45.72854" lon="-1.2058">
        <ele>74.4</ele>
        <time>2020-01-26T11:49:06Z</time>
      </trkpt>
      <trkpt lat="45.72854" lon="-1.2058">
        <ele>74.2</ele>
        <time>2020-01-26T11:49:07Z</time>
      </trkpt>
      <trkpt lat="45.72854" lon="-1.2058">
        <ele>74.2</ele>
        <time>2020-01-26T11:49:08Z</time>
      </trkpt>
      <trkpt lat="45.72854" lon="-1.2058">
        <ele>74.2</ele>
        <time>2020-01-26T11:49:09Z</time>
      </trkpt>
      <trkpt lat="45.72854" lon="-1.2058">
        <ele>74.2</ele>
        <time>2020-01-26T11:49:10Z</time>
      </trkpt>
      <trkpt lat="45.72854" lon="-1.2058">
        <ele>74</ele>
        <time>2020-01-26T11:49:11Z</time>
      </trkpt>
      <trkpt lat="45.72854" lon="-1.2058">
        <ele>74</ele>
        <time>2020-01-26T11:49:12Z</time>
      </trkpt>
      <trkpt lat="45.72854" lon="-1.2058">
        <ele>74</ele>
        <time>2020-01-26T11:49:13Z</time>
      </trkpt>
      <trkpt lat="45.72854" lon="-1.2058">
        <ele>74</ele>
        <time>2020-01-26T11:49:14Z</time>
      </trkpt>
      <trkpt lat="45.72854" lon="-1.2058">
        <ele>74</ele>
        <time>2020-01-26T11:49:15Z</time>
      </trkpt>
      <trkpt lat="45.72854" lon="-1.2058">
        <ele>74</ele>
        <time>2020-01-26T11:49:16Z</time>
      </trkpt>
      <trkpt lat="45.72854" lon="-1.2058">
        <ele>74</ele>
        <time>2020-01-26T11:49:17Z</time>
      </trkpt>
      <trkpt lat="45.72854" lon="-1.2058">
        <ele>74</ele>
        <time>2020-01-26T11:49:18Z</time>
      </trkpt>
      <trkpt lat="45.72854" lon="-1.2058">
        <ele>74</ele>
        <time>2020-01-26T11:49:19Z</time>
      </trkpt>
      <trkpt lat="45.72854" lon="-1.2058">
        <ele>74</ele>
        <time>2020-01-26T11:49:20Z</time>
      </trkpt>
      <trkpt lat="45.72854" lon="-1.2058">
        <ele>74</ele>
        <time>2020-01-26T11:49:21Z</time>
      </trkpt>
      <trkpt lat="45.72854" lon="-1.2058">
        <ele>74</ele>
        <time>2020-01-26T11:49:22Z</time>
      </trkpt>
      <trkpt lat="45.72854" lon="-1.2058">
        <ele>74</ele>
        <time>2020-01-26T11:49:23Z</time>
      </trkpt>
      <trkpt lat="45.72854" lon="-1.2058">
        <ele>74</ele>
        <time>2020-01-26T11:49:24Z</time>
      </trkpt>
      <trkpt lat="45.72854" lon="-1.2058">
        <ele>74</ele>
        <time>2020-01-26T11:49:25Z</time>
      </trkpt>
      <trkpt lat="45.72854" lon="-1.2058">
        <ele>73.8</ele>
        <time>2020-01-26T11:49:26Z</time>
      </trkpt>
      <trkpt lat="45.72854" lon="-1.20578">
        <ele>73.6</ele>
        <time>2020-01-26T11:49:27Z</time>
      </trkpt>
      <trkpt lat="45.72854" lon="-1.20577">
        <ele>73.4</ele>
        <time>2020-01-26T11:49:28Z</time>
      </trkpt>
      <trkpt lat="45.72854" lon="-1.20576">
        <ele>73.4</ele>
        <time>2020-01-26T11:49:29Z</time>
      </trkpt>
      <trkpt lat="45.72852" lon="-1.20572">
        <ele>73.2</ele>
        <time>2020-01-26T11:49:30Z</time>
      </trkpt>
      <trkpt lat="45.72851" lon="-1.2057">
        <ele>73</ele>
        <time>2020-01-26T11:49:31Z</time>
      </trkpt>
      <trkpt lat="45.72851" lon="-1.20565">
        <ele>73</ele>
        <time>2020-01-26T11:49:32Z</time>
      </trkpt>
      <trkpt lat="45.72852" lon="-1.20561">
        <ele>72.4</ele>
        <time>2020-01-26T11:49:33Z</time>
      </trkpt>
      <trkpt lat="45.72852" lon="-1.20559">
        <ele>72</ele>
        <time>2020-01-26T11:49:34Z</time>
      </trkpt>
      <trkpt lat="45.72851" lon="-1.20555">
        <ele>71.8</ele>
        <time>2020-01-26T11:49:35Z</time>
      </trkpt>
      <trkpt lat="45.72852" lon="-1.20551">
        <ele>71.6</ele>
        <time>2020-01-26T11:49:36Z</time>
      </trkpt>
      <trkpt lat="45.72853" lon="-1.20548">
        <ele>71.4</ele>
        <time>2020-01-26T11:49:37Z</time>
      </trkpt>
      <trkpt lat="45.72853" lon="-1.20545">
        <ele>71.6</ele>
        <time>2020-01-26T11:49:38Z</time>
      </trkpt>
      <trkpt lat="45.72853" lon="-1.2054">
        <ele>71.8</ele>
        <time>2020-01-26T11:49:39Z</time>
      </trkpt>
      <trkpt lat="45.72852" lon="-1.20537">
        <ele>71.8</ele>
        <time>2020-01-26T11:49:40Z</time>
      </trkpt>
      <trkpt lat="45.72852" lon="-1.20533">
        <ele>71.6</ele>
        <time>2020-01-26T11:49:41Z</time>
      </trkpt>
      <trkpt lat="45.72852" lon="-1.2053">
        <ele>71.4</ele>
        <time>2020-01-26T11:49:42Z</time>
      </trkpt>
      <trkpt lat="45.72855" lon="-1.20527">
        <ele>70.8</ele>
        <time>2020-01-26T11:49:43Z</time>
      </trkpt>
      <trkpt lat="45.72857" lon="-1.20524">
        <ele>70.4</ele>
        <time>2020-01-26T11:49:44Z</time>
      </trkpt>
      <trkpt lat="45.72855" lon="-1.2052">
        <ele>69.8</ele>
        <time>2020-01-26T11:49:45Z</time>
      </trkpt>
      <trkpt lat="45.72855" lon="-1.20516">
        <ele>69.4</ele>
        <time>2020-01-26T11:49:46Z</time>
      </trkpt>
      <trkpt lat="45.72855" lon="-1.20513">
        <ele>68.6</ele>
        <time>2020-01-26T11:49:47Z</time>
      </trkpt>
      <trkpt lat="45.72855" lon="-1.20508">
        <ele>67.8</ele>
        <time>2020-01-26T11:49:48Z</time>
      </trkpt>
      <trkpt lat="45.72855" lon="-1.20504">
        <ele>67</ele>
        <time>2020-01-26T11:49:49Z</time>
      </trkpt>
      <trkpt lat="45.72855" lon="-1.20499">
        <ele>66.4</ele>
        <time>2020-01-26T11:49:50Z</time>
      </trkpt>
      <trkpt lat="45.72854" lon="-1.20494">
        <ele>66</ele>
        <time>2020-01-26T11:49:51Z</time>
      </trkpt>
      <trkpt lat="45.72854" lon="-1.20489">
        <ele>65.8</ele>
        <time>2020-01-26T11:49:52Z</time>
      </trkpt>
      <trkpt lat="45.72854" lon="-1.20482">
        <ele>65</ele>
        <time>2020-01-26T11:49:53Z</time>
      </trkpt>
      <trkpt lat="45.72854" lon="-1.20475">
        <ele>64.2</ele>
        <time>2020-01-26T11:49:54Z</time>
      </trkpt>
      <trkpt lat="45.7285" lon="-1.20456">
        <ele>63.6</ele>
        <time>2020-01-26T11:49:55Z</time>
      </trkpt>
      <trkpt lat="45.72849" lon="-1.20443">
        <ele>63</ele>
        <time>2020-01-26T11:49:56Z</time>
      </trkpt>
      <trkpt lat="45.72849" lon="-1.20428">
        <ele>63</ele>
        <time>2020-01-26T11:49:57Z</time>
      </trkpt>
      <trkpt lat="45.72848" lon="-1.20413">
        <ele>62.8</ele>
        <time>2020-01-26T11:49:58Z</time>
      </trkpt>
      <trkpt lat="45.72847" lon="-1.20398">
        <ele>62.6</ele>
        <time>2020-01-26T11:49:59Z</time>
      </trkpt>
      <trkpt lat="45.72846" lon="-1.20386">
        <ele>62.6</ele>
        <time>2020-01-26T11:50:00Z</time>
      </trkpt>
      <trkpt lat="45.72844" lon="-1.20374">
        <ele>62.2</ele>
        <time>2020-01-26T11:50:01Z</time>
      </trkpt>
      <trkpt lat="45.72844" lon="-1.20367">
        <ele>62</ele>
        <time>2020-01-26T11:50:02Z</time>
      </trkpt>
      <trkpt lat="45.72844" lon="-1.20362">
        <ele>62</ele>
        <time>2020-01-26T11:50:03Z</time>
      </trkpt>
      <trkpt lat="45.72844" lon="-1.20357">
        <ele>62.6</ele>
        <time>2020-01-26T11:50:04Z</time>
      </trkpt>
      <trkpt lat="45.72843" lon="-1.20352">
        <ele>63.2</ele>
        <time>2020-01-26T11:50:05Z</time>
      </trkpt>
      <trkpt lat="45.72843" lon="-1.20348">
        <ele>64.2</ele>
        <time>2020-01-26T11:50:06Z</time>
      </trkpt>
      <trkpt lat="45.72843" lon="-1.20345">
        <ele>64.6</ele>
        <time>2020-01-26T11:50:07Z</time>
      </trkpt>
      <trkpt lat="45.72843" lon="-1.20342">
        <ele>65.2</ele>
        <time>2020-01-26T11:50:08Z</time>
      </trkpt>
      <trkpt lat="45.72843" lon="-1.20339">
        <ele>65.6</ele>
        <time>2020-01-26T11:50:09Z</time>
      </trkpt>
      <trkpt lat="45.72843" lon="-1.20336">
        <ele>66</ele>
        <time>2020-01-26T11:50:10Z</time>
      </trkpt>
      <trkpt lat="45.72844" lon="-1.20333">
        <ele>66.4</ele>
        <time>2020-01-26T11:50:11Z</time>
      </trkpt>
      <trkpt lat="45.72844" lon="-1.20331">
        <ele>66.6</ele>
        <time>2020-01-26T11:50:12Z</time>
      </trkpt>
      <trkpt lat="45.72844" lon="-1.20327">
        <ele>67</ele>
        <time>2020-01-26T11:50:13Z</time>
      </trkpt>
      <trkpt lat="45.72843" lon="-1.20324">
        <ele>67.4</ele>
        <time>2020-01-26T11:50:14Z</time>
      </trkpt>
      <trkpt lat="45.72843" lon="-1.20323">
        <ele>68.2</ele>
        <time>2020-01-26T11:50:15Z</time>
      </trkpt>
      <trkpt lat="45.72844" lon="-1.20319">
        <ele>68.4</ele>
        <time>2020-01-26T11:50:16Z</time>
      </trkpt>
      <trkpt lat="45.72844" lon="-1.20317">
        <ele>68.6</ele>
        <time>2020-01-26T11:50:17Z</time>
      </trkpt>
      <trkpt lat="45.72844" lon="-1.20314">
        <ele>68.6</ele>
        <time>2020-01-26T11:50:18Z</time>
      </trkpt>
      <trkpt lat="45.72844" lon="-1.20311">
        <ele>69</ele>
        <time>2020-01-26T11:50:19Z</time>
      </trkpt>
      <trkpt lat="45.72844" lon="-1.20309">
        <ele>69.4</ele>
        <time>2020-01-26T11:50:20Z</time>
      </trkpt>
      <trkpt lat="45.72844" lon="-1.20307">
        <ele>69.8</ele>
        <time>2020-01-26T11:50:21Z</time>
      </trkpt>
      <trkpt lat="45.72844" lon="-1.20305">
        <ele>70.4</ele>
        <time>2020-01-26T11:50:22Z</time>
      </trkpt>
      <trkpt lat="45.72844" lon="-1.20304">
        <ele>70.8</ele>
        <time>2020-01-26T11:50:23Z</time>
      </trkpt>
      <trkpt lat="45.72844" lon="-1.20301">
        <ele>71.4</ele>
        <time>2020-01-26T11:50:24Z</time>
      </trkpt>
      <trkpt lat="45.72843" lon="-1.20299">
        <ele>72</ele>
        <time>2020-01-26T11:50:25Z</time>
      </trkpt>
      <trkpt lat="45.72843" lon="-1.20296">
        <ele>72.8</ele>
        <time>2020-01-26T11:50:26Z</time>
      </trkpt>
      <trkpt lat="45.72842" lon="-1.20295">
        <ele>73</ele>
        <time>2020-01-26T11:50:27Z</time>
      </trkpt>
      <trkpt lat="45.72842" lon="-1.20293">
        <ele>73.2</ele>
        <time>2020-01-26T11:50:28Z</time>
      </trkpt>
      <trkpt lat="45.72842" lon="-1.20291">
        <ele>73.2</ele>
        <time>2020-01-26T11:50:29Z</time>
      </trkpt>
      <trkpt lat="45.72842" lon="-1.2029">
        <ele>73.2</ele>
        <time>2020-01-26T11:50:30Z</time>
      </trkpt>
      <trkpt lat="45.72842" lon="-1.20289">
        <ele>72.8</ele>
        <time>2020-01-26T11:50:31Z</time>
      </trkpt>
      <trkpt lat="45.72842" lon="-1.20284">
        <ele>73</ele>
        <time>2020-01-26T11:50:32Z</time>
      </trkpt>
      <trkpt lat="45.72841" lon="-1.20282">
        <ele>73</ele>
        <time>2020-01-26T11:50:33Z</time>
      </trkpt>
      <trkpt lat="45.7284" lon="-1.2028">
        <ele>73</ele>
        <time>2020-01-26T11:50:34Z</time>
      </trkpt>
      <trkpt lat="45.72842" lon="-1.20276">
        <ele>73</ele>
        <time>2020-01-26T11:50:35Z</time>
      </trkpt>
      <trkpt lat="45.72842" lon="-1.20274">
        <ele>73.2</ele>
        <time>2020-01-26T11:50:36Z</time>
      </trkpt>
      <trkpt lat="45.72842" lon="-1.20272">
        <ele>72.6</ele>
        <time>2020-01-26T11:50:37Z</time>
      </trkpt>
      <trkpt lat="45.72842" lon="-1.20271">
        <ele>72.6</ele>
        <time>2020-01-26T11:50:38Z</time>
      </trkpt>
      <trkpt lat="45.72841" lon="-1.2027">
        <ele>72.6</ele>
        <time>2020-01-26T11:50:39Z</time>
      </trkpt>
      <trkpt lat="45.72841" lon="-1.20267">
        <ele>73</ele>
        <time>2020-01-26T11:50:40Z</time>
      </trkpt>
      <trkpt lat="45.72841" lon="-1.20264">
        <ele>74</ele>
        <time>2020-01-26T11:50:41Z</time>
      </trkpt>
      <trkpt lat="45.7284" lon="-1.20263">
        <ele>74.8</ele>
        <time>2020-01-26T11:50:42Z</time>
      </trkpt>
      <trkpt lat="45.72839" lon="-1.20262">
        <ele>75.6</ele>
        <time>2020-01-26T11:50:43Z</time>
      </trkpt>
      <trkpt lat="45.7284" lon="-1.2026">
        <ele>76.8</ele>
        <time>2020-01-26T11:50:44Z</time>
      </trkpt>
      <trkpt lat="45.7284" lon="-1.20259">
        <ele>77.8</ele>
        <time>2020-01-26T11:50:45Z</time>
      </trkpt>
      <trkpt lat="45.72841" lon="-1.20257">
        <ele>78.8</ele>
        <time>2020-01-26T11:50:46Z</time>
      </trkpt>
      <trkpt lat="45.72841" lon="-1.20256">
        <ele>79.6</ele>
        <time>2020-01-26T11:50:47Z</time>
      </trkpt>
      <trkpt lat="45.72843" lon="-1.20255">
        <ele>79.8</ele>
        <time>2020-01-26T11:50:48Z</time>
      </trkpt>
      <trkpt lat="45.72842" lon="-1.20253">
        <ele>80</ele>
        <time>2020-01-26T11:50:49Z</time>
      </trkpt>
      <trkpt lat="45.7284" lon="-1.20251">
        <ele>80.6</ele>
        <time>2020-01-26T11:50:50Z</time>
      </trkpt>
      <trkpt lat="45.7284" lon="-1.20249">
        <ele>81.2</ele>
        <time>2020-01-26T11:50:51Z</time>
      </trkpt>
      <trkpt lat="45.7284" lon="-1.20247">
        <ele>81.8</ele>
        <time>2020-01-26T11:50:52Z</time>
      </trkpt>
      <trkpt lat="45.7284" lon="-1.20245">
        <ele>82.4</ele>
        <time>2020-01-26T11:50:53Z</time>
      </trkpt>
      <trkpt lat="45.72841" lon="-1.20242">
        <ele>82.6</ele>
        <time>2020-01-26T11:50:54Z</time>
      </trkpt>
      <trkpt lat="45.72841" lon="-1.20239">
        <ele>83.2</ele>
        <time>2020-01-26T11:50:55Z</time>
      </trkpt>
      <trkpt lat="45.7284" lon="-1.20238">
        <ele>84</ele>
        <time>2020-01-26T11:50:56Z</time>
      </trkpt>
      <trkpt lat="45.7284" lon="-1.20237">
        <ele>84.4</ele>
        <time>2020-01-26T11:50:57Z</time>
      </trkpt>
      <trkpt lat="45.7284" lon="-1.20236">
        <ele>84.2</ele>
        <time>2020-01-26T11:50:58Z</time>
      </trkpt>
      <trkpt lat="45.72841" lon="-1.20233">
        <ele>83.6</ele>
        <time>2020-01-26T11:50:59Z</time>
      </trkpt>
      <trkpt lat="45.72841" lon="-1.20231">
        <ele>83</ele>
        <time>2020-01-26T11:51:00Z</time>
      </trkpt>
      <trkpt lat="45.72841" lon="-1.2023">
        <ele>82.6</ele>
        <time>2020-01-26T11:51:01Z</time>
      </trkpt>
      <trkpt lat="45.72842" lon="-1.20229">
        <ele>82.4</ele>
        <time>2020-01-26T11:51:02Z</time>
      </trkpt>
      <trkpt lat="45.72841" lon="-1.20228">
        <ele>82</ele>
        <time>2020-01-26T11:51:03Z</time>
      </trkpt>
      <trkpt lat="45.72841" lon="-1.20227">
        <ele>81.8</ele>
        <time>2020-01-26T11:51:04Z</time>
      </trkpt>
      <trkpt lat="45.72841" lon="-1.20223">
        <ele>80.8</ele>
        <time>2020-01-26T11:51:05Z</time>
      </trkpt>
      <trkpt lat="45.72842" lon="-1.20221">
        <ele>80.6</ele>
        <time>2020-01-26T11:51:06Z</time>
      </trkpt>
      <trkpt lat="45.72842" lon="-1.2022">
        <ele>80.2</ele>
        <time>2020-01-26T11:51:07Z</time>
      </trkpt>
      <trkpt lat="45.72841" lon="-1.20219">
        <ele>80.4</ele>
        <time>2020-01-26T11:51:08Z</time>
      </trkpt>
      <trkpt lat="45.72842" lon="-1.20217">
        <ele>80.4</ele>
        <time>2020-01-26T11:51:09Z</time>
      </trkpt>
      <trkpt lat="45.72841" lon="-1.20215">
        <ele>80.4</ele>
        <time>2020-01-26T11:51:10Z</time>
      </trkpt>
      <trkpt lat="45.72842" lon="-1.20213">
        <ele>80.6</ele>
        <time>2020-01-26T11:51:11Z</time>
      </trkpt>
      <trkpt lat="45.72842" lon="-1.2021">
        <ele>80.8</ele>
        <time>2020-01-26T11:51:12Z</time>
      </trkpt>
      <trkpt lat="45.72843" lon="-1.20208">
        <ele>80.8</ele>
        <time>2020-01-26T11:51:13Z</time>
      </trkpt>
      <trkpt lat="45.72844" lon="-1.20207">
        <ele>81.4</ele>
        <time>2020-01-26T11:51:14Z</time>
      </trkpt>
      <trkpt lat="45.72844" lon="-1.20206">
        <ele>81.4</ele>
        <time>2020-01-26T11:51:15Z</time>
      </trkpt>
      <trkpt lat="45.72844" lon="-1.20204">
        <ele>81.4</ele>
        <time>2020-01-26T11:51:16Z</time>
      </trkpt>
      <trkpt lat="45.72844" lon="-1.20203">
        <ele>81.2</ele>
        <time>2020-01-26T11:51:17Z</time>
      </trkpt>
      <trkpt lat="45.72844" lon="-1.20201">
        <ele>81</ele>
        <time>2020-01-26T11:51:18Z</time>
      </trkpt>
      <trkpt lat="45.72844" lon="-1.20199">
        <ele>81</ele>
        <time>2020-01-26T11:51:19Z</time>
      </trkpt>
      <trkpt lat="45.72844" lon="-1.20197">
        <ele>80.8</ele>
        <time>2020-01-26T11:51:20Z</time>
      </trkpt>
      <trkpt lat="45.72844" lon="-1.20196">
        <ele>80.8</ele>
        <time>2020-01-26T11:51:21Z</time>
      </trkpt>
      <trkpt lat="45.72844" lon="-1.20194">
        <ele>81.2</ele>
        <time>2020-01-26T11:51:22Z</time>
      </trkpt>
      <trkpt lat="45.72843" lon="-1.20193">
        <ele>81.4</ele>
        <time>2020-01-26T11:51:23Z</time>
      </trkpt>
      <trkpt lat="45.72843" lon="-1.20189">
        <ele>81.6</ele>
        <time>2020-01-26T11:51:24Z</time>
      </trkpt>
      <trkpt lat="45.72842" lon="-1.20187">
        <ele>81.6</ele>
        <time>2020-01-26T11:51:25Z</time>
      </trkpt>
      <trkpt lat="45.72842" lon="-1.20185">
        <ele>81.8</ele>
        <time>2020-01-26T11:51:26Z</time>
      </trkpt>
      <trkpt lat="45.72842" lon="-1.20183">
        <ele>82.4</ele>
        <time>2020-01-26T11:51:27Z</time>
      </trkpt>
      <trkpt lat="45.72842" lon="-1.20181">
        <ele>82.8</ele>
        <time>2020-01-26T11:51:28Z</time>
      </trkpt>
      <trkpt lat="45.72842" lon="-1.2018">
        <ele>83</ele>
        <time>2020-01-26T11:51:29Z</time>
      </trkpt>
      <trkpt lat="45.72842" lon="-1.20178">
        <ele>84.2</ele>
        <time>2020-01-26T11:51:30Z</time>
      </trkpt>
      <trkpt lat="45.72842" lon="-1.20177">
        <ele>85.6</ele>
        <time>2020-01-26T11:51:31Z</time>
      </trkpt>
      <trkpt lat="45.72842" lon="-1.20176">
        <ele>86.4</ele>
        <time>2020-01-26T11:51:32Z</time>
      </trkpt>
      <trkpt lat="45.72841" lon="-1.20175">
        <ele>87.4</ele>
        <time>2020-01-26T11:51:33Z</time>
      </trkpt>
      <trkpt lat="45.72841" lon="-1.20174">
        <ele>88</ele>
        <time>2020-01-26T11:51:34Z</time>
      </trkpt>
      <trkpt lat="45.7284" lon="-1.2017">
        <ele>88.8</ele>
        <time>2020-01-26T11:51:35Z</time>
      </trkpt>
      <trkpt lat="45.72841" lon="-1.20167">
        <ele>88.8</ele>
        <time>2020-01-26T11:51:36Z</time>
      </trkpt>
      <trkpt lat="45.72841" lon="-1.20165">
        <ele>88.8</ele>
        <time>2020-01-26T11:51:37Z</time>
      </trkpt>
      <trkpt lat="45.72841" lon="-1.20163">
        <ele>89.2</ele>
        <time>2020-01-26T11:51:38Z</time>
      </trkpt>
      <trkpt lat="45.72841" lon="-1.20161">
        <ele>89</ele>
        <time>2020-01-26T11:51:39Z</time>
      </trkpt>
      <trkpt lat="45.72841" lon="-1.20159">
        <ele>88.8</ele>
        <time>2020-01-26T11:51:40Z</time>
      </trkpt>
      <trkpt lat="45.72842" lon="-1.20157">
        <ele>88.6</ele>
        <time>2020-01-26T11:51:41Z</time>
      </trkpt>
      <trkpt lat="45.72843" lon="-1.20156">
        <ele>88.4</ele>
        <time>2020-01-26T11:51:42Z</time>
      </trkpt>
      <trkpt lat="45.72843" lon="-1.20154">
        <ele>88.4</ele>
        <time>2020-01-26T11:51:43Z</time>
      </trkpt>
      <trkpt lat="45.72843" lon="-1.20153">
        <ele>88</ele>
        <time>2020-01-26T11:51:44Z</time>
      </trkpt>
      <trkpt lat="45.72842" lon="-1.2015">
        <ele>87.8</ele>
        <time>2020-01-26T11:51:45Z</time>
      </trkpt>
      <trkpt lat="45.72842" lon="-1.20148">
        <ele>87.4</ele>
        <time>2020-01-26T11:51:46Z</time>
      </trkpt>
      <trkpt lat="45.72841" lon="-1.20147">
        <ele>87.2</ele>
        <time>2020-01-26T11:51:47Z</time>
      </trkpt>
      <trkpt lat="45.72841" lon="-1.20146">
        <ele>87.2</ele>
        <time>2020-01-26T11:51:48Z</time>
      </trkpt>
      <trkpt lat="45.72841" lon="-1.20142">
        <ele>87.4</ele>
        <time>2020-01-26T11:51:49Z</time>
      </trkpt>
      <trkpt lat="45.7284" lon="-1.2014">
        <ele>87.6</ele>
        <time>2020-01-26T11:51:50Z</time>
      </trkpt>
      <trkpt lat="45.7284" lon="-1.20138">
        <ele>87.4</ele>
        <time>2020-01-26T11:51:51Z</time>
      </trkpt>
      <trkpt lat="45.7284" lon="-1.20136">
        <ele>88</ele>
        <time>2020-01-26T11:51:52Z</time>
      </trkpt>
      <trkpt lat="45.72839" lon="-1.20133">
        <ele>88.4</ele>
        <time>2020-01-26T11:51:53Z</time>
      </trkpt>
      <trkpt lat="45.72839" lon="-1.2013">
        <ele>89</ele>
        <time>2020-01-26T11:51:54Z</time>
      </trkpt>
      <trkpt lat="45.7284" lon="-1.20128">
        <ele>89.6</ele>
        <time>2020-01-26T11:51:55Z</time>
      </trkpt>
      <trkpt lat="45.7284" lon="-1.20126">
        <ele>90.4</ele>
        <time>2020-01-26T11:51:56Z</time>
      </trkpt>
      <trkpt lat="45.7284" lon="-1.20126">
        <ele>91</ele>
        <time>2020-01-26T11:51:57Z</time>
      </trkpt>
      <trkpt lat="45.7284" lon="-1.20126">
        <ele>91.6</ele>
        <time>2020-01-26T11:51:58Z</time>
      </trkpt>
      <trkpt lat="45.7284" lon="-1.20126">
        <ele>91.8</ele>
        <time>2020-01-26T11:51:59Z</time>
      </trkpt>
      <trkpt lat="45.72837" lon="-1.2012">
        <ele>92.8</ele>
        <time>2020-01-26T11:52:00Z</time>
      </trkpt>
      <trkpt lat="45.72837" lon="-1.20116">
        <ele>93.6</ele>
        <time>2020-01-26T11:52:01Z</time>
      </trkpt>
      <trkpt lat="45.72837" lon="-1.20114">
        <ele>93.6</ele>
        <time>2020-01-26T11:52:02Z</time>
      </trkpt>
      <trkpt lat="45.72838" lon="-1.20111">
        <ele>94</ele>
        <time>2020-01-26T11:52:03Z</time>
      </trkpt>
      <trkpt lat="45.72839" lon="-1.20109">
        <ele>94.2</ele>
        <time>2020-01-26T11:52:04Z</time>
      </trkpt>
      <trkpt lat="45.72838" lon="-1.20108">
        <ele>94.2</ele>
        <time>2020-01-26T11:52:05Z</time>
      </trkpt>
      <trkpt lat="45.72838" lon="-1.20107">
        <ele>94.2</ele>
        <time>2020-01-26T11:52:06Z</time>
      </trkpt>
      <trkpt lat="45.72839" lon="-1.20104">
        <ele>93.8</ele>
        <time>2020-01-26T11:52:07Z</time>
      </trkpt>
      <trkpt lat="45.72839" lon="-1.20102">
        <ele>93.6</ele>
        <time>2020-01-26T11:52:08Z</time>
      </trkpt>
      <trkpt lat="45.72839" lon="-1.20101">
        <ele>93.4</ele>
        <time>2020-01-26T11:52:09Z</time>
      </trkpt>
      <trkpt lat="45.72839" lon="-1.20098">
        <ele>93.6</ele>
        <time>2020-01-26T11:52:10Z</time>
      </trkpt>
      <trkpt lat="45.72839" lon="-1.20095">
        <ele>93.4</ele>
        <time>2020-01-26T11:52:11Z</time>
      </trkpt>
      <trkpt lat="45.72839" lon="-1.20092">
        <ele>93</ele>
        <time>2020-01-26T11:52:12Z</time>
      </trkpt>
      <trkpt lat="45.72839" lon="-1.2009">
        <ele>92.6</ele>
        <time>2020-01-26T11:52:13Z</time>
      </trkpt>
      <trkpt lat="45.72839" lon="-1.20087">
        <ele>92.2</ele>
        <time>2020-01-26T11:52:14Z</time>
      </trkpt>
      <trkpt lat="45.7284" lon="-1.20085">
        <ele>91.8</ele>
        <time>2020-01-26T11:52:15Z</time>
      </trkpt>
      <trkpt lat="45.72839" lon="-1.20082">
        <ele>91.8</ele>
        <time>2020-01-26T11:52:16Z</time>
      </trkpt>
      <trkpt lat="45.72839" lon="-1.20079">
        <ele>91.6</ele>
        <time>2020-01-26T11:52:17Z</time>
      </trkpt>
      <trkpt lat="45.72839" lon="-1.20077">
        <ele>91.8</ele>
        <time>2020-01-26T11:52:18Z</time>
      </trkpt>
      <trkpt lat="45.72839" lon="-1.20075">
        <ele>91.8</ele>
        <time>2020-01-26T11:52:19Z</time>
      </trkpt>
      <trkpt lat="45.72839" lon="-1.20073">
        <ele>92.2</ele>
        <time>2020-01-26T11:52:20Z</time>
      </trkpt>
      <trkpt lat="45.72839" lon="-1.20071">
        <ele>92.4</ele>
        <time>2020-01-26T11:52:21Z</time>
      </trkpt>
      <trkpt lat="45.72839" lon="-1.20069">
        <ele>93.2</ele>
        <time>2020-01-26T11:52:22Z</time>
      </trkpt>
      <trkpt lat="45.72839" lon="-1.20066">
        <ele>93.4</ele>
        <time>2020-01-26T11:52:23Z</time>
      </trkpt>
      <trkpt lat="45.72839" lon="-1.20063">
        <ele>93.6</ele>
        <time>2020-01-26T11:52:24Z</time>
      </trkpt>
      <trkpt lat="45.72838" lon="-1.2006">
        <ele>93.4</ele>
        <time>2020-01-26T11:52:25Z</time>
      </trkpt>
      <trkpt lat="45.72838" lon="-1.20057">
        <ele>93.6</ele>
        <time>2020-01-26T11:52:26Z</time>
      </trkpt>
      <trkpt lat="45.72837" lon="-1.20055">
        <ele>94</ele>
        <time>2020-01-26T11:52:27Z</time>
      </trkpt>
      <trkpt lat="45.72839" lon="-1.20052">
        <ele>94</ele>
        <time>2020-01-26T11:52:28Z</time>
      </trkpt>
      <trkpt lat="45.7284" lon="-1.20047">
        <ele>93.6</ele>
        <time>2020-01-26T11:52:29Z</time>
      </trkpt>
      <trkpt lat="45.72841" lon="-1.20043">
        <ele>93.6</ele>
        <time>2020-01-26T11:52:30Z</time>
      </trkpt>
      <trkpt lat="45.72841" lon="-1.20041">
        <ele>93.4</ele>
        <time>2020-01-26T11:52:31Z</time>
      </trkpt>
      <trkpt lat="45.72841" lon="-1.20039">
        <ele>93.4</ele>
        <time>2020-01-26T11:52:32Z</time>
      </trkpt>
      <trkpt lat="45.7284" lon="-1.20038">
        <ele>93.4</ele>
        <time>2020-01-26T11:52:33Z</time>
      </trkpt>
      <trkpt lat="45.7284" lon="-1.20034">
        <ele>93.4</ele>
        <time>2020-01-26T11:52:34Z</time>
      </trkpt>
      <trkpt lat="45.7284" lon="-1.20026">
        <ele>93.2</ele>
        <time>2020-01-26T11:52:35Z</time>
      </trkpt>
      <trkpt lat="45.72839" lon="-1.20021">
        <ele>92.6</ele>
        <time>2020-01-26T11:52:36Z</time>
      </trkpt>
      <trkpt lat="45.72839" lon="-1.20016">
        <ele>92</ele>
        <time>2020-01-26T11:52:37Z</time>
      </trkpt>
      <trkpt lat="45.72839" lon="-1.20011">
        <ele>91.4</ele>
        <time>2020-01-26T11:52:38Z</time>
      </trkpt>
      <trkpt lat="45.7284" lon="-1.20005">
        <ele>90.8</ele>
        <time>2020-01-26T11:52:39Z</time>
      </trkpt>
      <trkpt lat="45.7284" lon="-1.20001">
        <ele>90.4</ele>
        <time>2020-01-26T11:52:40Z</time>
      </trkpt>
      <trkpt lat="45.7284" lon="-1.19997">
        <ele>90</ele>
        <time>2020-01-26T11:52:41Z</time>
      </trkpt>
      <trkpt lat="45.7284" lon="-1.19992">
        <ele>89.6</ele>
        <time>2020-01-26T11:52:42Z</time>
      </trkpt>
      <trkpt lat="45.72841" lon="-1.19989">
        <ele>89.4</ele>
        <time>2020-01-26T11:52:43Z</time>
      </trkpt>
      <trkpt lat="45.72842" lon="-1.19986">
        <ele>89.2</ele>
        <time>2020-01-26T11:52:44Z</time>
      </trkpt>
      <trkpt lat="45.72841" lon="-1.19981">
        <ele>89</ele>
        <time>2020-01-26T11:52:45Z</time>
      </trkpt>
      <trkpt lat="45.72841" lon="-1.19978">
        <ele>88.4</ele>
        <time>2020-01-26T11:52:46Z</time>
      </trkpt>
      <trkpt lat="45.72842" lon="-1.19976">
        <ele>88.2</ele>
        <time>2020-01-26T11:52:47Z</time>
      </trkpt>
      <trkpt lat="45.72842" lon="-1.19974">
        <ele>87.8</ele>
        <time>2020-01-26T11:52:48Z</time>
      </trkpt>
      <trkpt lat="45.7284" lon="-1.19967">
        <ele>87.8</ele>
        <time>2020-01-26T11:52:49Z</time>
      </trkpt>
      <trkpt lat="45.72838" lon="-1.1996">
        <ele>87.6</ele>
        <time>2020-01-26T11:52:50Z</time>
      </trkpt>
      <trkpt lat="45.72835" lon="-1.19957">
        <ele>87.8</ele>
        <time>2020-01-26T11:52:51Z</time>
      </trkpt>
      <trkpt lat="45.72832" lon="-1.19954">
        <ele>87.8</ele>
        <time>2020-01-26T11:52:52Z</time>
      </trkpt>
      <trkpt lat="45.72828" lon="-1.19955">
        <ele>88.2</ele>
        <time>2020-01-26T11:52:53Z</time>
      </trkpt>
      <trkpt lat="45.72822" lon="-1.19955">
        <ele>88.6</ele>
        <time>2020-01-26T11:52:54Z</time>
      </trkpt>
      <trkpt lat="45.7282" lon="-1.19955">
        <ele>89.2</ele>
        <time>2020-01-26T11:52:55Z</time>
      </trkpt>
      <trkpt lat="45.72815" lon="-1.19955">
        <ele>89.2</ele>
        <time>2020-01-26T11:52:56Z</time>
      </trkpt>
      <trkpt lat="45.72811" lon="-1.19954">
        <ele>89.2</ele>
        <time>2020-01-26T11:52:57Z</time>
      </trkpt>
      <trkpt lat="45.72808" lon="-1.19954">
        <ele>89</ele>
        <time>2020-01-26T11:52:58Z</time>
      </trkpt>
      <trkpt lat="45.72803" lon="-1.19953">
        <ele>89</ele>
        <time>2020-01-26T11:52:59Z</time>
      </trkpt>
      <trkpt lat="45.728" lon="-1.19953">
        <ele>88.8</ele>
        <time>2020-01-26T11:53:00Z</time>
      </trkpt>
      <trkpt lat="45.72797" lon="-1.19953">
        <ele>88.4</ele>
        <time>2020-01-26T11:53:01Z</time>
      </trkpt>
      <trkpt lat="45.72794" lon="-1.19953">
        <ele>88.2</ele>
        <time>2020-01-26T11:53:02Z</time>
      </trkpt>
      <trkpt lat="45.72791" lon="-1.19953">
        <ele>88</ele>
        <time>2020-01-26T11:53:03Z</time>
      </trkpt>
      <trkpt lat="45.72787" lon="-1.19951">
        <ele>87.8</ele>
        <time>2020-01-26T11:53:04Z</time>
      </trkpt>
      <trkpt lat="45.72784" lon="-1.19951">
        <ele>87.4</ele>
        <time>2020-01-26T11:53:05Z</time>
      </trkpt>
      <trkpt lat="45.72781" lon="-1.1995">
        <ele>87</ele>
        <time>2020-01-26T11:53:06Z</time>
      </trkpt>
      <trkpt lat="45.72778" lon="-1.19949">
        <ele>86.2</ele>
        <time>2020-01-26T11:53:07Z</time>
      </trkpt>
      <trkpt lat="45.72775" lon="-1.19948">
        <ele>85.4</ele>
        <time>2020-01-26T11:53:08Z</time>
      </trkpt>
      <trkpt lat="45.72769" lon="-1.19948">
        <ele>85.6</ele>
        <time>2020-01-26T11:53:09Z</time>
      </trkpt>
      <trkpt lat="45.72763" lon="-1.19948">
        <ele>85.8</ele>
        <time>2020-01-26T11:53:10Z</time>
      </trkpt>
      <trkpt lat="45.72758" lon="-1.19951">
        <ele>85.6</ele>
        <time>2020-01-26T11:53:11Z</time>
      </trkpt>
      <trkpt lat="45.72754" lon="-1.19952">
        <ele>85.4</ele>
        <time>2020-01-26T11:53:12Z</time>
      </trkpt>
      <trkpt lat="45.72749" lon="-1.19952">
        <ele>85.4</ele>
        <time>2020-01-26T11:53:13Z</time>
      </trkpt>
      <trkpt lat="45.72743" lon="-1.19952">
        <ele>85.2</ele>
        <time>2020-01-26T11:53:14Z</time>
      </trkpt>
      <trkpt lat="45.72737" lon="-1.19951">
        <ele>85.4</ele>
        <time>2020-01-26T11:53:15Z</time>
      </trkpt>
      <trkpt lat="45.72731" lon="-1.19949">
        <ele>85.4</ele>
        <time>2020-01-26T11:53:16Z</time>
      </trkpt>
      <trkpt lat="45.72723" lon="-1.1995">
        <ele>85</ele>
        <time>2020-01-26T11:53:17Z</time>
      </trkpt>
      <trkpt lat="45.72715" lon="-1.19951">
        <ele>84.8</ele>
        <time>2020-01-26T11:53:18Z</time>
      </trkpt>
      <trkpt lat="45.72706" lon="-1.19952">
        <ele>84.2</ele>
        <time>2020-01-26T11:53:19Z</time>
      </trkpt>
      <trkpt lat="45.72697" lon="-1.19953">
        <ele>83.2</ele>
        <time>2020-01-26T11:53:20Z</time>
      </trkpt>
      <trkpt lat="45.7269" lon="-1.19954">
        <ele>82.4</ele>
        <time>2020-01-26T11:53:21Z</time>
      </trkpt>
      <trkpt lat="45.72683" lon="-1.19955">
        <ele>81.6</ele>
        <time>2020-01-26T11:53:22Z</time>
      </trkpt>
      <trkpt lat="45.72676" lon="-1.19956">
        <ele>80.6</ele>
        <time>2020-01-26T11:53:23Z</time>
      </trkpt>
      <trkpt lat="45.7267" lon="-1.19959">
        <ele>79.8</ele>
        <time>2020-01-26T11:53:24Z</time>
      </trkpt>
      <trkpt lat="45.72664" lon="-1.19959">
        <ele>79</ele>
        <time>2020-01-26T11:53:25Z</time>
      </trkpt>
      <trkpt lat="45.7266" lon="-1.19958">
        <ele>78.6</ele>
        <time>2020-01-26T11:53:26Z</time>
      </trkpt>
      <trkpt lat="45.72656" lon="-1.19958">
        <ele>78.2</ele>
        <time>2020-01-26T11:53:27Z</time>
      </trkpt>
      <trkpt lat="45.72655" lon="-1.19959">
        <ele>78.2</ele>
        <time>2020-01-26T11:53:28Z</time>
      </trkpt>
      <trkpt lat="45.72655" lon="-1.19961">
        <ele>78.2</ele>
        <time>2020-01-26T11:53:29Z</time>
      </trkpt>
      <trkpt lat="45.72655" lon="-1.19962">
        <ele>78</ele>
        <time>2020-01-26T11:53:30Z</time>
      </trkpt>
      <trkpt lat="45.72657" lon="-1.19964">
        <ele>77.6</ele>
        <time>2020-01-26T11:53:31Z</time>
      </trkpt>
      <trkpt lat="45.72657" lon="-1.19962">
        <ele>76.6</ele>
        <time>2020-01-26T11:53:32Z</time>
      </trkpt>
      <trkpt lat="45.72657" lon="-1.19963">
        <ele>76</ele>
        <time>2020-01-26T11:53:33Z</time>
      </trkpt>
      <trkpt lat="45.72657" lon="-1.19964">
        <ele>75.2</ele>
        <time>2020-01-26T11:53:34Z</time>
      </trkpt>
      <trkpt lat="45.72657" lon="-1.19964">
        <ele>74.6</ele>
        <time>2020-01-26T11:53:35Z</time>
      </trkpt>
      <trkpt lat="45.72658" lon="-1.19964">
        <ele>73.8</ele>
        <time>2020-01-26T11:53:36Z</time>
      </trkpt>
      <trkpt lat="45.72658" lon="-1.19964">
        <ele>73.4</ele>
        <time>2020-01-26T11:53:37Z</time>
      </trkpt>
      <trkpt lat="45.72658" lon="-1.19964">
        <ele>73</ele>
        <time>2020-01-26T11:53:38Z</time>
      </trkpt>
      <trkpt lat="45.72658" lon="-1.19965">
        <ele>72.6</ele>
        <time>2020-01-26T11:53:39Z</time>
      </trkpt>
      <trkpt lat="45.72659" lon="-1.19968">
        <ele>72.2</ele>
        <time>2020-01-26T11:53:40Z</time>
      </trkpt>
      <trkpt lat="45.7266" lon="-1.19971">
        <ele>71.8</ele>
        <time>2020-01-26T11:53:41Z</time>
      </trkpt>
      <trkpt lat="45.72661" lon="-1.19978">
        <ele>72.2</ele>
        <time>2020-01-26T11:53:42Z</time>
      </trkpt>
      <trkpt lat="45.72661" lon="-1.19982">
        <ele>72.6</ele>
        <time>2020-01-26T11:53:43Z</time>
      </trkpt>
      <trkpt lat="45.72663" lon="-1.19985">
        <ele>73</ele>
        <time>2020-01-26T11:53:44Z</time>
      </trkpt>
      <trkpt lat="45.72663" lon="-1.19989">
        <ele>73.2</ele>
        <time>2020-01-26T11:53:45Z</time>
      </trkpt>
      <trkpt lat="45.72663" lon="-1.19994">
        <ele>73.2</ele>
        <time>2020-01-26T11:53:46Z</time>
      </trkpt>
      <trkpt lat="45.72664" lon="-1.2">
        <ele>73.2</ele>
        <time>2020-01-26T11:53:47Z</time>
      </trkpt>
      <trkpt lat="45.72666" lon="-1.20005">
        <ele>73.4</ele>
        <time>2020-01-26T11:53:48Z</time>
      </trkpt>
      <trkpt lat="45.72667" lon="-1.2001">
        <ele>73.8</ele>
        <time>2020-01-26T11:53:49Z</time>
      </trkpt>
      <trkpt lat="45.72666" lon="-1.20014">
        <ele>74</ele>
        <time>2020-01-26T11:53:50Z</time>
      </trkpt>
      <trkpt lat="45.72667" lon="-1.20019">
        <ele>74</ele>
        <time>2020-01-26T11:53:51Z</time>
      </trkpt>
      <trkpt lat="45.72668" lon="-1.20022">
        <ele>74.6</ele>
        <time>2020-01-26T11:53:52Z</time>
      </trkpt>
      <trkpt lat="45.72669" lon="-1.20024">
        <ele>74.8</ele>
        <time>2020-01-26T11:53:53Z</time>
      </trkpt>
      <trkpt lat="45.7267" lon="-1.2003">
        <ele>74.6</ele>
        <time>2020-01-26T11:53:54Z</time>
      </trkpt>
      <trkpt lat="45.72669" lon="-1.20033">
        <ele>74.2</ele>
        <time>2020-01-26T11:53:55Z</time>
      </trkpt>
      <trkpt lat="45.72672" lon="-1.20037">
        <ele>74.2</ele>
        <time>2020-01-26T11:53:56Z</time>
      </trkpt>
      <trkpt lat="45.72672" lon="-1.2004">
        <ele>74</ele>
        <time>2020-01-26T11:53:57Z</time>
      </trkpt>
      <trkpt lat="45.72671" lon="-1.20043">
        <ele>74.4</ele>
        <time>2020-01-26T11:53:58Z</time>
      </trkpt>
      <trkpt lat="45.72668" lon="-1.20046">
        <ele>75</ele>
        <time>2020-01-26T11:53:59Z</time>
      </trkpt>
      <trkpt lat="45.7267" lon="-1.2005">
        <ele>75.6</ele>
        <time>2020-01-26T11:54:00Z</time>
      </trkpt>
      <trkpt lat="45.72667" lon="-1.20056">
        <ele>75.2</ele>
        <time>2020-01-26T11:54:01Z</time>
      </trkpt>
      <trkpt lat="45.72668" lon="-1.20062">
        <ele>74.4</ele>
        <time>2020-01-26T11:54:02Z</time>
      </trkpt>
      <trkpt lat="45.72667" lon="-1.20067">
        <ele>73.2</ele>
        <time>2020-01-26T11:54:03Z</time>
      </trkpt>
      <trkpt lat="45.72667" lon="-1.20072">
        <ele>72.2</ele>
        <time>2020-01-26T11:54:04Z</time>
      </trkpt>
      <trkpt lat="45.72667" lon="-1.20076">
        <ele>71</ele>
        <time>2020-01-26T11:54:05Z</time>
      </trkpt>
      <trkpt lat="45.72668" lon="-1.20089">
        <ele>70</ele>
        <time>2020-01-26T11:54:06Z</time>
      </trkpt>
      <trkpt lat="45.72667" lon="-1.201">
        <ele>69.6</ele>
        <time>2020-01-26T11:54:07Z</time>
      </trkpt>
      <trkpt lat="45.72667" lon="-1.20111">
        <ele>69.2</ele>
        <time>2020-01-26T11:54:08Z</time>
      </trkpt>
      <trkpt lat="45.72668" lon="-1.20121">
        <ele>69.4</ele>
        <time>2020-01-26T11:54:09Z</time>
      </trkpt>
      <trkpt lat="45.72666" lon="-1.20133">
        <ele>69.8</ele>
        <time>2020-01-26T11:54:10Z</time>
      </trkpt>
      <trkpt lat="45.72665" lon="-1.20145">
        <ele>70.6</ele>
        <time>2020-01-26T11:54:11Z</time>
      </trkpt>
      <trkpt lat="45.72666" lon="-1.20156">
        <ele>71.2</ele>
        <time>2020-01-26T11:54:12Z</time>
      </trkpt>
      <trkpt lat="45.72666" lon="-1.20168">
        <ele>72</ele>
        <time>2020-01-26T11:54:13Z</time>
      </trkpt>
      <trkpt lat="45.72666" lon="-1.20181">
        <ele>72.2</ele>
        <time>2020-01-26T11:54:14Z</time>
      </trkpt>
      <trkpt lat="45.72666" lon="-1.20194">
        <ele>71.8</ele>
        <time>2020-01-26T11:54:15Z</time>
      </trkpt>
      <trkpt lat="45.72666" lon="-1.20206">
        <ele>72.2</ele>
        <time>2020-01-26T11:54:16Z</time>
      </trkpt>
      <trkpt lat="45.72667" lon="-1.20219">
        <ele>72.2</ele>
        <time>2020-01-26T11:54:17Z</time>
      </trkpt>
      <trkpt lat="45.72667" lon="-1.20233">
        <ele>72</ele>
        <time>2020-01-26T11:54:18Z</time>
      </trkpt>
      <trkpt lat="45.72666" lon="-1.20247">
        <ele>71.8</ele>
        <time>2020-01-26T11:54:19Z</time>
      </trkpt>
      <trkpt lat="45.72664" lon="-1.2026">
        <ele>71.6</ele>
        <time>2020-01-26T11:54:20Z</time>
      </trkpt>
      <trkpt lat="45.72665" lon="-1.20272">
        <ele>71.4</ele>
        <time>2020-01-26T11:54:21Z</time>
      </trkpt>
      <trkpt lat="45.72666" lon="-1.20286">
        <ele>71</ele>
        <time>2020-01-26T11:54:22Z</time>
      </trkpt>
      <trkpt lat="45.72664" lon="-1.20299">
        <ele>70.8</ele>
        <time>2020-01-26T11:54:23Z</time>
      </trkpt>
      <trkpt lat="45.72665" lon="-1.20312">
        <ele>70.6</ele>
        <time>2020-01-26T11:54:24Z</time>
      </trkpt>
      <trkpt lat="45.72667" lon="-1.20326">
        <ele>69.8</ele>
        <time>2020-01-26T11:54:25Z</time>
      </trkpt>
      <trkpt lat="45.72668" lon="-1.2034">
        <ele>68.6</ele>
        <time>2020-01-26T11:54:26Z</time>
      </trkpt>
      <trkpt lat="45.72668" lon="-1.20355">
        <ele>67.4</ele>
        <time>2020-01-26T11:54:27Z</time>
      </trkpt>
      <trkpt lat="45.72667" lon="-1.20368">
        <ele>66.8</ele>
        <time>2020-01-26T11:54:28Z</time>
      </trkpt>
      <trkpt lat="45.72667" lon="-1.20382">
        <ele>66.4</ele>
        <time>2020-01-26T11:54:29Z</time>
      </trkpt>
      <trkpt lat="45.72668" lon="-1.20395">
        <ele>66</ele>
        <time>2020-01-26T11:54:30Z</time>
      </trkpt>
      <trkpt lat="45.72669" lon="-1.20407">
        <ele>65.8</ele>
        <time>2020-01-26T11:54:31Z</time>
      </trkpt>
      <trkpt lat="45.7267" lon="-1.20418">
        <ele>65.6</ele>
        <time>2020-01-26T11:54:32Z</time>
      </trkpt>
      <trkpt lat="45.7267" lon="-1.20429">
        <ele>65.4</ele>
        <time>2020-01-26T11:54:33Z</time>
      </trkpt>
      <trkpt lat="45.72672" lon="-1.20438">
        <ele>65</ele>
        <time>2020-01-26T11:54:34Z</time>
      </trkpt>
      <trkpt lat="45.72672" lon="-1.20448">
        <ele>64.8</ele>
        <time>2020-01-26T11:54:35Z</time>
      </trkpt>
      <trkpt lat="45.72675" lon="-1.20456">
        <ele>64.8</ele>
        <time>2020-01-26T11:54:36Z</time>
      </trkpt>
      <trkpt lat="45.72674" lon="-1.20458">
        <ele>64.6</ele>
        <time>2020-01-26T11:54:37Z</time>
      </trkpt>
      <trkpt lat="45.72674" lon="-1.20463">
        <ele>64.8</ele>
        <time>2020-01-26T11:54:38Z</time>
      </trkpt>
      <trkpt lat="45.72674" lon="-1.20467">
        <ele>65.4</ele>
        <time>2020-01-26T11:54:39Z</time>
      </trkpt>
      <trkpt lat="45.72674" lon="-1.20471">
        <ele>66</ele>
        <time>2020-01-26T11:54:40Z</time>
      </trkpt>
      <trkpt lat="45.72674" lon="-1.20477">
        <ele>66.2</ele>
        <time>2020-01-26T11:54:41Z</time>
      </trkpt>
      <trkpt lat="45.72674" lon="-1.20479">
        <ele>66.6</ele>
        <time>2020-01-26T11:54:42Z</time>
      </trkpt>
      <trkpt lat="45.72673" lon="-1.20482">
        <ele>67.2</ele>
        <time>2020-01-26T11:54:43Z</time>
      </trkpt>
      <trkpt lat="45.72673" lon="-1.20484">
        <ele>67.8</ele>
        <time>2020-01-26T11:54:44Z</time>
      </trkpt>
      <trkpt lat="45.72674" lon="-1.20486">
        <ele>68.4</ele>
        <time>2020-01-26T11:54:45Z</time>
      </trkpt>
      <trkpt lat="45.72673" lon="-1.20488">
        <ele>69.2</ele>
        <time>2020-01-26T11:54:46Z</time>
      </trkpt>
      <trkpt lat="45.72673" lon="-1.2049">
        <ele>70</ele>
        <time>2020-01-26T11:54:47Z</time>
      </trkpt>
      <trkpt lat="45.72674" lon="-1.20493">
        <ele>70.4</ele>
        <time>2020-01-26T11:54:48Z</time>
      </trkpt>
      <trkpt lat="45.72675" lon="-1.20495">
        <ele>70.6</ele>
        <time>2020-01-26T11:54:49Z</time>
      </trkpt>
      <trkpt lat="45.72674" lon="-1.20498">
        <ele>71</ele>
        <time>2020-01-26T11:54:50Z</time>
      </trkpt>
      <trkpt lat="45.72674" lon="-1.205">
        <ele>71.2</ele>
        <time>2020-01-26T11:54:51Z</time>
      </trkpt>
      <trkpt lat="45.72675" lon="-1.20502">
        <ele>71.4</ele>
        <time>2020-01-26T11:54:52Z</time>
      </trkpt>
      <trkpt lat="45.72675" lon="-1.20504">
        <ele>71.8</ele>
        <time>2020-01-26T11:54:53Z</time>
      </trkpt>
      <trkpt lat="45.72675" lon="-1.20506">
        <ele>72.2</ele>
        <time>2020-01-26T11:54:54Z</time>
      </trkpt>
      <trkpt lat="45.72675" lon="-1.20508">
        <ele>72.4</ele>
        <time>2020-01-26T11:54:55Z</time>
      </trkpt>
      <trkpt lat="45.72675" lon="-1.2051">
        <ele>72.6</ele>
        <time>2020-01-26T11:54:56Z</time>
      </trkpt>
      <trkpt lat="45.72675" lon="-1.20512">
        <ele>72.8</ele>
        <time>2020-01-26T11:54:57Z</time>
      </trkpt>
      <trkpt lat="45.72675" lon="-1.20513">
        <ele>73.2</ele>
        <time>2020-01-26T11:54:58Z</time>
      </trkpt>
      <trkpt lat="45.72675" lon="-1.20516">
        <ele>73.6</ele>
        <time>2020-01-26T11:54:59Z</time>
      </trkpt>
      <trkpt lat="45.72675" lon="-1.20518">
        <ele>74</ele>
        <time>2020-01-26T11:55:00Z</time>
      </trkpt>
      <trkpt lat="45.72675" lon="-1.2052">
        <ele>74.2</ele>
        <time>2020-01-26T11:55:01Z</time>
      </trkpt>
      <trkpt lat="45.72676" lon="-1.20522">
        <ele>74.6</ele>
        <time>2020-01-26T11:55:02Z</time>
      </trkpt>
      <trkpt lat="45.72676" lon="-1.20523">
        <ele>75</ele>
        <time>2020-01-26T11:55:03Z</time>
      </trkpt>
      <trkpt lat="45.72676" lon="-1.20525">
        <ele>75.2</ele>
        <time>2020-01-26T11:55:04Z</time>
      </trkpt>
      <trkpt lat="45.72676" lon="-1.20527">
        <ele>75.8</ele>
        <time>2020-01-26T11:55:05Z</time>
      </trkpt>
      <trkpt lat="45.72677" lon="-1.20528">
        <ele>76.2</ele>
        <time>2020-01-26T11:55:06Z</time>
      </trkpt>
      <trkpt lat="45.72678" lon="-1.20531">
        <ele>76.4</ele>
        <time>2020-01-26T11:55:07Z</time>
      </trkpt>
      <trkpt lat="45.72678" lon="-1.20532">
        <ele>76.6</ele>
        <time>2020-01-26T11:55:08Z</time>
      </trkpt>
      <trkpt lat="45.72678" lon="-1.20533">
        <ele>76.6</ele>
        <time>2020-01-26T11:55:09Z</time>
      </trkpt>
      <trkpt lat="45.72677" lon="-1.20536">
        <ele>76.2</ele>
        <time>2020-01-26T11:55:10Z</time>
      </trkpt>
      <trkpt lat="45.72676" lon="-1.20539">
        <ele>76</ele>
        <time>2020-01-26T11:55:11Z</time>
      </trkpt>
      <trkpt lat="45.72676" lon="-1.2054">
        <ele>75.6</ele>
        <time>2020-01-26T11:55:12Z</time>
      </trkpt>
      <trkpt lat="45.72675" lon="-1.20542">
        <ele>75</ele>
        <time>2020-01-26T11:55:13Z</time>
      </trkpt>
      <trkpt lat="45.72674" lon="-1.20543">
        <ele>74.2</ele>
        <time>2020-01-26T11:55:14Z</time>
      </trkpt>
      <trkpt lat="45.72673" lon="-1.20544">
        <ele>73.6</ele>
        <time>2020-01-26T11:55:15Z</time>
      </trkpt>
      <trkpt lat="45.72672" lon="-1.20545">
        <ele>73</ele>
        <time>2020-01-26T11:55:16Z</time>
      </trkpt>
      <trkpt lat="45.72672" lon="-1.20546">
        <ele>72.2</ele>
        <time>2020-01-26T11:55:17Z</time>
      </trkpt>
      <trkpt lat="45.7267" lon="-1.20547">
        <ele>71.6</ele>
        <time>2020-01-26T11:55:18Z</time>
      </trkpt>
      <trkpt lat="45.72669" lon="-1.20549">
        <ele>71.2</ele>
        <time>2020-01-26T11:55:19Z</time>
      </trkpt>
      <trkpt lat="45.72668" lon="-1.20551">
        <ele>70.4</ele>
        <time>2020-01-26T11:55:20Z</time>
      </trkpt>
      <trkpt lat="45.72668" lon="-1.20552">
        <ele>69.8</ele>
        <time>2020-01-26T11:55:21Z</time>
      </trkpt>
      <trkpt lat="45.72667" lon="-1.20554">
        <ele>69.2</ele>
        <time>2020-01-26T11:55:22Z</time>
      </trkpt>
      <trkpt lat="45.72667" lon="-1.20556">
        <ele>68.6</ele>
        <time>2020-01-26T11:55:23Z</time>
      </trkpt>
      <trkpt lat="45.72665" lon="-1.20558">
        <ele>68</ele>
        <time>2020-01-26T11:55:24Z</time>
      </trkpt>
      <trkpt lat="45.72663" lon="-1.20559">
        <ele>67.4</ele>
        <time>2020-01-26T11:55:25Z</time>
      </trkpt>
      <trkpt lat="45.72662" lon="-1.20561">
        <ele>67.4</ele>
        <time>2020-01-26T11:55:26Z</time>
      </trkpt>
      <trkpt lat="45.7266" lon="-1.20562">
        <ele>67</ele>
        <time>2020-01-26T11:55:27Z</time>
      </trkpt>
      <trkpt lat="45.72658" lon="-1.20564">
        <ele>66.8</ele>
        <time>2020-01-26T11:55:28Z</time>
      </trkpt>
      <trkpt lat="45.72657" lon="-1.20566">
        <ele>66.8</ele>
        <time>2020-01-26T11:55:29Z</time>
      </trkpt>
      <trkpt lat="45.72655" lon="-1.20568">
        <ele>67.2</ele>
        <time>2020-01-26T11:55:30Z</time>
      </trkpt>
      <trkpt lat="45.72654" lon="-1.2057">
        <ele>67.4</ele>
        <time>2020-01-26T11:55:31Z</time>
      </trkpt>
      <trkpt lat="45.72653" lon="-1.20571">
        <ele>67.4</ele>
        <time>2020-01-26T11:55:32Z</time>
      </trkpt>
      <trkpt lat="45.72652" lon="-1.20572">
        <ele>67.4</ele>
        <time>2020-01-26T11:55:33Z</time>
      </trkpt>
      <trkpt lat="45.72651" lon="-1.20574">
        <ele>67.6</ele>
        <time>2020-01-26T11:55:34Z</time>
      </trkpt>
      <trkpt lat="45.72649" lon="-1.20575">
        <ele>67.6</ele>
        <time>2020-01-26T11:55:35Z</time>
      </trkpt>
      <trkpt lat="45.72647" lon="-1.20578">
        <ele>68</ele>
        <time>2020-01-26T11:55:36Z</time>
      </trkpt>
      <trkpt lat="45.72646" lon="-1.2058">
        <ele>68.6</ele>
        <time>2020-01-26T11:55:37Z</time>
      </trkpt>
      <trkpt lat="45.72645" lon="-1.20581">
        <ele>68.8</ele>
        <time>2020-01-26T11:55:38Z</time>
      </trkpt>
      <trkpt lat="45.72645" lon="-1.20583">
        <ele>69</ele>
        <time>2020-01-26T11:55:39Z</time>
      </trkpt>
      <trkpt lat="45.72644" lon="-1.20585">
        <ele>69</ele>
        <time>2020-01-26T11:55:40Z</time>
      </trkpt>
      <trkpt lat="45.72643" lon="-1.20587">
        <ele>69</ele>
        <time>2020-01-26T11:55:41Z</time>
      </trkpt>
      <trkpt lat="45.72643" lon="-1.20589">
        <ele>68.2</ele>
        <time>2020-01-26T11:55:42Z</time>
      </trkpt>
      <trkpt lat="45.72642" lon="-1.20592">
        <ele>67.4</ele>
        <time>2020-01-26T11:55:43Z</time>
      </trkpt>
      <trkpt lat="45.72639" lon="-1.20595">
        <ele>67</ele>
        <time>2020-01-26T11:55:44Z</time>
      </trkpt>
      <trkpt lat="45.72636" lon="-1.20598">
        <ele>67</ele>
        <time>2020-01-26T11:55:45Z</time>
      </trkpt>
      <trkpt lat="45.72634" lon="-1.20602">
        <ele>67.2</ele>
        <time>2020-01-26T11:55:46Z</time>
      </trkpt>
      <trkpt lat="45.72631" lon="-1.20606">
        <ele>67.4</ele>
        <time>2020-01-26T11:55:47Z</time>
      </trkpt>
      <trkpt lat="45.72629" lon="-1.20611">
        <ele>67.6</ele>
        <time>2020-01-26T11:55:48Z</time>
      </trkpt>
      <trkpt lat="45.72627" lon="-1.20616">
        <ele>67.8</ele>
        <time>2020-01-26T11:55:49Z</time>
      </trkpt>
      <trkpt lat="45.72626" lon="-1.20621">
        <ele>68</ele>
        <time>2020-01-26T11:55:50Z</time>
      </trkpt>
      <trkpt lat="45.72626" lon="-1.20625">
        <ele>67.8</ele>
        <time>2020-01-26T11:55:51Z</time>
      </trkpt>
      <trkpt lat="45.72625" lon="-1.20629">
        <ele>67.6</ele>
        <time>2020-01-26T11:55:52Z</time>
      </trkpt>
      <trkpt lat="45.72623" lon="-1.20632">
        <ele>67.4</ele>
        <time>2020-01-26T11:55:53Z</time>
      </trkpt>
      <trkpt lat="45.72623" lon="-1.20635">
        <ele>67</ele>
        <time>2020-01-26T11:55:54Z</time>
      </trkpt>
      <trkpt lat="45.72622" lon="-1.20638">
        <ele>66.2</ele>
        <time>2020-01-26T11:55:55Z</time>
      </trkpt>
      <trkpt lat="45.7262" lon="-1.20642">
        <ele>65.8</ele>
        <time>2020-01-26T11:55:56Z</time>
      </trkpt>
      <trkpt lat="45.72619" lon="-1.20646">
        <ele>65.6</ele>
        <time>2020-01-26T11:55:57Z</time>
      </trkpt>
      <trkpt lat="45.72618" lon="-1.20649">
        <ele>65.4</ele>
        <time>2020-01-26T11:55:58Z</time>
      </trkpt>
      <trkpt lat="45.72616" lon="-1.20653">
        <ele>66</ele>
        <time>2020-01-26T11:55:59Z</time>
      </trkpt>
      <trkpt lat="45.72615" lon="-1.20657">
        <ele>66.6</ele>
        <time>2020-01-26T11:56:00Z</time>
      </trkpt>
      <trkpt lat="45.72614" lon="-1.20661">
        <ele>66.6</ele>
        <time>2020-01-26T11:56:01Z</time>
      </trkpt>
      <trkpt lat="45.72614" lon="-1.20665">
        <ele>67</ele>
        <time>2020-01-26T11:56:02Z</time>
      </trkpt>
      <trkpt lat="45.72614" lon="-1.20669">
        <ele>67.6</ele>
        <time>2020-01-26T11:56:03Z</time>
      </trkpt>
      <trkpt lat="45.72614" lon="-1.20672">
        <ele>68</ele>
        <time>2020-01-26T11:56:04Z</time>
      </trkpt>
      <trkpt lat="45.72614" lon="-1.20675">
        <ele>68.4</ele>
        <time>2020-01-26T11:56:05Z</time>
      </trkpt>
      <trkpt lat="45.72613" lon="-1.20677">
        <ele>69.4</ele>
        <time>2020-01-26T11:56:06Z</time>
      </trkpt>
      <trkpt lat="45.72613" lon="-1.20679">
        <ele>70</ele>
        <time>2020-01-26T11:56:07Z</time>
      </trkpt>
      <trkpt lat="45.72611" lon="-1.20683">
        <ele>70.6</ele>
        <time>2020-01-26T11:56:08Z</time>
      </trkpt>
      <trkpt lat="45.7261" lon="-1.20686">
        <ele>70.8</ele>
        <time>2020-01-26T11:56:09Z</time>
      </trkpt>
      <trkpt lat="45.72607" lon="-1.20689">
        <ele>71.4</ele>
        <time>2020-01-26T11:56:10Z</time>
      </trkpt>
      <trkpt lat="45.72606" lon="-1.20692">
        <ele>71.8</ele>
        <time>2020-01-26T11:56:11Z</time>
      </trkpt>
      <trkpt lat="45.72604" lon="-1.20695">
        <ele>72.4</ele>
        <time>2020-01-26T11:56:12Z</time>
      </trkpt>
      <trkpt lat="45.72603" lon="-1.20699">
        <ele>73</ele>
        <time>2020-01-26T11:56:13Z</time>
      </trkpt>
      <trkpt lat="45.72602" lon="-1.20702">
        <ele>73.2</ele>
        <time>2020-01-26T11:56:14Z</time>
      </trkpt>
      <trkpt lat="45.72602" lon="-1.20706">
        <ele>73.2</ele>
        <time>2020-01-26T11:56:15Z</time>
      </trkpt>
      <trkpt lat="45.72602" lon="-1.20709">
        <ele>73.4</ele>
        <time>2020-01-26T11:56:16Z</time>
      </trkpt>
      <trkpt lat="45.72601" lon="-1.20711">
        <ele>73.8</ele>
        <time>2020-01-26T11:56:17Z</time>
      </trkpt>
      <trkpt lat="45.72601" lon="-1.20715">
        <ele>74</ele>
        <time>2020-01-26T11:56:18Z</time>
      </trkpt>
      <trkpt lat="45.726" lon="-1.20718">
        <ele>74</ele>
        <time>2020-01-26T11:56:19Z</time>
      </trkpt>
      <trkpt lat="45.72599" lon="-1.20721">
        <ele>74</ele>
        <time>2020-01-26T11:56:20Z</time>
      </trkpt>
      <trkpt lat="45.72598" lon="-1.20723">
        <ele>74</ele>
        <time>2020-01-26T11:56:21Z</time>
      </trkpt>
      <trkpt lat="45.72596" lon="-1.20726">
        <ele>74</ele>
        <time>2020-01-26T11:56:22Z</time>
      </trkpt>
      <trkpt lat="45.72594" lon="-1.20728">
        <ele>74</ele>
        <time>2020-01-26T11:56:23Z</time>
      </trkpt>
      <trkpt lat="45.72592" lon="-1.20731">
        <ele>74.4</ele>
        <time>2020-01-26T11:56:24Z</time>
      </trkpt>
      <trkpt lat="45.72591" lon="-1.20734">
        <ele>74.8</ele>
        <time>2020-01-26T11:56:25Z</time>
      </trkpt>
      <trkpt lat="45.72589" lon="-1.20737">
        <ele>75</ele>
        <time>2020-01-26T11:56:26Z</time>
      </trkpt>
      <trkpt lat="45.72587" lon="-1.2074">
        <ele>75.6</ele>
        <time>2020-01-26T11:56:27Z</time>
      </trkpt>
      <trkpt lat="45.72585" lon="-1.20743">
        <ele>75.6</ele>
        <time>2020-01-26T11:56:28Z</time>
      </trkpt>
      <trkpt lat="45.72583" lon="-1.20745">
        <ele>75.8</ele>
        <time>2020-01-26T11:56:29Z</time>
      </trkpt>
      <trkpt lat="45.72582" lon="-1.20748">
        <ele>75.8</ele>
        <time>2020-01-26T11:56:30Z</time>
      </trkpt>
      <trkpt lat="45.7258" lon="-1.20751">
        <ele>75.8</ele>
        <time>2020-01-26T11:56:31Z</time>
      </trkpt>
      <trkpt lat="45.72579" lon="-1.20753">
        <ele>76</ele>
        <time>2020-01-26T11:56:32Z</time>
      </trkpt>
      <trkpt lat="45.72577" lon="-1.20757">
        <ele>76.2</ele>
        <time>2020-01-26T11:56:33Z</time>
      </trkpt>
      <trkpt lat="45.72577" lon="-1.2076">
        <ele>76.4</ele>
        <time>2020-01-26T11:56:34Z</time>
      </trkpt>
      <trkpt lat="45.72575" lon="-1.20763">
        <ele>76.6</ele>
        <time>2020-01-26T11:56:35Z</time>
      </trkpt>
      <trkpt lat="45.72573" lon="-1.20766">
        <ele>76.6</ele>
        <time>2020-01-26T11:56:36Z</time>
      </trkpt>
      <trkpt lat="45.72572" lon="-1.20769">
        <ele>77</ele>
        <time>2020-01-26T11:56:37Z</time>
      </trkpt>
      <trkpt lat="45.7257" lon="-1.2077">
        <ele>77.2</ele>
        <time>2020-01-26T11:56:38Z</time>
      </trkpt>
      <trkpt lat="45.72569" lon="-1.20771">
        <ele>77.4</ele>
        <time>2020-01-26T11:56:39Z</time>
      </trkpt>
      <trkpt lat="45.72566" lon="-1.20771">
        <ele>77.6</ele>
        <time>2020-01-26T11:56:40Z</time>
      </trkpt>
      <trkpt lat="45.72564" lon="-1.2077">
        <ele>77.6</ele>
        <time>2020-01-26T11:56:41Z</time>
      </trkpt>
      <trkpt lat="45.72563" lon="-1.20769">
        <ele>77.6</ele>
        <time>2020-01-26T11:56:42Z</time>
      </trkpt>
      <trkpt lat="45.72561" lon="-1.20768">
        <ele>77.4</ele>
        <time>2020-01-26T11:56:43Z</time>
      </trkpt>
      <trkpt lat="45.72558" lon="-1.20767">
        <ele>77.4</ele>
        <time>2020-01-26T11:56:44Z</time>
      </trkpt>
      <trkpt lat="45.72556" lon="-1.20766">
        <ele>77.4</ele>
        <time>2020-01-26T11:56:45Z</time>
      </trkpt>
      <trkpt lat="45.72554" lon="-1.20765">
        <ele>77.4</ele>
        <time>2020-01-26T11:56:46Z</time>
      </trkpt>
      <trkpt lat="45.72551" lon="-1.20763">
        <ele>77.2</ele>
        <time>2020-01-26T11:56:47Z</time>
      </trkpt>
      <trkpt lat="45.72549" lon="-1.20762">
        <ele>77.4</ele>
        <time>2020-01-26T11:56:48Z</time>
      </trkpt>
      <trkpt lat="45.72548" lon="-1.20762">
        <ele>77.6</ele>
        <time>2020-01-26T11:56:49Z</time>
      </trkpt>
      <trkpt lat="45.72546" lon="-1.20761">
        <ele>77.8</ele>
        <time>2020-01-26T11:56:50Z</time>
      </trkpt>
      <trkpt lat="45.72544" lon="-1.2076">
        <ele>78</ele>
        <time>2020-01-26T11:56:51Z</time>
      </trkpt>
      <trkpt lat="45.72543" lon="-1.2076">
        <ele>78</ele>
        <time>2020-01-26T11:56:52Z</time>
      </trkpt>
      <trkpt lat="45.72541" lon="-1.20758">
        <ele>78.6</ele>
        <time>2020-01-26T11:56:53Z</time>
      </trkpt>
      <trkpt lat="45.72538" lon="-1.20757">
        <ele>79</ele>
        <time>2020-01-26T11:56:54Z</time>
      </trkpt>
      <trkpt lat="45.72536" lon="-1.20757">
        <ele>79.4</ele>
        <time>2020-01-26T11:56:55Z</time>
      </trkpt>
      <trkpt lat="45.72534" lon="-1.20757">
        <ele>79.8</ele>
        <time>2020-01-26T11:56:56Z</time>
      </trkpt>
      <trkpt lat="45.72532" lon="-1.20758">
        <ele>80.4</ele>
        <time>2020-01-26T11:56:57Z</time>
      </trkpt>
      <trkpt lat="45.72529" lon="-1.2076">
        <ele>81</ele>
        <time>2020-01-26T11:56:58Z</time>
      </trkpt>
      <trkpt lat="45.72527" lon="-1.20759">
        <ele>81.6</ele>
        <time>2020-01-26T11:56:59Z</time>
      </trkpt>
      <trkpt lat="45.72525" lon="-1.2076">
        <ele>81.8</ele>
        <time>2020-01-26T11:57:00Z</time>
      </trkpt>
      <trkpt lat="45.72523" lon="-1.2076">
        <ele>82.2</ele>
        <time>2020-01-26T11:57:01Z</time>
      </trkpt>
      <trkpt lat="45.72521" lon="-1.20761">
        <ele>82.6</ele>
        <time>2020-01-26T11:57:02Z</time>
      </trkpt>
      <trkpt lat="45.72519" lon="-1.20761">
        <ele>83</ele>
        <time>2020-01-26T11:57:03Z</time>
      </trkpt>
      <trkpt lat="45.72517" lon="-1.20762">
        <ele>83.4</ele>
        <time>2020-01-26T11:57:04Z</time>
      </trkpt>
      <trkpt lat="45.72515" lon="-1.20763">
        <ele>83.8</ele>
        <time>2020-01-26T11:57:05Z</time>
      </trkpt>
      <trkpt lat="45.72514" lon="-1.20764">
        <ele>84.4</ele>
        <time>2020-01-26T11:57:06Z</time>
      </trkpt>
      <trkpt lat="45.72512" lon="-1.20765">
        <ele>84.8</ele>
        <time>2020-01-26T11:57:07Z</time>
      </trkpt>
      <trkpt lat="45.72511" lon="-1.20766">
        <ele>84.8</ele>
        <time>2020-01-26T11:57:08Z</time>
      </trkpt>
      <trkpt lat="45.72509" lon="-1.20768">
        <ele>85</ele>
        <time>2020-01-26T11:57:09Z</time>
      </trkpt>
      <trkpt lat="45.72507" lon="-1.20769">
        <ele>85.2</ele>
        <time>2020-01-26T11:57:10Z</time>
      </trkpt>
      <trkpt lat="45.72506" lon="-1.2077">
        <ele>85.6</ele>
        <time>2020-01-26T11:57:11Z</time>
      </trkpt>
      <trkpt lat="45.72504" lon="-1.20771">
        <ele>86.2</ele>
        <time>2020-01-26T11:57:12Z</time>
      </trkpt>
      <trkpt lat="45.72502" lon="-1.20773">
        <ele>86.6</ele>
        <time>2020-01-26T11:57:13Z</time>
      </trkpt>
      <trkpt lat="45.725" lon="-1.20774">
        <ele>87.2</ele>
        <time>2020-01-26T11:57:14Z</time>
      </trkpt>
      <trkpt lat="45.72498" lon="-1.20776">
        <ele>87.8</ele>
        <time>2020-01-26T11:57:15Z</time>
      </trkpt>
      <trkpt lat="45.72496" lon="-1.20778">
        <ele>88.2</ele>
        <time>2020-01-26T11:57:16Z</time>
      </trkpt>
      <trkpt lat="45.72494" lon="-1.2078">
        <ele>88.8</ele>
        <time>2020-01-26T11:57:17Z</time>
      </trkpt>
      <trkpt lat="45.72492" lon="-1.20781">
        <ele>88.8</ele>
        <time>2020-01-26T11:57:18Z</time>
      </trkpt>
      <trkpt lat="45.72489" lon="-1.20783">
        <ele>89</ele>
        <time>2020-01-26T11:57:19Z</time>
      </trkpt>
      <trkpt lat="45.72488" lon="-1.20785">
        <ele>89.4</ele>
        <time>2020-01-26T11:57:20Z</time>
      </trkpt>
      <trkpt lat="45.72485" lon="-1.20787">
        <ele>89.4</ele>
        <time>2020-01-26T11:57:21Z</time>
      </trkpt>
      <trkpt lat="45.72483" lon="-1.20788">
        <ele>89.6</ele>
        <time>2020-01-26T11:57:22Z</time>
      </trkpt>
      <trkpt lat="45.7248" lon="-1.2079">
        <ele>90</ele>
        <time>2020-01-26T11:57:23Z</time>
      </trkpt>
      <trkpt lat="45.72478" lon="-1.20792">
        <ele>90.2</ele>
        <time>2020-01-26T11:57:24Z</time>
      </trkpt>
      <trkpt lat="45.72477" lon="-1.20793">
        <ele>90.4</ele>
        <time>2020-01-26T11:57:25Z</time>
      </trkpt>
      <trkpt lat="45.72475" lon="-1.20794">
        <ele>90.6</ele>
        <time>2020-01-26T11:57:26Z</time>
      </trkpt>
      <trkpt lat="45.72474" lon="-1.20796">
        <ele>91</ele>
        <time>2020-01-26T11:57:27Z</time>
      </trkpt>
      <trkpt lat="45.72472" lon="-1.20797">
        <ele>91.2</ele>
        <time>2020-01-26T11:57:28Z</time>
      </trkpt>
      <trkpt lat="45.72471" lon="-1.20799">
        <ele>91.2</ele>
        <time>2020-01-26T11:57:29Z</time>
      </trkpt>
      <trkpt lat="45.72468" lon="-1.208">
        <ele>91.4</ele>
        <time>2020-01-26T11:57:30Z</time>
      </trkpt>
      <trkpt lat="45.72467" lon="-1.20802">
        <ele>91.2</ele>
        <time>2020-01-26T11:57:31Z</time>
      </trkpt>
      <trkpt lat="45.72465" lon="-1.20803">
        <ele>91.4</ele>
        <time>2020-01-26T11:57:32Z</time>
      </trkpt>
      <trkpt lat="45.72464" lon="-1.20805">
        <ele>91.6</ele>
        <time>2020-01-26T11:57:33Z</time>
      </trkpt>
      <trkpt lat="45.72462" lon="-1.20807">
        <ele>91.8</ele>
        <time>2020-01-26T11:57:34Z</time>
      </trkpt>
      <trkpt lat="45.7246" lon="-1.20808">
        <ele>92</ele>
        <time>2020-01-26T11:57:35Z</time>
      </trkpt>
      <trkpt lat="45.72458" lon="-1.20809">
        <ele>92.2</ele>
        <time>2020-01-26T11:57:36Z</time>
      </trkpt>
      <trkpt lat="45.72456" lon="-1.2081">
        <ele>92.4</ele>
        <time>2020-01-26T11:57:37Z</time>
      </trkpt>
      <trkpt lat="45.72454" lon="-1.20811">
        <ele>92.8</ele>
        <time>2020-01-26T11:57:38Z</time>
      </trkpt>
      <trkpt lat="45.72451" lon="-1.20812">
        <ele>93.2</ele>
        <time>2020-01-26T11:57:39Z</time>
      </trkpt>
      <trkpt lat="45.72449" lon="-1.20813">
        <ele>93.4</ele>
        <time>2020-01-26T11:57:40Z</time>
      </trkpt>
      <trkpt lat="45.72447" lon="-1.20812">
        <ele>93.2</ele>
        <time>2020-01-26T11:57:41Z</time>
      </trkpt>
      <trkpt lat="45.72446" lon="-1.20812">
        <ele>93.2</ele>
        <time>2020-01-26T11:57:42Z</time>
      </trkpt>
      <trkpt lat="45.72444" lon="-1.20811">
        <ele>92.4</ele>
        <time>2020-01-26T11:57:43Z</time>
      </trkpt>
      <trkpt lat="45.72441" lon="-1.20811">
        <ele>91.4</ele>
        <time>2020-01-26T11:57:44Z</time>
      </trkpt>
      <trkpt lat="45.72439" lon="-1.20812">
        <ele>90.6</ele>
        <time>2020-01-26T11:57:45Z</time>
      </trkpt>
      <trkpt lat="45.72436" lon="-1.20811">
        <ele>90.2</ele>
        <time>2020-01-26T11:57:46Z</time>
      </trkpt>
      <trkpt lat="45.72434" lon="-1.2081">
        <ele>89.6</ele>
        <time>2020-01-26T11:57:47Z</time>
      </trkpt>
      <trkpt lat="45.72432" lon="-1.2081">
        <ele>89</ele>
        <time>2020-01-26T11:57:48Z</time>
      </trkpt>
      <trkpt lat="45.7243" lon="-1.20808">
        <ele>88.2</ele>
        <time>2020-01-26T11:57:49Z</time>
      </trkpt>
      <trkpt lat="45.72428" lon="-1.20809">
        <ele>87.2</ele>
        <time>2020-01-26T11:57:50Z</time>
      </trkpt>
      <trkpt lat="45.72425" lon="-1.20807">
        <ele>86.4</ele>
        <time>2020-01-26T11:57:51Z</time>
      </trkpt>
      <trkpt lat="45.72423" lon="-1.20805">
        <ele>85.6</ele>
        <time>2020-01-26T11:57:52Z</time>
      </trkpt>
      <trkpt lat="45.72421" lon="-1.20803">
        <ele>84.8</ele>
        <time>2020-01-26T11:57:53Z</time>
      </trkpt>
      <trkpt lat="45.72418" lon="-1.20803">
        <ele>84.2</ele>
        <time>2020-01-26T11:57:54Z</time>
      </trkpt>
      <trkpt lat="45.72416" lon="-1.20803">
        <ele>83.4</ele>
        <time>2020-01-26T11:57:55Z</time>
      </trkpt>
      <trkpt lat="45.72413" lon="-1.20801">
        <ele>82.2</ele>
        <time>2020-01-26T11:57:56Z</time>
      </trkpt>
      <trkpt lat="45.7241" lon="-1.208">
        <ele>81.6</ele>
        <time>2020-01-26T11:57:57Z</time>
      </trkpt>
      <trkpt lat="45.72409" lon="-1.20798">
        <ele>80.8</ele>
        <time>2020-01-26T11:57:58Z</time>
      </trkpt>
      <trkpt lat="45.72408" lon="-1.20796">
        <ele>79.2</ele>
        <time>2020-01-26T11:57:59Z</time>
      </trkpt>
      <trkpt lat="45.72406" lon="-1.20793">
        <ele>78.2</ele>
        <time>2020-01-26T11:58:00Z</time>
      </trkpt>
      <trkpt lat="45.72404" lon="-1.20789">
        <ele>77.6</ele>
        <time>2020-01-26T11:58:01Z</time>
      </trkpt>
      <trkpt lat="45.72402" lon="-1.20785">
        <ele>77.6</ele>
        <time>2020-01-26T11:58:02Z</time>
      </trkpt>
      <trkpt lat="45.724" lon="-1.20782">
        <ele>77.4</ele>
        <time>2020-01-26T11:58:03Z</time>
      </trkpt>
      <trkpt lat="45.724" lon="-1.20776">
        <ele>77.2</ele>
        <time>2020-01-26T11:58:04Z</time>
      </trkpt>
      <trkpt lat="45.72398" lon="-1.20774">
        <ele>77</ele>
        <time>2020-01-26T11:58:05Z</time>
      </trkpt>
      <trkpt lat="45.72396" lon="-1.2077">
        <ele>77.2</ele>
        <time>2020-01-26T11:58:06Z</time>
      </trkpt>
      <trkpt lat="45.72395" lon="-1.20766">
        <ele>77</ele>
        <time>2020-01-26T11:58:07Z</time>
      </trkpt>
      <trkpt lat="45.72394" lon="-1.20763">
        <ele>76.6</ele>
        <time>2020-01-26T11:58:08Z</time>
      </trkpt>
      <trkpt lat="45.72393" lon="-1.20761">
        <ele>76.8</ele>
        <time>2020-01-26T11:58:09Z</time>
      </trkpt>
      <trkpt lat="45.72392" lon="-1.20759">
        <ele>77</ele>
        <time>2020-01-26T11:58:10Z</time>
      </trkpt>
      <trkpt lat="45.7239" lon="-1.20752">
        <ele>77.4</ele>
        <time>2020-01-26T11:58:11Z</time>
      </trkpt>
      <trkpt lat="45.72389" lon="-1.20747">
        <ele>77.2</ele>
        <time>2020-01-26T11:58:12Z</time>
      </trkpt>
      <trkpt lat="45.72388" lon="-1.20742">
        <ele>77.4</ele>
        <time>2020-01-26T11:58:13Z</time>
      </trkpt>
      <trkpt lat="45.72387" lon="-1.20739">
        <ele>77.6</ele>
        <time>2020-01-26T11:58:14Z</time>
      </trkpt>
      <trkpt lat="45.72387" lon="-1.20736">
        <ele>77.8</ele>
        <time>2020-01-26T11:58:15Z</time>
      </trkpt>
      <trkpt lat="45.72384" lon="-1.20729">
        <ele>78.6</ele>
        <time>2020-01-26T11:58:16Z</time>
      </trkpt>
      <trkpt lat="45.72383" lon="-1.20725">
        <ele>79.2</ele>
        <time>2020-01-26T11:58:17Z</time>
      </trkpt>
      <trkpt lat="45.72384" lon="-1.20719">
        <ele>79.6</ele>
        <time>2020-01-26T11:58:18Z</time>
      </trkpt>
      <trkpt lat="45.72384" lon="-1.20714">
        <ele>80.2</ele>
        <time>2020-01-26T11:58:19Z</time>
      </trkpt>
      <trkpt lat="45.72383" lon="-1.20707">
        <ele>81.2</ele>
        <time>2020-01-26T11:58:20Z</time>
      </trkpt>
      <trkpt lat="45.72381" lon="-1.20701">
        <ele>81.6</ele>
        <time>2020-01-26T11:58:21Z</time>
      </trkpt>
      <trkpt lat="45.72381" lon="-1.20696">
        <ele>82.2</ele>
        <time>2020-01-26T11:58:22Z</time>
      </trkpt>
      <trkpt lat="45.72381" lon="-1.20691">
        <ele>82.6</ele>
        <time>2020-01-26T11:58:23Z</time>
      </trkpt>
      <trkpt lat="45.72381" lon="-1.20687">
        <ele>83</ele>
        <time>2020-01-26T11:58:24Z</time>
      </trkpt>
      <trkpt lat="45.72382" lon="-1.20684">
        <ele>83.2</ele>
        <time>2020-01-26T11:58:25Z</time>
      </trkpt>
      <trkpt lat="45.7238" lon="-1.20677">
        <ele>82.6</ele>
        <time>2020-01-26T11:58:26Z</time>
      </trkpt>
      <trkpt lat="45.7238" lon="-1.20671">
        <ele>82.8</ele>
        <time>2020-01-26T11:58:27Z</time>
      </trkpt>
      <trkpt lat="45.7238" lon="-1.20664">
        <ele>83</ele>
        <time>2020-01-26T11:58:28Z</time>
      </trkpt>
      <trkpt lat="45.72379" lon="-1.20657">
        <ele>83.4</ele>
        <time>2020-01-26T11:58:29Z</time>
      </trkpt>
      <trkpt lat="45.72378" lon="-1.20651">
        <ele>83.6</ele>
        <time>2020-01-26T11:58:30Z</time>
      </trkpt>
      <trkpt lat="45.72377" lon="-1.20646">
        <ele>83.8</ele>
        <time>2020-01-26T11:58:31Z</time>
      </trkpt>
      <trkpt lat="45.72377" lon="-1.20642">
        <ele>84.2</ele>
        <time>2020-01-26T11:58:32Z</time>
      </trkpt>
      <trkpt lat="45.72378" lon="-1.20637">
        <ele>84.4</ele>
        <time>2020-01-26T11:58:33Z</time>
      </trkpt>
      <trkpt lat="45.72379" lon="-1.20633">
        <ele>84.6</ele>
        <time>2020-01-26T11:58:34Z</time>
      </trkpt>
      <trkpt lat="45.72382" lon="-1.20629">
        <ele>85</ele>
        <time>2020-01-26T11:58:35Z</time>
      </trkpt>
      <trkpt lat="45.72382" lon="-1.20627">
        <ele>85.2</ele>
        <time>2020-01-26T11:58:36Z</time>
      </trkpt>
      <trkpt lat="45.72383" lon="-1.20625">
        <ele>85.6</ele>
        <time>2020-01-26T11:58:37Z</time>
      </trkpt>
      <trkpt lat="45.72384" lon="-1.20622">
        <ele>86</ele>
        <time>2020-01-26T11:58:38Z</time>
      </trkpt>
      <trkpt lat="45.72385" lon="-1.20621">
        <ele>86.6</ele>
        <time>2020-01-26T11:58:39Z</time>
      </trkpt>
      <trkpt lat="45.72385" lon="-1.20618">
        <ele>87.2</ele>
        <time>2020-01-26T11:58:40Z</time>
      </trkpt>
      <trkpt lat="45.72387" lon="-1.20616">
        <ele>87.6</ele>
        <time>2020-01-26T11:58:41Z</time>
      </trkpt>
      <trkpt lat="45.72388" lon="-1.20616">
        <ele>87.4</ele>
        <time>2020-01-26T11:58:42Z</time>
      </trkpt>
      <trkpt lat="45.72388" lon="-1.20615">
        <ele>87.4</ele>
        <time>2020-01-26T11:58:43Z</time>
      </trkpt>
      <trkpt lat="45.72388" lon="-1.20613">
        <ele>87.2</ele>
        <time>2020-01-26T11:58:44Z</time>
      </trkpt>
      <trkpt lat="45.72388" lon="-1.20613">
        <ele>87.2</ele>
        <time>2020-01-26T11:58:45Z</time>
      </trkpt>
      <trkpt lat="45.7239" lon="-1.20613">
        <ele>87.2</ele>
        <time>2020-01-26T11:58:46Z</time>
      </trkpt>
      <trkpt lat="45.72393" lon="-1.20613">
        <ele>87.2</ele>
        <time>2020-01-26T11:58:47Z</time>
      </trkpt>
      <trkpt lat="45.72394" lon="-1.20615">
        <ele>87.6</ele>
        <time>2020-01-26T11:58:48Z</time>
      </trkpt>
      <trkpt lat="45.72395" lon="-1.20616">
        <ele>88.2</ele>
        <time>2020-01-26T11:58:49Z</time>
      </trkpt>
      <trkpt lat="45.72397" lon="-1.20618">
        <ele>88.6</ele>
        <time>2020-01-26T11:58:50Z</time>
      </trkpt>
      <trkpt lat="45.72398" lon="-1.2062">
        <ele>89</ele>
        <time>2020-01-26T11:58:51Z</time>
      </trkpt>
      <trkpt lat="45.724" lon="-1.20622">
        <ele>89.8</ele>
        <time>2020-01-26T11:58:52Z</time>
      </trkpt>
      <trkpt lat="45.72401" lon="-1.20624">
        <ele>90</ele>
        <time>2020-01-26T11:58:53Z</time>
      </trkpt>
      <trkpt lat="45.72401" lon="-1.20626">
        <ele>90.6</ele>
        <time>2020-01-26T11:58:54Z</time>
      </trkpt>
      <trkpt lat="45.72402" lon="-1.20629">
        <ele>90.6</ele>
        <time>2020-01-26T11:58:55Z</time>
      </trkpt>
      <trkpt lat="45.72402" lon="-1.20631">
        <ele>90.8</ele>
        <time>2020-01-26T11:58:56Z</time>
      </trkpt>
      <trkpt lat="45.72402" lon="-1.20634">
        <ele>90.2</ele>
        <time>2020-01-26T11:58:57Z</time>
      </trkpt>
      <trkpt lat="45.72403" lon="-1.20637">
        <ele>89.8</ele>
        <time>2020-01-26T11:58:58Z</time>
      </trkpt>
      <trkpt lat="45.72403" lon="-1.20637">
        <ele>89.6</ele>
        <time>2020-01-26T11:58:59Z</time>
      </trkpt>
      <trkpt lat="45.72404" lon="-1.20637">
        <ele>89.2</ele>
        <time>2020-01-26T11:59:00Z</time>
      </trkpt>
      <trkpt lat="45.72405" lon="-1.20637">
        <ele>88.8</ele>
        <time>2020-01-26T11:59:01Z</time>
      </trkpt>
      <trkpt lat="45.72406" lon="-1.20637">
        <ele>88.8</ele>
        <time>2020-01-26T11:59:02Z</time>
      </trkpt>
      <trkpt lat="45.72406" lon="-1.20639">
        <ele>89.6</ele>
        <time>2020-01-26T11:59:03Z</time>
      </trkpt>
      <trkpt lat="45.72407" lon="-1.2064">
        <ele>90.8</ele>
        <time>2020-01-26T11:59:04Z</time>
      </trkpt>
      <trkpt lat="45.72406" lon="-1.20642">
        <ele>91.8</ele>
        <time>2020-01-26T11:59:05Z</time>
      </trkpt>
      <trkpt lat="45.72407" lon="-1.20644">
        <ele>92.8</ele>
        <time>2020-01-26T11:59:06Z</time>
      </trkpt>
      <trkpt lat="45.72406" lon="-1.20647">
        <ele>93.4</ele>
        <time>2020-01-26T11:59:07Z</time>
      </trkpt>
      <trkpt lat="45.72406" lon="-1.20651">
        <ele>93.8</ele>
        <time>2020-01-26T11:59:08Z</time>
      </trkpt>
      <trkpt lat="45.72407" lon="-1.20653">
        <ele>94</ele>
        <time>2020-01-26T11:59:09Z</time>
      </trkpt>
      <trkpt lat="45.72407" lon="-1.20654">
        <ele>94</ele>
        <time>2020-01-26T11:59:10Z</time>
      </trkpt>
      <trkpt lat="45.72408" lon="-1.20657">
        <ele>94.6</ele>
        <time>2020-01-26T11:59:11Z</time>
      </trkpt>
      <trkpt lat="45.72408" lon="-1.20658">
        <ele>94.6</ele>
        <time>2020-01-26T11:59:12Z</time>
      </trkpt>
      <trkpt lat="45.72408" lon="-1.20659">
        <ele>94.8</ele>
        <time>2020-01-26T11:59:13Z</time>
      </trkpt>
      <trkpt lat="45.72409" lon="-1.2066">
        <ele>94.6</ele>
        <time>2020-01-26T11:59:14Z</time>
      </trkpt>
      <trkpt lat="45.72411" lon="-1.20661">
        <ele>94.2</ele>
        <time>2020-01-26T11:59:15Z</time>
      </trkpt>
      <trkpt lat="45.72411" lon="-1.20662">
        <ele>94.2</ele>
        <time>2020-01-26T11:59:16Z</time>
      </trkpt>
      <trkpt lat="45.72412" lon="-1.20664">
        <ele>94.4</ele>
        <time>2020-01-26T11:59:17Z</time>
      </trkpt>
      <trkpt lat="45.72412" lon="-1.20666">
        <ele>94.8</ele>
        <time>2020-01-26T11:59:18Z</time>
      </trkpt>
      <trkpt lat="45.72412" lon="-1.20668">
        <ele>94.8</ele>
        <time>2020-01-26T11:59:19Z</time>
      </trkpt>
      <trkpt lat="45.72412" lon="-1.2067">
        <ele>95.2</ele>
        <time>2020-01-26T11:59:20Z</time>
      </trkpt>
      <trkpt lat="45.72414" lon="-1.20672">
        <ele>95.4</ele>
        <time>2020-01-26T11:59:21Z</time>
      </trkpt>
      <trkpt lat="45.72414" lon="-1.20673">
        <ele>95.8</ele>
        <time>2020-01-26T11:59:22Z</time>
      </trkpt>
      <trkpt lat="45.72415" lon="-1.20675">
        <ele>96</ele>
        <time>2020-01-26T11:59:23Z</time>
      </trkpt>
      <trkpt lat="45.72416" lon="-1.20676">
        <ele>96.6</ele>
        <time>2020-01-26T11:59:24Z</time>
      </trkpt>
      <trkpt lat="45.72416" lon="-1.20678">
        <ele>97</ele>
        <time>2020-01-26T11:59:25Z</time>
      </trkpt>
      <trkpt lat="45.72416" lon="-1.20679">
        <ele>97.4</ele>
        <time>2020-01-26T11:59:26Z</time>
      </trkpt>
      <trkpt lat="45.72417" lon="-1.20681">
        <ele>98.2</ele>
        <time>2020-01-26T11:59:27Z</time>
      </trkpt>
      <trkpt lat="45.72418" lon="-1.20682">
        <ele>98.6</ele>
        <time>2020-01-26T11:59:28Z</time>
      </trkpt>
      <trkpt lat="45.7242" lon="-1.20684">
        <ele>99.2</ele>
        <time>2020-01-26T11:59:29Z</time>
      </trkpt>
      <trkpt lat="45.72421" lon="-1.20686">
        <ele>99.6</ele>
        <time>2020-01-26T11:59:30Z</time>
      </trkpt>
      <trkpt lat="45.72421" lon="-1.20688">
        <ele>100.2</ele>
        <time>2020-01-26T11:59:31Z</time>
      </trkpt>
      <trkpt lat="45.72422" lon="-1.2069">
        <ele>100.6</ele>
        <time>2020-01-26T11:59:32Z</time>
      </trkpt>
      <trkpt lat="45.72423" lon="-1.20691">
        <ele>101</ele>
        <time>2020-01-26T11:59:33Z</time>
      </trkpt>
      <trkpt lat="45.72424" lon="-1.2069">
        <ele>101.2</ele>
        <time>2020-01-26T11:59:34Z</time>
      </trkpt>
      <trkpt lat="45.72425" lon="-1.2069">
        <ele>101.4</ele>
        <time>2020-01-26T11:59:35Z</time>
      </trkpt>
      <trkpt lat="45.72426" lon="-1.2069">
        <ele>101.8</ele>
        <time>2020-01-26T11:59:36Z</time>
      </trkpt>
      <trkpt lat="45.72427" lon="-1.20691">
        <ele>102.2</ele>
        <time>2020-01-26T11:59:37Z</time>
      </trkpt>
      <trkpt lat="45.72428" lon="-1.20693">
        <ele>102.4</ele>
        <time>2020-01-26T11:59:38Z</time>
      </trkpt>
      <trkpt lat="45.7243" lon="-1.20694">
        <ele>102.2</ele>
        <time>2020-01-26T11:59:39Z</time>
      </trkpt>
      <trkpt lat="45.72431" lon="-1.20696">
        <ele>102.2</ele>
        <time>2020-01-26T11:59:40Z</time>
      </trkpt>
      <trkpt lat="45.72432" lon="-1.20698">
        <ele>102.2</ele>
        <time>2020-01-26T11:59:41Z</time>
      </trkpt>
      <trkpt lat="45.72431" lon="-1.207">
        <ele>102.2</ele>
        <time>2020-01-26T11:59:42Z</time>
      </trkpt>
      <trkpt lat="45.7243" lon="-1.207">
        <ele>102</ele>
        <time>2020-01-26T11:59:43Z</time>
      </trkpt>
      <trkpt lat="45.72429" lon="-1.207">
        <ele>101.8</ele>
        <time>2020-01-26T11:59:44Z</time>
      </trkpt>
      <trkpt lat="45.72429" lon="-1.207">
        <ele>101.8</ele>
        <time>2020-01-26T11:59:45Z</time>
      </trkpt>
      <trkpt lat="45.72429" lon="-1.207">
        <ele>101.8</ele>
        <time>2020-01-26T11:59:46Z</time>
      </trkpt>
      <trkpt lat="45.72429" lon="-1.207">
        <ele>101.8</ele>
        <time>2020-01-26T11:59:47Z</time>
      </trkpt>
      <trkpt lat="45.72429" lon="-1.207">
        <ele>102</ele>
        <time>2020-01-26T11:59:48Z</time>
      </trkpt>
      <trkpt lat="45.72429" lon="-1.207">
        <ele>102</ele>
        <time>2020-01-26T11:59:49Z</time>
      </trkpt>
      <trkpt lat="45.72428" lon="-1.207">
        <ele>102</ele>
        <time>2020-01-26T11:59:50Z</time>
      </trkpt>
      <trkpt lat="45.72428" lon="-1.207">
        <ele>102</ele>
        <time>2020-01-26T11:59:51Z</time>
      </trkpt>
      <trkpt lat="45.72428" lon="-1.20699">
        <ele>102</ele>
        <time>2020-01-26T11:59:52Z</time>
      </trkpt>
      <trkpt lat="45.72428" lon="-1.207">
        <ele>102</ele>
        <time>2020-01-26T11:59:53Z</time>
      </trkpt>
      <trkpt lat="45.72427" lon="-1.207">
        <ele>102</ele>
        <time>2020-01-26T11:59:54Z</time>
      </trkpt>
      <trkpt lat="45.72428" lon="-1.207">
        <ele>102</ele>
        <time>2020-01-26T11:59:55Z</time>
      </trkpt>
      <trkpt lat="45.72427" lon="-1.207">
        <ele>102</ele>
        <time>2020-01-26T11:59:56Z</time>
      </trkpt>
      <trkpt lat="45.72427" lon="-1.207">
        <ele>102</ele>
        <time>2020-01-26T11:59:57Z</time>
      </trkpt>
      <trkpt lat="45.72427" lon="-1.207">
        <ele>102</ele>
        <time>2020-01-26T11:59:58Z</time>
      </trkpt>
      <trkpt lat="45.72427" lon="-1.207">
        <ele>102</ele>
        <time>2020-01-26T11:59:59Z</time>
      </trkpt>
      <trkpt lat="45.72427" lon="-1.207">
        <ele>102.2</ele>
        <time>2020-01-26T12:00:00Z</time>
      </trkpt>
      <trkpt lat="45.72427" lon="-1.207">
        <ele>102.4</ele>
        <time>2020-01-26T12:00:01Z</time>
      </trkpt>
      <trkpt lat="45.72427" lon="-1.207">
        <ele>102.6</ele>
        <time>2020-01-26T12:00:02Z</time>
      </trkpt>
      <trkpt lat="45.72427" lon="-1.207">
        <ele>102.6</ele>
        <time>2020-01-26T12:00:03Z</time>
      </trkpt>
      <trkpt lat="45.72427" lon="-1.207">
        <ele>102.8</ele>
        <time>2020-01-26T12:00:04Z</time>
      </trkpt>
      <trkpt lat="45.72427" lon="-1.207">
        <ele>102.8</ele>
        <time>2020-01-26T12:00:05Z</time>
      </trkpt>
      <trkpt lat="45.72427" lon="-1.207">
        <ele>102.8</ele>
        <time>2020-01-26T12:00:06Z</time>
      </trkpt>
      <trkpt lat="45.72427" lon="-1.207">
        <ele>103</ele>
        <time>2020-01-26T12:00:07Z</time>
      </trkpt>
      <trkpt lat="45.72427" lon="-1.207">
        <ele>103</ele>
        <time>2020-01-26T12:00:08Z</time>
      </trkpt>
      <trkpt lat="45.72427" lon="-1.207">
        <ele>103</ele>
        <time>2020-01-26T12:00:09Z</time>
      </trkpt>
      <trkpt lat="45.72427" lon="-1.207">
        <ele>103</ele>
        <time>2020-01-26T12:00:10Z</time>
      </trkpt>
      <trkpt lat="45.72427" lon="-1.207">
        <ele>103</ele>
        <time>2020-01-26T12:00:11Z</time>
      </trkpt>
      <trkpt lat="45.72427" lon="-1.207">
        <ele>103</ele>
        <time>2020-01-26T12:00:12Z</time>
      </trkpt>
      <trkpt lat="45.72427" lon="-1.207">
        <ele>103</ele>
        <time>2020-01-26T12:00:13Z</time>
      </trkpt>
      <trkpt lat="45.72427" lon="-1.207">
        <ele>103</ele>
        <time>2020-01-26T12:00:14Z</time>
      </trkpt>
      <trkpt lat="45.72427" lon="-1.207">
        <ele>103</ele>
        <time>2020-01-26T12:00:15Z</time>
      </trkpt>
      <trkpt lat="45.72427" lon="-1.207">
        <ele>103</ele>
        <time>2020-01-26T12:00:16Z</time>
      </trkpt>
      <trkpt lat="45.72427" lon="-1.207">
        <ele>103</ele>
        <time>2020-01-26T12:00:17Z</time>
      </trkpt>
      <trkpt lat="45.72427" lon="-1.207">
        <ele>103</ele>
        <time>2020-01-26T12:00:18Z</time>
      </trkpt>
      <trkpt lat="45.72427" lon="-1.207">
        <ele>103</ele>
        <time>2020-01-26T12:00:19Z</time>
      </trkpt>
      <trkpt lat="45.72427" lon="-1.207">
        <ele>103</ele>
        <time>2020-01-26T12:00:20Z</time>
      </trkpt>
      <trkpt lat="45.72427" lon="-1.207">
        <ele>103</ele>
        <time>2020-01-26T12:00:21Z</time>
      </trkpt>
      <trkpt lat="45.72427" lon="-1.207">
        <ele>103</ele>
        <time>2020-01-26T12:00:22Z</time>
      </trkpt>
      <trkpt lat="45.72427" lon="-1.207">
        <ele>103</ele>
        <time>2020-01-26T12:00:23Z</time>
      </trkpt>
      <trkpt lat="45.72427" lon="-1.207">
        <ele>103</ele>
        <time>2020-01-26T12:00:24Z</time>
      </trkpt>
      <trkpt lat="45.72427" lon="-1.207">
        <ele>103</ele>
        <time>2020-01-26T12:00:25Z</time>
      </trkpt>
      <trkpt lat="45.72427" lon="-1.207">
        <ele>103</ele>
        <time>2020-01-26T12:00:26Z</time>
      </trkpt>
      <trkpt lat="45.72427" lon="-1.207">
        <ele>103</ele>
        <time>2020-01-26T12:00:27Z</time>
      </trkpt>
      <trkpt lat="45.72427" lon="-1.207">
        <ele>103</ele>
        <time>2020-01-26T12:00:28Z</time>
      </trkpt>
      <trkpt lat="45.72427" lon="-1.207">
        <ele>103</ele>
        <time>2020-01-26T12:00:29Z</time>
      </trkpt>
      <trkpt lat="45.72427" lon="-1.207">
        <ele>103</ele>
        <time>2020-01-26T12:00:30Z</time>
      </trkpt>
      <trkpt lat="45.72427" lon="-1.207">
        <ele>103</ele>
        <time>2020-01-26T12:00:31Z</time>
      </trkpt>
      <trkpt lat="45.72427" lon="-1.207">
        <ele>103</ele>
        <time>2020-01-26T12:00:32Z</time>
      </trkpt>
      <trkpt lat="45.72427" lon="-1.207">
        <ele>103</ele>
        <time>2020-01-26T12:00:33Z</time>
      </trkpt>
      <trkpt lat="45.72427" lon="-1.207">
        <ele>103</ele>
        <time>2020-01-26T12:00:34Z</time>
      </trkpt>
      <trkpt lat="45.72427" lon="-1.207">
        <ele>103</ele>
        <time>2020-01-26T12:00:35Z</time>
      </trkpt>
      <trkpt lat="45.72427" lon="-1.207">
        <ele>103</ele>
        <time>2020-01-26T12:00:36Z</time>
      </trkpt>
      <trkpt lat="45.72427" lon="-1.207">
        <ele>103</ele>
        <time>2020-01-26T12:00:37Z</time>
      </trkpt>
      <trkpt lat="45.72427" lon="-1.207">
        <ele>103</ele>
        <time>2020-01-26T12:00:38Z</time>
      </trkpt>
      <trkpt lat="45.72427" lon="-1.207">
        <ele>103</ele>
        <time>2020-01-26T12:00:39Z</time>
      </trkpt>
      <trkpt lat="45.72427" lon="-1.207">
        <ele>103</ele>
        <time>2020-01-26T12:00:40Z</time>
      </trkpt>
      <trkpt lat="45.72427" lon="-1.207">
        <ele>103</ele>
        <time>2020-01-26T12:00:41Z</time>
      </trkpt>
      <trkpt lat="45.72427" lon="-1.207">
        <ele>103</ele>
        <time>2020-01-26T12:00:42Z</time>
      </trkpt>
      <trkpt lat="45.72427" lon="-1.207">
        <ele>103</ele>
        <time>2020-01-26T12:00:43Z</time>
      </trkpt>
      <trkpt lat="45.72427" lon="-1.207">
        <ele>103</ele>
        <time>2020-01-26T12:00:44Z</time>
      </trkpt>
      <trkpt lat="45.72427" lon="-1.207">
        <ele>103</ele>
        <time>2020-01-26T12:00:45Z</time>
      </trkpt>
      <trkpt lat="45.72427" lon="-1.20701">
        <ele>103</ele>
        <time>2020-01-26T12:00:46Z</time>
      </trkpt>
      <trkpt lat="45.72427" lon="-1.20701">
        <ele>103</ele>
        <time>2020-01-26T12:00:47Z</time>
      </trkpt>
      <trkpt lat="45.72427" lon="-1.20701">
        <ele>103</ele>
        <time>2020-01-26T12:00:48Z</time>
      </trkpt>
      <trkpt lat="45.72427" lon="-1.20701">
        <ele>103</ele>
        <time>2020-01-26T12:00:49Z</time>
      </trkpt>
      <trkpt lat="45.72427" lon="-1.20701">
        <ele>103</ele>
        <time>2020-01-26T12:00:50Z</time>
      </trkpt>
      <trkpt lat="45.72427" lon="-1.20701">
        <ele>103</ele>
        <time>2020-01-26T12:00:51Z</time>
      </trkpt>
      <trkpt lat="45.72427" lon="-1.20701">
        <ele>103</ele>
        <time>2020-01-26T12:00:52Z</time>
      </trkpt>
      <trkpt lat="45.72427" lon="-1.20701">
        <ele>103</ele>
        <time>2020-01-26T12:00:53Z</time>
      </trkpt>
      <trkpt lat="45.72427" lon="-1.20701">
        <ele>103</ele>
        <time>2020-01-26T12:00:54Z</time>
      </trkpt>
      <trkpt lat="45.72427" lon="-1.20701">
        <ele>103</ele>
        <time>2020-01-26T12:00:55Z</time>
      </trkpt>
      <trkpt lat="45.72427" lon="-1.20701">
        <ele>103</ele>
        <time>2020-01-26T12:00:56Z</time>
      </trkpt>
      <trkpt lat="45.72427" lon="-1.20701">
        <ele>103</ele>
        <time>2020-01-26T12:00:57Z</time>
      </trkpt>
      <trkpt lat="45.72427" lon="-1.20701">
        <ele>103</ele>
        <time>2020-01-26T12:00:58Z</time>
      </trkpt>
      <trkpt lat="45.72427" lon="-1.20701">
        <ele>103</ele>
        <time>2020-01-26T12:00:59Z</time>
      </trkpt>
      <trkpt lat="45.72427" lon="-1.20701">
        <ele>103</ele>
        <time>2020-01-26T12:01:00Z</time>
      </trkpt>
      <trkpt lat="45.72427" lon="-1.20701">
        <ele>103</ele>
        <time>2020-01-26T12:01:01Z</time>
      </trkpt>
      <trkpt lat="45.72427" lon="-1.20701">
        <ele>103</ele>
        <time>2020-01-26T12:01:02Z</time>
      </trkpt>
      <trkpt lat="45.72427" lon="-1.20701">
        <ele>103</ele>
        <time>2020-01-26T12:01:03Z</time>
      </trkpt>
      <trkpt lat="45.72427" lon="-1.20701">
        <ele>103</ele>
        <time>2020-01-26T12:01:04Z</time>
      </trkpt>
      <trkpt lat="45.72427" lon="-1.20701">
        <ele>103</ele>
        <time>2020-01-26T12:01:05Z</time>
      </trkpt>
      <trkpt lat="45.72427" lon="-1.20701">
        <ele>103</ele>
        <time>2020-01-26T12:01:06Z</time>
      </trkpt>
      <trkpt lat="45.72427" lon="-1.20701">
        <ele>103</ele>
        <time>2020-01-26T12:01:07Z</time>
      </trkpt>
      <trkpt lat="45.72427" lon="-1.20701">
        <ele>103</ele>
        <time>2020-01-26T12:01:08Z</time>
      </trkpt>
      <trkpt lat="45.72427" lon="-1.20701">
        <ele>103</ele>
        <time>2020-01-26T12:01:09Z</time>
      </trkpt>
      <trkpt lat="45.72427" lon="-1.20701">
        <ele>103</ele>
        <time>2020-01-26T12:01:10Z</time>
      </trkpt>
      <trkpt lat="45.72427" lon="-1.20701">
        <ele>103</ele>
        <time>2020-01-26T12:01:11Z</time>
      </trkpt>
      <trkpt lat="45.72427" lon="-1.20701">
        <ele>103</ele>
        <time>2020-01-26T12:01:12Z</time>
      </trkpt>
      <trkpt lat="45.72427" lon="-1.20701">
        <ele>103</ele>
        <time>2020-01-26T12:01:13Z</time>
      </trkpt>
      <trkpt lat="45.72427" lon="-1.20701">
        <ele>103</ele>
        <time>2020-01-26T12:01:14Z</time>
      </trkpt>
      <trkpt lat="45.72427" lon="-1.20701">
        <ele>103</ele>
        <time>2020-01-26T12:01:15Z</time>
      </trkpt>
      <trkpt lat="45.72427" lon="-1.20701">
        <ele>103</ele>
        <time>2020-01-26T12:01:16Z</time>
      </trkpt>
      <trkpt lat="45.72427" lon="-1.20701">
        <ele>103</ele>
        <time>2020-01-26T12:01:17Z</time>
      </trkpt>
      <trkpt lat="45.72427" lon="-1.20701">
        <ele>103</ele>
        <time>2020-01-26T12:01:18Z</time>
      </trkpt>
      <trkpt lat="45.72427" lon="-1.20701">
        <ele>103</ele>
        <time>2020-01-26T12:01:19Z</time>
      </trkpt>
      <trkpt lat="45.72427" lon="-1.20701">
        <ele>103</ele>
        <time>2020-01-26T12:01:20Z</time>
      </trkpt>
      <trkpt lat="45.72427" lon="-1.20701">
        <ele>103</ele>
        <time>2020-01-26T12:01:21Z</time>
      </trkpt>
      <trkpt lat="45.72427" lon="-1.20701">
        <ele>103</ele>
        <time>2020-01-26T12:01:22Z</time>
      </trkpt>
      <trkpt lat="45.72427" lon="-1.20701">
        <ele>103</ele>
        <time>2020-01-26T12:01:23Z</time>
      </trkpt>
      <trkpt lat="45.72427" lon="-1.20701">
        <ele>103</ele>
        <time>2020-01-26T12:01:24Z</time>
      </trkpt>
      <trkpt lat="45.72427" lon="-1.20701">
        <ele>103</ele>
        <time>2020-01-26T12:01:25Z</time>
      </trkpt>
      <trkpt lat="45.72427" lon="-1.20701">
        <ele>103</ele>
        <time>2020-01-26T12:01:26Z</time>
      </trkpt>
      <trkpt lat="45.72427" lon="-1.20701">
        <ele>103</ele>
        <time>2020-01-26T12:01:27Z</time>
      </trkpt>
      <trkpt lat="45.72427" lon="-1.20701">
        <ele>103</ele>
        <time>2020-01-26T12:01:28Z</time>
      </trkpt>
      <trkpt lat="45.72427" lon="-1.20701">
        <ele>103</ele>
        <time>2020-01-26T12:01:29Z</time>
      </trkpt>
      <trkpt lat="45.72427" lon="-1.20701">
        <ele>103</ele>
        <time>2020-01-26T12:01:30Z</time>
      </trkpt>
      <trkpt lat="45.72427" lon="-1.20701">
        <ele>103</ele>
        <time>2020-01-26T12:01:31Z</time>
      </trkpt>
      <trkpt lat="45.72427" lon="-1.20701">
        <ele>103</ele>
        <time>2020-01-26T12:01:32Z</time>
      </trkpt>
      <trkpt lat="45.72427" lon="-1.20701">
        <ele>103</ele>
        <time>2020-01-26T12:01:33Z</time>
      </trkpt>
      <trkpt lat="45.72427" lon="-1.20701">
        <ele>103</ele>
        <time>2020-01-26T12:01:34Z</time>
      </trkpt>
      <trkpt lat="45.72427" lon="-1.20701">
        <ele>103</ele>
        <time>2020-01-26T12:01:35Z</time>
      </trkpt>
      <trkpt lat="45.72427" lon="-1.20701">
        <ele>103</ele>
        <time>2020-01-26T12:01:36Z</time>
      </trkpt>
      <trkpt lat="45.72427" lon="-1.20701">
        <ele>103</ele>
        <time>2020-01-26T12:01:37Z</time>
      </trkpt>
      <trkpt lat="45.72427" lon="-1.20701">
        <ele>103</ele>
        <time>2020-01-26T12:01:38Z</time>
      </trkpt>
      <trkpt lat="45.72427" lon="-1.20701">
        <ele>103</ele>
        <time>2020-01-26T12:01:39Z</time>
      </trkpt>
      <trkpt lat="45.72427" lon="-1.20701">
        <ele>103</ele>
        <time>2020-01-26T12:01:40Z</time>
      </trkpt>
      <trkpt lat="45.72427" lon="-1.20701">
        <ele>103</ele>
        <time>2020-01-26T12:01:41Z</time>
      </trkpt>
      <trkpt lat="45.72427" lon="-1.20701">
        <ele>103</ele>
        <time>2020-01-26T12:01:42Z</time>
      </trkpt>
      <trkpt lat="45.72428" lon="-1.20701">
        <ele>103</ele>
        <time>2020-01-26T12:01:43Z</time>
      </trkpt>
      <trkpt lat="45.72428" lon="-1.20701">
        <ele>103</ele>
        <time>2020-01-26T12:01:44Z</time>
      </trkpt>
      <trkpt lat="45.72428" lon="-1.20701">
        <ele>103</ele>
        <time>2020-01-26T12:01:45Z</time>
      </trkpt>
      <trkpt lat="45.72428" lon="-1.20701">
        <ele>103</ele>
        <time>2020-01-26T12:01:46Z</time>
      </trkpt>
      <trkpt lat="45.72428" lon="-1.20701">
        <ele>103</ele>
        <time>2020-01-26T12:01:47Z</time>
      </trkpt>
      <trkpt lat="45.72428" lon="-1.20701">
        <ele>103</ele>
        <time>2020-01-26T12:01:48Z</time>
      </trkpt>
      <trkpt lat="45.72428" lon="-1.20701">
        <ele>103</ele>
        <time>2020-01-26T12:01:49Z</time>
      </trkpt>
      <trkpt lat="45.72428" lon="-1.20701">
        <ele>103</ele>
        <time>2020-01-26T12:01:50Z</time>
      </trkpt>
      <trkpt lat="45.72427" lon="-1.20701">
        <ele>103</ele>
        <time>2020-01-26T12:01:51Z</time>
      </trkpt>
      <trkpt lat="45.72427" lon="-1.20701">
        <ele>103</ele>
        <time>2020-01-26T12:01:52Z</time>
      </trkpt>
      <trkpt lat="45.72427" lon="-1.207">
        <ele>103</ele>
        <time>2020-01-26T12:01:53Z</time>
      </trkpt>
      <trkpt lat="45.72427" lon="-1.207">
        <ele>103</ele>
        <time>2020-01-26T12:01:54Z</time>
      </trkpt>
      <trkpt lat="45.72427" lon="-1.207">
        <ele>103</ele>
        <time>2020-01-26T12:01:55Z</time>
      </trkpt>
      <trkpt lat="45.72427" lon="-1.207">
        <ele>103</ele>
        <time>2020-01-26T12:01:56Z</time>
      </trkpt>
      <trkpt lat="45.72427" lon="-1.207">
        <ele>103</ele>
        <time>2020-01-26T12:01:57Z</time>
      </trkpt>
      <trkpt lat="45.72427" lon="-1.207">
        <ele>103</ele>
        <time>2020-01-26T12:01:58Z</time>
      </trkpt>
      <trkpt lat="45.72427" lon="-1.207">
        <ele>103</ele>
        <time>2020-01-26T12:01:59Z</time>
      </trkpt>
      <trkpt lat="45.72427" lon="-1.207">
        <ele>103</ele>
        <time>2020-01-26T12:02:00Z</time>
      </trkpt>
      <trkpt lat="45.72427" lon="-1.207">
        <ele>103</ele>
        <time>2020-01-26T12:02:01Z</time>
      </trkpt>
      <trkpt lat="45.72427" lon="-1.207">
        <ele>103</ele>
        <time>2020-01-26T12:02:02Z</time>
      </trkpt>
      <trkpt lat="45.72427" lon="-1.207">
        <ele>103</ele>
        <time>2020-01-26T12:02:03Z</time>
      </trkpt>
      <trkpt lat="45.72427" lon="-1.207">
        <ele>103</ele>
        <time>2020-01-26T12:02:04Z</time>
      </trkpt>
      <trkpt lat="45.72427" lon="-1.207">
        <ele>103</ele>
        <time>2020-01-26T12:02:05Z</time>
      </trkpt>
      <trkpt lat="45.72427" lon="-1.207">
        <ele>103</ele>
        <time>2020-01-26T12:02:06Z</time>
      </trkpt>
      <trkpt lat="45.72427" lon="-1.207">
        <ele>103</ele>
        <time>2020-01-26T12:02:07Z</time>
      </trkpt>
      <trkpt lat="45.72427" lon="-1.207">
        <ele>103</ele>
        <time>2020-01-26T12:02:08Z</time>
      </trkpt>
      <trkpt lat="45.72427" lon="-1.207">
        <ele>103</ele>
        <time>2020-01-26T12:02:09Z</time>
      </trkpt>
      <trkpt lat="45.72427" lon="-1.207">
        <ele>103</ele>
        <time>2020-01-26T12:02:10Z</time>
      </trkpt>
      <trkpt lat="45.72427" lon="-1.207">
        <ele>103</ele>
        <time>2020-01-26T12:02:11Z</time>
      </trkpt>
      <trkpt lat="45.72427" lon="-1.207">
        <ele>103</ele>
        <time>2020-01-26T12:02:12Z</time>
      </trkpt>
      <trkpt lat="45.72428" lon="-1.207">
        <ele>103</ele>
        <time>2020-01-26T12:02:13Z</time>
      </trkpt>
      <trkpt lat="45.72428" lon="-1.207">
        <ele>103</ele>
        <time>2020-01-26T12:02:14Z</time>
      </trkpt>
      <trkpt lat="45.72428" lon="-1.207">
        <ele>103</ele>
        <time>2020-01-26T12:02:15Z</time>
      </trkpt>
      <trkpt lat="45.72428" lon="-1.207">
        <ele>103</ele>
        <time>2020-01-26T12:02:16Z</time>
      </trkpt>
      <trkpt lat="45.72428" lon="-1.207">
        <ele>103</ele>
        <time>2020-01-26T12:02:17Z</time>
      </trkpt>
      <trkpt lat="45.72428" lon="-1.207">
        <ele>103</ele>
        <time>2020-01-26T12:02:18Z</time>
      </trkpt>
      <trkpt lat="45.72428" lon="-1.207">
        <ele>103</ele>
        <time>2020-01-26T12:02:19Z</time>
      </trkpt>
      <trkpt lat="45.72428" lon="-1.207">
        <ele>103</ele>
        <time>2020-01-26T12:02:20Z</time>
      </trkpt>
      <trkpt lat="45.72428" lon="-1.207">
        <ele>103.2</ele>
        <time>2020-01-26T12:02:21Z</time>
      </trkpt>
      <trkpt lat="45.72428" lon="-1.207">
        <ele>103.4</ele>
        <time>2020-01-26T12:02:22Z</time>
      </trkpt>
      <trkpt lat="45.72428" lon="-1.207">
        <ele>103.6</ele>
        <time>2020-01-26T12:02:23Z</time>
      </trkpt>
      <trkpt lat="45.72428" lon="-1.207">
        <ele>103.6</ele>
        <time>2020-01-26T12:02:24Z</time>
      </trkpt>
      <trkpt lat="45.72428" lon="-1.207">
        <ele>103.8</ele>
        <time>2020-01-26T12:02:25Z</time>
      </trkpt>
      <trkpt lat="45.72428" lon="-1.207">
        <ele>103.8</ele>
        <time>2020-01-26T12:02:26Z</time>
      </trkpt>
      <trkpt lat="45.72428" lon="-1.207">
        <ele>103.8</ele>
        <time>2020-01-26T12:02:27Z</time>
      </trkpt>
      <trkpt lat="45.72428" lon="-1.207">
        <ele>104</ele>
        <time>2020-01-26T12:02:28Z</time>
      </trkpt>
      <trkpt lat="45.72428" lon="-1.207">
        <ele>104</ele>
        <time>2020-01-26T12:02:29Z</time>
      </trkpt>
      <trkpt lat="45.72428" lon="-1.207">
        <ele>104</ele>
        <time>2020-01-26T12:02:30Z</time>
      </trkpt>
      <trkpt lat="45.72428" lon="-1.207">
        <ele>104</ele>
        <time>2020-01-26T12:02:31Z</time>
      </trkpt>
      <trkpt lat="45.72428" lon="-1.20701">
        <ele>104</ele>
        <time>2020-01-26T12:02:32Z</time>
      </trkpt>
      <trkpt lat="45.72428" lon="-1.20701">
        <ele>104</ele>
        <time>2020-01-26T12:02:33Z</time>
      </trkpt>
      <trkpt lat="45.72428" lon="-1.20701">
        <ele>104</ele>
        <time>2020-01-26T12:02:34Z</time>
      </trkpt>
      <trkpt lat="45.72428" lon="-1.20701">
        <ele>104</ele>
        <time>2020-01-26T12:02:35Z</time>
      </trkpt>
      <trkpt lat="45.72428" lon="-1.20701">
        <ele>104</ele>
        <time>2020-01-26T12:02:36Z</time>
      </trkpt>
      <trkpt lat="45.72428" lon="-1.20701">
        <ele>104</ele>
        <time>2020-01-26T12:02:37Z</time>
      </trkpt>
      <trkpt lat="45.72428" lon="-1.20701">
        <ele>104</ele>
        <time>2020-01-26T12:02:38Z</time>
      </trkpt>
      <trkpt lat="45.72427" lon="-1.20701">
        <ele>104</ele>
        <time>2020-01-26T12:02:39Z</time>
      </trkpt>
      <trkpt lat="45.72427" lon="-1.20701">
        <ele>104</ele>
        <time>2020-01-26T12:02:40Z</time>
      </trkpt>
      <trkpt lat="45.72427" lon="-1.20701">
        <ele>104</ele>
        <time>2020-01-26T12:02:41Z</time>
      </trkpt>
      <trkpt lat="45.72427" lon="-1.20701">
        <ele>104</ele>
        <time>2020-01-26T12:02:42Z</time>
      </trkpt>
      <trkpt lat="45.72427" lon="-1.20701">
        <ele>104</ele>
        <time>2020-01-26T12:02:43Z</time>
      </trkpt>
      <trkpt lat="45.72427" lon="-1.20701">
        <ele>104</ele>
        <time>2020-01-26T12:02:44Z</time>
      </trkpt>
      <trkpt lat="45.72427" lon="-1.20701">
        <ele>104</ele>
        <time>2020-01-26T12:02:45Z</time>
      </trkpt>
      <trkpt lat="45.72427" lon="-1.20701">
        <ele>104</ele>
        <time>2020-01-26T12:02:46Z</time>
      </trkpt>
      <trkpt lat="45.72427" lon="-1.20701">
        <ele>104</ele>
        <time>2020-01-26T12:02:47Z</time>
      </trkpt>
      <trkpt lat="45.72427" lon="-1.20701">
        <ele>104</ele>
        <time>2020-01-26T12:02:48Z</time>
      </trkpt>
      <trkpt lat="45.72427" lon="-1.20701">
        <ele>104</ele>
        <time>2020-01-26T12:02:49Z</time>
      </trkpt>
      <trkpt lat="45.72427" lon="-1.20701">
        <ele>104</ele>
        <time>2020-01-26T12:02:50Z</time>
      </trkpt>
      <trkpt lat="45.72427" lon="-1.20701">
        <ele>104</ele>
        <time>2020-01-26T12:02:51Z</time>
      </trkpt>
      <trkpt lat="45.72427" lon="-1.20701">
        <ele>104</ele>
        <time>2020-01-26T12:02:52Z</time>
      </trkpt>
      <trkpt lat="45.72427" lon="-1.20701">
        <ele>104</ele>
        <time>2020-01-26T12:02:53Z</time>
      </trkpt>
      <trkpt lat="45.72427" lon="-1.20701">
        <ele>104</ele>
        <time>2020-01-26T12:02:54Z</time>
      </trkpt>
      <trkpt lat="45.72427" lon="-1.20701">
        <ele>104</ele>
        <time>2020-01-26T12:02:55Z</time>
      </trkpt>
      <trkpt lat="45.72427" lon="-1.20701">
        <ele>104</ele>
        <time>2020-01-26T12:02:56Z</time>
      </trkpt>
      <trkpt lat="45.72427" lon="-1.20701">
        <ele>104</ele>
        <time>2020-01-26T12:02:57Z</time>
      </trkpt>
      <trkpt lat="45.72427" lon="-1.20701">
        <ele>104</ele>
        <time>2020-01-26T12:02:58Z</time>
      </trkpt>
      <trkpt lat="45.72427" lon="-1.20701">
        <ele>104</ele>
        <time>2020-01-26T12:02:59Z</time>
      </trkpt>
      <trkpt lat="45.72427" lon="-1.20701">
        <ele>104</ele>
        <time>2020-01-26T12:03:00Z</time>
      </trkpt>
      <trkpt lat="45.72427" lon="-1.20701">
        <ele>104</ele>
        <time>2020-01-26T12:03:01Z</time>
      </trkpt>
      <trkpt lat="45.72427" lon="-1.20701">
        <ele>104</ele>
        <time>2020-01-26T12:03:02Z</time>
      </trkpt>
      <trkpt lat="45.72427" lon="-1.20701">
        <ele>104</ele>
        <time>2020-01-26T12:03:03Z</time>
      </trkpt>
      <trkpt lat="45.72427" lon="-1.20701">
        <ele>104</ele>
        <time>2020-01-26T12:03:04Z</time>
      </trkpt>
      <trkpt lat="45.72427" lon="-1.20701">
        <ele>104</ele>
        <time>2020-01-26T12:03:05Z</time>
      </trkpt>
      <trkpt lat="45.72427" lon="-1.20701">
        <ele>104</ele>
        <time>2020-01-26T12:03:06Z</time>
      </trkpt>
      <trkpt lat="45.72427" lon="-1.207">
        <ele>104</ele>
        <time>2020-01-26T12:03:07Z</time>
      </trkpt>
      <trkpt lat="45.72427" lon="-1.20701">
        <ele>104</ele>
        <time>2020-01-26T12:03:08Z</time>
      </trkpt>
      <trkpt lat="45.72427" lon="-1.207">
        <ele>104</ele>
        <time>2020-01-26T12:03:09Z</time>
      </trkpt>
      <trkpt lat="45.72427" lon="-1.207">
        <ele>104</ele>
        <time>2020-01-26T12:03:10Z</time>
      </trkpt>
      <trkpt lat="45.72427" lon="-1.207">
        <ele>104</ele>
        <time>2020-01-26T12:03:11Z</time>
      </trkpt>
      <trkpt lat="45.72427" lon="-1.207">
        <ele>104</ele>
        <time>2020-01-26T12:03:12Z</time>
      </trkpt>
      <trkpt lat="45.72427" lon="-1.207">
        <ele>104</ele>
        <time>2020-01-26T12:03:13Z</time>
      </trkpt>
      <trkpt lat="45.72427" lon="-1.207">
        <ele>104</ele>
        <time>2020-01-26T12:03:14Z</time>
      </trkpt>
      <trkpt lat="45.72427" lon="-1.207">
        <ele>104</ele>
        <time>2020-01-26T12:03:15Z</time>
      </trkpt>
      <trkpt lat="45.72427" lon="-1.207">
        <ele>104</ele>
        <time>2020-01-26T12:03:16Z</time>
      </trkpt>
      <trkpt lat="45.72427" lon="-1.207">
        <ele>104</ele>
        <time>2020-01-26T12:03:17Z</time>
      </trkpt>
      <trkpt lat="45.72427" lon="-1.207">
        <ele>104</ele>
        <time>2020-01-26T12:03:18Z</time>
      </trkpt>
      <trkpt lat="45.72427" lon="-1.207">
        <ele>104</ele>
        <time>2020-01-26T12:03:19Z</time>
      </trkpt>
      <trkpt lat="45.72427" lon="-1.207">
        <ele>104</ele>
        <time>2020-01-26T12:03:20Z</time>
      </trkpt>
      <trkpt lat="45.72427" lon="-1.207">
        <ele>104</ele>
        <time>2020-01-26T12:03:21Z</time>
      </trkpt>
      <trkpt lat="45.72427" lon="-1.207">
        <ele>104</ele>
        <time>2020-01-26T12:03:22Z</time>
      </trkpt>
      <trkpt lat="45.72427" lon="-1.207">
        <ele>104</ele>
        <time>2020-01-26T12:03:23Z</time>
      </trkpt>
      <trkpt lat="45.72427" lon="-1.207">
        <ele>104</ele>
        <time>2020-01-26T12:03:24Z</time>
      </trkpt>
      <trkpt lat="45.72427" lon="-1.207">
        <ele>104</ele>
        <time>2020-01-26T12:03:25Z</time>
      </trkpt>
      <trkpt lat="45.72427" lon="-1.207">
        <ele>104</ele>
        <time>2020-01-26T12:03:26Z</time>
      </trkpt>
      <trkpt lat="45.72427" lon="-1.207">
        <ele>104</ele>
        <time>2020-01-26T12:03:27Z</time>
      </trkpt>
      <trkpt lat="45.72428" lon="-1.207">
        <ele>104</ele>
        <time>2020-01-26T12:03:28Z</time>
      </trkpt>
      <trkpt lat="45.72428" lon="-1.207">
        <ele>104</ele>
        <time>2020-01-26T12:03:29Z</time>
      </trkpt>
      <trkpt lat="45.72428" lon="-1.207">
        <ele>104</ele>
        <time>2020-01-26T12:03:30Z</time>
      </trkpt>
      <trkpt lat="45.72428" lon="-1.207">
        <ele>104</ele>
        <time>2020-01-26T12:03:31Z</time>
      </trkpt>
      <trkpt lat="45.72428" lon="-1.207">
        <ele>104</ele>
        <time>2020-01-26T12:03:32Z</time>
      </trkpt>
      <trkpt lat="45.72428" lon="-1.207">
        <ele>104</ele>
        <time>2020-01-26T12:03:33Z</time>
      </trkpt>
      <trkpt lat="45.72428" lon="-1.207">
        <ele>104</ele>
        <time>2020-01-26T12:03:34Z</time>
      </trkpt>
      <trkpt lat="45.72428" lon="-1.207">
        <ele>104</ele>
        <time>2020-01-26T12:03:35Z</time>
      </trkpt>
      <trkpt lat="45.72428" lon="-1.207">
        <ele>104</ele>
        <time>2020-01-26T12:03:36Z</time>
      </trkpt>
      <trkpt lat="45.72428" lon="-1.207">
        <ele>104</ele>
        <time>2020-01-26T12:03:37Z</time>
      </trkpt>
      <trkpt lat="45.72428" lon="-1.207">
        <ele>104</ele>
        <time>2020-01-26T12:03:38Z</time>
      </trkpt>
      <trkpt lat="45.72427" lon="-1.207">
        <ele>104</ele>
        <time>2020-01-26T12:03:39Z</time>
      </trkpt>
      <trkpt lat="45.72427" lon="-1.207">
        <ele>104</ele>
        <time>2020-01-26T12:03:40Z</time>
      </trkpt>
      <trkpt lat="45.72427" lon="-1.207">
        <ele>104</ele>
        <time>2020-01-26T12:03:41Z</time>
      </trkpt>
      <trkpt lat="45.72427" lon="-1.207">
        <ele>104</ele>
        <time>2020-01-26T12:03:42Z</time>
      </trkpt>
      <trkpt lat="45.72427" lon="-1.207">
        <ele>104</ele>
        <time>2020-01-26T12:03:43Z</time>
      </trkpt>
      <trkpt lat="45.72427" lon="-1.207">
        <ele>104</ele>
        <time>2020-01-26T12:03:44Z</time>
      </trkpt>
      <trkpt lat="45.72427" lon="-1.207">
        <ele>104</ele>
        <time>2020-01-26T12:03:45Z</time>
      </trkpt>
      <trkpt lat="45.72427" lon="-1.207">
        <ele>104</ele>
        <time>2020-01-26T12:03:46Z</time>
      </trkpt>
      <trkpt lat="45.72427" lon="-1.207">
        <ele>104</ele>
        <time>2020-01-26T12:03:47Z</time>
      </trkpt>
      <trkpt lat="45.72427" lon="-1.207">
        <ele>104</ele>
        <time>2020-01-26T12:03:48Z</time>
      </trkpt>
      <trkpt lat="45.72427" lon="-1.207">
        <ele>104</ele>
        <time>2020-01-26T12:03:49Z</time>
      </trkpt>
      <trkpt lat="45.72427" lon="-1.207">
        <ele>104</ele>
        <time>2020-01-26T12:03:50Z</time>
      </trkpt>
      <trkpt lat="45.72427" lon="-1.207">
        <ele>104</ele>
        <time>2020-01-26T12:03:51Z</time>
      </trkpt>
      <trkpt lat="45.72427" lon="-1.207">
        <ele>104</ele>
        <time>2020-01-26T12:03:52Z</time>
      </trkpt>
      <trkpt lat="45.72427" lon="-1.207">
        <ele>104</ele>
        <time>2020-01-26T12:03:53Z</time>
      </trkpt>
      <trkpt lat="45.72427" lon="-1.207">
        <ele>104</ele>
        <time>2020-01-26T12:03:54Z</time>
      </trkpt>
      <trkpt lat="45.72427" lon="-1.207">
        <ele>104</ele>
        <time>2020-01-26T12:03:55Z</time>
      </trkpt>
      <trkpt lat="45.72427" lon="-1.207">
        <ele>104</ele>
        <time>2020-01-26T12:03:56Z</time>
      </trkpt>
      <trkpt lat="45.72427" lon="-1.207">
        <ele>104</ele>
        <time>2020-01-26T12:03:57Z</time>
      </trkpt>
      <trkpt lat="45.72427" lon="-1.207">
        <ele>104</ele>
        <time>2020-01-26T12:03:58Z</time>
      </trkpt>
      <trkpt lat="45.72427" lon="-1.207">
        <ele>104</ele>
        <time>2020-01-26T12:03:59Z</time>
      </trkpt>
      <trkpt lat="45.72427" lon="-1.207">
        <ele>104</ele>
        <time>2020-01-26T12:04:00Z</time>
      </trkpt>
      <trkpt lat="45.72427" lon="-1.207">
        <ele>104</ele>
        <time>2020-01-26T12:04:01Z</time>
      </trkpt>
      <trkpt lat="45.72427" lon="-1.207">
        <ele>104</ele>
        <time>2020-01-26T12:04:02Z</time>
      </trkpt>
      <trkpt lat="45.72427" lon="-1.207">
        <ele>104</ele>
        <time>2020-01-26T12:04:03Z</time>
      </trkpt>
      <trkpt lat="45.72427" lon="-1.207">
        <ele>104</ele>
        <time>2020-01-26T12:04:04Z</time>
      </trkpt>
      <trkpt lat="45.72427" lon="-1.207">
        <ele>104</ele>
        <time>2020-01-26T12:04:05Z</time>
      </trkpt>
      <trkpt lat="45.72427" lon="-1.207">
        <ele>104</ele>
        <time>2020-01-26T12:04:06Z</time>
      </trkpt>
      <trkpt lat="45.72427" lon="-1.207">
        <ele>104</ele>
        <time>2020-01-26T12:04:07Z</time>
      </trkpt>
      <trkpt lat="45.72427" lon="-1.207">
        <ele>104</ele>
        <time>2020-01-26T12:04:08Z</time>
      </trkpt>
      <trkpt lat="45.72427" lon="-1.207">
        <ele>104</ele>
        <time>2020-01-26T12:04:09Z</time>
      </trkpt>
      <trkpt lat="45.72427" lon="-1.207">
        <ele>104</ele>
        <time>2020-01-26T12:04:10Z</time>
      </trkpt>
      <trkpt lat="45.72427" lon="-1.207">
        <ele>104</ele>
        <time>2020-01-26T12:04:11Z</time>
      </trkpt>
      <trkpt lat="45.72427" lon="-1.207">
        <ele>104</ele>
        <time>2020-01-26T12:04:12Z</time>
      </trkpt>
      <trkpt lat="45.72427" lon="-1.207">
        <ele>104</ele>
        <time>2020-01-26T12:04:13Z</time>
      </trkpt>
      <trkpt lat="45.72427" lon="-1.207">
        <ele>104</ele>
        <time>2020-01-26T12:04:14Z</time>
      </trkpt>
      <trkpt lat="45.72427" lon="-1.207">
        <ele>104</ele>
        <time>2020-01-26T12:04:15Z</time>
      </trkpt>
      <trkpt lat="45.72427" lon="-1.207">
        <ele>104</ele>
        <time>2020-01-26T12:04:16Z</time>
      </trkpt>
      <trkpt lat="45.72427" lon="-1.207">
        <ele>104</ele>
        <time>2020-01-26T12:04:17Z</time>
      </trkpt>
      <trkpt lat="45.72427" lon="-1.207">
        <ele>104</ele>
        <time>2020-01-26T12:04:18Z</time>
      </trkpt>
      <trkpt lat="45.72427" lon="-1.207">
        <ele>104</ele>
        <time>2020-01-26T12:04:19Z</time>
      </trkpt>
      <trkpt lat="45.72427" lon="-1.207">
        <ele>104</ele>
        <time>2020-01-26T12:04:20Z</time>
      </trkpt>
      <trkpt lat="45.72427" lon="-1.207">
        <ele>104</ele>
        <time>2020-01-26T12:04:21Z</time>
      </trkpt>
      <trkpt lat="45.72427" lon="-1.207">
        <ele>104</ele>
        <time>2020-01-26T12:04:22Z</time>
      </trkpt>
      <trkpt lat="45.72427" lon="-1.207">
        <ele>104</ele>
        <time>2020-01-26T12:04:23Z</time>
      </trkpt>
      <trkpt lat="45.72427" lon="-1.207">
        <ele>104</ele>
        <time>2020-01-26T12:04:24Z</time>
      </trkpt>
      <trkpt lat="45.72427" lon="-1.207">
        <ele>104</ele>
        <time>2020-01-26T12:04:25Z</time>
      </trkpt>
      <trkpt lat="45.72427" lon="-1.207">
        <ele>104</ele>
        <time>2020-01-26T12:04:26Z</time>
      </trkpt>
      <trkpt lat="45.72427" lon="-1.207">
        <ele>104</ele>
        <time>2020-01-26T12:04:27Z</time>
      </trkpt>
      <trkpt lat="45.72427" lon="-1.207">
        <ele>104</ele>
        <time>2020-01-26T12:04:28Z</time>
      </trkpt>
      <trkpt lat="45.72427" lon="-1.207">
        <ele>104</ele>
        <time>2020-01-26T12:04:29Z</time>
      </trkpt>
      <trkpt lat="45.72427" lon="-1.207">
        <ele>104</ele>
        <time>2020-01-26T12:04:30Z</time>
      </trkpt>
      <trkpt lat="45.72427" lon="-1.207">
        <ele>104</ele>
        <time>2020-01-26T12:04:31Z</time>
      </trkpt>
      <trkpt lat="45.72427" lon="-1.207">
        <ele>104</ele>
        <time>2020-01-26T12:04:32Z</time>
      </trkpt>
      <trkpt lat="45.72427" lon="-1.207">
        <ele>104</ele>
        <time>2020-01-26T12:04:33Z</time>
      </trkpt>
      <trkpt lat="45.72427" lon="-1.207">
        <ele>104</ele>
        <time>2020-01-26T12:04:34Z</time>
      </trkpt>
      <trkpt lat="45.72427" lon="-1.207">
        <ele>104</ele>
        <time>2020-01-26T12:04:35Z</time>
      </trkpt>
      <trkpt lat="45.72427" lon="-1.207">
        <ele>104</ele>
        <time>2020-01-26T12:04:36Z</time>
      </trkpt>
      <trkpt lat="45.72427" lon="-1.207">
        <ele>104</ele>
        <time>2020-01-26T12:04:37Z</time>
      </trkpt>
      <trkpt lat="45.72427" lon="-1.207">
        <ele>104</ele>
        <time>2020-01-26T12:04:38Z</time>
      </trkpt>
      <trkpt lat="45.72427" lon="-1.207">
        <ele>104</ele>
        <time>2020-01-26T12:04:39Z</time>
      </trkpt>
      <trkpt lat="45.72427" lon="-1.207">
        <ele>104</ele>
        <time>2020-01-26T12:04:40Z</time>
      </trkpt>
      <trkpt lat="45.72427" lon="-1.207">
        <ele>104</ele>
        <time>2020-01-26T12:04:41Z</time>
      </trkpt>
      <trkpt lat="45.72427" lon="-1.207">
        <ele>104</ele>
        <time>2020-01-26T12:04:42Z</time>
      </trkpt>
      <trkpt lat="45.72427" lon="-1.207">
        <ele>104</ele>
        <time>2020-01-26T12:04:43Z</time>
      </trkpt>
      <trkpt lat="45.72427" lon="-1.207">
        <ele>104</ele>
        <time>2020-01-26T12:04:44Z</time>
      </trkpt>
      <trkpt lat="45.72427" lon="-1.207">
        <ele>104</ele>
        <time>2020-01-26T12:04:45Z</time>
      </trkpt>
      <trkpt lat="45.72427" lon="-1.207">
        <ele>104</ele>
        <time>2020-01-26T12:04:46Z</time>
      </trkpt>
      <trkpt lat="45.72427" lon="-1.207">
        <ele>104</ele>
        <time>2020-01-26T12:04:47Z</time>
      </trkpt>
      <trkpt lat="45.72427" lon="-1.207">
        <ele>104</ele>
        <time>2020-01-26T12:04:48Z</time>
      </trkpt>
      <trkpt lat="45.72427" lon="-1.207">
        <ele>104</ele>
        <time>2020-01-26T12:04:49Z</time>
      </trkpt>
      <trkpt lat="45.72427" lon="-1.207">
        <ele>104</ele>
        <time>2020-01-26T12:04:50Z</time>
      </trkpt>
      <trkpt lat="45.72427" lon="-1.207">
        <ele>104</ele>
        <time>2020-01-26T12:04:51Z</time>
      </trkpt>
      <trkpt lat="45.72427" lon="-1.207">
        <ele>104</ele>
        <time>2020-01-26T12:04:52Z</time>
      </trkpt>
      <trkpt lat="45.72427" lon="-1.207">
        <ele>104</ele>
        <time>2020-01-26T12:04:53Z</time>
      </trkpt>
      <trkpt lat="45.72427" lon="-1.207">
        <ele>104</ele>
        <time>2020-01-26T12:04:54Z</time>
      </trkpt>
      <trkpt lat="45.72427" lon="-1.207">
        <ele>104</ele>
        <time>2020-01-26T12:04:55Z</time>
      </trkpt>
      <trkpt lat="45.72427" lon="-1.207">
        <ele>104</ele>
        <time>2020-01-26T12:04:56Z</time>
      </trkpt>
      <trkpt lat="45.72427" lon="-1.207">
        <ele>104</ele>
        <time>2020-01-26T12:04:57Z</time>
      </trkpt>
      <trkpt lat="45.72427" lon="-1.207">
        <ele>104</ele>
        <time>2020-01-26T12:04:58Z</time>
      </trkpt>
      <trkpt lat="45.72427" lon="-1.207">
        <ele>104</ele>
        <time>2020-01-26T12:04:59Z</time>
      </trkpt>
      <trkpt lat="45.72427" lon="-1.207">
        <ele>104</ele>
        <time>2020-01-26T12:05:00Z</time>
      </trkpt>
      <trkpt lat="45.72427" lon="-1.207">
        <ele>104</ele>
        <time>2020-01-26T12:05:01Z</time>
      </trkpt>
      <trkpt lat="45.72427" lon="-1.207">
        <ele>104</ele>
        <time>2020-01-26T12:05:02Z</time>
      </trkpt>
      <trkpt lat="45.72427" lon="-1.207">
        <ele>104</ele>
        <time>2020-01-26T12:05:03Z</time>
      </trkpt>
      <trkpt lat="45.72427" lon="-1.207">
        <ele>104</ele>
        <time>2020-01-26T12:05:04Z</time>
      </trkpt>
      <trkpt lat="45.72428" lon="-1.207">
        <ele>104</ele>
        <time>2020-01-26T12:05:05Z</time>
      </trkpt>
      <trkpt lat="45.72428" lon="-1.207">
        <ele>104</ele>
        <time>2020-01-26T12:05:06Z</time>
      </trkpt>
      <trkpt lat="45.72428" lon="-1.207">
        <ele>104</ele>
        <time>2020-01-26T12:05:07Z</time>
      </trkpt>
      <trkpt lat="45.72428" lon="-1.207">
        <ele>104</ele>
        <time>2020-01-26T12:05:08Z</time>
      </trkpt>
      <trkpt lat="45.72428" lon="-1.20701">
        <ele>104</ele>
        <time>2020-01-26T12:05:09Z</time>
      </trkpt>
      <trkpt lat="45.72427" lon="-1.20701">
        <ele>104</ele>
        <time>2020-01-26T12:05:10Z</time>
      </trkpt>
      <trkpt lat="45.72427" lon="-1.20701">
        <ele>104</ele>
        <time>2020-01-26T12:05:11Z</time>
      </trkpt>
      <trkpt lat="45.72427" lon="-1.20701">
        <ele>104</ele>
        <time>2020-01-26T12:05:12Z</time>
      </trkpt>
      <trkpt lat="45.72427" lon="-1.20701">
        <ele>104</ele>
        <time>2020-01-26T12:05:13Z</time>
      </trkpt>
      <trkpt lat="45.72427" lon="-1.20701">
        <ele>104</ele>
        <time>2020-01-26T12:05:14Z</time>
      </trkpt>
      <trkpt lat="45.72427" lon="-1.20701">
        <ele>104</ele>
        <time>2020-01-26T12:05:15Z</time>
      </trkpt>
      <trkpt lat="45.72427" lon="-1.20701">
        <ele>104</ele>
        <time>2020-01-26T12:05:16Z</time>
      </trkpt>
      <trkpt lat="45.72428" lon="-1.20701">
        <ele>104</ele>
        <time>2020-01-26T12:05:17Z</time>
      </trkpt>
      <trkpt lat="45.72428" lon="-1.20701">
        <ele>104</ele>
        <time>2020-01-26T12:05:18Z</time>
      </trkpt>
      <trkpt lat="45.72428" lon="-1.20701">
        <ele>104</ele>
        <time>2020-01-26T12:05:19Z</time>
      </trkpt>
      <trkpt lat="45.72428" lon="-1.20701">
        <ele>104</ele>
        <time>2020-01-26T12:05:20Z</time>
      </trkpt>
      <trkpt lat="45.72428" lon="-1.20701">
        <ele>104</ele>
        <time>2020-01-26T12:05:21Z</time>
      </trkpt>
      <trkpt lat="45.72428" lon="-1.20701">
        <ele>104</ele>
        <time>2020-01-26T12:05:22Z</time>
      </trkpt>
      <trkpt lat="45.72428" lon="-1.20701">
        <ele>104</ele>
        <time>2020-01-26T12:05:23Z</time>
      </trkpt>
      <trkpt lat="45.72428" lon="-1.20701">
        <ele>104</ele>
        <time>2020-01-26T12:05:24Z</time>
      </trkpt>
      <trkpt lat="45.72428" lon="-1.20701">
        <ele>104</ele>
        <time>2020-01-26T12:05:25Z</time>
      </trkpt>
      <trkpt lat="45.72428" lon="-1.20701">
        <ele>104</ele>
        <time>2020-01-26T12:05:26Z</time>
      </trkpt>
      <trkpt lat="45.72428" lon="-1.20701">
        <ele>104</ele>
        <time>2020-01-26T12:05:27Z</time>
      </trkpt>
      <trkpt lat="45.72428" lon="-1.20701">
        <ele>104</ele>
        <time>2020-01-26T12:05:28Z</time>
      </trkpt>
      <trkpt lat="45.72428" lon="-1.20701">
        <ele>104</ele>
        <time>2020-01-26T12:05:29Z</time>
      </trkpt>
      <trkpt lat="45.72428" lon="-1.20701">
        <ele>104</ele>
        <time>2020-01-26T12:05:30Z</time>
      </trkpt>
      <trkpt lat="45.72428" lon="-1.20701">
        <ele>104</ele>
        <time>2020-01-26T12:05:31Z</time>
      </trkpt>
      <trkpt lat="45.72428" lon="-1.20701">
        <ele>104</ele>
        <time>2020-01-26T12:05:32Z</time>
      </trkpt>
      <trkpt lat="45.72428" lon="-1.20701">
        <ele>104</ele>
        <time>2020-01-26T12:05:33Z</time>
      </trkpt>
      <trkpt lat="45.72428" lon="-1.20701">
        <ele>104</ele>
        <time>2020-01-26T12:05:34Z</time>
      </trkpt>
      <trkpt lat="45.72428" lon="-1.20701">
        <ele>104</ele>
        <time>2020-01-26T12:05:35Z</time>
      </trkpt>
      <trkpt lat="45.72428" lon="-1.20701">
        <ele>104</ele>
        <time>2020-01-26T12:05:36Z</time>
      </trkpt>
      <trkpt lat="45.72428" lon="-1.20701">
        <ele>104</ele>
        <time>2020-01-26T12:05:37Z</time>
      </trkpt>
      <trkpt lat="45.72428" lon="-1.20701">
        <ele>104</ele>
        <time>2020-01-26T12:05:38Z</time>
      </trkpt>
      <trkpt lat="45.72428" lon="-1.20701">
        <ele>104</ele>
        <time>2020-01-26T12:05:39Z</time>
      </trkpt>
      <trkpt lat="45.72428" lon="-1.20701">
        <ele>104</ele>
        <time>2020-01-26T12:05:40Z</time>
      </trkpt>
      <trkpt lat="45.72428" lon="-1.20701">
        <ele>104</ele>
        <time>2020-01-26T12:05:41Z</time>
      </trkpt>
      <trkpt lat="45.72428" lon="-1.20701">
        <ele>104</ele>
        <time>2020-01-26T12:05:42Z</time>
      </trkpt>
      <trkpt lat="45.72428" lon="-1.20701">
        <ele>104</ele>
        <time>2020-01-26T12:05:43Z</time>
      </trkpt>
      <trkpt lat="45.72428" lon="-1.20701">
        <ele>104</ele>
        <time>2020-01-26T12:05:44Z</time>
      </trkpt>
      <trkpt lat="45.72428" lon="-1.20701">
        <ele>104</ele>
        <time>2020-01-26T12:05:45Z</time>
      </trkpt>
      <trkpt lat="45.72428" lon="-1.20701">
        <ele>104</ele>
        <time>2020-01-26T12:05:46Z</time>
      </trkpt>
      <trkpt lat="45.72428" lon="-1.20701">
        <ele>104</ele>
        <time>2020-01-26T12:05:47Z</time>
      </trkpt>
      <trkpt lat="45.72428" lon="-1.20701">
        <ele>104</ele>
        <time>2020-01-26T12:05:48Z</time>
      </trkpt>
      <trkpt lat="45.72428" lon="-1.20701">
        <ele>104</ele>
        <time>2020-01-26T12:05:49Z</time>
      </trkpt>
      <trkpt lat="45.72428" lon="-1.20701">
        <ele>104</ele>
        <time>2020-01-26T12:05:50Z</time>
      </trkpt>
      <trkpt lat="45.72428" lon="-1.20701">
        <ele>104</ele>
        <time>2020-01-26T12:05:51Z</time>
      </trkpt>
      <trkpt lat="45.72428" lon="-1.20701">
        <ele>104</ele>
        <time>2020-01-26T12:05:52Z</time>
      </trkpt>
      <trkpt lat="45.72428" lon="-1.20701">
        <ele>104</ele>
        <time>2020-01-26T12:05:53Z</time>
      </trkpt>
      <trkpt lat="45.72428" lon="-1.20701">
        <ele>104</ele>
        <time>2020-01-26T12:05:54Z</time>
      </trkpt>
      <trkpt lat="45.72428" lon="-1.20701">
        <ele>104</ele>
        <time>2020-01-26T12:05:55Z</time>
      </trkpt>
      <trkpt lat="45.72428" lon="-1.20701">
        <ele>104</ele>
        <time>2020-01-26T12:05:56Z</time>
      </trkpt>
      <trkpt lat="45.72428" lon="-1.20701">
        <ele>104</ele>
        <time>2020-01-26T12:05:57Z</time>
      </trkpt>
      <trkpt lat="45.72428" lon="-1.20701">
        <ele>104</ele>
        <time>2020-01-26T12:05:58Z</time>
      </trkpt>
      <trkpt lat="45.72428" lon="-1.20701">
        <ele>104</ele>
        <time>2020-01-26T12:05:59Z</time>
      </trkpt>
      <trkpt lat="45.72428" lon="-1.20701">
        <ele>104</ele>
        <time>2020-01-26T12:06:00Z</time>
      </trkpt>
      <trkpt lat="45.72428" lon="-1.20701">
        <ele>104</ele>
        <time>2020-01-26T12:06:01Z</time>
      </trkpt>
      <trkpt lat="45.72428" lon="-1.20701">
        <ele>104</ele>
        <time>2020-01-26T12:06:02Z</time>
      </trkpt>
      <trkpt lat="45.72428" lon="-1.20701">
        <ele>104</ele>
        <time>2020-01-26T12:06:03Z</time>
      </trkpt>
      <trkpt lat="45.72428" lon="-1.20701">
        <ele>104</ele>
        <time>2020-01-26T12:06:04Z</time>
      </trkpt>
      <trkpt lat="45.72428" lon="-1.20701">
        <ele>104</ele>
        <time>2020-01-26T12:06:05Z</time>
      </trkpt>
      <trkpt lat="45.72428" lon="-1.20701">
        <ele>104</ele>
        <time>2020-01-26T12:06:06Z</time>
      </trkpt>
      <trkpt lat="45.72428" lon="-1.20701">
        <ele>104</ele>
        <time>2020-01-26T12:06:07Z</time>
      </trkpt>
      <trkpt lat="45.72428" lon="-1.20701">
        <ele>104</ele>
        <time>2020-01-26T12:06:08Z</time>
      </trkpt>
      <trkpt lat="45.72428" lon="-1.20701">
        <ele>104</ele>
        <time>2020-01-26T12:06:09Z</time>
      </trkpt>
      <trkpt lat="45.72428" lon="-1.20701">
        <ele>104</ele>
        <time>2020-01-26T12:06:10Z</time>
      </trkpt>
      <trkpt lat="45.72428" lon="-1.20701">
        <ele>104</ele>
        <time>2020-01-26T12:06:11Z</time>
      </trkpt>
      <trkpt lat="45.72428" lon="-1.20701">
        <ele>104</ele>
        <time>2020-01-26T12:06:12Z</time>
      </trkpt>
      <trkpt lat="45.72428" lon="-1.20701">
        <ele>104</ele>
        <time>2020-01-26T12:06:13Z</time>
      </trkpt>
      <trkpt lat="45.72428" lon="-1.20701">
        <ele>104</ele>
        <time>2020-01-26T12:06:14Z</time>
      </trkpt>
      <trkpt lat="45.72428" lon="-1.20701">
        <ele>104</ele>
        <time>2020-01-26T12:06:15Z</time>
      </trkpt>
      <trkpt lat="45.72428" lon="-1.20701">
        <ele>104</ele>
        <time>2020-01-26T12:06:16Z</time>
      </trkpt>
      <trkpt lat="45.72428" lon="-1.20701">
        <ele>104</ele>
        <time>2020-01-26T12:06:17Z</time>
      </trkpt>
      <trkpt lat="45.72428" lon="-1.20701">
        <ele>104</ele>
        <time>2020-01-26T12:06:18Z</time>
      </trkpt>
      <trkpt lat="45.72428" lon="-1.20701">
        <ele>104</ele>
        <time>2020-01-26T12:06:19Z</time>
      </trkpt>
      <trkpt lat="45.72428" lon="-1.20701">
        <ele>104</ele>
        <time>2020-01-26T12:06:20Z</time>
      </trkpt>
      <trkpt lat="45.72428" lon="-1.20701">
        <ele>104</ele>
        <time>2020-01-26T12:06:21Z</time>
      </trkpt>
      <trkpt lat="45.72428" lon="-1.20701">
        <ele>104</ele>
        <time>2020-01-26T12:06:22Z</time>
      </trkpt>
      <trkpt lat="45.72428" lon="-1.20701">
        <ele>104</ele>
        <time>2020-01-26T12:06:23Z</time>
      </trkpt>
      <trkpt lat="45.72428" lon="-1.20701">
        <ele>104</ele>
        <time>2020-01-26T12:06:24Z</time>
      </trkpt>
      <trkpt lat="45.72428" lon="-1.20701">
        <ele>104</ele>
        <time>2020-01-26T12:06:25Z</time>
      </trkpt>
      <trkpt lat="45.72428" lon="-1.20701">
        <ele>104</ele>
        <time>2020-01-26T12:06:26Z</time>
      </trkpt>
      <trkpt lat="45.72428" lon="-1.20701">
        <ele>104</ele>
        <time>2020-01-26T12:06:27Z</time>
      </trkpt>
      <trkpt lat="45.72428" lon="-1.20701">
        <ele>104</ele>
        <time>2020-01-26T12:06:28Z</time>
      </trkpt>
      <trkpt lat="45.72428" lon="-1.20701">
        <ele>104</ele>
        <time>2020-01-26T12:06:29Z</time>
      </trkpt>
      <trkpt lat="45.72428" lon="-1.20701">
        <ele>104</ele>
        <time>2020-01-26T12:06:30Z</time>
      </trkpt>
      <trkpt lat="45.72428" lon="-1.20701">
        <ele>104</ele>
        <time>2020-01-26T12:06:31Z</time>
      </trkpt>
      <trkpt lat="45.72428" lon="-1.20701">
        <ele>104</ele>
        <time>2020-01-26T12:06:32Z</time>
      </trkpt>
      <trkpt lat="45.72428" lon="-1.20701">
        <ele>104</ele>
        <time>2020-01-26T12:06:33Z</time>
      </trkpt>
      <trkpt lat="45.72428" lon="-1.20701">
        <ele>104</ele>
        <time>2020-01-26T12:06:34Z</time>
      </trkpt>
      <trkpt lat="45.72428" lon="-1.20701">
        <ele>104</ele>
        <time>2020-01-26T12:06:35Z</time>
      </trkpt>
      <trkpt lat="45.72428" lon="-1.20701">
        <ele>104</ele>
        <time>2020-01-26T12:06:36Z</time>
      </trkpt>
      <trkpt lat="45.72428" lon="-1.20701">
        <ele>104</ele>
        <time>2020-01-26T12:06:37Z</time>
      </trkpt>
      <trkpt lat="45.72428" lon="-1.20701">
        <ele>104</ele>
        <time>2020-01-26T12:06:38Z</time>
      </trkpt>
      <trkpt lat="45.72428" lon="-1.20701">
        <ele>104</ele>
        <time>2020-01-26T12:06:39Z</time>
      </trkpt>
      <trkpt lat="45.72428" lon="-1.20701">
        <ele>104</ele>
        <time>2020-01-26T12:06:40Z</time>
      </trkpt>
      <trkpt lat="45.72428" lon="-1.20701">
        <ele>104</ele>
        <time>2020-01-26T12:06:41Z</time>
      </trkpt>
      <trkpt lat="45.72428" lon="-1.20701">
        <ele>104</ele>
        <time>2020-01-26T12:06:42Z</time>
      </trkpt>
      <trkpt lat="45.72428" lon="-1.207">
        <ele>104</ele>
        <time>2020-01-26T12:06:43Z</time>
      </trkpt>
      <trkpt lat="45.72428" lon="-1.20699">
        <ele>103.8</ele>
        <time>2020-01-26T12:06:44Z</time>
      </trkpt>
      <trkpt lat="45.72428" lon="-1.20698">
        <ele>103.2</ele>
        <time>2020-01-26T12:06:45Z</time>
      </trkpt>
      <trkpt lat="45.72427" lon="-1.20698">
        <ele>103</ele>
        <time>2020-01-26T12:06:46Z</time>
      </trkpt>
      <trkpt lat="45.72427" lon="-1.20698">
        <ele>102.8</ele>
        <time>2020-01-26T12:06:47Z</time>
      </trkpt>
      <trkpt lat="45.72427" lon="-1.20698">
        <ele>102.2</ele>
        <time>2020-01-26T12:06:48Z</time>
      </trkpt>
      <trkpt lat="45.72427" lon="-1.20697">
        <ele>102</ele>
        <time>2020-01-26T12:06:49Z</time>
      </trkpt>
      <trkpt lat="45.72429" lon="-1.20697">
        <ele>101.8</ele>
        <time>2020-01-26T12:06:50Z</time>
      </trkpt>
      <trkpt lat="45.7243" lon="-1.20699">
        <ele>101.4</ele>
        <time>2020-01-26T12:06:51Z</time>
      </trkpt>
      <trkpt lat="45.72432" lon="-1.207">
        <ele>101</ele>
        <time>2020-01-26T12:06:52Z</time>
      </trkpt>
      <trkpt lat="45.72432" lon="-1.207">
        <ele>100.6</ele>
        <time>2020-01-26T12:06:53Z</time>
      </trkpt>
      <trkpt lat="45.72432" lon="-1.20701">
        <ele>100.2</ele>
        <time>2020-01-26T12:06:54Z</time>
      </trkpt>
      <trkpt lat="45.72433" lon="-1.20701">
        <ele>99.8</ele>
        <time>2020-01-26T12:06:55Z</time>
      </trkpt>
      <trkpt lat="45.72433" lon="-1.20702">
        <ele>99.6</ele>
        <time>2020-01-26T12:06:56Z</time>
      </trkpt>
      <trkpt lat="45.72433" lon="-1.20702">
        <ele>99.8</ele>
        <time>2020-01-26T12:06:57Z</time>
      </trkpt>
      <trkpt lat="45.72434" lon="-1.20701">
        <ele>99.6</ele>
        <time>2020-01-26T12:06:58Z</time>
      </trkpt>
      <trkpt lat="45.72434" lon="-1.20701">
        <ele>99.4</ele>
        <time>2020-01-26T12:06:59Z</time>
      </trkpt>
      <trkpt lat="45.72433" lon="-1.20702">
        <ele>99.6</ele>
        <time>2020-01-26T12:07:00Z</time>
      </trkpt>
      <trkpt lat="45.72433" lon="-1.20702">
        <ele>99.6</ele>
        <time>2020-01-26T12:07:01Z</time>
      </trkpt>
      <trkpt lat="45.72433" lon="-1.20702">
        <ele>99.8</ele>
        <time>2020-01-26T12:07:02Z</time>
      </trkpt>
      <trkpt lat="45.72433" lon="-1.20702">
        <ele>99.8</ele>
        <time>2020-01-26T12:07:03Z</time>
      </trkpt>
      <trkpt lat="45.72433" lon="-1.20702">
        <ele>99.8</ele>
        <time>2020-01-26T12:07:04Z</time>
      </trkpt>
      <trkpt lat="45.72433" lon="-1.20702">
        <ele>99.8</ele>
        <time>2020-01-26T12:07:05Z</time>
      </trkpt>
      <trkpt lat="45.72434" lon="-1.20702">
        <ele>100.2</ele>
        <time>2020-01-26T12:07:06Z</time>
      </trkpt>
      <trkpt lat="45.72434" lon="-1.20701">
        <ele>100.4</ele>
        <time>2020-01-26T12:07:07Z</time>
      </trkpt>
      <trkpt lat="45.72434" lon="-1.20702">
        <ele>100.6</ele>
        <time>2020-01-26T12:07:08Z</time>
      </trkpt>
      <trkpt lat="45.72434" lon="-1.20701">
        <ele>100.6</ele>
        <time>2020-01-26T12:07:09Z</time>
      </trkpt>
      <trkpt lat="45.72434" lon="-1.20702">
        <ele>100.8</ele>
        <time>2020-01-26T12:07:10Z</time>
      </trkpt>
      <trkpt lat="45.72434" lon="-1.20702">
        <ele>100.8</ele>
        <time>2020-01-26T12:07:11Z</time>
      </trkpt>
      <trkpt lat="45.72434" lon="-1.20702">
        <ele>100.8</ele>
        <time>2020-01-26T12:07:12Z</time>
      </trkpt>
      <trkpt lat="45.72434" lon="-1.20702">
        <ele>100.8</ele>
        <time>2020-01-26T12:07:13Z</time>
      </trkpt>
      <trkpt lat="45.72434" lon="-1.20702">
        <ele>101</ele>
        <time>2020-01-26T12:07:14Z</time>
      </trkpt>
      <trkpt lat="45.72434" lon="-1.20702">
        <ele>101</ele>
        <time>2020-01-26T12:07:15Z</time>
      </trkpt>
      <trkpt lat="45.72434" lon="-1.20701">
        <ele>100.8</ele>
        <time>2020-01-26T12:07:16Z</time>
      </trkpt>
      <trkpt lat="45.72434" lon="-1.20701">
        <ele>100.8</ele>
        <time>2020-01-26T12:07:17Z</time>
      </trkpt>
      <trkpt lat="45.72434" lon="-1.20701">
        <ele>100.6</ele>
        <time>2020-01-26T12:07:18Z</time>
      </trkpt>
      <trkpt lat="45.72434" lon="-1.20701">
        <ele>100.4</ele>
        <time>2020-01-26T12:07:19Z</time>
      </trkpt>
      <trkpt lat="45.72434" lon="-1.20701">
        <ele>100.4</ele>
        <time>2020-01-26T12:07:20Z</time>
      </trkpt>
      <trkpt lat="45.72434" lon="-1.20701">
        <ele>100.2</ele>
        <time>2020-01-26T12:07:21Z</time>
      </trkpt>
      <trkpt lat="45.72434" lon="-1.20701">
        <ele>100.4</ele>
        <time>2020-01-26T12:07:22Z</time>
      </trkpt>
      <trkpt lat="45.72434" lon="-1.20701">
        <ele>100.6</ele>
        <time>2020-01-26T12:07:23Z</time>
      </trkpt>
      <trkpt lat="45.72434" lon="-1.20701">
        <ele>100.6</ele>
        <time>2020-01-26T12:07:24Z</time>
      </trkpt>
      <trkpt lat="45.72434" lon="-1.20701">
        <ele>100.8</ele>
        <time>2020-01-26T12:07:25Z</time>
      </trkpt>
      <trkpt lat="45.72433" lon="-1.20701">
        <ele>100.8</ele>
        <time>2020-01-26T12:07:26Z</time>
      </trkpt>
      <trkpt lat="45.72433" lon="-1.20702">
        <ele>100.8</ele>
        <time>2020-01-26T12:07:27Z</time>
      </trkpt>
      <trkpt lat="45.72433" lon="-1.20702">
        <ele>101</ele>
        <time>2020-01-26T12:07:28Z</time>
      </trkpt>
      <trkpt lat="45.72433" lon="-1.20702">
        <ele>101</ele>
        <time>2020-01-26T12:07:29Z</time>
      </trkpt>
      <trkpt lat="45.72433" lon="-1.20702">
        <ele>101</ele>
        <time>2020-01-26T12:07:30Z</time>
      </trkpt>
      <trkpt lat="45.72433" lon="-1.20702">
        <ele>101</ele>
        <time>2020-01-26T12:07:31Z</time>
      </trkpt>
      <trkpt lat="45.72433" lon="-1.20702">
        <ele>101</ele>
        <time>2020-01-26T12:07:32Z</time>
      </trkpt>
      <trkpt lat="45.72433" lon="-1.20702">
        <ele>101</ele>
        <time>2020-01-26T12:07:33Z</time>
      </trkpt>
      <trkpt lat="45.72433" lon="-1.20702">
        <ele>101</ele>
        <time>2020-01-26T12:07:34Z</time>
      </trkpt>
      <trkpt lat="45.72433" lon="-1.20702">
        <ele>101</ele>
        <time>2020-01-26T12:07:35Z</time>
      </trkpt>
      <trkpt lat="45.72433" lon="-1.20702">
        <ele>101</ele>
        <time>2020-01-26T12:07:36Z</time>
      </trkpt>
      <trkpt lat="45.72433" lon="-1.20702">
        <ele>101</ele>
        <time>2020-01-26T12:07:37Z</time>
      </trkpt>
      <trkpt lat="45.72433" lon="-1.20702">
        <ele>101</ele>
        <time>2020-01-26T12:07:38Z</time>
      </trkpt>
      <trkpt lat="45.72433" lon="-1.20702">
        <ele>101</ele>
        <time>2020-01-26T12:07:39Z</time>
      </trkpt>
      <trkpt lat="45.72433" lon="-1.20702">
        <ele>101</ele>
        <time>2020-01-26T12:07:40Z</time>
      </trkpt>
      <trkpt lat="45.72433" lon="-1.20702">
        <ele>101</ele>
        <time>2020-01-26T12:07:41Z</time>
      </trkpt>
      <trkpt lat="45.72434" lon="-1.20702">
        <ele>101.2</ele>
        <time>2020-01-26T12:07:42Z</time>
      </trkpt>
      <trkpt lat="45.72434" lon="-1.20702">
        <ele>101.8</ele>
        <time>2020-01-26T12:07:43Z</time>
      </trkpt>
      <trkpt lat="45.72434" lon="-1.20703">
        <ele>102</ele>
        <time>2020-01-26T12:07:44Z</time>
      </trkpt>
      <trkpt lat="45.72434" lon="-1.20704">
        <ele>102.2</ele>
        <time>2020-01-26T12:07:45Z</time>
      </trkpt>
      <trkpt lat="45.72433" lon="-1.20705">
        <ele>102.4</ele>
        <time>2020-01-26T12:07:46Z</time>
      </trkpt>
      <trkpt lat="45.72433" lon="-1.20705">
        <ele>102.6</ele>
        <time>2020-01-26T12:07:47Z</time>
      </trkpt>
      <trkpt lat="45.72433" lon="-1.20705">
        <ele>102.6</ele>
        <time>2020-01-26T12:07:48Z</time>
      </trkpt>
      <trkpt lat="45.72434" lon="-1.20705">
        <ele>102.8</ele>
        <time>2020-01-26T12:07:49Z</time>
      </trkpt>
      <trkpt lat="45.72434" lon="-1.20705">
        <ele>102.8</ele>
        <time>2020-01-26T12:07:50Z</time>
      </trkpt>
      <trkpt lat="45.72434" lon="-1.20705">
        <ele>102.8</ele>
        <time>2020-01-26T12:07:51Z</time>
      </trkpt>
      <trkpt lat="45.72434" lon="-1.20705">
        <ele>103</ele>
        <time>2020-01-26T12:07:52Z</time>
      </trkpt>
      <trkpt lat="45.72433" lon="-1.20705">
        <ele>103.2</ele>
        <time>2020-01-26T12:07:53Z</time>
      </trkpt>
      <trkpt lat="45.72433" lon="-1.20705">
        <ele>103.4</ele>
        <time>2020-01-26T12:07:54Z</time>
      </trkpt>
      <trkpt lat="45.72433" lon="-1.20705">
        <ele>103.6</ele>
        <time>2020-01-26T12:07:55Z</time>
      </trkpt>
      <trkpt lat="45.72433" lon="-1.20705">
        <ele>103.6</ele>
        <time>2020-01-26T12:07:56Z</time>
      </trkpt>
      <trkpt lat="45.72433" lon="-1.20705">
        <ele>103.8</ele>
        <time>2020-01-26T12:07:57Z</time>
      </trkpt>
      <trkpt lat="45.72433" lon="-1.20705">
        <ele>103.8</ele>
        <time>2020-01-26T12:07:58Z</time>
      </trkpt>
      <trkpt lat="45.72433" lon="-1.20705">
        <ele>103.8</ele>
        <time>2020-01-26T12:07:59Z</time>
      </trkpt>
      <trkpt lat="45.72433" lon="-1.20705">
        <ele>103.8</ele>
        <time>2020-01-26T12:08:00Z</time>
      </trkpt>
      <trkpt lat="45.72433" lon="-1.20705">
        <ele>104</ele>
        <time>2020-01-26T12:08:01Z</time>
      </trkpt>
      <trkpt lat="45.72433" lon="-1.20705">
        <ele>104</ele>
        <time>2020-01-26T12:08:02Z</time>
      </trkpt>
      <trkpt lat="45.72433" lon="-1.20705">
        <ele>104</ele>
        <time>2020-01-26T12:08:03Z</time>
      </trkpt>
      <trkpt lat="45.72433" lon="-1.20705">
        <ele>104</ele>
        <time>2020-01-26T12:08:04Z</time>
      </trkpt>
      <trkpt lat="45.72433" lon="-1.20705">
        <ele>104</ele>
        <time>2020-01-26T12:08:05Z</time>
      </trkpt>
      <trkpt lat="45.72433" lon="-1.20705">
        <ele>104</ele>
        <time>2020-01-26T12:08:06Z</time>
      </trkpt>
      <trkpt lat="45.72433" lon="-1.20705">
        <ele>104</ele>
        <time>2020-01-26T12:08:07Z</time>
      </trkpt>
      <trkpt lat="45.72433" lon="-1.20705">
        <ele>104</ele>
        <time>2020-01-26T12:08:08Z</time>
      </trkpt>
      <trkpt lat="45.72433" lon="-1.20705">
        <ele>104</ele>
        <time>2020-01-26T12:08:09Z</time>
      </trkpt>
      <trkpt lat="45.72433" lon="-1.20705">
        <ele>104</ele>
        <time>2020-01-26T12:08:10Z</time>
      </trkpt>
      <trkpt lat="45.72433" lon="-1.20705">
        <ele>104</ele>
        <time>2020-01-26T12:08:11Z</time>
      </trkpt>
      <trkpt lat="45.72433" lon="-1.20705">
        <ele>104</ele>
        <time>2020-01-26T12:08:12Z</time>
      </trkpt>
      <trkpt lat="45.72433" lon="-1.20705">
        <ele>104</ele>
        <time>2020-01-26T12:08:13Z</time>
      </trkpt>
      <trkpt lat="45.72433" lon="-1.20705">
        <ele>104</ele>
        <time>2020-01-26T12:08:14Z</time>
      </trkpt>
      <trkpt lat="45.72433" lon="-1.20705">
        <ele>104</ele>
        <time>2020-01-26T12:08:15Z</time>
      </trkpt>
      <trkpt lat="45.72433" lon="-1.20705">
        <ele>104</ele>
        <time>2020-01-26T12:08:16Z</time>
      </trkpt>
      <trkpt lat="45.72433" lon="-1.20705">
        <ele>104</ele>
        <time>2020-01-26T12:08:17Z</time>
      </trkpt>
      <trkpt lat="45.72433" lon="-1.20705">
        <ele>104</ele>
        <time>2020-01-26T12:08:18Z</time>
      </trkpt>
      <trkpt lat="45.72433" lon="-1.20705">
        <ele>104</ele>
        <time>2020-01-26T12:08:19Z</time>
      </trkpt>
      <trkpt lat="45.72433" lon="-1.20705">
        <ele>104</ele>
        <time>2020-01-26T12:08:20Z</time>
      </trkpt>
      <trkpt lat="45.72433" lon="-1.20705">
        <ele>104</ele>
        <time>2020-01-26T12:08:21Z</time>
      </trkpt>
      <trkpt lat="45.72433" lon="-1.20705">
        <ele>104</ele>
        <time>2020-01-26T12:08:22Z</time>
      </trkpt>
      <trkpt lat="45.72433" lon="-1.20705">
        <ele>104</ele>
        <time>2020-01-26T12:08:23Z</time>
      </trkpt>
      <trkpt lat="45.72433" lon="-1.20705">
        <ele>104</ele>
        <time>2020-01-26T12:08:24Z</time>
      </trkpt>
      <trkpt lat="45.72433" lon="-1.20705">
        <ele>104</ele>
        <time>2020-01-26T12:08:25Z</time>
      </trkpt>
      <trkpt lat="45.72433" lon="-1.20705">
        <ele>104</ele>
        <time>2020-01-26T12:08:26Z</time>
      </trkpt>
      <trkpt lat="45.72433" lon="-1.20705">
        <ele>104</ele>
        <time>2020-01-26T12:08:27Z</time>
      </trkpt>
      <trkpt lat="45.72433" lon="-1.20705">
        <ele>104</ele>
        <time>2020-01-26T12:08:28Z</time>
      </trkpt>
      <trkpt lat="45.72433" lon="-1.20705">
        <ele>104</ele>
        <time>2020-01-26T12:08:29Z</time>
      </trkpt>
      <trkpt lat="45.72433" lon="-1.20705">
        <ele>104</ele>
        <time>2020-01-26T12:08:30Z</time>
      </trkpt>
      <trkpt lat="45.72433" lon="-1.20705">
        <ele>104</ele>
        <time>2020-01-26T12:08:31Z</time>
      </trkpt>
      <trkpt lat="45.72433" lon="-1.20705">
        <ele>104</ele>
        <time>2020-01-26T12:08:32Z</time>
      </trkpt>
      <trkpt lat="45.72434" lon="-1.20706">
        <ele>104</ele>
        <time>2020-01-26T12:08:33Z</time>
      </trkpt>
      <trkpt lat="45.72435" lon="-1.20707">
        <ele>103.8</ele>
        <time>2020-01-26T12:08:34Z</time>
      </trkpt>
      <trkpt lat="45.72434" lon="-1.20707">
        <ele>103.8</ele>
        <time>2020-01-26T12:08:35Z</time>
      </trkpt>
      <trkpt lat="45.72435" lon="-1.20707">
        <ele>103.8</ele>
        <time>2020-01-26T12:08:36Z</time>
      </trkpt>
      <trkpt lat="45.72435" lon="-1.20707">
        <ele>103.8</ele>
        <time>2020-01-26T12:08:37Z</time>
      </trkpt>
      <trkpt lat="45.72435" lon="-1.20707">
        <ele>104</ele>
        <time>2020-01-26T12:08:38Z</time>
      </trkpt>
      <trkpt lat="45.72435" lon="-1.20706">
        <ele>104.2</ele>
        <time>2020-01-26T12:08:39Z</time>
      </trkpt>
      <trkpt lat="45.72435" lon="-1.20706">
        <ele>104.4</ele>
        <time>2020-01-26T12:08:40Z</time>
      </trkpt>
      <trkpt lat="45.72435" lon="-1.20706">
        <ele>104</ele>
        <time>2020-01-26T12:08:41Z</time>
      </trkpt>
      <trkpt lat="45.72437" lon="-1.20708">
        <ele>103.6</ele>
        <time>2020-01-26T12:08:42Z</time>
      </trkpt>
      <trkpt lat="45.72438" lon="-1.20711">
        <ele>103.2</ele>
        <time>2020-01-26T12:08:43Z</time>
      </trkpt>
      <trkpt lat="45.72438" lon="-1.20714">
        <ele>102.8</ele>
        <time>2020-01-26T12:08:44Z</time>
      </trkpt>
      <trkpt lat="45.72439" lon="-1.20718">
        <ele>102.4</ele>
        <time>2020-01-26T12:08:45Z</time>
      </trkpt>
      <trkpt lat="45.72439" lon="-1.20723">
        <ele>101.8</ele>
        <time>2020-01-26T12:08:46Z</time>
      </trkpt>
      <trkpt lat="45.72438" lon="-1.20728">
        <ele>101.4</ele>
        <time>2020-01-26T12:08:47Z</time>
      </trkpt>
      <trkpt lat="45.72437" lon="-1.20734">
        <ele>100.8</ele>
        <time>2020-01-26T12:08:48Z</time>
      </trkpt>
      <trkpt lat="45.72436" lon="-1.20741">
        <ele>100.6</ele>
        <time>2020-01-26T12:08:49Z</time>
      </trkpt>
      <trkpt lat="45.72434" lon="-1.20748">
        <ele>100.4</ele>
        <time>2020-01-26T12:08:50Z</time>
      </trkpt>
      <trkpt lat="45.72433" lon="-1.20754">
        <ele>100</ele>
        <time>2020-01-26T12:08:51Z</time>
      </trkpt>
      <trkpt lat="45.72434" lon="-1.20758">
        <ele>100</ele>
        <time>2020-01-26T12:08:52Z</time>
      </trkpt>
      <trkpt lat="45.72438" lon="-1.20756">
        <ele>100</ele>
        <time>2020-01-26T12:08:53Z</time>
      </trkpt>
      <trkpt lat="45.72441" lon="-1.20755">
        <ele>99.4</ele>
        <time>2020-01-26T12:08:54Z</time>
      </trkpt>
      <trkpt lat="45.72443" lon="-1.20755">
        <ele>98.8</ele>
        <time>2020-01-26T12:08:55Z</time>
      </trkpt>
      <trkpt lat="45.72445" lon="-1.20754">
        <ele>97.8</ele>
        <time>2020-01-26T12:08:56Z</time>
      </trkpt>
      <trkpt lat="45.72449" lon="-1.20746">
        <ele>97.4</ele>
        <time>2020-01-26T12:08:57Z</time>
      </trkpt>
      <trkpt lat="45.72451" lon="-1.2074">
        <ele>96.8</ele>
        <time>2020-01-26T12:08:58Z</time>
      </trkpt>
      <trkpt lat="45.72454" lon="-1.20733">
        <ele>96.2</ele>
        <time>2020-01-26T12:08:59Z</time>
      </trkpt>
      <trkpt lat="45.72462" lon="-1.20725">
        <ele>95.8</ele>
        <time>2020-01-26T12:09:00Z</time>
      </trkpt>
      <trkpt lat="45.72471" lon="-1.20718">
        <ele>96.2</ele>
        <time>2020-01-26T12:09:01Z</time>
      </trkpt>
      <trkpt lat="45.72473" lon="-1.20713">
        <ele>95.8</ele>
        <time>2020-01-26T12:09:02Z</time>
      </trkpt>
      <trkpt lat="45.72476" lon="-1.20708">
        <ele>95.2</ele>
        <time>2020-01-26T12:09:03Z</time>
      </trkpt>
      <trkpt lat="45.7248" lon="-1.20703">
        <ele>94.4</ele>
        <time>2020-01-26T12:09:04Z</time>
      </trkpt>
      <trkpt lat="45.72483" lon="-1.20698">
        <ele>93.8</ele>
        <time>2020-01-26T12:09:05Z</time>
      </trkpt>
      <trkpt lat="45.72486" lon="-1.20694">
        <ele>93</ele>
        <time>2020-01-26T12:09:06Z</time>
      </trkpt>
      <trkpt lat="45.72494" lon="-1.20686">
        <ele>93</ele>
        <time>2020-01-26T12:09:07Z</time>
      </trkpt>
      <trkpt lat="45.72496" lon="-1.2068">
        <ele>92.8</ele>
        <time>2020-01-26T12:09:08Z</time>
      </trkpt>
      <trkpt lat="45.72498" lon="-1.20677">
        <ele>92.4</ele>
        <time>2020-01-26T12:09:09Z</time>
      </trkpt>
      <trkpt lat="45.72501" lon="-1.20673">
        <ele>92.6</ele>
        <time>2020-01-26T12:09:10Z</time>
      </trkpt>
      <trkpt lat="45.72501" lon="-1.2067">
        <ele>92.4</ele>
        <time>2020-01-26T12:09:11Z</time>
      </trkpt>
      <trkpt lat="45.72499" lon="-1.20668">
        <ele>92.6</ele>
        <time>2020-01-26T12:09:12Z</time>
      </trkpt>
      <trkpt lat="45.72497" lon="-1.20666">
        <ele>92.2</ele>
        <time>2020-01-26T12:09:13Z</time>
      </trkpt>
      <trkpt lat="45.72496" lon="-1.20665">
        <ele>91.8</ele>
        <time>2020-01-26T12:09:14Z</time>
      </trkpt>
      <trkpt lat="45.72496" lon="-1.20665">
        <ele>91.2</ele>
        <time>2020-01-26T12:09:15Z</time>
      </trkpt>
      <trkpt lat="45.72495" lon="-1.20664">
        <ele>90.6</ele>
        <time>2020-01-26T12:09:16Z</time>
      </trkpt>
      <trkpt lat="45.72495" lon="-1.20662">
        <ele>90.2</ele>
        <time>2020-01-26T12:09:17Z</time>
      </trkpt>
      <trkpt lat="45.72495" lon="-1.2066">
        <ele>89.8</ele>
        <time>2020-01-26T12:09:18Z</time>
      </trkpt>
      <trkpt lat="45.72495" lon="-1.20658">
        <ele>89.4</ele>
        <time>2020-01-26T12:09:19Z</time>
      </trkpt>
      <trkpt lat="45.72494" lon="-1.20656">
        <ele>88.8</ele>
        <time>2020-01-26T12:09:20Z</time>
      </trkpt>
      <trkpt lat="45.72493" lon="-1.20655">
        <ele>88.4</ele>
        <time>2020-01-26T12:09:21Z</time>
      </trkpt>
      <trkpt lat="45.72493" lon="-1.20655">
        <ele>88</ele>
        <time>2020-01-26T12:09:22Z</time>
      </trkpt>
      <trkpt lat="45.72493" lon="-1.20656">
        <ele>87.8</ele>
        <time>2020-01-26T12:09:23Z</time>
      </trkpt>
      <trkpt lat="45.72493" lon="-1.20655">
        <ele>87</ele>
        <time>2020-01-26T12:09:24Z</time>
      </trkpt>
      <trkpt lat="45.72493" lon="-1.20655">
        <ele>86.6</ele>
        <time>2020-01-26T12:09:25Z</time>
      </trkpt>
      <trkpt lat="45.72494" lon="-1.20655">
        <ele>86</ele>
        <time>2020-01-26T12:09:26Z</time>
      </trkpt>
      <trkpt lat="45.72494" lon="-1.20655">
        <ele>85.4</ele>
        <time>2020-01-26T12:09:27Z</time>
      </trkpt>
      <trkpt lat="45.72494" lon="-1.20655">
        <ele>85</ele>
        <time>2020-01-26T12:09:28Z</time>
      </trkpt>
      <trkpt lat="45.72495" lon="-1.20655">
        <ele>84.6</ele>
        <time>2020-01-26T12:09:29Z</time>
      </trkpt>
      <trkpt lat="45.72495" lon="-1.20655">
        <ele>84</ele>
        <time>2020-01-26T12:09:30Z</time>
      </trkpt>
      <trkpt lat="45.72495" lon="-1.20655">
        <ele>83.4</ele>
        <time>2020-01-26T12:09:31Z</time>
      </trkpt>
      <trkpt lat="45.72495" lon="-1.20656">
        <ele>83</ele>
        <time>2020-01-26T12:09:32Z</time>
      </trkpt>
      <trkpt lat="45.72495" lon="-1.20656">
        <ele>82.8</ele>
        <time>2020-01-26T12:09:33Z</time>
      </trkpt>
      <trkpt lat="45.72495" lon="-1.20656">
        <ele>82.6</ele>
        <time>2020-01-26T12:09:34Z</time>
      </trkpt>
      <trkpt lat="45.72496" lon="-1.20656">
        <ele>82.4</ele>
        <time>2020-01-26T12:09:35Z</time>
      </trkpt>
      <trkpt lat="45.72495" lon="-1.20655">
        <ele>82.4</ele>
        <time>2020-01-26T12:09:36Z</time>
      </trkpt>
      <trkpt lat="45.72494" lon="-1.20652">
        <ele>82.2</ele>
        <time>2020-01-26T12:09:37Z</time>
      </trkpt>
      <trkpt lat="45.72493" lon="-1.2065">
        <ele>82.2</ele>
        <time>2020-01-26T12:09:38Z</time>
      </trkpt>
      <trkpt lat="45.72493" lon="-1.20647">
        <ele>81.8</ele>
        <time>2020-01-26T12:09:39Z</time>
      </trkpt>
      <trkpt lat="45.72494" lon="-1.20644">
        <ele>81.6</ele>
        <time>2020-01-26T12:09:40Z</time>
      </trkpt>
      <trkpt lat="45.72494" lon="-1.20643">
        <ele>81.4</ele>
        <time>2020-01-26T12:09:41Z</time>
      </trkpt>
      <trkpt lat="45.72493" lon="-1.20638">
        <ele>81.4</ele>
        <time>2020-01-26T12:09:42Z</time>
      </trkpt>
      <trkpt lat="45.72494" lon="-1.20636">
        <ele>80.8</ele>
        <time>2020-01-26T12:09:43Z</time>
      </trkpt>
      <trkpt lat="45.72494" lon="-1.20634">
        <ele>80</ele>
        <time>2020-01-26T12:09:44Z</time>
      </trkpt>
      <trkpt lat="45.72494" lon="-1.20633">
        <ele>79.6</ele>
        <time>2020-01-26T12:09:45Z</time>
      </trkpt>
      <trkpt lat="45.72493" lon="-1.20629">
        <ele>79.2</ele>
        <time>2020-01-26T12:09:46Z</time>
      </trkpt>
      <trkpt lat="45.72493" lon="-1.20627">
        <ele>78.6</ele>
        <time>2020-01-26T12:09:47Z</time>
      </trkpt>
      <trkpt lat="45.72494" lon="-1.20626">
        <ele>78.2</ele>
        <time>2020-01-26T12:09:48Z</time>
      </trkpt>
      <trkpt lat="45.72495" lon="-1.20625">
        <ele>77.8</ele>
        <time>2020-01-26T12:09:49Z</time>
      </trkpt>
      <trkpt lat="45.72495" lon="-1.20623">
        <ele>77.2</ele>
        <time>2020-01-26T12:09:50Z</time>
      </trkpt>
      <trkpt lat="45.72495" lon="-1.2062">
        <ele>76.6</ele>
        <time>2020-01-26T12:09:51Z</time>
      </trkpt>
      <trkpt lat="45.72495" lon="-1.20614">
        <ele>76</ele>
        <time>2020-01-26T12:09:52Z</time>
      </trkpt>
      <trkpt lat="45.72495" lon="-1.2061">
        <ele>75.2</ele>
        <time>2020-01-26T12:09:53Z</time>
      </trkpt>
      <trkpt lat="45.72494" lon="-1.20598">
        <ele>74.8</ele>
        <time>2020-01-26T12:09:54Z</time>
      </trkpt>
      <trkpt lat="45.72492" lon="-1.20582">
        <ele>73.8</ele>
        <time>2020-01-26T12:09:55Z</time>
      </trkpt>
      <trkpt lat="45.72492" lon="-1.20567">
        <ele>72.6</ele>
        <time>2020-01-26T12:09:56Z</time>
      </trkpt>
      <trkpt lat="45.72492" lon="-1.20551">
        <ele>71.6</ele>
        <time>2020-01-26T12:09:57Z</time>
      </trkpt>
      <trkpt lat="45.72492" lon="-1.2054">
        <ele>70.8</ele>
        <time>2020-01-26T12:09:58Z</time>
      </trkpt>
      <trkpt lat="45.72491" lon="-1.20527">
        <ele>69.8</ele>
        <time>2020-01-26T12:09:59Z</time>
      </trkpt>
      <trkpt lat="45.7249" lon="-1.20515">
        <ele>69</ele>
        <time>2020-01-26T12:10:00Z</time>
      </trkpt>
      <trkpt lat="45.72492" lon="-1.2051">
        <ele>67.6</ele>
        <time>2020-01-26T12:10:01Z</time>
      </trkpt>
      <trkpt lat="45.72493" lon="-1.20499">
        <ele>66.2</ele>
        <time>2020-01-26T12:10:02Z</time>
      </trkpt>
      <trkpt lat="45.72494" lon="-1.20489">
        <ele>64.8</ele>
        <time>2020-01-26T12:10:03Z</time>
      </trkpt>
      <trkpt lat="45.72495" lon="-1.20479">
        <ele>63.8</ele>
        <time>2020-01-26T12:10:04Z</time>
      </trkpt>
      <trkpt lat="45.72494" lon="-1.20471">
        <ele>62.6</ele>
        <time>2020-01-26T12:10:05Z</time>
      </trkpt>
      <trkpt lat="45.72493" lon="-1.20462">
        <ele>62</ele>
        <time>2020-01-26T12:10:06Z</time>
      </trkpt>
      <trkpt lat="45.72491" lon="-1.20456">
        <ele>61.8</ele>
        <time>2020-01-26T12:10:07Z</time>
      </trkpt>
      <trkpt lat="45.72491" lon="-1.20451">
        <ele>61.8</ele>
        <time>2020-01-26T12:10:08Z</time>
      </trkpt>
      <trkpt lat="45.72491" lon="-1.20446">
        <ele>62.4</ele>
        <time>2020-01-26T12:10:09Z</time>
      </trkpt>
      <trkpt lat="45.72492" lon="-1.2044">
        <ele>63.2</ele>
        <time>2020-01-26T12:10:10Z</time>
      </trkpt>
      <trkpt lat="45.72494" lon="-1.20436">
        <ele>63</ele>
        <time>2020-01-26T12:10:11Z</time>
      </trkpt>
      <trkpt lat="45.72495" lon="-1.2043">
        <ele>62.2</ele>
        <time>2020-01-26T12:10:12Z</time>
      </trkpt>
      <trkpt lat="45.72496" lon="-1.20425">
        <ele>61.4</ele>
        <time>2020-01-26T12:10:13Z</time>
      </trkpt>
      <trkpt lat="45.72496" lon="-1.20417">
        <ele>61</ele>
        <time>2020-01-26T12:10:14Z</time>
      </trkpt>
      <trkpt lat="45.72495" lon="-1.20412">
        <ele>60.8</ele>
        <time>2020-01-26T12:10:15Z</time>
      </trkpt>
      <trkpt lat="45.72498" lon="-1.20406">
        <ele>61.2</ele>
        <time>2020-01-26T12:10:16Z</time>
      </trkpt>
      <trkpt lat="45.72498" lon="-1.204">
        <ele>61.4</ele>
        <time>2020-01-26T12:10:17Z</time>
      </trkpt>
      <trkpt lat="45.72497" lon="-1.20397">
        <ele>61.4</ele>
        <time>2020-01-26T12:10:18Z</time>
      </trkpt>
      <trkpt lat="45.72495" lon="-1.20391">
        <ele>61.4</ele>
        <time>2020-01-26T12:10:19Z</time>
      </trkpt>
      <trkpt lat="45.72493" lon="-1.20387">
        <ele>60.8</ele>
        <time>2020-01-26T12:10:20Z</time>
      </trkpt>
      <trkpt lat="45.72493" lon="-1.20381">
        <ele>60.6</ele>
        <time>2020-01-26T12:10:21Z</time>
      </trkpt>
      <trkpt lat="45.72495" lon="-1.20378">
        <ele>61</ele>
        <time>2020-01-26T12:10:22Z</time>
      </trkpt>
      <trkpt lat="45.72495" lon="-1.20374">
        <ele>61.8</ele>
        <time>2020-01-26T12:10:23Z</time>
      </trkpt>
      <trkpt lat="45.72495" lon="-1.2037">
        <ele>62</ele>
        <time>2020-01-26T12:10:24Z</time>
      </trkpt>
      <trkpt lat="45.72494" lon="-1.20367">
        <ele>62.4</ele>
        <time>2020-01-26T12:10:25Z</time>
      </trkpt>
      <trkpt lat="45.72492" lon="-1.20364">
        <ele>63.2</ele>
        <time>2020-01-26T12:10:26Z</time>
      </trkpt>
      <trkpt lat="45.72492" lon="-1.20362">
        <ele>64</ele>
        <time>2020-01-26T12:10:27Z</time>
      </trkpt>
      <trkpt lat="45.72492" lon="-1.20358">
        <ele>65</ele>
        <time>2020-01-26T12:10:28Z</time>
      </trkpt>
      <trkpt lat="45.72492" lon="-1.20355">
        <ele>65.8</ele>
        <time>2020-01-26T12:10:29Z</time>
      </trkpt>
      <trkpt lat="45.72491" lon="-1.20352">
        <ele>66</ele>
        <time>2020-01-26T12:10:30Z</time>
      </trkpt>
      <trkpt lat="45.7249" lon="-1.20349">
        <ele>66.6</ele>
        <time>2020-01-26T12:10:31Z</time>
      </trkpt>
      <trkpt lat="45.72488" lon="-1.20347">
        <ele>67</ele>
        <time>2020-01-26T12:10:32Z</time>
      </trkpt>
      <trkpt lat="45.72488" lon="-1.20345">
        <ele>67.2</ele>
        <time>2020-01-26T12:10:33Z</time>
      </trkpt>
      <trkpt lat="45.72484" lon="-1.20341">
        <ele>67.6</ele>
        <time>2020-01-26T12:10:34Z</time>
      </trkpt>
      <trkpt lat="45.72481" lon="-1.20337">
        <ele>68</ele>
        <time>2020-01-26T12:10:35Z</time>
      </trkpt>
      <trkpt lat="45.7248" lon="-1.20334">
        <ele>68.2</ele>
        <time>2020-01-26T12:10:36Z</time>
      </trkpt>
      <trkpt lat="45.72482" lon="-1.20332">
        <ele>69.2</ele>
        <time>2020-01-26T12:10:37Z</time>
      </trkpt>
      <trkpt lat="45.72483" lon="-1.20328">
        <ele>70</ele>
        <time>2020-01-26T12:10:38Z</time>
      </trkpt>
      <trkpt lat="45.72483" lon="-1.20326">
        <ele>70.6</ele>
        <time>2020-01-26T12:10:39Z</time>
      </trkpt>
      <trkpt lat="45.72486" lon="-1.20322">
        <ele>71.8</ele>
        <time>2020-01-26T12:10:40Z</time>
      </trkpt>
      <trkpt lat="45.72485" lon="-1.20319">
        <ele>73.2</ele>
        <time>2020-01-26T12:10:41Z</time>
      </trkpt>
      <trkpt lat="45.72485" lon="-1.20317">
        <ele>73.8</ele>
        <time>2020-01-26T12:10:42Z</time>
      </trkpt>
      <trkpt lat="45.72485" lon="-1.20315">
        <ele>74.6</ele>
        <time>2020-01-26T12:10:43Z</time>
      </trkpt>
      <trkpt lat="45.72484" lon="-1.20313">
        <ele>75.2</ele>
        <time>2020-01-26T12:10:44Z</time>
      </trkpt>
      <trkpt lat="45.72483" lon="-1.20311">
        <ele>75.6</ele>
        <time>2020-01-26T12:10:45Z</time>
      </trkpt>
      <trkpt lat="45.72484" lon="-1.20308">
        <ele>76</ele>
        <time>2020-01-26T12:10:46Z</time>
      </trkpt>
      <trkpt lat="45.72484" lon="-1.20306">
        <ele>76.2</ele>
        <time>2020-01-26T12:10:47Z</time>
      </trkpt>
      <trkpt lat="45.72483" lon="-1.20304">
        <ele>77</ele>
        <time>2020-01-26T12:10:48Z</time>
      </trkpt>
      <trkpt lat="45.72485" lon="-1.20301">
        <ele>77.2</ele>
        <time>2020-01-26T12:10:49Z</time>
      </trkpt>
      <trkpt lat="45.72485" lon="-1.20299">
        <ele>77.4</ele>
        <time>2020-01-26T12:10:50Z</time>
      </trkpt>
      <trkpt lat="45.72484" lon="-1.20297">
        <ele>77.6</ele>
        <time>2020-01-26T12:10:51Z</time>
      </trkpt>
      <trkpt lat="45.72484" lon="-1.20295">
        <ele>77.2</ele>
        <time>2020-01-26T12:10:52Z</time>
      </trkpt>
      <trkpt lat="45.72484" lon="-1.20294">
        <ele>76.6</ele>
        <time>2020-01-26T12:10:53Z</time>
      </trkpt>
      <trkpt lat="45.72481" lon="-1.20291">
        <ele>76.2</ele>
        <time>2020-01-26T12:10:54Z</time>
      </trkpt>
      <trkpt lat="45.7248" lon="-1.2029">
        <ele>75.6</ele>
        <time>2020-01-26T12:10:55Z</time>
      </trkpt>
      <trkpt lat="45.72482" lon="-1.20288">
        <ele>76</ele>
        <time>2020-01-26T12:10:56Z</time>
      </trkpt>
      <trkpt lat="45.72483" lon="-1.20286">
        <ele>76.4</ele>
        <time>2020-01-26T12:10:57Z</time>
      </trkpt>
      <trkpt lat="45.72482" lon="-1.20285">
        <ele>76.4</ele>
        <time>2020-01-26T12:10:58Z</time>
      </trkpt>
      <trkpt lat="45.72483" lon="-1.20283">
        <ele>76.8</ele>
        <time>2020-01-26T12:10:59Z</time>
      </trkpt>
      <trkpt lat="45.72483" lon="-1.20282">
        <ele>76.8</ele>
        <time>2020-01-26T12:11:00Z</time>
      </trkpt>
      <trkpt lat="45.72483" lon="-1.2028">
        <ele>77.2</ele>
        <time>2020-01-26T12:11:01Z</time>
      </trkpt>
      <trkpt lat="45.72483" lon="-1.20279">
        <ele>77.4</ele>
        <time>2020-01-26T12:11:02Z</time>
      </trkpt>
      <trkpt lat="45.72484" lon="-1.20278">
        <ele>77.8</ele>
        <time>2020-01-26T12:11:03Z</time>
      </trkpt>
      <trkpt lat="45.72484" lon="-1.20276">
        <ele>78.4</ele>
        <time>2020-01-26T12:11:04Z</time>
      </trkpt>
      <trkpt lat="45.72484" lon="-1.20275">
        <ele>78.2</ele>
        <time>2020-01-26T12:11:05Z</time>
      </trkpt>
      <trkpt lat="45.72485" lon="-1.20273">
        <ele>78.4</ele>
        <time>2020-01-26T12:11:06Z</time>
      </trkpt>
      <trkpt lat="45.72485" lon="-1.20271">
        <ele>78.6</ele>
        <time>2020-01-26T12:11:07Z</time>
      </trkpt>
      <trkpt lat="45.72484" lon="-1.20269">
        <ele>78.4</ele>
        <time>2020-01-26T12:11:08Z</time>
      </trkpt>
      <trkpt lat="45.72482" lon="-1.20267">
        <ele>78.6</ele>
        <time>2020-01-26T12:11:09Z</time>
      </trkpt>
      <trkpt lat="45.72481" lon="-1.20265">
        <ele>79</ele>
        <time>2020-01-26T12:11:10Z</time>
      </trkpt>
      <trkpt lat="45.7248" lon="-1.20264">
        <ele>79.2</ele>
        <time>2020-01-26T12:11:11Z</time>
      </trkpt>
      <trkpt lat="45.72482" lon="-1.20263">
        <ele>80</ele>
        <time>2020-01-26T12:11:12Z</time>
      </trkpt>
      <trkpt lat="45.72482" lon="-1.20262">
        <ele>80.6</ele>
        <time>2020-01-26T12:11:13Z</time>
      </trkpt>
      <trkpt lat="45.7248" lon="-1.2026">
        <ele>80.6</ele>
        <time>2020-01-26T12:11:14Z</time>
      </trkpt>
      <trkpt lat="45.72479" lon="-1.20257">
        <ele>80</ele>
        <time>2020-01-26T12:11:15Z</time>
      </trkpt>
      <trkpt lat="45.72478" lon="-1.20257">
        <ele>79.6</ele>
        <time>2020-01-26T12:11:16Z</time>
      </trkpt>
      <trkpt lat="45.7248" lon="-1.20256">
        <ele>79.4</ele>
        <time>2020-01-26T12:11:17Z</time>
      </trkpt>
      <trkpt lat="45.72481" lon="-1.20256">
        <ele>79.6</ele>
        <time>2020-01-26T12:11:18Z</time>
      </trkpt>
      <trkpt lat="45.72481" lon="-1.20256">
        <ele>79.6</ele>
        <time>2020-01-26T12:11:19Z</time>
      </trkpt>
      <trkpt lat="45.72483" lon="-1.20255">
        <ele>78.8</ele>
        <time>2020-01-26T12:11:20Z</time>
      </trkpt>
      <trkpt lat="45.72483" lon="-1.20255">
        <ele>78</ele>
        <time>2020-01-26T12:11:21Z</time>
      </trkpt>
      <trkpt lat="45.72483" lon="-1.20255">
        <ele>77.6</ele>
        <time>2020-01-26T12:11:22Z</time>
      </trkpt>
      <trkpt lat="45.72483" lon="-1.20254">
        <ele>77.4</ele>
        <time>2020-01-26T12:11:23Z</time>
      </trkpt>
      <trkpt lat="45.72483" lon="-1.20254">
        <ele>77.4</ele>
        <time>2020-01-26T12:11:24Z</time>
      </trkpt>
      <trkpt lat="45.72483" lon="-1.20254">
        <ele>77.2</ele>
        <time>2020-01-26T12:11:25Z</time>
      </trkpt>
      <trkpt lat="45.72484" lon="-1.20251">
        <ele>77.8</ele>
        <time>2020-01-26T12:11:26Z</time>
      </trkpt>
      <trkpt lat="45.72484" lon="-1.20249">
        <ele>78.2</ele>
        <time>2020-01-26T12:11:27Z</time>
      </trkpt>
      <trkpt lat="45.72484" lon="-1.20248">
        <ele>79</ele>
        <time>2020-01-26T12:11:28Z</time>
      </trkpt>
      <trkpt lat="45.72485" lon="-1.20246">
        <ele>79.2</ele>
        <time>2020-01-26T12:11:29Z</time>
      </trkpt>
      <trkpt lat="45.72484" lon="-1.20244">
        <ele>79.6</ele>
        <time>2020-01-26T12:11:30Z</time>
      </trkpt>
      <trkpt lat="45.72483" lon="-1.20243">
        <ele>80</ele>
        <time>2020-01-26T12:11:31Z</time>
      </trkpt>
      <trkpt lat="45.72483" lon="-1.20242">
        <ele>80</ele>
        <time>2020-01-26T12:11:32Z</time>
      </trkpt>
      <trkpt lat="45.72483" lon="-1.20239">
        <ele>79.2</ele>
        <time>2020-01-26T12:11:33Z</time>
      </trkpt>
      <trkpt lat="45.72483" lon="-1.20238">
        <ele>78.6</ele>
        <time>2020-01-26T12:11:34Z</time>
      </trkpt>
      <trkpt lat="45.72484" lon="-1.20236">
        <ele>78.4</ele>
        <time>2020-01-26T12:11:35Z</time>
      </trkpt>
      <trkpt lat="45.72483" lon="-1.20234">
        <ele>78.2</ele>
        <time>2020-01-26T12:11:36Z</time>
      </trkpt>
      <trkpt lat="45.72483" lon="-1.20233">
        <ele>77.8</ele>
        <time>2020-01-26T12:11:37Z</time>
      </trkpt>
      <trkpt lat="45.72482" lon="-1.20231">
        <ele>77.6</ele>
        <time>2020-01-26T12:11:38Z</time>
      </trkpt>
      <trkpt lat="45.7248" lon="-1.2023">
        <ele>77.4</ele>
        <time>2020-01-26T12:11:39Z</time>
      </trkpt>
      <trkpt lat="45.72481" lon="-1.20228">
        <ele>77.4</ele>
        <time>2020-01-26T12:11:40Z</time>
      </trkpt>
      <trkpt lat="45.72481" lon="-1.20226">
        <ele>77.2</ele>
        <time>2020-01-26T12:11:41Z</time>
      </trkpt>
      <trkpt lat="45.72481" lon="-1.20224">
        <ele>77.4</ele>
        <time>2020-01-26T12:11:42Z</time>
      </trkpt>
      <trkpt lat="45.72479" lon="-1.20223">
        <ele>77.8</ele>
        <time>2020-01-26T12:11:43Z</time>
      </trkpt>
      <trkpt lat="45.7248" lon="-1.20221">
        <ele>78.2</ele>
        <time>2020-01-26T12:11:44Z</time>
      </trkpt>
      <trkpt lat="45.7248" lon="-1.2022">
        <ele>78.4</ele>
        <time>2020-01-26T12:11:45Z</time>
      </trkpt>
      <trkpt lat="45.72481" lon="-1.20218">
        <ele>78.8</ele>
        <time>2020-01-26T12:11:46Z</time>
      </trkpt>
      <trkpt lat="45.72481" lon="-1.20217">
        <ele>79.2</ele>
        <time>2020-01-26T12:11:47Z</time>
      </trkpt>
      <trkpt lat="45.72482" lon="-1.20215">
        <ele>79.4</ele>
        <time>2020-01-26T12:11:48Z</time>
      </trkpt>
      <trkpt lat="45.72481" lon="-1.20213">
        <ele>79.8</ele>
        <time>2020-01-26T12:11:49Z</time>
      </trkpt>
      <trkpt lat="45.72481" lon="-1.2021">
        <ele>80.2</ele>
        <time>2020-01-26T12:11:50Z</time>
      </trkpt>
      <trkpt lat="45.72482" lon="-1.20208">
        <ele>80.6</ele>
        <time>2020-01-26T12:11:51Z</time>
      </trkpt>
      <trkpt lat="45.72482" lon="-1.20206">
        <ele>81.2</ele>
        <time>2020-01-26T12:11:52Z</time>
      </trkpt>
      <trkpt lat="45.72481" lon="-1.20204">
        <ele>81.6</ele>
        <time>2020-01-26T12:11:53Z</time>
      </trkpt>
      <trkpt lat="45.72479" lon="-1.20201">
        <ele>81.4</ele>
        <time>2020-01-26T12:11:54Z</time>
      </trkpt>
      <trkpt lat="45.72478" lon="-1.20199">
        <ele>81.2</ele>
        <time>2020-01-26T12:11:55Z</time>
      </trkpt>
      <trkpt lat="45.72477" lon="-1.20197">
        <ele>80.8</ele>
        <time>2020-01-26T12:11:56Z</time>
      </trkpt>
      <trkpt lat="45.72476" lon="-1.20196">
        <ele>79.8</ele>
        <time>2020-01-26T12:11:57Z</time>
      </trkpt>
      <trkpt lat="45.72479" lon="-1.20194">
        <ele>79.6</ele>
        <time>2020-01-26T12:11:58Z</time>
      </trkpt>
      <trkpt lat="45.7248" lon="-1.20193">
        <ele>79.8</ele>
        <time>2020-01-26T12:11:59Z</time>
      </trkpt>
      <trkpt lat="45.7248" lon="-1.20192">
        <ele>79.8</ele>
        <time>2020-01-26T12:12:00Z</time>
      </trkpt>
      <trkpt lat="45.7248" lon="-1.2019">
        <ele>79.8</ele>
        <time>2020-01-26T12:12:01Z</time>
      </trkpt>
      <trkpt lat="45.7248" lon="-1.20189">
        <ele>79.8</ele>
        <time>2020-01-26T12:12:02Z</time>
      </trkpt>
      <trkpt lat="45.72481" lon="-1.20187">
        <ele>80</ele>
        <time>2020-01-26T12:12:03Z</time>
      </trkpt>
      <trkpt lat="45.72483" lon="-1.20186">
        <ele>80.4</ele>
        <time>2020-01-26T12:12:04Z</time>
      </trkpt>
      <trkpt lat="45.72483" lon="-1.20184">
        <ele>81</ele>
        <time>2020-01-26T12:12:05Z</time>
      </trkpt>
      <trkpt lat="45.72485" lon="-1.20182">
        <ele>81.6</ele>
        <time>2020-01-26T12:12:06Z</time>
      </trkpt>
      <trkpt lat="45.72484" lon="-1.20179">
        <ele>82.2</ele>
        <time>2020-01-26T12:12:07Z</time>
      </trkpt>
      <trkpt lat="45.72484" lon="-1.20178">
        <ele>82.6</ele>
        <time>2020-01-26T12:12:08Z</time>
      </trkpt>
      <trkpt lat="45.72483" lon="-1.20177">
        <ele>83</ele>
        <time>2020-01-26T12:12:09Z</time>
      </trkpt>
      <trkpt lat="45.72483" lon="-1.20174">
        <ele>83</ele>
        <time>2020-01-26T12:12:10Z</time>
      </trkpt>
      <trkpt lat="45.72484" lon="-1.20172">
        <ele>82.8</ele>
        <time>2020-01-26T12:12:11Z</time>
      </trkpt>
      <trkpt lat="45.72484" lon="-1.2017">
        <ele>83.2</ele>
        <time>2020-01-26T12:12:12Z</time>
      </trkpt>
      <trkpt lat="45.72483" lon="-1.20168">
        <ele>83.6</ele>
        <time>2020-01-26T12:12:13Z</time>
      </trkpt>
      <trkpt lat="45.72483" lon="-1.20167">
        <ele>84</ele>
        <time>2020-01-26T12:12:14Z</time>
      </trkpt>
      <trkpt lat="45.72483" lon="-1.20166">
        <ele>84.2</ele>
        <time>2020-01-26T12:12:15Z</time>
      </trkpt>
      <trkpt lat="45.72485" lon="-1.20163">
        <ele>85</ele>
        <time>2020-01-26T12:12:16Z</time>
      </trkpt>
      <trkpt lat="45.72485" lon="-1.2016">
        <ele>85.6</ele>
        <time>2020-01-26T12:12:17Z</time>
      </trkpt>
      <trkpt lat="45.72484" lon="-1.20158">
        <ele>86.4</ele>
        <time>2020-01-26T12:12:18Z</time>
      </trkpt>
      <trkpt lat="45.72484" lon="-1.20156">
        <ele>87</ele>
        <time>2020-01-26T12:12:19Z</time>
      </trkpt>
      <trkpt lat="45.72485" lon="-1.20153">
        <ele>87.2</ele>
        <time>2020-01-26T12:12:20Z</time>
      </trkpt>
      <trkpt lat="45.72485" lon="-1.20151">
        <ele>87.4</ele>
        <time>2020-01-26T12:12:21Z</time>
      </trkpt>
      <trkpt lat="45.72485" lon="-1.20149">
        <ele>87.8</ele>
        <time>2020-01-26T12:12:22Z</time>
      </trkpt>
      <trkpt lat="45.72484" lon="-1.20147">
        <ele>88.2</ele>
        <time>2020-01-26T12:12:23Z</time>
      </trkpt>
      <trkpt lat="45.72483" lon="-1.20143">
        <ele>88.6</ele>
        <time>2020-01-26T12:12:24Z</time>
      </trkpt>
      <trkpt lat="45.72482" lon="-1.20142">
        <ele>88.6</ele>
        <time>2020-01-26T12:12:25Z</time>
      </trkpt>
      <trkpt lat="45.72482" lon="-1.20141">
        <ele>88.8</ele>
        <time>2020-01-26T12:12:26Z</time>
      </trkpt>
      <trkpt lat="45.72482" lon="-1.20139">
        <ele>88.8</ele>
        <time>2020-01-26T12:12:27Z</time>
      </trkpt>
      <trkpt lat="45.72482" lon="-1.20138">
        <ele>88.8</ele>
        <time>2020-01-26T12:12:28Z</time>
      </trkpt>
      <trkpt lat="45.72482" lon="-1.20137">
        <ele>88.8</ele>
        <time>2020-01-26T12:12:29Z</time>
      </trkpt>
      <trkpt lat="45.72482" lon="-1.20136">
        <ele>88.6</ele>
        <time>2020-01-26T12:12:30Z</time>
      </trkpt>
      <trkpt lat="45.72483" lon="-1.20134">
        <ele>89</ele>
        <time>2020-01-26T12:12:31Z</time>
      </trkpt>
      <trkpt lat="45.72483" lon="-1.20133">
        <ele>89.2</ele>
        <time>2020-01-26T12:12:32Z</time>
      </trkpt>
      <trkpt lat="45.72483" lon="-1.20129">
        <ele>89.4</ele>
        <time>2020-01-26T12:12:33Z</time>
      </trkpt>
      <trkpt lat="45.72482" lon="-1.20127">
        <ele>89.6</ele>
        <time>2020-01-26T12:12:34Z</time>
      </trkpt>
      <trkpt lat="45.72483" lon="-1.20124">
        <ele>90.4</ele>
        <time>2020-01-26T12:12:35Z</time>
      </trkpt>
      <trkpt lat="45.72482" lon="-1.20121">
        <ele>91.2</ele>
        <time>2020-01-26T12:12:36Z</time>
      </trkpt>
      <trkpt lat="45.72482" lon="-1.2012">
        <ele>91.8</ele>
        <time>2020-01-26T12:12:37Z</time>
      </trkpt>
      <trkpt lat="45.72481" lon="-1.20119">
        <ele>92.2</ele>
        <time>2020-01-26T12:12:38Z</time>
      </trkpt>
      <trkpt lat="45.72481" lon="-1.20117">
        <ele>92.6</ele>
        <time>2020-01-26T12:12:39Z</time>
      </trkpt>
      <trkpt lat="45.72481" lon="-1.20117">
        <ele>93.2</ele>
        <time>2020-01-26T12:12:40Z</time>
      </trkpt>
      <trkpt lat="45.72483" lon="-1.20116">
        <ele>93.2</ele>
        <time>2020-01-26T12:12:41Z</time>
      </trkpt>
      <trkpt lat="45.72484" lon="-1.20114">
        <ele>93</ele>
        <time>2020-01-26T12:12:42Z</time>
      </trkpt>
      <trkpt lat="45.72485" lon="-1.20111">
        <ele>92.8</ele>
        <time>2020-01-26T12:12:43Z</time>
      </trkpt>
      <trkpt lat="45.72485" lon="-1.2011">
        <ele>92.8</ele>
        <time>2020-01-26T12:12:44Z</time>
      </trkpt>
      <trkpt lat="45.72486" lon="-1.20109">
        <ele>93.2</ele>
        <time>2020-01-26T12:12:45Z</time>
      </trkpt>
      <trkpt lat="45.72485" lon="-1.20103">
        <ele>93.2</ele>
        <time>2020-01-26T12:12:46Z</time>
      </trkpt>
      <trkpt lat="45.72486" lon="-1.201">
        <ele>93.4</ele>
        <time>2020-01-26T12:12:47Z</time>
      </trkpt>
      <trkpt lat="45.72486" lon="-1.20098">
        <ele>93.4</ele>
        <time>2020-01-26T12:12:48Z</time>
      </trkpt>
      <trkpt lat="45.72486" lon="-1.20095">
        <ele>93.4</ele>
        <time>2020-01-26T12:12:49Z</time>
      </trkpt>
      <trkpt lat="45.72485" lon="-1.20093">
        <ele>93.2</ele>
        <time>2020-01-26T12:12:50Z</time>
      </trkpt>
      <trkpt lat="45.72483" lon="-1.20088">
        <ele>93</ele>
        <time>2020-01-26T12:12:51Z</time>
      </trkpt>
      <trkpt lat="45.72482" lon="-1.20085">
        <ele>92.6</ele>
        <time>2020-01-26T12:12:52Z</time>
      </trkpt>
      <trkpt lat="45.72482" lon="-1.20082">
        <ele>92.2</ele>
        <time>2020-01-26T12:12:53Z</time>
      </trkpt>
      <trkpt lat="45.72483" lon="-1.2008">
        <ele>91.6</ele>
        <time>2020-01-26T12:12:54Z</time>
      </trkpt>
      <trkpt lat="45.72483" lon="-1.20078">
        <ele>91.2</ele>
        <time>2020-01-26T12:12:55Z</time>
      </trkpt>
      <trkpt lat="45.72483" lon="-1.20075">
        <ele>91</ele>
        <time>2020-01-26T12:12:56Z</time>
      </trkpt>
      <trkpt lat="45.72483" lon="-1.2007">
        <ele>90.2</ele>
        <time>2020-01-26T12:12:57Z</time>
      </trkpt>
      <trkpt lat="45.72485" lon="-1.20066">
        <ele>90</ele>
        <time>2020-01-26T12:12:58Z</time>
      </trkpt>
      <trkpt lat="45.72485" lon="-1.20063">
        <ele>89.6</ele>
        <time>2020-01-26T12:12:59Z</time>
      </trkpt>
      <trkpt lat="45.72484" lon="-1.20059">
        <ele>89.2</ele>
        <time>2020-01-26T12:13:00Z</time>
      </trkpt>
      <trkpt lat="45.72484" lon="-1.20056">
        <ele>89</ele>
        <time>2020-01-26T12:13:01Z</time>
      </trkpt>
      <trkpt lat="45.72483" lon="-1.20053">
        <ele>88.8</ele>
        <time>2020-01-26T12:13:02Z</time>
      </trkpt>
      <trkpt lat="45.72482" lon="-1.20049">
        <ele>88.8</ele>
        <time>2020-01-26T12:13:03Z</time>
      </trkpt>
      <trkpt lat="45.72484" lon="-1.20046">
        <ele>88.6</ele>
        <time>2020-01-26T12:13:04Z</time>
      </trkpt>
      <trkpt lat="45.72484" lon="-1.2004">
        <ele>88.4</ele>
        <time>2020-01-26T12:13:05Z</time>
      </trkpt>
      <trkpt lat="45.72484" lon="-1.20034">
        <ele>88.6</ele>
        <time>2020-01-26T12:13:06Z</time>
      </trkpt>
      <trkpt lat="45.72483" lon="-1.2003">
        <ele>88.6</ele>
        <time>2020-01-26T12:13:07Z</time>
      </trkpt>
      <trkpt lat="45.72483" lon="-1.20025">
        <ele>88.4</ele>
        <time>2020-01-26T12:13:08Z</time>
      </trkpt>
      <trkpt lat="45.72482" lon="-1.20021">
        <ele>88.2</ele>
        <time>2020-01-26T12:13:09Z</time>
      </trkpt>
      <trkpt lat="45.72481" lon="-1.20015">
        <ele>87.8</ele>
        <time>2020-01-26T12:13:10Z</time>
      </trkpt>
      <trkpt lat="45.7248" lon="-1.2001">
        <ele>87.8</ele>
        <time>2020-01-26T12:13:11Z</time>
      </trkpt>
      <trkpt lat="45.7248" lon="-1.20005">
        <ele>88</ele>
        <time>2020-01-26T12:13:12Z</time>
      </trkpt>
      <trkpt lat="45.72478" lon="-1.19999">
        <ele>88.4</ele>
        <time>2020-01-26T12:13:13Z</time>
      </trkpt>
      <trkpt lat="45.72477" lon="-1.19995">
        <ele>88.6</ele>
        <time>2020-01-26T12:13:14Z</time>
      </trkpt>
      <trkpt lat="45.72478" lon="-1.19987">
        <ele>88.2</ele>
        <time>2020-01-26T12:13:15Z</time>
      </trkpt>
      <trkpt lat="45.72476" lon="-1.1998">
        <ele>87.6</ele>
        <time>2020-01-26T12:13:16Z</time>
      </trkpt>
      <trkpt lat="45.72472" lon="-1.19973">
        <ele>87</ele>
        <time>2020-01-26T12:13:17Z</time>
      </trkpt>
      <trkpt lat="45.72468" lon="-1.19966">
        <ele>86.2</ele>
        <time>2020-01-26T12:13:18Z</time>
      </trkpt>
      <trkpt lat="45.72466" lon="-1.19964">
        <ele>85.2</ele>
        <time>2020-01-26T12:13:19Z</time>
      </trkpt>
      <trkpt lat="45.72462" lon="-1.19961">
        <ele>84.6</ele>
        <time>2020-01-26T12:13:20Z</time>
      </trkpt>
      <trkpt lat="45.72459" lon="-1.1996">
        <ele>84.4</ele>
        <time>2020-01-26T12:13:21Z</time>
      </trkpt>
      <trkpt lat="45.72455" lon="-1.1996">
        <ele>84.4</ele>
        <time>2020-01-26T12:13:22Z</time>
      </trkpt>
      <trkpt lat="45.72452" lon="-1.1996">
        <ele>84.6</ele>
        <time>2020-01-26T12:13:23Z</time>
      </trkpt>
      <trkpt lat="45.72449" lon="-1.19961">
        <ele>84.4</ele>
        <time>2020-01-26T12:13:24Z</time>
      </trkpt>
      <trkpt lat="45.72446" lon="-1.19964">
        <ele>84</ele>
        <time>2020-01-26T12:13:25Z</time>
      </trkpt>
      <trkpt lat="45.72443" lon="-1.19964">
        <ele>83.8</ele>
        <time>2020-01-26T12:13:26Z</time>
      </trkpt>
      <trkpt lat="45.7244" lon="-1.19965">
        <ele>83.6</ele>
        <time>2020-01-26T12:13:27Z</time>
      </trkpt>
      <trkpt lat="45.72435" lon="-1.19968">
        <ele>83.4</ele>
        <time>2020-01-26T12:13:28Z</time>
      </trkpt>
      <trkpt lat="45.7243" lon="-1.19967">
        <ele>83.4</ele>
        <time>2020-01-26T12:13:29Z</time>
      </trkpt>
      <trkpt lat="45.72426" lon="-1.19968">
        <ele>83</ele>
        <time>2020-01-26T12:13:30Z</time>
      </trkpt>
      <trkpt lat="45.72421" lon="-1.1997">
        <ele>81.6</ele>
        <time>2020-01-26T12:13:31Z</time>
      </trkpt>
      <trkpt lat="45.72416" lon="-1.19971">
        <ele>80.6</ele>
        <time>2020-01-26T12:13:32Z</time>
      </trkpt>
      <trkpt lat="45.7241" lon="-1.19971">
        <ele>79.6</ele>
        <time>2020-01-26T12:13:33Z</time>
      </trkpt>
      <trkpt lat="45.72404" lon="-1.19971">
        <ele>78.8</ele>
        <time>2020-01-26T12:13:34Z</time>
      </trkpt>
      <trkpt lat="45.72398" lon="-1.19973">
        <ele>78</ele>
        <time>2020-01-26T12:13:35Z</time>
      </trkpt>
      <trkpt lat="45.72391" lon="-1.19974">
        <ele>77.6</ele>
        <time>2020-01-26T12:13:36Z</time>
      </trkpt>
      <trkpt lat="45.72384" lon="-1.19971">
        <ele>77.4</ele>
        <time>2020-01-26T12:13:37Z</time>
      </trkpt>
      <trkpt lat="45.72377" lon="-1.1997">
        <ele>77.6</ele>
        <time>2020-01-26T12:13:38Z</time>
      </trkpt>
      <trkpt lat="45.7237" lon="-1.1997">
        <ele>77.6</ele>
        <time>2020-01-26T12:13:39Z</time>
      </trkpt>
      <trkpt lat="45.72364" lon="-1.1997">
        <ele>78</ele>
        <time>2020-01-26T12:13:40Z</time>
      </trkpt>
      <trkpt lat="45.72359" lon="-1.1997">
        <ele>78.6</ele>
        <time>2020-01-26T12:13:41Z</time>
      </trkpt>
      <trkpt lat="45.72356" lon="-1.19972">
        <ele>78.6</ele>
        <time>2020-01-26T12:13:42Z</time>
      </trkpt>
      <trkpt lat="45.72352" lon="-1.19974">
        <ele>78.8</ele>
        <time>2020-01-26T12:13:43Z</time>
      </trkpt>
      <trkpt lat="45.72349" lon="-1.19974">
        <ele>78.8</ele>
        <time>2020-01-26T12:13:44Z</time>
      </trkpt>
      <trkpt lat="45.72346" lon="-1.19973">
        <ele>78.4</ele>
        <time>2020-01-26T12:13:45Z</time>
      </trkpt>
      <trkpt lat="45.72343" lon="-1.19973">
        <ele>78.2</ele>
        <time>2020-01-26T12:13:46Z</time>
      </trkpt>
      <trkpt lat="45.7234" lon="-1.19973">
        <ele>78.2</ele>
        <time>2020-01-26T12:13:47Z</time>
      </trkpt>
      <trkpt lat="45.72337" lon="-1.19972">
        <ele>78.2</ele>
        <time>2020-01-26T12:13:48Z</time>
      </trkpt>
      <trkpt lat="45.72335" lon="-1.19969">
        <ele>77.8</ele>
        <time>2020-01-26T12:13:49Z</time>
      </trkpt>
      <trkpt lat="45.72332" lon="-1.19969">
        <ele>77.8</ele>
        <time>2020-01-26T12:13:50Z</time>
      </trkpt>
      <trkpt lat="45.7233" lon="-1.1997">
        <ele>77.4</ele>
        <time>2020-01-26T12:13:51Z</time>
      </trkpt>
      <trkpt lat="45.72328" lon="-1.19969">
        <ele>76.8</ele>
        <time>2020-01-26T12:13:52Z</time>
      </trkpt>
      <trkpt lat="45.72325" lon="-1.19967">
        <ele>76.4</ele>
        <time>2020-01-26T12:13:53Z</time>
      </trkpt>
      <trkpt lat="45.72322" lon="-1.19968">
        <ele>76</ele>
        <time>2020-01-26T12:13:54Z</time>
      </trkpt>
      <trkpt lat="45.7232" lon="-1.19969">
        <ele>75.8</ele>
        <time>2020-01-26T12:13:55Z</time>
      </trkpt>
      <trkpt lat="45.72318" lon="-1.1997">
        <ele>75.6</ele>
        <time>2020-01-26T12:13:56Z</time>
      </trkpt>
      <trkpt lat="45.72316" lon="-1.19971">
        <ele>75.4</ele>
        <time>2020-01-26T12:13:57Z</time>
      </trkpt>
      <trkpt lat="45.72312" lon="-1.19972">
        <ele>75.8</ele>
        <time>2020-01-26T12:13:58Z</time>
      </trkpt>
      <trkpt lat="45.72309" lon="-1.19973">
        <ele>75.8</ele>
        <time>2020-01-26T12:13:59Z</time>
      </trkpt>
      <trkpt lat="45.72308" lon="-1.19975">
        <ele>75.6</ele>
        <time>2020-01-26T12:14:00Z</time>
      </trkpt>
      <trkpt lat="45.72306" lon="-1.19978">
        <ele>76</ele>
        <time>2020-01-26T12:14:01Z</time>
      </trkpt>
      <trkpt lat="45.72305" lon="-1.1998">
        <ele>76.2</ele>
        <time>2020-01-26T12:14:02Z</time>
      </trkpt>
      <trkpt lat="45.72305" lon="-1.19982">
        <ele>76.4</ele>
        <time>2020-01-26T12:14:03Z</time>
      </trkpt>
      <trkpt lat="45.72303" lon="-1.19985">
        <ele>77.2</ele>
        <time>2020-01-26T12:14:04Z</time>
      </trkpt>
      <trkpt lat="45.72304" lon="-1.19989">
        <ele>77.6</ele>
        <time>2020-01-26T12:14:05Z</time>
      </trkpt>
      <trkpt lat="45.72303" lon="-1.19992">
        <ele>78.4</ele>
        <time>2020-01-26T12:14:06Z</time>
      </trkpt>
      <trkpt lat="45.72303" lon="-1.19994">
        <ele>79.4</ele>
        <time>2020-01-26T12:14:07Z</time>
      </trkpt>
      <trkpt lat="45.72306" lon="-1.19998">
        <ele>80</ele>
        <time>2020-01-26T12:14:08Z</time>
      </trkpt>
      <trkpt lat="45.72307" lon="-1.20002">
        <ele>80.2</ele>
        <time>2020-01-26T12:14:09Z</time>
      </trkpt>
      <trkpt lat="45.72308" lon="-1.20005">
        <ele>80.4</ele>
        <time>2020-01-26T12:14:10Z</time>
      </trkpt>
      <trkpt lat="45.72313" lon="-1.20005">
        <ele>80.4</ele>
        <time>2020-01-26T12:14:11Z</time>
      </trkpt>
      <trkpt lat="45.72315" lon="-1.20007">
        <ele>80.6</ele>
        <time>2020-01-26T12:14:12Z</time>
      </trkpt>
      <trkpt lat="45.72318" lon="-1.2001">
        <ele>80.8</ele>
        <time>2020-01-26T12:14:13Z</time>
      </trkpt>
      <trkpt lat="45.72321" lon="-1.20013">
        <ele>81.2</ele>
        <time>2020-01-26T12:14:14Z</time>
      </trkpt>
      <trkpt lat="45.72324" lon="-1.20016">
        <ele>81.4</ele>
        <time>2020-01-26T12:14:15Z</time>
      </trkpt>
      <trkpt lat="45.72327" lon="-1.20018">
        <ele>81.8</ele>
        <time>2020-01-26T12:14:16Z</time>
      </trkpt>
      <trkpt lat="45.72332" lon="-1.20022">
        <ele>81.8</ele>
        <time>2020-01-26T12:14:17Z</time>
      </trkpt>
      <trkpt lat="45.72335" lon="-1.20024">
        <ele>82.2</ele>
        <time>2020-01-26T12:14:18Z</time>
      </trkpt>
      <trkpt lat="45.72337" lon="-1.20028">
        <ele>82.6</ele>
        <time>2020-01-26T12:14:19Z</time>
      </trkpt>
      <trkpt lat="45.72342" lon="-1.20033">
        <ele>82.6</ele>
        <time>2020-01-26T12:14:20Z</time>
      </trkpt>
      <trkpt lat="45.72347" lon="-1.20037">
        <ele>82.8</ele>
        <time>2020-01-26T12:14:21Z</time>
      </trkpt>
      <trkpt lat="45.72351" lon="-1.20041">
        <ele>82.8</ele>
        <time>2020-01-26T12:14:22Z</time>
      </trkpt>
      <trkpt lat="45.72356" lon="-1.20045">
        <ele>83.4</ele>
        <time>2020-01-26T12:14:23Z</time>
      </trkpt>
      <trkpt lat="45.72361" lon="-1.2005">
        <ele>83.8</ele>
        <time>2020-01-26T12:14:24Z</time>
      </trkpt>
      <trkpt lat="45.72366" lon="-1.20054">
        <ele>84.6</ele>
        <time>2020-01-26T12:14:25Z</time>
      </trkpt>
      <trkpt lat="45.72371" lon="-1.2006">
        <ele>85.4</ele>
        <time>2020-01-26T12:14:26Z</time>
      </trkpt>
      <trkpt lat="45.72374" lon="-1.20065">
        <ele>85.8</ele>
        <time>2020-01-26T12:14:27Z</time>
      </trkpt>
      <trkpt lat="45.72374" lon="-1.20075">
        <ele>85.8</ele>
        <time>2020-01-26T12:14:28Z</time>
      </trkpt>
      <trkpt lat="45.72375" lon="-1.20083">
        <ele>85.8</ele>
        <time>2020-01-26T12:14:29Z</time>
      </trkpt>
      <trkpt lat="45.72376" lon="-1.20091">
        <ele>85.4</ele>
        <time>2020-01-26T12:14:30Z</time>
      </trkpt>
      <trkpt lat="45.72375" lon="-1.20098">
        <ele>85</ele>
        <time>2020-01-26T12:14:31Z</time>
      </trkpt>
      <trkpt lat="45.72376" lon="-1.20106">
        <ele>84</ele>
        <time>2020-01-26T12:14:32Z</time>
      </trkpt>
      <trkpt lat="45.72378" lon="-1.20113">
        <ele>82.8</ele>
        <time>2020-01-26T12:14:33Z</time>
      </trkpt>
      <trkpt lat="45.72379" lon="-1.20118">
        <ele>81.6</ele>
        <time>2020-01-26T12:14:34Z</time>
      </trkpt>
      <trkpt lat="45.7238" lon="-1.20124">
        <ele>80.4</ele>
        <time>2020-01-26T12:14:35Z</time>
      </trkpt>
      <trkpt lat="45.72375" lon="-1.20133">
        <ele>79.4</ele>
        <time>2020-01-26T12:14:36Z</time>
      </trkpt>
      <trkpt lat="45.72376" lon="-1.20141">
        <ele>78.8</ele>
        <time>2020-01-26T12:14:37Z</time>
      </trkpt>
      <trkpt lat="45.72379" lon="-1.20149">
        <ele>78.6</ele>
        <time>2020-01-26T12:14:38Z</time>
      </trkpt>
      <trkpt lat="45.72382" lon="-1.20156">
        <ele>79</ele>
        <time>2020-01-26T12:14:39Z</time>
      </trkpt>
      <trkpt lat="45.7238" lon="-1.20167">
        <ele>79</ele>
        <time>2020-01-26T12:14:40Z</time>
      </trkpt>
      <trkpt lat="45.72382" lon="-1.20179">
        <ele>78.8</ele>
        <time>2020-01-26T12:14:41Z</time>
      </trkpt>
      <trkpt lat="45.72384" lon="-1.20189">
        <ele>78.8</ele>
        <time>2020-01-26T12:14:42Z</time>
      </trkpt>
      <trkpt lat="45.72383" lon="-1.20199">
        <ele>78.8</ele>
        <time>2020-01-26T12:14:43Z</time>
      </trkpt>
      <trkpt lat="45.72383" lon="-1.20206">
        <ele>78.4</ele>
        <time>2020-01-26T12:14:44Z</time>
      </trkpt>
      <trkpt lat="45.72382" lon="-1.20214">
        <ele>78</ele>
        <time>2020-01-26T12:14:45Z</time>
      </trkpt>
      <trkpt lat="45.72382" lon="-1.20223">
        <ele>77.2</ele>
        <time>2020-01-26T12:14:46Z</time>
      </trkpt>
      <trkpt lat="45.72383" lon="-1.2023">
        <ele>76.6</ele>
        <time>2020-01-26T12:14:47Z</time>
      </trkpt>
      <trkpt lat="45.72383" lon="-1.20236">
        <ele>76.2</ele>
        <time>2020-01-26T12:14:48Z</time>
      </trkpt>
      <trkpt lat="45.72383" lon="-1.20241">
        <ele>76</ele>
        <time>2020-01-26T12:14:49Z</time>
      </trkpt>
      <trkpt lat="45.72383" lon="-1.20246">
        <ele>75.4</ele>
        <time>2020-01-26T12:14:50Z</time>
      </trkpt>
      <trkpt lat="45.72385" lon="-1.20253">
        <ele>75.6</ele>
        <time>2020-01-26T12:14:51Z</time>
      </trkpt>
      <trkpt lat="45.72384" lon="-1.2026">
        <ele>76.8</ele>
        <time>2020-01-26T12:14:52Z</time>
      </trkpt>
      <trkpt lat="45.72386" lon="-1.20267">
        <ele>77</ele>
        <time>2020-01-26T12:14:53Z</time>
      </trkpt>
      <trkpt lat="45.72387" lon="-1.20273">
        <ele>77.6</ele>
        <time>2020-01-26T12:14:54Z</time>
      </trkpt>
      <trkpt lat="45.72387" lon="-1.20278">
        <ele>77.8</ele>
        <time>2020-01-26T12:14:55Z</time>
      </trkpt>
      <trkpt lat="45.72391" lon="-1.20286">
        <ele>77.8</ele>
        <time>2020-01-26T12:14:56Z</time>
      </trkpt>
      <trkpt lat="45.72396" lon="-1.20295">
        <ele>77.4</ele>
        <time>2020-01-26T12:14:57Z</time>
      </trkpt>
      <trkpt lat="45.72398" lon="-1.20302">
        <ele>76.8</ele>
        <time>2020-01-26T12:14:58Z</time>
      </trkpt>
      <trkpt lat="45.724" lon="-1.20307">
        <ele>76.2</ele>
        <time>2020-01-26T12:14:59Z</time>
      </trkpt>
      <trkpt lat="45.72399" lon="-1.20312">
        <ele>76.4</ele>
        <time>2020-01-26T12:15:00Z</time>
      </trkpt>
      <trkpt lat="45.72402" lon="-1.20317">
        <ele>76.2</ele>
        <time>2020-01-26T12:15:01Z</time>
      </trkpt>
      <trkpt lat="45.72403" lon="-1.20322">
        <ele>76.4</ele>
        <time>2020-01-26T12:15:02Z</time>
      </trkpt>
      <trkpt lat="45.72404" lon="-1.20326">
        <ele>76.6</ele>
        <time>2020-01-26T12:15:03Z</time>
      </trkpt>
      <trkpt lat="45.72405" lon="-1.20331">
        <ele>76.6</ele>
        <time>2020-01-26T12:15:04Z</time>
      </trkpt>
      <trkpt lat="45.72405" lon="-1.20338">
        <ele>76.6</ele>
        <time>2020-01-26T12:15:05Z</time>
      </trkpt>
      <trkpt lat="45.72406" lon="-1.20347">
        <ele>76.6</ele>
        <time>2020-01-26T12:15:06Z</time>
      </trkpt>
      <trkpt lat="45.72411" lon="-1.20356">
        <ele>76.6</ele>
        <time>2020-01-26T12:15:07Z</time>
      </trkpt>
      <trkpt lat="45.72413" lon="-1.20362">
        <ele>77.2</ele>
        <time>2020-01-26T12:15:08Z</time>
      </trkpt>
      <trkpt lat="45.72415" lon="-1.20368">
        <ele>77.6</ele>
        <time>2020-01-26T12:15:09Z</time>
      </trkpt>
      <trkpt lat="45.72416" lon="-1.20375">
        <ele>78</ele>
        <time>2020-01-26T12:15:10Z</time>
      </trkpt>
      <trkpt lat="45.7242" lon="-1.20384">
        <ele>78.2</ele>
        <time>2020-01-26T12:15:11Z</time>
      </trkpt>
      <trkpt lat="45.72421" lon="-1.2039">
        <ele>78.2</ele>
        <time>2020-01-26T12:15:12Z</time>
      </trkpt>
      <trkpt lat="45.72422" lon="-1.20396">
        <ele>78.4</ele>
        <time>2020-01-26T12:15:13Z</time>
      </trkpt>
      <trkpt lat="45.72424" lon="-1.20401">
        <ele>78.2</ele>
        <time>2020-01-26T12:15:14Z</time>
      </trkpt>
      <trkpt lat="45.72425" lon="-1.20406">
        <ele>78</ele>
        <time>2020-01-26T12:15:15Z</time>
      </trkpt>
      <trkpt lat="45.7243" lon="-1.20415">
        <ele>78</ele>
        <time>2020-01-26T12:15:16Z</time>
      </trkpt>
      <trkpt lat="45.72431" lon="-1.20423">
        <ele>78</ele>
        <time>2020-01-26T12:15:17Z</time>
      </trkpt>
      <trkpt lat="45.72432" lon="-1.20427">
        <ele>78</ele>
        <time>2020-01-26T12:15:18Z</time>
      </trkpt>
      <trkpt lat="45.72432" lon="-1.20433">
        <ele>78</ele>
        <time>2020-01-26T12:15:19Z</time>
      </trkpt>
      <trkpt lat="45.7243" lon="-1.20437">
        <ele>78</ele>
        <time>2020-01-26T12:15:20Z</time>
      </trkpt>
      <trkpt lat="45.72428" lon="-1.20438">
        <ele>77.8</ele>
        <time>2020-01-26T12:15:21Z</time>
      </trkpt>
      <trkpt lat="45.72424" lon="-1.20438">
        <ele>77.2</ele>
        <time>2020-01-26T12:15:22Z</time>
      </trkpt>
      <trkpt lat="45.72419" lon="-1.20434">
        <ele>77</ele>
        <time>2020-01-26T12:15:23Z</time>
      </trkpt>
      <trkpt lat="45.72412" lon="-1.20432">
        <ele>76.6</ele>
        <time>2020-01-26T12:15:24Z</time>
      </trkpt>
      <trkpt lat="45.72408" lon="-1.20433">
        <ele>75.8</ele>
        <time>2020-01-26T12:15:25Z</time>
      </trkpt>
      <trkpt lat="45.72403" lon="-1.2043">
        <ele>75</ele>
        <time>2020-01-26T12:15:26Z</time>
      </trkpt>
      <trkpt lat="45.72398" lon="-1.20427">
        <ele>74.4</ele>
        <time>2020-01-26T12:15:27Z</time>
      </trkpt>
      <trkpt lat="45.72386" lon="-1.20422">
        <ele>74.6</ele>
        <time>2020-01-26T12:15:28Z</time>
      </trkpt>
      <trkpt lat="45.72379" lon="-1.20419">
        <ele>74.8</ele>
        <time>2020-01-26T12:15:29Z</time>
      </trkpt>
      <trkpt lat="45.72371" lon="-1.20415">
        <ele>75.2</ele>
        <time>2020-01-26T12:15:30Z</time>
      </trkpt>
      <trkpt lat="45.72363" lon="-1.20413">
        <ele>75.6</ele>
        <time>2020-01-26T12:15:31Z</time>
      </trkpt>
      <trkpt lat="45.72357" lon="-1.20412">
        <ele>75.8</ele>
        <time>2020-01-26T12:15:32Z</time>
      </trkpt>
      <trkpt lat="45.72352" lon="-1.2041">
        <ele>75.8</ele>
        <time>2020-01-26T12:15:33Z</time>
      </trkpt>
      <trkpt lat="45.72344" lon="-1.20407">
        <ele>75.8</ele>
        <time>2020-01-26T12:15:34Z</time>
      </trkpt>
      <trkpt lat="45.72338" lon="-1.20404">
        <ele>75.8</ele>
        <time>2020-01-26T12:15:35Z</time>
      </trkpt>
      <trkpt lat="45.72334" lon="-1.20397">
        <ele>75.8</ele>
        <time>2020-01-26T12:15:36Z</time>
      </trkpt>
      <trkpt lat="45.72327" lon="-1.20393">
        <ele>75.6</ele>
        <time>2020-01-26T12:15:37Z</time>
      </trkpt>
      <trkpt lat="45.72322" lon="-1.20388">
        <ele>75.6</ele>
        <time>2020-01-26T12:15:38Z</time>
      </trkpt>
      <trkpt lat="45.72316" lon="-1.20383">
        <ele>75.4</ele>
        <time>2020-01-26T12:15:39Z</time>
      </trkpt>
      <trkpt lat="45.72311" lon="-1.20374">
        <ele>75</ele>
        <time>2020-01-26T12:15:40Z</time>
      </trkpt>
      <trkpt lat="45.72305" lon="-1.20369">
        <ele>74.2</ele>
        <time>2020-01-26T12:15:41Z</time>
      </trkpt>
      <trkpt lat="45.72301" lon="-1.20367">
        <ele>73.4</ele>
        <time>2020-01-26T12:15:42Z</time>
      </trkpt>
      <trkpt lat="45.72295" lon="-1.20364">
        <ele>72.8</ele>
        <time>2020-01-26T12:15:43Z</time>
      </trkpt>
      <trkpt lat="45.7229" lon="-1.20362">
        <ele>72.4</ele>
        <time>2020-01-26T12:15:44Z</time>
      </trkpt>
      <trkpt lat="45.72285" lon="-1.20359">
        <ele>72</ele>
        <time>2020-01-26T12:15:45Z</time>
      </trkpt>
      <trkpt lat="45.72282" lon="-1.20363">
        <ele>72</ele>
        <time>2020-01-26T12:15:46Z</time>
      </trkpt>
      <trkpt lat="45.72277" lon="-1.20363">
        <ele>72.6</ele>
        <time>2020-01-26T12:15:47Z</time>
      </trkpt>
      <trkpt lat="45.72273" lon="-1.20362">
        <ele>72.6</ele>
        <time>2020-01-26T12:15:48Z</time>
      </trkpt>
      <trkpt lat="45.72269" lon="-1.20362">
        <ele>72.8</ele>
        <time>2020-01-26T12:15:49Z</time>
      </trkpt>
      <trkpt lat="45.72265" lon="-1.20361">
        <ele>72.8</ele>
        <time>2020-01-26T12:15:50Z</time>
      </trkpt>
      <trkpt lat="45.72262" lon="-1.20361">
        <ele>72.8</ele>
        <time>2020-01-26T12:15:51Z</time>
      </trkpt>
      <trkpt lat="45.72259" lon="-1.2036">
        <ele>72.8</ele>
        <time>2020-01-26T12:15:52Z</time>
      </trkpt>
      <trkpt lat="45.72255" lon="-1.20357">
        <ele>73</ele>
        <time>2020-01-26T12:15:53Z</time>
      </trkpt>
      <trkpt lat="45.7225" lon="-1.20354">
        <ele>73.2</ele>
        <time>2020-01-26T12:15:54Z</time>
      </trkpt>
      <trkpt lat="45.72246" lon="-1.20351">
        <ele>73.6</ele>
        <time>2020-01-26T12:15:55Z</time>
      </trkpt>
      <trkpt lat="45.72242" lon="-1.20351">
        <ele>74</ele>
        <time>2020-01-26T12:15:56Z</time>
      </trkpt>
      <trkpt lat="45.72236" lon="-1.20351">
        <ele>74</ele>
        <time>2020-01-26T12:15:57Z</time>
      </trkpt>
      <trkpt lat="45.72231" lon="-1.20351">
        <ele>74.2</ele>
        <time>2020-01-26T12:15:58Z</time>
      </trkpt>
      <trkpt lat="45.72226" lon="-1.2035">
        <ele>74.2</ele>
        <time>2020-01-26T12:15:59Z</time>
      </trkpt>
      <trkpt lat="45.72223" lon="-1.20354">
        <ele>74.2</ele>
        <time>2020-01-26T12:16:00Z</time>
      </trkpt>
      <trkpt lat="45.72218" lon="-1.2036">
        <ele>74</ele>
        <time>2020-01-26T12:16:01Z</time>
      </trkpt>
      <trkpt lat="45.72213" lon="-1.20365">
        <ele>73.8</ele>
        <time>2020-01-26T12:16:02Z</time>
      </trkpt>
      <trkpt lat="45.72206" lon="-1.20368">
        <ele>73.6</ele>
        <time>2020-01-26T12:16:03Z</time>
      </trkpt>
      <trkpt lat="45.722" lon="-1.20371">
        <ele>73.4</ele>
        <time>2020-01-26T12:16:04Z</time>
      </trkpt>
      <trkpt lat="45.72198" lon="-1.20377">
        <ele>72.6</ele>
        <time>2020-01-26T12:16:05Z</time>
      </trkpt>
      <trkpt lat="45.72194" lon="-1.20383">
        <ele>72</ele>
        <time>2020-01-26T12:16:06Z</time>
      </trkpt>
      <trkpt lat="45.7219" lon="-1.2039">
        <ele>71.2</ele>
        <time>2020-01-26T12:16:07Z</time>
      </trkpt>
      <trkpt lat="45.72186" lon="-1.20398">
        <ele>70.6</ele>
        <time>2020-01-26T12:16:08Z</time>
      </trkpt>
      <trkpt lat="45.72181" lon="-1.20404">
        <ele>70.2</ele>
        <time>2020-01-26T12:16:09Z</time>
      </trkpt>
      <trkpt lat="45.72175" lon="-1.20406">
        <ele>69.6</ele>
        <time>2020-01-26T12:16:10Z</time>
      </trkpt>
      <trkpt lat="45.72169" lon="-1.20407">
        <ele>69</ele>
        <time>2020-01-26T12:16:11Z</time>
      </trkpt>
      <trkpt lat="45.72162" lon="-1.2041">
        <ele>68.4</ele>
        <time>2020-01-26T12:16:12Z</time>
      </trkpt>
      <trkpt lat="45.72157" lon="-1.20417">
        <ele>67.6</ele>
        <time>2020-01-26T12:16:13Z</time>
      </trkpt>
      <trkpt lat="45.72153" lon="-1.20419">
        <ele>67</ele>
        <time>2020-01-26T12:16:14Z</time>
      </trkpt>
      <trkpt lat="45.72148" lon="-1.2042">
        <ele>66.2</ele>
        <time>2020-01-26T12:16:15Z</time>
      </trkpt>
      <trkpt lat="45.72141" lon="-1.2042">
        <ele>66</ele>
        <time>2020-01-26T12:16:16Z</time>
      </trkpt>
      <trkpt lat="45.72136" lon="-1.20421">
        <ele>65.4</ele>
        <time>2020-01-26T12:16:17Z</time>
      </trkpt>
      <trkpt lat="45.7213" lon="-1.20418">
        <ele>65</ele>
        <time>2020-01-26T12:16:18Z</time>
      </trkpt>
      <trkpt lat="45.72125" lon="-1.20415">
        <ele>64.6</ele>
        <time>2020-01-26T12:16:19Z</time>
      </trkpt>
      <trkpt lat="45.7212" lon="-1.20412">
        <ele>64.2</ele>
        <time>2020-01-26T12:16:20Z</time>
      </trkpt>
      <trkpt lat="45.72114" lon="-1.20407">
        <ele>63.2</ele>
        <time>2020-01-26T12:16:21Z</time>
      </trkpt>
      <trkpt lat="45.72108" lon="-1.2041">
        <ele>62</ele>
        <time>2020-01-26T12:16:22Z</time>
      </trkpt>
      <trkpt lat="45.72101" lon="-1.20408">
        <ele>61</ele>
        <time>2020-01-26T12:16:23Z</time>
      </trkpt>
      <trkpt lat="45.72088" lon="-1.20406">
        <ele>60.4</ele>
        <time>2020-01-26T12:16:24Z</time>
      </trkpt>
      <trkpt lat="45.72081" lon="-1.20405">
        <ele>59.8</ele>
        <time>2020-01-26T12:16:25Z</time>
      </trkpt>
      <trkpt lat="45.72075" lon="-1.20404">
        <ele>59.2</ele>
        <time>2020-01-26T12:16:26Z</time>
      </trkpt>
      <trkpt lat="45.72069" lon="-1.20404">
        <ele>58.8</ele>
        <time>2020-01-26T12:16:27Z</time>
      </trkpt>
      <trkpt lat="45.72063" lon="-1.20403">
        <ele>58.6</ele>
        <time>2020-01-26T12:16:28Z</time>
      </trkpt>
      <trkpt lat="45.72055" lon="-1.20399">
        <ele>58</ele>
        <time>2020-01-26T12:16:29Z</time>
      </trkpt>
      <trkpt lat="45.72049" lon="-1.20396">
        <ele>57.4</ele>
        <time>2020-01-26T12:16:30Z</time>
      </trkpt>
      <trkpt lat="45.7204" lon="-1.20388">
        <ele>57.4</ele>
        <time>2020-01-26T12:16:31Z</time>
      </trkpt>
      <trkpt lat="45.72033" lon="-1.20382">
        <ele>57</ele>
        <time>2020-01-26T12:16:32Z</time>
      </trkpt>
      <trkpt lat="45.72028" lon="-1.20378">
        <ele>56.8</ele>
        <time>2020-01-26T12:16:33Z</time>
      </trkpt>
      <trkpt lat="45.72021" lon="-1.20373">
        <ele>56.8</ele>
        <time>2020-01-26T12:16:34Z</time>
      </trkpt>
      <trkpt lat="45.72012" lon="-1.2037">
        <ele>57.2</ele>
        <time>2020-01-26T12:16:35Z</time>
      </trkpt>
      <trkpt lat="45.72007" lon="-1.20367">
        <ele>57.2</ele>
        <time>2020-01-26T12:16:36Z</time>
      </trkpt>
      <trkpt lat="45.71999" lon="-1.20364">
        <ele>57.8</ele>
        <time>2020-01-26T12:16:37Z</time>
      </trkpt>
      <trkpt lat="45.71991" lon="-1.20362">
        <ele>58</ele>
        <time>2020-01-26T12:16:38Z</time>
      </trkpt>
      <trkpt lat="45.71985" lon="-1.20361">
        <ele>57.8</ele>
        <time>2020-01-26T12:16:39Z</time>
      </trkpt>
      <trkpt lat="45.71978" lon="-1.20357">
        <ele>57.6</ele>
        <time>2020-01-26T12:16:40Z</time>
      </trkpt>
      <trkpt lat="45.71971" lon="-1.20354">
        <ele>57.8</ele>
        <time>2020-01-26T12:16:41Z</time>
      </trkpt>
      <trkpt lat="45.71965" lon="-1.20351">
        <ele>57.6</ele>
        <time>2020-01-26T12:16:42Z</time>
      </trkpt>
      <trkpt lat="45.71959" lon="-1.20349">
        <ele>57.6</ele>
        <time>2020-01-26T12:16:43Z</time>
      </trkpt>
      <trkpt lat="45.71953" lon="-1.20348">
        <ele>57.6</ele>
        <time>2020-01-26T12:16:44Z</time>
      </trkpt>
      <trkpt lat="45.71946" lon="-1.20346">
        <ele>57.6</ele>
        <time>2020-01-26T12:16:45Z</time>
      </trkpt>
      <trkpt lat="45.71939" lon="-1.20344">
        <ele>58</ele>
        <time>2020-01-26T12:16:46Z</time>
      </trkpt>
      <trkpt lat="45.71934" lon="-1.20341">
        <ele>58</ele>
        <time>2020-01-26T12:16:47Z</time>
      </trkpt>
      <trkpt lat="45.71928" lon="-1.20341">
        <ele>58.2</ele>
        <time>2020-01-26T12:16:48Z</time>
      </trkpt>
      <trkpt lat="45.71923" lon="-1.20339">
        <ele>58.4</ele>
        <time>2020-01-26T12:16:49Z</time>
      </trkpt>
      <trkpt lat="45.71919" lon="-1.20337">
        <ele>58.6</ele>
        <time>2020-01-26T12:16:50Z</time>
      </trkpt>
      <trkpt lat="45.71915" lon="-1.20334">
        <ele>58.6</ele>
        <time>2020-01-26T12:16:51Z</time>
      </trkpt>
      <trkpt lat="45.71917" lon="-1.20334">
        <ele>58.4</ele>
        <time>2020-01-26T12:16:52Z</time>
      </trkpt>
      <trkpt lat="45.71915" lon="-1.20334">
        <ele>58.4</ele>
        <time>2020-01-26T12:16:53Z</time>
      </trkpt>
      <trkpt lat="45.71918" lon="-1.20334">
        <ele>58.6</ele>
        <time>2020-01-26T12:16:54Z</time>
      </trkpt>
      <trkpt lat="45.71915" lon="-1.20331">
        <ele>59.2</ele>
        <time>2020-01-26T12:16:55Z</time>
      </trkpt>
      <trkpt lat="45.71913" lon="-1.20328">
        <ele>60</ele>
        <time>2020-01-26T12:16:56Z</time>
      </trkpt>
      <trkpt lat="45.71909" lon="-1.20327">
        <ele>60.4</ele>
        <time>2020-01-26T12:16:57Z</time>
      </trkpt>
      <trkpt lat="45.71906" lon="-1.20325">
        <ele>60.8</ele>
        <time>2020-01-26T12:16:58Z</time>
      </trkpt>
      <trkpt lat="45.71904" lon="-1.20323">
        <ele>60.8</ele>
        <time>2020-01-26T12:16:59Z</time>
      </trkpt>
      <trkpt lat="45.71904" lon="-1.20319">
        <ele>60.8</ele>
        <time>2020-01-26T12:17:00Z</time>
      </trkpt>
      <trkpt lat="45.71899" lon="-1.20313">
        <ele>61</ele>
        <time>2020-01-26T12:17:01Z</time>
      </trkpt>
      <trkpt lat="45.71894" lon="-1.20309">
        <ele>61</ele>
        <time>2020-01-26T12:17:02Z</time>
      </trkpt>
      <trkpt lat="45.71891" lon="-1.20304">
        <ele>61</ele>
        <time>2020-01-26T12:17:03Z</time>
      </trkpt>
      <trkpt lat="45.71888" lon="-1.203">
        <ele>61</ele>
        <time>2020-01-26T12:17:04Z</time>
      </trkpt>
      <trkpt lat="45.71882" lon="-1.20297">
        <ele>61</ele>
        <time>2020-01-26T12:17:05Z</time>
      </trkpt>
      <trkpt lat="45.71877" lon="-1.20292">
        <ele>61.6</ele>
        <time>2020-01-26T12:17:06Z</time>
      </trkpt>
      <trkpt lat="45.71873" lon="-1.20289">
        <ele>62.2</ele>
        <time>2020-01-26T12:17:07Z</time>
      </trkpt>
      <trkpt lat="45.7187" lon="-1.20285">
        <ele>62.6</ele>
        <time>2020-01-26T12:17:08Z</time>
      </trkpt>
      <trkpt lat="45.71867" lon="-1.20283">
        <ele>62.6</ele>
        <time>2020-01-26T12:17:09Z</time>
      </trkpt>
      <trkpt lat="45.71865" lon="-1.20281">
        <ele>62.6</ele>
        <time>2020-01-26T12:17:10Z</time>
      </trkpt>
      <trkpt lat="45.71862" lon="-1.20281">
        <ele>62.4</ele>
        <time>2020-01-26T12:17:11Z</time>
      </trkpt>
      <trkpt lat="45.71861" lon="-1.20282">
        <ele>61.8</ele>
        <time>2020-01-26T12:17:12Z</time>
      </trkpt>
      <trkpt lat="45.71858" lon="-1.20281">
        <ele>61.4</ele>
        <time>2020-01-26T12:17:13Z</time>
      </trkpt>
      <trkpt lat="45.71856" lon="-1.20281">
        <ele>61</ele>
        <time>2020-01-26T12:17:14Z</time>
      </trkpt>
      <trkpt lat="45.71854" lon="-1.2028">
        <ele>60.8</ele>
        <time>2020-01-26T12:17:15Z</time>
      </trkpt>
      <trkpt lat="45.71853" lon="-1.20279">
        <ele>60.8</ele>
        <time>2020-01-26T12:17:16Z</time>
      </trkpt>
      <trkpt lat="45.7185" lon="-1.20277">
        <ele>60.6</ele>
        <time>2020-01-26T12:17:17Z</time>
      </trkpt>
      <trkpt lat="45.71848" lon="-1.20276">
        <ele>60.4</ele>
        <time>2020-01-26T12:17:18Z</time>
      </trkpt>
      <trkpt lat="45.71846" lon="-1.20274">
        <ele>60.4</ele>
        <time>2020-01-26T12:17:19Z</time>
      </trkpt>
      <trkpt lat="45.71843" lon="-1.20273">
        <ele>60.6</ele>
        <time>2020-01-26T12:17:20Z</time>
      </trkpt>
      <trkpt lat="45.71841" lon="-1.20272">
        <ele>60.6</ele>
        <time>2020-01-26T12:17:21Z</time>
      </trkpt>
      <trkpt lat="45.7184" lon="-1.2027">
        <ele>60.8</ele>
        <time>2020-01-26T12:17:22Z</time>
      </trkpt>
      <trkpt lat="45.71838" lon="-1.20269">
        <ele>61</ele>
        <time>2020-01-26T12:17:23Z</time>
      </trkpt>
      <trkpt lat="45.71836" lon="-1.20269">
        <ele>61</ele>
        <time>2020-01-26T12:17:24Z</time>
      </trkpt>
      <trkpt lat="45.71835" lon="-1.20269">
        <ele>60.6</ele>
        <time>2020-01-26T12:17:25Z</time>
      </trkpt>
      <trkpt lat="45.71832" lon="-1.20268">
        <ele>59.8</ele>
        <time>2020-01-26T12:17:26Z</time>
      </trkpt>
      <trkpt lat="45.7183" lon="-1.20266">
        <ele>58.8</ele>
        <time>2020-01-26T12:17:27Z</time>
      </trkpt>
      <trkpt lat="45.71827" lon="-1.20265">
        <ele>57.8</ele>
        <time>2020-01-26T12:17:28Z</time>
      </trkpt>
      <trkpt lat="45.71824" lon="-1.20264">
        <ele>56.8</ele>
        <time>2020-01-26T12:17:29Z</time>
      </trkpt>
      <trkpt lat="45.71823" lon="-1.20264">
        <ele>56</ele>
        <time>2020-01-26T12:17:30Z</time>
      </trkpt>
      <trkpt lat="45.71821" lon="-1.20262">
        <ele>55.2</ele>
        <time>2020-01-26T12:17:31Z</time>
      </trkpt>
      <trkpt lat="45.71817" lon="-1.20261">
        <ele>54.6</ele>
        <time>2020-01-26T12:17:32Z</time>
      </trkpt>
      <trkpt lat="45.71814" lon="-1.2026">
        <ele>54</ele>
        <time>2020-01-26T12:17:33Z</time>
      </trkpt>
      <trkpt lat="45.71811" lon="-1.20259">
        <ele>53.2</ele>
        <time>2020-01-26T12:17:34Z</time>
      </trkpt>
      <trkpt lat="45.71802" lon="-1.20248">
        <ele>53</ele>
        <time>2020-01-26T12:17:35Z</time>
      </trkpt>
      <trkpt lat="45.71794" lon="-1.20242">
        <ele>53.2</ele>
        <time>2020-01-26T12:17:36Z</time>
      </trkpt>
      <trkpt lat="45.71786" lon="-1.20234">
        <ele>53.6</ele>
        <time>2020-01-26T12:17:37Z</time>
      </trkpt>
      <trkpt lat="45.7178" lon="-1.20224">
        <ele>54.6</ele>
        <time>2020-01-26T12:17:38Z</time>
      </trkpt>
      <trkpt lat="45.71777" lon="-1.20216">
        <ele>55.2</ele>
        <time>2020-01-26T12:17:39Z</time>
      </trkpt>
      <trkpt lat="45.71775" lon="-1.20207">
        <ele>55.6</ele>
        <time>2020-01-26T12:17:40Z</time>
      </trkpt>
      <trkpt lat="45.71775" lon="-1.20198">
        <ele>55.6</ele>
        <time>2020-01-26T12:17:41Z</time>
      </trkpt>
      <trkpt lat="45.71776" lon="-1.2019">
        <ele>55.8</ele>
        <time>2020-01-26T12:17:42Z</time>
      </trkpt>
      <trkpt lat="45.71776" lon="-1.20182">
        <ele>55.8</ele>
        <time>2020-01-26T12:17:43Z</time>
      </trkpt>
      <trkpt lat="45.71775" lon="-1.20175">
        <ele>55.8</ele>
        <time>2020-01-26T12:17:44Z</time>
      </trkpt>
      <trkpt lat="45.71771" lon="-1.20165">
        <ele>56.2</ele>
        <time>2020-01-26T12:17:45Z</time>
      </trkpt>
      <trkpt lat="45.71771" lon="-1.20156">
        <ele>55.8</ele>
        <time>2020-01-26T12:17:46Z</time>
      </trkpt>
      <trkpt lat="45.7177" lon="-1.2015">
        <ele>55.6</ele>
        <time>2020-01-26T12:17:47Z</time>
      </trkpt>
      <trkpt lat="45.7177" lon="-1.20142">
        <ele>55.8</ele>
        <time>2020-01-26T12:17:48Z</time>
      </trkpt>
      <trkpt lat="45.71769" lon="-1.20138">
        <ele>56</ele>
        <time>2020-01-26T12:17:49Z</time>
      </trkpt>
      <trkpt lat="45.71768" lon="-1.20132">
        <ele>55.8</ele>
        <time>2020-01-26T12:17:50Z</time>
      </trkpt>
      <trkpt lat="45.71769" lon="-1.20127">
        <ele>55.8</ele>
        <time>2020-01-26T12:17:51Z</time>
      </trkpt>
      <trkpt lat="45.71768" lon="-1.20122">
        <ele>55.8</ele>
        <time>2020-01-26T12:17:52Z</time>
      </trkpt>
      <trkpt lat="45.71767" lon="-1.20117">
        <ele>56</ele>
        <time>2020-01-26T12:17:53Z</time>
      </trkpt>
      <trkpt lat="45.71767" lon="-1.20113">
        <ele>56.2</ele>
        <time>2020-01-26T12:17:54Z</time>
      </trkpt>
      <trkpt lat="45.71767" lon="-1.20112">
        <ele>55.6</ele>
        <time>2020-01-26T12:17:55Z</time>
      </trkpt>
      <trkpt lat="45.71769" lon="-1.2011">
        <ele>55.2</ele>
        <time>2020-01-26T12:17:56Z</time>
      </trkpt>
      <trkpt lat="45.71769" lon="-1.20104">
        <ele>55.2</ele>
        <time>2020-01-26T12:17:57Z</time>
      </trkpt>
      <trkpt lat="45.71769" lon="-1.201">
        <ele>55.2</ele>
        <time>2020-01-26T12:17:58Z</time>
      </trkpt>
      <trkpt lat="45.71769" lon="-1.20097">
        <ele>55.2</ele>
        <time>2020-01-26T12:17:59Z</time>
      </trkpt>
      <trkpt lat="45.71769" lon="-1.20093">
        <ele>55.4</ele>
        <time>2020-01-26T12:18:00Z</time>
      </trkpt>
      <trkpt lat="45.71768" lon="-1.20089">
        <ele>55.8</ele>
        <time>2020-01-26T12:18:01Z</time>
      </trkpt>
      <trkpt lat="45.71767" lon="-1.20086">
        <ele>56.6</ele>
        <time>2020-01-26T12:18:02Z</time>
      </trkpt>
      <trkpt lat="45.71767" lon="-1.20084">
        <ele>57</ele>
        <time>2020-01-26T12:18:03Z</time>
      </trkpt>
      <trkpt lat="45.71766" lon="-1.2008">
        <ele>57.6</ele>
        <time>2020-01-26T12:18:04Z</time>
      </trkpt>
      <trkpt lat="45.71766" lon="-1.20075">
        <ele>58.6</ele>
        <time>2020-01-26T12:18:05Z</time>
      </trkpt>
      <trkpt lat="45.71765" lon="-1.2007">
        <ele>59.2</ele>
        <time>2020-01-26T12:18:06Z</time>
      </trkpt>
      <trkpt lat="45.71765" lon="-1.20065">
        <ele>60.2</ele>
        <time>2020-01-26T12:18:07Z</time>
      </trkpt>
      <trkpt lat="45.71766" lon="-1.20063">
        <ele>61.4</ele>
        <time>2020-01-26T12:18:08Z</time>
      </trkpt>
      <trkpt lat="45.71767" lon="-1.2006">
        <ele>62</ele>
        <time>2020-01-26T12:18:09Z</time>
      </trkpt>
      <trkpt lat="45.71769" lon="-1.20058">
        <ele>62.2</ele>
        <time>2020-01-26T12:18:10Z</time>
      </trkpt>
      <trkpt lat="45.7177" lon="-1.20055">
        <ele>62.2</ele>
        <time>2020-01-26T12:18:11Z</time>
      </trkpt>
      <trkpt lat="45.71772" lon="-1.20053">
        <ele>61.8</ele>
        <time>2020-01-26T12:18:12Z</time>
      </trkpt>
      <trkpt lat="45.71774" lon="-1.2005">
        <ele>61.6</ele>
        <time>2020-01-26T12:18:13Z</time>
      </trkpt>
      <trkpt lat="45.71776" lon="-1.20049">
        <ele>61.2</ele>
        <time>2020-01-26T12:18:14Z</time>
      </trkpt>
      <trkpt lat="45.71778" lon="-1.20047">
        <ele>60.6</ele>
        <time>2020-01-26T12:18:15Z</time>
      </trkpt>
      <trkpt lat="45.71779" lon="-1.20044">
        <ele>60.8</ele>
        <time>2020-01-26T12:18:16Z</time>
      </trkpt>
      <trkpt lat="45.7178" lon="-1.20041">
        <ele>60.8</ele>
        <time>2020-01-26T12:18:17Z</time>
      </trkpt>
      <trkpt lat="45.71782" lon="-1.20041">
        <ele>60.6</ele>
        <time>2020-01-26T12:18:18Z</time>
      </trkpt>
      <trkpt lat="45.71783" lon="-1.2004">
        <ele>60.8</ele>
        <time>2020-01-26T12:18:19Z</time>
      </trkpt>
      <trkpt lat="45.71783" lon="-1.20038">
        <ele>60.8</ele>
        <time>2020-01-26T12:18:20Z</time>
      </trkpt>
      <trkpt lat="45.71784" lon="-1.20037">
        <ele>60.8</ele>
        <time>2020-01-26T12:18:21Z</time>
      </trkpt>
      <trkpt lat="45.71785" lon="-1.20036">
        <ele>60.8</ele>
        <time>2020-01-26T12:18:22Z</time>
      </trkpt>
      <trkpt lat="45.71786" lon="-1.20035">
        <ele>61.2</ele>
        <time>2020-01-26T12:18:23Z</time>
      </trkpt>
      <trkpt lat="45.71786" lon="-1.20034">
        <ele>61.6</ele>
        <time>2020-01-26T12:18:24Z</time>
      </trkpt>
      <trkpt lat="45.71787" lon="-1.20032">
        <ele>62</ele>
        <time>2020-01-26T12:18:25Z</time>
      </trkpt>
      <trkpt lat="45.71786" lon="-1.20031">
        <ele>62.8</ele>
        <time>2020-01-26T12:18:26Z</time>
      </trkpt>
      <trkpt lat="45.71787" lon="-1.20029">
        <ele>63.4</ele>
        <time>2020-01-26T12:18:27Z</time>
      </trkpt>
      <trkpt lat="45.71788" lon="-1.20028">
        <ele>64</ele>
        <time>2020-01-26T12:18:28Z</time>
      </trkpt>
      <trkpt lat="45.71788" lon="-1.20025">
        <ele>64.4</ele>
        <time>2020-01-26T12:18:29Z</time>
      </trkpt>
      <trkpt lat="45.71788" lon="-1.20023">
        <ele>64.6</ele>
        <time>2020-01-26T12:18:30Z</time>
      </trkpt>
      <trkpt lat="45.71791" lon="-1.20022">
        <ele>64.8</ele>
        <time>2020-01-26T12:18:31Z</time>
      </trkpt>
      <trkpt lat="45.71793" lon="-1.2002">
        <ele>64.8</ele>
        <time>2020-01-26T12:18:32Z</time>
      </trkpt>
      <trkpt lat="45.71794" lon="-1.20019">
        <ele>64.8</ele>
        <time>2020-01-26T12:18:33Z</time>
      </trkpt>
      <trkpt lat="45.71795" lon="-1.20017">
        <ele>64.8</ele>
        <time>2020-01-26T12:18:34Z</time>
      </trkpt>
      <trkpt lat="45.71795" lon="-1.20017">
        <ele>65</ele>
        <time>2020-01-26T12:18:35Z</time>
      </trkpt>
      <trkpt lat="45.71797" lon="-1.20016">
        <ele>65</ele>
        <time>2020-01-26T12:18:36Z</time>
      </trkpt>
      <trkpt lat="45.71798" lon="-1.20016">
        <ele>64.6</ele>
        <time>2020-01-26T12:18:37Z</time>
      </trkpt>
      <trkpt lat="45.71801" lon="-1.20015">
        <ele>64.2</ele>
        <time>2020-01-26T12:18:38Z</time>
      </trkpt>
      <trkpt lat="45.71803" lon="-1.20014">
        <ele>64</ele>
        <time>2020-01-26T12:18:39Z</time>
      </trkpt>
      <trkpt lat="45.71804" lon="-1.20012">
        <ele>64</ele>
        <time>2020-01-26T12:18:40Z</time>
      </trkpt>
      <trkpt lat="45.71805" lon="-1.2001">
        <ele>64.2</ele>
        <time>2020-01-26T12:18:41Z</time>
      </trkpt>
      <trkpt lat="45.71806" lon="-1.20008">
        <ele>64.4</ele>
        <time>2020-01-26T12:18:42Z</time>
      </trkpt>
      <trkpt lat="45.71808" lon="-1.20007">
        <ele>64.6</ele>
        <time>2020-01-26T12:18:43Z</time>
      </trkpt>
      <trkpt lat="45.71808" lon="-1.20005">
        <ele>64.6</ele>
        <time>2020-01-26T12:18:44Z</time>
      </trkpt>
      <trkpt lat="45.71809" lon="-1.20003">
        <ele>65</ele>
        <time>2020-01-26T12:18:45Z</time>
      </trkpt>
      <trkpt lat="45.71809" lon="-1.2">
        <ele>65.6</ele>
        <time>2020-01-26T12:18:46Z</time>
      </trkpt>
      <trkpt lat="45.71809" lon="-1.2">
        <ele>65.8</ele>
        <time>2020-01-26T12:18:47Z</time>
      </trkpt>
      <trkpt lat="45.71809" lon="-1.19999">
        <ele>66.2</ele>
        <time>2020-01-26T12:18:48Z</time>
      </trkpt>
      <trkpt lat="45.7181" lon="-1.2">
        <ele>66.4</ele>
        <time>2020-01-26T12:18:49Z</time>
      </trkpt>
      <trkpt lat="45.7181" lon="-1.2">
        <ele>66.6</ele>
        <time>2020-01-26T12:18:50Z</time>
      </trkpt>
      <trkpt lat="45.7181" lon="-1.19998">
        <ele>66.6</ele>
        <time>2020-01-26T12:18:51Z</time>
      </trkpt>
      <trkpt lat="45.7181" lon="-1.19998">
        <ele>67</ele>
        <time>2020-01-26T12:18:52Z</time>
      </trkpt>
      <trkpt lat="45.7181" lon="-1.19997">
        <ele>67</ele>
        <time>2020-01-26T12:18:53Z</time>
      </trkpt>
      <trkpt lat="45.7181" lon="-1.19997">
        <ele>67</ele>
        <time>2020-01-26T12:18:54Z</time>
      </trkpt>
      <trkpt lat="45.7181" lon="-1.19997">
        <ele>67</ele>
        <time>2020-01-26T12:18:55Z</time>
      </trkpt>
      <trkpt lat="45.71811" lon="-1.19997">
        <ele>67.2</ele>
        <time>2020-01-26T12:18:56Z</time>
      </trkpt>
      <trkpt lat="45.71814" lon="-1.19995">
        <ele>67.2</ele>
        <time>2020-01-26T12:18:57Z</time>
      </trkpt>
      <trkpt lat="45.71814" lon="-1.19995">
        <ele>67.4</ele>
        <time>2020-01-26T12:18:58Z</time>
      </trkpt>
      <trkpt lat="45.71815" lon="-1.19994">
        <ele>67.6</ele>
        <time>2020-01-26T12:18:59Z</time>
      </trkpt>
      <trkpt lat="45.71815" lon="-1.19993">
        <ele>67.6</ele>
        <time>2020-01-26T12:19:00Z</time>
      </trkpt>
      <trkpt lat="45.71815" lon="-1.19993">
        <ele>67.8</ele>
        <time>2020-01-26T12:19:01Z</time>
      </trkpt>
      <trkpt lat="45.71814" lon="-1.19992">
        <ele>67.8</ele>
        <time>2020-01-26T12:19:02Z</time>
      </trkpt>
      <trkpt lat="45.71815" lon="-1.19992">
        <ele>67.8</ele>
        <time>2020-01-26T12:19:03Z</time>
      </trkpt>
      <trkpt lat="45.71816" lon="-1.19991">
        <ele>67.8</ele>
        <time>2020-01-26T12:19:04Z</time>
      </trkpt>
      <trkpt lat="45.71816" lon="-1.1999">
        <ele>68</ele>
        <time>2020-01-26T12:19:05Z</time>
      </trkpt>
      <trkpt lat="45.71817" lon="-1.19989">
        <ele>67.6</ele>
        <time>2020-01-26T12:19:06Z</time>
      </trkpt>
      <trkpt lat="45.71817" lon="-1.19989">
        <ele>67.6</ele>
        <time>2020-01-26T12:19:07Z</time>
      </trkpt>
      <trkpt lat="45.71817" lon="-1.19988">
        <ele>67.4</ele>
        <time>2020-01-26T12:19:08Z</time>
      </trkpt>
      <trkpt lat="45.71818" lon="-1.19986">
        <ele>67.4</ele>
        <time>2020-01-26T12:19:09Z</time>
      </trkpt>
      <trkpt lat="45.7182" lon="-1.19985">
        <ele>67.6</ele>
        <time>2020-01-26T12:19:10Z</time>
      </trkpt>
      <trkpt lat="45.71822" lon="-1.19982">
        <ele>68</ele>
        <time>2020-01-26T12:19:11Z</time>
      </trkpt>
      <trkpt lat="45.71824" lon="-1.1998">
        <ele>68.2</ele>
        <time>2020-01-26T12:19:12Z</time>
      </trkpt>
      <trkpt lat="45.71825" lon="-1.19978">
        <ele>68.4</ele>
        <time>2020-01-26T12:19:13Z</time>
      </trkpt>
      <trkpt lat="45.71826" lon="-1.19976">
        <ele>68.8</ele>
        <time>2020-01-26T12:19:14Z</time>
      </trkpt>
      <trkpt lat="45.71825" lon="-1.19973">
        <ele>69.4</ele>
        <time>2020-01-26T12:19:15Z</time>
      </trkpt>
      <trkpt lat="45.71825" lon="-1.19972">
        <ele>69.8</ele>
        <time>2020-01-26T12:19:16Z</time>
      </trkpt>
      <trkpt lat="45.71828" lon="-1.1997">
        <ele>69.8</ele>
        <time>2020-01-26T12:19:17Z</time>
      </trkpt>
      <trkpt lat="45.7183" lon="-1.19969">
        <ele>69.8</ele>
        <time>2020-01-26T12:19:18Z</time>
      </trkpt>
      <trkpt lat="45.71831" lon="-1.19968">
        <ele>69.6</ele>
        <time>2020-01-26T12:19:19Z</time>
      </trkpt>
      <trkpt lat="45.71833" lon="-1.19967">
        <ele>69.6</ele>
        <time>2020-01-26T12:19:20Z</time>
      </trkpt>
      <trkpt lat="45.71833" lon="-1.19963">
        <ele>70.2</ele>
        <time>2020-01-26T12:19:21Z</time>
      </trkpt>
      <trkpt lat="45.71835" lon="-1.19961">
        <ele>70.6</ele>
        <time>2020-01-26T12:19:22Z</time>
      </trkpt>
      <trkpt lat="45.71837" lon="-1.19959">
        <ele>71.2</ele>
        <time>2020-01-26T12:19:23Z</time>
      </trkpt>
      <trkpt lat="45.71837" lon="-1.19957">
        <ele>71.8</ele>
        <time>2020-01-26T12:19:24Z</time>
      </trkpt>
      <trkpt lat="45.71837" lon="-1.19955">
        <ele>72.6</ele>
        <time>2020-01-26T12:19:25Z</time>
      </trkpt>
      <trkpt lat="45.7184" lon="-1.19953">
        <ele>73.2</ele>
        <time>2020-01-26T12:19:26Z</time>
      </trkpt>
      <trkpt lat="45.71842" lon="-1.19951">
        <ele>73.8</ele>
        <time>2020-01-26T12:19:27Z</time>
      </trkpt>
      <trkpt lat="45.71843" lon="-1.1995">
        <ele>74.6</ele>
        <time>2020-01-26T12:19:28Z</time>
      </trkpt>
      <trkpt lat="45.71843" lon="-1.19948">
        <ele>75.2</ele>
        <time>2020-01-26T12:19:29Z</time>
      </trkpt>
      <trkpt lat="45.71845" lon="-1.19946">
        <ele>75.6</ele>
        <time>2020-01-26T12:19:30Z</time>
      </trkpt>
      <trkpt lat="45.71846" lon="-1.19944">
        <ele>75.8</ele>
        <time>2020-01-26T12:19:31Z</time>
      </trkpt>
      <trkpt lat="45.71848" lon="-1.19941">
        <ele>75.8</ele>
        <time>2020-01-26T12:19:32Z</time>
      </trkpt>
      <trkpt lat="45.7185" lon="-1.19939">
        <ele>76</ele>
        <time>2020-01-26T12:19:33Z</time>
      </trkpt>
      <trkpt lat="45.7185" lon="-1.19936">
        <ele>76</ele>
        <time>2020-01-26T12:19:34Z</time>
      </trkpt>
      <trkpt lat="45.71852" lon="-1.19934">
        <ele>76</ele>
        <time>2020-01-26T12:19:35Z</time>
      </trkpt>
      <trkpt lat="45.71854" lon="-1.19933">
        <ele>75.8</ele>
        <time>2020-01-26T12:19:36Z</time>
      </trkpt>
      <trkpt lat="45.71856" lon="-1.1993">
        <ele>75.6</ele>
        <time>2020-01-26T12:19:37Z</time>
      </trkpt>
      <trkpt lat="45.71857" lon="-1.19928">
        <ele>75.4</ele>
        <time>2020-01-26T12:19:38Z</time>
      </trkpt>
      <trkpt lat="45.71857" lon="-1.19926">
        <ele>75.4</ele>
        <time>2020-01-26T12:19:39Z</time>
      </trkpt>
      <trkpt lat="45.71861" lon="-1.19927">
        <ele>74.8</ele>
        <time>2020-01-26T12:19:40Z</time>
      </trkpt>
      <trkpt lat="45.71862" lon="-1.19925">
        <ele>74</ele>
        <time>2020-01-26T12:19:41Z</time>
      </trkpt>
      <trkpt lat="45.71863" lon="-1.19924">
        <ele>73.6</ele>
        <time>2020-01-26T12:19:42Z</time>
      </trkpt>
      <trkpt lat="45.71864" lon="-1.19923">
        <ele>73</ele>
        <time>2020-01-26T12:19:43Z</time>
      </trkpt>
      <trkpt lat="45.71865" lon="-1.19921">
        <ele>73</ele>
        <time>2020-01-26T12:19:44Z</time>
      </trkpt>
      <trkpt lat="45.71866" lon="-1.19918">
        <ele>73</ele>
        <time>2020-01-26T12:19:45Z</time>
      </trkpt>
      <trkpt lat="45.71868" lon="-1.19918">
        <ele>73</ele>
        <time>2020-01-26T12:19:46Z</time>
      </trkpt>
      <trkpt lat="45.7187" lon="-1.19918">
        <ele>73.2</ele>
        <time>2020-01-26T12:19:47Z</time>
      </trkpt>
      <trkpt lat="45.71871" lon="-1.19918">
        <ele>72.8</ele>
        <time>2020-01-26T12:19:48Z</time>
      </trkpt>
      <trkpt lat="45.71872" lon="-1.19918">
        <ele>72.4</ele>
        <time>2020-01-26T12:19:49Z</time>
      </trkpt>
      <trkpt lat="45.71877" lon="-1.19915">
        <ele>72.6</ele>
        <time>2020-01-26T12:19:50Z</time>
      </trkpt>
      <trkpt lat="45.71877" lon="-1.19914">
        <ele>72.6</ele>
        <time>2020-01-26T12:19:51Z</time>
      </trkpt>
      <trkpt lat="45.71881" lon="-1.19913">
        <ele>72.8</ele>
        <time>2020-01-26T12:19:52Z</time>
      </trkpt>
      <trkpt lat="45.71882" lon="-1.19912">
        <ele>72.8</ele>
        <time>2020-01-26T12:19:53Z</time>
      </trkpt>
      <trkpt lat="45.71883" lon="-1.1991">
        <ele>72.6</ele>
        <time>2020-01-26T12:19:54Z</time>
      </trkpt>
      <trkpt lat="45.71884" lon="-1.19903">
        <ele>72.8</ele>
        <time>2020-01-26T12:19:55Z</time>
      </trkpt>
      <trkpt lat="45.71891" lon="-1.19905">
        <ele>72.8</ele>
        <time>2020-01-26T12:19:56Z</time>
      </trkpt>
      <trkpt lat="45.71893" lon="-1.19904">
        <ele>72.8</ele>
        <time>2020-01-26T12:19:57Z</time>
      </trkpt>
      <trkpt lat="45.71896" lon="-1.19905">
        <ele>73</ele>
        <time>2020-01-26T12:19:58Z</time>
      </trkpt>
      <trkpt lat="45.71904" lon="-1.19911">
        <ele>73.2</ele>
        <time>2020-01-26T12:19:59Z</time>
      </trkpt>
      <trkpt lat="45.71908" lon="-1.19919">
        <ele>73.2</ele>
        <time>2020-01-26T12:20:00Z</time>
      </trkpt>
      <trkpt lat="45.71911" lon="-1.19923">
        <ele>73</ele>
        <time>2020-01-26T12:20:01Z</time>
      </trkpt>
      <trkpt lat="45.71911" lon="-1.19927">
        <ele>73</ele>
        <time>2020-01-26T12:20:02Z</time>
      </trkpt>
      <trkpt lat="45.71912" lon="-1.19931">
        <ele>72.8</ele>
        <time>2020-01-26T12:20:03Z</time>
      </trkpt>
      <trkpt lat="45.71916" lon="-1.19936">
        <ele>73.4</ele>
        <time>2020-01-26T12:20:04Z</time>
      </trkpt>
      <trkpt lat="45.71917" lon="-1.1994">
        <ele>74</ele>
        <time>2020-01-26T12:20:05Z</time>
      </trkpt>
      <trkpt lat="45.71919" lon="-1.19944">
        <ele>74.6</ele>
        <time>2020-01-26T12:20:06Z</time>
      </trkpt>
      <trkpt lat="45.71922" lon="-1.19948">
        <ele>75.4</ele>
        <time>2020-01-26T12:20:07Z</time>
      </trkpt>
      <trkpt lat="45.71924" lon="-1.19951">
        <ele>76.4</ele>
        <time>2020-01-26T12:20:08Z</time>
      </trkpt>
      <trkpt lat="45.71926" lon="-1.19956">
        <ele>77.2</ele>
        <time>2020-01-26T12:20:09Z</time>
      </trkpt>
      <trkpt lat="45.71927" lon="-1.1996">
        <ele>77.6</ele>
        <time>2020-01-26T12:20:10Z</time>
      </trkpt>
      <trkpt lat="45.71928" lon="-1.19962">
        <ele>78</ele>
        <time>2020-01-26T12:20:11Z</time>
      </trkpt>
      <trkpt lat="45.71931" lon="-1.19966">
        <ele>77.8</ele>
        <time>2020-01-26T12:20:12Z</time>
      </trkpt>
      <trkpt lat="45.71932" lon="-1.19968">
        <ele>77.2</ele>
        <time>2020-01-26T12:20:13Z</time>
      </trkpt>
      <trkpt lat="45.71933" lon="-1.1997">
        <ele>77</ele>
        <time>2020-01-26T12:20:14Z</time>
      </trkpt>
      <trkpt lat="45.71935" lon="-1.19973">
        <ele>76.4</ele>
        <time>2020-01-26T12:20:15Z</time>
      </trkpt>
      <trkpt lat="45.71937" lon="-1.19979">
        <ele>76.8</ele>
        <time>2020-01-26T12:20:16Z</time>
      </trkpt>
      <trkpt lat="45.71939" lon="-1.19983">
        <ele>77</ele>
        <time>2020-01-26T12:20:17Z</time>
      </trkpt>
      <trkpt lat="45.71941" lon="-1.19986">
        <ele>77</ele>
        <time>2020-01-26T12:20:18Z</time>
      </trkpt>
      <trkpt lat="45.71944" lon="-1.19988">
        <ele>76.6</ele>
        <time>2020-01-26T12:20:19Z</time>
      </trkpt>
      <trkpt lat="45.71947" lon="-1.19991">
        <ele>76.8</ele>
        <time>2020-01-26T12:20:20Z</time>
      </trkpt>
      <trkpt lat="45.7195" lon="-1.19993">
        <ele>77.2</ele>
        <time>2020-01-26T12:20:21Z</time>
      </trkpt>
      <trkpt lat="45.71952" lon="-1.19996">
        <ele>77.6</ele>
        <time>2020-01-26T12:20:22Z</time>
      </trkpt>
      <trkpt lat="45.71955" lon="-1.19998">
        <ele>78</ele>
        <time>2020-01-26T12:20:23Z</time>
      </trkpt>
      <trkpt lat="45.71958" lon="-1.2">
        <ele>78.2</ele>
        <time>2020-01-26T12:20:24Z</time>
      </trkpt>
      <trkpt lat="45.7196" lon="-1.20003">
        <ele>78.4</ele>
        <time>2020-01-26T12:20:25Z</time>
      </trkpt>
      <trkpt lat="45.71962" lon="-1.20005">
        <ele>78.6</ele>
        <time>2020-01-26T12:20:26Z</time>
      </trkpt>
      <trkpt lat="45.71964" lon="-1.20007">
        <ele>78.6</ele>
        <time>2020-01-26T12:20:27Z</time>
      </trkpt>
      <trkpt lat="45.71967" lon="-1.2001">
        <ele>79</ele>
        <time>2020-01-26T12:20:28Z</time>
      </trkpt>
      <trkpt lat="45.71969" lon="-1.20012">
        <ele>79.2</ele>
        <time>2020-01-26T12:20:29Z</time>
      </trkpt>
      <trkpt lat="45.71971" lon="-1.20015">
        <ele>79.4</ele>
        <time>2020-01-26T12:20:30Z</time>
      </trkpt>
      <trkpt lat="45.71973" lon="-1.20017">
        <ele>79.6</ele>
        <time>2020-01-26T12:20:31Z</time>
      </trkpt>
      <trkpt lat="45.71976" lon="-1.2002">
        <ele>79.4</ele>
        <time>2020-01-26T12:20:32Z</time>
      </trkpt>
      <trkpt lat="45.71978" lon="-1.20021">
        <ele>79</ele>
        <time>2020-01-26T12:20:33Z</time>
      </trkpt>
      <trkpt lat="45.71981" lon="-1.20024">
        <ele>78.8</ele>
        <time>2020-01-26T12:20:34Z</time>
      </trkpt>
      <trkpt lat="45.71983" lon="-1.20026">
        <ele>78.6</ele>
        <time>2020-01-26T12:20:35Z</time>
      </trkpt>
      <trkpt lat="45.71987" lon="-1.20029">
        <ele>78.4</ele>
        <time>2020-01-26T12:20:36Z</time>
      </trkpt>
      <trkpt lat="45.7199" lon="-1.20032">
        <ele>78.4</ele>
        <time>2020-01-26T12:20:37Z</time>
      </trkpt>
      <trkpt lat="45.71994" lon="-1.20036">
        <ele>77.8</ele>
        <time>2020-01-26T12:20:38Z</time>
      </trkpt>
      <trkpt lat="45.71996" lon="-1.20039">
        <ele>77.6</ele>
        <time>2020-01-26T12:20:39Z</time>
      </trkpt>
      <trkpt lat="45.71998" lon="-1.20042">
        <ele>77.4</ele>
        <time>2020-01-26T12:20:40Z</time>
      </trkpt>
      <trkpt lat="45.72" lon="-1.20044">
        <ele>77.6</ele>
        <time>2020-01-26T12:20:41Z</time>
      </trkpt>
      <trkpt lat="45.72002" lon="-1.20046">
        <ele>77.6</ele>
        <time>2020-01-26T12:20:42Z</time>
      </trkpt>
      <trkpt lat="45.72004" lon="-1.2005">
        <ele>78.2</ele>
        <time>2020-01-26T12:20:43Z</time>
      </trkpt>
      <trkpt lat="45.72005" lon="-1.20053">
        <ele>78.6</ele>
        <time>2020-01-26T12:20:44Z</time>
      </trkpt>
      <trkpt lat="45.72006" lon="-1.20055">
        <ele>78.8</ele>
        <time>2020-01-26T12:20:45Z</time>
      </trkpt>
      <trkpt lat="45.72007" lon="-1.20058">
        <ele>78.6</ele>
        <time>2020-01-26T12:20:46Z</time>
      </trkpt>
      <trkpt lat="45.72006" lon="-1.20062">
        <ele>78.6</ele>
        <time>2020-01-26T12:20:47Z</time>
      </trkpt>
      <trkpt lat="45.72008" lon="-1.20065">
        <ele>78.8</ele>
        <time>2020-01-26T12:20:48Z</time>
      </trkpt>
      <trkpt lat="45.7201" lon="-1.20068">
        <ele>78.8</ele>
        <time>2020-01-26T12:20:49Z</time>
      </trkpt>
      <trkpt lat="45.72012" lon="-1.2007">
        <ele>78.8</ele>
        <time>2020-01-26T12:20:50Z</time>
      </trkpt>
      <trkpt lat="45.72013" lon="-1.20073">
        <ele>79</ele>
        <time>2020-01-26T12:20:51Z</time>
      </trkpt>
      <trkpt lat="45.72013" lon="-1.20075">
        <ele>79.2</ele>
        <time>2020-01-26T12:20:52Z</time>
      </trkpt>
      <trkpt lat="45.72015" lon="-1.20077">
        <ele>79.6</ele>
        <time>2020-01-26T12:20:53Z</time>
      </trkpt>
      <trkpt lat="45.72018" lon="-1.20079">
        <ele>79.8</ele>
        <time>2020-01-26T12:20:54Z</time>
      </trkpt>
      <trkpt lat="45.7202" lon="-1.20081">
        <ele>80</ele>
        <time>2020-01-26T12:20:55Z</time>
      </trkpt>
      <trkpt lat="45.72021" lon="-1.20084">
        <ele>80.2</ele>
        <time>2020-01-26T12:20:56Z</time>
      </trkpt>
      <trkpt lat="45.72022" lon="-1.20087">
        <ele>80.6</ele>
        <time>2020-01-26T12:20:57Z</time>
      </trkpt>
      <trkpt lat="45.72024" lon="-1.20088">
        <ele>81</ele>
        <time>2020-01-26T12:20:58Z</time>
      </trkpt>
      <trkpt lat="45.72026" lon="-1.20091">
        <ele>81.8</ele>
        <time>2020-01-26T12:20:59Z</time>
      </trkpt>
      <trkpt lat="45.72029" lon="-1.20094">
        <ele>82.4</ele>
        <time>2020-01-26T12:21:00Z</time>
      </trkpt>
      <trkpt lat="45.72031" lon="-1.20098">
        <ele>83</ele>
        <time>2020-01-26T12:21:01Z</time>
      </trkpt>
      <trkpt lat="45.72033" lon="-1.20101">
        <ele>83.6</ele>
        <time>2020-01-26T12:21:02Z</time>
      </trkpt>
      <trkpt lat="45.72035" lon="-1.20104">
        <ele>83.6</ele>
        <time>2020-01-26T12:21:03Z</time>
      </trkpt>
      <trkpt lat="45.72037" lon="-1.20106">
        <ele>83.8</ele>
        <time>2020-01-26T12:21:04Z</time>
      </trkpt>
      <trkpt lat="45.72039" lon="-1.2011">
        <ele>83.8</ele>
        <time>2020-01-26T12:21:05Z</time>
      </trkpt>
      <trkpt lat="45.72041" lon="-1.20113">
        <ele>83.8</ele>
        <time>2020-01-26T12:21:06Z</time>
      </trkpt>
      <trkpt lat="45.72042" lon="-1.20115">
        <ele>83.8</ele>
        <time>2020-01-26T12:21:07Z</time>
      </trkpt>
      <trkpt lat="45.72043" lon="-1.20118">
        <ele>83.6</ele>
        <time>2020-01-26T12:21:08Z</time>
      </trkpt>
      <trkpt lat="45.72044" lon="-1.20121">
        <ele>83.4</ele>
        <time>2020-01-26T12:21:09Z</time>
      </trkpt>
      <trkpt lat="45.72047" lon="-1.20122">
        <ele>83.4</ele>
        <time>2020-01-26T12:21:10Z</time>
      </trkpt>
      <trkpt lat="45.72049" lon="-1.20124">
        <ele>83.2</ele>
        <time>2020-01-26T12:21:11Z</time>
      </trkpt>
      <trkpt lat="45.72051" lon="-1.20127">
        <ele>83.2</ele>
        <time>2020-01-26T12:21:12Z</time>
      </trkpt>
      <trkpt lat="45.72054" lon="-1.20129">
        <ele>83.2</ele>
        <time>2020-01-26T12:21:13Z</time>
      </trkpt>
      <trkpt lat="45.72056" lon="-1.2013">
        <ele>83.4</ele>
        <time>2020-01-26T12:21:14Z</time>
      </trkpt>
      <trkpt lat="45.72058" lon="-1.20132">
        <ele>83.2</ele>
        <time>2020-01-26T12:21:15Z</time>
      </trkpt>
      <trkpt lat="45.7206" lon="-1.20135">
        <ele>82.6</ele>
        <time>2020-01-26T12:21:16Z</time>
      </trkpt>
      <trkpt lat="45.72062" lon="-1.20138">
        <ele>82.2</ele>
        <time>2020-01-26T12:21:17Z</time>
      </trkpt>
      <trkpt lat="45.72065" lon="-1.20142">
        <ele>81.8</ele>
        <time>2020-01-26T12:21:18Z</time>
      </trkpt>
      <trkpt lat="45.72068" lon="-1.20144">
        <ele>81.2</ele>
        <time>2020-01-26T12:21:19Z</time>
      </trkpt>
      <trkpt lat="45.72072" lon="-1.20147">
        <ele>81</ele>
        <time>2020-01-26T12:21:20Z</time>
      </trkpt>
      <trkpt lat="45.72075" lon="-1.2015">
        <ele>80.4</ele>
        <time>2020-01-26T12:21:21Z</time>
      </trkpt>
      <trkpt lat="45.72081" lon="-1.20154">
        <ele>80.6</ele>
        <time>2020-01-26T12:21:22Z</time>
      </trkpt>
      <trkpt lat="45.72084" lon="-1.20157">
        <ele>80.4</ele>
        <time>2020-01-26T12:21:23Z</time>
      </trkpt>
      <trkpt lat="45.72089" lon="-1.2016">
        <ele>80.6</ele>
        <time>2020-01-26T12:21:24Z</time>
      </trkpt>
      <trkpt lat="45.72092" lon="-1.20163">
        <ele>81</ele>
        <time>2020-01-26T12:21:25Z</time>
      </trkpt>
      <trkpt lat="45.72095" lon="-1.20163">
        <ele>81</ele>
        <time>2020-01-26T12:21:26Z</time>
      </trkpt>
      <trkpt lat="45.72098" lon="-1.20166">
        <ele>81</ele>
        <time>2020-01-26T12:21:27Z</time>
      </trkpt>
      <trkpt lat="45.72101" lon="-1.20167">
        <ele>81</ele>
        <time>2020-01-26T12:21:28Z</time>
      </trkpt>
      <trkpt lat="45.72104" lon="-1.20169">
        <ele>81</ele>
        <time>2020-01-26T12:21:29Z</time>
      </trkpt>
      <trkpt lat="45.72108" lon="-1.20168">
        <ele>81</ele>
        <time>2020-01-26T12:21:30Z</time>
      </trkpt>
      <trkpt lat="45.72111" lon="-1.20168">
        <ele>81</ele>
        <time>2020-01-26T12:21:31Z</time>
      </trkpt>
      <trkpt lat="45.72112" lon="-1.20164">
        <ele>81</ele>
        <time>2020-01-26T12:21:32Z</time>
      </trkpt>
      <trkpt lat="45.72113" lon="-1.20161">
        <ele>81</ele>
        <time>2020-01-26T12:21:33Z</time>
      </trkpt>
      <trkpt lat="45.72114" lon="-1.2016">
        <ele>81.2</ele>
        <time>2020-01-26T12:21:34Z</time>
      </trkpt>
      <trkpt lat="45.72115" lon="-1.20158">
        <ele>81.2</ele>
        <time>2020-01-26T12:21:35Z</time>
      </trkpt>
      <trkpt lat="45.72116" lon="-1.20156">
        <ele>80.6</ele>
        <time>2020-01-26T12:21:36Z</time>
      </trkpt>
      <trkpt lat="45.72115" lon="-1.20154">
        <ele>80.4</ele>
        <time>2020-01-26T12:21:37Z</time>
      </trkpt>
      <trkpt lat="45.72115" lon="-1.20152">
        <ele>80.4</ele>
        <time>2020-01-26T12:21:38Z</time>
      </trkpt>
      <trkpt lat="45.72115" lon="-1.20148">
        <ele>80.6</ele>
        <time>2020-01-26T12:21:39Z</time>
      </trkpt>
      <trkpt lat="45.72116" lon="-1.20145">
        <ele>81.2</ele>
        <time>2020-01-26T12:21:40Z</time>
      </trkpt>
      <trkpt lat="45.72116" lon="-1.20143">
        <ele>81.4</ele>
        <time>2020-01-26T12:21:41Z</time>
      </trkpt>
      <trkpt lat="45.72116" lon="-1.20141">
        <ele>81.6</ele>
        <time>2020-01-26T12:21:42Z</time>
      </trkpt>
      <trkpt lat="45.72116" lon="-1.20139">
        <ele>81.6</ele>
        <time>2020-01-26T12:21:43Z</time>
      </trkpt>
      <trkpt lat="45.72116" lon="-1.20136">
        <ele>81.8</ele>
        <time>2020-01-26T12:21:44Z</time>
      </trkpt>
      <trkpt lat="45.72116" lon="-1.20133">
        <ele>81.8</ele>
        <time>2020-01-26T12:21:45Z</time>
      </trkpt>
      <trkpt lat="45.72116" lon="-1.20131">
        <ele>82.4</ele>
        <time>2020-01-26T12:21:46Z</time>
      </trkpt>
      <trkpt lat="45.72116" lon="-1.2013">
        <ele>82.8</ele>
        <time>2020-01-26T12:21:47Z</time>
      </trkpt>
      <trkpt lat="45.72116" lon="-1.2013">
        <ele>83</ele>
        <time>2020-01-26T12:21:48Z</time>
      </trkpt>
      <trkpt lat="45.72117" lon="-1.20128">
        <ele>83.4</ele>
        <time>2020-01-26T12:21:49Z</time>
      </trkpt>
      <trkpt lat="45.72116" lon="-1.20126">
        <ele>83.8</ele>
        <time>2020-01-26T12:21:50Z</time>
      </trkpt>
      <trkpt lat="45.72116" lon="-1.20124">
        <ele>84</ele>
        <time>2020-01-26T12:21:51Z</time>
      </trkpt>
      <trkpt lat="45.72116" lon="-1.20122">
        <ele>84.6</ele>
        <time>2020-01-26T12:21:52Z</time>
      </trkpt>
      <trkpt lat="45.72117" lon="-1.2012">
        <ele>85.2</ele>
        <time>2020-01-26T12:21:53Z</time>
      </trkpt>
      <trkpt lat="45.72117" lon="-1.20117">
        <ele>85.8</ele>
        <time>2020-01-26T12:21:54Z</time>
      </trkpt>
      <trkpt lat="45.72117" lon="-1.20115">
        <ele>86.4</ele>
        <time>2020-01-26T12:21:55Z</time>
      </trkpt>
      <trkpt lat="45.72117" lon="-1.20112">
        <ele>87</ele>
        <time>2020-01-26T12:21:56Z</time>
      </trkpt>
      <trkpt lat="45.72117" lon="-1.20113">
        <ele>87.6</ele>
        <time>2020-01-26T12:21:57Z</time>
      </trkpt>
      <trkpt lat="45.72116" lon="-1.20111">
        <ele>88.2</ele>
        <time>2020-01-26T12:21:58Z</time>
      </trkpt>
      <trkpt lat="45.72117" lon="-1.20108">
        <ele>89</ele>
        <time>2020-01-26T12:21:59Z</time>
      </trkpt>
      <trkpt lat="45.72116" lon="-1.20104">
        <ele>89.6</ele>
        <time>2020-01-26T12:22:00Z</time>
      </trkpt>
      <trkpt lat="45.72116" lon="-1.20102">
        <ele>90.2</ele>
        <time>2020-01-26T12:22:01Z</time>
      </trkpt>
      <trkpt lat="45.72116" lon="-1.201">
        <ele>91</ele>
        <time>2020-01-26T12:22:02Z</time>
      </trkpt>
      <trkpt lat="45.72116" lon="-1.20097">
        <ele>91</ele>
        <time>2020-01-26T12:22:03Z</time>
      </trkpt>
      <trkpt lat="45.72115" lon="-1.20095">
        <ele>91.4</ele>
        <time>2020-01-26T12:22:04Z</time>
      </trkpt>
      <trkpt lat="45.72115" lon="-1.20094">
        <ele>91.8</ele>
        <time>2020-01-26T12:22:05Z</time>
      </trkpt>
      <trkpt lat="45.72116" lon="-1.20091">
        <ele>92.2</ele>
        <time>2020-01-26T12:22:06Z</time>
      </trkpt>
      <trkpt lat="45.72116" lon="-1.20088">
        <ele>92.6</ele>
        <time>2020-01-26T12:22:07Z</time>
      </trkpt>
      <trkpt lat="45.72116" lon="-1.20088">
        <ele>93</ele>
        <time>2020-01-26T12:22:08Z</time>
      </trkpt>
      <trkpt lat="45.72115" lon="-1.20087">
        <ele>93.2</ele>
        <time>2020-01-26T12:22:09Z</time>
      </trkpt>
      <trkpt lat="45.72115" lon="-1.20085">
        <ele>93.4</ele>
        <time>2020-01-26T12:22:10Z</time>
      </trkpt>
      <trkpt lat="45.72115" lon="-1.20084">
        <ele>93.8</ele>
        <time>2020-01-26T12:22:11Z</time>
      </trkpt>
      <trkpt lat="45.72114" lon="-1.20083">
        <ele>94.2</ele>
        <time>2020-01-26T12:22:12Z</time>
      </trkpt>
      <trkpt lat="45.72114" lon="-1.20081">
        <ele>94.6</ele>
        <time>2020-01-26T12:22:13Z</time>
      </trkpt>
      <trkpt lat="45.72113" lon="-1.2008">
        <ele>95</ele>
        <time>2020-01-26T12:22:14Z</time>
      </trkpt>
      <trkpt lat="45.72113" lon="-1.20079">
        <ele>95</ele>
        <time>2020-01-26T12:22:15Z</time>
      </trkpt>
      <trkpt lat="45.72113" lon="-1.20076">
        <ele>95</ele>
        <time>2020-01-26T12:22:16Z</time>
      </trkpt>
      <trkpt lat="45.72113" lon="-1.20074">
        <ele>95.2</ele>
        <time>2020-01-26T12:22:17Z</time>
      </trkpt>
      <trkpt lat="45.72113" lon="-1.20072">
        <ele>95.4</ele>
        <time>2020-01-26T12:22:18Z</time>
      </trkpt>
      <trkpt lat="45.72114" lon="-1.2007">
        <ele>95</ele>
        <time>2020-01-26T12:22:19Z</time>
      </trkpt>
      <trkpt lat="45.72115" lon="-1.20069">
        <ele>94.6</ele>
        <time>2020-01-26T12:22:20Z</time>
      </trkpt>
      <trkpt lat="45.72115" lon="-1.20067">
        <ele>94.2</ele>
        <time>2020-01-26T12:22:21Z</time>
      </trkpt>
      <trkpt lat="45.72115" lon="-1.20066">
        <ele>94.4</ele>
        <time>2020-01-26T12:22:22Z</time>
      </trkpt>
      <trkpt lat="45.72115" lon="-1.20063">
        <ele>94.6</ele>
        <time>2020-01-26T12:22:23Z</time>
      </trkpt>
      <trkpt lat="45.72115" lon="-1.20061">
        <ele>94.4</ele>
        <time>2020-01-26T12:22:24Z</time>
      </trkpt>
      <trkpt lat="45.72115" lon="-1.20059">
        <ele>94.2</ele>
        <time>2020-01-26T12:22:25Z</time>
      </trkpt>
      <trkpt lat="45.72115" lon="-1.20057">
        <ele>94.2</ele>
        <time>2020-01-26T12:22:26Z</time>
      </trkpt>
      <trkpt lat="45.72115" lon="-1.20056">
        <ele>94.4</ele>
        <time>2020-01-26T12:22:27Z</time>
      </trkpt>
      <trkpt lat="45.72115" lon="-1.20054">
        <ele>94.6</ele>
        <time>2020-01-26T12:22:28Z</time>
      </trkpt>
      <trkpt lat="45.72115" lon="-1.20052">
        <ele>94.6</ele>
        <time>2020-01-26T12:22:29Z</time>
      </trkpt>
      <trkpt lat="45.72115" lon="-1.20051">
        <ele>95</ele>
        <time>2020-01-26T12:22:30Z</time>
      </trkpt>
      <trkpt lat="45.72115" lon="-1.20049">
        <ele>95.2</ele>
        <time>2020-01-26T12:22:31Z</time>
      </trkpt>
      <trkpt lat="45.72116" lon="-1.20048">
        <ele>95.4</ele>
        <time>2020-01-26T12:22:32Z</time>
      </trkpt>
      <trkpt lat="45.72116" lon="-1.20046">
        <ele>95.4</ele>
        <time>2020-01-26T12:22:33Z</time>
      </trkpt>
      <trkpt lat="45.72117" lon="-1.20045">
        <ele>95.2</ele>
        <time>2020-01-26T12:22:34Z</time>
      </trkpt>
      <trkpt lat="45.72118" lon="-1.20044">
        <ele>95.2</ele>
        <time>2020-01-26T12:22:35Z</time>
      </trkpt>
      <trkpt lat="45.72115" lon="-1.20043">
        <ele>95.4</ele>
        <time>2020-01-26T12:22:36Z</time>
      </trkpt>
      <trkpt lat="45.72116" lon="-1.2004">
        <ele>95.6</ele>
        <time>2020-01-26T12:22:37Z</time>
      </trkpt>
      <trkpt lat="45.72116" lon="-1.20039">
        <ele>95.6</ele>
        <time>2020-01-26T12:22:38Z</time>
      </trkpt>
      <trkpt lat="45.72116" lon="-1.20038">
        <ele>95.8</ele>
        <time>2020-01-26T12:22:39Z</time>
      </trkpt>
      <trkpt lat="45.72116" lon="-1.20037">
        <ele>95.8</ele>
        <time>2020-01-26T12:22:40Z</time>
      </trkpt>
      <trkpt lat="45.72115" lon="-1.20037">
        <ele>96.2</ele>
        <time>2020-01-26T12:22:41Z</time>
      </trkpt>
      <trkpt lat="45.72115" lon="-1.20036">
        <ele>96.4</ele>
        <time>2020-01-26T12:22:42Z</time>
      </trkpt>
      <trkpt lat="45.72115" lon="-1.20036">
        <ele>96.8</ele>
        <time>2020-01-26T12:22:43Z</time>
      </trkpt>
      <trkpt lat="45.72115" lon="-1.20036">
        <ele>97</ele>
        <time>2020-01-26T12:22:44Z</time>
      </trkpt>
      <trkpt lat="45.72115" lon="-1.20035">
        <ele>97.4</ele>
        <time>2020-01-26T12:22:45Z</time>
      </trkpt>
      <trkpt lat="45.72115" lon="-1.20035">
        <ele>97.4</ele>
        <time>2020-01-26T12:22:46Z</time>
      </trkpt>
      <trkpt lat="45.72116" lon="-1.20036">
        <ele>97.4</ele>
        <time>2020-01-26T12:22:47Z</time>
      </trkpt>
      <trkpt lat="45.72116" lon="-1.20035">
        <ele>97.2</ele>
        <time>2020-01-26T12:22:48Z</time>
      </trkpt>
      <trkpt lat="45.72116" lon="-1.20036">
        <ele>97.2</ele>
        <time>2020-01-26T12:22:49Z</time>
      </trkpt>
      <trkpt lat="45.72116" lon="-1.20035">
        <ele>97.4</ele>
        <time>2020-01-26T12:22:50Z</time>
      </trkpt>
      <trkpt lat="45.72116" lon="-1.20036">
        <ele>97.4</ele>
        <time>2020-01-26T12:22:51Z</time>
      </trkpt>
      <trkpt lat="45.72116" lon="-1.20036">
        <ele>97.4</ele>
        <time>2020-01-26T12:22:52Z</time>
      </trkpt>
      <trkpt lat="45.72116" lon="-1.20036">
        <ele>97.6</ele>
        <time>2020-01-26T12:22:53Z</time>
      </trkpt>
      <trkpt lat="45.72116" lon="-1.20036">
        <ele>97.8</ele>
        <time>2020-01-26T12:22:54Z</time>
      </trkpt>
      <trkpt lat="45.72116" lon="-1.20036">
        <ele>97.8</ele>
        <time>2020-01-26T12:22:55Z</time>
      </trkpt>
      <trkpt lat="45.72116" lon="-1.20036">
        <ele>97.8</ele>
        <time>2020-01-26T12:22:56Z</time>
      </trkpt>
      <trkpt lat="45.72116" lon="-1.20036">
        <ele>97.8</ele>
        <time>2020-01-26T12:22:57Z</time>
      </trkpt>
      <trkpt lat="45.72116" lon="-1.20036">
        <ele>98</ele>
        <time>2020-01-26T12:22:58Z</time>
      </trkpt>
      <trkpt lat="45.72116" lon="-1.20036">
        <ele>98</ele>
        <time>2020-01-26T12:22:59Z</time>
      </trkpt>
      <trkpt lat="45.72116" lon="-1.20036">
        <ele>98</ele>
        <time>2020-01-26T12:23:00Z</time>
      </trkpt>
      <trkpt lat="45.72116" lon="-1.20036">
        <ele>98</ele>
        <time>2020-01-26T12:23:01Z</time>
      </trkpt>
      <trkpt lat="45.72116" lon="-1.20036">
        <ele>98</ele>
        <time>2020-01-26T12:23:02Z</time>
      </trkpt>
      <trkpt lat="45.72116" lon="-1.20036">
        <ele>98</ele>
        <time>2020-01-26T12:23:03Z</time>
      </trkpt>
      <trkpt lat="45.72116" lon="-1.20036">
        <ele>98</ele>
        <time>2020-01-26T12:23:04Z</time>
      </trkpt>
      <trkpt lat="45.72116" lon="-1.20036">
        <ele>98</ele>
        <time>2020-01-26T12:23:05Z</time>
      </trkpt>
      <trkpt lat="45.72116" lon="-1.20036">
        <ele>98</ele>
        <time>2020-01-26T12:23:06Z</time>
      </trkpt>
      <trkpt lat="45.72116" lon="-1.20036">
        <ele>98</ele>
        <time>2020-01-26T12:23:07Z</time>
      </trkpt>
      <trkpt lat="45.72116" lon="-1.20036">
        <ele>98</ele>
        <time>2020-01-26T12:23:08Z</time>
      </trkpt>
      <trkpt lat="45.72116" lon="-1.20036">
        <ele>98</ele>
        <time>2020-01-26T12:23:09Z</time>
      </trkpt>
      <trkpt lat="45.72116" lon="-1.20036">
        <ele>98</ele>
        <time>2020-01-26T12:23:10Z</time>
      </trkpt>
      <trkpt lat="45.72116" lon="-1.20036">
        <ele>98</ele>
        <time>2020-01-26T12:23:11Z</time>
      </trkpt>
      <trkpt lat="45.72116" lon="-1.20036">
        <ele>98</ele>
        <time>2020-01-26T12:23:12Z</time>
      </trkpt>
      <trkpt lat="45.72116" lon="-1.20036">
        <ele>98.2</ele>
        <time>2020-01-26T12:23:13Z</time>
      </trkpt>
      <trkpt lat="45.72115" lon="-1.20036">
        <ele>98.2</ele>
        <time>2020-01-26T12:23:14Z</time>
      </trkpt>
      <trkpt lat="45.72116" lon="-1.20035">
        <ele>98.4</ele>
        <time>2020-01-26T12:23:15Z</time>
      </trkpt>
      <trkpt lat="45.72116" lon="-1.20035">
        <ele>98.6</ele>
        <time>2020-01-26T12:23:16Z</time>
      </trkpt>
      <trkpt lat="45.72116" lon="-1.20035">
        <ele>98.6</ele>
        <time>2020-01-26T12:23:17Z</time>
      </trkpt>
      <trkpt lat="45.72115" lon="-1.20035">
        <ele>98.8</ele>
        <time>2020-01-26T12:23:18Z</time>
      </trkpt>
      <trkpt lat="45.72115" lon="-1.20035">
        <ele>98.8</ele>
        <time>2020-01-26T12:23:19Z</time>
      </trkpt>
      <trkpt lat="45.72115" lon="-1.20035">
        <ele>98.8</ele>
        <time>2020-01-26T12:23:20Z</time>
      </trkpt>
      <trkpt lat="45.72115" lon="-1.20035">
        <ele>99.2</ele>
        <time>2020-01-26T12:23:21Z</time>
      </trkpt>
      <trkpt lat="45.72115" lon="-1.20035">
        <ele>99.4</ele>
        <time>2020-01-26T12:23:22Z</time>
      </trkpt>
      <trkpt lat="45.72115" lon="-1.20035">
        <ele>99.6</ele>
        <time>2020-01-26T12:23:23Z</time>
      </trkpt>
      <trkpt lat="45.72114" lon="-1.20035">
        <ele>99.6</ele>
        <time>2020-01-26T12:23:24Z</time>
      </trkpt>
      <trkpt lat="45.72114" lon="-1.20035">
        <ele>99.8</ele>
        <time>2020-01-26T12:23:25Z</time>
      </trkpt>
      <trkpt lat="45.72114" lon="-1.20035">
        <ele>99.8</ele>
        <time>2020-01-26T12:23:26Z</time>
      </trkpt>
      <trkpt lat="45.72114" lon="-1.20035">
        <ele>99.8</ele>
        <time>2020-01-26T12:23:27Z</time>
      </trkpt>
      <trkpt lat="45.72114" lon="-1.20035">
        <ele>99.8</ele>
        <time>2020-01-26T12:23:28Z</time>
      </trkpt>
      <trkpt lat="45.72114" lon="-1.20035">
        <ele>100</ele>
        <time>2020-01-26T12:23:29Z</time>
      </trkpt>
      <trkpt lat="45.72114" lon="-1.20035">
        <ele>100</ele>
        <time>2020-01-26T12:23:30Z</time>
      </trkpt>
      <trkpt lat="45.72114" lon="-1.20035">
        <ele>100</ele>
        <time>2020-01-26T12:23:31Z</time>
      </trkpt>
      <trkpt lat="45.72114" lon="-1.20035">
        <ele>100</ele>
        <time>2020-01-26T12:23:32Z</time>
      </trkpt>
      <trkpt lat="45.72114" lon="-1.20035">
        <ele>100</ele>
        <time>2020-01-26T12:23:33Z</time>
      </trkpt>
      <trkpt lat="45.72114" lon="-1.20035">
        <ele>100</ele>
        <time>2020-01-26T12:23:34Z</time>
      </trkpt>
      <trkpt lat="45.72114" lon="-1.20035">
        <ele>100</ele>
        <time>2020-01-26T12:23:35Z</time>
      </trkpt>
      <trkpt lat="45.72114" lon="-1.20035">
        <ele>100</ele>
        <time>2020-01-26T12:23:36Z</time>
      </trkpt>
      <trkpt lat="45.72114" lon="-1.20035">
        <ele>100</ele>
        <time>2020-01-26T12:23:37Z</time>
      </trkpt>
      <trkpt lat="45.72114" lon="-1.20035">
        <ele>100</ele>
        <time>2020-01-26T12:23:38Z</time>
      </trkpt>
      <trkpt lat="45.72114" lon="-1.20035">
        <ele>100</ele>
        <time>2020-01-26T12:23:39Z</time>
      </trkpt>
      <trkpt lat="45.72114" lon="-1.20035">
        <ele>100</ele>
        <time>2020-01-26T12:23:40Z</time>
      </trkpt>
      <trkpt lat="45.72114" lon="-1.20035">
        <ele>100</ele>
        <time>2020-01-26T12:23:41Z</time>
      </trkpt>
      <trkpt lat="45.72114" lon="-1.20035">
        <ele>100</ele>
        <time>2020-01-26T12:23:42Z</time>
      </trkpt>
      <trkpt lat="45.72114" lon="-1.20035">
        <ele>100</ele>
        <time>2020-01-26T12:23:43Z</time>
      </trkpt>
      <trkpt lat="45.72114" lon="-1.20035">
        <ele>100</ele>
        <time>2020-01-26T12:23:44Z</time>
      </trkpt>
      <trkpt lat="45.72114" lon="-1.20035">
        <ele>100</ele>
        <time>2020-01-26T12:23:45Z</time>
      </trkpt>
      <trkpt lat="45.72114" lon="-1.20035">
        <ele>100</ele>
        <time>2020-01-26T12:23:46Z</time>
      </trkpt>
      <trkpt lat="45.72114" lon="-1.20035">
        <ele>100</ele>
        <time>2020-01-26T12:23:47Z</time>
      </trkpt>
      <trkpt lat="45.72114" lon="-1.20035">
        <ele>100</ele>
        <time>2020-01-26T12:23:48Z</time>
      </trkpt>
      <trkpt lat="45.72114" lon="-1.20035">
        <ele>100</ele>
        <time>2020-01-26T12:23:49Z</time>
      </trkpt>
      <trkpt lat="45.72114" lon="-1.20035">
        <ele>100</ele>
        <time>2020-01-26T12:23:50Z</time>
      </trkpt>
      <trkpt lat="45.72114" lon="-1.20035">
        <ele>100</ele>
        <time>2020-01-26T12:23:51Z</time>
      </trkpt>
      <trkpt lat="45.72114" lon="-1.20035">
        <ele>100</ele>
        <time>2020-01-26T12:23:52Z</time>
      </trkpt>
      <trkpt lat="45.72114" lon="-1.20035">
        <ele>100</ele>
        <time>2020-01-26T12:23:53Z</time>
      </trkpt>
      <trkpt lat="45.72114" lon="-1.20035">
        <ele>100</ele>
        <time>2020-01-26T12:23:54Z</time>
      </trkpt>
      <trkpt lat="45.72114" lon="-1.20035">
        <ele>100</ele>
        <time>2020-01-26T12:23:55Z</time>
      </trkpt>
      <trkpt lat="45.72114" lon="-1.20035">
        <ele>100</ele>
        <time>2020-01-26T12:23:56Z</time>
      </trkpt>
      <trkpt lat="45.72114" lon="-1.20035">
        <ele>100</ele>
        <time>2020-01-26T12:23:57Z</time>
      </trkpt>
      <trkpt lat="45.72114" lon="-1.20035">
        <ele>100</ele>
        <time>2020-01-26T12:23:58Z</time>
      </trkpt>
      <trkpt lat="45.72114" lon="-1.20035">
        <ele>100</ele>
        <time>2020-01-26T12:23:59Z</time>
      </trkpt>
      <trkpt lat="45.72114" lon="-1.20035">
        <ele>100</ele>
        <time>2020-01-26T12:24:00Z</time>
      </trkpt>
      <trkpt lat="45.72114" lon="-1.20035">
        <ele>100</ele>
        <time>2020-01-26T12:24:01Z</time>
      </trkpt>
      <trkpt lat="45.72114" lon="-1.20035">
        <ele>100</ele>
        <time>2020-01-26T12:24:02Z</time>
      </trkpt>
      <trkpt lat="45.72114" lon="-1.20035">
        <ele>100</ele>
        <time>2020-01-26T12:24:03Z</time>
      </trkpt>
      <trkpt lat="45.72114" lon="-1.20035">
        <ele>100</ele>
        <time>2020-01-26T12:24:04Z</time>
      </trkpt>
      <trkpt lat="45.72114" lon="-1.20035">
        <ele>100</ele>
        <time>2020-01-26T12:24:05Z</time>
      </trkpt>
      <trkpt lat="45.72114" lon="-1.20035">
        <ele>100</ele>
        <time>2020-01-26T12:24:06Z</time>
      </trkpt>
      <trkpt lat="45.72114" lon="-1.20035">
        <ele>100</ele>
        <time>2020-01-26T12:24:07Z</time>
      </trkpt>
      <trkpt lat="45.72114" lon="-1.20035">
        <ele>100</ele>
        <time>2020-01-26T12:24:08Z</time>
      </trkpt>
      <trkpt lat="45.72114" lon="-1.20035">
        <ele>100</ele>
        <time>2020-01-26T12:24:09Z</time>
      </trkpt>
      <trkpt lat="45.72114" lon="-1.20035">
        <ele>100</ele>
        <time>2020-01-26T12:24:10Z</time>
      </trkpt>
      <trkpt lat="45.72114" lon="-1.20035">
        <ele>100</ele>
        <time>2020-01-26T12:24:11Z</time>
      </trkpt>
      <trkpt lat="45.72114" lon="-1.20035">
        <ele>100</ele>
        <time>2020-01-26T12:24:12Z</time>
      </trkpt>
      <trkpt lat="45.72114" lon="-1.20035">
        <ele>100</ele>
        <time>2020-01-26T12:24:13Z</time>
      </trkpt>
      <trkpt lat="45.72114" lon="-1.20035">
        <ele>100</ele>
        <time>2020-01-26T12:24:14Z</time>
      </trkpt>
      <trkpt lat="45.72114" lon="-1.20035">
        <ele>100</ele>
        <time>2020-01-26T12:24:15Z</time>
      </trkpt>
      <trkpt lat="45.72114" lon="-1.20035">
        <ele>100</ele>
        <time>2020-01-26T12:24:16Z</time>
      </trkpt>
      <trkpt lat="45.72114" lon="-1.20035">
        <ele>100</ele>
        <time>2020-01-26T12:24:17Z</time>
      </trkpt>
      <trkpt lat="45.72114" lon="-1.20035">
        <ele>100</ele>
        <time>2020-01-26T12:24:18Z</time>
      </trkpt>
      <trkpt lat="45.72114" lon="-1.20035">
        <ele>100</ele>
        <time>2020-01-26T12:24:19Z</time>
      </trkpt>
      <trkpt lat="45.72114" lon="-1.20035">
        <ele>100</ele>
        <time>2020-01-26T12:24:20Z</time>
      </trkpt>
      <trkpt lat="45.72114" lon="-1.20035">
        <ele>100</ele>
        <time>2020-01-26T12:24:21Z</time>
      </trkpt>
      <trkpt lat="45.72114" lon="-1.20035">
        <ele>100</ele>
        <time>2020-01-26T12:24:22Z</time>
      </trkpt>
      <trkpt lat="45.72114" lon="-1.20035">
        <ele>100</ele>
        <time>2020-01-26T12:24:23Z</time>
      </trkpt>
      <trkpt lat="45.72114" lon="-1.20035">
        <ele>100</ele>
        <time>2020-01-26T12:24:24Z</time>
      </trkpt>
      <trkpt lat="45.72114" lon="-1.20035">
        <ele>100</ele>
        <time>2020-01-26T12:24:25Z</time>
      </trkpt>
      <trkpt lat="45.72114" lon="-1.20035">
        <ele>100</ele>
        <time>2020-01-26T12:24:26Z</time>
      </trkpt>
      <trkpt lat="45.72114" lon="-1.20035">
        <ele>100</ele>
        <time>2020-01-26T12:24:27Z</time>
      </trkpt>
      <trkpt lat="45.72114" lon="-1.20035">
        <ele>100</ele>
        <time>2020-01-26T12:24:28Z</time>
      </trkpt>
      <trkpt lat="45.72114" lon="-1.20034">
        <ele>100</ele>
        <time>2020-01-26T12:24:29Z</time>
      </trkpt>
      <trkpt lat="45.72113" lon="-1.20033">
        <ele>100</ele>
        <time>2020-01-26T12:24:30Z</time>
      </trkpt>
      <trkpt lat="45.72113" lon="-1.20031">
        <ele>99.8</ele>
        <time>2020-01-26T12:24:31Z</time>
      </trkpt>
      <trkpt lat="45.72112" lon="-1.20028">
        <ele>99.6</ele>
        <time>2020-01-26T12:24:32Z</time>
      </trkpt>
      <trkpt lat="45.72111" lon="-1.20025">
        <ele>99.4</ele>
        <time>2020-01-26T12:24:33Z</time>
      </trkpt>
      <trkpt lat="45.7211" lon="-1.20023">
        <ele>99.6</ele>
        <time>2020-01-26T12:24:34Z</time>
      </trkpt>
      <trkpt lat="45.7211" lon="-1.20019">
        <ele>98.8</ele>
        <time>2020-01-26T12:24:35Z</time>
      </trkpt>
      <trkpt lat="45.72109" lon="-1.20016">
        <ele>98.2</ele>
        <time>2020-01-26T12:24:36Z</time>
      </trkpt>
      <trkpt lat="45.72109" lon="-1.20013">
        <ele>97.4</ele>
        <time>2020-01-26T12:24:37Z</time>
      </trkpt>
      <trkpt lat="45.72109" lon="-1.20012">
        <ele>96</ele>
        <time>2020-01-26T12:24:38Z</time>
      </trkpt>
      <trkpt lat="45.72108" lon="-1.20009">
        <ele>94.6</ele>
        <time>2020-01-26T12:24:39Z</time>
      </trkpt>
      <trkpt lat="45.72108" lon="-1.20004">
        <ele>93.2</ele>
        <time>2020-01-26T12:24:40Z</time>
      </trkpt>
      <trkpt lat="45.72109" lon="-1.2">
        <ele>91.8</ele>
        <time>2020-01-26T12:24:41Z</time>
      </trkpt>
      <trkpt lat="45.72109" lon="-1.19996">
        <ele>90.4</ele>
        <time>2020-01-26T12:24:42Z</time>
      </trkpt>
      <trkpt lat="45.72108" lon="-1.19992">
        <ele>88.8</ele>
        <time>2020-01-26T12:24:43Z</time>
      </trkpt>
      <trkpt lat="45.72108" lon="-1.19987">
        <ele>87.4</ele>
        <time>2020-01-26T12:24:44Z</time>
      </trkpt>
      <trkpt lat="45.72107" lon="-1.19984">
        <ele>85.8</ele>
        <time>2020-01-26T12:24:45Z</time>
      </trkpt>
      <trkpt lat="45.72107" lon="-1.19979">
        <ele>84.2</ele>
        <time>2020-01-26T12:24:46Z</time>
      </trkpt>
      <trkpt lat="45.72107" lon="-1.19973">
        <ele>82.8</ele>
        <time>2020-01-26T12:24:47Z</time>
      </trkpt>
      <trkpt lat="45.72107" lon="-1.19966">
        <ele>81.4</ele>
        <time>2020-01-26T12:24:48Z</time>
      </trkpt>
      <trkpt lat="45.72107" lon="-1.19959">
        <ele>80</ele>
        <time>2020-01-26T12:24:49Z</time>
      </trkpt>
      <trkpt lat="45.72105" lon="-1.19952">
        <ele>78.4</ele>
        <time>2020-01-26T12:24:50Z</time>
      </trkpt>
      <trkpt lat="45.72105" lon="-1.19943">
        <ele>77</ele>
        <time>2020-01-26T12:24:51Z</time>
      </trkpt>
      <trkpt lat="45.72104" lon="-1.19932">
        <ele>75.8</ele>
        <time>2020-01-26T12:24:52Z</time>
      </trkpt>
      <trkpt lat="45.72104" lon="-1.1992">
        <ele>74.4</ele>
        <time>2020-01-26T12:24:53Z</time>
      </trkpt>
      <trkpt lat="45.72105" lon="-1.19907">
        <ele>73.2</ele>
        <time>2020-01-26T12:24:54Z</time>
      </trkpt>
      <trkpt lat="45.72105" lon="-1.19895">
        <ele>72.2</ele>
        <time>2020-01-26T12:24:55Z</time>
      </trkpt>
      <trkpt lat="45.72104" lon="-1.19885">
        <ele>71.2</ele>
        <time>2020-01-26T12:24:56Z</time>
      </trkpt>
      <trkpt lat="45.72102" lon="-1.19874">
        <ele>70.8</ele>
        <time>2020-01-26T12:24:57Z</time>
      </trkpt>
      <trkpt lat="45.72102" lon="-1.19865">
        <ele>71</ele>
        <time>2020-01-26T12:24:58Z</time>
      </trkpt>
      <trkpt lat="45.72102" lon="-1.19854">
        <ele>71</ele>
        <time>2020-01-26T12:24:59Z</time>
      </trkpt>
      <trkpt lat="45.72102" lon="-1.19844">
        <ele>71</ele>
        <time>2020-01-26T12:25:00Z</time>
      </trkpt>
      <trkpt lat="45.72102" lon="-1.19837">
        <ele>71</ele>
        <time>2020-01-26T12:25:01Z</time>
      </trkpt>
      <trkpt lat="45.72102" lon="-1.1983">
        <ele>71.2</ele>
        <time>2020-01-26T12:25:02Z</time>
      </trkpt>
      <trkpt lat="45.721" lon="-1.19821">
        <ele>71.2</ele>
        <time>2020-01-26T12:25:03Z</time>
      </trkpt>
      <trkpt lat="45.72104" lon="-1.19816">
        <ele>70.6</ele>
        <time>2020-01-26T12:25:04Z</time>
      </trkpt>
      <trkpt lat="45.72104" lon="-1.19812">
        <ele>69.6</ele>
        <time>2020-01-26T12:25:05Z</time>
      </trkpt>
      <trkpt lat="45.72103" lon="-1.19808">
        <ele>69</ele>
        <time>2020-01-26T12:25:06Z</time>
      </trkpt>
      <trkpt lat="45.72104" lon="-1.19808">
        <ele>68.6</ele>
        <time>2020-01-26T12:25:07Z</time>
      </trkpt>
      <trkpt lat="45.72103" lon="-1.19808">
        <ele>68.2</ele>
        <time>2020-01-26T12:25:08Z</time>
      </trkpt>
      <trkpt lat="45.72103" lon="-1.19808">
        <ele>68.2</ele>
        <time>2020-01-26T12:25:09Z</time>
      </trkpt>
      <trkpt lat="45.72102" lon="-1.19808">
        <ele>68</ele>
        <time>2020-01-26T12:25:10Z</time>
      </trkpt>
      <trkpt lat="45.72102" lon="-1.19808">
        <ele>68.4</ele>
        <time>2020-01-26T12:25:11Z</time>
      </trkpt>
      <trkpt lat="45.72101" lon="-1.19807">
        <ele>68.4</ele>
        <time>2020-01-26T12:25:12Z</time>
      </trkpt>
      <trkpt lat="45.721" lon="-1.19807">
        <ele>68.6</ele>
        <time>2020-01-26T12:25:13Z</time>
      </trkpt>
      <trkpt lat="45.721" lon="-1.19806">
        <ele>69</ele>
        <time>2020-01-26T12:25:14Z</time>
      </trkpt>
      <trkpt lat="45.72099" lon="-1.19805">
        <ele>69</ele>
        <time>2020-01-26T12:25:15Z</time>
      </trkpt>
      <trkpt lat="45.72099" lon="-1.19805">
        <ele>68.8</ele>
        <time>2020-01-26T12:25:16Z</time>
      </trkpt>
      <trkpt lat="45.72099" lon="-1.19806">
        <ele>68.2</ele>
        <time>2020-01-26T12:25:17Z</time>
      </trkpt>
      <trkpt lat="45.72099" lon="-1.19806">
        <ele>68</ele>
        <time>2020-01-26T12:25:18Z</time>
      </trkpt>
      <trkpt lat="45.72099" lon="-1.19805">
        <ele>68</ele>
        <time>2020-01-26T12:25:19Z</time>
      </trkpt>
      <trkpt lat="45.72099" lon="-1.19805">
        <ele>68</ele>
        <time>2020-01-26T12:25:20Z</time>
      </trkpt>
      <trkpt lat="45.72099" lon="-1.19805">
        <ele>68</ele>
        <time>2020-01-26T12:25:21Z</time>
      </trkpt>
      <trkpt lat="45.72099" lon="-1.19806">
        <ele>67.8</ele>
        <time>2020-01-26T12:25:22Z</time>
      </trkpt>
      <trkpt lat="45.721" lon="-1.19806">
        <ele>67</ele>
        <time>2020-01-26T12:25:23Z</time>
      </trkpt>
      <trkpt lat="45.72102" lon="-1.19808">
        <ele>66.6</ele>
        <time>2020-01-26T12:25:24Z</time>
      </trkpt>
      <trkpt lat="45.72104" lon="-1.19809">
        <ele>66.2</ele>
        <time>2020-01-26T12:25:25Z</time>
      </trkpt>
      <trkpt lat="45.72105" lon="-1.19811">
        <ele>65.6</ele>
        <time>2020-01-26T12:25:26Z</time>
      </trkpt>
      <trkpt lat="45.72107" lon="-1.19813">
        <ele>65</ele>
        <time>2020-01-26T12:25:27Z</time>
      </trkpt>
      <trkpt lat="45.72109" lon="-1.19815">
        <ele>64.4</ele>
        <time>2020-01-26T12:25:28Z</time>
      </trkpt>
      <trkpt lat="45.72112" lon="-1.19816">
        <ele>64</ele>
        <time>2020-01-26T12:25:29Z</time>
      </trkpt>
      <trkpt lat="45.72115" lon="-1.19818">
        <ele>63.8</ele>
        <time>2020-01-26T12:25:30Z</time>
      </trkpt>
      <trkpt lat="45.72118" lon="-1.1982">
        <ele>63.8</ele>
        <time>2020-01-26T12:25:31Z</time>
      </trkpt>
      <trkpt lat="45.72121" lon="-1.19821">
        <ele>63.4</ele>
        <time>2020-01-26T12:25:32Z</time>
      </trkpt>
      <trkpt lat="45.72124" lon="-1.19823">
        <ele>62.8</ele>
        <time>2020-01-26T12:25:33Z</time>
      </trkpt>
      <trkpt lat="45.72126" lon="-1.19825">
        <ele>62.4</ele>
        <time>2020-01-26T12:25:34Z</time>
      </trkpt>
      <trkpt lat="45.72129" lon="-1.19826">
        <ele>62.2</ele>
        <time>2020-01-26T12:25:35Z</time>
      </trkpt>
      <trkpt lat="45.72131" lon="-1.19827">
        <ele>62</ele>
        <time>2020-01-26T12:25:36Z</time>
      </trkpt>
      <trkpt lat="45.72135" lon="-1.19829">
        <ele>62</ele>
        <time>2020-01-26T12:25:37Z</time>
      </trkpt>
      <trkpt lat="45.72138" lon="-1.19829">
        <ele>62.2</ele>
        <time>2020-01-26T12:25:38Z</time>
      </trkpt>
      <trkpt lat="45.7214" lon="-1.19828">
        <ele>62.4</ele>
        <time>2020-01-26T12:25:39Z</time>
      </trkpt>
      <trkpt lat="45.72143" lon="-1.19829">
        <ele>62</ele>
        <time>2020-01-26T12:25:40Z</time>
      </trkpt>
      <trkpt lat="45.72145" lon="-1.19829">
        <ele>61</ele>
        <time>2020-01-26T12:25:41Z</time>
      </trkpt>
      <trkpt lat="45.72148" lon="-1.1983">
        <ele>60.2</ele>
        <time>2020-01-26T12:25:42Z</time>
      </trkpt>
      <trkpt lat="45.72152" lon="-1.19829">
        <ele>59.6</ele>
        <time>2020-01-26T12:25:43Z</time>
      </trkpt>
      <trkpt lat="45.72152" lon="-1.19825">
        <ele>59.2</ele>
        <time>2020-01-26T12:25:44Z</time>
      </trkpt>
      <trkpt lat="45.72153" lon="-1.19823">
        <ele>59</ele>
        <time>2020-01-26T12:25:45Z</time>
      </trkpt>
      <trkpt lat="45.72155" lon="-1.19822">
        <ele>58.4</ele>
        <time>2020-01-26T12:25:46Z</time>
      </trkpt>
      <trkpt lat="45.72158" lon="-1.19822">
        <ele>58.6</ele>
        <time>2020-01-26T12:25:47Z</time>
      </trkpt>
      <trkpt lat="45.72161" lon="-1.19823">
        <ele>59.2</ele>
        <time>2020-01-26T12:25:48Z</time>
      </trkpt>
      <trkpt lat="45.72169" lon="-1.19825">
        <ele>60</ele>
        <time>2020-01-26T12:25:49Z</time>
      </trkpt>
      <trkpt lat="45.72176" lon="-1.19828">
        <ele>60</ele>
        <time>2020-01-26T12:25:50Z</time>
      </trkpt>
      <trkpt lat="45.72178" lon="-1.1983">
        <ele>60.6</ele>
        <time>2020-01-26T12:25:51Z</time>
      </trkpt>
      <trkpt lat="45.7218" lon="-1.19832">
        <ele>61.4</ele>
        <time>2020-01-26T12:25:52Z</time>
      </trkpt>
      <trkpt lat="45.72182" lon="-1.19835">
        <ele>61.6</ele>
        <time>2020-01-26T12:25:53Z</time>
      </trkpt>
      <trkpt lat="45.72185" lon="-1.19838">
        <ele>61.8</ele>
        <time>2020-01-26T12:25:54Z</time>
      </trkpt>
      <trkpt lat="45.72188" lon="-1.1984">
        <ele>61.4</ele>
        <time>2020-01-26T12:25:55Z</time>
      </trkpt>
      <trkpt lat="45.72191" lon="-1.19842">
        <ele>61.2</ele>
        <time>2020-01-26T12:25:56Z</time>
      </trkpt>
      <trkpt lat="45.72196" lon="-1.19844">
        <ele>61.2</ele>
        <time>2020-01-26T12:25:57Z</time>
      </trkpt>
      <trkpt lat="45.72201" lon="-1.19846">
        <ele>61.4</ele>
        <time>2020-01-26T12:25:58Z</time>
      </trkpt>
      <trkpt lat="45.72209" lon="-1.19846">
        <ele>61.8</ele>
        <time>2020-01-26T12:25:59Z</time>
      </trkpt>
      <trkpt lat="45.72217" lon="-1.19849">
        <ele>62.8</ele>
        <time>2020-01-26T12:26:00Z</time>
      </trkpt>
      <trkpt lat="45.72219" lon="-1.19853">
        <ele>63</ele>
        <time>2020-01-26T12:26:01Z</time>
      </trkpt>
      <trkpt lat="45.72222" lon="-1.19856">
        <ele>63.2</ele>
        <time>2020-01-26T12:26:02Z</time>
      </trkpt>
      <trkpt lat="45.72224" lon="-1.19859">
        <ele>63.6</ele>
        <time>2020-01-26T12:26:03Z</time>
      </trkpt>
      <trkpt lat="45.72228" lon="-1.19861">
        <ele>63.4</ele>
        <time>2020-01-26T12:26:04Z</time>
      </trkpt>
      <trkpt lat="45.72231" lon="-1.19864">
        <ele>63.2</ele>
        <time>2020-01-26T12:26:05Z</time>
      </trkpt>
      <trkpt lat="45.72235" lon="-1.19861">
        <ele>62</ele>
        <time>2020-01-26T12:26:06Z</time>
      </trkpt>
      <trkpt lat="45.7224" lon="-1.19861">
        <ele>60.4</ele>
        <time>2020-01-26T12:26:07Z</time>
      </trkpt>
      <trkpt lat="45.72243" lon="-1.19861">
        <ele>60</ele>
        <time>2020-01-26T12:26:08Z</time>
      </trkpt>
      <trkpt lat="45.72247" lon="-1.19861">
        <ele>59.6</ele>
        <time>2020-01-26T12:26:09Z</time>
      </trkpt>
      <trkpt lat="45.72252" lon="-1.19866">
        <ele>58.8</ele>
        <time>2020-01-26T12:26:10Z</time>
      </trkpt>
      <trkpt lat="45.72257" lon="-1.19867">
        <ele>58.4</ele>
        <time>2020-01-26T12:26:11Z</time>
      </trkpt>
      <trkpt lat="45.72261" lon="-1.19868">
        <ele>58</ele>
        <time>2020-01-26T12:26:12Z</time>
      </trkpt>
      <trkpt lat="45.72266" lon="-1.1987">
        <ele>57.8</ele>
        <time>2020-01-26T12:26:13Z</time>
      </trkpt>
      <trkpt lat="45.72269" lon="-1.19872">
        <ele>57.4</ele>
        <time>2020-01-26T12:26:14Z</time>
      </trkpt>
      <trkpt lat="45.72275" lon="-1.19873">
        <ele>57.2</ele>
        <time>2020-01-26T12:26:15Z</time>
      </trkpt>
      <trkpt lat="45.7228" lon="-1.19874">
        <ele>57</ele>
        <time>2020-01-26T12:26:16Z</time>
      </trkpt>
      <trkpt lat="45.72284" lon="-1.19873">
        <ele>57</ele>
        <time>2020-01-26T12:26:17Z</time>
      </trkpt>
      <trkpt lat="45.72287" lon="-1.19874">
        <ele>57</ele>
        <time>2020-01-26T12:26:18Z</time>
      </trkpt>
      <trkpt lat="45.72291" lon="-1.19874">
        <ele>57</ele>
        <time>2020-01-26T12:26:19Z</time>
      </trkpt>
      <trkpt lat="45.72295" lon="-1.19874">
        <ele>57.6</ele>
        <time>2020-01-26T12:26:20Z</time>
      </trkpt>
      <trkpt lat="45.723" lon="-1.19875">
        <ele>58.2</ele>
        <time>2020-01-26T12:26:21Z</time>
      </trkpt>
      <trkpt lat="45.72304" lon="-1.19875">
        <ele>58.6</ele>
        <time>2020-01-26T12:26:22Z</time>
      </trkpt>
      <trkpt lat="45.72307" lon="-1.19875">
        <ele>59.2</ele>
        <time>2020-01-26T12:26:23Z</time>
      </trkpt>
      <trkpt lat="45.7231" lon="-1.19875">
        <ele>59.2</ele>
        <time>2020-01-26T12:26:24Z</time>
      </trkpt>
      <trkpt lat="45.72313" lon="-1.19875">
        <ele>59.2</ele>
        <time>2020-01-26T12:26:25Z</time>
      </trkpt>
      <trkpt lat="45.72317" lon="-1.19875">
        <ele>58.8</ele>
        <time>2020-01-26T12:26:26Z</time>
      </trkpt>
      <trkpt lat="45.72321" lon="-1.19874">
        <ele>58.6</ele>
        <time>2020-01-26T12:26:27Z</time>
      </trkpt>
      <trkpt lat="45.72325" lon="-1.19873">
        <ele>58.8</ele>
        <time>2020-01-26T12:26:28Z</time>
      </trkpt>
      <trkpt lat="45.72329" lon="-1.19873">
        <ele>58.8</ele>
        <time>2020-01-26T12:26:29Z</time>
      </trkpt>
      <trkpt lat="45.72332" lon="-1.19872">
        <ele>58.8</ele>
        <time>2020-01-26T12:26:30Z</time>
      </trkpt>
      <trkpt lat="45.72335" lon="-1.19871">
        <ele>59.2</ele>
        <time>2020-01-26T12:26:31Z</time>
      </trkpt>
      <trkpt lat="45.72338" lon="-1.19869">
        <ele>59.6</ele>
        <time>2020-01-26T12:26:32Z</time>
      </trkpt>
      <trkpt lat="45.7234" lon="-1.19867">
        <ele>59.8</ele>
        <time>2020-01-26T12:26:33Z</time>
      </trkpt>
      <trkpt lat="45.72343" lon="-1.19865">
        <ele>60.2</ele>
        <time>2020-01-26T12:26:34Z</time>
      </trkpt>
      <trkpt lat="45.72346" lon="-1.19862">
        <ele>60.2</ele>
        <time>2020-01-26T12:26:35Z</time>
      </trkpt>
      <trkpt lat="45.7235" lon="-1.19859">
        <ele>60.4</ele>
        <time>2020-01-26T12:26:36Z</time>
      </trkpt>
      <trkpt lat="45.72353" lon="-1.19857">
        <ele>60.8</ele>
        <time>2020-01-26T12:26:37Z</time>
      </trkpt>
      <trkpt lat="45.72357" lon="-1.19854">
        <ele>60.8</ele>
        <time>2020-01-26T12:26:38Z</time>
      </trkpt>
      <trkpt lat="45.7236" lon="-1.1985">
        <ele>60.6</ele>
        <time>2020-01-26T12:26:39Z</time>
      </trkpt>
      <trkpt lat="45.72364" lon="-1.19846">
        <ele>60.2</ele>
        <time>2020-01-26T12:26:40Z</time>
      </trkpt>
      <trkpt lat="45.72369" lon="-1.19842">
        <ele>59.6</ele>
        <time>2020-01-26T12:26:41Z</time>
      </trkpt>
      <trkpt lat="45.72375" lon="-1.19838">
        <ele>59.4</ele>
        <time>2020-01-26T12:26:42Z</time>
      </trkpt>
      <trkpt lat="45.7238" lon="-1.19835">
        <ele>59.6</ele>
        <time>2020-01-26T12:26:43Z</time>
      </trkpt>
      <trkpt lat="45.72385" lon="-1.1983">
        <ele>59.8</ele>
        <time>2020-01-26T12:26:44Z</time>
      </trkpt>
      <trkpt lat="45.7239" lon="-1.19826">
        <ele>60</ele>
        <time>2020-01-26T12:26:45Z</time>
      </trkpt>
      <trkpt lat="45.72393" lon="-1.19821">
        <ele>60</ele>
        <time>2020-01-26T12:26:46Z</time>
      </trkpt>
      <trkpt lat="45.72397" lon="-1.19817">
        <ele>59.8</ele>
        <time>2020-01-26T12:26:47Z</time>
      </trkpt>
      <trkpt lat="45.724" lon="-1.19813">
        <ele>59.6</ele>
        <time>2020-01-26T12:26:48Z</time>
      </trkpt>
      <trkpt lat="45.72404" lon="-1.19809">
        <ele>59.6</ele>
        <time>2020-01-26T12:26:49Z</time>
      </trkpt>
      <trkpt lat="45.72407" lon="-1.19805">
        <ele>60</ele>
        <time>2020-01-26T12:26:50Z</time>
      </trkpt>
      <trkpt lat="45.72411" lon="-1.19802">
        <ele>59.6</ele>
        <time>2020-01-26T12:26:51Z</time>
      </trkpt>
      <trkpt lat="45.72414" lon="-1.19799">
        <ele>59.4</ele>
        <time>2020-01-26T12:26:52Z</time>
      </trkpt>
      <trkpt lat="45.72418" lon="-1.19796">
        <ele>59.2</ele>
        <time>2020-01-26T12:26:53Z</time>
      </trkpt>
      <trkpt lat="45.72422" lon="-1.19792">
        <ele>59.2</ele>
        <time>2020-01-26T12:26:54Z</time>
      </trkpt>
      <trkpt lat="45.72425" lon="-1.19787">
        <ele>59.2</ele>
        <time>2020-01-26T12:26:55Z</time>
      </trkpt>
      <trkpt lat="45.72429" lon="-1.19783">
        <ele>59.2</ele>
        <time>2020-01-26T12:26:56Z</time>
      </trkpt>
      <trkpt lat="45.72432" lon="-1.19778">
        <ele>59</ele>
        <time>2020-01-26T12:26:57Z</time>
      </trkpt>
      <trkpt lat="45.72435" lon="-1.19772">
        <ele>59</ele>
        <time>2020-01-26T12:26:58Z</time>
      </trkpt>
      <trkpt lat="45.72438" lon="-1.19766">
        <ele>59</ele>
        <time>2020-01-26T12:26:59Z</time>
      </trkpt>
      <trkpt lat="45.72441" lon="-1.19761">
        <ele>59</ele>
        <time>2020-01-26T12:27:00Z</time>
      </trkpt>
      <trkpt lat="45.72445" lon="-1.19756">
        <ele>59.2</ele>
        <time>2020-01-26T12:27:01Z</time>
      </trkpt>
      <trkpt lat="45.72448" lon="-1.19752">
        <ele>59.4</ele>
        <time>2020-01-26T12:27:02Z</time>
      </trkpt>
      <trkpt lat="45.7245" lon="-1.19748">
        <ele>59.8</ele>
        <time>2020-01-26T12:27:03Z</time>
      </trkpt>
      <trkpt lat="45.72453" lon="-1.19744">
        <ele>60.2</ele>
        <time>2020-01-26T12:27:04Z</time>
      </trkpt>
      <trkpt lat="45.72456" lon="-1.1974">
        <ele>60.4</ele>
        <time>2020-01-26T12:27:05Z</time>
      </trkpt>
      <trkpt lat="45.72458" lon="-1.19735">
        <ele>60.6</ele>
        <time>2020-01-26T12:27:06Z</time>
      </trkpt>
      <trkpt lat="45.72461" lon="-1.19729">
        <ele>60.6</ele>
        <time>2020-01-26T12:27:07Z</time>
      </trkpt>
      <trkpt lat="45.72463" lon="-1.19726">
        <ele>60.8</ele>
        <time>2020-01-26T12:27:08Z</time>
      </trkpt>
      <trkpt lat="45.72466" lon="-1.19723">
        <ele>60.8</ele>
        <time>2020-01-26T12:27:09Z</time>
      </trkpt>
      <trkpt lat="45.72469" lon="-1.19718">
        <ele>60.6</ele>
        <time>2020-01-26T12:27:10Z</time>
      </trkpt>
      <trkpt lat="45.7247" lon="-1.19716">
        <ele>60.4</ele>
        <time>2020-01-26T12:27:11Z</time>
      </trkpt>
      <trkpt lat="45.72474" lon="-1.19713">
        <ele>60.6</ele>
        <time>2020-01-26T12:27:12Z</time>
      </trkpt>
      <trkpt lat="45.72476" lon="-1.1971">
        <ele>60.8</ele>
        <time>2020-01-26T12:27:13Z</time>
      </trkpt>
      <trkpt lat="45.72479" lon="-1.19707">
        <ele>61</ele>
        <time>2020-01-26T12:27:14Z</time>
      </trkpt>
      <trkpt lat="45.72481" lon="-1.19705">
        <ele>61.6</ele>
        <time>2020-01-26T12:27:15Z</time>
      </trkpt>
      <trkpt lat="45.72483" lon="-1.19702">
        <ele>62.2</ele>
        <time>2020-01-26T12:27:16Z</time>
      </trkpt>
      <trkpt lat="45.72485" lon="-1.19701">
        <ele>62.6</ele>
        <time>2020-01-26T12:27:17Z</time>
      </trkpt>
      <trkpt lat="45.72486" lon="-1.19699">
        <ele>63</ele>
        <time>2020-01-26T12:27:18Z</time>
      </trkpt>
      <trkpt lat="45.72488" lon="-1.19697">
        <ele>63</ele>
        <time>2020-01-26T12:27:19Z</time>
      </trkpt>
      <trkpt lat="45.7249" lon="-1.19696">
        <ele>63.2</ele>
        <time>2020-01-26T12:27:20Z</time>
      </trkpt>
      <trkpt lat="45.72491" lon="-1.19695">
        <ele>62.6</ele>
        <time>2020-01-26T12:27:21Z</time>
      </trkpt>
      <trkpt lat="45.72491" lon="-1.19694">
        <ele>62.2</ele>
        <time>2020-01-26T12:27:22Z</time>
      </trkpt>
      <trkpt lat="45.72492" lon="-1.19693">
        <ele>61.6</ele>
        <time>2020-01-26T12:27:23Z</time>
      </trkpt>
      <trkpt lat="45.72493" lon="-1.19691">
        <ele>61.6</ele>
        <time>2020-01-26T12:27:24Z</time>
      </trkpt>
      <trkpt lat="45.72495" lon="-1.19689">
        <ele>61.4</ele>
        <time>2020-01-26T12:27:25Z</time>
      </trkpt>
      <trkpt lat="45.72495" lon="-1.19688">
        <ele>61.6</ele>
        <time>2020-01-26T12:27:26Z</time>
      </trkpt>
      <trkpt lat="45.72497" lon="-1.19686">
        <ele>62</ele>
        <time>2020-01-26T12:27:27Z</time>
      </trkpt>
      <trkpt lat="45.72498" lon="-1.19685">
        <ele>62.2</ele>
        <time>2020-01-26T12:27:28Z</time>
      </trkpt>
      <trkpt lat="45.725" lon="-1.19684">
        <ele>62.6</ele>
        <time>2020-01-26T12:27:29Z</time>
      </trkpt>
      <trkpt lat="45.72503" lon="-1.19684">
        <ele>63.2</ele>
        <time>2020-01-26T12:27:30Z</time>
      </trkpt>
      <trkpt lat="45.72504" lon="-1.19682">
        <ele>64</ele>
        <time>2020-01-26T12:27:31Z</time>
      </trkpt>
      <trkpt lat="45.72506" lon="-1.19679">
        <ele>64.4</ele>
        <time>2020-01-26T12:27:32Z</time>
      </trkpt>
      <trkpt lat="45.72507" lon="-1.19677">
        <ele>65.2</ele>
        <time>2020-01-26T12:27:33Z</time>
      </trkpt>
      <trkpt lat="45.72508" lon="-1.19677">
        <ele>65.6</ele>
        <time>2020-01-26T12:27:34Z</time>
      </trkpt>
      <trkpt lat="45.72511" lon="-1.19675">
        <ele>65.6</ele>
        <time>2020-01-26T12:27:35Z</time>
      </trkpt>
      <trkpt lat="45.72512" lon="-1.19673">
        <ele>65.4</ele>
        <time>2020-01-26T12:27:36Z</time>
      </trkpt>
      <trkpt lat="45.72514" lon="-1.19672">
        <ele>65.4</ele>
        <time>2020-01-26T12:27:37Z</time>
      </trkpt>
      <trkpt lat="45.72515" lon="-1.19671">
        <ele>65.6</ele>
        <time>2020-01-26T12:27:38Z</time>
      </trkpt>
      <trkpt lat="45.72517" lon="-1.19669">
        <ele>65.6</ele>
        <time>2020-01-26T12:27:39Z</time>
      </trkpt>
      <trkpt lat="45.72519" lon="-1.19668">
        <ele>65.8</ele>
        <time>2020-01-26T12:27:40Z</time>
      </trkpt>
      <trkpt lat="45.7252" lon="-1.19666">
        <ele>65.6</ele>
        <time>2020-01-26T12:27:41Z</time>
      </trkpt>
      <trkpt lat="45.72521" lon="-1.19664">
        <ele>65.2</ele>
        <time>2020-01-26T12:27:42Z</time>
      </trkpt>
      <trkpt lat="45.72522" lon="-1.19663">
        <ele>64.8</ele>
        <time>2020-01-26T12:27:43Z</time>
      </trkpt>
      <trkpt lat="45.72524" lon="-1.19661">
        <ele>65.2</ele>
        <time>2020-01-26T12:27:44Z</time>
      </trkpt>
      <trkpt lat="45.72526" lon="-1.19659">
        <ele>65.2</ele>
        <time>2020-01-26T12:27:45Z</time>
      </trkpt>
      <trkpt lat="45.72527" lon="-1.19657">
        <ele>65</ele>
        <time>2020-01-26T12:27:46Z</time>
      </trkpt>
      <trkpt lat="45.72528" lon="-1.19654">
        <ele>65</ele>
        <time>2020-01-26T12:27:47Z</time>
      </trkpt>
      <trkpt lat="45.72529" lon="-1.19652">
        <ele>65.4</ele>
        <time>2020-01-26T12:27:48Z</time>
      </trkpt>
      <trkpt lat="45.72531" lon="-1.19649">
        <ele>65.8</ele>
        <time>2020-01-26T12:27:49Z</time>
      </trkpt>
      <trkpt lat="45.72532" lon="-1.19648">
        <ele>66</ele>
        <time>2020-01-26T12:27:50Z</time>
      </trkpt>
      <trkpt lat="45.72533" lon="-1.19645">
        <ele>66.2</ele>
        <time>2020-01-26T12:27:51Z</time>
      </trkpt>
      <trkpt lat="45.72535" lon="-1.19643">
        <ele>66.4</ele>
        <time>2020-01-26T12:27:52Z</time>
      </trkpt>
      <trkpt lat="45.72535" lon="-1.19641">
        <ele>66.8</ele>
        <time>2020-01-26T12:27:53Z</time>
      </trkpt>
      <trkpt lat="45.72535" lon="-1.19638">
        <ele>67.4</ele>
        <time>2020-01-26T12:27:54Z</time>
      </trkpt>
      <trkpt lat="45.72535" lon="-1.19635">
        <ele>67.8</ele>
        <time>2020-01-26T12:27:55Z</time>
      </trkpt>
      <trkpt lat="45.72535" lon="-1.19632">
        <ele>68.2</ele>
        <time>2020-01-26T12:27:56Z</time>
      </trkpt>
      <trkpt lat="45.72536" lon="-1.19629">
        <ele>68.6</ele>
        <time>2020-01-26T12:27:57Z</time>
      </trkpt>
      <trkpt lat="45.72536" lon="-1.19626">
        <ele>68.6</ele>
        <time>2020-01-26T12:27:58Z</time>
      </trkpt>
      <trkpt lat="45.72537" lon="-1.19622">
        <ele>69</ele>
        <time>2020-01-26T12:27:59Z</time>
      </trkpt>
      <trkpt lat="45.72538" lon="-1.1962">
        <ele>69.2</ele>
        <time>2020-01-26T12:28:00Z</time>
      </trkpt>
      <trkpt lat="45.72539" lon="-1.19617">
        <ele>69</ele>
        <time>2020-01-26T12:28:01Z</time>
      </trkpt>
      <trkpt lat="45.7254" lon="-1.19613">
        <ele>68.6</ele>
        <time>2020-01-26T12:28:02Z</time>
      </trkpt>
      <trkpt lat="45.7254" lon="-1.1961">
        <ele>68.6</ele>
        <time>2020-01-26T12:28:03Z</time>
      </trkpt>
      <trkpt lat="45.72541" lon="-1.19604">
        <ele>68.2</ele>
        <time>2020-01-26T12:28:04Z</time>
      </trkpt>
      <trkpt lat="45.72542" lon="-1.19599">
        <ele>67.8</ele>
        <time>2020-01-26T12:28:05Z</time>
      </trkpt>
      <trkpt lat="45.72544" lon="-1.19596">
        <ele>67.4</ele>
        <time>2020-01-26T12:28:06Z</time>
      </trkpt>
      <trkpt lat="45.72546" lon="-1.19592">
        <ele>67</ele>
        <time>2020-01-26T12:28:07Z</time>
      </trkpt>
      <trkpt lat="45.72548" lon="-1.19585">
        <ele>66.8</ele>
        <time>2020-01-26T12:28:08Z</time>
      </trkpt>
      <trkpt lat="45.72549" lon="-1.19579">
        <ele>66.4</ele>
        <time>2020-01-26T12:28:09Z</time>
      </trkpt>
      <trkpt lat="45.72551" lon="-1.19571">
        <ele>66.2</ele>
        <time>2020-01-26T12:28:10Z</time>
      </trkpt>
      <trkpt lat="45.72552" lon="-1.19565">
        <ele>66</ele>
        <time>2020-01-26T12:28:11Z</time>
      </trkpt>
      <trkpt lat="45.72554" lon="-1.19557">
        <ele>65.8</ele>
        <time>2020-01-26T12:28:12Z</time>
      </trkpt>
      <trkpt lat="45.72556" lon="-1.19551">
        <ele>65.8</ele>
        <time>2020-01-26T12:28:13Z</time>
      </trkpt>
      <trkpt lat="45.72557" lon="-1.19544">
        <ele>65.8</ele>
        <time>2020-01-26T12:28:14Z</time>
      </trkpt>
      <trkpt lat="45.72559" lon="-1.19536">
        <ele>65.8</ele>
        <time>2020-01-26T12:28:15Z</time>
      </trkpt>
      <trkpt lat="45.72562" lon="-1.1953">
        <ele>65.8</ele>
        <time>2020-01-26T12:28:16Z</time>
      </trkpt>
      <trkpt lat="45.72565" lon="-1.19526">
        <ele>65.6</ele>
        <time>2020-01-26T12:28:17Z</time>
      </trkpt>
      <trkpt lat="45.72569" lon="-1.19521">
        <ele>65.6</ele>
        <time>2020-01-26T12:28:18Z</time>
      </trkpt>
      <trkpt lat="45.72572" lon="-1.19515">
        <ele>65.6</ele>
        <time>2020-01-26T12:28:19Z</time>
      </trkpt>
      <trkpt lat="45.72577" lon="-1.19511">
        <ele>65.8</ele>
        <time>2020-01-26T12:28:20Z</time>
      </trkpt>
      <trkpt lat="45.7258" lon="-1.19509">
        <ele>66</ele>
        <time>2020-01-26T12:28:21Z</time>
      </trkpt>
      <trkpt lat="45.72585" lon="-1.19507">
        <ele>66.6</ele>
        <time>2020-01-26T12:28:22Z</time>
      </trkpt>
      <trkpt lat="45.72591" lon="-1.19509">
        <ele>66.4</ele>
        <time>2020-01-26T12:28:23Z</time>
      </trkpt>
      <trkpt lat="45.72597" lon="-1.19509">
        <ele>66.2</ele>
        <time>2020-01-26T12:28:24Z</time>
      </trkpt>
      <trkpt lat="45.72603" lon="-1.19505">
        <ele>66.2</ele>
        <time>2020-01-26T12:28:25Z</time>
      </trkpt>
      <trkpt lat="45.72609" lon="-1.19499">
        <ele>65.4</ele>
        <time>2020-01-26T12:28:26Z</time>
      </trkpt>
      <trkpt lat="45.72614" lon="-1.19492">
        <ele>64.2</ele>
        <time>2020-01-26T12:28:27Z</time>
      </trkpt>
      <trkpt lat="45.7262" lon="-1.19485">
        <ele>63.2</ele>
        <time>2020-01-26T12:28:28Z</time>
      </trkpt>
      <trkpt lat="45.72626" lon="-1.19477">
        <ele>62.4</ele>
        <time>2020-01-26T12:28:29Z</time>
      </trkpt>
      <trkpt lat="45.72633" lon="-1.19472">
        <ele>61.8</ele>
        <time>2020-01-26T12:28:30Z</time>
      </trkpt>
      <trkpt lat="45.72641" lon="-1.19469">
        <ele>61</ele>
        <time>2020-01-26T12:28:31Z</time>
      </trkpt>
      <trkpt lat="45.72647" lon="-1.19471">
        <ele>60.6</ele>
        <time>2020-01-26T12:28:32Z</time>
      </trkpt>
      <trkpt lat="45.72651" lon="-1.19475">
        <ele>60.2</ele>
        <time>2020-01-26T12:28:33Z</time>
      </trkpt>
      <trkpt lat="45.72655" lon="-1.19481">
        <ele>59.4</ele>
        <time>2020-01-26T12:28:34Z</time>
      </trkpt>
      <trkpt lat="45.72657" lon="-1.19487">
        <ele>58.6</ele>
        <time>2020-01-26T12:28:35Z</time>
      </trkpt>
      <trkpt lat="45.7266" lon="-1.19496">
        <ele>58</ele>
        <time>2020-01-26T12:28:36Z</time>
      </trkpt>
      <trkpt lat="45.72661" lon="-1.19504">
        <ele>58.2</ele>
        <time>2020-01-26T12:28:37Z</time>
      </trkpt>
      <trkpt lat="45.72662" lon="-1.19512">
        <ele>58.4</ele>
        <time>2020-01-26T12:28:38Z</time>
      </trkpt>
      <trkpt lat="45.72663" lon="-1.19519">
        <ele>58.6</ele>
        <time>2020-01-26T12:28:39Z</time>
      </trkpt>
      <trkpt lat="45.72662" lon="-1.19527">
        <ele>59</ele>
        <time>2020-01-26T12:28:40Z</time>
      </trkpt>
      <trkpt lat="45.72663" lon="-1.19537">
        <ele>59.2</ele>
        <time>2020-01-26T12:28:41Z</time>
      </trkpt>
      <trkpt lat="45.72664" lon="-1.19543">
        <ele>59.4</ele>
        <time>2020-01-26T12:28:42Z</time>
      </trkpt>
      <trkpt lat="45.72664" lon="-1.1955">
        <ele>59.8</ele>
        <time>2020-01-26T12:28:43Z</time>
      </trkpt>
      <trkpt lat="45.72667" lon="-1.19556">
        <ele>60.4</ele>
        <time>2020-01-26T12:28:44Z</time>
      </trkpt>
      <trkpt lat="45.7267" lon="-1.19561">
        <ele>60.6</ele>
        <time>2020-01-26T12:28:45Z</time>
      </trkpt>
      <trkpt lat="45.72672" lon="-1.19565">
        <ele>60.4</ele>
        <time>2020-01-26T12:28:46Z</time>
      </trkpt>
      <trkpt lat="45.72673" lon="-1.1957">
        <ele>60.2</ele>
        <time>2020-01-26T12:28:47Z</time>
      </trkpt>
      <trkpt lat="45.72676" lon="-1.19574">
        <ele>60.2</ele>
        <time>2020-01-26T12:28:48Z</time>
      </trkpt>
      <trkpt lat="45.72679" lon="-1.19577">
        <ele>60.2</ele>
        <time>2020-01-26T12:28:49Z</time>
      </trkpt>
      <trkpt lat="45.72684" lon="-1.19578">
        <ele>59.6</ele>
        <time>2020-01-26T12:28:50Z</time>
      </trkpt>
      <trkpt lat="45.72688" lon="-1.19577">
        <ele>59.4</ele>
        <time>2020-01-26T12:28:51Z</time>
      </trkpt>
      <trkpt lat="45.72691" lon="-1.19578">
        <ele>59.4</ele>
        <time>2020-01-26T12:28:52Z</time>
      </trkpt>
      <trkpt lat="45.72696" lon="-1.1958">
        <ele>59.8</ele>
        <time>2020-01-26T12:28:53Z</time>
      </trkpt>
      <trkpt lat="45.72702" lon="-1.19584">
        <ele>60.6</ele>
        <time>2020-01-26T12:28:54Z</time>
      </trkpt>
      <trkpt lat="45.72705" lon="-1.19587">
        <ele>60.4</ele>
        <time>2020-01-26T12:28:55Z</time>
      </trkpt>
      <trkpt lat="45.72708" lon="-1.19589">
        <ele>60</ele>
        <time>2020-01-26T12:28:56Z</time>
      </trkpt>
      <trkpt lat="45.72713" lon="-1.19593">
        <ele>59.8</ele>
        <time>2020-01-26T12:28:57Z</time>
      </trkpt>
      <trkpt lat="45.72717" lon="-1.19597">
        <ele>59.6</ele>
        <time>2020-01-26T12:28:58Z</time>
      </trkpt>
      <trkpt lat="45.72721" lon="-1.19599">
        <ele>59.4</ele>
        <time>2020-01-26T12:28:59Z</time>
      </trkpt>
      <trkpt lat="45.72723" lon="-1.196">
        <ele>59.4</ele>
        <time>2020-01-26T12:29:00Z</time>
      </trkpt>
      <trkpt lat="45.72726" lon="-1.19603">
        <ele>59.2</ele>
        <time>2020-01-26T12:29:01Z</time>
      </trkpt>
      <trkpt lat="45.72729" lon="-1.19605">
        <ele>59.4</ele>
        <time>2020-01-26T12:29:02Z</time>
      </trkpt>
      <trkpt lat="45.72735" lon="-1.19608">
        <ele>59.6</ele>
        <time>2020-01-26T12:29:03Z</time>
      </trkpt>
      <trkpt lat="45.7274" lon="-1.19611">
        <ele>60</ele>
        <time>2020-01-26T12:29:04Z</time>
      </trkpt>
      <trkpt lat="45.72745" lon="-1.19612">
        <ele>60.4</ele>
        <time>2020-01-26T12:29:05Z</time>
      </trkpt>
      <trkpt lat="45.72751" lon="-1.19611">
        <ele>60.4</ele>
        <time>2020-01-26T12:29:06Z</time>
      </trkpt>
      <trkpt lat="45.72757" lon="-1.1961">
        <ele>60</ele>
        <time>2020-01-26T12:29:07Z</time>
      </trkpt>
      <trkpt lat="45.72762" lon="-1.19609">
        <ele>59.8</ele>
        <time>2020-01-26T12:29:08Z</time>
      </trkpt>
      <trkpt lat="45.72766" lon="-1.19607">
        <ele>60</ele>
        <time>2020-01-26T12:29:09Z</time>
      </trkpt>
      <trkpt lat="45.72772" lon="-1.19603">
        <ele>60.4</ele>
        <time>2020-01-26T12:29:10Z</time>
      </trkpt>
      <trkpt lat="45.72777" lon="-1.19601">
        <ele>61.2</ele>
        <time>2020-01-26T12:29:11Z</time>
      </trkpt>
      <trkpt lat="45.72781" lon="-1.19598">
        <ele>61.6</ele>
        <time>2020-01-26T12:29:12Z</time>
      </trkpt>
      <trkpt lat="45.72785" lon="-1.19596">
        <ele>61.2</ele>
        <time>2020-01-26T12:29:13Z</time>
      </trkpt>
      <trkpt lat="45.7279" lon="-1.19594">
        <ele>61</ele>
        <time>2020-01-26T12:29:14Z</time>
      </trkpt>
      <trkpt lat="45.72795" lon="-1.19592">
        <ele>60.6</ele>
        <time>2020-01-26T12:29:15Z</time>
      </trkpt>
      <trkpt lat="45.72799" lon="-1.19592">
        <ele>60.2</ele>
        <time>2020-01-26T12:29:16Z</time>
      </trkpt>
      <trkpt lat="45.72802" lon="-1.19592">
        <ele>59.2</ele>
        <time>2020-01-26T12:29:17Z</time>
      </trkpt>
      <trkpt lat="45.72805" lon="-1.19591">
        <ele>58.2</ele>
        <time>2020-01-26T12:29:18Z</time>
      </trkpt>
      <trkpt lat="45.72809" lon="-1.19593">
        <ele>57.6</ele>
        <time>2020-01-26T12:29:19Z</time>
      </trkpt>
      <trkpt lat="45.72812" lon="-1.19594">
        <ele>57</ele>
        <time>2020-01-26T12:29:20Z</time>
      </trkpt>
      <trkpt lat="45.72815" lon="-1.19596">
        <ele>56.8</ele>
        <time>2020-01-26T12:29:21Z</time>
      </trkpt>
      <trkpt lat="45.72818" lon="-1.19598">
        <ele>56.8</ele>
        <time>2020-01-26T12:29:22Z</time>
      </trkpt>
      <trkpt lat="45.72821" lon="-1.196">
        <ele>57.2</ele>
        <time>2020-01-26T12:29:23Z</time>
      </trkpt>
      <trkpt lat="45.72826" lon="-1.19602">
        <ele>57.8</ele>
        <time>2020-01-26T12:29:24Z</time>
      </trkpt>
      <trkpt lat="45.7283" lon="-1.19604">
        <ele>58.4</ele>
        <time>2020-01-26T12:29:25Z</time>
      </trkpt>
      <trkpt lat="45.72834" lon="-1.19605">
        <ele>58.8</ele>
        <time>2020-01-26T12:29:26Z</time>
      </trkpt>
      <trkpt lat="45.7284" lon="-1.19604">
        <ele>58.8</ele>
        <time>2020-01-26T12:29:27Z</time>
      </trkpt>
      <trkpt lat="45.72845" lon="-1.19603">
        <ele>59</ele>
        <time>2020-01-26T12:29:28Z</time>
      </trkpt>
      <trkpt lat="45.72851" lon="-1.19602">
        <ele>59.4</ele>
        <time>2020-01-26T12:29:29Z</time>
      </trkpt>
      <trkpt lat="45.72857" lon="-1.19602">
        <ele>59.8</ele>
        <time>2020-01-26T12:29:30Z</time>
      </trkpt>
      <trkpt lat="45.72861" lon="-1.196">
        <ele>60.2</ele>
        <time>2020-01-26T12:29:31Z</time>
      </trkpt>
      <trkpt lat="45.72866" lon="-1.19599">
        <ele>60.4</ele>
        <time>2020-01-26T12:29:32Z</time>
      </trkpt>
      <trkpt lat="45.72871" lon="-1.19599">
        <ele>60.4</ele>
        <time>2020-01-26T12:29:33Z</time>
      </trkpt>
      <trkpt lat="45.72874" lon="-1.19598">
        <ele>60.6</ele>
        <time>2020-01-26T12:29:34Z</time>
      </trkpt>
      <trkpt lat="45.72876" lon="-1.19598">
        <ele>60.8</ele>
        <time>2020-01-26T12:29:35Z</time>
      </trkpt>
      <trkpt lat="45.72879" lon="-1.19598">
        <ele>60.8</ele>
        <time>2020-01-26T12:29:36Z</time>
      </trkpt>
      <trkpt lat="45.72881" lon="-1.19597">
        <ele>61.2</ele>
        <time>2020-01-26T12:29:37Z</time>
      </trkpt>
      <trkpt lat="45.72883" lon="-1.19597">
        <ele>61.8</ele>
        <time>2020-01-26T12:29:38Z</time>
      </trkpt>
      <trkpt lat="45.72885" lon="-1.19596">
        <ele>63</ele>
        <time>2020-01-26T12:29:39Z</time>
      </trkpt>
      <trkpt lat="45.72888" lon="-1.19594">
        <ele>64.2</ele>
        <time>2020-01-26T12:29:40Z</time>
      </trkpt>
      <trkpt lat="45.7289" lon="-1.19593">
        <ele>65.4</ele>
        <time>2020-01-26T12:29:41Z</time>
      </trkpt>
      <trkpt lat="45.72893" lon="-1.19593">
        <ele>66.4</ele>
        <time>2020-01-26T12:29:42Z</time>
      </trkpt>
      <trkpt lat="45.72896" lon="-1.19592">
        <ele>67</ele>
        <time>2020-01-26T12:29:43Z</time>
      </trkpt>
      <trkpt lat="45.72898" lon="-1.19593">
        <ele>67.2</ele>
        <time>2020-01-26T12:29:44Z</time>
      </trkpt>
      <trkpt lat="45.729" lon="-1.19594">
        <ele>67.2</ele>
        <time>2020-01-26T12:29:45Z</time>
      </trkpt>
      <trkpt lat="45.72902" lon="-1.19594">
        <ele>66.8</ele>
        <time>2020-01-26T12:29:46Z</time>
      </trkpt>
      <trkpt lat="45.72905" lon="-1.19595">
        <ele>66.6</ele>
        <time>2020-01-26T12:29:47Z</time>
      </trkpt>
      <trkpt lat="45.72907" lon="-1.19596">
        <ele>67.2</ele>
        <time>2020-01-26T12:29:48Z</time>
      </trkpt>
      <trkpt lat="45.7291" lon="-1.19597">
        <ele>67.6</ele>
        <time>2020-01-26T12:29:49Z</time>
      </trkpt>
      <trkpt lat="45.72912" lon="-1.19598">
        <ele>68.2</ele>
        <time>2020-01-26T12:29:50Z</time>
      </trkpt>
      <trkpt lat="45.72914" lon="-1.19599">
        <ele>68.4</ele>
        <time>2020-01-26T12:29:51Z</time>
      </trkpt>
      <trkpt lat="45.72916" lon="-1.19599">
        <ele>68.4</ele>
        <time>2020-01-26T12:29:52Z</time>
      </trkpt>
      <trkpt lat="45.72919" lon="-1.19598">
        <ele>68.2</ele>
        <time>2020-01-26T12:29:53Z</time>
      </trkpt>
      <trkpt lat="45.72921" lon="-1.19597">
        <ele>67.6</ele>
        <time>2020-01-26T12:29:54Z</time>
      </trkpt>
      <trkpt lat="45.72923" lon="-1.19596">
        <ele>67.2</ele>
        <time>2020-01-26T12:29:55Z</time>
      </trkpt>
      <trkpt lat="45.72926" lon="-1.19594">
        <ele>67</ele>
        <time>2020-01-26T12:29:56Z</time>
      </trkpt>
      <trkpt lat="45.72927" lon="-1.19592">
        <ele>66.6</ele>
        <time>2020-01-26T12:29:57Z</time>
      </trkpt>
      <trkpt lat="45.72929" lon="-1.1959">
        <ele>66.2</ele>
        <time>2020-01-26T12:29:58Z</time>
      </trkpt>
      <trkpt lat="45.72932" lon="-1.1959">
        <ele>66</ele>
        <time>2020-01-26T12:29:59Z</time>
      </trkpt>
      <trkpt lat="45.72933" lon="-1.1959">
        <ele>65.4</ele>
        <time>2020-01-26T12:30:00Z</time>
      </trkpt>
      <trkpt lat="45.72935" lon="-1.19591">
        <ele>65</ele>
        <time>2020-01-26T12:30:01Z</time>
      </trkpt>
      <trkpt lat="45.7294" lon="-1.19593">
        <ele>64.8</ele>
        <time>2020-01-26T12:30:02Z</time>
      </trkpt>
      <trkpt lat="45.72942" lon="-1.19595">
        <ele>64.6</ele>
        <time>2020-01-26T12:30:03Z</time>
      </trkpt>
      <trkpt lat="45.72942" lon="-1.19598">
        <ele>64.2</ele>
        <time>2020-01-26T12:30:04Z</time>
      </trkpt>
      <trkpt lat="45.72943" lon="-1.19598">
        <ele>64.2</ele>
        <time>2020-01-26T12:30:05Z</time>
      </trkpt>
      <trkpt lat="45.72945" lon="-1.19599">
        <ele>63.8</ele>
        <time>2020-01-26T12:30:06Z</time>
      </trkpt>
      <trkpt lat="45.72947" lon="-1.19602">
        <ele>63.6</ele>
        <time>2020-01-26T12:30:07Z</time>
      </trkpt>
      <trkpt lat="45.72949" lon="-1.19604">
        <ele>63.2</ele>
        <time>2020-01-26T12:30:08Z</time>
      </trkpt>
      <trkpt lat="45.7295" lon="-1.19606">
        <ele>63</ele>
        <time>2020-01-26T12:30:09Z</time>
      </trkpt>
      <trkpt lat="45.72953" lon="-1.19609">
        <ele>62.6</ele>
        <time>2020-01-26T12:30:10Z</time>
      </trkpt>
      <trkpt lat="45.72955" lon="-1.19612">
        <ele>62.6</ele>
        <time>2020-01-26T12:30:11Z</time>
      </trkpt>
      <trkpt lat="45.72958" lon="-1.19616">
        <ele>62.6</ele>
        <time>2020-01-26T12:30:12Z</time>
      </trkpt>
      <trkpt lat="45.7296" lon="-1.1962">
        <ele>62.8</ele>
        <time>2020-01-26T12:30:13Z</time>
      </trkpt>
      <trkpt lat="45.72964" lon="-1.19623">
        <ele>62.8</ele>
        <time>2020-01-26T12:30:14Z</time>
      </trkpt>
      <trkpt lat="45.72967" lon="-1.19626">
        <ele>63</ele>
        <time>2020-01-26T12:30:15Z</time>
      </trkpt>
      <trkpt lat="45.7297" lon="-1.19629">
        <ele>62.8</ele>
        <time>2020-01-26T12:30:16Z</time>
      </trkpt>
      <trkpt lat="45.72972" lon="-1.19631">
        <ele>62.6</ele>
        <time>2020-01-26T12:30:17Z</time>
      </trkpt>
      <trkpt lat="45.72975" lon="-1.19635">
        <ele>62.2</ele>
        <time>2020-01-26T12:30:18Z</time>
      </trkpt>
      <trkpt lat="45.72978" lon="-1.19639">
        <ele>62.2</ele>
        <time>2020-01-26T12:30:19Z</time>
      </trkpt>
      <trkpt lat="45.7298" lon="-1.19642">
        <ele>62.6</ele>
        <time>2020-01-26T12:30:20Z</time>
      </trkpt>
      <trkpt lat="45.72982" lon="-1.19645">
        <ele>63.4</ele>
        <time>2020-01-26T12:30:21Z</time>
      </trkpt>
      <trkpt lat="45.72984" lon="-1.19648">
        <ele>64</ele>
        <time>2020-01-26T12:30:22Z</time>
      </trkpt>
      <trkpt lat="45.72984" lon="-1.19651">
        <ele>64</ele>
        <time>2020-01-26T12:30:23Z</time>
      </trkpt>
      <trkpt lat="45.72985" lon="-1.19654">
        <ele>64.4</ele>
        <time>2020-01-26T12:30:24Z</time>
      </trkpt>
      <trkpt lat="45.72987" lon="-1.19657">
        <ele>64.8</ele>
        <time>2020-01-26T12:30:25Z</time>
      </trkpt>
      <trkpt lat="45.72988" lon="-1.1966">
        <ele>65</ele>
        <time>2020-01-26T12:30:26Z</time>
      </trkpt>
      <trkpt lat="45.7299" lon="-1.19663">
        <ele>65.4</ele>
        <time>2020-01-26T12:30:27Z</time>
      </trkpt>
      <trkpt lat="45.7299" lon="-1.19666">
        <ele>65.8</ele>
        <time>2020-01-26T12:30:28Z</time>
      </trkpt>
      <trkpt lat="45.7299" lon="-1.19668">
        <ele>65.8</ele>
        <time>2020-01-26T12:30:29Z</time>
      </trkpt>
      <trkpt lat="45.7299" lon="-1.19672">
        <ele>65.6</ele>
        <time>2020-01-26T12:30:30Z</time>
      </trkpt>
      <trkpt lat="45.7299" lon="-1.19674">
        <ele>65.4</ele>
        <time>2020-01-26T12:30:31Z</time>
      </trkpt>
      <trkpt lat="45.7299" lon="-1.19676">
        <ele>65.4</ele>
        <time>2020-01-26T12:30:32Z</time>
      </trkpt>
      <trkpt lat="45.7299" lon="-1.19679">
        <ele>65.2</ele>
        <time>2020-01-26T12:30:33Z</time>
      </trkpt>
      <trkpt lat="45.72992" lon="-1.19682">
        <ele>65.2</ele>
        <time>2020-01-26T12:30:34Z</time>
      </trkpt>
      <trkpt lat="45.72992" lon="-1.19684">
        <ele>65.4</ele>
        <time>2020-01-26T12:30:35Z</time>
      </trkpt>
      <trkpt lat="45.72993" lon="-1.19687">
        <ele>65</ele>
        <time>2020-01-26T12:30:36Z</time>
      </trkpt>
      <trkpt lat="45.72994" lon="-1.19691">
        <ele>65.2</ele>
        <time>2020-01-26T12:30:37Z</time>
      </trkpt>
      <trkpt lat="45.72996" lon="-1.19694">
        <ele>65.4</ele>
        <time>2020-01-26T12:30:38Z</time>
      </trkpt>
      <trkpt lat="45.72997" lon="-1.19697">
        <ele>65.6</ele>
        <time>2020-01-26T12:30:39Z</time>
      </trkpt>
      <trkpt lat="45.72999" lon="-1.197">
        <ele>65.8</ele>
        <time>2020-01-26T12:30:40Z</time>
      </trkpt>
      <trkpt lat="45.73001" lon="-1.19703">
        <ele>66</ele>
        <time>2020-01-26T12:30:41Z</time>
      </trkpt>
      <trkpt lat="45.73002" lon="-1.19706">
        <ele>66.2</ele>
        <time>2020-01-26T12:30:42Z</time>
      </trkpt>
      <trkpt lat="45.73003" lon="-1.19708">
        <ele>66.4</ele>
        <time>2020-01-26T12:30:43Z</time>
      </trkpt>
      <trkpt lat="45.73003" lon="-1.1971">
        <ele>66.6</ele>
        <time>2020-01-26T12:30:44Z</time>
      </trkpt>
      <trkpt lat="45.73004" lon="-1.19712">
        <ele>67</ele>
        <time>2020-01-26T12:30:45Z</time>
      </trkpt>
      <trkpt lat="45.73004" lon="-1.19715">
        <ele>67</ele>
        <time>2020-01-26T12:30:46Z</time>
      </trkpt>
      <trkpt lat="45.73004" lon="-1.19717">
        <ele>67.6</ele>
        <time>2020-01-26T12:30:47Z</time>
      </trkpt>
      <trkpt lat="45.73004" lon="-1.19719">
        <ele>68.2</ele>
        <time>2020-01-26T12:30:48Z</time>
      </trkpt>
      <trkpt lat="45.73005" lon="-1.19721">
        <ele>68.4</ele>
        <time>2020-01-26T12:30:49Z</time>
      </trkpt>
      <trkpt lat="45.73004" lon="-1.19723">
        <ele>68.8</ele>
        <time>2020-01-26T12:30:50Z</time>
      </trkpt>
      <trkpt lat="45.73004" lon="-1.19724">
        <ele>69.4</ele>
        <time>2020-01-26T12:30:51Z</time>
      </trkpt>
      <trkpt lat="45.73005" lon="-1.19725">
        <ele>70</ele>
        <time>2020-01-26T12:30:52Z</time>
      </trkpt>
      <trkpt lat="45.73006" lon="-1.19727">
        <ele>70.6</ele>
        <time>2020-01-26T12:30:53Z</time>
      </trkpt>
      <trkpt lat="45.73006" lon="-1.19729">
        <ele>70.8</ele>
        <time>2020-01-26T12:30:54Z</time>
      </trkpt>
      <trkpt lat="45.73006" lon="-1.19731">
        <ele>70.8</ele>
        <time>2020-01-26T12:30:55Z</time>
      </trkpt>
      <trkpt lat="45.73005" lon="-1.19732">
        <ele>71</ele>
        <time>2020-01-26T12:30:56Z</time>
      </trkpt>
      <trkpt lat="45.73005" lon="-1.19734">
        <ele>70.6</ele>
        <time>2020-01-26T12:30:57Z</time>
      </trkpt>
      <trkpt lat="45.73004" lon="-1.19736">
        <ele>70.2</ele>
        <time>2020-01-26T12:30:58Z</time>
      </trkpt>
      <trkpt lat="45.73004" lon="-1.19738">
        <ele>70</ele>
        <time>2020-01-26T12:30:59Z</time>
      </trkpt>
      <trkpt lat="45.73004" lon="-1.19741">
        <ele>69.8</ele>
        <time>2020-01-26T12:31:00Z</time>
      </trkpt>
      <trkpt lat="45.73004" lon="-1.19743">
        <ele>69.6</ele>
        <time>2020-01-26T12:31:01Z</time>
      </trkpt>
      <trkpt lat="45.73005" lon="-1.19745">
        <ele>69.4</ele>
        <time>2020-01-26T12:31:02Z</time>
      </trkpt>
      <trkpt lat="45.73005" lon="-1.19747">
        <ele>69.4</ele>
        <time>2020-01-26T12:31:03Z</time>
      </trkpt>
      <trkpt lat="45.73005" lon="-1.19749">
        <ele>69.4</ele>
        <time>2020-01-26T12:31:04Z</time>
      </trkpt>
      <trkpt lat="45.73004" lon="-1.19752">
        <ele>69.6</ele>
        <time>2020-01-26T12:31:05Z</time>
      </trkpt>
      <trkpt lat="45.73005" lon="-1.19754">
        <ele>69.4</ele>
        <time>2020-01-26T12:31:06Z</time>
      </trkpt>
      <trkpt lat="45.73005" lon="-1.19756">
        <ele>69.4</ele>
        <time>2020-01-26T12:31:07Z</time>
      </trkpt>
      <trkpt lat="45.73004" lon="-1.19758">
        <ele>69</ele>
        <time>2020-01-26T12:31:08Z</time>
      </trkpt>
      <trkpt lat="45.73004" lon="-1.1976">
        <ele>68.8</ele>
        <time>2020-01-26T12:31:09Z</time>
      </trkpt>
      <trkpt lat="45.73004" lon="-1.19762">
        <ele>68.6</ele>
        <time>2020-01-26T12:31:10Z</time>
      </trkpt>
      <trkpt lat="45.73004" lon="-1.19763">
        <ele>68.2</ele>
        <time>2020-01-26T12:31:11Z</time>
      </trkpt>
      <trkpt lat="45.73003" lon="-1.19765">
        <ele>67.8</ele>
        <time>2020-01-26T12:31:12Z</time>
      </trkpt>
      <trkpt lat="45.73003" lon="-1.19766">
        <ele>68</ele>
        <time>2020-01-26T12:31:13Z</time>
      </trkpt>
      <trkpt lat="45.73003" lon="-1.19768">
        <ele>68</ele>
        <time>2020-01-26T12:31:14Z</time>
      </trkpt>
      <trkpt lat="45.73002" lon="-1.19769">
        <ele>68.2</ele>
        <time>2020-01-26T12:31:15Z</time>
      </trkpt>
      <trkpt lat="45.73003" lon="-1.19771">
        <ele>68.6</ele>
        <time>2020-01-26T12:31:16Z</time>
      </trkpt>
      <trkpt lat="45.73003" lon="-1.19773">
        <ele>69</ele>
        <time>2020-01-26T12:31:17Z</time>
      </trkpt>
      <trkpt lat="45.73003" lon="-1.19774">
        <ele>69.6</ele>
        <time>2020-01-26T12:31:18Z</time>
      </trkpt>
      <trkpt lat="45.73002" lon="-1.19776">
        <ele>70.2</ele>
        <time>2020-01-26T12:31:19Z</time>
      </trkpt>
      <trkpt lat="45.73002" lon="-1.19778">
        <ele>70.8</ele>
        <time>2020-01-26T12:31:20Z</time>
      </trkpt>
      <trkpt lat="45.73002" lon="-1.1978">
        <ele>71.4</ele>
        <time>2020-01-26T12:31:21Z</time>
      </trkpt>
      <trkpt lat="45.73002" lon="-1.19782">
        <ele>72</ele>
        <time>2020-01-26T12:31:22Z</time>
      </trkpt>
      <trkpt lat="45.73002" lon="-1.19783">
        <ele>72.6</ele>
        <time>2020-01-26T12:31:23Z</time>
      </trkpt>
      <trkpt lat="45.73002" lon="-1.19785">
        <ele>72.6</ele>
        <time>2020-01-26T12:31:24Z</time>
      </trkpt>
      <trkpt lat="45.73002" lon="-1.19787">
        <ele>72.8</ele>
        <time>2020-01-26T12:31:25Z</time>
      </trkpt>
      <trkpt lat="45.73002" lon="-1.19789">
        <ele>72.6</ele>
        <time>2020-01-26T12:31:26Z</time>
      </trkpt>
      <trkpt lat="45.73002" lon="-1.19791">
        <ele>72.4</ele>
        <time>2020-01-26T12:31:27Z</time>
      </trkpt>
      <trkpt lat="45.73001" lon="-1.19793">
        <ele>72.4</ele>
        <time>2020-01-26T12:31:28Z</time>
      </trkpt>
      <trkpt lat="45.73001" lon="-1.19795">
        <ele>72.2</ele>
        <time>2020-01-26T12:31:29Z</time>
      </trkpt>
      <trkpt lat="45.73002" lon="-1.19797">
        <ele>72.2</ele>
        <time>2020-01-26T12:31:30Z</time>
      </trkpt>
      <trkpt lat="45.73001" lon="-1.19798">
        <ele>72.4</ele>
        <time>2020-01-26T12:31:31Z</time>
      </trkpt>
      <trkpt lat="45.73002" lon="-1.19799">
        <ele>72.8</ele>
        <time>2020-01-26T12:31:32Z</time>
      </trkpt>
      <trkpt lat="45.73002" lon="-1.19801">
        <ele>73.2</ele>
        <time>2020-01-26T12:31:33Z</time>
      </trkpt>
      <trkpt lat="45.73002" lon="-1.19802">
        <ele>73.6</ele>
        <time>2020-01-26T12:31:34Z</time>
      </trkpt>
      <trkpt lat="45.73002" lon="-1.19803">
        <ele>73.6</ele>
        <time>2020-01-26T12:31:35Z</time>
      </trkpt>
      <trkpt lat="45.73002" lon="-1.19804">
        <ele>74</ele>
        <time>2020-01-26T12:31:36Z</time>
      </trkpt>
      <trkpt lat="45.73002" lon="-1.19806">
        <ele>74.2</ele>
        <time>2020-01-26T12:31:37Z</time>
      </trkpt>
      <trkpt lat="45.73002" lon="-1.19808">
        <ele>74.4</ele>
        <time>2020-01-26T12:31:38Z</time>
      </trkpt>
      <trkpt lat="45.73003" lon="-1.19809">
        <ele>74.8</ele>
        <time>2020-01-26T12:31:39Z</time>
      </trkpt>
      <trkpt lat="45.73003" lon="-1.19811">
        <ele>75.2</ele>
        <time>2020-01-26T12:31:40Z</time>
      </trkpt>
      <trkpt lat="45.73004" lon="-1.19813">
        <ele>75.4</ele>
        <time>2020-01-26T12:31:41Z</time>
      </trkpt>
      <trkpt lat="45.73004" lon="-1.19815">
        <ele>75.2</ele>
        <time>2020-01-26T12:31:42Z</time>
      </trkpt>
      <trkpt lat="45.73003" lon="-1.19816">
        <ele>75.2</ele>
        <time>2020-01-26T12:31:43Z</time>
      </trkpt>
      <trkpt lat="45.73003" lon="-1.19818">
        <ele>75.2</ele>
        <time>2020-01-26T12:31:44Z</time>
      </trkpt>
      <trkpt lat="45.73004" lon="-1.1982">
        <ele>74.8</ele>
        <time>2020-01-26T12:31:45Z</time>
      </trkpt>
      <trkpt lat="45.73004" lon="-1.19822">
        <ele>74.6</ele>
        <time>2020-01-26T12:31:46Z</time>
      </trkpt>
      <trkpt lat="45.73004" lon="-1.19823">
        <ele>74.8</ele>
        <time>2020-01-26T12:31:47Z</time>
      </trkpt>
      <trkpt lat="45.73005" lon="-1.19825">
        <ele>75</ele>
        <time>2020-01-26T12:31:48Z</time>
      </trkpt>
      <trkpt lat="45.73005" lon="-1.19826">
        <ele>75.4</ele>
        <time>2020-01-26T12:31:49Z</time>
      </trkpt>
      <trkpt lat="45.73005" lon="-1.19827">
        <ele>75.8</ele>
        <time>2020-01-26T12:31:50Z</time>
      </trkpt>
      <trkpt lat="45.73005" lon="-1.1983">
        <ele>75.8</ele>
        <time>2020-01-26T12:31:51Z</time>
      </trkpt>
      <trkpt lat="45.73006" lon="-1.19832">
        <ele>75.8</ele>
        <time>2020-01-26T12:31:52Z</time>
      </trkpt>
      <trkpt lat="45.73006" lon="-1.19835">
        <ele>75.8</ele>
        <time>2020-01-26T12:31:53Z</time>
      </trkpt>
      <trkpt lat="45.73006" lon="-1.19836">
        <ele>76</ele>
        <time>2020-01-26T12:31:54Z</time>
      </trkpt>
      <trkpt lat="45.73006" lon="-1.19837">
        <ele>76</ele>
        <time>2020-01-26T12:31:55Z</time>
      </trkpt>
      <trkpt lat="45.73006" lon="-1.19839">
        <ele>76</ele>
        <time>2020-01-26T12:31:56Z</time>
      </trkpt>
      <trkpt lat="45.73005" lon="-1.19841">
        <ele>76</ele>
        <time>2020-01-26T12:31:57Z</time>
      </trkpt>
      <trkpt lat="45.73006" lon="-1.19843">
        <ele>75.8</ele>
        <time>2020-01-26T12:31:58Z</time>
      </trkpt>
      <trkpt lat="45.73006" lon="-1.19845">
        <ele>75.6</ele>
        <time>2020-01-26T12:31:59Z</time>
      </trkpt>
      <trkpt lat="45.73006" lon="-1.19846">
        <ele>75.4</ele>
        <time>2020-01-26T12:32:00Z</time>
      </trkpt>
      <trkpt lat="45.73006" lon="-1.19848">
        <ele>75.4</ele>
        <time>2020-01-26T12:32:01Z</time>
      </trkpt>
      <trkpt lat="45.73006" lon="-1.19849">
        <ele>75.4</ele>
        <time>2020-01-26T12:32:02Z</time>
      </trkpt>
      <trkpt lat="45.73007" lon="-1.19851">
        <ele>75.6</ele>
        <time>2020-01-26T12:32:03Z</time>
      </trkpt>
      <trkpt lat="45.73007" lon="-1.19854">
        <ele>75.4</ele>
        <time>2020-01-26T12:32:04Z</time>
      </trkpt>
      <trkpt lat="45.73006" lon="-1.19856">
        <ele>75.4</ele>
        <time>2020-01-26T12:32:05Z</time>
      </trkpt>
      <trkpt lat="45.73006" lon="-1.19857">
        <ele>75.2</ele>
        <time>2020-01-26T12:32:06Z</time>
      </trkpt>
      <trkpt lat="45.73006" lon="-1.1986">
        <ele>75.2</ele>
        <time>2020-01-26T12:32:07Z</time>
      </trkpt>
      <trkpt lat="45.73006" lon="-1.19862">
        <ele>75.2</ele>
        <time>2020-01-26T12:32:08Z</time>
      </trkpt>
      <trkpt lat="45.73006" lon="-1.19864">
        <ele>75.2</ele>
        <time>2020-01-26T12:32:09Z</time>
      </trkpt>
      <trkpt lat="45.73006" lon="-1.19866">
        <ele>74.8</ele>
        <time>2020-01-26T12:32:10Z</time>
      </trkpt>
      <trkpt lat="45.73006" lon="-1.19868">
        <ele>74.6</ele>
        <time>2020-01-26T12:32:11Z</time>
      </trkpt>
      <trkpt lat="45.73006" lon="-1.1987">
        <ele>74.2</ele>
        <time>2020-01-26T12:32:12Z</time>
      </trkpt>
      <trkpt lat="45.73006" lon="-1.19872">
        <ele>74.2</ele>
        <time>2020-01-26T12:32:13Z</time>
      </trkpt>
      <trkpt lat="45.73007" lon="-1.19875">
        <ele>74.2</ele>
        <time>2020-01-26T12:32:14Z</time>
      </trkpt>
      <trkpt lat="45.73006" lon="-1.19877">
        <ele>74</ele>
        <time>2020-01-26T12:32:15Z</time>
      </trkpt>
      <trkpt lat="45.73007" lon="-1.19879">
        <ele>74</ele>
        <time>2020-01-26T12:32:16Z</time>
      </trkpt>
      <trkpt lat="45.73007" lon="-1.19882">
        <ele>74</ele>
        <time>2020-01-26T12:32:17Z</time>
      </trkpt>
      <trkpt lat="45.73006" lon="-1.19885">
        <ele>74</ele>
        <time>2020-01-26T12:32:18Z</time>
      </trkpt>
      <trkpt lat="45.73007" lon="-1.19888">
        <ele>74</ele>
        <time>2020-01-26T12:32:19Z</time>
      </trkpt>
      <trkpt lat="45.73007" lon="-1.19891">
        <ele>74</ele>
        <time>2020-01-26T12:32:20Z</time>
      </trkpt>
      <trkpt lat="45.73007" lon="-1.19893">
        <ele>74</ele>
        <time>2020-01-26T12:32:21Z</time>
      </trkpt>
      <trkpt lat="45.73008" lon="-1.19896">
        <ele>74</ele>
        <time>2020-01-26T12:32:22Z</time>
      </trkpt>
      <trkpt lat="45.73008" lon="-1.19899">
        <ele>74</ele>
        <time>2020-01-26T12:32:23Z</time>
      </trkpt>
      <trkpt lat="45.73007" lon="-1.19902">
        <ele>74</ele>
        <time>2020-01-26T12:32:24Z</time>
      </trkpt>
      <trkpt lat="45.73007" lon="-1.19904">
        <ele>74</ele>
        <time>2020-01-26T12:32:25Z</time>
      </trkpt>
      <trkpt lat="45.73006" lon="-1.19907">
        <ele>74</ele>
        <time>2020-01-26T12:32:26Z</time>
      </trkpt>
      <trkpt lat="45.73006" lon="-1.19911">
        <ele>74</ele>
        <time>2020-01-26T12:32:27Z</time>
      </trkpt>
      <trkpt lat="45.73006" lon="-1.19912">
        <ele>74</ele>
        <time>2020-01-26T12:32:28Z</time>
      </trkpt>
      <trkpt lat="45.73006" lon="-1.19915">
        <ele>74</ele>
        <time>2020-01-26T12:32:29Z</time>
      </trkpt>
      <trkpt lat="45.73009" lon="-1.19917">
        <ele>74.2</ele>
        <time>2020-01-26T12:32:30Z</time>
      </trkpt>
      <trkpt lat="45.73011" lon="-1.19919">
        <ele>74.8</ele>
        <time>2020-01-26T12:32:31Z</time>
      </trkpt>
      <trkpt lat="45.73013" lon="-1.19921">
        <ele>75.6</ele>
        <time>2020-01-26T12:32:32Z</time>
      </trkpt>
      <trkpt lat="45.73017" lon="-1.19922">
        <ele>76.4</ele>
        <time>2020-01-26T12:32:33Z</time>
      </trkpt>
      <trkpt lat="45.73021" lon="-1.19922">
        <ele>77</ele>
        <time>2020-01-26T12:32:34Z</time>
      </trkpt>
      <trkpt lat="45.73025" lon="-1.19921">
        <ele>77.6</ele>
        <time>2020-01-26T12:32:35Z</time>
      </trkpt>
      <trkpt lat="45.7303" lon="-1.19921">
        <ele>77.6</ele>
        <time>2020-01-26T12:32:36Z</time>
      </trkpt>
      <trkpt lat="45.73034" lon="-1.19921">
        <ele>77.8</ele>
        <time>2020-01-26T12:32:37Z</time>
      </trkpt>
      <trkpt lat="45.73039" lon="-1.19921">
        <ele>77.8</ele>
        <time>2020-01-26T12:32:38Z</time>
      </trkpt>
      <trkpt lat="45.73044" lon="-1.19922">
        <ele>77.6</ele>
        <time>2020-01-26T12:32:39Z</time>
      </trkpt>
      <trkpt lat="45.73048" lon="-1.19922">
        <ele>77.4</ele>
        <time>2020-01-26T12:32:40Z</time>
      </trkpt>
      <trkpt lat="45.73053" lon="-1.19922">
        <ele>77</ele>
        <time>2020-01-26T12:32:41Z</time>
      </trkpt>
      <trkpt lat="45.73057" lon="-1.19922">
        <ele>76.8</ele>
        <time>2020-01-26T12:32:42Z</time>
      </trkpt>
      <trkpt lat="45.73062" lon="-1.19922">
        <ele>76.4</ele>
        <time>2020-01-26T12:32:43Z</time>
      </trkpt>
      <trkpt lat="45.73067" lon="-1.19922">
        <ele>76.2</ele>
        <time>2020-01-26T12:32:44Z</time>
      </trkpt>
      <trkpt lat="45.73072" lon="-1.19923">
        <ele>76</ele>
        <time>2020-01-26T12:32:45Z</time>
      </trkpt>
      <trkpt lat="45.73078" lon="-1.19923">
        <ele>75.4</ele>
        <time>2020-01-26T12:32:46Z</time>
      </trkpt>
      <trkpt lat="45.73083" lon="-1.19923">
        <ele>74.8</ele>
        <time>2020-01-26T12:32:47Z</time>
      </trkpt>
      <trkpt lat="45.73087" lon="-1.19922">
        <ele>73.8</ele>
        <time>2020-01-26T12:32:48Z</time>
      </trkpt>
      <trkpt lat="45.7309" lon="-1.19921">
        <ele>72.8</ele>
        <time>2020-01-26T12:32:49Z</time>
      </trkpt>
      <trkpt lat="45.73093" lon="-1.19921">
        <ele>72.2</ele>
        <time>2020-01-26T12:32:50Z</time>
      </trkpt>
      <trkpt lat="45.73095" lon="-1.19921">
        <ele>71.4</ele>
        <time>2020-01-26T12:32:51Z</time>
      </trkpt>
      <trkpt lat="45.73098" lon="-1.19921">
        <ele>70.8</ele>
        <time>2020-01-26T12:32:52Z</time>
      </trkpt>
      <trkpt lat="45.73101" lon="-1.19923">
        <ele>70.4</ele>
        <time>2020-01-26T12:32:53Z</time>
      </trkpt>
      <trkpt lat="45.73103" lon="-1.19926">
        <ele>70.2</ele>
        <time>2020-01-26T12:32:54Z</time>
      </trkpt>
      <trkpt lat="45.73103" lon="-1.1993">
        <ele>70.2</ele>
        <time>2020-01-26T12:32:55Z</time>
      </trkpt>
      <trkpt lat="45.73104" lon="-1.19934">
        <ele>70.2</ele>
        <time>2020-01-26T12:32:56Z</time>
      </trkpt>
      <trkpt lat="45.73105" lon="-1.19936">
        <ele>70.2</ele>
        <time>2020-01-26T12:32:57Z</time>
      </trkpt>
      <trkpt lat="45.73106" lon="-1.19939">
        <ele>70</ele>
        <time>2020-01-26T12:32:58Z</time>
      </trkpt>
      <trkpt lat="45.73106" lon="-1.19942">
        <ele>69.8</ele>
        <time>2020-01-26T12:32:59Z</time>
      </trkpt>
      <trkpt lat="45.73106" lon="-1.19944">
        <ele>69.6</ele>
        <time>2020-01-26T12:33:00Z</time>
      </trkpt>
      <trkpt lat="45.73107" lon="-1.19946">
        <ele>69.4</ele>
        <time>2020-01-26T12:33:01Z</time>
      </trkpt>
      <trkpt lat="45.73107" lon="-1.19948">
        <ele>69.4</ele>
        <time>2020-01-26T12:33:02Z</time>
      </trkpt>
      <trkpt lat="45.73108" lon="-1.1995">
        <ele>69.2</ele>
        <time>2020-01-26T12:33:03Z</time>
      </trkpt>
      <trkpt lat="45.73108" lon="-1.19951">
        <ele>69.2</ele>
        <time>2020-01-26T12:33:04Z</time>
      </trkpt>
      <trkpt lat="45.73108" lon="-1.19953">
        <ele>69.2</ele>
        <time>2020-01-26T12:33:05Z</time>
      </trkpt>
      <trkpt lat="45.73108" lon="-1.19955">
        <ele>69.2</ele>
        <time>2020-01-26T12:33:06Z</time>
      </trkpt>
      <trkpt lat="45.73108" lon="-1.19957">
        <ele>69</ele>
        <time>2020-01-26T12:33:07Z</time>
      </trkpt>
      <trkpt lat="45.73109" lon="-1.19958">
        <ele>69</ele>
        <time>2020-01-26T12:33:08Z</time>
      </trkpt>
      <trkpt lat="45.73109" lon="-1.19958">
        <ele>69</ele>
        <time>2020-01-26T12:33:09Z</time>
      </trkpt>
      <trkpt lat="45.73108" lon="-1.19958">
        <ele>69</ele>
        <time>2020-01-26T12:33:10Z</time>
      </trkpt>
      <trkpt lat="45.73108" lon="-1.19958">
        <ele>69</ele>
        <time>2020-01-26T12:33:11Z</time>
      </trkpt>
      <trkpt lat="45.73108" lon="-1.19958">
        <ele>69.2</ele>
        <time>2020-01-26T12:33:12Z</time>
      </trkpt>
      <trkpt lat="45.73108" lon="-1.19958">
        <ele>69.4</ele>
        <time>2020-01-26T12:33:13Z</time>
      </trkpt>
      <trkpt lat="45.73108" lon="-1.19958">
        <ele>69.4</ele>
        <time>2020-01-26T12:33:14Z</time>
      </trkpt>
      <trkpt lat="45.73108" lon="-1.19957">
        <ele>69.2</ele>
        <time>2020-01-26T12:33:15Z</time>
      </trkpt>
      <trkpt lat="45.73108" lon="-1.19958">
        <ele>69.2</ele>
        <time>2020-01-26T12:33:16Z</time>
      </trkpt>
      <trkpt lat="45.73108" lon="-1.19958">
        <ele>69.2</ele>
        <time>2020-01-26T12:33:17Z</time>
      </trkpt>
      <trkpt lat="45.73108" lon="-1.19957">
        <ele>69.2</ele>
        <time>2020-01-26T12:33:18Z</time>
      </trkpt>
      <trkpt lat="45.73108" lon="-1.19957">
        <ele>69</ele>
        <time>2020-01-26T12:33:19Z</time>
      </trkpt>
      <trkpt lat="45.73108" lon="-1.19957">
        <ele>69</ele>
        <time>2020-01-26T12:33:20Z</time>
      </trkpt>
      <trkpt lat="45.73108" lon="-1.19957">
        <ele>69</ele>
        <time>2020-01-26T12:33:21Z</time>
      </trkpt>
      <trkpt lat="45.73108" lon="-1.19957">
        <ele>69</ele>
        <time>2020-01-26T12:33:22Z</time>
      </trkpt>
      <trkpt lat="45.73108" lon="-1.19957">
        <ele>69</ele>
        <time>2020-01-26T12:33:23Z</time>
      </trkpt>
      <trkpt lat="45.73108" lon="-1.19957">
        <ele>69</ele>
        <time>2020-01-26T12:33:24Z</time>
      </trkpt>
      <trkpt lat="45.73108" lon="-1.19957">
        <ele>69</ele>
        <time>2020-01-26T12:33:25Z</time>
      </trkpt>
      <trkpt lat="45.73108" lon="-1.19957">
        <ele>69</ele>
        <time>2020-01-26T12:33:26Z</time>
      </trkpt>
      <trkpt lat="45.73108" lon="-1.19957">
        <ele>69</ele>
        <time>2020-01-26T12:33:27Z</time>
      </trkpt>
      <trkpt lat="45.73108" lon="-1.19957">
        <ele>69</ele>
        <time>2020-01-26T12:33:28Z</time>
      </trkpt>
      <trkpt lat="45.73108" lon="-1.19957">
        <ele>69</ele>
        <time>2020-01-26T12:33:29Z</time>
      </trkpt>
      <trkpt lat="45.73108" lon="-1.19957">
        <ele>69</ele>
        <time>2020-01-26T12:33:30Z</time>
      </trkpt>
      <trkpt lat="45.73108" lon="-1.19957">
        <ele>69</ele>
        <time>2020-01-26T12:33:31Z</time>
      </trkpt>
      <trkpt lat="45.73108" lon="-1.19957">
        <ele>69</ele>
        <time>2020-01-26T12:33:32Z</time>
      </trkpt>
      <trkpt lat="45.73108" lon="-1.19957">
        <ele>69</ele>
        <time>2020-01-26T12:33:33Z</time>
      </trkpt>
      <trkpt lat="45.73108" lon="-1.19957">
        <ele>69</ele>
        <time>2020-01-26T12:33:34Z</time>
      </trkpt>
      <trkpt lat="45.73108" lon="-1.19957">
        <ele>69</ele>
        <time>2020-01-26T12:33:35Z</time>
      </trkpt>
      <trkpt lat="45.73108" lon="-1.19957">
        <ele>69</ele>
        <time>2020-01-26T12:33:36Z</time>
      </trkpt>
      <trkpt lat="45.73108" lon="-1.19957">
        <ele>69</ele>
        <time>2020-01-26T12:33:37Z</time>
      </trkpt>
      <trkpt lat="45.73108" lon="-1.19957">
        <ele>69</ele>
        <time>2020-01-26T12:33:38Z</time>
      </trkpt>
      <trkpt lat="45.73108" lon="-1.19957">
        <ele>69</ele>
        <time>2020-01-26T12:33:39Z</time>
      </trkpt>
      <trkpt lat="45.73108" lon="-1.19957">
        <ele>69</ele>
        <time>2020-01-26T12:33:40Z</time>
      </trkpt>
      <trkpt lat="45.73108" lon="-1.19957">
        <ele>69</ele>
        <time>2020-01-26T12:33:41Z</time>
      </trkpt>
      <trkpt lat="45.73108" lon="-1.19957">
        <ele>69</ele>
        <time>2020-01-26T12:33:42Z</time>
      </trkpt>
      <trkpt lat="45.73108" lon="-1.19957">
        <ele>69</ele>
        <time>2020-01-26T12:33:43Z</time>
      </trkpt>
      <trkpt lat="45.73108" lon="-1.19957">
        <ele>69</ele>
        <time>2020-01-26T12:33:44Z</time>
      </trkpt>
      <trkpt lat="45.73108" lon="-1.19957">
        <ele>69</ele>
        <time>2020-01-26T12:33:45Z</time>
      </trkpt>
      <trkpt lat="45.73108" lon="-1.19957">
        <ele>69</ele>
        <time>2020-01-26T12:33:46Z</time>
      </trkpt>
      <trkpt lat="45.73108" lon="-1.19957">
        <ele>69</ele>
        <time>2020-01-26T12:33:47Z</time>
      </trkpt>
      <trkpt lat="45.73108" lon="-1.19957">
        <ele>69</ele>
        <time>2020-01-26T12:33:48Z</time>
      </trkpt>
      <trkpt lat="45.73108" lon="-1.19957">
        <ele>69</ele>
        <time>2020-01-26T12:33:49Z</time>
      </trkpt>
      <trkpt lat="45.73108" lon="-1.19957">
        <ele>69</ele>
        <time>2020-01-26T12:33:50Z</time>
      </trkpt>
      <trkpt lat="45.73108" lon="-1.19957">
        <ele>69</ele>
        <time>2020-01-26T12:33:51Z</time>
      </trkpt>
      <trkpt lat="45.73108" lon="-1.19957">
        <ele>69</ele>
        <time>2020-01-26T12:33:52Z</time>
      </trkpt>
      <trkpt lat="45.73108" lon="-1.19957">
        <ele>69</ele>
        <time>2020-01-26T12:33:53Z</time>
      </trkpt>
      <trkpt lat="45.73108" lon="-1.19957">
        <ele>69</ele>
        <time>2020-01-26T12:33:54Z</time>
      </trkpt>
      <trkpt lat="45.73108" lon="-1.19957">
        <ele>69</ele>
        <time>2020-01-26T12:33:55Z</time>
      </trkpt>
      <trkpt lat="45.73108" lon="-1.19957">
        <ele>69</ele>
        <time>2020-01-26T12:33:56Z</time>
      </trkpt>
      <trkpt lat="45.73108" lon="-1.19957">
        <ele>69</ele>
        <time>2020-01-26T12:33:57Z</time>
      </trkpt>
      <trkpt lat="45.73108" lon="-1.19957">
        <ele>69</ele>
        <time>2020-01-26T12:33:58Z</time>
      </trkpt>
      <trkpt lat="45.73108" lon="-1.19957">
        <ele>69</ele>
        <time>2020-01-26T12:33:59Z</time>
      </trkpt>
      <trkpt lat="45.73108" lon="-1.19957">
        <ele>69</ele>
        <time>2020-01-26T12:34:00Z</time>
      </trkpt>
      <trkpt lat="45.73108" lon="-1.19957">
        <ele>69</ele>
        <time>2020-01-26T12:34:01Z</time>
      </trkpt>
      <trkpt lat="45.73108" lon="-1.19957">
        <ele>69</ele>
        <time>2020-01-26T12:34:02Z</time>
      </trkpt>
      <trkpt lat="45.73108" lon="-1.19957">
        <ele>69</ele>
        <time>2020-01-26T12:34:03Z</time>
      </trkpt>
      <trkpt lat="45.73108" lon="-1.19957">
        <ele>69</ele>
        <time>2020-01-26T12:34:04Z</time>
      </trkpt>
      <trkpt lat="45.73108" lon="-1.19957">
        <ele>69</ele>
        <time>2020-01-26T12:34:05Z</time>
      </trkpt>
      <trkpt lat="45.73108" lon="-1.19957">
        <ele>69</ele>
        <time>2020-01-26T12:34:06Z</time>
      </trkpt>
      <trkpt lat="45.73108" lon="-1.19957">
        <ele>69</ele>
        <time>2020-01-26T12:34:07Z</time>
      </trkpt>
      <trkpt lat="45.73108" lon="-1.19957">
        <ele>69</ele>
        <time>2020-01-26T12:34:08Z</time>
      </trkpt>
      <trkpt lat="45.73108" lon="-1.19957">
        <ele>69</ele>
        <time>2020-01-26T12:34:09Z</time>
      </trkpt>
      <trkpt lat="45.73108" lon="-1.19957">
        <ele>69</ele>
        <time>2020-01-26T12:34:10Z</time>
      </trkpt>
      <trkpt lat="45.73108" lon="-1.19957">
        <ele>69</ele>
        <time>2020-01-26T12:34:11Z</time>
      </trkpt>
      <trkpt lat="45.73108" lon="-1.19957">
        <ele>69</ele>
        <time>2020-01-26T12:34:12Z</time>
      </trkpt>
      <trkpt lat="45.73108" lon="-1.19957">
        <ele>69</ele>
        <time>2020-01-26T12:34:13Z</time>
      </trkpt>
      <trkpt lat="45.73108" lon="-1.19957">
        <ele>69</ele>
        <time>2020-01-26T12:34:14Z</time>
      </trkpt>
      <trkpt lat="45.73108" lon="-1.19957">
        <ele>69</ele>
        <time>2020-01-26T12:34:15Z</time>
      </trkpt>
      <trkpt lat="45.73108" lon="-1.19957">
        <ele>69</ele>
        <time>2020-01-26T12:34:16Z</time>
      </trkpt>
      <trkpt lat="45.73108" lon="-1.19957">
        <ele>69</ele>
        <time>2020-01-26T12:34:17Z</time>
      </trkpt>
      <trkpt lat="45.73108" lon="-1.19957">
        <ele>69</ele>
        <time>2020-01-26T12:34:18Z</time>
      </trkpt>
      <trkpt lat="45.73108" lon="-1.19957">
        <ele>69</ele>
        <time>2020-01-26T12:34:19Z</time>
      </trkpt>
      <trkpt lat="45.73108" lon="-1.19957">
        <ele>69</ele>
        <time>2020-01-26T12:34:20Z</time>
      </trkpt>
      <trkpt lat="45.73108" lon="-1.19957">
        <ele>69</ele>
        <time>2020-01-26T12:34:21Z</time>
      </trkpt>
      <trkpt lat="45.73108" lon="-1.19957">
        <ele>69</ele>
        <time>2020-01-26T12:34:22Z</time>
      </trkpt>
      <trkpt lat="45.73108" lon="-1.19957">
        <ele>69</ele>
        <time>2020-01-26T12:34:23Z</time>
      </trkpt>
      <trkpt lat="45.73108" lon="-1.19957">
        <ele>69</ele>
        <time>2020-01-26T12:34:24Z</time>
      </trkpt>
      <trkpt lat="45.73108" lon="-1.19957">
        <ele>69</ele>
        <time>2020-01-26T12:34:25Z</time>
      </trkpt>
      <trkpt lat="45.73108" lon="-1.19957">
        <ele>69</ele>
        <time>2020-01-26T12:34:26Z</time>
      </trkpt>
      <trkpt lat="45.73108" lon="-1.19957">
        <ele>69</ele>
        <time>2020-01-26T12:34:27Z</time>
      </trkpt>
      <trkpt lat="45.73108" lon="-1.19957">
        <ele>69</ele>
        <time>2020-01-26T12:34:28Z</time>
      </trkpt>
      <trkpt lat="45.73108" lon="-1.19957">
        <ele>69</ele>
        <time>2020-01-26T12:34:29Z</time>
      </trkpt>
      <trkpt lat="45.73108" lon="-1.19957">
        <ele>69</ele>
        <time>2020-01-26T12:34:30Z</time>
      </trkpt>
      <trkpt lat="45.73108" lon="-1.19957">
        <ele>69</ele>
        <time>2020-01-26T12:34:31Z</time>
      </trkpt>
      <trkpt lat="45.73108" lon="-1.19957">
        <ele>69</ele>
        <time>2020-01-26T12:34:32Z</time>
      </trkpt>
      <trkpt lat="45.73108" lon="-1.19957">
        <ele>69</ele>
        <time>2020-01-26T12:34:33Z</time>
      </trkpt>
      <trkpt lat="45.73108" lon="-1.19957">
        <ele>69</ele>
        <time>2020-01-26T12:34:34Z</time>
      </trkpt>
      <trkpt lat="45.73108" lon="-1.19957">
        <ele>69</ele>
        <time>2020-01-26T12:34:35Z</time>
      </trkpt>
      <trkpt lat="45.73108" lon="-1.19957">
        <ele>69</ele>
        <time>2020-01-26T12:34:36Z</time>
      </trkpt>
      <trkpt lat="45.73108" lon="-1.19957">
        <ele>69</ele>
        <time>2020-01-26T12:34:37Z</time>
      </trkpt>
      <trkpt lat="45.73108" lon="-1.19957">
        <ele>69</ele>
        <time>2020-01-26T12:34:38Z</time>
      </trkpt>
      <trkpt lat="45.73108" lon="-1.19957">
        <ele>69</ele>
        <time>2020-01-26T12:34:39Z</time>
      </trkpt>
      <trkpt lat="45.73108" lon="-1.19957">
        <ele>69</ele>
        <time>2020-01-26T12:34:40Z</time>
      </trkpt>
      <trkpt lat="45.73108" lon="-1.19957">
        <ele>69</ele>
        <time>2020-01-26T12:34:41Z</time>
      </trkpt>
      <trkpt lat="45.73108" lon="-1.19957">
        <ele>69</ele>
        <time>2020-01-26T12:34:42Z</time>
      </trkpt>
      <trkpt lat="45.73108" lon="-1.19957">
        <ele>69</ele>
        <time>2020-01-26T12:34:43Z</time>
      </trkpt>
      <trkpt lat="45.73108" lon="-1.19957">
        <ele>69</ele>
        <time>2020-01-26T12:34:44Z</time>
      </trkpt>
      <trkpt lat="45.73108" lon="-1.19957">
        <ele>69</ele>
        <time>2020-01-26T12:34:45Z</time>
      </trkpt>
      <trkpt lat="45.73108" lon="-1.19957">
        <ele>69</ele>
        <time>2020-01-26T12:34:46Z</time>
      </trkpt>
      <trkpt lat="45.73108" lon="-1.19957">
        <ele>69</ele>
        <time>2020-01-26T12:34:47Z</time>
      </trkpt>
      <trkpt lat="45.73108" lon="-1.19957">
        <ele>69</ele>
        <time>2020-01-26T12:34:48Z</time>
      </trkpt>
      <trkpt lat="45.73108" lon="-1.19957">
        <ele>69</ele>
        <time>2020-01-26T12:34:49Z</time>
      </trkpt>
      <trkpt lat="45.73108" lon="-1.19957">
        <ele>69</ele>
        <time>2020-01-26T12:34:50Z</time>
      </trkpt>
      <trkpt lat="45.73108" lon="-1.19957">
        <ele>69</ele>
        <time>2020-01-26T12:34:51Z</time>
      </trkpt>
      <trkpt lat="45.73108" lon="-1.19957">
        <ele>69</ele>
        <time>2020-01-26T12:34:52Z</time>
      </trkpt>
      <trkpt lat="45.73108" lon="-1.19957">
        <ele>69</ele>
        <time>2020-01-26T12:34:53Z</time>
      </trkpt>
      <trkpt lat="45.73108" lon="-1.19957">
        <ele>69</ele>
        <time>2020-01-26T12:34:54Z</time>
      </trkpt>
      <trkpt lat="45.73108" lon="-1.19957">
        <ele>69</ele>
        <time>2020-01-26T12:34:55Z</time>
      </trkpt>
      <trkpt lat="45.73108" lon="-1.19957">
        <ele>69</ele>
        <time>2020-01-26T12:34:56Z</time>
      </trkpt>
      <trkpt lat="45.73108" lon="-1.19957">
        <ele>69</ele>
        <time>2020-01-26T12:34:57Z</time>
      </trkpt>
      <trkpt lat="45.73108" lon="-1.19957">
        <ele>69</ele>
        <time>2020-01-26T12:34:58Z</time>
      </trkpt>
      <trkpt lat="45.73108" lon="-1.19957">
        <ele>69</ele>
        <time>2020-01-26T12:34:59Z</time>
      </trkpt>
      <trkpt lat="45.73108" lon="-1.19957">
        <ele>69</ele>
        <time>2020-01-26T12:35:00Z</time>
      </trkpt>
      <trkpt lat="45.73108" lon="-1.19957">
        <ele>69</ele>
        <time>2020-01-26T12:35:01Z</time>
      </trkpt>
      <trkpt lat="45.73108" lon="-1.19957">
        <ele>69</ele>
        <time>2020-01-26T12:35:02Z</time>
      </trkpt>
      <trkpt lat="45.73108" lon="-1.19957">
        <ele>69</ele>
        <time>2020-01-26T12:35:03Z</time>
      </trkpt>
      <trkpt lat="45.73108" lon="-1.19957">
        <ele>69</ele>
        <time>2020-01-26T12:35:04Z</time>
      </trkpt>
      <trkpt lat="45.73108" lon="-1.19957">
        <ele>69</ele>
        <time>2020-01-26T12:35:05Z</time>
      </trkpt>
      <trkpt lat="45.73108" lon="-1.19957">
        <ele>69</ele>
        <time>2020-01-26T12:35:06Z</time>
      </trkpt>
      <trkpt lat="45.73108" lon="-1.19957">
        <ele>69</ele>
        <time>2020-01-26T12:35:07Z</time>
      </trkpt>
      <trkpt lat="45.73108" lon="-1.19957">
        <ele>69</ele>
        <time>2020-01-26T12:35:08Z</time>
      </trkpt>
      <trkpt lat="45.73108" lon="-1.19957">
        <ele>69</ele>
        <time>2020-01-26T12:35:09Z</time>
      </trkpt>
      <trkpt lat="45.73108" lon="-1.19957">
        <ele>69</ele>
        <time>2020-01-26T12:35:10Z</time>
      </trkpt>
      <trkpt lat="45.73108" lon="-1.19957">
        <ele>69</ele>
        <time>2020-01-26T12:35:11Z</time>
      </trkpt>
      <trkpt lat="45.73108" lon="-1.19957">
        <ele>69</ele>
        <time>2020-01-26T12:35:12Z</time>
      </trkpt>
      <trkpt lat="45.73108" lon="-1.19957">
        <ele>69</ele>
        <time>2020-01-26T12:35:13Z</time>
      </trkpt>
      <trkpt lat="45.73108" lon="-1.19957">
        <ele>69</ele>
        <time>2020-01-26T12:35:14Z</time>
      </trkpt>
      <trkpt lat="45.73108" lon="-1.19957">
        <ele>69</ele>
        <time>2020-01-26T12:35:15Z</time>
      </trkpt>
      <trkpt lat="45.73108" lon="-1.19957">
        <ele>69</ele>
        <time>2020-01-26T12:35:16Z</time>
      </trkpt>
      <trkpt lat="45.73108" lon="-1.19957">
        <ele>69</ele>
        <time>2020-01-26T12:35:17Z</time>
      </trkpt>
      <trkpt lat="45.73108" lon="-1.19957">
        <ele>69</ele>
        <time>2020-01-26T12:35:18Z</time>
      </trkpt>
      <trkpt lat="45.73108" lon="-1.19957">
        <ele>69</ele>
        <time>2020-01-26T12:35:19Z</time>
      </trkpt>
      <trkpt lat="45.73108" lon="-1.19957">
        <ele>69</ele>
        <time>2020-01-26T12:35:20Z</time>
      </trkpt>
      <trkpt lat="45.73108" lon="-1.19958">
        <ele>69</ele>
        <time>2020-01-26T12:35:21Z</time>
      </trkpt>
      <trkpt lat="45.73108" lon="-1.19958">
        <ele>69</ele>
        <time>2020-01-26T12:35:22Z</time>
      </trkpt>
      <trkpt lat="45.73108" lon="-1.19958">
        <ele>69</ele>
        <time>2020-01-26T12:35:23Z</time>
      </trkpt>
      <trkpt lat="45.73108" lon="-1.19958">
        <ele>69</ele>
        <time>2020-01-26T12:35:24Z</time>
      </trkpt>
      <trkpt lat="45.73108" lon="-1.19958">
        <ele>69</ele>
        <time>2020-01-26T12:35:25Z</time>
      </trkpt>
      <trkpt lat="45.73108" lon="-1.19958">
        <ele>69</ele>
        <time>2020-01-26T12:35:26Z</time>
      </trkpt>
      <trkpt lat="45.73107" lon="-1.19959">
        <ele>68.8</ele>
        <time>2020-01-26T12:35:27Z</time>
      </trkpt>
      <trkpt lat="45.73108" lon="-1.19961">
        <ele>68.2</ele>
        <time>2020-01-26T12:35:28Z</time>
      </trkpt>
      <trkpt lat="45.73107" lon="-1.19964">
        <ele>67.8</ele>
        <time>2020-01-26T12:35:29Z</time>
      </trkpt>
      <trkpt lat="45.73107" lon="-1.19966">
        <ele>67.2</ele>
        <time>2020-01-26T12:35:30Z</time>
      </trkpt>
      <trkpt lat="45.73109" lon="-1.19968">
        <ele>66.8</ele>
        <time>2020-01-26T12:35:31Z</time>
      </trkpt>
      <trkpt lat="45.7311" lon="-1.19971">
        <ele>66.2</ele>
        <time>2020-01-26T12:35:32Z</time>
      </trkpt>
      <trkpt lat="45.73112" lon="-1.19973">
        <ele>66</ele>
        <time>2020-01-26T12:35:33Z</time>
      </trkpt>
      <trkpt lat="45.73113" lon="-1.19975">
        <ele>65.4</ele>
        <time>2020-01-26T12:35:34Z</time>
      </trkpt>
      <trkpt lat="45.73111" lon="-1.19977">
        <ele>63.4</ele>
        <time>2020-01-26T12:35:35Z</time>
      </trkpt>
      <trkpt lat="45.73112" lon="-1.19981">
        <ele>61</ele>
        <time>2020-01-26T12:35:36Z</time>
      </trkpt>
      <trkpt lat="45.73112" lon="-1.19983">
        <ele>58.4</ele>
        <time>2020-01-26T12:35:37Z</time>
      </trkpt>
      <trkpt lat="45.73112" lon="-1.19986">
        <ele>56</ele>
        <time>2020-01-26T12:35:38Z</time>
      </trkpt>
      <trkpt lat="45.73113" lon="-1.19997">
        <ele>54.2</ele>
        <time>2020-01-26T12:35:39Z</time>
      </trkpt>
      <trkpt lat="45.73116" lon="-1.20004">
        <ele>53.2</ele>
        <time>2020-01-26T12:35:40Z</time>
      </trkpt>
      <trkpt lat="45.73119" lon="-1.2001">
        <ele>52.4</ele>
        <time>2020-01-26T12:35:41Z</time>
      </trkpt>
      <trkpt lat="45.73121" lon="-1.20017">
        <ele>51.8</ele>
        <time>2020-01-26T12:35:42Z</time>
      </trkpt>
      <trkpt lat="45.73125" lon="-1.20022">
        <ele>51</ele>
        <time>2020-01-26T12:35:43Z</time>
      </trkpt>
      <trkpt lat="45.73129" lon="-1.20029">
        <ele>50.8</ele>
        <time>2020-01-26T12:35:44Z</time>
      </trkpt>
      <trkpt lat="45.73128" lon="-1.20038">
        <ele>50.4</ele>
        <time>2020-01-26T12:35:45Z</time>
      </trkpt>
      <trkpt lat="45.7313" lon="-1.20044">
        <ele>49.8</ele>
        <time>2020-01-26T12:35:46Z</time>
      </trkpt>
      <trkpt lat="45.73132" lon="-1.2005">
        <ele>49.2</ele>
        <time>2020-01-26T12:35:47Z</time>
      </trkpt>
      <trkpt lat="45.73133" lon="-1.20061">
        <ele>48.8</ele>
        <time>2020-01-26T12:35:48Z</time>
      </trkpt>
      <trkpt lat="45.73135" lon="-1.2007">
        <ele>48</ele>
        <time>2020-01-26T12:35:49Z</time>
      </trkpt>
      <trkpt lat="45.73137" lon="-1.20081">
        <ele>47.6</ele>
        <time>2020-01-26T12:35:50Z</time>
      </trkpt>
      <trkpt lat="45.7314" lon="-1.2009">
        <ele>47.6</ele>
        <time>2020-01-26T12:35:51Z</time>
      </trkpt>
      <trkpt lat="45.73142" lon="-1.20099">
        <ele>47.4</ele>
        <time>2020-01-26T12:35:52Z</time>
      </trkpt>
      <trkpt lat="45.73144" lon="-1.20108">
        <ele>47.4</ele>
        <time>2020-01-26T12:35:53Z</time>
      </trkpt>
      <trkpt lat="45.73147" lon="-1.20117">
        <ele>47.8</ele>
        <time>2020-01-26T12:35:54Z</time>
      </trkpt>
      <trkpt lat="45.73152" lon="-1.20125">
        <ele>48</ele>
        <time>2020-01-26T12:35:55Z</time>
      </trkpt>
      <trkpt lat="45.73155" lon="-1.20135">
        <ele>48.4</ele>
        <time>2020-01-26T12:35:56Z</time>
      </trkpt>
      <trkpt lat="45.73158" lon="-1.20145">
        <ele>48.2</ele>
        <time>2020-01-26T12:35:57Z</time>
      </trkpt>
      <trkpt lat="45.73162" lon="-1.20151">
        <ele>48</ele>
        <time>2020-01-26T12:35:58Z</time>
      </trkpt>
      <trkpt lat="45.73165" lon="-1.20157">
        <ele>47.8</ele>
        <time>2020-01-26T12:35:59Z</time>
      </trkpt>
      <trkpt lat="45.73161" lon="-1.20162">
        <ele>48.6</ele>
        <time>2020-01-26T12:36:00Z</time>
      </trkpt>
      <trkpt lat="45.73167" lon="-1.2017">
        <ele>49.6</ele>
        <time>2020-01-26T12:36:01Z</time>
      </trkpt>
      <trkpt lat="45.73172" lon="-1.20178">
        <ele>50.8</ele>
        <time>2020-01-26T12:36:02Z</time>
      </trkpt>
      <trkpt lat="45.73177" lon="-1.20185">
        <ele>51.8</ele>
        <time>2020-01-26T12:36:03Z</time>
      </trkpt>
      <trkpt lat="45.73181" lon="-1.20192">
        <ele>52.6</ele>
        <time>2020-01-26T12:36:04Z</time>
      </trkpt>
      <trkpt lat="45.73185" lon="-1.202">
        <ele>53.2</ele>
        <time>2020-01-26T12:36:05Z</time>
      </trkpt>
      <trkpt lat="45.7319" lon="-1.20206">
        <ele>53.4</ele>
        <time>2020-01-26T12:36:06Z</time>
      </trkpt>
      <trkpt lat="45.73195" lon="-1.20211">
        <ele>53.8</ele>
        <time>2020-01-26T12:36:07Z</time>
      </trkpt>
      <trkpt lat="45.73201" lon="-1.20217">
        <ele>54.6</ele>
        <time>2020-01-26T12:36:08Z</time>
      </trkpt>
      <trkpt lat="45.73206" lon="-1.20223">
        <ele>55.4</ele>
        <time>2020-01-26T12:36:09Z</time>
      </trkpt>
      <trkpt lat="45.73209" lon="-1.2023">
        <ele>56.2</ele>
        <time>2020-01-26T12:36:10Z</time>
      </trkpt>
      <trkpt lat="45.73212" lon="-1.20235">
        <ele>56.6</ele>
        <time>2020-01-26T12:36:11Z</time>
      </trkpt>
      <trkpt lat="45.73216" lon="-1.20241">
        <ele>57</ele>
        <time>2020-01-26T12:36:12Z</time>
      </trkpt>
      <trkpt lat="45.73219" lon="-1.20246">
        <ele>56.6</ele>
        <time>2020-01-26T12:36:13Z</time>
      </trkpt>
      <trkpt lat="45.73222" lon="-1.2025">
        <ele>56.6</ele>
        <time>2020-01-26T12:36:14Z</time>
      </trkpt>
      <trkpt lat="45.73223" lon="-1.20258">
        <ele>56.4</ele>
        <time>2020-01-26T12:36:15Z</time>
      </trkpt>
      <trkpt lat="45.73224" lon="-1.20264">
        <ele>55.4</ele>
        <time>2020-01-26T12:36:16Z</time>
      </trkpt>
      <trkpt lat="45.73227" lon="-1.2027">
        <ele>54.4</ele>
        <time>2020-01-26T12:36:17Z</time>
      </trkpt>
      <trkpt lat="45.73233" lon="-1.20277">
        <ele>54.2</ele>
        <time>2020-01-26T12:36:18Z</time>
      </trkpt>
      <trkpt lat="45.73237" lon="-1.20283">
        <ele>53.8</ele>
        <time>2020-01-26T12:36:19Z</time>
      </trkpt>
      <trkpt lat="45.73239" lon="-1.20289">
        <ele>53</ele>
        <time>2020-01-26T12:36:20Z</time>
      </trkpt>
      <trkpt lat="45.73243" lon="-1.20295">
        <ele>52.4</ele>
        <time>2020-01-26T12:36:21Z</time>
      </trkpt>
      <trkpt lat="45.73244" lon="-1.20302">
        <ele>51.8</ele>
        <time>2020-01-26T12:36:22Z</time>
      </trkpt>
      <trkpt lat="45.73247" lon="-1.20307">
        <ele>51.2</ele>
        <time>2020-01-26T12:36:23Z</time>
      </trkpt>
      <trkpt lat="45.73252" lon="-1.20313">
        <ele>51.2</ele>
        <time>2020-01-26T12:36:24Z</time>
      </trkpt>
      <trkpt lat="45.73255" lon="-1.20318">
        <ele>51</ele>
        <time>2020-01-26T12:36:25Z</time>
      </trkpt>
      <trkpt lat="45.73258" lon="-1.20321">
        <ele>50.8</ele>
        <time>2020-01-26T12:36:26Z</time>
      </trkpt>
      <trkpt lat="45.73262" lon="-1.20325">
        <ele>50.6</ele>
        <time>2020-01-26T12:36:27Z</time>
      </trkpt>
      <trkpt lat="45.73266" lon="-1.20327">
        <ele>50.8</ele>
        <time>2020-01-26T12:36:28Z</time>
      </trkpt>
      <trkpt lat="45.73269" lon="-1.2033">
        <ele>50.4</ele>
        <time>2020-01-26T12:36:29Z</time>
      </trkpt>
      <trkpt lat="45.73273" lon="-1.20335">
        <ele>49.6</ele>
        <time>2020-01-26T12:36:30Z</time>
      </trkpt>
      <trkpt lat="45.73275" lon="-1.2034">
        <ele>48.8</ele>
        <time>2020-01-26T12:36:31Z</time>
      </trkpt>
      <trkpt lat="45.7328" lon="-1.20344">
        <ele>48</ele>
        <time>2020-01-26T12:36:32Z</time>
      </trkpt>
      <trkpt lat="45.73284" lon="-1.20347">
        <ele>47.8</ele>
        <time>2020-01-26T12:36:33Z</time>
      </trkpt>
      <trkpt lat="45.73288" lon="-1.20351">
        <ele>47.8</ele>
        <time>2020-01-26T12:36:34Z</time>
      </trkpt>
      <trkpt lat="45.73294" lon="-1.20356">
        <ele>47.8</ele>
        <time>2020-01-26T12:36:35Z</time>
      </trkpt>
      <trkpt lat="45.73298" lon="-1.20363">
        <ele>48</ele>
        <time>2020-01-26T12:36:36Z</time>
      </trkpt>
      <trkpt lat="45.73303" lon="-1.20364">
        <ele>48.2</ele>
        <time>2020-01-26T12:36:37Z</time>
      </trkpt>
      <trkpt lat="45.73307" lon="-1.20367">
        <ele>48.6</ele>
        <time>2020-01-26T12:36:38Z</time>
      </trkpt>
      <trkpt lat="45.73309" lon="-1.20372">
        <ele>49</ele>
        <time>2020-01-26T12:36:39Z</time>
      </trkpt>
      <trkpt lat="45.73315" lon="-1.20376">
        <ele>50.6</ele>
        <time>2020-01-26T12:36:40Z</time>
      </trkpt>
      <trkpt lat="45.73318" lon="-1.2038">
        <ele>51.4</ele>
        <time>2020-01-26T12:36:41Z</time>
      </trkpt>
      <trkpt lat="45.73321" lon="-1.20382">
        <ele>52</ele>
        <time>2020-01-26T12:36:42Z</time>
      </trkpt>
      <trkpt lat="45.73323" lon="-1.20386">
        <ele>52.8</ele>
        <time>2020-01-26T12:36:43Z</time>
      </trkpt>
      <trkpt lat="45.73325" lon="-1.20388">
        <ele>53.6</ele>
        <time>2020-01-26T12:36:44Z</time>
      </trkpt>
      <trkpt lat="45.73327" lon="-1.20388">
        <ele>54.4</ele>
        <time>2020-01-26T12:36:45Z</time>
      </trkpt>
      <trkpt lat="45.73331" lon="-1.20389">
        <ele>55.4</ele>
        <time>2020-01-26T12:36:46Z</time>
      </trkpt>
      <trkpt lat="45.73336" lon="-1.20388">
        <ele>55.8</ele>
        <time>2020-01-26T12:36:47Z</time>
      </trkpt>
      <trkpt lat="45.73339" lon="-1.20389">
        <ele>56</ele>
        <time>2020-01-26T12:36:48Z</time>
      </trkpt>
      <trkpt lat="45.73342" lon="-1.20389">
        <ele>56.4</ele>
        <time>2020-01-26T12:36:49Z</time>
      </trkpt>
      <trkpt lat="45.7335" lon="-1.20388">
        <ele>57</ele>
        <time>2020-01-26T12:36:50Z</time>
      </trkpt>
      <trkpt lat="45.73355" lon="-1.20386">
        <ele>57.8</ele>
        <time>2020-01-26T12:36:51Z</time>
      </trkpt>
      <trkpt lat="45.7336" lon="-1.20384">
        <ele>58.4</ele>
        <time>2020-01-26T12:36:52Z</time>
      </trkpt>
      <trkpt lat="45.73367" lon="-1.20382">
        <ele>59</ele>
        <time>2020-01-26T12:36:53Z</time>
      </trkpt>
      <trkpt lat="45.73376" lon="-1.20379">
        <ele>59</ele>
        <time>2020-01-26T12:36:54Z</time>
      </trkpt>
      <trkpt lat="45.73382" lon="-1.20377">
        <ele>59</ele>
        <time>2020-01-26T12:36:55Z</time>
      </trkpt>
      <trkpt lat="45.73387" lon="-1.20376">
        <ele>59.2</ele>
        <time>2020-01-26T12:36:56Z</time>
      </trkpt>
      <trkpt lat="45.73391" lon="-1.20375">
        <ele>59.2</ele>
        <time>2020-01-26T12:36:57Z</time>
      </trkpt>
      <trkpt lat="45.73394" lon="-1.20374">
        <ele>59.2</ele>
        <time>2020-01-26T12:36:58Z</time>
      </trkpt>
      <trkpt lat="45.734" lon="-1.20375">
        <ele>60.2</ele>
        <time>2020-01-26T12:36:59Z</time>
      </trkpt>
      <trkpt lat="45.73404" lon="-1.20375">
        <ele>60.8</ele>
        <time>2020-01-26T12:37:00Z</time>
      </trkpt>
      <trkpt lat="45.7341" lon="-1.20375">
        <ele>61.4</ele>
        <time>2020-01-26T12:37:01Z</time>
      </trkpt>
      <trkpt lat="45.73416" lon="-1.20375">
        <ele>61.6</ele>
        <time>2020-01-26T12:37:02Z</time>
      </trkpt>
      <trkpt lat="45.73421" lon="-1.20374">
        <ele>62</ele>
        <time>2020-01-26T12:37:03Z</time>
      </trkpt>
      <trkpt lat="45.73426" lon="-1.20373">
        <ele>62.4</ele>
        <time>2020-01-26T12:37:04Z</time>
      </trkpt>
      <trkpt lat="45.73431" lon="-1.20371">
        <ele>62.8</ele>
        <time>2020-01-26T12:37:05Z</time>
      </trkpt>
      <trkpt lat="45.73437" lon="-1.20373">
        <ele>62.6</ele>
        <time>2020-01-26T12:37:06Z</time>
      </trkpt>
      <trkpt lat="45.73442" lon="-1.20371">
        <ele>62.4</ele>
        <time>2020-01-26T12:37:07Z</time>
      </trkpt>
      <trkpt lat="45.73449" lon="-1.2037">
        <ele>62.4</ele>
        <time>2020-01-26T12:37:08Z</time>
      </trkpt>
      <trkpt lat="45.73455" lon="-1.2037">
        <ele>62</ele>
        <time>2020-01-26T12:37:09Z</time>
      </trkpt>
      <trkpt lat="45.73461" lon="-1.20369">
        <ele>61</ele>
        <time>2020-01-26T12:37:10Z</time>
      </trkpt>
      <trkpt lat="45.73466" lon="-1.20368">
        <ele>60.2</ele>
        <time>2020-01-26T12:37:11Z</time>
      </trkpt>
      <trkpt lat="45.73473" lon="-1.20367">
        <ele>59.4</ele>
        <time>2020-01-26T12:37:12Z</time>
      </trkpt>
      <trkpt lat="45.73479" lon="-1.20367">
        <ele>58.8</ele>
        <time>2020-01-26T12:37:13Z</time>
      </trkpt>
      <trkpt lat="45.73485" lon="-1.20364">
        <ele>58.4</ele>
        <time>2020-01-26T12:37:14Z</time>
      </trkpt>
      <trkpt lat="45.73489" lon="-1.20362">
        <ele>57.6</ele>
        <time>2020-01-26T12:37:15Z</time>
      </trkpt>
      <trkpt lat="45.73494" lon="-1.20361">
        <ele>56.8</ele>
        <time>2020-01-26T12:37:16Z</time>
      </trkpt>
      <trkpt lat="45.73497" lon="-1.20359">
        <ele>56.4</ele>
        <time>2020-01-26T12:37:17Z</time>
      </trkpt>
      <trkpt lat="45.73503" lon="-1.20358">
        <ele>55.6</ele>
        <time>2020-01-26T12:37:18Z</time>
      </trkpt>
      <trkpt lat="45.73507" lon="-1.20359">
        <ele>54.4</ele>
        <time>2020-01-26T12:37:19Z</time>
      </trkpt>
      <trkpt lat="45.73512" lon="-1.20362">
        <ele>53.6</ele>
        <time>2020-01-26T12:37:20Z</time>
      </trkpt>
      <trkpt lat="45.73516" lon="-1.20364">
        <ele>53.2</ele>
        <time>2020-01-26T12:37:21Z</time>
      </trkpt>
      <trkpt lat="45.73522" lon="-1.20367">
        <ele>53.2</ele>
        <time>2020-01-26T12:37:22Z</time>
      </trkpt>
      <trkpt lat="45.73527" lon="-1.20371">
        <ele>53</ele>
        <time>2020-01-26T12:37:23Z</time>
      </trkpt>
      <trkpt lat="45.73532" lon="-1.20375">
        <ele>53</ele>
        <time>2020-01-26T12:37:24Z</time>
      </trkpt>
      <trkpt lat="45.73535" lon="-1.20376">
        <ele>53.4</ele>
        <time>2020-01-26T12:37:25Z</time>
      </trkpt>
      <trkpt lat="45.7354" lon="-1.20381">
        <ele>53.2</ele>
        <time>2020-01-26T12:37:26Z</time>
      </trkpt>
      <trkpt lat="45.73547" lon="-1.20383">
        <ele>54</ele>
        <time>2020-01-26T12:37:27Z</time>
      </trkpt>
      <trkpt lat="45.73551" lon="-1.20387">
        <ele>54.4</ele>
        <time>2020-01-26T12:37:28Z</time>
      </trkpt>
      <trkpt lat="45.73555" lon="-1.2039">
        <ele>55.2</ele>
        <time>2020-01-26T12:37:29Z</time>
      </trkpt>
      <trkpt lat="45.7356" lon="-1.20393">
        <ele>55.6</ele>
        <time>2020-01-26T12:37:30Z</time>
      </trkpt>
      <trkpt lat="45.73565" lon="-1.20392">
        <ele>56.2</ele>
        <time>2020-01-26T12:37:31Z</time>
      </trkpt>
      <trkpt lat="45.73574" lon="-1.20392">
        <ele>57.2</ele>
        <time>2020-01-26T12:37:32Z</time>
      </trkpt>
      <trkpt lat="45.73577" lon="-1.20392">
        <ele>57.8</ele>
        <time>2020-01-26T12:37:33Z</time>
      </trkpt>
      <trkpt lat="45.73581" lon="-1.20393">
        <ele>57.8</ele>
        <time>2020-01-26T12:37:34Z</time>
      </trkpt>
      <trkpt lat="45.73586" lon="-1.20393">
        <ele>58</ele>
        <time>2020-01-26T12:37:35Z</time>
      </trkpt>
      <trkpt lat="45.73594" lon="-1.20394">
        <ele>58.4</ele>
        <time>2020-01-26T12:37:36Z</time>
      </trkpt>
      <trkpt lat="45.73598" lon="-1.20393">
        <ele>58.8</ele>
        <time>2020-01-26T12:37:37Z</time>
      </trkpt>
      <trkpt lat="45.73602" lon="-1.20394">
        <ele>58.8</ele>
        <time>2020-01-26T12:37:38Z</time>
      </trkpt>
      <trkpt lat="45.73606" lon="-1.20396">
        <ele>59.2</ele>
        <time>2020-01-26T12:37:39Z</time>
      </trkpt>
      <trkpt lat="45.73607" lon="-1.20397">
        <ele>59.4</ele>
        <time>2020-01-26T12:37:40Z</time>
      </trkpt>
      <trkpt lat="45.7361" lon="-1.20398">
        <ele>59.8</ele>
        <time>2020-01-26T12:37:41Z</time>
      </trkpt>
      <trkpt lat="45.73612" lon="-1.204">
        <ele>60</ele>
        <time>2020-01-26T12:37:42Z</time>
      </trkpt>
      <trkpt lat="45.73616" lon="-1.20402">
        <ele>60.4</ele>
        <time>2020-01-26T12:37:43Z</time>
      </trkpt>
      <trkpt lat="45.7362" lon="-1.20402">
        <ele>60.6</ele>
        <time>2020-01-26T12:37:44Z</time>
      </trkpt>
      <trkpt lat="45.73623" lon="-1.20404">
        <ele>61.2</ele>
        <time>2020-01-26T12:37:45Z</time>
      </trkpt>
      <trkpt lat="45.7363" lon="-1.20406">
        <ele>61.4</ele>
        <time>2020-01-26T12:37:46Z</time>
      </trkpt>
      <trkpt lat="45.73637" lon="-1.20408">
        <ele>61.4</ele>
        <time>2020-01-26T12:37:47Z</time>
      </trkpt>
      <trkpt lat="45.73643" lon="-1.20412">
        <ele>61.4</ele>
        <time>2020-01-26T12:37:48Z</time>
      </trkpt>
      <trkpt lat="45.73648" lon="-1.20416">
        <ele>61.6</ele>
        <time>2020-01-26T12:37:49Z</time>
      </trkpt>
      <trkpt lat="45.73653" lon="-1.20421">
        <ele>62</ele>
        <time>2020-01-26T12:37:50Z</time>
      </trkpt>
      <trkpt lat="45.73655" lon="-1.20423">
        <ele>62.2</ele>
        <time>2020-01-26T12:37:51Z</time>
      </trkpt>
      <trkpt lat="45.73661" lon="-1.20427">
        <ele>62.4</ele>
        <time>2020-01-26T12:37:52Z</time>
      </trkpt>
      <trkpt lat="45.73665" lon="-1.2043">
        <ele>62.6</ele>
        <time>2020-01-26T12:37:53Z</time>
      </trkpt>
      <trkpt lat="45.73669" lon="-1.20432">
        <ele>62.6</ele>
        <time>2020-01-26T12:37:54Z</time>
      </trkpt>
      <trkpt lat="45.73673" lon="-1.20431">
        <ele>62.2</ele>
        <time>2020-01-26T12:37:55Z</time>
      </trkpt>
      <trkpt lat="45.7368" lon="-1.20431">
        <ele>61.2</ele>
        <time>2020-01-26T12:37:56Z</time>
      </trkpt>
      <trkpt lat="45.73685" lon="-1.20432">
        <ele>60.4</ele>
        <time>2020-01-26T12:37:57Z</time>
      </trkpt>
      <trkpt lat="45.7369" lon="-1.20433">
        <ele>59.8</ele>
        <time>2020-01-26T12:37:58Z</time>
      </trkpt>
      <trkpt lat="45.73691" lon="-1.20434">
        <ele>59.6</ele>
        <time>2020-01-26T12:37:59Z</time>
      </trkpt>
      <trkpt lat="45.73697" lon="-1.20436">
        <ele>59.4</ele>
        <time>2020-01-26T12:38:00Z</time>
      </trkpt>
      <trkpt lat="45.73703" lon="-1.20437">
        <ele>59.6</ele>
        <time>2020-01-26T12:38:01Z</time>
      </trkpt>
      <trkpt lat="45.73708" lon="-1.2044">
        <ele>59.6</ele>
        <time>2020-01-26T12:38:02Z</time>
      </trkpt>
      <trkpt lat="45.73712" lon="-1.20439">
        <ele>60</ele>
        <time>2020-01-26T12:38:03Z</time>
      </trkpt>
      <trkpt lat="45.73717" lon="-1.2044">
        <ele>60.2</ele>
        <time>2020-01-26T12:38:04Z</time>
      </trkpt>
      <trkpt lat="45.73722" lon="-1.20441">
        <ele>60.2</ele>
        <time>2020-01-26T12:38:05Z</time>
      </trkpt>
      <trkpt lat="45.7373" lon="-1.20439">
        <ele>60.2</ele>
        <time>2020-01-26T12:38:06Z</time>
      </trkpt>
      <trkpt lat="45.73733" lon="-1.20438">
        <ele>60.4</ele>
        <time>2020-01-26T12:38:07Z</time>
      </trkpt>
      <trkpt lat="45.73737" lon="-1.20437">
        <ele>60.8</ele>
        <time>2020-01-26T12:38:08Z</time>
      </trkpt>
      <trkpt lat="45.73741" lon="-1.20435">
        <ele>61</ele>
        <time>2020-01-26T12:38:09Z</time>
      </trkpt>
      <trkpt lat="45.73744" lon="-1.20433">
        <ele>61.2</ele>
        <time>2020-01-26T12:38:10Z</time>
      </trkpt>
      <trkpt lat="45.73743" lon="-1.2043">
        <ele>61</ele>
        <time>2020-01-26T12:38:11Z</time>
      </trkpt>
      <trkpt lat="45.73742" lon="-1.20424">
        <ele>61.2</ele>
        <time>2020-01-26T12:38:12Z</time>
      </trkpt>
      <trkpt lat="45.73741" lon="-1.20417">
        <ele>61.4</ele>
        <time>2020-01-26T12:38:13Z</time>
      </trkpt>
      <trkpt lat="45.7374" lon="-1.20412">
        <ele>61.6</ele>
        <time>2020-01-26T12:38:14Z</time>
      </trkpt>
      <trkpt lat="45.73742" lon="-1.20406">
        <ele>61.2</ele>
        <time>2020-01-26T12:38:15Z</time>
      </trkpt>
      <trkpt lat="45.73742" lon="-1.204">
        <ele>60.6</ele>
        <time>2020-01-26T12:38:16Z</time>
      </trkpt>
      <trkpt lat="45.73742" lon="-1.20392">
        <ele>60</ele>
        <time>2020-01-26T12:38:17Z</time>
      </trkpt>
      <trkpt lat="45.73743" lon="-1.20385">
        <ele>59.8</ele>
        <time>2020-01-26T12:38:18Z</time>
      </trkpt>
      <trkpt lat="45.73744" lon="-1.20379">
        <ele>59.6</ele>
        <time>2020-01-26T12:38:19Z</time>
      </trkpt>
      <trkpt lat="45.73745" lon="-1.20371">
        <ele>60</ele>
        <time>2020-01-26T12:38:20Z</time>
      </trkpt>
      <trkpt lat="45.73745" lon="-1.20365">
        <ele>60.2</ele>
        <time>2020-01-26T12:38:21Z</time>
      </trkpt>
      <trkpt lat="45.73744" lon="-1.20358">
        <ele>60.6</ele>
        <time>2020-01-26T12:38:22Z</time>
      </trkpt>
      <trkpt lat="45.73743" lon="-1.20351">
        <ele>61</ele>
        <time>2020-01-26T12:38:23Z</time>
      </trkpt>
      <trkpt lat="45.73743" lon="-1.20344">
        <ele>61.6</ele>
        <time>2020-01-26T12:38:24Z</time>
      </trkpt>
      <trkpt lat="45.73744" lon="-1.20338">
        <ele>62.4</ele>
        <time>2020-01-26T12:38:25Z</time>
      </trkpt>
      <trkpt lat="45.73744" lon="-1.20333">
        <ele>63.6</ele>
        <time>2020-01-26T12:38:26Z</time>
      </trkpt>
      <trkpt lat="45.73743" lon="-1.20328">
        <ele>64.2</ele>
        <time>2020-01-26T12:38:27Z</time>
      </trkpt>
      <trkpt lat="45.73742" lon="-1.20324">
        <ele>64.6</ele>
        <time>2020-01-26T12:38:28Z</time>
      </trkpt>
      <trkpt lat="45.73742" lon="-1.20321">
        <ele>65.2</ele>
        <time>2020-01-26T12:38:29Z</time>
      </trkpt>
      <trkpt lat="45.73742" lon="-1.20318">
        <ele>65.4</ele>
        <time>2020-01-26T12:38:30Z</time>
      </trkpt>
      <trkpt lat="45.73742" lon="-1.20313">
        <ele>66</ele>
        <time>2020-01-26T12:38:31Z</time>
      </trkpt>
      <trkpt lat="45.73741" lon="-1.20308">
        <ele>66.2</ele>
        <time>2020-01-26T12:38:32Z</time>
      </trkpt>
      <trkpt lat="45.73741" lon="-1.20306">
        <ele>66.4</ele>
        <time>2020-01-26T12:38:33Z</time>
      </trkpt>
      <trkpt lat="45.73741" lon="-1.20302">
        <ele>66.4</ele>
        <time>2020-01-26T12:38:34Z</time>
      </trkpt>
      <trkpt lat="45.7374" lon="-1.203">
        <ele>66.2</ele>
        <time>2020-01-26T12:38:35Z</time>
      </trkpt>
      <trkpt lat="45.7374" lon="-1.20297">
        <ele>66.4</ele>
        <time>2020-01-26T12:38:36Z</time>
      </trkpt>
      <trkpt lat="45.7374" lon="-1.20294">
        <ele>66.6</ele>
        <time>2020-01-26T12:38:37Z</time>
      </trkpt>
      <trkpt lat="45.73739" lon="-1.20292">
        <ele>67</ele>
        <time>2020-01-26T12:38:38Z</time>
      </trkpt>
      <trkpt lat="45.7374" lon="-1.20289">
        <ele>67</ele>
        <time>2020-01-26T12:38:39Z</time>
      </trkpt>
      <trkpt lat="45.7374" lon="-1.20287">
        <ele>66.6</ele>
        <time>2020-01-26T12:38:40Z</time>
      </trkpt>
      <trkpt lat="45.73741" lon="-1.20286">
        <ele>66.2</ele>
        <time>2020-01-26T12:38:41Z</time>
      </trkpt>
      <trkpt lat="45.73741" lon="-1.20285">
        <ele>66</ele>
        <time>2020-01-26T12:38:42Z</time>
      </trkpt>
      <trkpt lat="45.73741" lon="-1.20282">
        <ele>65.4</ele>
        <time>2020-01-26T12:38:43Z</time>
      </trkpt>
      <trkpt lat="45.73739" lon="-1.20278">
        <ele>64.8</ele>
        <time>2020-01-26T12:38:44Z</time>
      </trkpt>
      <trkpt lat="45.7374" lon="-1.20274">
        <ele>65.2</ele>
        <time>2020-01-26T12:38:45Z</time>
      </trkpt>
      <trkpt lat="45.73739" lon="-1.20273">
        <ele>65</ele>
        <time>2020-01-26T12:38:46Z</time>
      </trkpt>
      <trkpt lat="45.7374" lon="-1.20271">
        <ele>64.6</ele>
        <time>2020-01-26T12:38:47Z</time>
      </trkpt>
      <trkpt lat="45.7374" lon="-1.20268">
        <ele>64.4</ele>
        <time>2020-01-26T12:38:48Z</time>
      </trkpt>
      <trkpt lat="45.7374" lon="-1.20265">
        <ele>64.4</ele>
        <time>2020-01-26T12:38:49Z</time>
      </trkpt>
      <trkpt lat="45.7374" lon="-1.20262">
        <ele>64.6</ele>
        <time>2020-01-26T12:38:50Z</time>
      </trkpt>
      <trkpt lat="45.73739" lon="-1.20259">
        <ele>64.8</ele>
        <time>2020-01-26T12:38:51Z</time>
      </trkpt>
      <trkpt lat="45.7374" lon="-1.20256">
        <ele>65.4</ele>
        <time>2020-01-26T12:38:52Z</time>
      </trkpt>
      <trkpt lat="45.7374" lon="-1.20254">
        <ele>65.8</ele>
        <time>2020-01-26T12:38:53Z</time>
      </trkpt>
      <trkpt lat="45.73739" lon="-1.20251">
        <ele>66.2</ele>
        <time>2020-01-26T12:38:54Z</time>
      </trkpt>
      <trkpt lat="45.7374" lon="-1.20249">
        <ele>66.4</ele>
        <time>2020-01-26T12:38:55Z</time>
      </trkpt>
      <trkpt lat="45.73739" lon="-1.20247">
        <ele>66.8</ele>
        <time>2020-01-26T12:38:56Z</time>
      </trkpt>
      <trkpt lat="45.73739" lon="-1.20245">
        <ele>67</ele>
        <time>2020-01-26T12:38:57Z</time>
      </trkpt>
      <trkpt lat="45.73739" lon="-1.20243">
        <ele>67.4</ele>
        <time>2020-01-26T12:38:58Z</time>
      </trkpt>
      <trkpt lat="45.73739" lon="-1.2024">
        <ele>67.8</ele>
        <time>2020-01-26T12:38:59Z</time>
      </trkpt>
      <trkpt lat="45.73738" lon="-1.20238">
        <ele>68</ele>
        <time>2020-01-26T12:39:00Z</time>
      </trkpt>
      <trkpt lat="45.73738" lon="-1.20236">
        <ele>68.6</ele>
        <time>2020-01-26T12:39:01Z</time>
      </trkpt>
      <trkpt lat="45.73738" lon="-1.20233">
        <ele>69</ele>
        <time>2020-01-26T12:39:02Z</time>
      </trkpt>
      <trkpt lat="45.73738" lon="-1.20232">
        <ele>69.4</ele>
        <time>2020-01-26T12:39:03Z</time>
      </trkpt>
      <trkpt lat="45.73738" lon="-1.2023">
        <ele>69.8</ele>
        <time>2020-01-26T12:39:04Z</time>
      </trkpt>
      <trkpt lat="45.73738" lon="-1.20228">
        <ele>70.2</ele>
        <time>2020-01-26T12:39:05Z</time>
      </trkpt>
      <trkpt lat="45.73738" lon="-1.20225">
        <ele>70.4</ele>
        <time>2020-01-26T12:39:06Z</time>
      </trkpt>
      <trkpt lat="45.73738" lon="-1.20224">
        <ele>70.8</ele>
        <time>2020-01-26T12:39:07Z</time>
      </trkpt>
      <trkpt lat="45.73738" lon="-1.20222">
        <ele>71</ele>
        <time>2020-01-26T12:39:08Z</time>
      </trkpt>
      <trkpt lat="45.73738" lon="-1.2022">
        <ele>71</ele>
        <time>2020-01-26T12:39:09Z</time>
      </trkpt>
      <trkpt lat="45.73739" lon="-1.20217">
        <ele>71.2</ele>
        <time>2020-01-26T12:39:10Z</time>
      </trkpt>
      <trkpt lat="45.73738" lon="-1.20215">
        <ele>71.4</ele>
        <time>2020-01-26T12:39:11Z</time>
      </trkpt>
      <trkpt lat="45.73738" lon="-1.20213">
        <ele>71.8</ele>
        <time>2020-01-26T12:39:12Z</time>
      </trkpt>
      <trkpt lat="45.73738" lon="-1.20211">
        <ele>72.4</ele>
        <time>2020-01-26T12:39:13Z</time>
      </trkpt>
      <trkpt lat="45.73738" lon="-1.2021">
        <ele>73</ele>
        <time>2020-01-26T12:39:14Z</time>
      </trkpt>
      <trkpt lat="45.73737" lon="-1.20208">
        <ele>73.8</ele>
        <time>2020-01-26T12:39:15Z</time>
      </trkpt>
      <trkpt lat="45.73738" lon="-1.20207">
        <ele>73.8</ele>
        <time>2020-01-26T12:39:16Z</time>
      </trkpt>
      <trkpt lat="45.73738" lon="-1.20204">
        <ele>73.8</ele>
        <time>2020-01-26T12:39:17Z</time>
      </trkpt>
      <trkpt lat="45.73738" lon="-1.20202">
        <ele>74</ele>
        <time>2020-01-26T12:39:18Z</time>
      </trkpt>
      <trkpt lat="45.73737" lon="-1.202">
        <ele>74</ele>
        <time>2020-01-26T12:39:19Z</time>
      </trkpt>
      <trkpt lat="45.73737" lon="-1.20198">
        <ele>74</ele>
        <time>2020-01-26T12:39:20Z</time>
      </trkpt>
      <trkpt lat="45.73737" lon="-1.20196">
        <ele>74.2</ele>
        <time>2020-01-26T12:39:21Z</time>
      </trkpt>
      <trkpt lat="45.73736" lon="-1.20194">
        <ele>74.4</ele>
        <time>2020-01-26T12:39:22Z</time>
      </trkpt>
      <trkpt lat="45.73736" lon="-1.20192">
        <ele>74.6</ele>
        <time>2020-01-26T12:39:23Z</time>
      </trkpt>
      <trkpt lat="45.73735" lon="-1.20191">
        <ele>75</ele>
        <time>2020-01-26T12:39:24Z</time>
      </trkpt>
      <trkpt lat="45.73735" lon="-1.20188">
        <ele>75.2</ele>
        <time>2020-01-26T12:39:25Z</time>
      </trkpt>
      <trkpt lat="45.73735" lon="-1.20185">
        <ele>75.4</ele>
        <time>2020-01-26T12:39:26Z</time>
      </trkpt>
      <trkpt lat="45.73735" lon="-1.20183">
        <ele>75.8</ele>
        <time>2020-01-26T12:39:27Z</time>
      </trkpt>
      <trkpt lat="45.73735" lon="-1.20181">
        <ele>75.8</ele>
        <time>2020-01-26T12:39:28Z</time>
      </trkpt>
      <trkpt lat="45.73736" lon="-1.20179">
        <ele>75.8</ele>
        <time>2020-01-26T12:39:29Z</time>
      </trkpt>
      <trkpt lat="45.73736" lon="-1.20177">
        <ele>76</ele>
        <time>2020-01-26T12:39:30Z</time>
      </trkpt>
      <trkpt lat="45.73736" lon="-1.20174">
        <ele>76</ele>
        <time>2020-01-26T12:39:31Z</time>
      </trkpt>
      <trkpt lat="45.73736" lon="-1.20172">
        <ele>76</ele>
        <time>2020-01-26T12:39:32Z</time>
      </trkpt>
      <trkpt lat="45.73736" lon="-1.20171">
        <ele>76.2</ele>
        <time>2020-01-26T12:39:33Z</time>
      </trkpt>
      <trkpt lat="45.73736" lon="-1.20169">
        <ele>76.4</ele>
        <time>2020-01-26T12:39:34Z</time>
      </trkpt>
      <trkpt lat="45.73735" lon="-1.20167">
        <ele>76.4</ele>
        <time>2020-01-26T12:39:35Z</time>
      </trkpt>
      <trkpt lat="45.73735" lon="-1.20165">
        <ele>76.6</ele>
        <time>2020-01-26T12:39:36Z</time>
      </trkpt>
      <trkpt lat="45.73736" lon="-1.20163">
        <ele>77</ele>
        <time>2020-01-26T12:39:37Z</time>
      </trkpt>
      <trkpt lat="45.73736" lon="-1.20161">
        <ele>77</ele>
        <time>2020-01-26T12:39:38Z</time>
      </trkpt>
      <trkpt lat="45.73736" lon="-1.20158">
        <ele>77</ele>
        <time>2020-01-26T12:39:39Z</time>
      </trkpt>
      <trkpt lat="45.73736" lon="-1.20156">
        <ele>77</ele>
        <time>2020-01-26T12:39:40Z</time>
      </trkpt>
      <trkpt lat="45.73736" lon="-1.20154">
        <ele>77</ele>
        <time>2020-01-26T12:39:41Z</time>
      </trkpt>
      <trkpt lat="45.73737" lon="-1.20152">
        <ele>77</ele>
        <time>2020-01-26T12:39:42Z</time>
      </trkpt>
      <trkpt lat="45.73736" lon="-1.2015">
        <ele>77</ele>
        <time>2020-01-26T12:39:43Z</time>
      </trkpt>
      <trkpt lat="45.73735" lon="-1.20147">
        <ele>77</ele>
        <time>2020-01-26T12:39:44Z</time>
      </trkpt>
      <trkpt lat="45.73735" lon="-1.20146">
        <ele>77.2</ele>
        <time>2020-01-26T12:39:45Z</time>
      </trkpt>
      <trkpt lat="45.73735" lon="-1.20144">
        <ele>77.6</ele>
        <time>2020-01-26T12:39:46Z</time>
      </trkpt>
      <trkpt lat="45.73735" lon="-1.20142">
        <ele>77.8</ele>
        <time>2020-01-26T12:39:47Z</time>
      </trkpt>
      <trkpt lat="45.73735" lon="-1.20139">
        <ele>78</ele>
        <time>2020-01-26T12:39:48Z</time>
      </trkpt>
      <trkpt lat="45.73735" lon="-1.20138">
        <ele>78.2</ele>
        <time>2020-01-26T12:39:49Z</time>
      </trkpt>
      <trkpt lat="45.73735" lon="-1.20136">
        <ele>78.2</ele>
        <time>2020-01-26T12:39:50Z</time>
      </trkpt>
      <trkpt lat="45.73734" lon="-1.20134">
        <ele>78.6</ele>
        <time>2020-01-26T12:39:51Z</time>
      </trkpt>
      <trkpt lat="45.73735" lon="-1.20132">
        <ele>78.8</ele>
        <time>2020-01-26T12:39:52Z</time>
      </trkpt>
      <trkpt lat="45.73734" lon="-1.2013">
        <ele>78.8</ele>
        <time>2020-01-26T12:39:53Z</time>
      </trkpt>
      <trkpt lat="45.73734" lon="-1.20128">
        <ele>78.8</ele>
        <time>2020-01-26T12:39:54Z</time>
      </trkpt>
      <trkpt lat="45.73733" lon="-1.20126">
        <ele>79.2</ele>
        <time>2020-01-26T12:39:55Z</time>
      </trkpt>
      <trkpt lat="45.73734" lon="-1.20124">
        <ele>79.4</ele>
        <time>2020-01-26T12:39:56Z</time>
      </trkpt>
      <trkpt lat="45.73734" lon="-1.20122">
        <ele>79.4</ele>
        <time>2020-01-26T12:39:57Z</time>
      </trkpt>
      <trkpt lat="45.73734" lon="-1.20119">
        <ele>79.6</ele>
        <time>2020-01-26T12:39:58Z</time>
      </trkpt>
      <trkpt lat="45.73734" lon="-1.20117">
        <ele>79.6</ele>
        <time>2020-01-26T12:39:59Z</time>
      </trkpt>
      <trkpt lat="45.73735" lon="-1.20115">
        <ele>79.6</ele>
        <time>2020-01-26T12:40:00Z</time>
      </trkpt>
      <trkpt lat="45.73734" lon="-1.20113">
        <ele>80</ele>
        <time>2020-01-26T12:40:01Z</time>
      </trkpt>
      <trkpt lat="45.73734" lon="-1.20111">
        <ele>80.2</ele>
        <time>2020-01-26T12:40:02Z</time>
      </trkpt>
      <trkpt lat="45.73735" lon="-1.20109">
        <ele>80.4</ele>
        <time>2020-01-26T12:40:03Z</time>
      </trkpt>
      <trkpt lat="45.73735" lon="-1.20107">
        <ele>80.6</ele>
        <time>2020-01-26T12:40:04Z</time>
      </trkpt>
      <trkpt lat="45.73734" lon="-1.20105">
        <ele>80.8</ele>
        <time>2020-01-26T12:40:05Z</time>
      </trkpt>
      <trkpt lat="45.73734" lon="-1.20103">
        <ele>81.2</ele>
        <time>2020-01-26T12:40:06Z</time>
      </trkpt>
      <trkpt lat="45.73734" lon="-1.20101">
        <ele>81.6</ele>
        <time>2020-01-26T12:40:07Z</time>
      </trkpt>
      <trkpt lat="45.73735" lon="-1.201">
        <ele>81.8</ele>
        <time>2020-01-26T12:40:08Z</time>
      </trkpt>
      <trkpt lat="45.73735" lon="-1.20097">
        <ele>82.2</ele>
        <time>2020-01-26T12:40:09Z</time>
      </trkpt>
      <trkpt lat="45.73735" lon="-1.20095">
        <ele>83</ele>
        <time>2020-01-26T12:40:10Z</time>
      </trkpt>
      <trkpt lat="45.73735" lon="-1.20093">
        <ele>83.2</ele>
        <time>2020-01-26T12:40:11Z</time>
      </trkpt>
      <trkpt lat="45.73735" lon="-1.20091">
        <ele>83.6</ele>
        <time>2020-01-26T12:40:12Z</time>
      </trkpt>
      <trkpt lat="45.73735" lon="-1.20089">
        <ele>84</ele>
        <time>2020-01-26T12:40:13Z</time>
      </trkpt>
      <trkpt lat="45.73735" lon="-1.20086">
        <ele>84.2</ele>
        <time>2020-01-26T12:40:14Z</time>
      </trkpt>
      <trkpt lat="45.73735" lon="-1.20084">
        <ele>84.2</ele>
        <time>2020-01-26T12:40:15Z</time>
      </trkpt>
      <trkpt lat="45.73734" lon="-1.20082">
        <ele>84.4</ele>
        <time>2020-01-26T12:40:16Z</time>
      </trkpt>
      <trkpt lat="45.73734" lon="-1.2008">
        <ele>84.8</ele>
        <time>2020-01-26T12:40:17Z</time>
      </trkpt>
      <trkpt lat="45.73734" lon="-1.20077">
        <ele>85.2</ele>
        <time>2020-01-26T12:40:18Z</time>
      </trkpt>
      <trkpt lat="45.73734" lon="-1.20075">
        <ele>85.8</ele>
        <time>2020-01-26T12:40:19Z</time>
      </trkpt>
      <trkpt lat="45.73734" lon="-1.20072">
        <ele>86</ele>
        <time>2020-01-26T12:40:20Z</time>
      </trkpt>
      <trkpt lat="45.73734" lon="-1.2007">
        <ele>86.2</ele>
        <time>2020-01-26T12:40:21Z</time>
      </trkpt>
      <trkpt lat="45.73735" lon="-1.20068">
        <ele>86.8</ele>
        <time>2020-01-26T12:40:22Z</time>
      </trkpt>
      <trkpt lat="45.73735" lon="-1.20065">
        <ele>87</ele>
        <time>2020-01-26T12:40:23Z</time>
      </trkpt>
      <trkpt lat="45.73735" lon="-1.20063">
        <ele>87.2</ele>
        <time>2020-01-26T12:40:24Z</time>
      </trkpt>
      <trkpt lat="45.73734" lon="-1.20061">
        <ele>87.4</ele>
        <time>2020-01-26T12:40:25Z</time>
      </trkpt>
      <trkpt lat="45.73734" lon="-1.20058">
        <ele>87.6</ele>
        <time>2020-01-26T12:40:26Z</time>
      </trkpt>
      <trkpt lat="45.73734" lon="-1.20055">
        <ele>87.4</ele>
        <time>2020-01-26T12:40:27Z</time>
      </trkpt>
      <trkpt lat="45.73734" lon="-1.20052">
        <ele>87.4</ele>
        <time>2020-01-26T12:40:28Z</time>
      </trkpt>
      <trkpt lat="45.73734" lon="-1.20051">
        <ele>87.2</ele>
        <time>2020-01-26T12:40:29Z</time>
      </trkpt>
      <trkpt lat="45.73735" lon="-1.20048">
        <ele>87.2</ele>
        <time>2020-01-26T12:40:30Z</time>
      </trkpt>
      <trkpt lat="45.73734" lon="-1.20046">
        <ele>87.4</ele>
        <time>2020-01-26T12:40:31Z</time>
      </trkpt>
      <trkpt lat="45.73734" lon="-1.20044">
        <ele>87.2</ele>
        <time>2020-01-26T12:40:32Z</time>
      </trkpt>
      <trkpt lat="45.73734" lon="-1.20041">
        <ele>87.2</ele>
        <time>2020-01-26T12:40:33Z</time>
      </trkpt>
      <trkpt lat="45.73734" lon="-1.20039">
        <ele>87.2</ele>
        <time>2020-01-26T12:40:34Z</time>
      </trkpt>
      <trkpt lat="45.73733" lon="-1.20036">
        <ele>87.2</ele>
        <time>2020-01-26T12:40:35Z</time>
      </trkpt>
      <trkpt lat="45.73733" lon="-1.20033">
        <ele>87</ele>
        <time>2020-01-26T12:40:36Z</time>
      </trkpt>
      <trkpt lat="45.73733" lon="-1.20031">
        <ele>87</ele>
        <time>2020-01-26T12:40:37Z</time>
      </trkpt>
      <trkpt lat="45.73733" lon="-1.20028">
        <ele>87</ele>
        <time>2020-01-26T12:40:38Z</time>
      </trkpt>
      <trkpt lat="45.73732" lon="-1.20026">
        <ele>86.8</ele>
        <time>2020-01-26T12:40:39Z</time>
      </trkpt>
      <trkpt lat="45.73733" lon="-1.20023">
        <ele>86.8</ele>
        <time>2020-01-26T12:40:40Z</time>
      </trkpt>
      <trkpt lat="45.73732" lon="-1.2002">
        <ele>86.8</ele>
        <time>2020-01-26T12:40:41Z</time>
      </trkpt>
      <trkpt lat="45.73732" lon="-1.20018">
        <ele>87</ele>
        <time>2020-01-26T12:40:42Z</time>
      </trkpt>
      <trkpt lat="45.73732" lon="-1.20017">
        <ele>87</ele>
        <time>2020-01-26T12:40:43Z</time>
      </trkpt>
      <trkpt lat="45.73732" lon="-1.20015">
        <ele>87</ele>
        <time>2020-01-26T12:40:44Z</time>
      </trkpt>
      <trkpt lat="45.73732" lon="-1.20012">
        <ele>87.2</ele>
        <time>2020-01-26T12:40:45Z</time>
      </trkpt>
      <trkpt lat="45.73731" lon="-1.2001">
        <ele>87.4</ele>
        <time>2020-01-26T12:40:46Z</time>
      </trkpt>
      <trkpt lat="45.73731" lon="-1.20008">
        <ele>87.6</ele>
        <time>2020-01-26T12:40:47Z</time>
      </trkpt>
      <trkpt lat="45.73732" lon="-1.20006">
        <ele>87.6</ele>
        <time>2020-01-26T12:40:48Z</time>
      </trkpt>
      <trkpt lat="45.73732" lon="-1.20004">
        <ele>87.8</ele>
        <time>2020-01-26T12:40:49Z</time>
      </trkpt>
      <trkpt lat="45.73732" lon="-1.20001">
        <ele>87.6</ele>
        <time>2020-01-26T12:40:50Z</time>
      </trkpt>
      <trkpt lat="45.73732" lon="-1.2">
        <ele>87.6</ele>
        <time>2020-01-26T12:40:51Z</time>
      </trkpt>
      <trkpt lat="45.73731" lon="-1.19997">
        <ele>88</ele>
        <time>2020-01-26T12:40:52Z</time>
      </trkpt>
      <trkpt lat="45.73731" lon="-1.19993">
        <ele>88.2</ele>
        <time>2020-01-26T12:40:53Z</time>
      </trkpt>
      <trkpt lat="45.7373" lon="-1.1999">
        <ele>88.4</ele>
        <time>2020-01-26T12:40:54Z</time>
      </trkpt>
      <trkpt lat="45.73731" lon="-1.19988">
        <ele>88.6</ele>
        <time>2020-01-26T12:40:55Z</time>
      </trkpt>
      <trkpt lat="45.73731" lon="-1.19985">
        <ele>88.6</ele>
        <time>2020-01-26T12:40:56Z</time>
      </trkpt>
      <trkpt lat="45.73731" lon="-1.19983">
        <ele>88.8</ele>
        <time>2020-01-26T12:40:57Z</time>
      </trkpt>
      <trkpt lat="45.73731" lon="-1.1998">
        <ele>89.2</ele>
        <time>2020-01-26T12:40:58Z</time>
      </trkpt>
      <trkpt lat="45.73732" lon="-1.19978">
        <ele>89.6</ele>
        <time>2020-01-26T12:40:59Z</time>
      </trkpt>
      <trkpt lat="45.73731" lon="-1.19975">
        <ele>90</ele>
        <time>2020-01-26T12:41:00Z</time>
      </trkpt>
      <trkpt lat="45.73731" lon="-1.19972">
        <ele>90.2</ele>
        <time>2020-01-26T12:41:01Z</time>
      </trkpt>
      <trkpt lat="45.7373" lon="-1.19969">
        <ele>90.4</ele>
        <time>2020-01-26T12:41:02Z</time>
      </trkpt>
      <trkpt lat="45.7373" lon="-1.19967">
        <ele>90.8</ele>
        <time>2020-01-26T12:41:03Z</time>
      </trkpt>
      <trkpt lat="45.73731" lon="-1.19964">
        <ele>91</ele>
        <time>2020-01-26T12:41:04Z</time>
      </trkpt>
      <trkpt lat="45.73731" lon="-1.19961">
        <ele>91.4</ele>
        <time>2020-01-26T12:41:05Z</time>
      </trkpt>
      <trkpt lat="45.73731" lon="-1.19959">
        <ele>91.8</ele>
        <time>2020-01-26T12:41:06Z</time>
      </trkpt>
      <trkpt lat="45.73732" lon="-1.19957">
        <ele>91.8</ele>
        <time>2020-01-26T12:41:07Z</time>
      </trkpt>
      <trkpt lat="45.73732" lon="-1.19955">
        <ele>91.8</ele>
        <time>2020-01-26T12:41:08Z</time>
      </trkpt>
      <trkpt lat="45.73732" lon="-1.19952">
        <ele>91.8</ele>
        <time>2020-01-26T12:41:09Z</time>
      </trkpt>
      <trkpt lat="45.73732" lon="-1.19949">
        <ele>92</ele>
        <time>2020-01-26T12:41:10Z</time>
      </trkpt>
      <trkpt lat="45.73732" lon="-1.19947">
        <ele>92.2</ele>
        <time>2020-01-26T12:41:11Z</time>
      </trkpt>
      <trkpt lat="45.73732" lon="-1.19944">
        <ele>92.4</ele>
        <time>2020-01-26T12:41:12Z</time>
      </trkpt>
      <trkpt lat="45.73732" lon="-1.19942">
        <ele>92.8</ele>
        <time>2020-01-26T12:41:13Z</time>
      </trkpt>
      <trkpt lat="45.73731" lon="-1.1994">
        <ele>93.2</ele>
        <time>2020-01-26T12:41:14Z</time>
      </trkpt>
      <trkpt lat="45.73731" lon="-1.19938">
        <ele>93.4</ele>
        <time>2020-01-26T12:41:15Z</time>
      </trkpt>
      <trkpt lat="45.73731" lon="-1.19936">
        <ele>93.4</ele>
        <time>2020-01-26T12:41:16Z</time>
      </trkpt>
      <trkpt lat="45.73731" lon="-1.19933">
        <ele>93.6</ele>
        <time>2020-01-26T12:41:17Z</time>
      </trkpt>
      <trkpt lat="45.7373" lon="-1.1993">
        <ele>93.8</ele>
        <time>2020-01-26T12:41:18Z</time>
      </trkpt>
      <trkpt lat="45.7373" lon="-1.19928">
        <ele>93.8</ele>
        <time>2020-01-26T12:41:19Z</time>
      </trkpt>
      <trkpt lat="45.7373" lon="-1.19926">
        <ele>93.8</ele>
        <time>2020-01-26T12:41:20Z</time>
      </trkpt>
      <trkpt lat="45.7373" lon="-1.19923">
        <ele>93.8</ele>
        <time>2020-01-26T12:41:21Z</time>
      </trkpt>
      <trkpt lat="45.7373" lon="-1.1992">
        <ele>93.6</ele>
        <time>2020-01-26T12:41:22Z</time>
      </trkpt>
      <trkpt lat="45.7373" lon="-1.19917">
        <ele>93.6</ele>
        <time>2020-01-26T12:41:23Z</time>
      </trkpt>
      <trkpt lat="45.73729" lon="-1.19914">
        <ele>93.6</ele>
        <time>2020-01-26T12:41:24Z</time>
      </trkpt>
      <trkpt lat="45.7373" lon="-1.19911">
        <ele>93.8</ele>
        <time>2020-01-26T12:41:25Z</time>
      </trkpt>
      <trkpt lat="45.73729" lon="-1.19907">
        <ele>93.6</ele>
        <time>2020-01-26T12:41:26Z</time>
      </trkpt>
      <trkpt lat="45.7373" lon="-1.19903">
        <ele>93.6</ele>
        <time>2020-01-26T12:41:27Z</time>
      </trkpt>
      <trkpt lat="45.73729" lon="-1.199">
        <ele>94</ele>
        <time>2020-01-26T12:41:28Z</time>
      </trkpt>
      <trkpt lat="45.73729" lon="-1.19897">
        <ele>94.2</ele>
        <time>2020-01-26T12:41:29Z</time>
      </trkpt>
      <trkpt lat="45.73729" lon="-1.19894">
        <ele>94.4</ele>
        <time>2020-01-26T12:41:30Z</time>
      </trkpt>
      <trkpt lat="45.73728" lon="-1.19891">
        <ele>94.6</ele>
        <time>2020-01-26T12:41:31Z</time>
      </trkpt>
      <trkpt lat="45.73729" lon="-1.19887">
        <ele>94.6</ele>
        <time>2020-01-26T12:41:32Z</time>
      </trkpt>
      <trkpt lat="45.73729" lon="-1.19884">
        <ele>94.8</ele>
        <time>2020-01-26T12:41:33Z</time>
      </trkpt>
      <trkpt lat="45.73729" lon="-1.19881">
        <ele>95</ele>
        <time>2020-01-26T12:41:34Z</time>
      </trkpt>
      <trkpt lat="45.73728" lon="-1.19877">
        <ele>95.4</ele>
        <time>2020-01-26T12:41:35Z</time>
      </trkpt>
      <trkpt lat="45.73728" lon="-1.19875">
        <ele>95.4</ele>
        <time>2020-01-26T12:41:36Z</time>
      </trkpt>
      <trkpt lat="45.73728" lon="-1.19871">
        <ele>95.8</ele>
        <time>2020-01-26T12:41:37Z</time>
      </trkpt>
      <trkpt lat="45.73728" lon="-1.19869">
        <ele>96.2</ele>
        <time>2020-01-26T12:41:38Z</time>
      </trkpt>
      <trkpt lat="45.73728" lon="-1.19866">
        <ele>96.4</ele>
        <time>2020-01-26T12:41:39Z</time>
      </trkpt>
      <trkpt lat="45.73728" lon="-1.19863">
        <ele>96.6</ele>
        <time>2020-01-26T12:41:40Z</time>
      </trkpt>
      <trkpt lat="45.73728" lon="-1.19861">
        <ele>96.6</ele>
        <time>2020-01-26T12:41:41Z</time>
      </trkpt>
      <trkpt lat="45.73727" lon="-1.19858">
        <ele>96.8</ele>
        <time>2020-01-26T12:41:42Z</time>
      </trkpt>
      <trkpt lat="45.73727" lon="-1.19856">
        <ele>96.8</ele>
        <time>2020-01-26T12:41:43Z</time>
      </trkpt>
      <trkpt lat="45.73727" lon="-1.19854">
        <ele>96.8</ele>
        <time>2020-01-26T12:41:44Z</time>
      </trkpt>
      <trkpt lat="45.73727" lon="-1.19852">
        <ele>96.8</ele>
        <time>2020-01-26T12:41:45Z</time>
      </trkpt>
      <trkpt lat="45.73726" lon="-1.1985">
        <ele>97</ele>
        <time>2020-01-26T12:41:46Z</time>
      </trkpt>
      <trkpt lat="45.73726" lon="-1.19848">
        <ele>97</ele>
        <time>2020-01-26T12:41:47Z</time>
      </trkpt>
      <trkpt lat="45.73725" lon="-1.19847">
        <ele>97</ele>
        <time>2020-01-26T12:41:48Z</time>
      </trkpt>
      <trkpt lat="45.73725" lon="-1.19845">
        <ele>97</ele>
        <time>2020-01-26T12:41:49Z</time>
      </trkpt>
      <trkpt lat="45.73725" lon="-1.19842">
        <ele>96.8</ele>
        <time>2020-01-26T12:41:50Z</time>
      </trkpt>
      <trkpt lat="45.73725" lon="-1.1984">
        <ele>96.6</ele>
        <time>2020-01-26T12:41:51Z</time>
      </trkpt>
      <trkpt lat="45.73725" lon="-1.19839">
        <ele>96.4</ele>
        <time>2020-01-26T12:41:52Z</time>
      </trkpt>
      <trkpt lat="45.73725" lon="-1.19837">
        <ele>96.4</ele>
        <time>2020-01-26T12:41:53Z</time>
      </trkpt>
      <trkpt lat="45.73725" lon="-1.19834">
        <ele>96.2</ele>
        <time>2020-01-26T12:41:54Z</time>
      </trkpt>
      <trkpt lat="45.73724" lon="-1.19833">
        <ele>96</ele>
        <time>2020-01-26T12:41:55Z</time>
      </trkpt>
      <trkpt lat="45.73724" lon="-1.19832">
        <ele>95.6</ele>
        <time>2020-01-26T12:41:56Z</time>
      </trkpt>
      <trkpt lat="45.73724" lon="-1.1983">
        <ele>95.6</ele>
        <time>2020-01-26T12:41:57Z</time>
      </trkpt>
      <trkpt lat="45.73724" lon="-1.19829">
        <ele>95.4</ele>
        <time>2020-01-26T12:41:58Z</time>
      </trkpt>
      <trkpt lat="45.73724" lon="-1.19827">
        <ele>95.4</ele>
        <time>2020-01-26T12:41:59Z</time>
      </trkpt>
      <trkpt lat="45.73724" lon="-1.19826">
        <ele>95.4</ele>
        <time>2020-01-26T12:42:00Z</time>
      </trkpt>
      <trkpt lat="45.73724" lon="-1.19824">
        <ele>95.6</ele>
        <time>2020-01-26T12:42:01Z</time>
      </trkpt>
      <trkpt lat="45.73724" lon="-1.19823">
        <ele>95.6</ele>
        <time>2020-01-26T12:42:02Z</time>
      </trkpt>
      <trkpt lat="45.73725" lon="-1.19822">
        <ele>95.6</ele>
        <time>2020-01-26T12:42:03Z</time>
      </trkpt>
      <trkpt lat="45.73725" lon="-1.19821">
        <ele>95.4</ele>
        <time>2020-01-26T12:42:04Z</time>
      </trkpt>
      <trkpt lat="45.73725" lon="-1.1982">
        <ele>95.2</ele>
        <time>2020-01-26T12:42:05Z</time>
      </trkpt>
      <trkpt lat="45.73725" lon="-1.19818">
        <ele>95.2</ele>
        <time>2020-01-26T12:42:06Z</time>
      </trkpt>
      <trkpt lat="45.73725" lon="-1.19817">
        <ele>95.2</ele>
        <time>2020-01-26T12:42:07Z</time>
      </trkpt>
      <trkpt lat="45.73725" lon="-1.19815">
        <ele>95.2</ele>
        <time>2020-01-26T12:42:08Z</time>
      </trkpt>
      <trkpt lat="45.73724" lon="-1.19814">
        <ele>95</ele>
        <time>2020-01-26T12:42:09Z</time>
      </trkpt>
      <trkpt lat="45.73724" lon="-1.19812">
        <ele>95</ele>
        <time>2020-01-26T12:42:10Z</time>
      </trkpt>
      <trkpt lat="45.73724" lon="-1.1981">
        <ele>95</ele>
        <time>2020-01-26T12:42:11Z</time>
      </trkpt>
      <trkpt lat="45.73724" lon="-1.19808">
        <ele>95</ele>
        <time>2020-01-26T12:42:12Z</time>
      </trkpt>
      <trkpt lat="45.73724" lon="-1.19806">
        <ele>94.8</ele>
        <time>2020-01-26T12:42:13Z</time>
      </trkpt>
      <trkpt lat="45.73724" lon="-1.19804">
        <ele>94.8</ele>
        <time>2020-01-26T12:42:14Z</time>
      </trkpt>
      <trkpt lat="45.73724" lon="-1.19802">
        <ele>94.6</ele>
        <time>2020-01-26T12:42:15Z</time>
      </trkpt>
      <trkpt lat="45.73724" lon="-1.19799">
        <ele>94.4</ele>
        <time>2020-01-26T12:42:16Z</time>
      </trkpt>
      <trkpt lat="45.73724" lon="-1.19795">
        <ele>94</ele>
        <time>2020-01-26T12:42:17Z</time>
      </trkpt>
      <trkpt lat="45.73724" lon="-1.19791">
        <ele>93.8</ele>
        <time>2020-01-26T12:42:18Z</time>
      </trkpt>
      <trkpt lat="45.73724" lon="-1.19785">
        <ele>93.6</ele>
        <time>2020-01-26T12:42:19Z</time>
      </trkpt>
      <trkpt lat="45.73724" lon="-1.19778">
        <ele>93.4</ele>
        <time>2020-01-26T12:42:20Z</time>
      </trkpt>
      <trkpt lat="45.73724" lon="-1.19771">
        <ele>93</ele>
        <time>2020-01-26T12:42:21Z</time>
      </trkpt>
      <trkpt lat="45.73724" lon="-1.19765">
        <ele>92.8</ele>
        <time>2020-01-26T12:42:22Z</time>
      </trkpt>
      <trkpt lat="45.73725" lon="-1.19756">
        <ele>92.4</ele>
        <time>2020-01-26T12:42:23Z</time>
      </trkpt>
      <trkpt lat="45.73724" lon="-1.19747">
        <ele>91.8</ele>
        <time>2020-01-26T12:42:24Z</time>
      </trkpt>
      <trkpt lat="45.73723" lon="-1.19738">
        <ele>91.4</ele>
        <time>2020-01-26T12:42:25Z</time>
      </trkpt>
      <trkpt lat="45.73724" lon="-1.19729">
        <ele>90.8</ele>
        <time>2020-01-26T12:42:26Z</time>
      </trkpt>
      <trkpt lat="45.73724" lon="-1.19723">
        <ele>90</ele>
        <time>2020-01-26T12:42:27Z</time>
      </trkpt>
      <trkpt lat="45.73723" lon="-1.19715">
        <ele>89.2</ele>
        <time>2020-01-26T12:42:28Z</time>
      </trkpt>
      <trkpt lat="45.73722" lon="-1.1971">
        <ele>88.4</ele>
        <time>2020-01-26T12:42:29Z</time>
      </trkpt>
      <trkpt lat="45.73722" lon="-1.19706">
        <ele>87.8</ele>
        <time>2020-01-26T12:42:30Z</time>
      </trkpt>
      <trkpt lat="45.73721" lon="-1.19705">
        <ele>87</ele>
        <time>2020-01-26T12:42:31Z</time>
      </trkpt>
      <trkpt lat="45.73721" lon="-1.19705">
        <ele>86.4</ele>
        <time>2020-01-26T12:42:32Z</time>
      </trkpt>
      <trkpt lat="45.73721" lon="-1.19705">
        <ele>85.8</ele>
        <time>2020-01-26T12:42:33Z</time>
      </trkpt>
      <trkpt lat="45.73721" lon="-1.19705">
        <ele>85.4</ele>
        <time>2020-01-26T12:42:34Z</time>
      </trkpt>
      <trkpt lat="45.73721" lon="-1.19705">
        <ele>85.2</ele>
        <time>2020-01-26T12:42:35Z</time>
      </trkpt>
      <trkpt lat="45.73722" lon="-1.19705">
        <ele>85.2</ele>
        <time>2020-01-26T12:42:36Z</time>
      </trkpt>
      <trkpt lat="45.73721" lon="-1.19705">
        <ele>85.2</ele>
        <time>2020-01-26T12:42:37Z</time>
      </trkpt>
      <trkpt lat="45.73721" lon="-1.19704">
        <ele>85</ele>
        <time>2020-01-26T12:42:38Z</time>
      </trkpt>
      <trkpt lat="45.73722" lon="-1.19703">
        <ele>84.8</ele>
        <time>2020-01-26T12:42:39Z</time>
      </trkpt>
      <trkpt lat="45.73722" lon="-1.19701">
        <ele>84.4</ele>
        <time>2020-01-26T12:42:40Z</time>
      </trkpt>
      <trkpt lat="45.73722" lon="-1.197">
        <ele>84</ele>
        <time>2020-01-26T12:42:41Z</time>
      </trkpt>
      <trkpt lat="45.73722" lon="-1.19701">
        <ele>83.8</ele>
        <time>2020-01-26T12:42:42Z</time>
      </trkpt>
      <trkpt lat="45.73722" lon="-1.19701">
        <ele>83.6</ele>
        <time>2020-01-26T12:42:43Z</time>
      </trkpt>
      <trkpt lat="45.73722" lon="-1.19702">
        <ele>83.4</ele>
        <time>2020-01-26T12:42:44Z</time>
      </trkpt>
      <trkpt lat="45.73722" lon="-1.19702">
        <ele>83.4</ele>
        <time>2020-01-26T12:42:45Z</time>
      </trkpt>
      <trkpt lat="45.73722" lon="-1.19702">
        <ele>83.4</ele>
        <time>2020-01-26T12:42:46Z</time>
      </trkpt>
      <trkpt lat="45.73723" lon="-1.19701">
        <ele>83.6</ele>
        <time>2020-01-26T12:42:47Z</time>
      </trkpt>
      <trkpt lat="45.73723" lon="-1.19701">
        <ele>83.8</ele>
        <time>2020-01-26T12:42:48Z</time>
      </trkpt>
      <trkpt lat="45.73723" lon="-1.19701">
        <ele>83.6</ele>
        <time>2020-01-26T12:42:49Z</time>
      </trkpt>
      <trkpt lat="45.73723" lon="-1.19701">
        <ele>83.6</ele>
        <time>2020-01-26T12:42:50Z</time>
      </trkpt>
      <trkpt lat="45.73723" lon="-1.197">
        <ele>83.4</ele>
        <time>2020-01-26T12:42:51Z</time>
      </trkpt>
      <trkpt lat="45.73723" lon="-1.197">
        <ele>83.4</ele>
        <time>2020-01-26T12:42:52Z</time>
      </trkpt>
      <trkpt lat="45.73723" lon="-1.197">
        <ele>83.2</ele>
        <time>2020-01-26T12:42:53Z</time>
      </trkpt>
      <trkpt lat="45.73722" lon="-1.197">
        <ele>83.2</ele>
        <time>2020-01-26T12:42:54Z</time>
      </trkpt>
      <trkpt lat="45.73722" lon="-1.197">
        <ele>83.2</ele>
        <time>2020-01-26T12:42:55Z</time>
      </trkpt>
      <trkpt lat="45.73722" lon="-1.197">
        <ele>83.2</ele>
        <time>2020-01-26T12:42:56Z</time>
      </trkpt>
      <trkpt lat="45.73722" lon="-1.197">
        <ele>83</ele>
        <time>2020-01-26T12:42:57Z</time>
      </trkpt>
      <trkpt lat="45.73722" lon="-1.197">
        <ele>83</ele>
        <time>2020-01-26T12:42:58Z</time>
      </trkpt>
      <trkpt lat="45.73722" lon="-1.197">
        <ele>83</ele>
        <time>2020-01-26T12:42:59Z</time>
      </trkpt>
      <trkpt lat="45.73722" lon="-1.197">
        <ele>83</ele>
        <time>2020-01-26T12:43:00Z</time>
      </trkpt>
      <trkpt lat="45.73722" lon="-1.197">
        <ele>83</ele>
        <time>2020-01-26T12:43:01Z</time>
      </trkpt>
      <trkpt lat="45.73722" lon="-1.197">
        <ele>83</ele>
        <time>2020-01-26T12:43:02Z</time>
      </trkpt>
      <trkpt lat="45.73722" lon="-1.19698">
        <ele>83</ele>
        <time>2020-01-26T12:43:03Z</time>
      </trkpt>
      <trkpt lat="45.73723" lon="-1.19693">
        <ele>82.4</ele>
        <time>2020-01-26T12:43:04Z</time>
      </trkpt>
      <trkpt lat="45.73724" lon="-1.19688">
        <ele>81.8</ele>
        <time>2020-01-26T12:43:05Z</time>
      </trkpt>
      <trkpt lat="45.73724" lon="-1.19682">
        <ele>80.8</ele>
        <time>2020-01-26T12:43:06Z</time>
      </trkpt>
      <trkpt lat="45.73724" lon="-1.19676">
        <ele>79.4</ele>
        <time>2020-01-26T12:43:07Z</time>
      </trkpt>
      <trkpt lat="45.73725" lon="-1.1967">
        <ele>77.6</ele>
        <time>2020-01-26T12:43:08Z</time>
      </trkpt>
      <trkpt lat="45.73723" lon="-1.19664">
        <ele>75.6</ele>
        <time>2020-01-26T12:43:09Z</time>
      </trkpt>
      <trkpt lat="45.73721" lon="-1.19657">
        <ele>74</ele>
        <time>2020-01-26T12:43:10Z</time>
      </trkpt>
      <trkpt lat="45.73719" lon="-1.1965">
        <ele>72.4</ele>
        <time>2020-01-26T12:43:11Z</time>
      </trkpt>
      <trkpt lat="45.73719" lon="-1.19632">
        <ele>71.4</ele>
        <time>2020-01-26T12:43:12Z</time>
      </trkpt>
      <trkpt lat="45.73719" lon="-1.19619">
        <ele>70.6</ele>
        <time>2020-01-26T12:43:13Z</time>
      </trkpt>
      <trkpt lat="45.73718" lon="-1.19607">
        <ele>69.8</ele>
        <time>2020-01-26T12:43:14Z</time>
      </trkpt>
      <trkpt lat="45.73717" lon="-1.19596">
        <ele>69.2</ele>
        <time>2020-01-26T12:43:15Z</time>
      </trkpt>
      <trkpt lat="45.73716" lon="-1.19584">
        <ele>68.8</ele>
        <time>2020-01-26T12:43:16Z</time>
      </trkpt>
      <trkpt lat="45.73715" lon="-1.19573">
        <ele>68.6</ele>
        <time>2020-01-26T12:43:17Z</time>
      </trkpt>
      <trkpt lat="45.73716" lon="-1.19565">
        <ele>68.2</ele>
        <time>2020-01-26T12:43:18Z</time>
      </trkpt>
      <trkpt lat="45.73716" lon="-1.19559">
        <ele>68</ele>
        <time>2020-01-26T12:43:19Z</time>
      </trkpt>
      <trkpt lat="45.73718" lon="-1.19549">
        <ele>68</ele>
        <time>2020-01-26T12:43:20Z</time>
      </trkpt>
      <trkpt lat="45.73716" lon="-1.19542">
        <ele>67.4</ele>
        <time>2020-01-26T12:43:21Z</time>
      </trkpt>
      <trkpt lat="45.73716" lon="-1.19537">
        <ele>67.4</ele>
        <time>2020-01-26T12:43:22Z</time>
      </trkpt>
      <trkpt lat="45.73715" lon="-1.19532">
        <ele>67</ele>
        <time>2020-01-26T12:43:23Z</time>
      </trkpt>
      <trkpt lat="45.73714" lon="-1.19528">
        <ele>66.8</ele>
        <time>2020-01-26T12:43:24Z</time>
      </trkpt>
      <trkpt lat="45.73715" lon="-1.19532">
        <ele>67</ele>
        <time>2020-01-26T12:43:25Z</time>
      </trkpt>
      <trkpt lat="45.73715" lon="-1.19532">
        <ele>67.4</ele>
        <time>2020-01-26T12:43:26Z</time>
      </trkpt>
      <trkpt lat="45.73716" lon="-1.19531">
        <ele>67.4</ele>
        <time>2020-01-26T12:43:27Z</time>
      </trkpt>
      <trkpt lat="45.73716" lon="-1.19531">
        <ele>67.6</ele>
        <time>2020-01-26T12:43:28Z</time>
      </trkpt>
      <trkpt lat="45.73717" lon="-1.19528">
        <ele>67.8</ele>
        <time>2020-01-26T12:43:29Z</time>
      </trkpt>
      <trkpt lat="45.73717" lon="-1.19528">
        <ele>67.8</ele>
        <time>2020-01-26T12:43:30Z</time>
      </trkpt>
      <trkpt lat="45.73717" lon="-1.19529">
        <ele>68</ele>
        <time>2020-01-26T12:43:31Z</time>
      </trkpt>
      <trkpt lat="45.73718" lon="-1.19532">
        <ele>67.8</ele>
        <time>2020-01-26T12:43:32Z</time>
      </trkpt>
      <trkpt lat="45.73719" lon="-1.19533">
        <ele>67.6</ele>
        <time>2020-01-26T12:43:33Z</time>
      </trkpt>
      <trkpt lat="45.73718" lon="-1.19534">
        <ele>67.2</ele>
        <time>2020-01-26T12:43:34Z</time>
      </trkpt>
      <trkpt lat="45.73718" lon="-1.19533">
        <ele>67.2</ele>
        <time>2020-01-26T12:43:35Z</time>
      </trkpt>
      <trkpt lat="45.73718" lon="-1.19533">
        <ele>67.2</ele>
        <time>2020-01-26T12:43:36Z</time>
      </trkpt>
      <trkpt lat="45.73718" lon="-1.19533">
        <ele>67</ele>
        <time>2020-01-26T12:43:37Z</time>
      </trkpt>
      <trkpt lat="45.73718" lon="-1.19533">
        <ele>67</ele>
        <time>2020-01-26T12:43:38Z</time>
      </trkpt>
      <trkpt lat="45.73718" lon="-1.19533">
        <ele>67</ele>
        <time>2020-01-26T12:43:39Z</time>
      </trkpt>
      <trkpt lat="45.73718" lon="-1.19533">
        <ele>67</ele>
        <time>2020-01-26T12:43:40Z</time>
      </trkpt>
      <trkpt lat="45.73718" lon="-1.19533">
        <ele>67</ele>
        <time>2020-01-26T12:43:41Z</time>
      </trkpt>
      <trkpt lat="45.73718" lon="-1.19533">
        <ele>67</ele>
        <time>2020-01-26T12:43:42Z</time>
      </trkpt>
      <trkpt lat="45.73718" lon="-1.19533">
        <ele>67</ele>
        <time>2020-01-26T12:43:43Z</time>
      </trkpt>
      <trkpt lat="45.73718" lon="-1.19533">
        <ele>67</ele>
        <time>2020-01-26T12:43:44Z</time>
      </trkpt>
      <trkpt lat="45.73718" lon="-1.19533">
        <ele>67</ele>
        <time>2020-01-26T12:43:45Z</time>
      </trkpt>
      <trkpt lat="45.73718" lon="-1.19533">
        <ele>67</ele>
        <time>2020-01-26T12:43:46Z</time>
      </trkpt>
      <trkpt lat="45.73718" lon="-1.19533">
        <ele>67</ele>
        <time>2020-01-26T12:43:47Z</time>
      </trkpt>
      <trkpt lat="45.73718" lon="-1.19533">
        <ele>67</ele>
        <time>2020-01-26T12:43:48Z</time>
      </trkpt>
      <trkpt lat="45.73718" lon="-1.19533">
        <ele>67</ele>
        <time>2020-01-26T12:43:49Z</time>
      </trkpt>
      <trkpt lat="45.73718" lon="-1.19533">
        <ele>67</ele>
        <time>2020-01-26T12:43:50Z</time>
      </trkpt>
      <trkpt lat="45.73718" lon="-1.19533">
        <ele>67</ele>
        <time>2020-01-26T12:43:51Z</time>
      </trkpt>
      <trkpt lat="45.73718" lon="-1.19533">
        <ele>67</ele>
        <time>2020-01-26T12:43:52Z</time>
      </trkpt>
      <trkpt lat="45.73718" lon="-1.19533">
        <ele>67</ele>
        <time>2020-01-26T12:43:53Z</time>
      </trkpt>
      <trkpt lat="45.73717" lon="-1.19533">
        <ele>67</ele>
        <time>2020-01-26T12:43:54Z</time>
      </trkpt>
      <trkpt lat="45.73718" lon="-1.19533">
        <ele>66.8</ele>
        <time>2020-01-26T12:43:55Z</time>
      </trkpt>
      <trkpt lat="45.73718" lon="-1.19533">
        <ele>66.6</ele>
        <time>2020-01-26T12:43:56Z</time>
      </trkpt>
      <trkpt lat="45.73718" lon="-1.19533">
        <ele>66.4</ele>
        <time>2020-01-26T12:43:57Z</time>
      </trkpt>
      <trkpt lat="45.73718" lon="-1.19533">
        <ele>66.4</ele>
        <time>2020-01-26T12:43:58Z</time>
      </trkpt>
      <trkpt lat="45.73718" lon="-1.19533">
        <ele>66.2</ele>
        <time>2020-01-26T12:43:59Z</time>
      </trkpt>
      <trkpt lat="45.73718" lon="-1.19533">
        <ele>66.2</ele>
        <time>2020-01-26T12:44:00Z</time>
      </trkpt>
      <trkpt lat="45.73718" lon="-1.19533">
        <ele>66.2</ele>
        <time>2020-01-26T12:44:01Z</time>
      </trkpt>
      <trkpt lat="45.73718" lon="-1.19533">
        <ele>66</ele>
        <time>2020-01-26T12:44:02Z</time>
      </trkpt>
      <trkpt lat="45.73718" lon="-1.19533">
        <ele>66</ele>
        <time>2020-01-26T12:44:03Z</time>
      </trkpt>
      <trkpt lat="45.73718" lon="-1.19533">
        <ele>66</ele>
        <time>2020-01-26T12:44:04Z</time>
      </trkpt>
      <trkpt lat="45.73718" lon="-1.19533">
        <ele>66</ele>
        <time>2020-01-26T12:44:05Z</time>
      </trkpt>
      <trkpt lat="45.73718" lon="-1.19533">
        <ele>66</ele>
        <time>2020-01-26T12:44:06Z</time>
      </trkpt>
      <trkpt lat="45.73718" lon="-1.19533">
        <ele>66</ele>
        <time>2020-01-26T12:44:07Z</time>
      </trkpt>
      <trkpt lat="45.73718" lon="-1.19533">
        <ele>66</ele>
        <time>2020-01-26T12:44:08Z</time>
      </trkpt>
      <trkpt lat="45.73718" lon="-1.19533">
        <ele>66</ele>
        <time>2020-01-26T12:44:09Z</time>
      </trkpt>
      <trkpt lat="45.73717" lon="-1.19533">
        <ele>66</ele>
        <time>2020-01-26T12:44:10Z</time>
      </trkpt>
      <trkpt lat="45.73717" lon="-1.19533">
        <ele>66</ele>
        <time>2020-01-26T12:44:11Z</time>
      </trkpt>
      <trkpt lat="45.73717" lon="-1.19533">
        <ele>66</ele>
        <time>2020-01-26T12:44:12Z</time>
      </trkpt>
      <trkpt lat="45.73717" lon="-1.19533">
        <ele>66</ele>
        <time>2020-01-26T12:44:13Z</time>
      </trkpt>
      <trkpt lat="45.73717" lon="-1.19533">
        <ele>66</ele>
        <time>2020-01-26T12:44:14Z</time>
      </trkpt>
      <trkpt lat="45.73719" lon="-1.19532">
        <ele>65.8</ele>
        <time>2020-01-26T12:44:15Z</time>
      </trkpt>
      <trkpt lat="45.73718" lon="-1.19532">
        <ele>65.8</ele>
        <time>2020-01-26T12:44:16Z</time>
      </trkpt>
      <trkpt lat="45.73718" lon="-1.19532">
        <ele>65.6</ele>
        <time>2020-01-26T12:44:17Z</time>
      </trkpt>
      <trkpt lat="45.73719" lon="-1.19532">
        <ele>65.4</ele>
        <time>2020-01-26T12:44:18Z</time>
      </trkpt>
      <trkpt lat="45.73719" lon="-1.19532">
        <ele>65.4</ele>
        <time>2020-01-26T12:44:19Z</time>
      </trkpt>
      <trkpt lat="45.73719" lon="-1.19531">
        <ele>65.2</ele>
        <time>2020-01-26T12:44:20Z</time>
      </trkpt>
      <trkpt lat="45.73719" lon="-1.19532">
        <ele>65.2</ele>
        <time>2020-01-26T12:44:21Z</time>
      </trkpt>
      <trkpt lat="45.73718" lon="-1.19533">
        <ele>64.8</ele>
        <time>2020-01-26T12:44:22Z</time>
      </trkpt>
      <trkpt lat="45.73718" lon="-1.19532">
        <ele>64.6</ele>
        <time>2020-01-26T12:44:23Z</time>
      </trkpt>
      <trkpt lat="45.73719" lon="-1.19532">
        <ele>64.4</ele>
        <time>2020-01-26T12:44:24Z</time>
      </trkpt>
      <trkpt lat="45.7372" lon="-1.19532">
        <ele>64.4</ele>
        <time>2020-01-26T12:44:25Z</time>
      </trkpt>
      <trkpt lat="45.73721" lon="-1.19532">
        <ele>64.2</ele>
        <time>2020-01-26T12:44:26Z</time>
      </trkpt>
      <trkpt lat="45.73722" lon="-1.19532">
        <ele>64.2</ele>
        <time>2020-01-26T12:44:27Z</time>
      </trkpt>
      <trkpt lat="45.73723" lon="-1.19532">
        <ele>64.2</ele>
        <time>2020-01-26T12:44:28Z</time>
      </trkpt>
      <trkpt lat="45.73726" lon="-1.19532">
        <ele>64.4</ele>
        <time>2020-01-26T12:44:29Z</time>
      </trkpt>
      <trkpt lat="45.73726" lon="-1.19532">
        <ele>64.6</ele>
        <time>2020-01-26T12:44:30Z</time>
      </trkpt>
      <trkpt lat="45.73727" lon="-1.19532">
        <ele>64.4</ele>
        <time>2020-01-26T12:44:31Z</time>
      </trkpt>
      <trkpt lat="45.73727" lon="-1.19532">
        <ele>64.4</ele>
        <time>2020-01-26T12:44:32Z</time>
      </trkpt>
      <trkpt lat="45.73729" lon="-1.19532">
        <ele>64.4</ele>
        <time>2020-01-26T12:44:33Z</time>
      </trkpt>
      <trkpt lat="45.7373" lon="-1.19533">
        <ele>64.6</ele>
        <time>2020-01-26T12:44:34Z</time>
      </trkpt>
      <trkpt lat="45.73738" lon="-1.19535">
        <ele>63.6</ele>
        <time>2020-01-26T12:44:35Z</time>
      </trkpt>
      <trkpt lat="45.73742" lon="-1.19536">
        <ele>63.4</ele>
        <time>2020-01-26T12:44:36Z</time>
      </trkpt>
      <trkpt lat="45.73745" lon="-1.19536">
        <ele>62.8</ele>
        <time>2020-01-26T12:44:37Z</time>
      </trkpt>
      <trkpt lat="45.73746" lon="-1.19536">
        <ele>62.6</ele>
        <time>2020-01-26T12:44:38Z</time>
      </trkpt>
      <trkpt lat="45.73748" lon="-1.19535">
        <ele>62.8</ele>
        <time>2020-01-26T12:44:39Z</time>
      </trkpt>
      <trkpt lat="45.73751" lon="-1.19534">
        <ele>62.8</ele>
        <time>2020-01-26T12:44:40Z</time>
      </trkpt>
      <trkpt lat="45.73757" lon="-1.19535">
        <ele>62.4</ele>
        <time>2020-01-26T12:44:41Z</time>
      </trkpt>
      <trkpt lat="45.73762" lon="-1.19536">
        <ele>62.6</ele>
        <time>2020-01-26T12:44:42Z</time>
      </trkpt>
      <trkpt lat="45.73767" lon="-1.19538">
        <ele>62.4</ele>
        <time>2020-01-26T12:44:43Z</time>
      </trkpt>
      <trkpt lat="45.73771" lon="-1.1954">
        <ele>62.2</ele>
        <time>2020-01-26T12:44:44Z</time>
      </trkpt>
      <trkpt lat="45.73777" lon="-1.19543">
        <ele>62</ele>
        <time>2020-01-26T12:44:45Z</time>
      </trkpt>
      <trkpt lat="45.73778" lon="-1.19544">
        <ele>61.4</ele>
        <time>2020-01-26T12:44:46Z</time>
      </trkpt>
      <trkpt lat="45.73781" lon="-1.19545">
        <ele>60.6</ele>
        <time>2020-01-26T12:44:47Z</time>
      </trkpt>
      <trkpt lat="45.73783" lon="-1.19547">
        <ele>59.4</ele>
        <time>2020-01-26T12:44:48Z</time>
      </trkpt>
      <trkpt lat="45.73787" lon="-1.19549">
        <ele>58.6</ele>
        <time>2020-01-26T12:44:49Z</time>
      </trkpt>
      <trkpt lat="45.73789" lon="-1.19549">
        <ele>58.2</ele>
        <time>2020-01-26T12:44:50Z</time>
      </trkpt>
      <trkpt lat="45.73793" lon="-1.19551">
        <ele>57.6</ele>
        <time>2020-01-26T12:44:51Z</time>
      </trkpt>
      <trkpt lat="45.73797" lon="-1.19554">
        <ele>57.2</ele>
        <time>2020-01-26T12:44:52Z</time>
      </trkpt>
      <trkpt lat="45.738" lon="-1.19556">
        <ele>57</ele>
        <time>2020-01-26T12:44:53Z</time>
      </trkpt>
      <trkpt lat="45.73806" lon="-1.19558">
        <ele>57</ele>
        <time>2020-01-26T12:44:54Z</time>
      </trkpt>
      <trkpt lat="45.73813" lon="-1.19561">
        <ele>57</ele>
        <time>2020-01-26T12:44:55Z</time>
      </trkpt>
      <trkpt lat="45.73819" lon="-1.19561">
        <ele>57.2</ele>
        <time>2020-01-26T12:44:56Z</time>
      </trkpt>
      <trkpt lat="45.73823" lon="-1.19562">
        <ele>57.4</ele>
        <time>2020-01-26T12:44:57Z</time>
      </trkpt>
      <trkpt lat="45.73823" lon="-1.19563">
        <ele>57.6</ele>
        <time>2020-01-26T12:44:58Z</time>
      </trkpt>
      <trkpt lat="45.73827" lon="-1.19565">
        <ele>57.4</ele>
        <time>2020-01-26T12:44:59Z</time>
      </trkpt>
      <trkpt lat="45.73829" lon="-1.19567">
        <ele>57.6</ele>
        <time>2020-01-26T12:45:00Z</time>
      </trkpt>
      <trkpt lat="45.73833" lon="-1.19567">
        <ele>58</ele>
        <time>2020-01-26T12:45:01Z</time>
      </trkpt>
      <trkpt lat="45.73836" lon="-1.19568">
        <ele>58</ele>
        <time>2020-01-26T12:45:02Z</time>
      </trkpt>
      <trkpt lat="45.73838" lon="-1.1957">
        <ele>58</ele>
        <time>2020-01-26T12:45:03Z</time>
      </trkpt>
      <trkpt lat="45.73841" lon="-1.19571">
        <ele>58.2</ele>
        <time>2020-01-26T12:45:04Z</time>
      </trkpt>
      <trkpt lat="45.73848" lon="-1.19574">
        <ele>58.2</ele>
        <time>2020-01-26T12:45:05Z</time>
      </trkpt>
      <trkpt lat="45.73852" lon="-1.19576">
        <ele>58.4</ele>
        <time>2020-01-26T12:45:06Z</time>
      </trkpt>
      <trkpt lat="45.73854" lon="-1.19578">
        <ele>58.6</ele>
        <time>2020-01-26T12:45:07Z</time>
      </trkpt>
      <trkpt lat="45.73858" lon="-1.19579">
        <ele>58.6</ele>
        <time>2020-01-26T12:45:08Z</time>
      </trkpt>
      <trkpt lat="45.7386" lon="-1.1958">
        <ele>59</ele>
        <time>2020-01-26T12:45:09Z</time>
      </trkpt>
      <trkpt lat="45.73861" lon="-1.19581">
        <ele>59.2</ele>
        <time>2020-01-26T12:45:10Z</time>
      </trkpt>
      <trkpt lat="45.73863" lon="-1.1958">
        <ele>59.2</ele>
        <time>2020-01-26T12:45:11Z</time>
      </trkpt>
      <trkpt lat="45.73865" lon="-1.19581">
        <ele>59.2</ele>
        <time>2020-01-26T12:45:12Z</time>
      </trkpt>
      <trkpt lat="45.73867" lon="-1.19582">
        <ele>59</ele>
        <time>2020-01-26T12:45:13Z</time>
      </trkpt>
      <trkpt lat="45.73872" lon="-1.19585">
        <ele>58.8</ele>
        <time>2020-01-26T12:45:14Z</time>
      </trkpt>
      <trkpt lat="45.73874" lon="-1.19587">
        <ele>57.8</ele>
        <time>2020-01-26T12:45:15Z</time>
      </trkpt>
      <trkpt lat="45.73878" lon="-1.19591">
        <ele>56.8</ele>
        <time>2020-01-26T12:45:16Z</time>
      </trkpt>
      <trkpt lat="45.7388" lon="-1.19593">
        <ele>55.6</ele>
        <time>2020-01-26T12:45:17Z</time>
      </trkpt>
      <trkpt lat="45.73888" lon="-1.19593">
        <ele>54.2</ele>
        <time>2020-01-26T12:45:18Z</time>
      </trkpt>
      <trkpt lat="45.73891" lon="-1.19595">
        <ele>53</ele>
        <time>2020-01-26T12:45:19Z</time>
      </trkpt>
      <trkpt lat="45.73894" lon="-1.19595">
        <ele>52.2</ele>
        <time>2020-01-26T12:45:20Z</time>
      </trkpt>
      <trkpt lat="45.739" lon="-1.19599">
        <ele>52.2</ele>
        <time>2020-01-26T12:45:21Z</time>
      </trkpt>
      <trkpt lat="45.73905" lon="-1.196">
        <ele>52.2</ele>
        <time>2020-01-26T12:45:22Z</time>
      </trkpt>
      <trkpt lat="45.73909" lon="-1.19601">
        <ele>52.4</ele>
        <time>2020-01-26T12:45:23Z</time>
      </trkpt>
      <trkpt lat="45.73913" lon="-1.19604">
        <ele>52.6</ele>
        <time>2020-01-26T12:45:24Z</time>
      </trkpt>
      <trkpt lat="45.73917" lon="-1.19607">
        <ele>52.8</ele>
        <time>2020-01-26T12:45:25Z</time>
      </trkpt>
      <trkpt lat="45.73922" lon="-1.19608">
        <ele>53.2</ele>
        <time>2020-01-26T12:45:26Z</time>
      </trkpt>
      <trkpt lat="45.73925" lon="-1.1961">
        <ele>53.4</ele>
        <time>2020-01-26T12:45:27Z</time>
      </trkpt>
      <trkpt lat="45.73933" lon="-1.19614">
        <ele>53</ele>
        <time>2020-01-26T12:45:28Z</time>
      </trkpt>
      <trkpt lat="45.73936" lon="-1.19616">
        <ele>52.4</ele>
        <time>2020-01-26T12:45:29Z</time>
      </trkpt>
      <trkpt lat="45.73941" lon="-1.19617">
        <ele>52.2</ele>
        <time>2020-01-26T12:45:30Z</time>
      </trkpt>
      <trkpt lat="45.73947" lon="-1.19619">
        <ele>52.2</ele>
        <time>2020-01-26T12:45:31Z</time>
      </trkpt>
      <trkpt lat="45.73953" lon="-1.1962">
        <ele>52.4</ele>
        <time>2020-01-26T12:45:32Z</time>
      </trkpt>
      <trkpt lat="45.73959" lon="-1.19622">
        <ele>52.6</ele>
        <time>2020-01-26T12:45:33Z</time>
      </trkpt>
      <trkpt lat="45.73965" lon="-1.19626">
        <ele>53.2</ele>
        <time>2020-01-26T12:45:34Z</time>
      </trkpt>
      <trkpt lat="45.7397" lon="-1.1963">
        <ele>53</ele>
        <time>2020-01-26T12:45:35Z</time>
      </trkpt>
      <trkpt lat="45.73975" lon="-1.19632">
        <ele>53</ele>
        <time>2020-01-26T12:45:36Z</time>
      </trkpt>
      <trkpt lat="45.73981" lon="-1.19633">
        <ele>53</ele>
        <time>2020-01-26T12:45:37Z</time>
      </trkpt>
      <trkpt lat="45.73988" lon="-1.19635">
        <ele>53.6</ele>
        <time>2020-01-26T12:45:38Z</time>
      </trkpt>
      <trkpt lat="45.73993" lon="-1.19634">
        <ele>53.6</ele>
        <time>2020-01-26T12:45:39Z</time>
      </trkpt>
      <trkpt lat="45.73997" lon="-1.19636">
        <ele>53.4</ele>
        <time>2020-01-26T12:45:40Z</time>
      </trkpt>
      <trkpt lat="45.74001" lon="-1.19637">
        <ele>53.4</ele>
        <time>2020-01-26T12:45:41Z</time>
      </trkpt>
      <trkpt lat="45.74006" lon="-1.19637">
        <ele>53</ele>
        <time>2020-01-26T12:45:42Z</time>
      </trkpt>
      <trkpt lat="45.74011" lon="-1.19638">
        <ele>52.8</ele>
        <time>2020-01-26T12:45:43Z</time>
      </trkpt>
      <trkpt lat="45.74016" lon="-1.19639">
        <ele>52.8</ele>
        <time>2020-01-26T12:45:44Z</time>
      </trkpt>
      <trkpt lat="45.74025" lon="-1.19639">
        <ele>53.6</ele>
        <time>2020-01-26T12:45:45Z</time>
      </trkpt>
      <trkpt lat="45.74029" lon="-1.19641">
        <ele>54.4</ele>
        <time>2020-01-26T12:45:46Z</time>
      </trkpt>
      <trkpt lat="45.74033" lon="-1.19642">
        <ele>55.2</ele>
        <time>2020-01-26T12:45:47Z</time>
      </trkpt>
      <trkpt lat="45.74035" lon="-1.19641">
        <ele>55.8</ele>
        <time>2020-01-26T12:45:48Z</time>
      </trkpt>
      <trkpt lat="45.74038" lon="-1.19643">
        <ele>56.2</ele>
        <time>2020-01-26T12:45:49Z</time>
      </trkpt>
      <trkpt lat="45.7404" lon="-1.19645">
        <ele>56.4</ele>
        <time>2020-01-26T12:45:50Z</time>
      </trkpt>
      <trkpt lat="45.74043" lon="-1.19647">
        <ele>56</ele>
        <time>2020-01-26T12:45:51Z</time>
      </trkpt>
      <trkpt lat="45.74046" lon="-1.19648">
        <ele>55.2</ele>
        <time>2020-01-26T12:45:52Z</time>
      </trkpt>
      <trkpt lat="45.74049" lon="-1.1965">
        <ele>54.2</ele>
        <time>2020-01-26T12:45:53Z</time>
      </trkpt>
      <trkpt lat="45.74054" lon="-1.19652">
        <ele>53.6</ele>
        <time>2020-01-26T12:45:54Z</time>
      </trkpt>
      <trkpt lat="45.74058" lon="-1.19653">
        <ele>53.2</ele>
        <time>2020-01-26T12:45:55Z</time>
      </trkpt>
      <trkpt lat="45.74062" lon="-1.19655">
        <ele>52.6</ele>
        <time>2020-01-26T12:45:56Z</time>
      </trkpt>
      <trkpt lat="45.74065" lon="-1.19654">
        <ele>52.4</ele>
        <time>2020-01-26T12:45:57Z</time>
      </trkpt>
      <trkpt lat="45.74068" lon="-1.19657">
        <ele>52.4</ele>
        <time>2020-01-26T12:45:58Z</time>
      </trkpt>
      <trkpt lat="45.74075" lon="-1.19658">
        <ele>52</ele>
        <time>2020-01-26T12:45:59Z</time>
      </trkpt>
      <trkpt lat="45.74083" lon="-1.19659">
        <ele>51.2</ele>
        <time>2020-01-26T12:46:00Z</time>
      </trkpt>
      <trkpt lat="45.74088" lon="-1.19661">
        <ele>50.4</ele>
        <time>2020-01-26T12:46:01Z</time>
      </trkpt>
      <trkpt lat="45.74092" lon="-1.19663">
        <ele>49.8</ele>
        <time>2020-01-26T12:46:02Z</time>
      </trkpt>
      <trkpt lat="45.74099" lon="-1.19666">
        <ele>49.4</ele>
        <time>2020-01-26T12:46:03Z</time>
      </trkpt>
      <trkpt lat="45.74104" lon="-1.19667">
        <ele>49.2</ele>
        <time>2020-01-26T12:46:04Z</time>
      </trkpt>
      <trkpt lat="45.74109" lon="-1.19669">
        <ele>49</ele>
        <time>2020-01-26T12:46:05Z</time>
      </trkpt>
      <trkpt lat="45.74113" lon="-1.19671">
        <ele>49</ele>
        <time>2020-01-26T12:46:06Z</time>
      </trkpt>
      <trkpt lat="45.74118" lon="-1.19672">
        <ele>49</ele>
        <time>2020-01-26T12:46:07Z</time>
      </trkpt>
      <trkpt lat="45.74122" lon="-1.19674">
        <ele>49</ele>
        <time>2020-01-26T12:46:08Z</time>
      </trkpt>
      <trkpt lat="45.74126" lon="-1.19676">
        <ele>48.8</ele>
        <time>2020-01-26T12:46:09Z</time>
      </trkpt>
      <trkpt lat="45.74132" lon="-1.19679">
        <ele>48.8</ele>
        <time>2020-01-26T12:46:10Z</time>
      </trkpt>
      <trkpt lat="45.74137" lon="-1.19679">
        <ele>48.6</ele>
        <time>2020-01-26T12:46:11Z</time>
      </trkpt>
      <trkpt lat="45.74142" lon="-1.1968">
        <ele>49.2</ele>
        <time>2020-01-26T12:46:12Z</time>
      </trkpt>
      <trkpt lat="45.74148" lon="-1.19683">
        <ele>50.2</ele>
        <time>2020-01-26T12:46:13Z</time>
      </trkpt>
      <trkpt lat="45.74152" lon="-1.19685">
        <ele>51.4</ele>
        <time>2020-01-26T12:46:14Z</time>
      </trkpt>
      <trkpt lat="45.74157" lon="-1.19686">
        <ele>51.8</ele>
        <time>2020-01-26T12:46:15Z</time>
      </trkpt>
      <trkpt lat="45.74161" lon="-1.19688">
        <ele>51.8</ele>
        <time>2020-01-26T12:46:16Z</time>
      </trkpt>
      <trkpt lat="45.74165" lon="-1.1969">
        <ele>51.8</ele>
        <time>2020-01-26T12:46:17Z</time>
      </trkpt>
      <trkpt lat="45.74166" lon="-1.1969">
        <ele>52</ele>
        <time>2020-01-26T12:46:18Z</time>
      </trkpt>
      <trkpt lat="45.74168" lon="-1.19691">
        <ele>52</ele>
        <time>2020-01-26T12:46:19Z</time>
      </trkpt>
      <trkpt lat="45.74176" lon="-1.19695">
        <ele>51.8</ele>
        <time>2020-01-26T12:46:20Z</time>
      </trkpt>
      <trkpt lat="45.74183" lon="-1.19695">
        <ele>51.8</ele>
        <time>2020-01-26T12:46:21Z</time>
      </trkpt>
      <trkpt lat="45.74187" lon="-1.19697">
        <ele>51.6</ele>
        <time>2020-01-26T12:46:22Z</time>
      </trkpt>
      <trkpt lat="45.74192" lon="-1.19698">
        <ele>51.4</ele>
        <time>2020-01-26T12:46:23Z</time>
      </trkpt>
      <trkpt lat="45.74196" lon="-1.197">
        <ele>51</ele>
        <time>2020-01-26T12:46:24Z</time>
      </trkpt>
      <trkpt lat="45.74201" lon="-1.19701">
        <ele>51</ele>
        <time>2020-01-26T12:46:25Z</time>
      </trkpt>
      <trkpt lat="45.74205" lon="-1.19701">
        <ele>51</ele>
        <time>2020-01-26T12:46:26Z</time>
      </trkpt>
      <trkpt lat="45.74209" lon="-1.19703">
        <ele>51.4</ele>
        <time>2020-01-26T12:46:27Z</time>
      </trkpt>
      <trkpt lat="45.74213" lon="-1.19704">
        <ele>51.8</ele>
        <time>2020-01-26T12:46:28Z</time>
      </trkpt>
      <trkpt lat="45.74217" lon="-1.19705">
        <ele>51.8</ele>
        <time>2020-01-26T12:46:29Z</time>
      </trkpt>
      <trkpt lat="45.74221" lon="-1.19707">
        <ele>51.8</ele>
        <time>2020-01-26T12:46:30Z</time>
      </trkpt>
      <trkpt lat="45.74227" lon="-1.19709">
        <ele>51.6</ele>
        <time>2020-01-26T12:46:31Z</time>
      </trkpt>
      <trkpt lat="45.74232" lon="-1.19711">
        <ele>51.4</ele>
        <time>2020-01-26T12:46:32Z</time>
      </trkpt>
      <trkpt lat="45.74237" lon="-1.19713">
        <ele>51.4</ele>
        <time>2020-01-26T12:46:33Z</time>
      </trkpt>
      <trkpt lat="45.74243" lon="-1.19715">
        <ele>51.6</ele>
        <time>2020-01-26T12:46:34Z</time>
      </trkpt>
      <trkpt lat="45.74246" lon="-1.19716">
        <ele>52.2</ele>
        <time>2020-01-26T12:46:35Z</time>
      </trkpt>
      <trkpt lat="45.74252" lon="-1.19718">
        <ele>52.8</ele>
        <time>2020-01-26T12:46:36Z</time>
      </trkpt>
      <trkpt lat="45.74256" lon="-1.19721">
        <ele>53.4</ele>
        <time>2020-01-26T12:46:37Z</time>
      </trkpt>
      <trkpt lat="45.74258" lon="-1.19724">
        <ele>53.8</ele>
        <time>2020-01-26T12:46:38Z</time>
      </trkpt>
      <trkpt lat="45.7426" lon="-1.19729">
        <ele>54.2</ele>
        <time>2020-01-26T12:46:39Z</time>
      </trkpt>
      <trkpt lat="45.74261" lon="-1.19734">
        <ele>54.4</ele>
        <time>2020-01-26T12:46:40Z</time>
      </trkpt>
      <trkpt lat="45.74261" lon="-1.19738">
        <ele>54.8</ele>
        <time>2020-01-26T12:46:41Z</time>
      </trkpt>
      <trkpt lat="45.7426" lon="-1.19741">
        <ele>54.8</ele>
        <time>2020-01-26T12:46:42Z</time>
      </trkpt>
      <trkpt lat="45.7426" lon="-1.19744">
        <ele>55.2</ele>
        <time>2020-01-26T12:46:43Z</time>
      </trkpt>
      <trkpt lat="45.7426" lon="-1.19747">
        <ele>55.6</ele>
        <time>2020-01-26T12:46:44Z</time>
      </trkpt>
      <trkpt lat="45.74261" lon="-1.19751">
        <ele>56.2</ele>
        <time>2020-01-26T12:46:45Z</time>
      </trkpt>
      <trkpt lat="45.74261" lon="-1.19753">
        <ele>56.4</ele>
        <time>2020-01-26T12:46:46Z</time>
      </trkpt>
      <trkpt lat="45.74262" lon="-1.19756">
        <ele>56.6</ele>
        <time>2020-01-26T12:46:47Z</time>
      </trkpt>
      <trkpt lat="45.74263" lon="-1.19758">
        <ele>57</ele>
        <time>2020-01-26T12:46:48Z</time>
      </trkpt>
      <trkpt lat="45.74263" lon="-1.1976">
        <ele>57.6</ele>
        <time>2020-01-26T12:46:49Z</time>
      </trkpt>
      <trkpt lat="45.74263" lon="-1.19763">
        <ele>58</ele>
        <time>2020-01-26T12:46:50Z</time>
      </trkpt>
      <trkpt lat="45.74263" lon="-1.19766">
        <ele>58.4</ele>
        <time>2020-01-26T12:46:51Z</time>
      </trkpt>
      <trkpt lat="45.74263" lon="-1.19768">
        <ele>59</ele>
        <time>2020-01-26T12:46:52Z</time>
      </trkpt>
      <trkpt lat="45.74263" lon="-1.1977">
        <ele>59.4</ele>
        <time>2020-01-26T12:46:53Z</time>
      </trkpt>
      <trkpt lat="45.74263" lon="-1.19772">
        <ele>59.8</ele>
        <time>2020-01-26T12:46:54Z</time>
      </trkpt>
      <trkpt lat="45.74263" lon="-1.19774">
        <ele>60.4</ele>
        <time>2020-01-26T12:46:55Z</time>
      </trkpt>
      <trkpt lat="45.74261" lon="-1.19777">
        <ele>60.8</ele>
        <time>2020-01-26T12:46:56Z</time>
      </trkpt>
      <trkpt lat="45.74262" lon="-1.1978">
        <ele>60.8</ele>
        <time>2020-01-26T12:46:57Z</time>
      </trkpt>
      <trkpt lat="45.74263" lon="-1.19783">
        <ele>60.8</ele>
        <time>2020-01-26T12:46:58Z</time>
      </trkpt>
      <trkpt lat="45.74263" lon="-1.19786">
        <ele>60.8</ele>
        <time>2020-01-26T12:46:59Z</time>
      </trkpt>
      <trkpt lat="45.74264" lon="-1.19788">
        <ele>60.6</ele>
        <time>2020-01-26T12:47:00Z</time>
      </trkpt>
      <trkpt lat="45.74264" lon="-1.1979">
        <ele>60.4</ele>
        <time>2020-01-26T12:47:01Z</time>
      </trkpt>
      <trkpt lat="45.74263" lon="-1.19791">
        <ele>60.2</ele>
        <time>2020-01-26T12:47:02Z</time>
      </trkpt>
      <trkpt lat="45.74262" lon="-1.19792">
        <ele>60</ele>
        <time>2020-01-26T12:47:03Z</time>
      </trkpt>
      <trkpt lat="45.74265" lon="-1.19794">
        <ele>59.8</ele>
        <time>2020-01-26T12:47:04Z</time>
      </trkpt>
      <trkpt lat="45.74263" lon="-1.19796">
        <ele>59.8</ele>
        <time>2020-01-26T12:47:05Z</time>
      </trkpt>
      <trkpt lat="45.74263" lon="-1.19799">
        <ele>60.2</ele>
        <time>2020-01-26T12:47:06Z</time>
      </trkpt>
      <trkpt lat="45.74262" lon="-1.19801">
        <ele>60.2</ele>
        <time>2020-01-26T12:47:07Z</time>
      </trkpt>
      <trkpt lat="45.74262" lon="-1.19804">
        <ele>60.4</ele>
        <time>2020-01-26T12:47:08Z</time>
      </trkpt>
      <trkpt lat="45.74262" lon="-1.19806">
        <ele>60.4</ele>
        <time>2020-01-26T12:47:09Z</time>
      </trkpt>
      <trkpt lat="45.74263" lon="-1.19807">
        <ele>60.6</ele>
        <time>2020-01-26T12:47:10Z</time>
      </trkpt>
      <trkpt lat="45.74263" lon="-1.1981">
        <ele>60.8</ele>
        <time>2020-01-26T12:47:11Z</time>
      </trkpt>
      <trkpt lat="45.74263" lon="-1.19812">
        <ele>61.2</ele>
        <time>2020-01-26T12:47:12Z</time>
      </trkpt>
      <trkpt lat="45.74262" lon="-1.19815">
        <ele>61.6</ele>
        <time>2020-01-26T12:47:13Z</time>
      </trkpt>
      <trkpt lat="45.74261" lon="-1.19817">
        <ele>62</ele>
        <time>2020-01-26T12:47:14Z</time>
      </trkpt>
      <trkpt lat="45.74261" lon="-1.19819">
        <ele>62.4</ele>
        <time>2020-01-26T12:47:15Z</time>
      </trkpt>
      <trkpt lat="45.74261" lon="-1.19821">
        <ele>62.8</ele>
        <time>2020-01-26T12:47:16Z</time>
      </trkpt>
      <trkpt lat="45.74261" lon="-1.19823">
        <ele>63.2</ele>
        <time>2020-01-26T12:47:17Z</time>
      </trkpt>
      <trkpt lat="45.74261" lon="-1.19825">
        <ele>63.6</ele>
        <time>2020-01-26T12:47:18Z</time>
      </trkpt>
      <trkpt lat="45.74264" lon="-1.19827">
        <ele>64.4</ele>
        <time>2020-01-26T12:47:19Z</time>
      </trkpt>
      <trkpt lat="45.74265" lon="-1.19829">
        <ele>64.8</ele>
        <time>2020-01-26T12:47:20Z</time>
      </trkpt>
      <trkpt lat="45.74265" lon="-1.19831">
        <ele>65.4</ele>
        <time>2020-01-26T12:47:21Z</time>
      </trkpt>
      <trkpt lat="45.74265" lon="-1.19834">
        <ele>65.8</ele>
        <time>2020-01-26T12:47:22Z</time>
      </trkpt>
      <trkpt lat="45.74265" lon="-1.19836">
        <ele>65.8</ele>
        <time>2020-01-26T12:47:23Z</time>
      </trkpt>
      <trkpt lat="45.74265" lon="-1.19837">
        <ele>65.6</ele>
        <time>2020-01-26T12:47:24Z</time>
      </trkpt>
      <trkpt lat="45.74265" lon="-1.19839">
        <ele>65.2</ele>
        <time>2020-01-26T12:47:25Z</time>
      </trkpt>
      <trkpt lat="45.74265" lon="-1.19841">
        <ele>65.2</ele>
        <time>2020-01-26T12:47:26Z</time>
      </trkpt>
      <trkpt lat="45.74265" lon="-1.19843">
        <ele>65.2</ele>
        <time>2020-01-26T12:47:27Z</time>
      </trkpt>
      <trkpt lat="45.74266" lon="-1.19846">
        <ele>65.4</ele>
        <time>2020-01-26T12:47:28Z</time>
      </trkpt>
      <trkpt lat="45.74266" lon="-1.19849">
        <ele>65.6</ele>
        <time>2020-01-26T12:47:29Z</time>
      </trkpt>
      <trkpt lat="45.74266" lon="-1.1985">
        <ele>65.6</ele>
        <time>2020-01-26T12:47:30Z</time>
      </trkpt>
      <trkpt lat="45.74267" lon="-1.19852">
        <ele>65.8</ele>
        <time>2020-01-26T12:47:31Z</time>
      </trkpt>
      <trkpt lat="45.7427" lon="-1.19853">
        <ele>66.4</ele>
        <time>2020-01-26T12:47:32Z</time>
      </trkpt>
      <trkpt lat="45.74271" lon="-1.19854">
        <ele>66.6</ele>
        <time>2020-01-26T12:47:33Z</time>
      </trkpt>
      <trkpt lat="45.74273" lon="-1.19855">
        <ele>67</ele>
        <time>2020-01-26T12:47:34Z</time>
      </trkpt>
      <trkpt lat="45.74276" lon="-1.19855">
        <ele>67.8</ele>
        <time>2020-01-26T12:47:35Z</time>
      </trkpt>
      <trkpt lat="45.74277" lon="-1.19855">
        <ele>68.4</ele>
        <time>2020-01-26T12:47:36Z</time>
      </trkpt>
      <trkpt lat="45.7428" lon="-1.19855">
        <ele>68.8</ele>
        <time>2020-01-26T12:47:37Z</time>
      </trkpt>
      <trkpt lat="45.74282" lon="-1.19856">
        <ele>69</ele>
        <time>2020-01-26T12:47:38Z</time>
      </trkpt>
      <trkpt lat="45.74284" lon="-1.19858">
        <ele>69.2</ele>
        <time>2020-01-26T12:47:39Z</time>
      </trkpt>
      <trkpt lat="45.74286" lon="-1.19858">
        <ele>69.4</ele>
        <time>2020-01-26T12:47:40Z</time>
      </trkpt>
      <trkpt lat="45.7429" lon="-1.19858">
        <ele>69.6</ele>
        <time>2020-01-26T12:47:41Z</time>
      </trkpt>
      <trkpt lat="45.74293" lon="-1.19859">
        <ele>69.4</ele>
        <time>2020-01-26T12:47:42Z</time>
      </trkpt>
      <trkpt lat="45.74296" lon="-1.19859">
        <ele>69.4</ele>
        <time>2020-01-26T12:47:43Z</time>
      </trkpt>
      <trkpt lat="45.74301" lon="-1.19859">
        <ele>69</ele>
        <time>2020-01-26T12:47:44Z</time>
      </trkpt>
      <trkpt lat="45.74305" lon="-1.19859">
        <ele>68.8</ele>
        <time>2020-01-26T12:47:45Z</time>
      </trkpt>
      <trkpt lat="45.74309" lon="-1.19858">
        <ele>68.6</ele>
        <time>2020-01-26T12:47:46Z</time>
      </trkpt>
      <trkpt lat="45.74313" lon="-1.19858">
        <ele>68.4</ele>
        <time>2020-01-26T12:47:47Z</time>
      </trkpt>
      <trkpt lat="45.74318" lon="-1.1986">
        <ele>67.8</ele>
        <time>2020-01-26T12:47:48Z</time>
      </trkpt>
      <trkpt lat="45.74326" lon="-1.19859">
        <ele>67.6</ele>
        <time>2020-01-26T12:47:49Z</time>
      </trkpt>
      <trkpt lat="45.74335" lon="-1.19858">
        <ele>67.2</ele>
        <time>2020-01-26T12:47:50Z</time>
      </trkpt>
      <trkpt lat="45.74343" lon="-1.19857">
        <ele>66.6</ele>
        <time>2020-01-26T12:47:51Z</time>
      </trkpt>
      <trkpt lat="45.74352" lon="-1.19858">
        <ele>66.2</ele>
        <time>2020-01-26T12:47:52Z</time>
      </trkpt>
      <trkpt lat="45.74359" lon="-1.19857">
        <ele>65.6</ele>
        <time>2020-01-26T12:47:53Z</time>
      </trkpt>
      <trkpt lat="45.74367" lon="-1.19857">
        <ele>65.2</ele>
        <time>2020-01-26T12:47:54Z</time>
      </trkpt>
      <trkpt lat="45.74374" lon="-1.19857">
        <ele>65.2</ele>
        <time>2020-01-26T12:47:55Z</time>
      </trkpt>
      <trkpt lat="45.7438" lon="-1.19856">
        <ele>65.4</ele>
        <time>2020-01-26T12:47:56Z</time>
      </trkpt>
      <trkpt lat="45.74387" lon="-1.19854">
        <ele>65.6</ele>
        <time>2020-01-26T12:47:57Z</time>
      </trkpt>
      <trkpt lat="45.74393" lon="-1.19852">
        <ele>65.6</ele>
        <time>2020-01-26T12:47:58Z</time>
      </trkpt>
      <trkpt lat="45.74401" lon="-1.19852">
        <ele>65.8</ele>
        <time>2020-01-26T12:47:59Z</time>
      </trkpt>
      <trkpt lat="45.74406" lon="-1.19852">
        <ele>65.6</ele>
        <time>2020-01-26T12:48:00Z</time>
      </trkpt>
      <trkpt lat="45.74411" lon="-1.19853">
        <ele>66</ele>
        <time>2020-01-26T12:48:01Z</time>
      </trkpt>
      <trkpt lat="45.74417" lon="-1.19853">
        <ele>66.2</ele>
        <time>2020-01-26T12:48:02Z</time>
      </trkpt>
      <trkpt lat="45.74423" lon="-1.19853">
        <ele>66.2</ele>
        <time>2020-01-26T12:48:03Z</time>
      </trkpt>
      <trkpt lat="45.74429" lon="-1.19852">
        <ele>65.8</ele>
        <time>2020-01-26T12:48:04Z</time>
      </trkpt>
      <trkpt lat="45.74434" lon="-1.19852">
        <ele>65.4</ele>
        <time>2020-01-26T12:48:05Z</time>
      </trkpt>
      <trkpt lat="45.74439" lon="-1.19852">
        <ele>65.2</ele>
        <time>2020-01-26T12:48:06Z</time>
      </trkpt>
      <trkpt lat="45.74444" lon="-1.19851">
        <ele>65.2</ele>
        <time>2020-01-26T12:48:07Z</time>
      </trkpt>
      <trkpt lat="45.74449" lon="-1.1985">
        <ele>65.4</ele>
        <time>2020-01-26T12:48:08Z</time>
      </trkpt>
      <trkpt lat="45.74455" lon="-1.1985">
        <ele>65.4</ele>
        <time>2020-01-26T12:48:09Z</time>
      </trkpt>
      <trkpt lat="45.74459" lon="-1.19848">
        <ele>65.4</ele>
        <time>2020-01-26T12:48:10Z</time>
      </trkpt>
      <trkpt lat="45.74464" lon="-1.19848">
        <ele>65.2</ele>
        <time>2020-01-26T12:48:11Z</time>
      </trkpt>
      <trkpt lat="45.7447" lon="-1.19846">
        <ele>64.8</ele>
        <time>2020-01-26T12:48:12Z</time>
      </trkpt>
      <trkpt lat="45.74474" lon="-1.19846">
        <ele>64.6</ele>
        <time>2020-01-26T12:48:13Z</time>
      </trkpt>
      <trkpt lat="45.74479" lon="-1.19846">
        <ele>64.8</ele>
        <time>2020-01-26T12:48:14Z</time>
      </trkpt>
      <trkpt lat="45.74484" lon="-1.19846">
        <ele>64.8</ele>
        <time>2020-01-26T12:48:15Z</time>
      </trkpt>
      <trkpt lat="45.74491" lon="-1.19845">
        <ele>64.8</ele>
        <time>2020-01-26T12:48:16Z</time>
      </trkpt>
      <trkpt lat="45.74497" lon="-1.19847">
        <ele>64.6</ele>
        <time>2020-01-26T12:48:17Z</time>
      </trkpt>
      <trkpt lat="45.74503" lon="-1.19846">
        <ele>64.4</ele>
        <time>2020-01-26T12:48:18Z</time>
      </trkpt>
      <trkpt lat="45.74509" lon="-1.19845">
        <ele>64</ele>
        <time>2020-01-26T12:48:19Z</time>
      </trkpt>
      <trkpt lat="45.74515" lon="-1.19845">
        <ele>63.6</ele>
        <time>2020-01-26T12:48:20Z</time>
      </trkpt>
      <trkpt lat="45.74521" lon="-1.19848">
        <ele>63</ele>
        <time>2020-01-26T12:48:21Z</time>
      </trkpt>
      <trkpt lat="45.74524" lon="-1.19855">
        <ele>62.8</ele>
        <time>2020-01-26T12:48:22Z</time>
      </trkpt>
      <trkpt lat="45.74527" lon="-1.19861">
        <ele>62.8</ele>
        <time>2020-01-26T12:48:23Z</time>
      </trkpt>
      <trkpt lat="45.74532" lon="-1.19868">
        <ele>62.8</ele>
        <time>2020-01-26T12:48:24Z</time>
      </trkpt>
      <trkpt lat="45.74538" lon="-1.19876">
        <ele>62.6</ele>
        <time>2020-01-26T12:48:25Z</time>
      </trkpt>
      <trkpt lat="45.74544" lon="-1.19884">
        <ele>62.2</ele>
        <time>2020-01-26T12:48:26Z</time>
      </trkpt>
      <trkpt lat="45.74548" lon="-1.19895">
        <ele>61.8</ele>
        <time>2020-01-26T12:48:27Z</time>
      </trkpt>
      <trkpt lat="45.7455" lon="-1.19903">
        <ele>61.2</ele>
        <time>2020-01-26T12:48:28Z</time>
      </trkpt>
      <trkpt lat="45.74554" lon="-1.19911">
        <ele>60.4</ele>
        <time>2020-01-26T12:48:29Z</time>
      </trkpt>
      <trkpt lat="45.74558" lon="-1.19919">
        <ele>59.8</ele>
        <time>2020-01-26T12:48:30Z</time>
      </trkpt>
      <trkpt lat="45.74563" lon="-1.19925">
        <ele>59.6</ele>
        <time>2020-01-26T12:48:31Z</time>
      </trkpt>
      <trkpt lat="45.74568" lon="-1.19929">
        <ele>59.4</ele>
        <time>2020-01-26T12:48:32Z</time>
      </trkpt>
      <trkpt lat="45.74574" lon="-1.19934">
        <ele>59.4</ele>
        <time>2020-01-26T12:48:33Z</time>
      </trkpt>
      <trkpt lat="45.74577" lon="-1.19938">
        <ele>59</ele>
        <time>2020-01-26T12:48:34Z</time>
      </trkpt>
      <trkpt lat="45.74579" lon="-1.19944">
        <ele>58.4</ele>
        <time>2020-01-26T12:48:35Z</time>
      </trkpt>
      <trkpt lat="45.74583" lon="-1.1995">
        <ele>57.8</ele>
        <time>2020-01-26T12:48:36Z</time>
      </trkpt>
      <trkpt lat="45.74586" lon="-1.19954">
        <ele>57.4</ele>
        <time>2020-01-26T12:48:37Z</time>
      </trkpt>
      <trkpt lat="45.74591" lon="-1.19958">
        <ele>57.6</ele>
        <time>2020-01-26T12:48:38Z</time>
      </trkpt>
      <trkpt lat="45.74594" lon="-1.19962">
        <ele>58</ele>
        <time>2020-01-26T12:48:39Z</time>
      </trkpt>
      <trkpt lat="45.74596" lon="-1.19968">
        <ele>58.2</ele>
        <time>2020-01-26T12:48:40Z</time>
      </trkpt>
      <trkpt lat="45.74599" lon="-1.1997">
        <ele>58.4</ele>
        <time>2020-01-26T12:48:41Z</time>
      </trkpt>
      <trkpt lat="45.74601" lon="-1.19973">
        <ele>58.6</ele>
        <time>2020-01-26T12:48:42Z</time>
      </trkpt>
      <trkpt lat="45.74604" lon="-1.19977">
        <ele>58.4</ele>
        <time>2020-01-26T12:48:43Z</time>
      </trkpt>
      <trkpt lat="45.74607" lon="-1.19979">
        <ele>58</ele>
        <time>2020-01-26T12:48:44Z</time>
      </trkpt>
      <trkpt lat="45.74611" lon="-1.19983">
        <ele>58</ele>
        <time>2020-01-26T12:48:45Z</time>
      </trkpt>
      <trkpt lat="45.74613" lon="-1.19987">
        <ele>58</ele>
        <time>2020-01-26T12:48:46Z</time>
      </trkpt>
      <trkpt lat="45.74616" lon="-1.19991">
        <ele>58.2</ele>
        <time>2020-01-26T12:48:47Z</time>
      </trkpt>
      <trkpt lat="45.7462" lon="-1.19995">
        <ele>58.8</ele>
        <time>2020-01-26T12:48:48Z</time>
      </trkpt>
      <trkpt lat="45.74624" lon="-1.19998">
        <ele>58.8</ele>
        <time>2020-01-26T12:48:49Z</time>
      </trkpt>
      <trkpt lat="45.74627" lon="-1.2">
        <ele>58.8</ele>
        <time>2020-01-26T12:48:50Z</time>
      </trkpt>
      <trkpt lat="45.7463" lon="-1.20003">
        <ele>58.8</ele>
        <time>2020-01-26T12:48:51Z</time>
      </trkpt>
      <trkpt lat="45.74633" lon="-1.20004">
        <ele>58.6</ele>
        <time>2020-01-26T12:48:52Z</time>
      </trkpt>
      <trkpt lat="45.74639" lon="-1.19999">
        <ele>58.8</ele>
        <time>2020-01-26T12:48:53Z</time>
      </trkpt>
      <trkpt lat="45.74643" lon="-1.19999">
        <ele>58.8</ele>
        <time>2020-01-26T12:48:54Z</time>
      </trkpt>
      <trkpt lat="45.74645" lon="-1.19999">
        <ele>59.2</ele>
        <time>2020-01-26T12:48:55Z</time>
      </trkpt>
      <trkpt lat="45.74649" lon="-1.2">
        <ele>59</ele>
        <time>2020-01-26T12:48:56Z</time>
      </trkpt>
      <trkpt lat="45.74652" lon="-1.20003">
        <ele>59.4</ele>
        <time>2020-01-26T12:48:57Z</time>
      </trkpt>
      <trkpt lat="45.74655" lon="-1.20005">
        <ele>60</ele>
        <time>2020-01-26T12:48:58Z</time>
      </trkpt>
      <trkpt lat="45.74658" lon="-1.20007">
        <ele>60</ele>
        <time>2020-01-26T12:48:59Z</time>
      </trkpt>
      <trkpt lat="45.7466" lon="-1.20009">
        <ele>59.8</ele>
        <time>2020-01-26T12:49:00Z</time>
      </trkpt>
      <trkpt lat="45.74659" lon="-1.20011">
        <ele>60.4</ele>
        <time>2020-01-26T12:49:01Z</time>
      </trkpt>
      <trkpt lat="45.74659" lon="-1.20015">
        <ele>60.4</ele>
        <time>2020-01-26T12:49:02Z</time>
      </trkpt>
      <trkpt lat="45.74658" lon="-1.20017">
        <ele>60.6</ele>
        <time>2020-01-26T12:49:03Z</time>
      </trkpt>
      <trkpt lat="45.74658" lon="-1.20019">
        <ele>60.8</ele>
        <time>2020-01-26T12:49:04Z</time>
      </trkpt>
      <trkpt lat="45.74659" lon="-1.20023">
        <ele>60.8</ele>
        <time>2020-01-26T12:49:05Z</time>
      </trkpt>
      <trkpt lat="45.74664" lon="-1.20024">
        <ele>62.2</ele>
        <time>2020-01-26T12:49:06Z</time>
      </trkpt>
      <trkpt lat="45.74664" lon="-1.20027">
        <ele>63.2</ele>
        <time>2020-01-26T12:49:07Z</time>
      </trkpt>
      <trkpt lat="45.74666" lon="-1.2003">
        <ele>64.4</ele>
        <time>2020-01-26T12:49:08Z</time>
      </trkpt>
      <trkpt lat="45.74665" lon="-1.20032">
        <ele>65</ele>
        <time>2020-01-26T12:49:09Z</time>
      </trkpt>
      <trkpt lat="45.74665" lon="-1.20033">
        <ele>65.4</ele>
        <time>2020-01-26T12:49:10Z</time>
      </trkpt>
      <trkpt lat="45.74665" lon="-1.20036">
        <ele>65.6</ele>
        <time>2020-01-26T12:49:11Z</time>
      </trkpt>
      <trkpt lat="45.74665" lon="-1.20037">
        <ele>65.4</ele>
        <time>2020-01-26T12:49:12Z</time>
      </trkpt>
      <trkpt lat="45.74664" lon="-1.20039">
        <ele>65.6</ele>
        <time>2020-01-26T12:49:13Z</time>
      </trkpt>
      <trkpt lat="45.74663" lon="-1.2004">
        <ele>65.6</ele>
        <time>2020-01-26T12:49:14Z</time>
      </trkpt>
      <trkpt lat="45.74664" lon="-1.20044">
        <ele>65.8</ele>
        <time>2020-01-26T12:49:15Z</time>
      </trkpt>
      <trkpt lat="45.74664" lon="-1.20046">
        <ele>66</ele>
        <time>2020-01-26T12:49:16Z</time>
      </trkpt>
      <trkpt lat="45.74664" lon="-1.20049">
        <ele>66.4</ele>
        <time>2020-01-26T12:49:17Z</time>
      </trkpt>
      <trkpt lat="45.74664" lon="-1.2005">
        <ele>66.4</ele>
        <time>2020-01-26T12:49:18Z</time>
      </trkpt>
      <trkpt lat="45.74664" lon="-1.20052">
        <ele>66.8</ele>
        <time>2020-01-26T12:49:19Z</time>
      </trkpt>
      <trkpt lat="45.74664" lon="-1.20055">
        <ele>67.4</ele>
        <time>2020-01-26T12:49:20Z</time>
      </trkpt>
      <trkpt lat="45.74664" lon="-1.20056">
        <ele>68</ele>
        <time>2020-01-26T12:49:21Z</time>
      </trkpt>
      <trkpt lat="45.74665" lon="-1.20056">
        <ele>68.6</ele>
        <time>2020-01-26T12:49:22Z</time>
      </trkpt>
      <trkpt lat="45.74665" lon="-1.20058">
        <ele>68.6</ele>
        <time>2020-01-26T12:49:23Z</time>
      </trkpt>
      <trkpt lat="45.74665" lon="-1.20061">
        <ele>68.4</ele>
        <time>2020-01-26T12:49:24Z</time>
      </trkpt>
      <trkpt lat="45.74664" lon="-1.20064">
        <ele>68.4</ele>
        <time>2020-01-26T12:49:25Z</time>
      </trkpt>
      <trkpt lat="45.74665" lon="-1.20067">
        <ele>68.6</ele>
        <time>2020-01-26T12:49:26Z</time>
      </trkpt>
      <trkpt lat="45.74664" lon="-1.20069">
        <ele>68.6</ele>
        <time>2020-01-26T12:49:27Z</time>
      </trkpt>
      <trkpt lat="45.74664" lon="-1.20071">
        <ele>68.6</ele>
        <time>2020-01-26T12:49:28Z</time>
      </trkpt>
      <trkpt lat="45.74665" lon="-1.20073">
        <ele>68.8</ele>
        <time>2020-01-26T12:49:29Z</time>
      </trkpt>
      <trkpt lat="45.74667" lon="-1.20075">
        <ele>68.8</ele>
        <time>2020-01-26T12:49:30Z</time>
      </trkpt>
      <trkpt lat="45.74668" lon="-1.20073">
        <ele>68.4</ele>
        <time>2020-01-26T12:49:31Z</time>
      </trkpt>
      <trkpt lat="45.7467" lon="-1.20074">
        <ele>68.4</ele>
        <time>2020-01-26T12:49:32Z</time>
      </trkpt>
      <trkpt lat="45.74672" lon="-1.20074">
        <ele>68.2</ele>
        <time>2020-01-26T12:49:33Z</time>
      </trkpt>
      <trkpt lat="45.74672" lon="-1.20072">
        <ele>68.2</ele>
        <time>2020-01-26T12:49:34Z</time>
      </trkpt>
      <trkpt lat="45.74674" lon="-1.20071">
        <ele>68.6</ele>
        <time>2020-01-26T12:49:35Z</time>
      </trkpt>
      <trkpt lat="45.74675" lon="-1.20069">
        <ele>69.2</ele>
        <time>2020-01-26T12:49:36Z</time>
      </trkpt>
      <trkpt lat="45.74676" lon="-1.20067">
        <ele>70</ele>
        <time>2020-01-26T12:49:37Z</time>
      </trkpt>
      <trkpt lat="45.74677" lon="-1.20066">
        <ele>70.8</ele>
        <time>2020-01-26T12:49:38Z</time>
      </trkpt>
      <trkpt lat="45.74678" lon="-1.20066">
        <ele>71.2</ele>
        <time>2020-01-26T12:49:39Z</time>
      </trkpt>
      <trkpt lat="45.7468" lon="-1.20066">
        <ele>72</ele>
        <time>2020-01-26T12:49:40Z</time>
      </trkpt>
      <trkpt lat="45.74682" lon="-1.20065">
        <ele>72.8</ele>
        <time>2020-01-26T12:49:41Z</time>
      </trkpt>
      <trkpt lat="45.74683" lon="-1.20066">
        <ele>73.4</ele>
        <time>2020-01-26T12:49:42Z</time>
      </trkpt>
      <trkpt lat="45.74685" lon="-1.20066">
        <ele>74</ele>
        <time>2020-01-26T12:49:43Z</time>
      </trkpt>
      <trkpt lat="45.74686" lon="-1.20066">
        <ele>74.6</ele>
        <time>2020-01-26T12:49:44Z</time>
      </trkpt>
      <trkpt lat="45.74689" lon="-1.20067">
        <ele>75.2</ele>
        <time>2020-01-26T12:49:45Z</time>
      </trkpt>
      <trkpt lat="45.74691" lon="-1.20069">
        <ele>75.6</ele>
        <time>2020-01-26T12:49:46Z</time>
      </trkpt>
      <trkpt lat="45.74692" lon="-1.2007">
        <ele>76</ele>
        <time>2020-01-26T12:49:47Z</time>
      </trkpt>
      <trkpt lat="45.74693" lon="-1.2007">
        <ele>76.4</ele>
        <time>2020-01-26T12:49:48Z</time>
      </trkpt>
      <trkpt lat="45.74695" lon="-1.20072">
        <ele>76.6</ele>
        <time>2020-01-26T12:49:49Z</time>
      </trkpt>
      <trkpt lat="45.74696" lon="-1.20073">
        <ele>76.6</ele>
        <time>2020-01-26T12:49:50Z</time>
      </trkpt>
      <trkpt lat="45.74698" lon="-1.20075">
        <ele>76.8</ele>
        <time>2020-01-26T12:49:51Z</time>
      </trkpt>
      <trkpt lat="45.74699" lon="-1.20076">
        <ele>76.8</ele>
        <time>2020-01-26T12:49:52Z</time>
      </trkpt>
      <trkpt lat="45.74701" lon="-1.20078">
        <ele>76.6</ele>
        <time>2020-01-26T12:49:53Z</time>
      </trkpt>
      <trkpt lat="45.74703" lon="-1.2008">
        <ele>76.4</ele>
        <time>2020-01-26T12:49:54Z</time>
      </trkpt>
      <trkpt lat="45.74706" lon="-1.20083">
        <ele>76.4</ele>
        <time>2020-01-26T12:49:55Z</time>
      </trkpt>
      <trkpt lat="45.74708" lon="-1.20086">
        <ele>75.8</ele>
        <time>2020-01-26T12:49:56Z</time>
      </trkpt>
      <trkpt lat="45.74712" lon="-1.20091">
        <ele>75.4</ele>
        <time>2020-01-26T12:49:57Z</time>
      </trkpt>
      <trkpt lat="45.74716" lon="-1.20094">
        <ele>74.8</ele>
        <time>2020-01-26T12:49:58Z</time>
      </trkpt>
      <trkpt lat="45.74721" lon="-1.20097">
        <ele>74.4</ele>
        <time>2020-01-26T12:49:59Z</time>
      </trkpt>
      <trkpt lat="45.74723" lon="-1.201">
        <ele>74.2</ele>
        <time>2020-01-26T12:50:00Z</time>
      </trkpt>
      <trkpt lat="45.74726" lon="-1.20103">
        <ele>73.8</ele>
        <time>2020-01-26T12:50:01Z</time>
      </trkpt>
      <trkpt lat="45.74732" lon="-1.20104">
        <ele>73.4</ele>
        <time>2020-01-26T12:50:02Z</time>
      </trkpt>
      <trkpt lat="45.74739" lon="-1.20104">
        <ele>72.8</ele>
        <time>2020-01-26T12:50:03Z</time>
      </trkpt>
      <trkpt lat="45.74746" lon="-1.20101">
        <ele>72.4</ele>
        <time>2020-01-26T12:50:04Z</time>
      </trkpt>
      <trkpt lat="45.74753" lon="-1.20101">
        <ele>72</ele>
        <time>2020-01-26T12:50:05Z</time>
      </trkpt>
      <trkpt lat="45.74757" lon="-1.20101">
        <ele>72</ele>
        <time>2020-01-26T12:50:06Z</time>
      </trkpt>
      <trkpt lat="45.74761" lon="-1.201">
        <ele>72</ele>
        <time>2020-01-26T12:50:07Z</time>
      </trkpt>
      <trkpt lat="45.74764" lon="-1.20099">
        <ele>72.2</ele>
        <time>2020-01-26T12:50:08Z</time>
      </trkpt>
      <trkpt lat="45.74767" lon="-1.20099">
        <ele>72.8</ele>
        <time>2020-01-26T12:50:09Z</time>
      </trkpt>
      <trkpt lat="45.7477" lon="-1.20098">
        <ele>73.2</ele>
        <time>2020-01-26T12:50:10Z</time>
      </trkpt>
      <trkpt lat="45.74773" lon="-1.20097">
        <ele>73.8</ele>
        <time>2020-01-26T12:50:11Z</time>
      </trkpt>
      <trkpt lat="45.74776" lon="-1.20096">
        <ele>73.8</ele>
        <time>2020-01-26T12:50:12Z</time>
      </trkpt>
      <trkpt lat="45.74779" lon="-1.20094">
        <ele>74</ele>
        <time>2020-01-26T12:50:13Z</time>
      </trkpt>
      <trkpt lat="45.74781" lon="-1.20092">
        <ele>74.6</ele>
        <time>2020-01-26T12:50:14Z</time>
      </trkpt>
      <trkpt lat="45.74783" lon="-1.20091">
        <ele>74.6</ele>
        <time>2020-01-26T12:50:15Z</time>
      </trkpt>
      <trkpt lat="45.74786" lon="-1.20089">
        <ele>75</ele>
        <time>2020-01-26T12:50:16Z</time>
      </trkpt>
      <trkpt lat="45.74788" lon="-1.20087">
        <ele>75.6</ele>
        <time>2020-01-26T12:50:17Z</time>
      </trkpt>
      <trkpt lat="45.7479" lon="-1.20085">
        <ele>75.6</ele>
        <time>2020-01-26T12:50:18Z</time>
      </trkpt>
      <trkpt lat="45.74792" lon="-1.20082">
        <ele>75.8</ele>
        <time>2020-01-26T12:50:19Z</time>
      </trkpt>
      <trkpt lat="45.74795" lon="-1.20081">
        <ele>75.8</ele>
        <time>2020-01-26T12:50:20Z</time>
      </trkpt>
      <trkpt lat="45.74797" lon="-1.2008">
        <ele>75.6</ele>
        <time>2020-01-26T12:50:21Z</time>
      </trkpt>
      <trkpt lat="45.748" lon="-1.20078">
        <ele>75.4</ele>
        <time>2020-01-26T12:50:22Z</time>
      </trkpt>
      <trkpt lat="45.74802" lon="-1.20077">
        <ele>74.8</ele>
        <time>2020-01-26T12:50:23Z</time>
      </trkpt>
      <trkpt lat="45.74805" lon="-1.20076">
        <ele>74.6</ele>
        <time>2020-01-26T12:50:24Z</time>
      </trkpt>
      <trkpt lat="45.74808" lon="-1.20074">
        <ele>74.4</ele>
        <time>2020-01-26T12:50:25Z</time>
      </trkpt>
      <trkpt lat="45.74811" lon="-1.20073">
        <ele>74.2</ele>
        <time>2020-01-26T12:50:26Z</time>
      </trkpt>
      <trkpt lat="45.74814" lon="-1.20073">
        <ele>74</ele>
        <time>2020-01-26T12:50:27Z</time>
      </trkpt>
      <trkpt lat="45.74816" lon="-1.20073">
        <ele>74</ele>
        <time>2020-01-26T12:50:28Z</time>
      </trkpt>
      <trkpt lat="45.74818" lon="-1.20073">
        <ele>74</ele>
        <time>2020-01-26T12:50:29Z</time>
      </trkpt>
      <trkpt lat="45.74821" lon="-1.20072">
        <ele>74</ele>
        <time>2020-01-26T12:50:30Z</time>
      </trkpt>
      <trkpt lat="45.74824" lon="-1.20071">
        <ele>74</ele>
        <time>2020-01-26T12:50:31Z</time>
      </trkpt>
      <trkpt lat="45.74826" lon="-1.20072">
        <ele>74</ele>
        <time>2020-01-26T12:50:32Z</time>
      </trkpt>
      <trkpt lat="45.74829" lon="-1.20072">
        <ele>73.8</ele>
        <time>2020-01-26T12:50:33Z</time>
      </trkpt>
      <trkpt lat="45.74831" lon="-1.20072">
        <ele>73.8</ele>
        <time>2020-01-26T12:50:34Z</time>
      </trkpt>
      <trkpt lat="45.74834" lon="-1.20072">
        <ele>73.8</ele>
        <time>2020-01-26T12:50:35Z</time>
      </trkpt>
      <trkpt lat="45.74837" lon="-1.20071">
        <ele>74</ele>
        <time>2020-01-26T12:50:36Z</time>
      </trkpt>
      <trkpt lat="45.74839" lon="-1.20071">
        <ele>74</ele>
        <time>2020-01-26T12:50:37Z</time>
      </trkpt>
      <trkpt lat="45.74842" lon="-1.2007">
        <ele>74</ele>
        <time>2020-01-26T12:50:38Z</time>
      </trkpt>
      <trkpt lat="45.74845" lon="-1.2007">
        <ele>73.6</ele>
        <time>2020-01-26T12:50:39Z</time>
      </trkpt>
      <trkpt lat="45.74848" lon="-1.2007">
        <ele>73.6</ele>
        <time>2020-01-26T12:50:40Z</time>
      </trkpt>
      <trkpt lat="45.74851" lon="-1.2007">
        <ele>73.2</ele>
        <time>2020-01-26T12:50:41Z</time>
      </trkpt>
      <trkpt lat="45.74855" lon="-1.2007">
        <ele>72.8</ele>
        <time>2020-01-26T12:50:42Z</time>
      </trkpt>
      <trkpt lat="45.74858" lon="-1.20069">
        <ele>72.6</ele>
        <time>2020-01-26T12:50:43Z</time>
      </trkpt>
      <trkpt lat="45.74863" lon="-1.20068">
        <ele>72.8</ele>
        <time>2020-01-26T12:50:44Z</time>
      </trkpt>
      <trkpt lat="45.74866" lon="-1.20067">
        <ele>72.8</ele>
        <time>2020-01-26T12:50:45Z</time>
      </trkpt>
      <trkpt lat="45.74869" lon="-1.20067">
        <ele>72.8</ele>
        <time>2020-01-26T12:50:46Z</time>
      </trkpt>
      <trkpt lat="45.74873" lon="-1.20067">
        <ele>72.8</ele>
        <time>2020-01-26T12:50:47Z</time>
      </trkpt>
      <trkpt lat="45.74877" lon="-1.20064">
        <ele>73</ele>
        <time>2020-01-26T12:50:48Z</time>
      </trkpt>
      <trkpt lat="45.74881" lon="-1.20062">
        <ele>73</ele>
        <time>2020-01-26T12:50:49Z</time>
      </trkpt>
      <trkpt lat="45.74885" lon="-1.20061">
        <ele>73.2</ele>
        <time>2020-01-26T12:50:50Z</time>
      </trkpt>
      <trkpt lat="45.74888" lon="-1.2006">
        <ele>73.2</ele>
        <time>2020-01-26T12:50:51Z</time>
      </trkpt>
      <trkpt lat="45.74892" lon="-1.20059">
        <ele>73.6</ele>
        <time>2020-01-26T12:50:52Z</time>
      </trkpt>
      <trkpt lat="45.74894" lon="-1.20057">
        <ele>73.8</ele>
        <time>2020-01-26T12:50:53Z</time>
      </trkpt>
      <trkpt lat="45.74898" lon="-1.20056">
        <ele>74</ele>
        <time>2020-01-26T12:50:54Z</time>
      </trkpt>
      <trkpt lat="45.74901" lon="-1.20055">
        <ele>74</ele>
        <time>2020-01-26T12:50:55Z</time>
      </trkpt>
      <trkpt lat="45.74904" lon="-1.20054">
        <ele>74.2</ele>
        <time>2020-01-26T12:50:56Z</time>
      </trkpt>
      <trkpt lat="45.74907" lon="-1.20052">
        <ele>74.2</ele>
        <time>2020-01-26T12:50:57Z</time>
      </trkpt>
      <trkpt lat="45.7491" lon="-1.20051">
        <ele>74.2</ele>
        <time>2020-01-26T12:50:58Z</time>
      </trkpt>
      <trkpt lat="45.74913" lon="-1.20051">
        <ele>74.4</ele>
        <time>2020-01-26T12:50:59Z</time>
      </trkpt>
      <trkpt lat="45.74916" lon="-1.20052">
        <ele>74.6</ele>
        <time>2020-01-26T12:51:00Z</time>
      </trkpt>
      <trkpt lat="45.74919" lon="-1.20054">
        <ele>74.4</ele>
        <time>2020-01-26T12:51:01Z</time>
      </trkpt>
      <trkpt lat="45.74921" lon="-1.20055">
        <ele>74.4</ele>
        <time>2020-01-26T12:51:02Z</time>
      </trkpt>
      <trkpt lat="45.74924" lon="-1.20055">
        <ele>74.4</ele>
        <time>2020-01-26T12:51:03Z</time>
      </trkpt>
      <trkpt lat="45.74926" lon="-1.20054">
        <ele>74.6</ele>
        <time>2020-01-26T12:51:04Z</time>
      </trkpt>
      <trkpt lat="45.7493" lon="-1.20053">
        <ele>74.8</ele>
        <time>2020-01-26T12:51:05Z</time>
      </trkpt>
      <trkpt lat="45.74933" lon="-1.20052">
        <ele>75</ele>
        <time>2020-01-26T12:51:06Z</time>
      </trkpt>
      <trkpt lat="45.74937" lon="-1.20052">
        <ele>75</ele>
        <time>2020-01-26T12:51:07Z</time>
      </trkpt>
      <trkpt lat="45.7494" lon="-1.20051">
        <ele>75.2</ele>
        <time>2020-01-26T12:51:08Z</time>
      </trkpt>
      <trkpt lat="45.74944" lon="-1.2005">
        <ele>75.4</ele>
        <time>2020-01-26T12:51:09Z</time>
      </trkpt>
      <trkpt lat="45.74947" lon="-1.2005">
        <ele>75.6</ele>
        <time>2020-01-26T12:51:10Z</time>
      </trkpt>
      <trkpt lat="45.7495" lon="-1.2005">
        <ele>76</ele>
        <time>2020-01-26T12:51:11Z</time>
      </trkpt>
      <trkpt lat="45.74953" lon="-1.20052">
        <ele>76.2</ele>
        <time>2020-01-26T12:51:12Z</time>
      </trkpt>
      <trkpt lat="45.74955" lon="-1.20055">
        <ele>76.4</ele>
        <time>2020-01-26T12:51:13Z</time>
      </trkpt>
      <trkpt lat="45.74957" lon="-1.20057">
        <ele>76.2</ele>
        <time>2020-01-26T12:51:14Z</time>
      </trkpt>
      <trkpt lat="45.74959" lon="-1.20059">
        <ele>76</ele>
        <time>2020-01-26T12:51:15Z</time>
      </trkpt>
      <trkpt lat="45.74961" lon="-1.20062">
        <ele>76</ele>
        <time>2020-01-26T12:51:16Z</time>
      </trkpt>
      <trkpt lat="45.74963" lon="-1.20064">
        <ele>76.2</ele>
        <time>2020-01-26T12:51:17Z</time>
      </trkpt>
      <trkpt lat="45.74965" lon="-1.20065">
        <ele>76.4</ele>
        <time>2020-01-26T12:51:18Z</time>
      </trkpt>
      <trkpt lat="45.74969" lon="-1.20066">
        <ele>76.6</ele>
        <time>2020-01-26T12:51:19Z</time>
      </trkpt>
      <trkpt lat="45.74972" lon="-1.20067">
        <ele>77</ele>
        <time>2020-01-26T12:51:20Z</time>
      </trkpt>
      <trkpt lat="45.74974" lon="-1.20067">
        <ele>77</ele>
        <time>2020-01-26T12:51:21Z</time>
      </trkpt>
      <trkpt lat="45.74977" lon="-1.20066">
        <ele>77.8</ele>
        <time>2020-01-26T12:51:22Z</time>
      </trkpt>
      <trkpt lat="45.7498" lon="-1.20067">
        <ele>78.4</ele>
        <time>2020-01-26T12:51:23Z</time>
      </trkpt>
      <trkpt lat="45.74982" lon="-1.20068">
        <ele>79</ele>
        <time>2020-01-26T12:51:24Z</time>
      </trkpt>
      <trkpt lat="45.74985" lon="-1.2007">
        <ele>79.2</ele>
        <time>2020-01-26T12:51:25Z</time>
      </trkpt>
      <trkpt lat="45.74987" lon="-1.20071">
        <ele>79.4</ele>
        <time>2020-01-26T12:51:26Z</time>
      </trkpt>
      <trkpt lat="45.74989" lon="-1.20071">
        <ele>79.4</ele>
        <time>2020-01-26T12:51:27Z</time>
      </trkpt>
      <trkpt lat="45.7499" lon="-1.20071">
        <ele>79.2</ele>
        <time>2020-01-26T12:51:28Z</time>
      </trkpt>
      <trkpt lat="45.74993" lon="-1.2007">
        <ele>79.4</ele>
        <time>2020-01-26T12:51:29Z</time>
      </trkpt>
      <trkpt lat="45.74995" lon="-1.20069">
        <ele>79.6</ele>
        <time>2020-01-26T12:51:30Z</time>
      </trkpt>
      <trkpt lat="45.74997" lon="-1.20067">
        <ele>79.6</ele>
        <time>2020-01-26T12:51:31Z</time>
      </trkpt>
      <trkpt lat="45.75" lon="-1.20067">
        <ele>79.8</ele>
        <time>2020-01-26T12:51:32Z</time>
      </trkpt>
      <trkpt lat="45.75002" lon="-1.20066">
        <ele>80.4</ele>
        <time>2020-01-26T12:51:33Z</time>
      </trkpt>
      <trkpt lat="45.75006" lon="-1.20065">
        <ele>80.8</ele>
        <time>2020-01-26T12:51:34Z</time>
      </trkpt>
      <trkpt lat="45.75008" lon="-1.20063">
        <ele>81</ele>
        <time>2020-01-26T12:51:35Z</time>
      </trkpt>
      <trkpt lat="45.75011" lon="-1.20062">
        <ele>81.2</ele>
        <time>2020-01-26T12:51:36Z</time>
      </trkpt>
      <trkpt lat="45.75013" lon="-1.20061">
        <ele>81.2</ele>
        <time>2020-01-26T12:51:37Z</time>
      </trkpt>
      <trkpt lat="45.75016" lon="-1.2006">
        <ele>81.2</ele>
        <time>2020-01-26T12:51:38Z</time>
      </trkpt>
      <trkpt lat="45.75019" lon="-1.2006">
        <ele>81.2</ele>
        <time>2020-01-26T12:51:39Z</time>
      </trkpt>
      <trkpt lat="45.75021" lon="-1.2006">
        <ele>81</ele>
        <time>2020-01-26T12:51:40Z</time>
      </trkpt>
      <trkpt lat="45.75024" lon="-1.2006">
        <ele>81.4</ele>
        <time>2020-01-26T12:51:41Z</time>
      </trkpt>
      <trkpt lat="45.75027" lon="-1.2006">
        <ele>81.8</ele>
        <time>2020-01-26T12:51:42Z</time>
      </trkpt>
      <trkpt lat="45.7503" lon="-1.20059">
        <ele>82</ele>
        <time>2020-01-26T12:51:43Z</time>
      </trkpt>
      <trkpt lat="45.75032" lon="-1.20059">
        <ele>82.2</ele>
        <time>2020-01-26T12:51:44Z</time>
      </trkpt>
      <trkpt lat="45.75034" lon="-1.20058">
        <ele>82.4</ele>
        <time>2020-01-26T12:51:45Z</time>
      </trkpt>
      <trkpt lat="45.75037" lon="-1.20057">
        <ele>82.6</ele>
        <time>2020-01-26T12:51:46Z</time>
      </trkpt>
      <trkpt lat="45.7504" lon="-1.20056">
        <ele>82.4</ele>
        <time>2020-01-26T12:51:47Z</time>
      </trkpt>
      <trkpt lat="45.75043" lon="-1.20055">
        <ele>82.6</ele>
        <time>2020-01-26T12:51:48Z</time>
      </trkpt>
      <trkpt lat="45.75045" lon="-1.20055">
        <ele>82.4</ele>
        <time>2020-01-26T12:51:49Z</time>
      </trkpt>
      <trkpt lat="45.75047" lon="-1.20054">
        <ele>82.4</ele>
        <time>2020-01-26T12:51:50Z</time>
      </trkpt>
      <trkpt lat="45.7505" lon="-1.20054">
        <ele>82.2</ele>
        <time>2020-01-26T12:51:51Z</time>
      </trkpt>
      <trkpt lat="45.75053" lon="-1.20052">
        <ele>82.2</ele>
        <time>2020-01-26T12:51:52Z</time>
      </trkpt>
      <trkpt lat="45.75056" lon="-1.20051">
        <ele>82.2</ele>
        <time>2020-01-26T12:51:53Z</time>
      </trkpt>
      <trkpt lat="45.75059" lon="-1.2005">
        <ele>82</ele>
        <time>2020-01-26T12:51:54Z</time>
      </trkpt>
      <trkpt lat="45.75062" lon="-1.20049">
        <ele>81.8</ele>
        <time>2020-01-26T12:51:55Z</time>
      </trkpt>
      <trkpt lat="45.75064" lon="-1.20049">
        <ele>81.4</ele>
        <time>2020-01-26T12:51:56Z</time>
      </trkpt>
      <trkpt lat="45.75068" lon="-1.20048">
        <ele>81</ele>
        <time>2020-01-26T12:51:57Z</time>
      </trkpt>
      <trkpt lat="45.75071" lon="-1.20047">
        <ele>80.8</ele>
        <time>2020-01-26T12:51:58Z</time>
      </trkpt>
      <trkpt lat="45.75073" lon="-1.20047">
        <ele>80.6</ele>
        <time>2020-01-26T12:51:59Z</time>
      </trkpt>
      <trkpt lat="45.75076" lon="-1.20047">
        <ele>80.4</ele>
        <time>2020-01-26T12:52:00Z</time>
      </trkpt>
      <trkpt lat="45.75077" lon="-1.20046">
        <ele>80.4</ele>
        <time>2020-01-26T12:52:01Z</time>
      </trkpt>
      <trkpt lat="45.7508" lon="-1.20047">
        <ele>80.2</ele>
        <time>2020-01-26T12:52:02Z</time>
      </trkpt>
      <trkpt lat="45.75082" lon="-1.20047">
        <ele>80.2</ele>
        <time>2020-01-26T12:52:03Z</time>
      </trkpt>
      <trkpt lat="45.75084" lon="-1.20047">
        <ele>80.2</ele>
        <time>2020-01-26T12:52:04Z</time>
      </trkpt>
      <trkpt lat="45.75086" lon="-1.20046">
        <ele>79.8</ele>
        <time>2020-01-26T12:52:05Z</time>
      </trkpt>
      <trkpt lat="45.75089" lon="-1.20046">
        <ele>79.4</ele>
        <time>2020-01-26T12:52:06Z</time>
      </trkpt>
      <trkpt lat="45.75091" lon="-1.20045">
        <ele>79.2</ele>
        <time>2020-01-26T12:52:07Z</time>
      </trkpt>
      <trkpt lat="45.75095" lon="-1.20045">
        <ele>79.2</ele>
        <time>2020-01-26T12:52:08Z</time>
      </trkpt>
      <trkpt lat="45.751" lon="-1.20045">
        <ele>78.8</ele>
        <time>2020-01-26T12:52:09Z</time>
      </trkpt>
      <trkpt lat="45.75105" lon="-1.20046">
        <ele>78.4</ele>
        <time>2020-01-26T12:52:10Z</time>
      </trkpt>
      <trkpt lat="45.7511" lon="-1.20048">
        <ele>78</ele>
        <time>2020-01-26T12:52:11Z</time>
      </trkpt>
      <trkpt lat="45.75114" lon="-1.20049">
        <ele>77.8</ele>
        <time>2020-01-26T12:52:12Z</time>
      </trkpt>
      <trkpt lat="45.75119" lon="-1.20053">
        <ele>77.6</ele>
        <time>2020-01-26T12:52:13Z</time>
      </trkpt>
      <trkpt lat="45.75122" lon="-1.20056">
        <ele>77</ele>
        <time>2020-01-26T12:52:14Z</time>
      </trkpt>
      <trkpt lat="45.75126" lon="-1.2006">
        <ele>76.4</ele>
        <time>2020-01-26T12:52:15Z</time>
      </trkpt>
      <trkpt lat="45.75129" lon="-1.20065">
        <ele>75.8</ele>
        <time>2020-01-26T12:52:16Z</time>
      </trkpt>
      <trkpt lat="45.75136" lon="-1.2007">
        <ele>75.2</ele>
        <time>2020-01-26T12:52:17Z</time>
      </trkpt>
      <trkpt lat="45.7514" lon="-1.20072">
        <ele>74.6</ele>
        <time>2020-01-26T12:52:18Z</time>
      </trkpt>
      <trkpt lat="45.75145" lon="-1.20072">
        <ele>74</ele>
        <time>2020-01-26T12:52:19Z</time>
      </trkpt>
      <trkpt lat="45.75149" lon="-1.20072">
        <ele>73.6</ele>
        <time>2020-01-26T12:52:20Z</time>
      </trkpt>
      <trkpt lat="45.75154" lon="-1.20071">
        <ele>73.2</ele>
        <time>2020-01-26T12:52:21Z</time>
      </trkpt>
      <trkpt lat="45.75159" lon="-1.20071">
        <ele>73</ele>
        <time>2020-01-26T12:52:22Z</time>
      </trkpt>
      <trkpt lat="45.75163" lon="-1.2007">
        <ele>73</ele>
        <time>2020-01-26T12:52:23Z</time>
      </trkpt>
      <trkpt lat="45.75167" lon="-1.20067">
        <ele>72.8</ele>
        <time>2020-01-26T12:52:24Z</time>
      </trkpt>
      <trkpt lat="45.75171" lon="-1.20065">
        <ele>72.2</ele>
        <time>2020-01-26T12:52:25Z</time>
      </trkpt>
      <trkpt lat="45.75174" lon="-1.20063">
        <ele>72</ele>
        <time>2020-01-26T12:52:26Z</time>
      </trkpt>
      <trkpt lat="45.75179" lon="-1.20061">
        <ele>71.4</ele>
        <time>2020-01-26T12:52:27Z</time>
      </trkpt>
      <trkpt lat="45.75183" lon="-1.20061">
        <ele>71.6</ele>
        <time>2020-01-26T12:52:28Z</time>
      </trkpt>
      <trkpt lat="45.75188" lon="-1.2006">
        <ele>71.4</ele>
        <time>2020-01-26T12:52:29Z</time>
      </trkpt>
      <trkpt lat="45.75193" lon="-1.20058">
        <ele>71.4</ele>
        <time>2020-01-26T12:52:30Z</time>
      </trkpt>
      <trkpt lat="45.75196" lon="-1.20057">
        <ele>71</ele>
        <time>2020-01-26T12:52:31Z</time>
      </trkpt>
      <trkpt lat="45.752" lon="-1.20056">
        <ele>71</ele>
        <time>2020-01-26T12:52:32Z</time>
      </trkpt>
      <trkpt lat="45.75204" lon="-1.20055">
        <ele>71</ele>
        <time>2020-01-26T12:52:33Z</time>
      </trkpt>
      <trkpt lat="45.75206" lon="-1.20054">
        <ele>71.2</ele>
        <time>2020-01-26T12:52:34Z</time>
      </trkpt>
      <trkpt lat="45.75209" lon="-1.20053">
        <ele>71.4</ele>
        <time>2020-01-26T12:52:35Z</time>
      </trkpt>
      <trkpt lat="45.75212" lon="-1.20051">
        <ele>71.8</ele>
        <time>2020-01-26T12:52:36Z</time>
      </trkpt>
      <trkpt lat="45.75214" lon="-1.20049">
        <ele>72.4</ele>
        <time>2020-01-26T12:52:37Z</time>
      </trkpt>
      <trkpt lat="45.75217" lon="-1.20047">
        <ele>72.8</ele>
        <time>2020-01-26T12:52:38Z</time>
      </trkpt>
      <trkpt lat="45.7522" lon="-1.20044">
        <ele>73</ele>
        <time>2020-01-26T12:52:39Z</time>
      </trkpt>
      <trkpt lat="45.75224" lon="-1.20042">
        <ele>73</ele>
        <time>2020-01-26T12:52:40Z</time>
      </trkpt>
      <trkpt lat="45.75226" lon="-1.2004">
        <ele>72.8</ele>
        <time>2020-01-26T12:52:41Z</time>
      </trkpt>
      <trkpt lat="45.75228" lon="-1.20038">
        <ele>72.6</ele>
        <time>2020-01-26T12:52:42Z</time>
      </trkpt>
      <trkpt lat="45.75232" lon="-1.20035">
        <ele>72.4</ele>
        <time>2020-01-26T12:52:43Z</time>
      </trkpt>
      <trkpt lat="45.75235" lon="-1.20034">
        <ele>72.4</ele>
        <time>2020-01-26T12:52:44Z</time>
      </trkpt>
      <trkpt lat="45.75238" lon="-1.2003">
        <ele>72.2</ele>
        <time>2020-01-26T12:52:45Z</time>
      </trkpt>
      <trkpt lat="45.75241" lon="-1.20025">
        <ele>72</ele>
        <time>2020-01-26T12:52:46Z</time>
      </trkpt>
      <trkpt lat="45.75244" lon="-1.20019">
        <ele>71.6</ele>
        <time>2020-01-26T12:52:47Z</time>
      </trkpt>
      <trkpt lat="45.75248" lon="-1.20014">
        <ele>71.2</ele>
        <time>2020-01-26T12:52:48Z</time>
      </trkpt>
      <trkpt lat="45.75252" lon="-1.2001">
        <ele>70.6</ele>
        <time>2020-01-26T12:52:49Z</time>
      </trkpt>
      <trkpt lat="45.75256" lon="-1.20006">
        <ele>70.2</ele>
        <time>2020-01-26T12:52:50Z</time>
      </trkpt>
      <trkpt lat="45.75261" lon="-1.20002">
        <ele>70</ele>
        <time>2020-01-26T12:52:51Z</time>
      </trkpt>
      <trkpt lat="45.75265" lon="-1.19998">
        <ele>69.4</ele>
        <time>2020-01-26T12:52:52Z</time>
      </trkpt>
      <trkpt lat="45.7527" lon="-1.19994">
        <ele>68.8</ele>
        <time>2020-01-26T12:52:53Z</time>
      </trkpt>
      <trkpt lat="45.75275" lon="-1.19991">
        <ele>68.4</ele>
        <time>2020-01-26T12:52:54Z</time>
      </trkpt>
      <trkpt lat="45.75279" lon="-1.19988">
        <ele>68</ele>
        <time>2020-01-26T12:52:55Z</time>
      </trkpt>
      <trkpt lat="45.75283" lon="-1.19986">
        <ele>68</ele>
        <time>2020-01-26T12:52:56Z</time>
      </trkpt>
      <trkpt lat="45.75286" lon="-1.19985">
        <ele>68</ele>
        <time>2020-01-26T12:52:57Z</time>
      </trkpt>
      <trkpt lat="45.7529" lon="-1.19984">
        <ele>68.2</ele>
        <time>2020-01-26T12:52:58Z</time>
      </trkpt>
      <trkpt lat="45.75293" lon="-1.19983">
        <ele>68.2</ele>
        <time>2020-01-26T12:52:59Z</time>
      </trkpt>
      <trkpt lat="45.75296" lon="-1.19982">
        <ele>68.4</ele>
        <time>2020-01-26T12:53:00Z</time>
      </trkpt>
      <trkpt lat="45.753" lon="-1.19981">
        <ele>68.6</ele>
        <time>2020-01-26T12:53:01Z</time>
      </trkpt>
      <trkpt lat="45.75303" lon="-1.19981">
        <ele>68.6</ele>
        <time>2020-01-26T12:53:02Z</time>
      </trkpt>
      <trkpt lat="45.75307" lon="-1.19981">
        <ele>68.8</ele>
        <time>2020-01-26T12:53:03Z</time>
      </trkpt>
      <trkpt lat="45.75312" lon="-1.19981">
        <ele>68.6</ele>
        <time>2020-01-26T12:53:04Z</time>
      </trkpt>
      <trkpt lat="45.75317" lon="-1.19981">
        <ele>68.2</ele>
        <time>2020-01-26T12:53:05Z</time>
      </trkpt>
      <trkpt lat="45.75321" lon="-1.1998">
        <ele>67.8</ele>
        <time>2020-01-26T12:53:06Z</time>
      </trkpt>
      <trkpt lat="45.75327" lon="-1.19979">
        <ele>67.4</ele>
        <time>2020-01-26T12:53:07Z</time>
      </trkpt>
      <trkpt lat="45.75333" lon="-1.19978">
        <ele>67</ele>
        <time>2020-01-26T12:53:08Z</time>
      </trkpt>
      <trkpt lat="45.75338" lon="-1.19978">
        <ele>66.6</ele>
        <time>2020-01-26T12:53:09Z</time>
      </trkpt>
      <trkpt lat="45.75343" lon="-1.19977">
        <ele>66.2</ele>
        <time>2020-01-26T12:53:10Z</time>
      </trkpt>
      <trkpt lat="45.75348" lon="-1.19976">
        <ele>65.6</ele>
        <time>2020-01-26T12:53:11Z</time>
      </trkpt>
      <trkpt lat="45.75353" lon="-1.19976">
        <ele>65.2</ele>
        <time>2020-01-26T12:53:12Z</time>
      </trkpt>
      <trkpt lat="45.75358" lon="-1.19976">
        <ele>64.6</ele>
        <time>2020-01-26T12:53:13Z</time>
      </trkpt>
      <trkpt lat="45.75362" lon="-1.19975">
        <ele>64.2</ele>
        <time>2020-01-26T12:53:14Z</time>
      </trkpt>
      <trkpt lat="45.75367" lon="-1.19974">
        <ele>64</ele>
        <time>2020-01-26T12:53:15Z</time>
      </trkpt>
      <trkpt lat="45.75372" lon="-1.19973">
        <ele>63.4</ele>
        <time>2020-01-26T12:53:16Z</time>
      </trkpt>
      <trkpt lat="45.75375" lon="-1.19973">
        <ele>63</ele>
        <time>2020-01-26T12:53:17Z</time>
      </trkpt>
      <trkpt lat="45.7538" lon="-1.19973">
        <ele>62.8</ele>
        <time>2020-01-26T12:53:18Z</time>
      </trkpt>
      <trkpt lat="45.75385" lon="-1.19972">
        <ele>62.6</ele>
        <time>2020-01-26T12:53:19Z</time>
      </trkpt>
      <trkpt lat="45.7539" lon="-1.19972">
        <ele>62.4</ele>
        <time>2020-01-26T12:53:20Z</time>
      </trkpt>
      <trkpt lat="45.75396" lon="-1.19972">
        <ele>62.4</ele>
        <time>2020-01-26T12:53:21Z</time>
      </trkpt>
      <trkpt lat="45.754" lon="-1.19971">
        <ele>62.2</ele>
        <time>2020-01-26T12:53:22Z</time>
      </trkpt>
      <trkpt lat="45.75406" lon="-1.19971">
        <ele>62.4</ele>
        <time>2020-01-26T12:53:23Z</time>
      </trkpt>
      <trkpt lat="45.7541" lon="-1.1997">
        <ele>62.6</ele>
        <time>2020-01-26T12:53:24Z</time>
      </trkpt>
      <trkpt lat="45.75415" lon="-1.1997">
        <ele>62.6</ele>
        <time>2020-01-26T12:53:25Z</time>
      </trkpt>
      <trkpt lat="45.75419" lon="-1.1997">
        <ele>62.8</ele>
        <time>2020-01-26T12:53:26Z</time>
      </trkpt>
      <trkpt lat="45.75423" lon="-1.1997">
        <ele>62.8</ele>
        <time>2020-01-26T12:53:27Z</time>
      </trkpt>
      <trkpt lat="45.75428" lon="-1.19969">
        <ele>62.6</ele>
        <time>2020-01-26T12:53:28Z</time>
      </trkpt>
      <trkpt lat="45.75432" lon="-1.19968">
        <ele>62.8</ele>
        <time>2020-01-26T12:53:29Z</time>
      </trkpt>
      <trkpt lat="45.75437" lon="-1.19968">
        <ele>62.6</ele>
        <time>2020-01-26T12:53:30Z</time>
      </trkpt>
      <trkpt lat="45.75442" lon="-1.19968">
        <ele>62.4</ele>
        <time>2020-01-26T12:53:31Z</time>
      </trkpt>
      <trkpt lat="45.75447" lon="-1.19968">
        <ele>62.4</ele>
        <time>2020-01-26T12:53:32Z</time>
      </trkpt>
      <trkpt lat="45.75452" lon="-1.19967">
        <ele>62.4</ele>
        <time>2020-01-26T12:53:33Z</time>
      </trkpt>
      <trkpt lat="45.75456" lon="-1.19967">
        <ele>62.4</ele>
        <time>2020-01-26T12:53:34Z</time>
      </trkpt>
      <trkpt lat="45.7546" lon="-1.19967">
        <ele>62.6</ele>
        <time>2020-01-26T12:53:35Z</time>
      </trkpt>
      <trkpt lat="45.75464" lon="-1.19966">
        <ele>62.4</ele>
        <time>2020-01-26T12:53:36Z</time>
      </trkpt>
      <trkpt lat="45.75468" lon="-1.19966">
        <ele>62.2</ele>
        <time>2020-01-26T12:53:37Z</time>
      </trkpt>
      <trkpt lat="45.75473" lon="-1.19965">
        <ele>62.4</ele>
        <time>2020-01-26T12:53:38Z</time>
      </trkpt>
      <trkpt lat="45.75479" lon="-1.19966">
        <ele>62.4</ele>
        <time>2020-01-26T12:53:39Z</time>
      </trkpt>
      <trkpt lat="45.75487" lon="-1.19965">
        <ele>61.6</ele>
        <time>2020-01-26T12:53:40Z</time>
      </trkpt>
      <trkpt lat="45.75495" lon="-1.19966">
        <ele>60.6</ele>
        <time>2020-01-26T12:53:41Z</time>
      </trkpt>
      <trkpt lat="45.75504" lon="-1.19965">
        <ele>60</ele>
        <time>2020-01-26T12:53:42Z</time>
      </trkpt>
      <trkpt lat="45.75512" lon="-1.19965">
        <ele>59.4</ele>
        <time>2020-01-26T12:53:43Z</time>
      </trkpt>
      <trkpt lat="45.75519" lon="-1.19964">
        <ele>59.2</ele>
        <time>2020-01-26T12:53:44Z</time>
      </trkpt>
      <trkpt lat="45.75524" lon="-1.19964">
        <ele>59</ele>
        <time>2020-01-26T12:53:45Z</time>
      </trkpt>
      <trkpt lat="45.75529" lon="-1.19963">
        <ele>59</ele>
        <time>2020-01-26T12:53:46Z</time>
      </trkpt>
      <trkpt lat="45.75534" lon="-1.19963">
        <ele>59.2</ele>
        <time>2020-01-26T12:53:47Z</time>
      </trkpt>
      <trkpt lat="45.75541" lon="-1.19963">
        <ele>59</ele>
        <time>2020-01-26T12:53:48Z</time>
      </trkpt>
      <trkpt lat="45.75546" lon="-1.19963">
        <ele>58.8</ele>
        <time>2020-01-26T12:53:49Z</time>
      </trkpt>
      <trkpt lat="45.75552" lon="-1.19963">
        <ele>58.8</ele>
        <time>2020-01-26T12:53:50Z</time>
      </trkpt>
      <trkpt lat="45.75557" lon="-1.19963">
        <ele>58.8</ele>
        <time>2020-01-26T12:53:51Z</time>
      </trkpt>
      <trkpt lat="45.75561" lon="-1.19963">
        <ele>59.2</ele>
        <time>2020-01-26T12:53:52Z</time>
      </trkpt>
      <trkpt lat="45.75564" lon="-1.19963">
        <ele>59</ele>
        <time>2020-01-26T12:53:53Z</time>
      </trkpt>
      <trkpt lat="45.75567" lon="-1.19962">
        <ele>58.8</ele>
        <time>2020-01-26T12:53:54Z</time>
      </trkpt>
      <trkpt lat="45.75569" lon="-1.19962">
        <ele>58.4</ele>
        <time>2020-01-26T12:53:55Z</time>
      </trkpt>
      <trkpt lat="45.75573" lon="-1.19962">
        <ele>58.2</ele>
        <time>2020-01-26T12:53:56Z</time>
      </trkpt>
      <trkpt lat="45.75576" lon="-1.19962">
        <ele>58.2</ele>
        <time>2020-01-26T12:53:57Z</time>
      </trkpt>
      <trkpt lat="45.75579" lon="-1.19961">
        <ele>58.2</ele>
        <time>2020-01-26T12:53:58Z</time>
      </trkpt>
      <trkpt lat="45.75583" lon="-1.19962">
        <ele>58.2</ele>
        <time>2020-01-26T12:53:59Z</time>
      </trkpt>
      <trkpt lat="45.75587" lon="-1.19961">
        <ele>58</ele>
        <time>2020-01-26T12:54:00Z</time>
      </trkpt>
      <trkpt lat="45.75591" lon="-1.19961">
        <ele>58.4</ele>
        <time>2020-01-26T12:54:01Z</time>
      </trkpt>
      <trkpt lat="45.75594" lon="-1.1996">
        <ele>58.6</ele>
        <time>2020-01-26T12:54:02Z</time>
      </trkpt>
      <trkpt lat="45.75599" lon="-1.1996">
        <ele>58.8</ele>
        <time>2020-01-26T12:54:03Z</time>
      </trkpt>
      <trkpt lat="45.75602" lon="-1.19959">
        <ele>59.2</ele>
        <time>2020-01-26T12:54:04Z</time>
      </trkpt>
      <trkpt lat="45.75604" lon="-1.19958">
        <ele>59.4</ele>
        <time>2020-01-26T12:54:05Z</time>
      </trkpt>
      <trkpt lat="45.75607" lon="-1.19957">
        <ele>59.6</ele>
        <time>2020-01-26T12:54:06Z</time>
      </trkpt>
      <trkpt lat="45.75609" lon="-1.19957">
        <ele>59.6</ele>
        <time>2020-01-26T12:54:07Z</time>
      </trkpt>
      <trkpt lat="45.75611" lon="-1.19956">
        <ele>60</ele>
        <time>2020-01-26T12:54:08Z</time>
      </trkpt>
      <trkpt lat="45.75614" lon="-1.19956">
        <ele>60.4</ele>
        <time>2020-01-26T12:54:09Z</time>
      </trkpt>
      <trkpt lat="45.75616" lon="-1.19956">
        <ele>60.6</ele>
        <time>2020-01-26T12:54:10Z</time>
      </trkpt>
      <trkpt lat="45.75619" lon="-1.19955">
        <ele>60.4</ele>
        <time>2020-01-26T12:54:11Z</time>
      </trkpt>
      <trkpt lat="45.75622" lon="-1.19955">
        <ele>60.4</ele>
        <time>2020-01-26T12:54:12Z</time>
      </trkpt>
      <trkpt lat="45.75626" lon="-1.19954">
        <ele>59.8</ele>
        <time>2020-01-26T12:54:13Z</time>
      </trkpt>
      <trkpt lat="45.7563" lon="-1.19954">
        <ele>59</ele>
        <time>2020-01-26T12:54:14Z</time>
      </trkpt>
      <trkpt lat="45.75634" lon="-1.19954">
        <ele>58.2</ele>
        <time>2020-01-26T12:54:15Z</time>
      </trkpt>
      <trkpt lat="45.7564" lon="-1.19953">
        <ele>58.2</ele>
        <time>2020-01-26T12:54:16Z</time>
      </trkpt>
      <trkpt lat="45.75646" lon="-1.19953">
        <ele>58</ele>
        <time>2020-01-26T12:54:17Z</time>
      </trkpt>
      <trkpt lat="45.75652" lon="-1.19953">
        <ele>57.8</ele>
        <time>2020-01-26T12:54:18Z</time>
      </trkpt>
      <trkpt lat="45.75656" lon="-1.19951">
        <ele>57.6</ele>
        <time>2020-01-26T12:54:19Z</time>
      </trkpt>
      <trkpt lat="45.75661" lon="-1.1995">
        <ele>57.4</ele>
        <time>2020-01-26T12:54:20Z</time>
      </trkpt>
      <trkpt lat="45.75666" lon="-1.19948">
        <ele>57.4</ele>
        <time>2020-01-26T12:54:21Z</time>
      </trkpt>
      <trkpt lat="45.75671" lon="-1.19945">
        <ele>57.2</ele>
        <time>2020-01-26T12:54:22Z</time>
      </trkpt>
      <trkpt lat="45.75675" lon="-1.19941">
        <ele>57.2</ele>
        <time>2020-01-26T12:54:23Z</time>
      </trkpt>
      <trkpt lat="45.75679" lon="-1.19938">
        <ele>57.4</ele>
        <time>2020-01-26T12:54:24Z</time>
      </trkpt>
      <trkpt lat="45.75684" lon="-1.19936">
        <ele>57.6</ele>
        <time>2020-01-26T12:54:25Z</time>
      </trkpt>
      <trkpt lat="45.75687" lon="-1.19933">
        <ele>57.8</ele>
        <time>2020-01-26T12:54:26Z</time>
      </trkpt>
      <trkpt lat="45.75691" lon="-1.19932">
        <ele>58.2</ele>
        <time>2020-01-26T12:54:27Z</time>
      </trkpt>
      <trkpt lat="45.75695" lon="-1.19929">
        <ele>58.6</ele>
        <time>2020-01-26T12:54:28Z</time>
      </trkpt>
      <trkpt lat="45.75698" lon="-1.19927">
        <ele>59</ele>
        <time>2020-01-26T12:54:29Z</time>
      </trkpt>
      <trkpt lat="45.75702" lon="-1.19924">
        <ele>59</ele>
        <time>2020-01-26T12:54:30Z</time>
      </trkpt>
      <trkpt lat="45.75705" lon="-1.19922">
        <ele>59</ele>
        <time>2020-01-26T12:54:31Z</time>
      </trkpt>
      <trkpt lat="45.7571" lon="-1.19919">
        <ele>59.2</ele>
        <time>2020-01-26T12:54:32Z</time>
      </trkpt>
      <trkpt lat="45.75714" lon="-1.19917">
        <ele>59.4</ele>
        <time>2020-01-26T12:54:33Z</time>
      </trkpt>
      <trkpt lat="45.75719" lon="-1.19915">
        <ele>59.4</ele>
        <time>2020-01-26T12:54:34Z</time>
      </trkpt>
      <trkpt lat="45.75724" lon="-1.19913">
        <ele>59.6</ele>
        <time>2020-01-26T12:54:35Z</time>
      </trkpt>
      <trkpt lat="45.75727" lon="-1.19911">
        <ele>59.4</ele>
        <time>2020-01-26T12:54:36Z</time>
      </trkpt>
      <trkpt lat="45.75732" lon="-1.19908">
        <ele>59.4</ele>
        <time>2020-01-26T12:54:37Z</time>
      </trkpt>
      <trkpt lat="45.75737" lon="-1.19906">
        <ele>59.2</ele>
        <time>2020-01-26T12:54:38Z</time>
      </trkpt>
      <trkpt lat="45.75741" lon="-1.19902">
        <ele>59.4</ele>
        <time>2020-01-26T12:54:39Z</time>
      </trkpt>
      <trkpt lat="45.75745" lon="-1.19901">
        <ele>59</ele>
        <time>2020-01-26T12:54:40Z</time>
      </trkpt>
      <trkpt lat="45.7575" lon="-1.19898">
        <ele>58.8</ele>
        <time>2020-01-26T12:54:41Z</time>
      </trkpt>
      <trkpt lat="45.75755" lon="-1.19896">
        <ele>58.6</ele>
        <time>2020-01-26T12:54:42Z</time>
      </trkpt>
      <trkpt lat="45.75758" lon="-1.19892">
        <ele>59</ele>
        <time>2020-01-26T12:54:43Z</time>
      </trkpt>
      <trkpt lat="45.75762" lon="-1.19889">
        <ele>59.2</ele>
        <time>2020-01-26T12:54:44Z</time>
      </trkpt>
      <trkpt lat="45.75765" lon="-1.19887">
        <ele>59.6</ele>
        <time>2020-01-26T12:54:45Z</time>
      </trkpt>
      <trkpt lat="45.75768" lon="-1.19886">
        <ele>60.6</ele>
        <time>2020-01-26T12:54:46Z</time>
      </trkpt>
      <trkpt lat="45.75771" lon="-1.19884">
        <ele>61.2</ele>
        <time>2020-01-26T12:54:47Z</time>
      </trkpt>
      <trkpt lat="45.75774" lon="-1.19882">
        <ele>61.6</ele>
        <time>2020-01-26T12:54:48Z</time>
      </trkpt>
      <trkpt lat="45.75778" lon="-1.1988">
        <ele>62</ele>
        <time>2020-01-26T12:54:49Z</time>
      </trkpt>
      <trkpt lat="45.7578" lon="-1.19876">
        <ele>62.4</ele>
        <time>2020-01-26T12:54:50Z</time>
      </trkpt>
      <trkpt lat="45.75784" lon="-1.19873">
        <ele>63</ele>
        <time>2020-01-26T12:54:51Z</time>
      </trkpt>
      <trkpt lat="45.75787" lon="-1.19872">
        <ele>62.8</ele>
        <time>2020-01-26T12:54:52Z</time>
      </trkpt>
      <trkpt lat="45.7579" lon="-1.1987">
        <ele>62.6</ele>
        <time>2020-01-26T12:54:53Z</time>
      </trkpt>
      <trkpt lat="45.75793" lon="-1.19869">
        <ele>62.4</ele>
        <time>2020-01-26T12:54:54Z</time>
      </trkpt>
      <trkpt lat="45.75796" lon="-1.19866">
        <ele>62.6</ele>
        <time>2020-01-26T12:54:55Z</time>
      </trkpt>
      <trkpt lat="45.75798" lon="-1.19865">
        <ele>63</ele>
        <time>2020-01-26T12:54:56Z</time>
      </trkpt>
      <trkpt lat="45.75801" lon="-1.19864">
        <ele>63.2</ele>
        <time>2020-01-26T12:54:57Z</time>
      </trkpt>
      <trkpt lat="45.75804" lon="-1.19862">
        <ele>63.4</ele>
        <time>2020-01-26T12:54:58Z</time>
      </trkpt>
      <trkpt lat="45.75806" lon="-1.1986">
        <ele>63.8</ele>
        <time>2020-01-26T12:54:59Z</time>
      </trkpt>
      <trkpt lat="45.75809" lon="-1.19858">
        <ele>64.2</ele>
        <time>2020-01-26T12:55:00Z</time>
      </trkpt>
      <trkpt lat="45.75811" lon="-1.19856">
        <ele>64.4</ele>
        <time>2020-01-26T12:55:01Z</time>
      </trkpt>
      <trkpt lat="45.75816" lon="-1.19854">
        <ele>64.8</ele>
        <time>2020-01-26T12:55:02Z</time>
      </trkpt>
      <trkpt lat="45.75819" lon="-1.19853">
        <ele>65.4</ele>
        <time>2020-01-26T12:55:03Z</time>
      </trkpt>
      <trkpt lat="45.75822" lon="-1.19852">
        <ele>65.8</ele>
        <time>2020-01-26T12:55:04Z</time>
      </trkpt>
      <trkpt lat="45.75825" lon="-1.1985">
        <ele>66.4</ele>
        <time>2020-01-26T12:55:05Z</time>
      </trkpt>
      <trkpt lat="45.75827" lon="-1.19848">
        <ele>66.8</ele>
        <time>2020-01-26T12:55:06Z</time>
      </trkpt>
      <trkpt lat="45.7583" lon="-1.19847">
        <ele>66.8</ele>
        <time>2020-01-26T12:55:07Z</time>
      </trkpt>
      <trkpt lat="45.75832" lon="-1.19845">
        <ele>67</ele>
        <time>2020-01-26T12:55:08Z</time>
      </trkpt>
      <trkpt lat="45.75835" lon="-1.19844">
        <ele>67</ele>
        <time>2020-01-26T12:55:09Z</time>
      </trkpt>
      <trkpt lat="45.75838" lon="-1.19843">
        <ele>67</ele>
        <time>2020-01-26T12:55:10Z</time>
      </trkpt>
      <trkpt lat="45.7584" lon="-1.19841">
        <ele>66.8</ele>
        <time>2020-01-26T12:55:11Z</time>
      </trkpt>
      <trkpt lat="45.75842" lon="-1.1984">
        <ele>66.8</ele>
        <time>2020-01-26T12:55:12Z</time>
      </trkpt>
      <trkpt lat="45.75844" lon="-1.19838">
        <ele>67.2</ele>
        <time>2020-01-26T12:55:13Z</time>
      </trkpt>
      <trkpt lat="45.75847" lon="-1.19838">
        <ele>67</ele>
        <time>2020-01-26T12:55:14Z</time>
      </trkpt>
      <trkpt lat="45.7585" lon="-1.19836">
        <ele>67</ele>
        <time>2020-01-26T12:55:15Z</time>
      </trkpt>
      <trkpt lat="45.75853" lon="-1.19835">
        <ele>67</ele>
        <time>2020-01-26T12:55:16Z</time>
      </trkpt>
      <trkpt lat="45.75855" lon="-1.19833">
        <ele>67</ele>
        <time>2020-01-26T12:55:17Z</time>
      </trkpt>
      <trkpt lat="45.75857" lon="-1.19832">
        <ele>67</ele>
        <time>2020-01-26T12:55:18Z</time>
      </trkpt>
      <trkpt lat="45.75859" lon="-1.19831">
        <ele>67</ele>
        <time>2020-01-26T12:55:19Z</time>
      </trkpt>
      <trkpt lat="45.75861" lon="-1.19831">
        <ele>67</ele>
        <time>2020-01-26T12:55:20Z</time>
      </trkpt>
      <trkpt lat="45.75863" lon="-1.1983">
        <ele>67</ele>
        <time>2020-01-26T12:55:21Z</time>
      </trkpt>
      <trkpt lat="45.75866" lon="-1.19828">
        <ele>67</ele>
        <time>2020-01-26T12:55:22Z</time>
      </trkpt>
      <trkpt lat="45.75868" lon="-1.19827">
        <ele>66.8</ele>
        <time>2020-01-26T12:55:23Z</time>
      </trkpt>
      <trkpt lat="45.75871" lon="-1.19827">
        <ele>66.4</ele>
        <time>2020-01-26T12:55:24Z</time>
      </trkpt>
      <trkpt lat="45.75873" lon="-1.19828">
        <ele>66</ele>
        <time>2020-01-26T12:55:25Z</time>
      </trkpt>
      <trkpt lat="45.75874" lon="-1.19832">
        <ele>65.4</ele>
        <time>2020-01-26T12:55:26Z</time>
      </trkpt>
      <trkpt lat="45.75873" lon="-1.19836">
        <ele>64.6</ele>
        <time>2020-01-26T12:55:27Z</time>
      </trkpt>
      <trkpt lat="45.75874" lon="-1.1984">
        <ele>63.6</ele>
        <time>2020-01-26T12:55:28Z</time>
      </trkpt>
      <trkpt lat="45.75874" lon="-1.19843">
        <ele>63</ele>
        <time>2020-01-26T12:55:29Z</time>
      </trkpt>
      <trkpt lat="45.75873" lon="-1.19848">
        <ele>62.2</ele>
        <time>2020-01-26T12:55:30Z</time>
      </trkpt>
      <trkpt lat="45.75872" lon="-1.19853">
        <ele>62</ele>
        <time>2020-01-26T12:55:31Z</time>
      </trkpt>
      <trkpt lat="45.75872" lon="-1.19857">
        <ele>61.8</ele>
        <time>2020-01-26T12:55:32Z</time>
      </trkpt>
      <trkpt lat="45.75872" lon="-1.19861">
        <ele>61.8</ele>
        <time>2020-01-26T12:55:33Z</time>
      </trkpt>
      <trkpt lat="45.75872" lon="-1.19866">
        <ele>61.6</ele>
        <time>2020-01-26T12:55:34Z</time>
      </trkpt>
      <trkpt lat="45.75872" lon="-1.19871">
        <ele>61.4</ele>
        <time>2020-01-26T12:55:35Z</time>
      </trkpt>
      <trkpt lat="45.75873" lon="-1.19875">
        <ele>61.6</ele>
        <time>2020-01-26T12:55:36Z</time>
      </trkpt>
      <trkpt lat="45.75873" lon="-1.19881">
        <ele>61.6</ele>
        <time>2020-01-26T12:55:37Z</time>
      </trkpt>
      <trkpt lat="45.75873" lon="-1.19886">
        <ele>61.8</ele>
        <time>2020-01-26T12:55:38Z</time>
      </trkpt>
      <trkpt lat="45.75873" lon="-1.19891">
        <ele>61.8</ele>
        <time>2020-01-26T12:55:39Z</time>
      </trkpt>
      <trkpt lat="45.75874" lon="-1.19896">
        <ele>61.6</ele>
        <time>2020-01-26T12:55:40Z</time>
      </trkpt>
      <trkpt lat="45.75874" lon="-1.19901">
        <ele>61</ele>
        <time>2020-01-26T12:55:41Z</time>
      </trkpt>
      <trkpt lat="45.75874" lon="-1.19906">
        <ele>60.2</ele>
        <time>2020-01-26T12:55:42Z</time>
      </trkpt>
      <trkpt lat="45.75874" lon="-1.19913">
        <ele>59.6</ele>
        <time>2020-01-26T12:55:43Z</time>
      </trkpt>
      <trkpt lat="45.75874" lon="-1.19921">
        <ele>59</ele>
        <time>2020-01-26T12:55:44Z</time>
      </trkpt>
      <trkpt lat="45.75875" lon="-1.19929">
        <ele>58.2</ele>
        <time>2020-01-26T12:55:45Z</time>
      </trkpt>
      <trkpt lat="45.75875" lon="-1.19939">
        <ele>57.4</ele>
        <time>2020-01-26T12:55:46Z</time>
      </trkpt>
      <trkpt lat="45.75875" lon="-1.19948">
        <ele>56.6</ele>
        <time>2020-01-26T12:55:47Z</time>
      </trkpt>
      <trkpt lat="45.75874" lon="-1.19958">
        <ele>55.6</ele>
        <time>2020-01-26T12:55:48Z</time>
      </trkpt>
      <trkpt lat="45.75873" lon="-1.19969">
        <ele>54.8</ele>
        <time>2020-01-26T12:55:49Z</time>
      </trkpt>
      <trkpt lat="45.75873" lon="-1.1998">
        <ele>54</ele>
        <time>2020-01-26T12:55:50Z</time>
      </trkpt>
      <trkpt lat="45.75874" lon="-1.1999">
        <ele>53.8</ele>
        <time>2020-01-26T12:55:51Z</time>
      </trkpt>
      <trkpt lat="45.75874" lon="-1.2">
        <ele>53.6</ele>
        <time>2020-01-26T12:55:52Z</time>
      </trkpt>
      <trkpt lat="45.75875" lon="-1.20009">
        <ele>53.2</ele>
        <time>2020-01-26T12:55:53Z</time>
      </trkpt>
      <trkpt lat="45.75877" lon="-1.20019">
        <ele>52.8</ele>
        <time>2020-01-26T12:55:54Z</time>
      </trkpt>
      <trkpt lat="45.75877" lon="-1.2003">
        <ele>52.6</ele>
        <time>2020-01-26T12:55:55Z</time>
      </trkpt>
      <trkpt lat="45.75878" lon="-1.20039">
        <ele>52.8</ele>
        <time>2020-01-26T12:55:56Z</time>
      </trkpt>
      <trkpt lat="45.75879" lon="-1.20048">
        <ele>52.8</ele>
        <time>2020-01-26T12:55:57Z</time>
      </trkpt>
      <trkpt lat="45.75879" lon="-1.20057">
        <ele>52.8</ele>
        <time>2020-01-26T12:55:58Z</time>
      </trkpt>
      <trkpt lat="45.7588" lon="-1.20066">
        <ele>53.2</ele>
        <time>2020-01-26T12:55:59Z</time>
      </trkpt>
      <trkpt lat="45.75879" lon="-1.20073">
        <ele>53.2</ele>
        <time>2020-01-26T12:56:00Z</time>
      </trkpt>
      <trkpt lat="45.75881" lon="-1.20078">
        <ele>53</ele>
        <time>2020-01-26T12:56:01Z</time>
      </trkpt>
      <trkpt lat="45.75884" lon="-1.20079">
        <ele>52.8</ele>
        <time>2020-01-26T12:56:02Z</time>
      </trkpt>
      <trkpt lat="45.75888" lon="-1.20079">
        <ele>52.6</ele>
        <time>2020-01-26T12:56:03Z</time>
      </trkpt>
      <trkpt lat="45.75891" lon="-1.20079">
        <ele>52.4</ele>
        <time>2020-01-26T12:56:04Z</time>
      </trkpt>
      <trkpt lat="45.75897" lon="-1.20079">
        <ele>52.8</ele>
        <time>2020-01-26T12:56:05Z</time>
      </trkpt>
      <trkpt lat="45.75901" lon="-1.2008">
        <ele>53.4</ele>
        <time>2020-01-26T12:56:06Z</time>
      </trkpt>
      <trkpt lat="45.75906" lon="-1.20078">
        <ele>53.8</ele>
        <time>2020-01-26T12:56:07Z</time>
      </trkpt>
      <trkpt lat="45.75909" lon="-1.20076">
        <ele>54</ele>
        <time>2020-01-26T12:56:08Z</time>
      </trkpt>
      <trkpt lat="45.75913" lon="-1.20074">
        <ele>54.4</ele>
        <time>2020-01-26T12:56:09Z</time>
      </trkpt>
      <trkpt lat="45.75917" lon="-1.20072">
        <ele>54.8</ele>
        <time>2020-01-26T12:56:10Z</time>
      </trkpt>
      <trkpt lat="45.7592" lon="-1.20068">
        <ele>55</ele>
        <time>2020-01-26T12:56:11Z</time>
      </trkpt>
      <trkpt lat="45.75923" lon="-1.20066">
        <ele>55.6</ele>
        <time>2020-01-26T12:56:12Z</time>
      </trkpt>
      <trkpt lat="45.75927" lon="-1.20062">
        <ele>56</ele>
        <time>2020-01-26T12:56:13Z</time>
      </trkpt>
      <trkpt lat="45.75928" lon="-1.20058">
        <ele>56.2</ele>
        <time>2020-01-26T12:56:14Z</time>
      </trkpt>
      <trkpt lat="45.75932" lon="-1.20053">
        <ele>56.4</ele>
        <time>2020-01-26T12:56:15Z</time>
      </trkpt>
      <trkpt lat="45.75935" lon="-1.20049">
        <ele>56.6</ele>
        <time>2020-01-26T12:56:16Z</time>
      </trkpt>
      <trkpt lat="45.75938" lon="-1.20046">
        <ele>56.6</ele>
        <time>2020-01-26T12:56:17Z</time>
      </trkpt>
      <trkpt lat="45.7594" lon="-1.20042">
        <ele>57</ele>
        <time>2020-01-26T12:56:18Z</time>
      </trkpt>
      <trkpt lat="45.75942" lon="-1.20037">
        <ele>57</ele>
        <time>2020-01-26T12:56:19Z</time>
      </trkpt>
      <trkpt lat="45.75944" lon="-1.20031">
        <ele>57</ele>
        <time>2020-01-26T12:56:20Z</time>
      </trkpt>
      <trkpt lat="45.75948" lon="-1.20027">
        <ele>57</ele>
        <time>2020-01-26T12:56:21Z</time>
      </trkpt>
      <trkpt lat="45.75949" lon="-1.20022">
        <ele>56.8</ele>
        <time>2020-01-26T12:56:22Z</time>
      </trkpt>
      <trkpt lat="45.75951" lon="-1.20015">
        <ele>56.2</ele>
        <time>2020-01-26T12:56:23Z</time>
      </trkpt>
      <trkpt lat="45.75952" lon="-1.20009">
        <ele>56</ele>
        <time>2020-01-26T12:56:24Z</time>
      </trkpt>
      <trkpt lat="45.75953" lon="-1.20002">
        <ele>56</ele>
        <time>2020-01-26T12:56:25Z</time>
      </trkpt>
      <trkpt lat="45.75957" lon="-1.19997">
        <ele>56</ele>
        <time>2020-01-26T12:56:26Z</time>
      </trkpt>
      <trkpt lat="45.75962" lon="-1.19991">
        <ele>56.2</ele>
        <time>2020-01-26T12:56:27Z</time>
      </trkpt>
      <trkpt lat="45.75963" lon="-1.19985">
        <ele>56</ele>
        <time>2020-01-26T12:56:28Z</time>
      </trkpt>
      <trkpt lat="45.75965" lon="-1.1998">
        <ele>56</ele>
        <time>2020-01-26T12:56:29Z</time>
      </trkpt>
      <trkpt lat="45.75966" lon="-1.19974">
        <ele>56.2</ele>
        <time>2020-01-26T12:56:30Z</time>
      </trkpt>
      <trkpt lat="45.75968" lon="-1.1997">
        <ele>56.6</ele>
        <time>2020-01-26T12:56:31Z</time>
      </trkpt>
      <trkpt lat="45.7597" lon="-1.19966">
        <ele>57</ele>
        <time>2020-01-26T12:56:32Z</time>
      </trkpt>
      <trkpt lat="45.75971" lon="-1.19961">
        <ele>57.2</ele>
        <time>2020-01-26T12:56:33Z</time>
      </trkpt>
      <trkpt lat="45.75973" lon="-1.19955">
        <ele>57.4</ele>
        <time>2020-01-26T12:56:34Z</time>
      </trkpt>
      <trkpt lat="45.75975" lon="-1.1995">
        <ele>57.6</ele>
        <time>2020-01-26T12:56:35Z</time>
      </trkpt>
      <trkpt lat="45.75978" lon="-1.19947">
        <ele>57.6</ele>
        <time>2020-01-26T12:56:36Z</time>
      </trkpt>
      <trkpt lat="45.7598" lon="-1.19942">
        <ele>57.8</ele>
        <time>2020-01-26T12:56:37Z</time>
      </trkpt>
      <trkpt lat="45.75982" lon="-1.19938">
        <ele>57.8</ele>
        <time>2020-01-26T12:56:38Z</time>
      </trkpt>
      <trkpt lat="45.75984" lon="-1.19934">
        <ele>57.6</ele>
        <time>2020-01-26T12:56:39Z</time>
      </trkpt>
      <trkpt lat="45.75986" lon="-1.19932">
        <ele>57</ele>
        <time>2020-01-26T12:56:40Z</time>
      </trkpt>
      <trkpt lat="45.75988" lon="-1.19929">
        <ele>56.8</ele>
        <time>2020-01-26T12:56:41Z</time>
      </trkpt>
      <trkpt lat="45.75991" lon="-1.19926">
        <ele>56.6</ele>
        <time>2020-01-26T12:56:42Z</time>
      </trkpt>
      <trkpt lat="45.75993" lon="-1.19925">
        <ele>55.6</ele>
        <time>2020-01-26T12:56:43Z</time>
      </trkpt>
      <trkpt lat="45.75996" lon="-1.19923">
        <ele>54.8</ele>
        <time>2020-01-26T12:56:44Z</time>
      </trkpt>
      <trkpt lat="45.75999" lon="-1.1992">
        <ele>54</ele>
        <time>2020-01-26T12:56:45Z</time>
      </trkpt>
      <trkpt lat="45.76001" lon="-1.19917">
        <ele>53.6</ele>
        <time>2020-01-26T12:56:46Z</time>
      </trkpt>
      <trkpt lat="45.76003" lon="-1.19913">
        <ele>53.4</ele>
        <time>2020-01-26T12:56:47Z</time>
      </trkpt>
      <trkpt lat="45.76006" lon="-1.1991">
        <ele>53.8</ele>
        <time>2020-01-26T12:56:48Z</time>
      </trkpt>
      <trkpt lat="45.76008" lon="-1.19907">
        <ele>54.6</ele>
        <time>2020-01-26T12:56:49Z</time>
      </trkpt>
      <trkpt lat="45.7601" lon="-1.19905">
        <ele>55.4</ele>
        <time>2020-01-26T12:56:50Z</time>
      </trkpt>
      <trkpt lat="45.76012" lon="-1.19902">
        <ele>56.6</ele>
        <time>2020-01-26T12:56:51Z</time>
      </trkpt>
      <trkpt lat="45.76014" lon="-1.199">
        <ele>57.4</ele>
        <time>2020-01-26T12:56:52Z</time>
      </trkpt>
      <trkpt lat="45.76014" lon="-1.19898">
        <ele>58</ele>
        <time>2020-01-26T12:56:53Z</time>
      </trkpt>
      <trkpt lat="45.76015" lon="-1.19896">
        <ele>58.6</ele>
        <time>2020-01-26T12:56:54Z</time>
      </trkpt>
      <trkpt lat="45.76017" lon="-1.19893">
        <ele>59</ele>
        <time>2020-01-26T12:56:55Z</time>
      </trkpt>
      <trkpt lat="45.76017" lon="-1.19891">
        <ele>59.4</ele>
        <time>2020-01-26T12:56:56Z</time>
      </trkpt>
      <trkpt lat="45.76019" lon="-1.19889">
        <ele>60.2</ele>
        <time>2020-01-26T12:56:57Z</time>
      </trkpt>
      <trkpt lat="45.76021" lon="-1.19887">
        <ele>60.8</ele>
        <time>2020-01-26T12:56:58Z</time>
      </trkpt>
      <trkpt lat="45.76022" lon="-1.19885">
        <ele>61.6</ele>
        <time>2020-01-26T12:56:59Z</time>
      </trkpt>
      <trkpt lat="45.76025" lon="-1.19883">
        <ele>62.2</ele>
        <time>2020-01-26T12:57:00Z</time>
      </trkpt>
      <trkpt lat="45.76026" lon="-1.19881">
        <ele>62.6</ele>
        <time>2020-01-26T12:57:01Z</time>
      </trkpt>
      <trkpt lat="45.76027" lon="-1.1988">
        <ele>63.2</ele>
        <time>2020-01-26T12:57:02Z</time>
      </trkpt>
      <trkpt lat="45.76028" lon="-1.19879">
        <ele>63.4</ele>
        <time>2020-01-26T12:57:03Z</time>
      </trkpt>
      <trkpt lat="45.7603" lon="-1.19877">
        <ele>63.6</ele>
        <time>2020-01-26T12:57:04Z</time>
      </trkpt>
      <trkpt lat="45.76031" lon="-1.19876">
        <ele>63.4</ele>
        <time>2020-01-26T12:57:05Z</time>
      </trkpt>
      <trkpt lat="45.76033" lon="-1.19875">
        <ele>63.4</ele>
        <time>2020-01-26T12:57:06Z</time>
      </trkpt>
      <trkpt lat="45.76036" lon="-1.19875">
        <ele>63</ele>
        <time>2020-01-26T12:57:07Z</time>
      </trkpt>
      <trkpt lat="45.7604" lon="-1.19874">
        <ele>62.2</ele>
        <time>2020-01-26T12:57:08Z</time>
      </trkpt>
      <trkpt lat="45.76044" lon="-1.19874">
        <ele>61.6</ele>
        <time>2020-01-26T12:57:09Z</time>
      </trkpt>
      <trkpt lat="45.76049" lon="-1.19873">
        <ele>61.6</ele>
        <time>2020-01-26T12:57:10Z</time>
      </trkpt>
      <trkpt lat="45.76053" lon="-1.19874">
        <ele>61.4</ele>
        <time>2020-01-26T12:57:11Z</time>
      </trkpt>
      <trkpt lat="45.76057" lon="-1.19875">
        <ele>61.6</ele>
        <time>2020-01-26T12:57:12Z</time>
      </trkpt>
      <trkpt lat="45.76059" lon="-1.19877">
        <ele>61.6</ele>
        <time>2020-01-26T12:57:13Z</time>
      </trkpt>
      <trkpt lat="45.7606" lon="-1.19879">
        <ele>61.8</ele>
        <time>2020-01-26T12:57:14Z</time>
      </trkpt>
      <trkpt lat="45.76062" lon="-1.1988">
        <ele>62</ele>
        <time>2020-01-26T12:57:15Z</time>
      </trkpt>
      <trkpt lat="45.76064" lon="-1.19881">
        <ele>62.6</ele>
        <time>2020-01-26T12:57:16Z</time>
      </trkpt>
      <trkpt lat="45.76065" lon="-1.19882">
        <ele>62.6</ele>
        <time>2020-01-26T12:57:17Z</time>
      </trkpt>
      <trkpt lat="45.76066" lon="-1.19884">
        <ele>63</ele>
        <time>2020-01-26T12:57:18Z</time>
      </trkpt>
      <trkpt lat="45.76067" lon="-1.19886">
        <ele>63.2</ele>
        <time>2020-01-26T12:57:19Z</time>
      </trkpt>
      <trkpt lat="45.76068" lon="-1.19888">
        <ele>63.4</ele>
        <time>2020-01-26T12:57:20Z</time>
      </trkpt>
      <trkpt lat="45.7607" lon="-1.1989">
        <ele>63.6</ele>
        <time>2020-01-26T12:57:21Z</time>
      </trkpt>
      <trkpt lat="45.76071" lon="-1.19892">
        <ele>63.4</ele>
        <time>2020-01-26T12:57:22Z</time>
      </trkpt>
      <trkpt lat="45.76072" lon="-1.19895">
        <ele>63</ele>
        <time>2020-01-26T12:57:23Z</time>
      </trkpt>
      <trkpt lat="45.76073" lon="-1.19898">
        <ele>62.8</ele>
        <time>2020-01-26T12:57:24Z</time>
      </trkpt>
      <trkpt lat="45.76075" lon="-1.19901">
        <ele>62.6</ele>
        <time>2020-01-26T12:57:25Z</time>
      </trkpt>
      <trkpt lat="45.76076" lon="-1.19904">
        <ele>62.8</ele>
        <time>2020-01-26T12:57:26Z</time>
      </trkpt>
      <trkpt lat="45.76078" lon="-1.19907">
        <ele>63</ele>
        <time>2020-01-26T12:57:27Z</time>
      </trkpt>
      <trkpt lat="45.7608" lon="-1.1991">
        <ele>63.2</ele>
        <time>2020-01-26T12:57:28Z</time>
      </trkpt>
      <trkpt lat="45.76081" lon="-1.19913">
        <ele>63.2</ele>
        <time>2020-01-26T12:57:29Z</time>
      </trkpt>
      <trkpt lat="45.76085" lon="-1.19917">
        <ele>63.4</ele>
        <time>2020-01-26T12:57:30Z</time>
      </trkpt>
      <trkpt lat="45.76088" lon="-1.19921">
        <ele>63.2</ele>
        <time>2020-01-26T12:57:31Z</time>
      </trkpt>
      <trkpt lat="45.76091" lon="-1.19925">
        <ele>63</ele>
        <time>2020-01-26T12:57:32Z</time>
      </trkpt>
      <trkpt lat="45.76096" lon="-1.19928">
        <ele>62.4</ele>
        <time>2020-01-26T12:57:33Z</time>
      </trkpt>
      <trkpt lat="45.76102" lon="-1.1993">
        <ele>62</ele>
        <time>2020-01-26T12:57:34Z</time>
      </trkpt>
      <trkpt lat="45.7611" lon="-1.19929">
        <ele>61.6</ele>
        <time>2020-01-26T12:57:35Z</time>
      </trkpt>
      <trkpt lat="45.76115" lon="-1.19927">
        <ele>60.6</ele>
        <time>2020-01-26T12:57:36Z</time>
      </trkpt>
      <trkpt lat="45.76122" lon="-1.19924">
        <ele>60.2</ele>
        <time>2020-01-26T12:57:37Z</time>
      </trkpt>
      <trkpt lat="45.76131" lon="-1.19922">
        <ele>59.4</ele>
        <time>2020-01-26T12:57:38Z</time>
      </trkpt>
      <trkpt lat="45.76139" lon="-1.19923">
        <ele>58.8</ele>
        <time>2020-01-26T12:57:39Z</time>
      </trkpt>
      <trkpt lat="45.76147" lon="-1.19926">
        <ele>58.2</ele>
        <time>2020-01-26T12:57:40Z</time>
      </trkpt>
      <trkpt lat="45.76155" lon="-1.1993">
        <ele>57.8</ele>
        <time>2020-01-26T12:57:41Z</time>
      </trkpt>
      <trkpt lat="45.76161" lon="-1.19931">
        <ele>57.6</ele>
        <time>2020-01-26T12:57:42Z</time>
      </trkpt>
      <trkpt lat="45.76168" lon="-1.19932">
        <ele>57.6</ele>
        <time>2020-01-26T12:57:43Z</time>
      </trkpt>
      <trkpt lat="45.76175" lon="-1.19932">
        <ele>57</ele>
        <time>2020-01-26T12:57:44Z</time>
      </trkpt>
      <trkpt lat="45.76181" lon="-1.19931">
        <ele>56.8</ele>
        <time>2020-01-26T12:57:45Z</time>
      </trkpt>
      <trkpt lat="45.76185" lon="-1.19931">
        <ele>56.4</ele>
        <time>2020-01-26T12:57:46Z</time>
      </trkpt>
      <trkpt lat="45.7619" lon="-1.19931">
        <ele>56.2</ele>
        <time>2020-01-26T12:57:47Z</time>
      </trkpt>
      <trkpt lat="45.76194" lon="-1.19931">
        <ele>56.4</ele>
        <time>2020-01-26T12:57:48Z</time>
      </trkpt>
      <trkpt lat="45.76199" lon="-1.19931">
        <ele>56.6</ele>
        <time>2020-01-26T12:57:49Z</time>
      </trkpt>
      <trkpt lat="45.76204" lon="-1.19931">
        <ele>56.6</ele>
        <time>2020-01-26T12:57:50Z</time>
      </trkpt>
      <trkpt lat="45.76208" lon="-1.19931">
        <ele>56.8</ele>
        <time>2020-01-26T12:57:51Z</time>
      </trkpt>
      <trkpt lat="45.76212" lon="-1.19931">
        <ele>57</ele>
        <time>2020-01-26T12:57:52Z</time>
      </trkpt>
      <trkpt lat="45.76216" lon="-1.19931">
        <ele>57</ele>
        <time>2020-01-26T12:57:53Z</time>
      </trkpt>
      <trkpt lat="45.7622" lon="-1.19932">
        <ele>57.2</ele>
        <time>2020-01-26T12:57:54Z</time>
      </trkpt>
      <trkpt lat="45.76224" lon="-1.19933">
        <ele>57.4</ele>
        <time>2020-01-26T12:57:55Z</time>
      </trkpt>
      <trkpt lat="45.76228" lon="-1.19935">
        <ele>57.6</ele>
        <time>2020-01-26T12:57:56Z</time>
      </trkpt>
      <trkpt lat="45.76233" lon="-1.19936">
        <ele>57.6</ele>
        <time>2020-01-26T12:57:57Z</time>
      </trkpt>
      <trkpt lat="45.76236" lon="-1.19938">
        <ele>57.6</ele>
        <time>2020-01-26T12:57:58Z</time>
      </trkpt>
      <trkpt lat="45.76239" lon="-1.19939">
        <ele>57.6</ele>
        <time>2020-01-26T12:57:59Z</time>
      </trkpt>
      <trkpt lat="45.76243" lon="-1.19941">
        <ele>57.4</ele>
        <time>2020-01-26T12:58:00Z</time>
      </trkpt>
      <trkpt lat="45.76246" lon="-1.19943">
        <ele>57.6</ele>
        <time>2020-01-26T12:58:01Z</time>
      </trkpt>
      <trkpt lat="45.76251" lon="-1.19946">
        <ele>57.2</ele>
        <time>2020-01-26T12:58:02Z</time>
      </trkpt>
      <trkpt lat="45.76256" lon="-1.19946">
        <ele>58</ele>
        <time>2020-01-26T12:58:03Z</time>
      </trkpt>
      <trkpt lat="45.7626" lon="-1.19948">
        <ele>58.6</ele>
        <time>2020-01-26T12:58:04Z</time>
      </trkpt>
      <trkpt lat="45.76265" lon="-1.1995">
        <ele>59.2</ele>
        <time>2020-01-26T12:58:05Z</time>
      </trkpt>
      <trkpt lat="45.76268" lon="-1.1995">
        <ele>59.8</ele>
        <time>2020-01-26T12:58:06Z</time>
      </trkpt>
      <trkpt lat="45.76273" lon="-1.19951">
        <ele>60</ele>
        <time>2020-01-26T12:58:07Z</time>
      </trkpt>
      <trkpt lat="45.76277" lon="-1.1995">
        <ele>60.6</ele>
        <time>2020-01-26T12:58:08Z</time>
      </trkpt>
      <trkpt lat="45.76282" lon="-1.1995">
        <ele>61</ele>
        <time>2020-01-26T12:58:09Z</time>
      </trkpt>
      <trkpt lat="45.76286" lon="-1.19951">
        <ele>61.2</ele>
        <time>2020-01-26T12:58:10Z</time>
      </trkpt>
      <trkpt lat="45.7629" lon="-1.19951">
        <ele>61.2</ele>
        <time>2020-01-26T12:58:11Z</time>
      </trkpt>
      <trkpt lat="45.76294" lon="-1.1995">
        <ele>61.2</ele>
        <time>2020-01-26T12:58:12Z</time>
      </trkpt>
      <trkpt lat="45.76298" lon="-1.1995">
        <ele>61.6</ele>
        <time>2020-01-26T12:58:13Z</time>
      </trkpt>
      <trkpt lat="45.76302" lon="-1.19949">
        <ele>62.2</ele>
        <time>2020-01-26T12:58:14Z</time>
      </trkpt>
      <trkpt lat="45.76305" lon="-1.19949">
        <ele>62.2</ele>
        <time>2020-01-26T12:58:15Z</time>
      </trkpt>
      <trkpt lat="45.76309" lon="-1.19949">
        <ele>62.4</ele>
        <time>2020-01-26T12:58:16Z</time>
      </trkpt>
      <trkpt lat="45.76313" lon="-1.19949">
        <ele>62.2</ele>
        <time>2020-01-26T12:58:17Z</time>
      </trkpt>
      <trkpt lat="45.76316" lon="-1.19948">
        <ele>62.2</ele>
        <time>2020-01-26T12:58:18Z</time>
      </trkpt>
      <trkpt lat="45.7632" lon="-1.19947">
        <ele>62.4</ele>
        <time>2020-01-26T12:58:19Z</time>
      </trkpt>
      <trkpt lat="45.76323" lon="-1.19945">
        <ele>62.6</ele>
        <time>2020-01-26T12:58:20Z</time>
      </trkpt>
      <trkpt lat="45.76325" lon="-1.19943">
        <ele>62.4</ele>
        <time>2020-01-26T12:58:21Z</time>
      </trkpt>
      <trkpt lat="45.76328" lon="-1.19942">
        <ele>62</ele>
        <time>2020-01-26T12:58:22Z</time>
      </trkpt>
      <trkpt lat="45.76332" lon="-1.1994">
        <ele>62</ele>
        <time>2020-01-26T12:58:23Z</time>
      </trkpt>
      <trkpt lat="45.76334" lon="-1.19938">
        <ele>61.6</ele>
        <time>2020-01-26T12:58:24Z</time>
      </trkpt>
      <trkpt lat="45.76337" lon="-1.19936">
        <ele>61.4</ele>
        <time>2020-01-26T12:58:25Z</time>
      </trkpt>
      <trkpt lat="45.7634" lon="-1.19934">
        <ele>61</ele>
        <time>2020-01-26T12:58:26Z</time>
      </trkpt>
      <trkpt lat="45.76342" lon="-1.19932">
        <ele>60.8</ele>
        <time>2020-01-26T12:58:27Z</time>
      </trkpt>
      <trkpt lat="45.76345" lon="-1.19931">
        <ele>60.6</ele>
        <time>2020-01-26T12:58:28Z</time>
      </trkpt>
      <trkpt lat="45.76348" lon="-1.1993">
        <ele>60.4</ele>
        <time>2020-01-26T12:58:29Z</time>
      </trkpt>
      <trkpt lat="45.76352" lon="-1.19929">
        <ele>60</ele>
        <time>2020-01-26T12:58:30Z</time>
      </trkpt>
      <trkpt lat="45.76355" lon="-1.19929">
        <ele>59.8</ele>
        <time>2020-01-26T12:58:31Z</time>
      </trkpt>
      <trkpt lat="45.76358" lon="-1.19929">
        <ele>59.6</ele>
        <time>2020-01-26T12:58:32Z</time>
      </trkpt>
      <trkpt lat="45.76361" lon="-1.19929">
        <ele>59.2</ele>
        <time>2020-01-26T12:58:33Z</time>
      </trkpt>
      <trkpt lat="45.76364" lon="-1.19928">
        <ele>58.8</ele>
        <time>2020-01-26T12:58:34Z</time>
      </trkpt>
      <trkpt lat="45.76367" lon="-1.19928">
        <ele>58.6</ele>
        <time>2020-01-26T12:58:35Z</time>
      </trkpt>
      <trkpt lat="45.7637" lon="-1.19927">
        <ele>58.2</ele>
        <time>2020-01-26T12:58:36Z</time>
      </trkpt>
      <trkpt lat="45.76373" lon="-1.19926">
        <ele>58</ele>
        <time>2020-01-26T12:58:37Z</time>
      </trkpt>
      <trkpt lat="45.76376" lon="-1.19925">
        <ele>57.6</ele>
        <time>2020-01-26T12:58:38Z</time>
      </trkpt>
      <trkpt lat="45.76378" lon="-1.19925">
        <ele>57.2</ele>
        <time>2020-01-26T12:58:39Z</time>
      </trkpt>
      <trkpt lat="45.76381" lon="-1.19924">
        <ele>57</ele>
        <time>2020-01-26T12:58:40Z</time>
      </trkpt>
      <trkpt lat="45.76384" lon="-1.19923">
        <ele>57</ele>
        <time>2020-01-26T12:58:41Z</time>
      </trkpt>
      <trkpt lat="45.76387" lon="-1.19922">
        <ele>57</ele>
        <time>2020-01-26T12:58:42Z</time>
      </trkpt>
      <trkpt lat="45.76389" lon="-1.1992">
        <ele>57</ele>
        <time>2020-01-26T12:58:43Z</time>
      </trkpt>
      <trkpt lat="45.76393" lon="-1.19919">
        <ele>57.2</ele>
        <time>2020-01-26T12:58:44Z</time>
      </trkpt>
      <trkpt lat="45.76395" lon="-1.19918">
        <ele>57.4</ele>
        <time>2020-01-26T12:58:45Z</time>
      </trkpt>
      <trkpt lat="45.76397" lon="-1.19917">
        <ele>57.6</ele>
        <time>2020-01-26T12:58:46Z</time>
      </trkpt>
      <trkpt lat="45.76398" lon="-1.19916">
        <ele>57.4</ele>
        <time>2020-01-26T12:58:47Z</time>
      </trkpt>
      <trkpt lat="45.764" lon="-1.19916">
        <ele>57</ele>
        <time>2020-01-26T12:58:48Z</time>
      </trkpt>
      <trkpt lat="45.76402" lon="-1.19915">
        <ele>57.4</ele>
        <time>2020-01-26T12:58:49Z</time>
      </trkpt>
      <trkpt lat="45.76404" lon="-1.19914">
        <ele>57.8</ele>
        <time>2020-01-26T12:58:50Z</time>
      </trkpt>
      <trkpt lat="45.76406" lon="-1.19914">
        <ele>57.8</ele>
        <time>2020-01-26T12:58:51Z</time>
      </trkpt>
      <trkpt lat="45.76409" lon="-1.19913">
        <ele>57.8</ele>
        <time>2020-01-26T12:58:52Z</time>
      </trkpt>
      <trkpt lat="45.76411" lon="-1.19912">
        <ele>58</ele>
        <time>2020-01-26T12:58:53Z</time>
      </trkpt>
      <trkpt lat="45.76414" lon="-1.19913">
        <ele>58.4</ele>
        <time>2020-01-26T12:58:54Z</time>
      </trkpt>
      <trkpt lat="45.76416" lon="-1.19914">
        <ele>58.8</ele>
        <time>2020-01-26T12:58:55Z</time>
      </trkpt>
      <trkpt lat="45.76417" lon="-1.19917">
        <ele>59.4</ele>
        <time>2020-01-26T12:58:56Z</time>
      </trkpt>
      <trkpt lat="45.76417" lon="-1.19919">
        <ele>59.6</ele>
        <time>2020-01-26T12:58:57Z</time>
      </trkpt>
      <trkpt lat="45.76417" lon="-1.19922">
        <ele>59.6</ele>
        <time>2020-01-26T12:58:58Z</time>
      </trkpt>
    </trkseg>
  </trk>
</gpx>